<?xml version="1.0" encoding="UTF-8" standalone="no" ?>
<gpx xmlns="http://www.topografix.com/GPX/1/1" xmlns:xsi="http://www.w3.org/2001/XMLSchema-instance" xsi:schemaLocation="http://www.topografix.com/GPX/1/1 http://www.topografix.com/GPX/1/1/gpx.xsd" version="1.1" creator="VisuGPX - https://www.visugpx.com">
  <metadata>
    <name>Les Arcs spéciales XMB</name>
    <desc><![CDATA[Superbe journée entre potes mounta cala en enchaînant les spéciales du XMB en montée et en descente...
Superposition des 2 journées;]]></desc>
  </metadata>
  <wpt lat="43.43561" lon="6.51082">
    <ele>41.2</ele>
  </wpt>
  <trk>
    <name><![CDATA[Les Arcs Cyclisme]]></name>
    <trkseg>
      <trkpt lat="43.43534" lon="6.51075">
        <ele>43.599998474121</ele>
        <time>2020-05-30T07:52:27.000Z</time>
      </trkpt>
      <trkpt lat="43.43537" lon="6.51076">
        <ele>43.599998474121</ele>
        <time>2020-05-30T07:52:34.000Z</time>
      </trkpt>
      <trkpt lat="43.43539" lon="6.51079">
        <ele>43.400001525879</ele>
        <time>2020-05-30T07:52:40.000Z</time>
      </trkpt>
      <trkpt lat="43.43541" lon="6.5108">
        <ele>43.400001525879</ele>
        <time>2020-05-30T07:52:48.000Z</time>
      </trkpt>
      <trkpt lat="43.43541" lon="6.51078">
        <ele>43.200000762939</ele>
        <time>2020-05-30T07:52:55.000Z</time>
      </trkpt>
      <trkpt lat="43.43539" lon="6.51077">
        <ele>43</ele>
        <time>2020-05-30T07:52:57.000Z</time>
      </trkpt>
      <trkpt lat="43.43536" lon="6.51076">
        <ele>43.400001525879</ele>
        <time>2020-05-30T07:53:01.000Z</time>
      </trkpt>
      <trkpt lat="43.43531" lon="6.51074">
        <ele>43.400001525879</ele>
        <time>2020-05-30T07:53:07.000Z</time>
      </trkpt>
      <trkpt lat="43.43529" lon="6.51075">
        <ele>43.200000762939</ele>
        <time>2020-05-30T07:53:17.000Z</time>
      </trkpt>
      <trkpt lat="43.43529" lon="6.51075">
        <ele>43.200000762939</ele>
        <time>2020-05-30T07:53:18.000Z</time>
      </trkpt>
      <trkpt lat="43.43528" lon="6.51076">
        <ele>43.799999237061</ele>
        <time>2020-05-30T07:53:23.000Z</time>
      </trkpt>
      <trkpt lat="43.4353" lon="6.51076">
        <ele>44</ele>
        <time>2020-05-30T07:53:30.000Z</time>
      </trkpt>
      <trkpt lat="43.43537" lon="6.5108">
        <ele>44</ele>
        <time>2020-05-30T07:53:36.000Z</time>
      </trkpt>
      <trkpt lat="43.4354" lon="6.51084">
        <ele>43.599998474121</ele>
        <time>2020-05-30T07:53:41.000Z</time>
      </trkpt>
      <trkpt lat="43.43546" lon="6.51087">
        <ele>43.200000762939</ele>
        <time>2020-05-30T07:53:47.000Z</time>
      </trkpt>
      <trkpt lat="43.43547" lon="6.51086">
        <ele>43</ele>
        <time>2020-05-30T07:53:48.000Z</time>
      </trkpt>
      <trkpt lat="43.43546" lon="6.51084">
        <ele>43</ele>
        <time>2020-05-30T07:53:51.000Z</time>
      </trkpt>
      <trkpt lat="43.4354" lon="6.51082">
        <ele>43</ele>
        <time>2020-05-30T07:53:56.000Z</time>
      </trkpt>
      <trkpt lat="43.4354" lon="6.51081">
        <ele>43</ele>
        <time>2020-05-30T07:53:57.000Z</time>
      </trkpt>
      <trkpt lat="43.43536" lon="6.51078">
        <ele>43.599998474121</ele>
        <time>2020-05-30T07:54:02.000Z</time>
      </trkpt>
      <trkpt lat="43.43535" lon="6.51078">
        <ele>43.599998474121</ele>
        <time>2020-05-30T07:54:03.000Z</time>
      </trkpt>
      <trkpt lat="43.43527" lon="6.51077">
        <ele>44</ele>
        <time>2020-05-30T07:54:10.000Z</time>
      </trkpt>
      <trkpt lat="43.43523" lon="6.51077">
        <ele>44.200000762939</ele>
        <time>2020-05-30T07:54:14.000Z</time>
      </trkpt>
      <trkpt lat="43.4352" lon="6.51076">
        <ele>44.200000762939</ele>
        <time>2020-05-30T07:54:16.000Z</time>
      </trkpt>
      <trkpt lat="43.43514" lon="6.51075">
        <ele>44.400001525879</ele>
        <time>2020-05-30T07:54:21.000Z</time>
      </trkpt>
      <trkpt lat="43.43512" lon="6.51076">
        <ele>44.599998474121</ele>
        <time>2020-05-30T07:54:23.000Z</time>
      </trkpt>
      <trkpt lat="43.4351" lon="6.51077">
        <ele>44.799999237061</ele>
        <time>2020-05-30T07:54:24.000Z</time>
      </trkpt>
      <trkpt lat="43.43505" lon="6.51077">
        <ele>45.200000762939</ele>
        <time>2020-05-30T07:54:27.000Z</time>
      </trkpt>
      <trkpt lat="43.43499" lon="6.51077">
        <ele>45.599998474121</ele>
        <time>2020-05-30T07:54:32.000Z</time>
      </trkpt>
      <trkpt lat="43.43497" lon="6.51077">
        <ele>45.799999237061</ele>
        <time>2020-05-30T07:54:33.000Z</time>
      </trkpt>
      <trkpt lat="43.4349" lon="6.51075">
        <ele>46.400001525879</ele>
        <time>2020-05-30T07:54:38.000Z</time>
      </trkpt>
      <trkpt lat="43.4349" lon="6.51074">
        <ele>46.400001525879</ele>
        <time>2020-05-30T07:54:39.000Z</time>
      </trkpt>
      <trkpt lat="43.43491" lon="6.51074">
        <ele>46.799999237061</ele>
        <time>2020-05-30T07:54:41.000Z</time>
      </trkpt>
      <trkpt lat="43.43496" lon="6.51074">
        <ele>46.799999237061</ele>
        <time>2020-05-30T07:54:44.000Z</time>
      </trkpt>
      <trkpt lat="43.43511" lon="6.51074">
        <ele>46.200000762939</ele>
        <time>2020-05-30T07:54:49.000Z</time>
      </trkpt>
      <trkpt lat="43.43519" lon="6.51075">
        <ele>45.599998474121</ele>
        <time>2020-05-30T07:54:52.000Z</time>
      </trkpt>
      <trkpt lat="43.43521" lon="6.51075">
        <ele>45.400001525879</ele>
        <time>2020-05-30T07:54:53.000Z</time>
      </trkpt>
      <trkpt lat="43.43531" lon="6.51078">
        <ele>44.400001525879</ele>
        <time>2020-05-30T07:54:59.000Z</time>
      </trkpt>
      <trkpt lat="43.43538" lon="6.51082">
        <ele>44</ele>
        <time>2020-05-30T07:55:05.000Z</time>
      </trkpt>
      <trkpt lat="43.43538" lon="6.51083">
        <ele>44</ele>
        <time>2020-05-30T07:55:06.000Z</time>
      </trkpt>
      <trkpt lat="43.4354" lon="6.51081">
        <ele>43.400001525879</ele>
        <time>2020-05-30T07:55:11.000Z</time>
      </trkpt>
      <trkpt lat="43.43535" lon="6.51079">
        <ele>43.799999237061</ele>
        <time>2020-05-30T07:55:18.000Z</time>
      </trkpt>
      <trkpt lat="43.43534" lon="6.51079">
        <ele>44</ele>
        <time>2020-05-30T07:55:20.000Z</time>
      </trkpt>
      <trkpt lat="43.43533" lon="6.51079">
        <ele>44</ele>
        <time>2020-05-30T07:55:21.000Z</time>
      </trkpt>
      <trkpt lat="43.43531" lon="6.51078">
        <ele>44</ele>
        <time>2020-05-30T07:55:23.000Z</time>
      </trkpt>
      <trkpt lat="43.43529" lon="6.51078">
        <ele>44.200000762939</ele>
        <time>2020-05-30T07:55:25.000Z</time>
      </trkpt>
      <trkpt lat="43.43522" lon="6.51078">
        <ele>44.400001525879</ele>
        <time>2020-05-30T07:55:32.000Z</time>
      </trkpt>
      <trkpt lat="43.43521" lon="6.51078">
        <ele>44.599998474121</ele>
        <time>2020-05-30T07:55:33.000Z</time>
      </trkpt>
      <trkpt lat="43.43521" lon="6.51078">
        <ele>44.599998474121</ele>
        <time>2020-05-30T07:55:34.000Z</time>
      </trkpt>
      <trkpt lat="43.43515" lon="6.51077">
        <ele>45</ele>
        <time>2020-05-30T07:55:39.000Z</time>
      </trkpt>
      <trkpt lat="43.43509" lon="6.51078">
        <ele>45.200000762939</ele>
        <time>2020-05-30T07:55:44.000Z</time>
      </trkpt>
      <trkpt lat="43.43506" lon="6.51078">
        <ele>45.599998474121</ele>
        <time>2020-05-30T07:55:47.000Z</time>
      </trkpt>
      <trkpt lat="43.43504" lon="6.51079">
        <ele>45.799999237061</ele>
        <time>2020-05-30T07:55:49.000Z</time>
      </trkpt>
      <trkpt lat="43.43502" lon="6.51079">
        <ele>46</ele>
        <time>2020-05-30T07:55:51.000Z</time>
      </trkpt>
      <trkpt lat="43.43494" lon="6.51078">
        <ele>46.400001525879</ele>
        <time>2020-05-30T07:55:58.000Z</time>
      </trkpt>
      <trkpt lat="43.43492" lon="6.51078">
        <ele>46.599998474121</ele>
        <time>2020-05-30T07:55:59.000Z</time>
      </trkpt>
      <trkpt lat="43.43481" lon="6.51073">
        <ele>47</ele>
        <time>2020-05-30T07:56:06.000Z</time>
      </trkpt>
      <trkpt lat="43.43465" lon="6.51063">
        <ele>47</ele>
        <time>2020-05-30T07:56:14.000Z</time>
      </trkpt>
      <trkpt lat="43.43445" lon="6.51057">
        <ele>46.799999237061</ele>
        <time>2020-05-30T07:56:22.000Z</time>
      </trkpt>
      <trkpt lat="43.43419" lon="6.51047">
        <ele>46</ele>
        <time>2020-05-30T07:56:31.000Z</time>
      </trkpt>
      <trkpt lat="43.43399" lon="6.51034">
        <ele>45.799999237061</ele>
        <time>2020-05-30T07:56:39.000Z</time>
      </trkpt>
      <trkpt lat="43.43389" lon="6.51032">
        <ele>45.599998474121</ele>
        <time>2020-05-30T07:56:43.000Z</time>
      </trkpt>
      <trkpt lat="43.43383" lon="6.51032">
        <ele>45.400001525879</ele>
        <time>2020-05-30T07:56:45.000Z</time>
      </trkpt>
      <trkpt lat="43.43359" lon="6.51025">
        <ele>44.799999237061</ele>
        <time>2020-05-30T07:56:52.000Z</time>
      </trkpt>
      <trkpt lat="43.43349" lon="6.51024">
        <ele>44.400001525879</ele>
        <time>2020-05-30T07:56:55.000Z</time>
      </trkpt>
      <trkpt lat="43.43342" lon="6.51022">
        <ele>44.400001525879</ele>
        <time>2020-05-30T07:56:57.000Z</time>
      </trkpt>
      <trkpt lat="43.43328" lon="6.51025">
        <ele>44.200000762939</ele>
        <time>2020-05-30T07:57:01.000Z</time>
      </trkpt>
      <trkpt lat="43.43294" lon="6.51038">
        <ele>43.599998474121</ele>
        <time>2020-05-30T07:57:10.000Z</time>
      </trkpt>
      <trkpt lat="43.43286" lon="6.51042">
        <ele>43.400001525879</ele>
        <time>2020-05-30T07:57:12.000Z</time>
      </trkpt>
      <trkpt lat="43.43258" lon="6.51052">
        <ele>43</ele>
        <time>2020-05-30T07:57:19.000Z</time>
      </trkpt>
      <trkpt lat="43.43232" lon="6.51048">
        <ele>42.799999237061</ele>
        <time>2020-05-30T07:57:26.000Z</time>
      </trkpt>
      <trkpt lat="43.43202" lon="6.51042">
        <ele>42.599998474121</ele>
        <time>2020-05-30T07:57:35.000Z</time>
      </trkpt>
      <trkpt lat="43.4319" lon="6.5104">
        <ele>42.799999237061</ele>
        <time>2020-05-30T07:57:42.000Z</time>
      </trkpt>
      <trkpt lat="43.43178" lon="6.51039">
        <ele>42.799999237061</ele>
        <time>2020-05-30T07:57:50.000Z</time>
      </trkpt>
      <trkpt lat="43.43174" lon="6.51041">
        <ele>43</ele>
        <time>2020-05-30T07:57:54.000Z</time>
      </trkpt>
      <trkpt lat="43.43172" lon="6.51044">
        <ele>43.200000762939</ele>
        <time>2020-05-30T07:57:56.000Z</time>
      </trkpt>
      <trkpt lat="43.43171" lon="6.51045">
        <ele>43.400001525879</ele>
        <time>2020-05-30T07:57:58.000Z</time>
      </trkpt>
      <trkpt lat="43.43169" lon="6.5105">
        <ele>43.799999237061</ele>
        <time>2020-05-30T07:58:02.000Z</time>
      </trkpt>
      <trkpt lat="43.43169" lon="6.5105">
        <ele>43.799999237061</ele>
        <time>2020-05-30T07:58:03.000Z</time>
      </trkpt>
      <trkpt lat="43.43168" lon="6.51057">
        <ele>44.200000762939</ele>
        <time>2020-05-30T07:58:08.000Z</time>
      </trkpt>
      <trkpt lat="43.43167" lon="6.51061">
        <ele>44.599998474121</ele>
        <time>2020-05-30T07:58:11.000Z</time>
      </trkpt>
      <trkpt lat="43.43167" lon="6.51064">
        <ele>45</ele>
        <time>2020-05-30T07:58:14.000Z</time>
      </trkpt>
      <trkpt lat="43.43168" lon="6.51064">
        <ele>45</ele>
        <time>2020-05-30T07:58:16.000Z</time>
      </trkpt>
      <trkpt lat="43.4317" lon="6.51062">
        <ele>45</ele>
        <time>2020-05-30T07:58:19.000Z</time>
      </trkpt>
      <trkpt lat="43.43169" lon="6.5106">
        <ele>44.799999237061</ele>
        <time>2020-05-30T07:58:23.000Z</time>
      </trkpt>
      <trkpt lat="43.43169" lon="6.5106">
        <ele>44.799999237061</ele>
        <time>2020-05-30T07:58:24.000Z</time>
      </trkpt>
      <trkpt lat="43.43167" lon="6.51066">
        <ele>44.599998474121</ele>
        <time>2020-05-30T07:58:27.000Z</time>
      </trkpt>
      <trkpt lat="43.43166" lon="6.51069">
        <ele>44.599998474121</ele>
        <time>2020-05-30T07:58:28.000Z</time>
      </trkpt>
      <trkpt lat="43.43162" lon="6.51081">
        <ele>45.599998474121</ele>
        <time>2020-05-30T07:58:33.000Z</time>
      </trkpt>
      <trkpt lat="43.43159" lon="6.51085">
        <ele>46.200000762939</ele>
        <time>2020-05-30T07:58:35.000Z</time>
      </trkpt>
      <trkpt lat="43.43155" lon="6.51091">
        <ele>46.799999237061</ele>
        <time>2020-05-30T07:58:38.000Z</time>
      </trkpt>
      <trkpt lat="43.43146" lon="6.51099">
        <ele>47.400001525879</ele>
        <time>2020-05-30T07:58:43.000Z</time>
      </trkpt>
      <trkpt lat="43.43143" lon="6.51102">
        <ele>48</ele>
        <time>2020-05-30T07:58:45.000Z</time>
      </trkpt>
      <trkpt lat="43.43134" lon="6.5111">
        <ele>49</ele>
        <time>2020-05-30T07:58:50.000Z</time>
      </trkpt>
      <trkpt lat="43.43132" lon="6.51111">
        <ele>49.200000762939</ele>
        <time>2020-05-30T07:58:51.000Z</time>
      </trkpt>
      <trkpt lat="43.43123" lon="6.51116">
        <ele>49.799999237061</ele>
        <time>2020-05-30T07:58:56.000Z</time>
      </trkpt>
      <trkpt lat="43.43119" lon="6.51119">
        <ele>50.200000762939</ele>
        <time>2020-05-30T07:58:58.000Z</time>
      </trkpt>
      <trkpt lat="43.43112" lon="6.51122">
        <ele>50.799999237061</ele>
        <time>2020-05-30T07:59:02.000Z</time>
      </trkpt>
      <trkpt lat="43.43108" lon="6.51124">
        <ele>51.200000762939</ele>
        <time>2020-05-30T07:59:04.000Z</time>
      </trkpt>
      <trkpt lat="43.43098" lon="6.51128">
        <ele>52.200000762939</ele>
        <time>2020-05-30T07:59:10.000Z</time>
      </trkpt>
      <trkpt lat="43.43096" lon="6.51129">
        <ele>52.200000762939</ele>
        <time>2020-05-30T07:59:11.000Z</time>
      </trkpt>
      <trkpt lat="43.43086" lon="6.51132">
        <ele>52.200000762939</ele>
        <time>2020-05-30T07:59:16.000Z</time>
      </trkpt>
      <trkpt lat="43.43067" lon="6.51129">
        <ele>51.599998474121</ele>
        <time>2020-05-30T07:59:23.000Z</time>
      </trkpt>
      <trkpt lat="43.43062" lon="6.51127">
        <ele>51.200000762939</ele>
        <time>2020-05-30T07:59:25.000Z</time>
      </trkpt>
      <trkpt lat="43.43054" lon="6.51122">
        <ele>51.200000762939</ele>
        <time>2020-05-30T07:59:29.000Z</time>
      </trkpt>
      <trkpt lat="43.43039" lon="6.51114">
        <ele>51.200000762939</ele>
        <time>2020-05-30T07:59:37.000Z</time>
      </trkpt>
      <trkpt lat="43.4303" lon="6.51102">
        <ele>51</ele>
        <time>2020-05-30T07:59:42.000Z</time>
      </trkpt>
      <trkpt lat="43.4302" lon="6.51099">
        <ele>50.799999237061</ele>
        <time>2020-05-30T07:59:47.000Z</time>
      </trkpt>
      <trkpt lat="43.43013" lon="6.51106">
        <ele>50.799999237061</ele>
        <time>2020-05-30T07:59:51.000Z</time>
      </trkpt>
      <trkpt lat="43.43011" lon="6.51109">
        <ele>50.799999237061</ele>
        <time>2020-05-30T07:59:52.000Z</time>
      </trkpt>
      <trkpt lat="43.43007" lon="6.51123">
        <ele>50.799999237061</ele>
        <time>2020-05-30T07:59:56.000Z</time>
      </trkpt>
      <trkpt lat="43.43004" lon="6.51133">
        <ele>51</ele>
        <time>2020-05-30T07:59:59.000Z</time>
      </trkpt>
      <trkpt lat="43.42998" lon="6.51155">
        <ele>51.599998474121</ele>
        <time>2020-05-30T08:00:06.000Z</time>
      </trkpt>
      <trkpt lat="43.4299" lon="6.51177">
        <ele>52</ele>
        <time>2020-05-30T08:00:13.000Z</time>
      </trkpt>
      <trkpt lat="43.42988" lon="6.51182">
        <ele>52.400001525879</ele>
        <time>2020-05-30T08:00:15.000Z</time>
      </trkpt>
      <trkpt lat="43.42983" lon="6.51189">
        <ele>53.400001525879</ele>
        <time>2020-05-30T08:00:19.000Z</time>
      </trkpt>
      <trkpt lat="43.42982" lon="6.51191">
        <ele>53.599998474121</ele>
        <time>2020-05-30T08:00:20.000Z</time>
      </trkpt>
      <trkpt lat="43.42972" lon="6.51199">
        <ele>54.599998474121</ele>
        <time>2020-05-30T08:00:26.000Z</time>
      </trkpt>
      <trkpt lat="43.42971" lon="6.51201">
        <ele>54.599998474121</ele>
        <time>2020-05-30T08:00:27.000Z</time>
      </trkpt>
      <trkpt lat="43.42962" lon="6.51213">
        <ele>55.599998474121</ele>
        <time>2020-05-30T08:00:33.000Z</time>
      </trkpt>
      <trkpt lat="43.4296" lon="6.51215">
        <ele>55.799999237061</ele>
        <time>2020-05-30T08:00:34.000Z</time>
      </trkpt>
      <trkpt lat="43.42954" lon="6.51227">
        <ele>56.599998474121</ele>
        <time>2020-05-30T08:00:39.000Z</time>
      </trkpt>
      <trkpt lat="43.42951" lon="6.51238">
        <ele>57.200000762939</ele>
        <time>2020-05-30T08:00:43.000Z</time>
      </trkpt>
      <trkpt lat="43.42948" lon="6.51245">
        <ele>57.599998474121</ele>
        <time>2020-05-30T08:00:46.000Z</time>
      </trkpt>
      <trkpt lat="43.42944" lon="6.51258">
        <ele>58.400001525879</ele>
        <time>2020-05-30T08:00:51.000Z</time>
      </trkpt>
      <trkpt lat="43.42942" lon="6.51263">
        <ele>58.799999237061</ele>
        <time>2020-05-30T08:00:53.000Z</time>
      </trkpt>
      <trkpt lat="43.42935" lon="6.51278">
        <ele>59.799999237061</ele>
        <time>2020-05-30T08:00:59.000Z</time>
      </trkpt>
      <trkpt lat="43.42934" lon="6.5128">
        <ele>60</ele>
        <time>2020-05-30T08:01:00.000Z</time>
      </trkpt>
      <trkpt lat="43.42926" lon="6.51297">
        <ele>61</ele>
        <time>2020-05-30T08:01:07.000Z</time>
      </trkpt>
      <trkpt lat="43.42924" lon="6.513">
        <ele>61.200000762939</ele>
        <time>2020-05-30T08:01:08.000Z</time>
      </trkpt>
      <trkpt lat="43.42917" lon="6.51312">
        <ele>62.200000762939</ele>
        <time>2020-05-30T08:01:13.000Z</time>
      </trkpt>
      <trkpt lat="43.42913" lon="6.51323">
        <ele>62.799999237061</ele>
        <time>2020-05-30T08:01:17.000Z</time>
      </trkpt>
      <trkpt lat="43.4291" lon="6.51332">
        <ele>63.400001525879</ele>
        <time>2020-05-30T08:01:20.000Z</time>
      </trkpt>
      <trkpt lat="43.42905" lon="6.51348">
        <ele>63.799999237061</ele>
        <time>2020-05-30T08:01:26.000Z</time>
      </trkpt>
      <trkpt lat="43.42901" lon="6.51356">
        <ele>64.400001525879</ele>
        <time>2020-05-30T08:01:29.000Z</time>
      </trkpt>
      <trkpt lat="43.42893" lon="6.51367">
        <ele>65.400001525879</ele>
        <time>2020-05-30T08:01:34.000Z</time>
      </trkpt>
      <trkpt lat="43.42891" lon="6.51369">
        <ele>65.599998474121</ele>
        <time>2020-05-30T08:01:35.000Z</time>
      </trkpt>
      <trkpt lat="43.42882" lon="6.51383">
        <ele>66.400001525879</ele>
        <time>2020-05-30T08:01:41.000Z</time>
      </trkpt>
      <trkpt lat="43.42879" lon="6.51389">
        <ele>66.800003051758</ele>
        <time>2020-05-30T08:01:43.000Z</time>
      </trkpt>
      <trkpt lat="43.4287" lon="6.51403">
        <ele>67.800003051758</ele>
        <time>2020-05-30T08:01:49.000Z</time>
      </trkpt>
      <trkpt lat="43.42868" lon="6.51405">
        <ele>68.199996948242</ele>
        <time>2020-05-30T08:01:50.000Z</time>
      </trkpt>
      <trkpt lat="43.42859" lon="6.51418">
        <ele>68.800003051758</ele>
        <time>2020-05-30T08:01:56.000Z</time>
      </trkpt>
      <trkpt lat="43.42857" lon="6.51424">
        <ele>69.199996948242</ele>
        <time>2020-05-30T08:01:58.000Z</time>
      </trkpt>
      <trkpt lat="43.42857" lon="6.51443">
        <ele>69.800003051758</ele>
        <time>2020-05-30T08:02:04.000Z</time>
      </trkpt>
      <trkpt lat="43.42857" lon="6.51449">
        <ele>70</ele>
        <time>2020-05-30T08:02:06.000Z</time>
      </trkpt>
      <trkpt lat="43.42857" lon="6.51462">
        <ele>70.599998474121</ele>
        <time>2020-05-30T08:02:10.000Z</time>
      </trkpt>
      <trkpt lat="43.42854" lon="6.51474">
        <ele>71</ele>
        <time>2020-05-30T08:02:14.000Z</time>
      </trkpt>
      <trkpt lat="43.42851" lon="6.51483">
        <ele>71.400001525879</ele>
        <time>2020-05-30T08:02:17.000Z</time>
      </trkpt>
      <trkpt lat="43.42847" lon="6.51491">
        <ele>72</ele>
        <time>2020-05-30T08:02:20.000Z</time>
      </trkpt>
      <trkpt lat="43.4284" lon="6.51501">
        <ele>72.800003051758</ele>
        <time>2020-05-30T08:02:24.000Z</time>
      </trkpt>
      <trkpt lat="43.42837" lon="6.51504">
        <ele>73</ele>
        <time>2020-05-30T08:02:26.000Z</time>
      </trkpt>
      <trkpt lat="43.4283" lon="6.51511">
        <ele>73.800003051758</ele>
        <time>2020-05-30T08:02:30.000Z</time>
      </trkpt>
      <trkpt lat="43.42822" lon="6.51514">
        <ele>74</ele>
        <time>2020-05-30T08:02:34.000Z</time>
      </trkpt>
      <trkpt lat="43.42814" lon="6.51516">
        <ele>74.800003051758</ele>
        <time>2020-05-30T08:02:38.000Z</time>
      </trkpt>
      <trkpt lat="43.42809" lon="6.51519">
        <ele>75.199996948242</ele>
        <time>2020-05-30T08:02:41.000Z</time>
      </trkpt>
      <trkpt lat="43.42802" lon="6.51523">
        <ele>75.599998474121</ele>
        <time>2020-05-30T08:02:45.000Z</time>
      </trkpt>
      <trkpt lat="43.42798" lon="6.51528">
        <ele>76.199996948242</ele>
        <time>2020-05-30T08:02:49.000Z</time>
      </trkpt>
      <trkpt lat="43.42795" lon="6.51532">
        <ele>76.400001525879</ele>
        <time>2020-05-30T08:02:51.000Z</time>
      </trkpt>
      <trkpt lat="43.42789" lon="6.51543">
        <ele>77.199996948242</ele>
        <time>2020-05-30T08:02:56.000Z</time>
      </trkpt>
      <trkpt lat="43.42788" lon="6.51545">
        <ele>77.400001525879</ele>
        <time>2020-05-30T08:02:57.000Z</time>
      </trkpt>
      <trkpt lat="43.42787" lon="6.51547">
        <ele>77.599998474121</ele>
        <time>2020-05-30T08:02:58.000Z</time>
      </trkpt>
      <trkpt lat="43.42783" lon="6.51559">
        <ele>78.199996948242</ele>
        <time>2020-05-30T08:03:02.000Z</time>
      </trkpt>
      <trkpt lat="43.42782" lon="6.51561">
        <ele>78.199996948242</ele>
        <time>2020-05-30T08:03:03.000Z</time>
      </trkpt>
      <trkpt lat="43.42782" lon="6.51579">
        <ele>79.199996948242</ele>
        <time>2020-05-30T08:03:09.000Z</time>
      </trkpt>
      <trkpt lat="43.42783" lon="6.51585">
        <ele>79.400001525879</ele>
        <time>2020-05-30T08:03:11.000Z</time>
      </trkpt>
      <trkpt lat="43.42786" lon="6.516">
        <ele>80.400001525879</ele>
        <time>2020-05-30T08:03:16.000Z</time>
      </trkpt>
      <trkpt lat="43.42786" lon="6.51604">
        <ele>80.599998474121</ele>
        <time>2020-05-30T08:03:17.000Z</time>
      </trkpt>
      <trkpt lat="43.42782" lon="6.51622">
        <ele>81.199996948242</ele>
        <time>2020-05-30T08:03:23.000Z</time>
      </trkpt>
      <trkpt lat="43.42776" lon="6.51631">
        <ele>81.599998474121</ele>
        <time>2020-05-30T08:03:27.000Z</time>
      </trkpt>
      <trkpt lat="43.42772" lon="6.51634">
        <ele>82</ele>
        <time>2020-05-30T08:03:29.000Z</time>
      </trkpt>
      <trkpt lat="43.42767" lon="6.51639">
        <ele>82.800003051758</ele>
        <time>2020-05-30T08:03:32.000Z</time>
      </trkpt>
      <trkpt lat="43.42759" lon="6.51645">
        <ele>83.400001525879</ele>
        <time>2020-05-30T08:03:36.000Z</time>
      </trkpt>
      <trkpt lat="43.42755" lon="6.51648">
        <ele>83.800003051758</ele>
        <time>2020-05-30T08:03:38.000Z</time>
      </trkpt>
      <trkpt lat="43.42748" lon="6.51654">
        <ele>84.199996948242</ele>
        <time>2020-05-30T08:03:42.000Z</time>
      </trkpt>
      <trkpt lat="43.42741" lon="6.51659">
        <ele>84.800003051758</ele>
        <time>2020-05-30T08:03:46.000Z</time>
      </trkpt>
      <trkpt lat="43.42736" lon="6.51662">
        <ele>85.599998474121</ele>
        <time>2020-05-30T08:03:49.000Z</time>
      </trkpt>
      <trkpt lat="43.42732" lon="6.51665">
        <ele>86</ele>
        <time>2020-05-30T08:03:51.000Z</time>
      </trkpt>
      <trkpt lat="43.42726" lon="6.51676">
        <ele>86.599998474121</ele>
        <time>2020-05-30T08:03:56.000Z</time>
      </trkpt>
      <trkpt lat="43.42726" lon="6.51689">
        <ele>86.800003051758</ele>
        <time>2020-05-30T08:04:00.000Z</time>
      </trkpt>
      <trkpt lat="43.42732" lon="6.51701">
        <ele>86.800003051758</ele>
        <time>2020-05-30T08:04:05.000Z</time>
      </trkpt>
      <trkpt lat="43.42736" lon="6.51706">
        <ele>87.199996948242</ele>
        <time>2020-05-30T08:04:07.000Z</time>
      </trkpt>
      <trkpt lat="43.42742" lon="6.51718">
        <ele>88</ele>
        <time>2020-05-30T08:04:12.000Z</time>
      </trkpt>
      <trkpt lat="43.42746" lon="6.51725">
        <ele>88.199996948242</ele>
        <time>2020-05-30T08:04:15.000Z</time>
      </trkpt>
      <trkpt lat="43.42752" lon="6.51737">
        <ele>89</ele>
        <time>2020-05-30T08:04:20.000Z</time>
      </trkpt>
      <trkpt lat="43.42754" lon="6.51741">
        <ele>89.400001525879</ele>
        <time>2020-05-30T08:04:22.000Z</time>
      </trkpt>
      <trkpt lat="43.42761" lon="6.51754">
        <ele>90.400001525879</ele>
        <time>2020-05-30T08:04:27.000Z</time>
      </trkpt>
      <trkpt lat="43.42763" lon="6.51758">
        <ele>90.800003051758</ele>
        <time>2020-05-30T08:04:29.000Z</time>
      </trkpt>
      <trkpt lat="43.4277" lon="6.51768">
        <ele>91.599998474121</ele>
        <time>2020-05-30T08:04:33.000Z</time>
      </trkpt>
      <trkpt lat="43.42777" lon="6.51776">
        <ele>92</ele>
        <time>2020-05-30T08:04:37.000Z</time>
      </trkpt>
      <trkpt lat="43.42785" lon="6.51787">
        <ele>92.800003051758</ele>
        <time>2020-05-30T08:04:42.000Z</time>
      </trkpt>
      <trkpt lat="43.42792" lon="6.51796">
        <ele>93.599998474121</ele>
        <time>2020-05-30T08:04:46.000Z</time>
      </trkpt>
      <trkpt lat="43.42795" lon="6.51801">
        <ele>94</ele>
        <time>2020-05-30T08:04:48.000Z</time>
      </trkpt>
      <trkpt lat="43.42803" lon="6.51819">
        <ele>94.599998474121</ele>
        <time>2020-05-30T08:04:54.000Z</time>
      </trkpt>
      <trkpt lat="43.42805" lon="6.51828">
        <ele>95</ele>
        <time>2020-05-30T08:04:57.000Z</time>
      </trkpt>
      <trkpt lat="43.42806" lon="6.51841">
        <ele>96</ele>
        <time>2020-05-30T08:05:01.000Z</time>
      </trkpt>
      <trkpt lat="43.42806" lon="6.51845">
        <ele>96.199996948242</ele>
        <time>2020-05-30T08:05:02.000Z</time>
      </trkpt>
      <trkpt lat="43.42806" lon="6.51858">
        <ele>97.199996948242</ele>
        <time>2020-05-30T08:05:06.000Z</time>
      </trkpt>
      <trkpt lat="43.42807" lon="6.51878">
        <ele>98</ele>
        <time>2020-05-30T08:05:12.000Z</time>
      </trkpt>
      <trkpt lat="43.42808" lon="6.51881">
        <ele>98.199996948242</ele>
        <time>2020-05-30T08:05:13.000Z</time>
      </trkpt>
      <trkpt lat="43.42812" lon="6.51896">
        <ele>99.199996948242</ele>
        <time>2020-05-30T08:05:18.000Z</time>
      </trkpt>
      <trkpt lat="43.42814" lon="6.51902">
        <ele>99.800003051758</ele>
        <time>2020-05-30T08:05:20.000Z</time>
      </trkpt>
      <trkpt lat="43.42818" lon="6.51915">
        <ele>100.40000152588</ele>
        <time>2020-05-30T08:05:24.000Z</time>
      </trkpt>
      <trkpt lat="43.42819" lon="6.51931">
        <ele>101.40000152588</ele>
        <time>2020-05-30T08:05:29.000Z</time>
      </trkpt>
      <trkpt lat="43.42819" lon="6.51938">
        <ele>101.59999847412</ele>
        <time>2020-05-30T08:05:31.000Z</time>
      </trkpt>
      <trkpt lat="43.42816" lon="6.51957">
        <ele>102.80000305176</ele>
        <time>2020-05-30T08:05:37.000Z</time>
      </trkpt>
      <trkpt lat="43.42815" lon="6.51973">
        <ele>104</ele>
        <time>2020-05-30T08:05:42.000Z</time>
      </trkpt>
      <trkpt lat="43.42816" lon="6.5198">
        <ele>104.59999847412</ele>
        <time>2020-05-30T08:05:44.000Z</time>
      </trkpt>
      <trkpt lat="43.42818" lon="6.51986">
        <ele>105</ele>
        <time>2020-05-30T08:05:46.000Z</time>
      </trkpt>
      <trkpt lat="43.42824" lon="6.52004">
        <ele>106</ele>
        <time>2020-05-30T08:05:52.000Z</time>
      </trkpt>
      <trkpt lat="43.42825" lon="6.52007">
        <ele>106.40000152588</ele>
        <time>2020-05-30T08:05:53.000Z</time>
      </trkpt>
      <trkpt lat="43.42827" lon="6.52017">
        <ele>107.40000152588</ele>
        <time>2020-05-30T08:05:56.000Z</time>
      </trkpt>
      <trkpt lat="43.4283" lon="6.52035">
        <ele>108.40000152588</ele>
        <time>2020-05-30T08:06:01.000Z</time>
      </trkpt>
      <trkpt lat="43.42831" lon="6.52039">
        <ele>108.59999847412</ele>
        <time>2020-05-30T08:06:02.000Z</time>
      </trkpt>
      <trkpt lat="43.42838" lon="6.52064">
        <ele>109.59999847412</ele>
        <time>2020-05-30T08:06:09.000Z</time>
      </trkpt>
      <trkpt lat="43.42841" lon="6.52071">
        <ele>110</ele>
        <time>2020-05-30T08:06:11.000Z</time>
      </trkpt>
      <trkpt lat="43.42846" lon="6.52087">
        <ele>110.59999847412</ele>
        <time>2020-05-30T08:06:15.000Z</time>
      </trkpt>
      <trkpt lat="43.42849" lon="6.52106">
        <ele>111.19999694824</ele>
        <time>2020-05-30T08:06:20.000Z</time>
      </trkpt>
      <trkpt lat="43.42848" lon="6.5213">
        <ele>111.40000152588</ele>
        <time>2020-05-30T08:06:26.000Z</time>
      </trkpt>
      <trkpt lat="43.42844" lon="6.52137">
        <ele>111.80000305176</ele>
        <time>2020-05-30T08:06:28.000Z</time>
      </trkpt>
      <trkpt lat="43.42836" lon="6.52142">
        <ele>112.19999694824</ele>
        <time>2020-05-30T08:06:31.000Z</time>
      </trkpt>
      <trkpt lat="43.42831" lon="6.52144">
        <ele>112.80000305176</ele>
        <time>2020-05-30T08:06:33.000Z</time>
      </trkpt>
      <trkpt lat="43.42817" lon="6.52151">
        <ele>113.80000305176</ele>
        <time>2020-05-30T08:06:38.000Z</time>
      </trkpt>
      <trkpt lat="43.42803" lon="6.52157">
        <ele>114.40000152588</ele>
        <time>2020-05-30T08:06:44.000Z</time>
      </trkpt>
      <trkpt lat="43.42798" lon="6.52159">
        <ele>115</ele>
        <time>2020-05-30T08:06:46.000Z</time>
      </trkpt>
      <trkpt lat="43.42785" lon="6.52164">
        <ele>116</ele>
        <time>2020-05-30T08:06:51.000Z</time>
      </trkpt>
      <trkpt lat="43.42782" lon="6.52165">
        <ele>116</ele>
        <time>2020-05-30T08:06:52.000Z</time>
      </trkpt>
      <trkpt lat="43.42763" lon="6.52163">
        <ele>117</ele>
        <time>2020-05-30T08:06:59.000Z</time>
      </trkpt>
      <trkpt lat="43.42761" lon="6.52163">
        <ele>117</ele>
        <time>2020-05-30T08:07:00.000Z</time>
      </trkpt>
      <trkpt lat="43.42746" lon="6.52157">
        <ele>118.19999694824</ele>
        <time>2020-05-30T08:07:06.000Z</time>
      </trkpt>
      <trkpt lat="43.42741" lon="6.52154">
        <ele>118.59999847412</ele>
        <time>2020-05-30T08:07:08.000Z</time>
      </trkpt>
      <trkpt lat="43.42733" lon="6.52151">
        <ele>119.19999694824</ele>
        <time>2020-05-30T08:07:11.000Z</time>
      </trkpt>
      <trkpt lat="43.42723" lon="6.52151">
        <ele>120.19999694824</ele>
        <time>2020-05-30T08:07:15.000Z</time>
      </trkpt>
      <trkpt lat="43.4272" lon="6.52152">
        <ele>120.40000152588</ele>
        <time>2020-05-30T08:07:16.000Z</time>
      </trkpt>
      <trkpt lat="43.42704" lon="6.52159">
        <ele>121.40000152588</ele>
        <time>2020-05-30T08:07:22.000Z</time>
      </trkpt>
      <trkpt lat="43.4269" lon="6.52174">
        <ele>122.80000305176</ele>
        <time>2020-05-30T08:07:29.000Z</time>
      </trkpt>
      <trkpt lat="43.4268" lon="6.52188">
        <ele>123.80000305176</ele>
        <time>2020-05-30T08:07:35.000Z</time>
      </trkpt>
      <trkpt lat="43.42672" lon="6.52197">
        <ele>124.80000305176</ele>
        <time>2020-05-30T08:07:39.000Z</time>
      </trkpt>
      <trkpt lat="43.4267" lon="6.52199">
        <ele>125</ele>
        <time>2020-05-30T08:07:40.000Z</time>
      </trkpt>
      <trkpt lat="43.4266" lon="6.52208">
        <ele>126.19999694824</ele>
        <time>2020-05-30T08:07:45.000Z</time>
      </trkpt>
      <trkpt lat="43.42658" lon="6.52209">
        <ele>126.40000152588</ele>
        <time>2020-05-30T08:07:46.000Z</time>
      </trkpt>
      <trkpt lat="43.4264" lon="6.52213">
        <ele>127.19999694824</ele>
        <time>2020-05-30T08:07:53.000Z</time>
      </trkpt>
      <trkpt lat="43.42637" lon="6.52212">
        <ele>127.40000152588</ele>
        <time>2020-05-30T08:07:54.000Z</time>
      </trkpt>
      <trkpt lat="43.42625" lon="6.52207">
        <ele>128.39999389648</ele>
        <time>2020-05-30T08:07:59.000Z</time>
      </trkpt>
      <trkpt lat="43.42623" lon="6.52205">
        <ele>128.60000610352</ele>
        <time>2020-05-30T08:08:00.000Z</time>
      </trkpt>
      <trkpt lat="43.42612" lon="6.52195">
        <ele>129.60000610352</ele>
        <time>2020-05-30T08:08:05.000Z</time>
      </trkpt>
      <trkpt lat="43.42606" lon="6.52187">
        <ele>130</ele>
        <time>2020-05-30T08:08:08.000Z</time>
      </trkpt>
      <trkpt lat="43.42602" lon="6.52179">
        <ele>130.80000305176</ele>
        <time>2020-05-30T08:08:11.000Z</time>
      </trkpt>
      <trkpt lat="43.42597" lon="6.52166">
        <ele>131.39999389648</ele>
        <time>2020-05-30T08:08:15.000Z</time>
      </trkpt>
      <trkpt lat="43.42595" lon="6.5216">
        <ele>131.80000305176</ele>
        <time>2020-05-30T08:08:17.000Z</time>
      </trkpt>
      <trkpt lat="43.42592" lon="6.52146">
        <ele>133</ele>
        <time>2020-05-30T08:08:21.000Z</time>
      </trkpt>
      <trkpt lat="43.42591" lon="6.52142">
        <ele>133.19999694824</ele>
        <time>2020-05-30T08:08:22.000Z</time>
      </trkpt>
      <trkpt lat="43.4259" lon="6.52125">
        <ele>134.19999694824</ele>
        <time>2020-05-30T08:08:27.000Z</time>
      </trkpt>
      <trkpt lat="43.4259" lon="6.52117">
        <ele>134.60000610352</ele>
        <time>2020-05-30T08:08:29.000Z</time>
      </trkpt>
      <trkpt lat="43.4259" lon="6.52101">
        <ele>135.19999694824</ele>
        <time>2020-05-30T08:08:33.000Z</time>
      </trkpt>
      <trkpt lat="43.4259" lon="6.52089">
        <ele>135.80000305176</ele>
        <time>2020-05-30T08:08:36.000Z</time>
      </trkpt>
      <trkpt lat="43.4259" lon="6.52081">
        <ele>136.39999389648</ele>
        <time>2020-05-30T08:08:38.000Z</time>
      </trkpt>
      <trkpt lat="43.42592" lon="6.52063">
        <ele>137.39999389648</ele>
        <time>2020-05-30T08:08:43.000Z</time>
      </trkpt>
      <trkpt lat="43.42592" lon="6.52051">
        <ele>137.60000610352</ele>
        <time>2020-05-30T08:08:46.000Z</time>
      </trkpt>
      <trkpt lat="43.4259" lon="6.52033">
        <ele>138.60000610352</ele>
        <time>2020-05-30T08:08:51.000Z</time>
      </trkpt>
      <trkpt lat="43.42588" lon="6.52026">
        <ele>139.19999694824</ele>
        <time>2020-05-30T08:08:53.000Z</time>
      </trkpt>
      <trkpt lat="43.42585" lon="6.52016">
        <ele>139.60000610352</ele>
        <time>2020-05-30T08:08:56.000Z</time>
      </trkpt>
      <trkpt lat="43.4258" lon="6.52002">
        <ele>140.60000610352</ele>
        <time>2020-05-30T08:09:00.000Z</time>
      </trkpt>
      <trkpt lat="43.42577" lon="6.51996">
        <ele>141.19999694824</ele>
        <time>2020-05-30T08:09:02.000Z</time>
      </trkpt>
      <trkpt lat="43.42568" lon="6.51987">
        <ele>141.80000305176</ele>
        <time>2020-05-30T08:09:06.000Z</time>
      </trkpt>
      <trkpt lat="43.4256" lon="6.51982">
        <ele>142.39999389648</ele>
        <time>2020-05-30T08:09:09.000Z</time>
      </trkpt>
      <trkpt lat="43.42558" lon="6.5198">
        <ele>142.80000305176</ele>
        <time>2020-05-30T08:09:10.000Z</time>
      </trkpt>
      <trkpt lat="43.42543" lon="6.51973">
        <ele>143.80000305176</ele>
        <time>2020-05-30T08:09:16.000Z</time>
      </trkpt>
      <trkpt lat="43.4254" lon="6.51972">
        <ele>144</ele>
        <time>2020-05-30T08:09:17.000Z</time>
      </trkpt>
      <trkpt lat="43.42524" lon="6.51965">
        <ele>144.80000305176</ele>
        <time>2020-05-30T08:09:23.000Z</time>
      </trkpt>
      <trkpt lat="43.42513" lon="6.51963">
        <ele>145.39999389648</ele>
        <time>2020-05-30T08:09:27.000Z</time>
      </trkpt>
      <trkpt lat="43.42508" lon="6.51963">
        <ele>146</ele>
        <time>2020-05-30T08:09:29.000Z</time>
      </trkpt>
      <trkpt lat="43.42497" lon="6.51963">
        <ele>147</ele>
        <time>2020-05-30T08:09:33.000Z</time>
      </trkpt>
      <trkpt lat="43.42487" lon="6.51963">
        <ele>147.80000305176</ele>
        <time>2020-05-30T08:09:37.000Z</time>
      </trkpt>
      <trkpt lat="43.42479" lon="6.51964">
        <ele>148.19999694824</ele>
        <time>2020-05-30T08:09:40.000Z</time>
      </trkpt>
      <trkpt lat="43.42464" lon="6.51963">
        <ele>149.39999389648</ele>
        <time>2020-05-30T08:09:46.000Z</time>
      </trkpt>
      <trkpt lat="43.42452" lon="6.51956">
        <ele>150.19999694824</ele>
        <time>2020-05-30T08:09:51.000Z</time>
      </trkpt>
      <trkpt lat="43.4245" lon="6.51953">
        <ele>150.39999389648</ele>
        <time>2020-05-30T08:09:52.000Z</time>
      </trkpt>
      <trkpt lat="43.42445" lon="6.51941">
        <ele>151.19999694824</ele>
        <time>2020-05-30T08:09:56.000Z</time>
      </trkpt>
      <trkpt lat="43.42444" lon="6.51934">
        <ele>151.39999389648</ele>
        <time>2020-05-30T08:09:58.000Z</time>
      </trkpt>
      <trkpt lat="43.42444" lon="6.51923">
        <ele>152.19999694824</ele>
        <time>2020-05-30T08:10:01.000Z</time>
      </trkpt>
      <trkpt lat="43.42445" lon="6.51919">
        <ele>152.60000610352</ele>
        <time>2020-05-30T08:10:02.000Z</time>
      </trkpt>
      <trkpt lat="43.42452" lon="6.51907">
        <ele>153.60000610352</ele>
        <time>2020-05-30T08:10:06.000Z</time>
      </trkpt>
      <trkpt lat="43.42455" lon="6.51904">
        <ele>153.60000610352</ele>
        <time>2020-05-30T08:10:07.000Z</time>
      </trkpt>
      <trkpt lat="43.42471" lon="6.51887">
        <ele>154.39999389648</ele>
        <time>2020-05-30T08:10:14.000Z</time>
      </trkpt>
      <trkpt lat="43.42478" lon="6.5188">
        <ele>154.60000610352</ele>
        <time>2020-05-30T08:10:17.000Z</time>
      </trkpt>
      <trkpt lat="43.42491" lon="6.51862">
        <ele>155.60000610352</ele>
        <time>2020-05-30T08:10:23.000Z</time>
      </trkpt>
      <trkpt lat="43.42497" lon="6.51853">
        <ele>155.80000305176</ele>
        <time>2020-05-30T08:10:26.000Z</time>
      </trkpt>
      <trkpt lat="43.42506" lon="6.51834">
        <ele>155.80000305176</ele>
        <time>2020-05-30T08:10:31.000Z</time>
      </trkpt>
      <trkpt lat="43.4252" lon="6.518">
        <ele>156.80000305176</ele>
        <time>2020-05-30T08:10:40.000Z</time>
      </trkpt>
      <trkpt lat="43.42533" lon="6.51764">
        <ele>157.19999694824</ele>
        <time>2020-05-30T08:10:49.000Z</time>
      </trkpt>
      <trkpt lat="43.42532" lon="6.51742">
        <ele>157.39999389648</ele>
        <time>2020-05-30T08:10:54.000Z</time>
      </trkpt>
      <trkpt lat="43.42522" lon="6.51729">
        <ele>157.80000305176</ele>
        <time>2020-05-30T08:10:58.000Z</time>
      </trkpt>
      <trkpt lat="43.42519" lon="6.51726">
        <ele>158</ele>
        <time>2020-05-30T08:10:59.000Z</time>
      </trkpt>
      <trkpt lat="43.42508" lon="6.51707">
        <ele>159</ele>
        <time>2020-05-30T08:11:05.000Z</time>
      </trkpt>
      <trkpt lat="43.425" lon="6.51681">
        <ele>160</ele>
        <time>2020-05-30T08:11:12.000Z</time>
      </trkpt>
      <trkpt lat="43.42499" lon="6.51678">
        <ele>160.39999389648</ele>
        <time>2020-05-30T08:11:13.000Z</time>
      </trkpt>
      <trkpt lat="43.4249" lon="6.51659">
        <ele>161.39999389648</ele>
        <time>2020-05-30T08:11:19.000Z</time>
      </trkpt>
      <trkpt lat="43.42477" lon="6.51642">
        <ele>162.19999694824</ele>
        <time>2020-05-30T08:11:25.000Z</time>
      </trkpt>
      <trkpt lat="43.42473" lon="6.51637">
        <ele>162.39999389648</ele>
        <time>2020-05-30T08:11:27.000Z</time>
      </trkpt>
      <trkpt lat="43.42457" lon="6.51625">
        <ele>163.19999694824</ele>
        <time>2020-05-30T08:11:33.000Z</time>
      </trkpt>
      <trkpt lat="43.42451" lon="6.51626">
        <ele>163.39999389648</ele>
        <time>2020-05-30T08:11:35.000Z</time>
      </trkpt>
      <trkpt lat="43.42442" lon="6.5163">
        <ele>164.19999694824</ele>
        <time>2020-05-30T08:11:38.000Z</time>
      </trkpt>
      <trkpt lat="43.42434" lon="6.51636">
        <ele>164.60000610352</ele>
        <time>2020-05-30T08:11:41.000Z</time>
      </trkpt>
      <trkpt lat="43.42423" lon="6.51641">
        <ele>165</ele>
        <time>2020-05-30T08:11:45.000Z</time>
      </trkpt>
      <trkpt lat="43.42413" lon="6.51642">
        <ele>166</ele>
        <time>2020-05-30T08:11:48.000Z</time>
      </trkpt>
      <trkpt lat="43.42401" lon="6.5164">
        <ele>166.80000305176</ele>
        <time>2020-05-30T08:11:52.000Z</time>
      </trkpt>
      <trkpt lat="43.42396" lon="6.51639">
        <ele>167</ele>
        <time>2020-05-30T08:11:54.000Z</time>
      </trkpt>
      <trkpt lat="43.42378" lon="6.51638">
        <ele>168</ele>
        <time>2020-05-30T08:12:00.000Z</time>
      </trkpt>
      <trkpt lat="43.42376" lon="6.51639">
        <ele>168.19999694824</ele>
        <time>2020-05-30T08:12:01.000Z</time>
      </trkpt>
      <trkpt lat="43.4236" lon="6.51639">
        <ele>169.19999694824</ele>
        <time>2020-05-30T08:12:07.000Z</time>
      </trkpt>
      <trkpt lat="43.42355" lon="6.51639">
        <ele>169.19999694824</ele>
        <time>2020-05-30T08:12:09.000Z</time>
      </trkpt>
      <trkpt lat="43.42343" lon="6.51635">
        <ele>170.19999694824</ele>
        <time>2020-05-30T08:12:15.000Z</time>
      </trkpt>
      <trkpt lat="43.42342" lon="6.51633">
        <ele>170.19999694824</ele>
        <time>2020-05-30T08:12:16.000Z</time>
      </trkpt>
      <trkpt lat="43.42338" lon="6.51627">
        <ele>170.60000610352</ele>
        <time>2020-05-30T08:12:20.000Z</time>
      </trkpt>
      <trkpt lat="43.42332" lon="6.51615">
        <ele>171.19999694824</ele>
        <time>2020-05-30T08:12:27.000Z</time>
      </trkpt>
      <trkpt lat="43.42327" lon="6.516">
        <ele>171.80000305176</ele>
        <time>2020-05-30T08:12:33.000Z</time>
      </trkpt>
      <trkpt lat="43.42312" lon="6.51581">
        <ele>172</ele>
        <time>2020-05-30T08:12:41.000Z</time>
      </trkpt>
      <trkpt lat="43.42306" lon="6.51572">
        <ele>172.39999389648</ele>
        <time>2020-05-30T08:12:44.000Z</time>
      </trkpt>
      <trkpt lat="43.42297" lon="6.51557">
        <ele>172.60000610352</ele>
        <time>2020-05-30T08:12:49.000Z</time>
      </trkpt>
      <trkpt lat="43.42286" lon="6.51534">
        <ele>173</ele>
        <time>2020-05-30T08:12:56.000Z</time>
      </trkpt>
      <trkpt lat="43.42271" lon="6.51528">
        <ele>173.39999389648</ele>
        <time>2020-05-30T08:13:01.000Z</time>
      </trkpt>
      <trkpt lat="43.42265" lon="6.51528">
        <ele>173.39999389648</ele>
        <time>2020-05-30T08:13:03.000Z</time>
      </trkpt>
      <trkpt lat="43.42244" lon="6.51523">
        <ele>173.60000610352</ele>
        <time>2020-05-30T08:13:10.000Z</time>
      </trkpt>
      <trkpt lat="43.42218" lon="6.51513">
        <ele>174</ele>
        <time>2020-05-30T08:13:18.000Z</time>
      </trkpt>
      <trkpt lat="43.42207" lon="6.51496">
        <ele>174.39999389648</ele>
        <time>2020-05-30T08:13:23.000Z</time>
      </trkpt>
      <trkpt lat="43.42205" lon="6.51491">
        <ele>174.39999389648</ele>
        <time>2020-05-30T08:13:24.000Z</time>
      </trkpt>
      <trkpt lat="43.42196" lon="6.51464">
        <ele>174</ele>
        <time>2020-05-30T08:13:29.000Z</time>
      </trkpt>
      <trkpt lat="43.42185" lon="6.51429">
        <ele>173.80000305176</ele>
        <time>2020-05-30T08:13:35.000Z</time>
      </trkpt>
      <trkpt lat="43.42178" lon="6.51411">
        <ele>173.39999389648</ele>
        <time>2020-05-30T08:13:38.000Z</time>
      </trkpt>
      <trkpt lat="43.42172" lon="6.51387">
        <ele>172.60000610352</ele>
        <time>2020-05-30T08:13:42.000Z</time>
      </trkpt>
      <trkpt lat="43.42164" lon="6.51365">
        <ele>172.60000610352</ele>
        <time>2020-05-30T08:13:46.000Z</time>
      </trkpt>
      <trkpt lat="43.42157" lon="6.51351">
        <ele>172.80000305176</ele>
        <time>2020-05-30T08:13:49.000Z</time>
      </trkpt>
      <trkpt lat="43.42136" lon="6.51314">
        <ele>173.60000610352</ele>
        <time>2020-05-30T08:13:58.000Z</time>
      </trkpt>
      <trkpt lat="43.42119" lon="6.51291">
        <ele>174.19999694824</ele>
        <time>2020-05-30T08:14:04.000Z</time>
      </trkpt>
      <trkpt lat="43.42116" lon="6.51288">
        <ele>174.19999694824</ele>
        <time>2020-05-30T08:14:05.000Z</time>
      </trkpt>
      <trkpt lat="43.42107" lon="6.51279">
        <ele>174.39999389648</ele>
        <time>2020-05-30T08:14:08.000Z</time>
      </trkpt>
      <trkpt lat="43.42102" lon="6.51272">
        <ele>174.60000610352</ele>
        <time>2020-05-30T08:14:10.000Z</time>
      </trkpt>
      <trkpt lat="43.42099" lon="6.51268">
        <ele>175</ele>
        <time>2020-05-30T08:14:11.000Z</time>
      </trkpt>
      <trkpt lat="43.42092" lon="6.51251">
        <ele>175.39999389648</ele>
        <time>2020-05-30T08:14:15.000Z</time>
      </trkpt>
      <trkpt lat="43.42087" lon="6.51238">
        <ele>175.80000305176</ele>
        <time>2020-05-30T08:14:18.000Z</time>
      </trkpt>
      <trkpt lat="43.42077" lon="6.51204">
        <ele>176.39999389648</ele>
        <time>2020-05-30T08:14:26.000Z</time>
      </trkpt>
      <trkpt lat="43.42073" lon="6.51198">
        <ele>176.60000610352</ele>
        <time>2020-05-30T08:14:28.000Z</time>
      </trkpt>
      <trkpt lat="43.42064" lon="6.51188">
        <ele>177</ele>
        <time>2020-05-30T08:14:32.000Z</time>
      </trkpt>
      <trkpt lat="43.42047" lon="6.5117">
        <ele>177.60000610352</ele>
        <time>2020-05-30T08:14:39.000Z</time>
      </trkpt>
      <trkpt lat="43.42045" lon="6.51168">
        <ele>177.60000610352</ele>
        <time>2020-05-30T08:14:40.000Z</time>
      </trkpt>
      <trkpt lat="43.4203" lon="6.51142">
        <ele>178.60000610352</ele>
        <time>2020-05-30T08:14:48.000Z</time>
      </trkpt>
      <trkpt lat="43.42028" lon="6.51138">
        <ele>178.60000610352</ele>
        <time>2020-05-30T08:14:49.000Z</time>
      </trkpt>
      <trkpt lat="43.42019" lon="6.51119">
        <ele>179.80000305176</ele>
        <time>2020-05-30T08:14:55.000Z</time>
      </trkpt>
      <trkpt lat="43.42017" lon="6.51116">
        <ele>179.80000305176</ele>
        <time>2020-05-30T08:14:56.000Z</time>
      </trkpt>
      <trkpt lat="43.42007" lon="6.51091">
        <ele>180.80000305176</ele>
        <time>2020-05-30T08:15:03.000Z</time>
      </trkpt>
      <trkpt lat="43.42" lon="6.51078">
        <ele>181.19999694824</ele>
        <time>2020-05-30T08:15:07.000Z</time>
      </trkpt>
      <trkpt lat="43.4199" lon="6.5106">
        <ele>181.80000305176</ele>
        <time>2020-05-30T08:15:13.000Z</time>
      </trkpt>
      <trkpt lat="43.41987" lon="6.51054">
        <ele>182</ele>
        <time>2020-05-30T08:15:15.000Z</time>
      </trkpt>
      <trkpt lat="43.41981" lon="6.51043">
        <ele>182.19999694824</ele>
        <time>2020-05-30T08:15:19.000Z</time>
      </trkpt>
      <trkpt lat="43.41978" lon="6.51042">
        <ele>182.19999694824</ele>
        <time>2020-05-30T08:15:20.000Z</time>
      </trkpt>
      <trkpt lat="43.41971" lon="6.51044">
        <ele>182.39999389648</ele>
        <time>2020-05-30T08:15:23.000Z</time>
      </trkpt>
      <trkpt lat="43.41968" lon="6.51046">
        <ele>182.39999389648</ele>
        <time>2020-05-30T08:15:24.000Z</time>
      </trkpt>
      <trkpt lat="43.41951" lon="6.51059">
        <ele>182.60000610352</ele>
        <time>2020-05-30T08:15:31.000Z</time>
      </trkpt>
      <trkpt lat="43.41949" lon="6.5107">
        <ele>182.80000305176</ele>
        <time>2020-05-30T08:15:36.000Z</time>
      </trkpt>
      <trkpt lat="43.41949" lon="6.51072">
        <ele>182.60000610352</ele>
        <time>2020-05-30T08:15:43.000Z</time>
      </trkpt>
      <trkpt lat="43.4195" lon="6.51072">
        <ele>182.60000610352</ele>
        <time>2020-05-30T08:15:56.000Z</time>
      </trkpt>
      <trkpt lat="43.41951" lon="6.51071">
        <ele>182.60000610352</ele>
        <time>2020-05-30T08:15:58.000Z</time>
      </trkpt>
      <trkpt lat="43.41951" lon="6.51066">
        <ele>182.39999389648</ele>
        <time>2020-05-30T08:16:02.000Z</time>
      </trkpt>
      <trkpt lat="43.41951" lon="6.51062">
        <ele>182.60000610352</ele>
        <time>2020-05-30T08:16:06.000Z</time>
      </trkpt>
      <trkpt lat="43.41955" lon="6.5106">
        <ele>182.60000610352</ele>
        <time>2020-05-30T08:16:10.000Z</time>
      </trkpt>
      <trkpt lat="43.41955" lon="6.51058">
        <ele>182.60000610352</ele>
        <time>2020-05-30T08:16:11.000Z</time>
      </trkpt>
      <trkpt lat="43.4195" lon="6.51057">
        <ele>182.60000610352</ele>
        <time>2020-05-30T08:16:14.000Z</time>
      </trkpt>
      <trkpt lat="43.41939" lon="6.51057">
        <ele>182.80000305176</ele>
        <time>2020-05-30T08:16:18.000Z</time>
      </trkpt>
      <trkpt lat="43.41931" lon="6.51056">
        <ele>184</ele>
        <time>2020-05-30T08:16:21.000Z</time>
      </trkpt>
      <trkpt lat="43.41926" lon="6.51056">
        <ele>185.19999694824</ele>
        <time>2020-05-30T08:16:23.000Z</time>
      </trkpt>
      <trkpt lat="43.4192" lon="6.51055">
        <ele>186.19999694824</ele>
        <time>2020-05-30T08:16:25.000Z</time>
      </trkpt>
      <trkpt lat="43.41915" lon="6.51055">
        <ele>187.39999389648</ele>
        <time>2020-05-30T08:16:27.000Z</time>
      </trkpt>
      <trkpt lat="43.41907" lon="6.51056">
        <ele>188.60000610352</ele>
        <time>2020-05-30T08:16:30.000Z</time>
      </trkpt>
      <trkpt lat="43.41905" lon="6.51056">
        <ele>188.80000305176</ele>
        <time>2020-05-30T08:16:31.000Z</time>
      </trkpt>
      <trkpt lat="43.419" lon="6.51057">
        <ele>190</ele>
        <time>2020-05-30T08:16:33.000Z</time>
      </trkpt>
      <trkpt lat="43.41896" lon="6.51058">
        <ele>191.19999694824</ele>
        <time>2020-05-30T08:16:35.000Z</time>
      </trkpt>
      <trkpt lat="43.41891" lon="6.51058">
        <ele>192.60000610352</ele>
        <time>2020-05-30T08:16:37.000Z</time>
      </trkpt>
      <trkpt lat="43.41885" lon="6.51058">
        <ele>193.80000305176</ele>
        <time>2020-05-30T08:16:40.000Z</time>
      </trkpt>
      <trkpt lat="43.41877" lon="6.5106">
        <ele>195</ele>
        <time>2020-05-30T08:16:44.000Z</time>
      </trkpt>
      <trkpt lat="43.41873" lon="6.5106">
        <ele>195.19999694824</ele>
        <time>2020-05-30T08:16:46.000Z</time>
      </trkpt>
      <trkpt lat="43.41864" lon="6.51062">
        <ele>196</ele>
        <time>2020-05-30T08:16:50.000Z</time>
      </trkpt>
      <trkpt lat="43.41862" lon="6.51062">
        <ele>196.19999694824</ele>
        <time>2020-05-30T08:16:51.000Z</time>
      </trkpt>
      <trkpt lat="43.41858" lon="6.51062">
        <ele>197</ele>
        <time>2020-05-30T08:16:53.000Z</time>
      </trkpt>
      <trkpt lat="43.41853" lon="6.51062">
        <ele>198.39999389648</ele>
        <time>2020-05-30T08:16:56.000Z</time>
      </trkpt>
      <trkpt lat="43.41849" lon="6.51062">
        <ele>199.19999694824</ele>
        <time>2020-05-30T08:16:58.000Z</time>
      </trkpt>
      <trkpt lat="43.41848" lon="6.51062">
        <ele>199.60000610352</ele>
        <time>2020-05-30T08:16:59.000Z</time>
      </trkpt>
      <trkpt lat="43.41841" lon="6.51061">
        <ele>200.80000305176</ele>
        <time>2020-05-30T08:17:03.000Z</time>
      </trkpt>
      <trkpt lat="43.4184" lon="6.51062">
        <ele>201</ele>
        <time>2020-05-30T08:17:04.000Z</time>
      </trkpt>
      <trkpt lat="43.41833" lon="6.51065">
        <ele>202</ele>
        <time>2020-05-30T08:17:08.000Z</time>
      </trkpt>
      <trkpt lat="43.41831" lon="6.51066">
        <ele>202.60000610352</ele>
        <time>2020-05-30T08:17:09.000Z</time>
      </trkpt>
      <trkpt lat="43.4183" lon="6.51067">
        <ele>203.39999389648</ele>
        <time>2020-05-30T08:17:10.000Z</time>
      </trkpt>
      <trkpt lat="43.41826" lon="6.51069">
        <ele>204.39999389648</ele>
        <time>2020-05-30T08:17:12.000Z</time>
      </trkpt>
      <trkpt lat="43.41823" lon="6.5107">
        <ele>205.39999389648</ele>
        <time>2020-05-30T08:17:14.000Z</time>
      </trkpt>
      <trkpt lat="43.41821" lon="6.51071">
        <ele>205.80000305176</ele>
        <time>2020-05-30T08:17:15.000Z</time>
      </trkpt>
      <trkpt lat="43.41818" lon="6.51074">
        <ele>206.60000610352</ele>
        <time>2020-05-30T08:17:17.000Z</time>
      </trkpt>
      <trkpt lat="43.41813" lon="6.51076">
        <ele>207.39999389648</ele>
        <time>2020-05-30T08:17:20.000Z</time>
      </trkpt>
      <trkpt lat="43.41811" lon="6.51075">
        <ele>207.60000610352</ele>
        <time>2020-05-30T08:17:21.000Z</time>
      </trkpt>
      <trkpt lat="43.4181" lon="6.51073">
        <ele>207.60000610352</ele>
        <time>2020-05-30T08:17:22.000Z</time>
      </trkpt>
      <trkpt lat="43.41811" lon="6.51065">
        <ele>208.19999694824</ele>
        <time>2020-05-30T08:17:25.000Z</time>
      </trkpt>
      <trkpt lat="43.41812" lon="6.51064">
        <ele>208.60000610352</ele>
        <time>2020-05-30T08:17:26.000Z</time>
      </trkpt>
      <trkpt lat="43.41813" lon="6.51063">
        <ele>209.19999694824</ele>
        <time>2020-05-30T08:17:27.000Z</time>
      </trkpt>
      <trkpt lat="43.41818" lon="6.51059">
        <ele>210.39999389648</ele>
        <time>2020-05-30T08:17:30.000Z</time>
      </trkpt>
      <trkpt lat="43.4183" lon="6.51049">
        <ele>211.19999694824</ele>
        <time>2020-05-30T08:17:37.000Z</time>
      </trkpt>
      <trkpt lat="43.41846" lon="6.51038">
        <ele>210.80000305176</ele>
        <time>2020-05-30T08:17:43.000Z</time>
      </trkpt>
      <trkpt lat="43.41857" lon="6.51035">
        <ele>210.39999389648</ele>
        <time>2020-05-30T08:17:47.000Z</time>
      </trkpt>
      <trkpt lat="43.41886" lon="6.51021">
        <ele>211.19999694824</ele>
        <time>2020-05-30T08:17:56.000Z</time>
      </trkpt>
      <trkpt lat="43.41889" lon="6.51018">
        <ele>211.39999389648</ele>
        <time>2020-05-30T08:17:57.000Z</time>
      </trkpt>
      <trkpt lat="43.41891" lon="6.51015">
        <ele>211.60000610352</ele>
        <time>2020-05-30T08:17:58.000Z</time>
      </trkpt>
      <trkpt lat="43.41897" lon="6.5101">
        <ele>211.80000305176</ele>
        <time>2020-05-30T08:18:00.000Z</time>
      </trkpt>
      <trkpt lat="43.41912" lon="6.51002">
        <ele>212.80000305176</ele>
        <time>2020-05-30T08:18:05.000Z</time>
      </trkpt>
      <trkpt lat="43.41915" lon="6.51002">
        <ele>213</ele>
        <time>2020-05-30T08:18:06.000Z</time>
      </trkpt>
      <trkpt lat="43.41923" lon="6.50998">
        <ele>214</ele>
        <time>2020-05-30T08:18:09.000Z</time>
      </trkpt>
      <trkpt lat="43.41931" lon="6.50992">
        <ele>214.19999694824</ele>
        <time>2020-05-30T08:18:12.000Z</time>
      </trkpt>
      <trkpt lat="43.41938" lon="6.50984">
        <ele>215</ele>
        <time>2020-05-30T08:18:15.000Z</time>
      </trkpt>
      <trkpt lat="43.41946" lon="6.50976">
        <ele>215.39999389648</ele>
        <time>2020-05-30T08:18:18.000Z</time>
      </trkpt>
      <trkpt lat="43.41954" lon="6.50955">
        <ele>216.39999389648</ele>
        <time>2020-05-30T08:18:23.000Z</time>
      </trkpt>
      <trkpt lat="43.41956" lon="6.50934">
        <ele>217.60000610352</ele>
        <time>2020-05-30T08:18:28.000Z</time>
      </trkpt>
      <trkpt lat="43.41957" lon="6.5093">
        <ele>218.19999694824</ele>
        <time>2020-05-30T08:18:29.000Z</time>
      </trkpt>
      <trkpt lat="43.41956" lon="6.50923">
        <ele>218.80000305176</ele>
        <time>2020-05-30T08:18:31.000Z</time>
      </trkpt>
      <trkpt lat="43.41955" lon="6.50915">
        <ele>219.80000305176</ele>
        <time>2020-05-30T08:18:33.000Z</time>
      </trkpt>
      <trkpt lat="43.41953" lon="6.50907">
        <ele>220.19999694824</ele>
        <time>2020-05-30T08:18:35.000Z</time>
      </trkpt>
      <trkpt lat="43.41952" lon="6.50899">
        <ele>221</ele>
        <time>2020-05-30T08:18:37.000Z</time>
      </trkpt>
      <trkpt lat="43.4195" lon="6.50887">
        <ele>222.19999694824</ele>
        <time>2020-05-30T08:18:40.000Z</time>
      </trkpt>
      <trkpt lat="43.41948" lon="6.50878">
        <ele>223</ele>
        <time>2020-05-30T08:18:42.000Z</time>
      </trkpt>
      <trkpt lat="43.41948" lon="6.50874">
        <ele>223.39999389648</ele>
        <time>2020-05-30T08:18:43.000Z</time>
      </trkpt>
      <trkpt lat="43.41945" lon="6.50848">
        <ele>224.60000610352</ele>
        <time>2020-05-30T08:18:49.000Z</time>
      </trkpt>
      <trkpt lat="43.41944" lon="6.50831">
        <ele>225.60000610352</ele>
        <time>2020-05-30T08:18:54.000Z</time>
      </trkpt>
      <trkpt lat="43.41943" lon="6.50825">
        <ele>226.80000305176</ele>
        <time>2020-05-30T08:18:56.000Z</time>
      </trkpt>
      <trkpt lat="43.41939" lon="6.50815">
        <ele>228</ele>
        <time>2020-05-30T08:18:59.000Z</time>
      </trkpt>
      <trkpt lat="43.41937" lon="6.50812">
        <ele>228.19999694824</ele>
        <time>2020-05-30T08:19:00.000Z</time>
      </trkpt>
      <trkpt lat="43.41928" lon="6.50804">
        <ele>229</ele>
        <time>2020-05-30T08:19:04.000Z</time>
      </trkpt>
      <trkpt lat="43.41919" lon="6.50797">
        <ele>229.19999694824</ele>
        <time>2020-05-30T08:19:07.000Z</time>
      </trkpt>
      <trkpt lat="43.4191" lon="6.50792">
        <ele>229.60000610352</ele>
        <time>2020-05-30T08:19:10.000Z</time>
      </trkpt>
      <trkpt lat="43.41909" lon="6.50788">
        <ele>229.60000610352</ele>
        <time>2020-05-30T08:19:11.000Z</time>
      </trkpt>
      <trkpt lat="43.41907" lon="6.50773">
        <ele>230</ele>
        <time>2020-05-30T08:19:15.000Z</time>
      </trkpt>
      <trkpt lat="43.41907" lon="6.5077">
        <ele>230.39999389648</ele>
        <time>2020-05-30T08:19:16.000Z</time>
      </trkpt>
      <trkpt lat="43.41907" lon="6.50762">
        <ele>231.19999694824</ele>
        <time>2020-05-30T08:19:18.000Z</time>
      </trkpt>
      <trkpt lat="43.41908" lon="6.50749">
        <ele>232</ele>
        <time>2020-05-30T08:19:22.000Z</time>
      </trkpt>
      <trkpt lat="43.41908" lon="6.50746">
        <ele>232.19999694824</ele>
        <time>2020-05-30T08:19:23.000Z</time>
      </trkpt>
      <trkpt lat="43.41907" lon="6.50736">
        <ele>233.19999694824</ele>
        <time>2020-05-30T08:19:26.000Z</time>
      </trkpt>
      <trkpt lat="43.41906" lon="6.50733">
        <ele>233.60000610352</ele>
        <time>2020-05-30T08:19:27.000Z</time>
      </trkpt>
      <trkpt lat="43.41903" lon="6.50727">
        <ele>234.60000610352</ele>
        <time>2020-05-30T08:19:30.000Z</time>
      </trkpt>
      <trkpt lat="43.41903" lon="6.50725">
        <ele>235.19999694824</ele>
        <time>2020-05-30T08:19:31.000Z</time>
      </trkpt>
      <trkpt lat="43.41903" lon="6.50722">
        <ele>235.80000305176</ele>
        <time>2020-05-30T08:19:32.000Z</time>
      </trkpt>
      <trkpt lat="43.41902" lon="6.50718">
        <ele>236.60000610352</ele>
        <time>2020-05-30T08:19:34.000Z</time>
      </trkpt>
      <trkpt lat="43.41901" lon="6.50715">
        <ele>237.39999389648</ele>
        <time>2020-05-30T08:19:35.000Z</time>
      </trkpt>
      <trkpt lat="43.41899" lon="6.50704">
        <ele>238.80000305176</ele>
        <time>2020-05-30T08:19:38.000Z</time>
      </trkpt>
      <trkpt lat="43.41898" lon="6.50697">
        <ele>239.39999389648</ele>
        <time>2020-05-30T08:19:40.000Z</time>
      </trkpt>
      <trkpt lat="43.41896" lon="6.5069">
        <ele>240.39999389648</ele>
        <time>2020-05-30T08:19:42.000Z</time>
      </trkpt>
      <trkpt lat="43.41894" lon="6.50682">
        <ele>241.39999389648</ele>
        <time>2020-05-30T08:19:45.000Z</time>
      </trkpt>
      <trkpt lat="43.41892" lon="6.50673">
        <ele>242.80000305176</ele>
        <time>2020-05-30T08:19:48.000Z</time>
      </trkpt>
      <trkpt lat="43.41891" lon="6.50667">
        <ele>244</ele>
        <time>2020-05-30T08:19:50.000Z</time>
      </trkpt>
      <trkpt lat="43.41891" lon="6.5066">
        <ele>245</ele>
        <time>2020-05-30T08:19:52.000Z</time>
      </trkpt>
      <trkpt lat="43.41891" lon="6.50657">
        <ele>245.60000610352</ele>
        <time>2020-05-30T08:19:53.000Z</time>
      </trkpt>
      <trkpt lat="43.41894" lon="6.50649">
        <ele>247</ele>
        <time>2020-05-30T08:19:56.000Z</time>
      </trkpt>
      <trkpt lat="43.41897" lon="6.50645">
        <ele>248</ele>
        <time>2020-05-30T08:19:58.000Z</time>
      </trkpt>
      <trkpt lat="43.41899" lon="6.50644">
        <ele>248.39999389648</ele>
        <time>2020-05-30T08:19:59.000Z</time>
      </trkpt>
      <trkpt lat="43.41905" lon="6.50641">
        <ele>249.80000305176</ele>
        <time>2020-05-30T08:20:02.000Z</time>
      </trkpt>
      <trkpt lat="43.4191" lon="6.50639">
        <ele>250.80000305176</ele>
        <time>2020-05-30T08:20:05.000Z</time>
      </trkpt>
      <trkpt lat="43.41917" lon="6.50634">
        <ele>252</ele>
        <time>2020-05-30T08:20:09.000Z</time>
      </trkpt>
      <trkpt lat="43.4192" lon="6.50632">
        <ele>252.60000610352</ele>
        <time>2020-05-30T08:20:11.000Z</time>
      </trkpt>
      <trkpt lat="43.41929" lon="6.50625">
        <ele>253</ele>
        <time>2020-05-30T08:20:16.000Z</time>
      </trkpt>
      <trkpt lat="43.41934" lon="6.5062">
        <ele>253.19999694824</ele>
        <time>2020-05-30T08:20:19.000Z</time>
      </trkpt>
      <trkpt lat="43.41937" lon="6.5061">
        <ele>253.60000610352</ele>
        <time>2020-05-30T08:20:24.000Z</time>
      </trkpt>
      <trkpt lat="43.41936" lon="6.50608">
        <ele>253.60000610352</ele>
        <time>2020-05-30T08:20:25.000Z</time>
      </trkpt>
      <trkpt lat="43.41931" lon="6.50605">
        <ele>253.60000610352</ele>
        <time>2020-05-30T08:20:28.000Z</time>
      </trkpt>
      <trkpt lat="43.41927" lon="6.50605">
        <ele>253.60000610352</ele>
        <time>2020-05-30T08:20:30.000Z</time>
      </trkpt>
      <trkpt lat="43.4192" lon="6.50604">
        <ele>253.80000305176</ele>
        <time>2020-05-30T08:20:35.000Z</time>
      </trkpt>
      <trkpt lat="43.4191" lon="6.506">
        <ele>254.19999694824</ele>
        <time>2020-05-30T08:20:42.000Z</time>
      </trkpt>
      <trkpt lat="43.41902" lon="6.50597">
        <ele>254.19999694824</ele>
        <time>2020-05-30T08:20:47.000Z</time>
      </trkpt>
      <trkpt lat="43.41889" lon="6.50589">
        <ele>255.19999694824</ele>
        <time>2020-05-30T08:20:54.000Z</time>
      </trkpt>
      <trkpt lat="43.41886" lon="6.50587">
        <ele>255.19999694824</ele>
        <time>2020-05-30T08:20:56.000Z</time>
      </trkpt>
      <trkpt lat="43.41874" lon="6.50581">
        <ele>256.39999389648</ele>
        <time>2020-05-30T08:21:03.000Z</time>
      </trkpt>
      <trkpt lat="43.41864" lon="6.50575">
        <ele>257.39999389648</ele>
        <time>2020-05-30T08:21:09.000Z</time>
      </trkpt>
      <trkpt lat="43.41862" lon="6.50574">
        <ele>257.60000610352</ele>
        <time>2020-05-30T08:21:10.000Z</time>
      </trkpt>
      <trkpt lat="43.41854" lon="6.50571">
        <ele>258.60000610352</ele>
        <time>2020-05-30T08:21:14.000Z</time>
      </trkpt>
      <trkpt lat="43.4185" lon="6.50569">
        <ele>258.79998779297</ele>
        <time>2020-05-30T08:21:16.000Z</time>
      </trkpt>
      <trkpt lat="43.41842" lon="6.50565">
        <ele>259.60000610352</ele>
        <time>2020-05-30T08:21:20.000Z</time>
      </trkpt>
      <trkpt lat="43.41836" lon="6.50562">
        <ele>260.39999389648</ele>
        <time>2020-05-30T08:21:23.000Z</time>
      </trkpt>
      <trkpt lat="43.41831" lon="6.5056">
        <ele>260.79998779297</ele>
        <time>2020-05-30T08:21:25.000Z</time>
      </trkpt>
      <trkpt lat="43.41814" lon="6.50555">
        <ele>261.60000610352</ele>
        <time>2020-05-30T08:21:32.000Z</time>
      </trkpt>
      <trkpt lat="43.41812" lon="6.50554">
        <ele>261.79998779297</ele>
        <time>2020-05-30T08:21:33.000Z</time>
      </trkpt>
      <trkpt lat="43.41798" lon="6.50554">
        <ele>262.79998779297</ele>
        <time>2020-05-30T08:21:38.000Z</time>
      </trkpt>
      <trkpt lat="43.41793" lon="6.50555">
        <ele>263.20001220703</ele>
        <time>2020-05-30T08:21:40.000Z</time>
      </trkpt>
      <trkpt lat="43.41784" lon="6.50556">
        <ele>264</ele>
        <time>2020-05-30T08:21:44.000Z</time>
      </trkpt>
      <trkpt lat="43.41775" lon="6.5056">
        <ele>264.79998779297</ele>
        <time>2020-05-30T08:21:48.000Z</time>
      </trkpt>
      <trkpt lat="43.41771" lon="6.50562">
        <ele>265.20001220703</ele>
        <time>2020-05-30T08:21:50.000Z</time>
      </trkpt>
      <trkpt lat="43.41759" lon="6.50569">
        <ele>265.60000610352</ele>
        <time>2020-05-30T08:21:55.000Z</time>
      </trkpt>
      <trkpt lat="43.41737" lon="6.50586">
        <ele>266</ele>
        <time>2020-05-30T08:22:03.000Z</time>
      </trkpt>
      <trkpt lat="43.41726" lon="6.50594">
        <ele>266.20001220703</ele>
        <time>2020-05-30T08:22:07.000Z</time>
      </trkpt>
      <trkpt lat="43.41712" lon="6.50603">
        <ele>266.39999389648</ele>
        <time>2020-05-30T08:22:12.000Z</time>
      </trkpt>
      <trkpt lat="43.417" lon="6.50608">
        <ele>267.39999389648</ele>
        <time>2020-05-30T08:22:16.000Z</time>
      </trkpt>
      <trkpt lat="43.41697" lon="6.5061">
        <ele>268.20001220703</ele>
        <time>2020-05-30T08:22:18.000Z</time>
      </trkpt>
      <trkpt lat="43.41693" lon="6.5061">
        <ele>268.60000610352</ele>
        <time>2020-05-30T08:22:19.000Z</time>
      </trkpt>
      <trkpt lat="43.41686" lon="6.50612">
        <ele>269</ele>
        <time>2020-05-30T08:22:22.000Z</time>
      </trkpt>
      <trkpt lat="43.41675" lon="6.50624">
        <ele>269.60000610352</ele>
        <time>2020-05-30T08:22:27.000Z</time>
      </trkpt>
      <trkpt lat="43.41667" lon="6.50628">
        <ele>271</ele>
        <time>2020-05-30T08:22:30.000Z</time>
      </trkpt>
      <trkpt lat="43.41661" lon="6.50631">
        <ele>272.39999389648</ele>
        <time>2020-05-30T08:22:33.000Z</time>
      </trkpt>
      <trkpt lat="43.41652" lon="6.50636">
        <ele>273.39999389648</ele>
        <time>2020-05-30T08:22:37.000Z</time>
      </trkpt>
      <trkpt lat="43.41651" lon="6.50639">
        <ele>273.79998779297</ele>
        <time>2020-05-30T08:22:38.000Z</time>
      </trkpt>
      <trkpt lat="43.41649" lon="6.50643">
        <ele>275</ele>
        <time>2020-05-30T08:22:40.000Z</time>
      </trkpt>
      <trkpt lat="43.41646" lon="6.50649">
        <ele>276.39999389648</ele>
        <time>2020-05-30T08:22:43.000Z</time>
      </trkpt>
      <trkpt lat="43.41645" lon="6.50652">
        <ele>276.79998779297</ele>
        <time>2020-05-30T08:22:44.000Z</time>
      </trkpt>
      <trkpt lat="43.41642" lon="6.50655">
        <ele>277.39999389648</ele>
        <time>2020-05-30T08:22:46.000Z</time>
      </trkpt>
      <trkpt lat="43.41638" lon="6.50656">
        <ele>278.20001220703</ele>
        <time>2020-05-30T08:22:48.000Z</time>
      </trkpt>
      <trkpt lat="43.41636" lon="6.50656">
        <ele>278.79998779297</ele>
        <time>2020-05-30T08:22:49.000Z</time>
      </trkpt>
      <trkpt lat="43.41631" lon="6.50657">
        <ele>279.79998779297</ele>
        <time>2020-05-30T08:22:52.000Z</time>
      </trkpt>
      <trkpt lat="43.41627" lon="6.50659">
        <ele>280.60000610352</ele>
        <time>2020-05-30T08:22:54.000Z</time>
      </trkpt>
      <trkpt lat="43.41627" lon="6.50661">
        <ele>281</ele>
        <time>2020-05-30T08:22:55.000Z</time>
      </trkpt>
      <trkpt lat="43.41627" lon="6.50661">
        <ele>282.20001220703</ele>
        <time>2020-05-30T08:22:57.000Z</time>
      </trkpt>
      <trkpt lat="43.41627" lon="6.50662">
        <ele>283</ele>
        <time>2020-05-30T08:22:59.000Z</time>
      </trkpt>
      <trkpt lat="43.41626" lon="6.50663">
        <ele>283.20001220703</ele>
        <time>2020-05-30T08:23:01.000Z</time>
      </trkpt>
      <trkpt lat="43.41626" lon="6.50665">
        <ele>283.20001220703</ele>
        <time>2020-05-30T08:23:05.000Z</time>
      </trkpt>
      <trkpt lat="43.41624" lon="6.50672">
        <ele>283.39999389648</ele>
        <time>2020-05-30T08:23:09.000Z</time>
      </trkpt>
      <trkpt lat="43.41623" lon="6.50674">
        <ele>283.60000610352</ele>
        <time>2020-05-30T08:23:10.000Z</time>
      </trkpt>
      <trkpt lat="43.4162" lon="6.50678">
        <ele>284.39999389648</ele>
        <time>2020-05-30T08:23:12.000Z</time>
      </trkpt>
      <trkpt lat="43.41617" lon="6.5068">
        <ele>285</ele>
        <time>2020-05-30T08:23:14.000Z</time>
      </trkpt>
      <trkpt lat="43.41612" lon="6.50682">
        <ele>285.60000610352</ele>
        <time>2020-05-30T08:23:16.000Z</time>
      </trkpt>
      <trkpt lat="43.41607" lon="6.50684">
        <ele>286</ele>
        <time>2020-05-30T08:23:18.000Z</time>
      </trkpt>
      <trkpt lat="43.41599" lon="6.50686">
        <ele>286.79998779297</ele>
        <time>2020-05-30T08:23:22.000Z</time>
      </trkpt>
      <trkpt lat="43.41593" lon="6.50688">
        <ele>287.20001220703</ele>
        <time>2020-05-30T08:23:25.000Z</time>
      </trkpt>
      <trkpt lat="43.41589" lon="6.50688">
        <ele>288</ele>
        <time>2020-05-30T08:23:27.000Z</time>
      </trkpt>
      <trkpt lat="43.41585" lon="6.50689">
        <ele>288.60000610352</ele>
        <time>2020-05-30T08:23:29.000Z</time>
      </trkpt>
      <trkpt lat="43.41584" lon="6.50692">
        <ele>288.79998779297</ele>
        <time>2020-05-30T08:23:30.000Z</time>
      </trkpt>
      <trkpt lat="43.41584" lon="6.50695">
        <ele>289.20001220703</ele>
        <time>2020-05-30T08:23:31.000Z</time>
      </trkpt>
      <trkpt lat="43.41584" lon="6.50705">
        <ele>290.60000610352</ele>
        <time>2020-05-30T08:23:34.000Z</time>
      </trkpt>
      <trkpt lat="43.4158" lon="6.50713">
        <ele>291.79998779297</ele>
        <time>2020-05-30T08:23:37.000Z</time>
      </trkpt>
      <trkpt lat="43.41577" lon="6.50718">
        <ele>292.39999389648</ele>
        <time>2020-05-30T08:23:39.000Z</time>
      </trkpt>
      <trkpt lat="43.41575" lon="6.5072">
        <ele>293</ele>
        <time>2020-05-30T08:23:41.000Z</time>
      </trkpt>
      <trkpt lat="43.41572" lon="6.50724">
        <ele>294</ele>
        <time>2020-05-30T08:23:43.000Z</time>
      </trkpt>
      <trkpt lat="43.41571" lon="6.50727">
        <ele>294.60000610352</ele>
        <time>2020-05-30T08:23:44.000Z</time>
      </trkpt>
      <trkpt lat="43.41569" lon="6.50729">
        <ele>295</ele>
        <time>2020-05-30T08:23:45.000Z</time>
      </trkpt>
      <trkpt lat="43.41561" lon="6.50739">
        <ele>296</ele>
        <time>2020-05-30T08:23:50.000Z</time>
      </trkpt>
      <trkpt lat="43.41559" lon="6.50741">
        <ele>296.39999389648</ele>
        <time>2020-05-30T08:23:51.000Z</time>
      </trkpt>
      <trkpt lat="43.41555" lon="6.50744">
        <ele>297.20001220703</ele>
        <time>2020-05-30T08:23:53.000Z</time>
      </trkpt>
      <trkpt lat="43.41549" lon="6.50751">
        <ele>298.20001220703</ele>
        <time>2020-05-30T08:23:57.000Z</time>
      </trkpt>
      <trkpt lat="43.41545" lon="6.50755">
        <ele>298.60000610352</ele>
        <time>2020-05-30T08:23:59.000Z</time>
      </trkpt>
      <trkpt lat="43.41538" lon="6.50761">
        <ele>299.39999389648</ele>
        <time>2020-05-30T08:24:03.000Z</time>
      </trkpt>
      <trkpt lat="43.41534" lon="6.50765">
        <ele>299.79998779297</ele>
        <time>2020-05-30T08:24:05.000Z</time>
      </trkpt>
      <trkpt lat="43.41528" lon="6.50769">
        <ele>300.60000610352</ele>
        <time>2020-05-30T08:24:08.000Z</time>
      </trkpt>
      <trkpt lat="43.41517" lon="6.50777">
        <ele>301.60000610352</ele>
        <time>2020-05-30T08:24:13.000Z</time>
      </trkpt>
      <trkpt lat="43.41512" lon="6.5078">
        <ele>302.20001220703</ele>
        <time>2020-05-30T08:24:15.000Z</time>
      </trkpt>
      <trkpt lat="43.41508" lon="6.50784">
        <ele>302.79998779297</ele>
        <time>2020-05-30T08:24:17.000Z</time>
      </trkpt>
      <trkpt lat="43.41497" lon="6.5079">
        <ele>303.79998779297</ele>
        <time>2020-05-30T08:24:22.000Z</time>
      </trkpt>
      <trkpt lat="43.41491" lon="6.50794">
        <ele>304.20001220703</ele>
        <time>2020-05-30T08:24:25.000Z</time>
      </trkpt>
      <trkpt lat="43.41485" lon="6.50798">
        <ele>304.79998779297</ele>
        <time>2020-05-30T08:24:28.000Z</time>
      </trkpt>
      <trkpt lat="43.41474" lon="6.50805">
        <ele>305.60000610352</ele>
        <time>2020-05-30T08:24:33.000Z</time>
      </trkpt>
      <trkpt lat="43.41467" lon="6.50809">
        <ele>306</ele>
        <time>2020-05-30T08:24:37.000Z</time>
      </trkpt>
      <trkpt lat="43.41464" lon="6.50811">
        <ele>306.39999389648</ele>
        <time>2020-05-30T08:24:39.000Z</time>
      </trkpt>
      <trkpt lat="43.4146" lon="6.50814">
        <ele>307</ele>
        <time>2020-05-30T08:24:41.000Z</time>
      </trkpt>
      <trkpt lat="43.41454" lon="6.50817">
        <ele>308</ele>
        <time>2020-05-30T08:24:44.000Z</time>
      </trkpt>
      <trkpt lat="43.41451" lon="6.50818">
        <ele>309</ele>
        <time>2020-05-30T08:24:46.000Z</time>
      </trkpt>
      <trkpt lat="43.41449" lon="6.50819">
        <ele>309.39999389648</ele>
        <time>2020-05-30T08:24:47.000Z</time>
      </trkpt>
      <trkpt lat="43.41444" lon="6.50823">
        <ele>310.39999389648</ele>
        <time>2020-05-30T08:24:50.000Z</time>
      </trkpt>
      <trkpt lat="43.4144" lon="6.50825">
        <ele>311</ele>
        <time>2020-05-30T08:24:52.000Z</time>
      </trkpt>
      <trkpt lat="43.41436" lon="6.50827">
        <ele>311.60000610352</ele>
        <time>2020-05-30T08:24:54.000Z</time>
      </trkpt>
      <trkpt lat="43.4143" lon="6.50833">
        <ele>312.79998779297</ele>
        <time>2020-05-30T08:24:57.000Z</time>
      </trkpt>
      <trkpt lat="43.41428" lon="6.50834">
        <ele>313.39999389648</ele>
        <time>2020-05-30T08:24:58.000Z</time>
      </trkpt>
      <trkpt lat="43.41425" lon="6.50837">
        <ele>314.39999389648</ele>
        <time>2020-05-30T08:25:00.000Z</time>
      </trkpt>
      <trkpt lat="43.41422" lon="6.50839">
        <ele>315.39999389648</ele>
        <time>2020-05-30T08:25:02.000Z</time>
      </trkpt>
      <trkpt lat="43.41418" lon="6.50842">
        <ele>316.60000610352</ele>
        <time>2020-05-30T08:25:04.000Z</time>
      </trkpt>
      <trkpt lat="43.41413" lon="6.50846">
        <ele>317.39999389648</ele>
        <time>2020-05-30T08:25:07.000Z</time>
      </trkpt>
      <trkpt lat="43.41411" lon="6.50849">
        <ele>317.60000610352</ele>
        <time>2020-05-30T08:25:09.000Z</time>
      </trkpt>
      <trkpt lat="43.41405" lon="6.50855">
        <ele>318.79998779297</ele>
        <time>2020-05-30T08:25:13.000Z</time>
      </trkpt>
      <trkpt lat="43.41399" lon="6.50862">
        <ele>319.79998779297</ele>
        <time>2020-05-30T08:25:17.000Z</time>
      </trkpt>
      <trkpt lat="43.41394" lon="6.50868">
        <ele>320.79998779297</ele>
        <time>2020-05-30T08:25:21.000Z</time>
      </trkpt>
      <trkpt lat="43.41392" lon="6.5087">
        <ele>321</ele>
        <time>2020-05-30T08:25:22.000Z</time>
      </trkpt>
      <trkpt lat="43.41388" lon="6.50876">
        <ele>322.20001220703</ele>
        <time>2020-05-30T08:25:26.000Z</time>
      </trkpt>
      <trkpt lat="43.41385" lon="6.5088">
        <ele>322.39999389648</ele>
        <time>2020-05-30T08:25:28.000Z</time>
      </trkpt>
      <trkpt lat="43.41381" lon="6.50887">
        <ele>323.39999389648</ele>
        <time>2020-05-30T08:25:32.000Z</time>
      </trkpt>
      <trkpt lat="43.41376" lon="6.50895">
        <ele>324.39999389648</ele>
        <time>2020-05-30T08:25:36.000Z</time>
      </trkpt>
      <trkpt lat="43.41372" lon="6.50904">
        <ele>325.39999389648</ele>
        <time>2020-05-30T08:25:40.000Z</time>
      </trkpt>
      <trkpt lat="43.41368" lon="6.50914">
        <ele>326.39999389648</ele>
        <time>2020-05-30T08:25:44.000Z</time>
      </trkpt>
      <trkpt lat="43.41363" lon="6.50931">
        <ele>327.60000610352</ele>
        <time>2020-05-30T08:25:51.000Z</time>
      </trkpt>
      <trkpt lat="43.41362" lon="6.50933">
        <ele>328</ele>
        <time>2020-05-30T08:25:52.000Z</time>
      </trkpt>
      <trkpt lat="43.4136" lon="6.50941">
        <ele>328.79998779297</ele>
        <time>2020-05-30T08:25:55.000Z</time>
      </trkpt>
      <trkpt lat="43.41357" lon="6.50953">
        <ele>329.79998779297</ele>
        <time>2020-05-30T08:26:00.000Z</time>
      </trkpt>
      <trkpt lat="43.41356" lon="6.50955">
        <ele>330</ele>
        <time>2020-05-30T08:26:01.000Z</time>
      </trkpt>
      <trkpt lat="43.41346" lon="6.50969">
        <ele>330.39999389648</ele>
        <time>2020-05-30T08:26:07.000Z</time>
      </trkpt>
      <trkpt lat="43.41338" lon="6.50977">
        <ele>331.20001220703</ele>
        <time>2020-05-30T08:26:11.000Z</time>
      </trkpt>
      <trkpt lat="43.41333" lon="6.50983">
        <ele>332.20001220703</ele>
        <time>2020-05-30T08:26:14.000Z</time>
      </trkpt>
      <trkpt lat="43.41329" lon="6.50987">
        <ele>332.60000610352</ele>
        <time>2020-05-30T08:26:16.000Z</time>
      </trkpt>
      <trkpt lat="43.41325" lon="6.5099">
        <ele>333.20001220703</ele>
        <time>2020-05-30T08:26:18.000Z</time>
      </trkpt>
      <trkpt lat="43.41316" lon="6.50998">
        <ele>334.20001220703</ele>
        <time>2020-05-30T08:26:23.000Z</time>
      </trkpt>
      <trkpt lat="43.41314" lon="6.50999">
        <ele>334.39999389648</ele>
        <time>2020-05-30T08:26:24.000Z</time>
      </trkpt>
      <trkpt lat="43.41296" lon="6.5101">
        <ele>335.20001220703</ele>
        <time>2020-05-30T08:26:32.000Z</time>
      </trkpt>
      <trkpt lat="43.41271" lon="6.51021">
        <ele>335.20001220703</ele>
        <time>2020-05-30T08:26:41.000Z</time>
      </trkpt>
      <trkpt lat="43.41258" lon="6.51025">
        <ele>336.39999389648</ele>
        <time>2020-05-30T08:26:46.000Z</time>
      </trkpt>
      <trkpt lat="43.4125" lon="6.51027">
        <ele>337.20001220703</ele>
        <time>2020-05-30T08:26:49.000Z</time>
      </trkpt>
      <trkpt lat="43.41246" lon="6.51029">
        <ele>337.39999389648</ele>
        <time>2020-05-30T08:26:51.000Z</time>
      </trkpt>
      <trkpt lat="43.41236" lon="6.5103">
        <ele>338.20001220703</ele>
        <time>2020-05-30T08:26:55.000Z</time>
      </trkpt>
      <trkpt lat="43.41229" lon="6.51029">
        <ele>338.39999389648</ele>
        <time>2020-05-30T08:26:58.000Z</time>
      </trkpt>
      <trkpt lat="43.41212" lon="6.51024">
        <ele>338.39999389648</ele>
        <time>2020-05-30T08:27:04.000Z</time>
      </trkpt>
      <trkpt lat="43.41205" lon="6.51013">
        <ele>338</ele>
        <time>2020-05-30T08:27:08.000Z</time>
      </trkpt>
      <trkpt lat="43.41206" lon="6.50998">
        <ele>338</ele>
        <time>2020-05-30T08:27:13.000Z</time>
      </trkpt>
      <trkpt lat="43.41209" lon="6.50992">
        <ele>337.79998779297</ele>
        <time>2020-05-30T08:27:17.000Z</time>
      </trkpt>
      <trkpt lat="43.41209" lon="6.50992">
        <ele>337.79998779297</ele>
        <time>2020-05-30T08:27:25.000Z</time>
      </trkpt>
      <trkpt lat="43.41209" lon="6.50993">
        <ele>337.39999389648</ele>
        <time>2020-05-30T08:27:36.000Z</time>
      </trkpt>
      <trkpt lat="43.41209" lon="6.50993">
        <ele>337.60000610352</ele>
        <time>2020-05-30T08:27:41.000Z</time>
      </trkpt>
      <trkpt lat="43.4121" lon="6.5099">
        <ele>337.79998779297</ele>
        <time>2020-05-30T08:27:52.000Z</time>
      </trkpt>
      <trkpt lat="43.41211" lon="6.5099">
        <ele>337.79998779297</ele>
        <time>2020-05-30T08:27:58.000Z</time>
      </trkpt>
      <trkpt lat="43.41211" lon="6.5099">
        <ele>337.79998779297</ele>
        <time>2020-05-30T08:28:17.000Z</time>
      </trkpt>
      <trkpt lat="43.41211" lon="6.5099">
        <ele>337.60000610352</ele>
        <time>2020-05-30T08:28:18.000Z</time>
      </trkpt>
      <trkpt lat="43.4121" lon="6.5099">
        <ele>337.60000610352</ele>
        <time>2020-05-30T08:28:21.000Z</time>
      </trkpt>
      <trkpt lat="43.4121" lon="6.50992">
        <ele>337</ele>
        <time>2020-05-30T08:28:28.000Z</time>
      </trkpt>
      <trkpt lat="43.41209" lon="6.50994">
        <ele>337</ele>
        <time>2020-05-30T08:28:31.000Z</time>
      </trkpt>
      <trkpt lat="43.41208" lon="6.50995">
        <ele>337</ele>
        <time>2020-05-30T08:28:34.000Z</time>
      </trkpt>
      <trkpt lat="43.4121" lon="6.50993">
        <ele>337.20001220703</ele>
        <time>2020-05-30T08:28:39.000Z</time>
      </trkpt>
      <trkpt lat="43.41211" lon="6.50992">
        <ele>337.79998779297</ele>
        <time>2020-05-30T08:28:44.000Z</time>
      </trkpt>
      <trkpt lat="43.41211" lon="6.50992">
        <ele>336.79998779297</ele>
        <time>2020-05-30T08:28:50.000Z</time>
      </trkpt>
      <trkpt lat="43.41211" lon="6.50992">
        <ele>336.39999389648</ele>
        <time>2020-05-30T08:28:56.000Z</time>
      </trkpt>
      <trkpt lat="43.41211" lon="6.50991">
        <ele>336.20001220703</ele>
        <time>2020-05-30T08:28:57.000Z</time>
      </trkpt>
      <trkpt lat="43.41211" lon="6.50991">
        <ele>336.60000610352</ele>
        <time>2020-05-30T08:29:03.000Z</time>
      </trkpt>
      <trkpt lat="43.41212" lon="6.50991">
        <ele>337.39999389648</ele>
        <time>2020-05-30T08:29:15.000Z</time>
      </trkpt>
      <trkpt lat="43.41212" lon="6.50991">
        <ele>337.60000610352</ele>
        <time>2020-05-30T08:29:17.000Z</time>
      </trkpt>
      <trkpt lat="43.41211" lon="6.50991">
        <ele>337.60000610352</ele>
        <time>2020-05-30T08:29:28.000Z</time>
      </trkpt>
      <trkpt lat="43.41212" lon="6.50991">
        <ele>337.20001220703</ele>
        <time>2020-05-30T08:29:37.000Z</time>
      </trkpt>
      <trkpt lat="43.41213" lon="6.5099">
        <ele>337.20001220703</ele>
        <time>2020-05-30T08:29:55.000Z</time>
      </trkpt>
      <trkpt lat="43.41213" lon="6.5099">
        <ele>337.20001220703</ele>
        <time>2020-05-30T08:30:19.000Z</time>
      </trkpt>
      <trkpt lat="43.41213" lon="6.50989">
        <ele>337</ele>
        <time>2020-05-30T08:30:35.000Z</time>
      </trkpt>
      <trkpt lat="43.41213" lon="6.50989">
        <ele>336</ele>
        <time>2020-05-30T08:30:37.000Z</time>
      </trkpt>
      <trkpt lat="43.41213" lon="6.50989">
        <ele>338.79998779297</ele>
        <time>2020-05-30T08:30:38.000Z</time>
      </trkpt>
      <trkpt lat="43.41213" lon="6.50989">
        <ele>339.79998779297</ele>
        <time>2020-05-30T08:30:41.000Z</time>
      </trkpt>
      <trkpt lat="43.41213" lon="6.50989">
        <ele>337.20001220703</ele>
        <time>2020-05-30T08:30:43.000Z</time>
      </trkpt>
      <trkpt lat="43.41213" lon="6.50989">
        <ele>338.39999389648</ele>
        <time>2020-05-30T08:30:46.000Z</time>
      </trkpt>
      <trkpt lat="43.41213" lon="6.50989">
        <ele>340.60000610352</ele>
        <time>2020-05-30T08:30:48.000Z</time>
      </trkpt>
      <trkpt lat="43.41213" lon="6.5099">
        <ele>340.60000610352</ele>
        <time>2020-05-30T08:31:01.000Z</time>
      </trkpt>
      <trkpt lat="43.41212" lon="6.50991">
        <ele>340.79998779297</ele>
        <time>2020-05-30T08:31:08.000Z</time>
      </trkpt>
      <trkpt lat="43.41212" lon="6.50991">
        <ele>340.79998779297</ele>
        <time>2020-05-30T08:31:15.000Z</time>
      </trkpt>
      <trkpt lat="43.41212" lon="6.50991">
        <ele>340.60000610352</ele>
        <time>2020-05-30T08:31:21.000Z</time>
      </trkpt>
      <trkpt lat="43.41211" lon="6.5099">
        <ele>340.60000610352</ele>
        <time>2020-05-30T08:31:28.000Z</time>
      </trkpt>
      <trkpt lat="43.41209" lon="6.50992">
        <ele>341.20001220703</ele>
        <time>2020-05-30T08:31:35.000Z</time>
      </trkpt>
      <trkpt lat="43.41209" lon="6.50993">
        <ele>341.39999389648</ele>
        <time>2020-05-30T08:31:44.000Z</time>
      </trkpt>
      <trkpt lat="43.41209" lon="6.50993">
        <ele>341.20001220703</ele>
        <time>2020-05-30T08:31:57.000Z</time>
      </trkpt>
      <trkpt lat="43.41208" lon="6.50994">
        <ele>340.79998779297</ele>
        <time>2020-05-30T08:32:07.000Z</time>
      </trkpt>
      <trkpt lat="43.41207" lon="6.50999">
        <ele>340.20001220703</ele>
        <time>2020-05-30T08:32:11.000Z</time>
      </trkpt>
      <trkpt lat="43.41203" lon="6.51005">
        <ele>339.60000610352</ele>
        <time>2020-05-30T08:32:14.000Z</time>
      </trkpt>
      <trkpt lat="43.412" lon="6.51009">
        <ele>339.20001220703</ele>
        <time>2020-05-30T08:32:17.000Z</time>
      </trkpt>
      <trkpt lat="43.41194" lon="6.51015">
        <ele>338.60000610352</ele>
        <time>2020-05-30T08:32:24.000Z</time>
      </trkpt>
      <trkpt lat="43.41193" lon="6.51015">
        <ele>338.60000610352</ele>
        <time>2020-05-30T08:32:25.000Z</time>
      </trkpt>
      <trkpt lat="43.41193" lon="6.51015">
        <ele>338.20001220703</ele>
        <time>2020-05-30T08:32:34.000Z</time>
      </trkpt>
      <trkpt lat="43.41193" lon="6.51016">
        <ele>338.20001220703</ele>
        <time>2020-05-30T08:32:54.000Z</time>
      </trkpt>
      <trkpt lat="43.41193" lon="6.51016">
        <ele>338.20001220703</ele>
        <time>2020-05-30T08:33:13.000Z</time>
      </trkpt>
      <trkpt lat="43.41192" lon="6.51016">
        <ele>338.20001220703</ele>
        <time>2020-05-30T08:33:32.000Z</time>
      </trkpt>
      <trkpt lat="43.41192" lon="6.51017">
        <ele>338.20001220703</ele>
        <time>2020-05-30T08:33:58.000Z</time>
      </trkpt>
      <trkpt lat="43.41192" lon="6.51018">
        <ele>338.20001220703</ele>
        <time>2020-05-30T08:34:26.000Z</time>
      </trkpt>
      <trkpt lat="43.41186" lon="6.51018">
        <ele>338.39999389648</ele>
        <time>2020-05-30T08:34:34.000Z</time>
      </trkpt>
      <trkpt lat="43.41175" lon="6.51014">
        <ele>338.20001220703</ele>
        <time>2020-05-30T08:34:37.000Z</time>
      </trkpt>
      <trkpt lat="43.41171" lon="6.51013">
        <ele>338.20001220703</ele>
        <time>2020-05-30T08:34:38.000Z</time>
      </trkpt>
      <trkpt lat="43.41161" lon="6.51014">
        <ele>337.20001220703</ele>
        <time>2020-05-30T08:34:40.000Z</time>
      </trkpt>
      <trkpt lat="43.41155" lon="6.51012">
        <ele>337</ele>
        <time>2020-05-30T08:34:41.000Z</time>
      </trkpt>
      <trkpt lat="43.4115" lon="6.51008">
        <ele>336.20001220703</ele>
        <time>2020-05-30T08:34:42.000Z</time>
      </trkpt>
      <trkpt lat="43.41143" lon="6.51">
        <ele>335.20001220703</ele>
        <time>2020-05-30T08:34:44.000Z</time>
      </trkpt>
      <trkpt lat="43.41135" lon="6.51004">
        <ele>334.39999389648</ele>
        <time>2020-05-30T08:34:46.000Z</time>
      </trkpt>
      <trkpt lat="43.41132" lon="6.51007">
        <ele>334.60000610352</ele>
        <time>2020-05-30T08:34:47.000Z</time>
      </trkpt>
      <trkpt lat="43.41121" lon="6.51007">
        <ele>334.79998779297</ele>
        <time>2020-05-30T08:34:50.000Z</time>
      </trkpt>
      <trkpt lat="43.41119" lon="6.51005">
        <ele>334</ele>
        <time>2020-05-30T08:34:52.000Z</time>
      </trkpt>
      <trkpt lat="43.41119" lon="6.51006">
        <ele>333.20001220703</ele>
        <time>2020-05-30T08:34:53.000Z</time>
      </trkpt>
      <trkpt lat="43.41119" lon="6.51005">
        <ele>332.60000610352</ele>
        <time>2020-05-30T08:34:54.000Z</time>
      </trkpt>
      <trkpt lat="43.41119" lon="6.51005">
        <ele>331.39999389648</ele>
        <time>2020-05-30T08:34:56.000Z</time>
      </trkpt>
      <trkpt lat="43.41119" lon="6.51005">
        <ele>331</ele>
        <time>2020-05-30T08:35:06.000Z</time>
      </trkpt>
      <trkpt lat="43.4112" lon="6.51005">
        <ele>331.20001220703</ele>
        <time>2020-05-30T08:35:15.000Z</time>
      </trkpt>
      <trkpt lat="43.4112" lon="6.51005">
        <ele>330.60000610352</ele>
        <time>2020-05-30T08:35:23.000Z</time>
      </trkpt>
      <trkpt lat="43.41121" lon="6.51004">
        <ele>331</ele>
        <time>2020-05-30T08:35:28.000Z</time>
      </trkpt>
      <trkpt lat="43.41126" lon="6.51007">
        <ele>331.39999389648</ele>
        <time>2020-05-30T08:35:35.000Z</time>
      </trkpt>
      <trkpt lat="43.41134" lon="6.51007">
        <ele>331.79998779297</ele>
        <time>2020-05-30T08:35:38.000Z</time>
      </trkpt>
      <trkpt lat="43.41135" lon="6.51006">
        <ele>332.20001220703</ele>
        <time>2020-05-30T08:35:39.000Z</time>
      </trkpt>
      <trkpt lat="43.41135" lon="6.51005">
        <ele>332.60000610352</ele>
        <time>2020-05-30T08:35:40.000Z</time>
      </trkpt>
      <trkpt lat="43.41139" lon="6.51002">
        <ele>333.79998779297</ele>
        <time>2020-05-30T08:35:43.000Z</time>
      </trkpt>
      <trkpt lat="43.41142" lon="6.51001">
        <ele>334</ele>
        <time>2020-05-30T08:35:44.000Z</time>
      </trkpt>
      <trkpt lat="43.41144" lon="6.51001">
        <ele>334.20001220703</ele>
        <time>2020-05-30T08:35:45.000Z</time>
      </trkpt>
      <trkpt lat="43.41148" lon="6.51005">
        <ele>334.79998779297</ele>
        <time>2020-05-30T08:35:48.000Z</time>
      </trkpt>
      <trkpt lat="43.41151" lon="6.51008">
        <ele>335</ele>
        <time>2020-05-30T08:35:50.000Z</time>
      </trkpt>
      <trkpt lat="43.4116" lon="6.51013">
        <ele>335.20001220703</ele>
        <time>2020-05-30T08:35:54.000Z</time>
      </trkpt>
      <trkpt lat="43.41173" lon="6.51012">
        <ele>335.20001220703</ele>
        <time>2020-05-30T08:36:00.000Z</time>
      </trkpt>
      <trkpt lat="43.41179" lon="6.51014">
        <ele>336.20001220703</ele>
        <time>2020-05-30T08:36:03.000Z</time>
      </trkpt>
      <trkpt lat="43.41184" lon="6.51017">
        <ele>337</ele>
        <time>2020-05-30T08:36:06.000Z</time>
      </trkpt>
      <trkpt lat="43.41188" lon="6.51017">
        <ele>337.39999389648</ele>
        <time>2020-05-30T08:36:08.000Z</time>
      </trkpt>
      <trkpt lat="43.412" lon="6.51019">
        <ele>338.20001220703</ele>
        <time>2020-05-30T08:36:13.000Z</time>
      </trkpt>
      <trkpt lat="43.41203" lon="6.51021">
        <ele>338.39999389648</ele>
        <time>2020-05-30T08:36:14.000Z</time>
      </trkpt>
      <trkpt lat="43.41214" lon="6.51031">
        <ele>337.79998779297</ele>
        <time>2020-05-30T08:36:19.000Z</time>
      </trkpt>
      <trkpt lat="43.41227" lon="6.5105">
        <ele>338</ele>
        <time>2020-05-30T08:36:27.000Z</time>
      </trkpt>
      <trkpt lat="43.41233" lon="6.51067">
        <ele>338</ele>
        <time>2020-05-30T08:36:33.000Z</time>
      </trkpt>
      <trkpt lat="43.41237" lon="6.51084">
        <ele>337.79998779297</ele>
        <time>2020-05-30T08:36:37.000Z</time>
      </trkpt>
      <trkpt lat="43.41244" lon="6.51088">
        <ele>337</ele>
        <time>2020-05-30T08:36:39.000Z</time>
      </trkpt>
      <trkpt lat="43.41248" lon="6.51092">
        <ele>336.79998779297</ele>
        <time>2020-05-30T08:36:41.000Z</time>
      </trkpt>
      <trkpt lat="43.41252" lon="6.51104">
        <ele>336.79998779297</ele>
        <time>2020-05-30T08:36:44.000Z</time>
      </trkpt>
      <trkpt lat="43.41256" lon="6.51113">
        <ele>335.79998779297</ele>
        <time>2020-05-30T08:36:47.000Z</time>
      </trkpt>
      <trkpt lat="43.41259" lon="6.51115">
        <ele>335.39999389648</ele>
        <time>2020-05-30T08:36:48.000Z</time>
      </trkpt>
      <trkpt lat="43.41264" lon="6.51117">
        <ele>334.60000610352</ele>
        <time>2020-05-30T08:36:49.000Z</time>
      </trkpt>
      <trkpt lat="43.41268" lon="6.51118">
        <ele>334</ele>
        <time>2020-05-30T08:36:50.000Z</time>
      </trkpt>
      <trkpt lat="43.41271" lon="6.51122">
        <ele>333.60000610352</ele>
        <time>2020-05-30T08:36:51.000Z</time>
      </trkpt>
      <trkpt lat="43.41272" lon="6.51128">
        <ele>333.20001220703</ele>
        <time>2020-05-30T08:36:52.000Z</time>
      </trkpt>
      <trkpt lat="43.41277" lon="6.51132">
        <ele>332.60000610352</ele>
        <time>2020-05-30T08:36:54.000Z</time>
      </trkpt>
      <trkpt lat="43.41281" lon="6.51135">
        <ele>332</ele>
        <time>2020-05-30T08:36:55.000Z</time>
      </trkpt>
      <trkpt lat="43.41288" lon="6.51148">
        <ele>331</ele>
        <time>2020-05-30T08:36:58.000Z</time>
      </trkpt>
      <trkpt lat="43.41294" lon="6.5116">
        <ele>329.60000610352</ele>
        <time>2020-05-30T08:37:01.000Z</time>
      </trkpt>
      <trkpt lat="43.41296" lon="6.51163">
        <ele>329.20001220703</ele>
        <time>2020-05-30T08:37:02.000Z</time>
      </trkpt>
      <trkpt lat="43.41298" lon="6.51165">
        <ele>328.39999389648</ele>
        <time>2020-05-30T08:37:03.000Z</time>
      </trkpt>
      <trkpt lat="43.41304" lon="6.51172">
        <ele>326.79998779297</ele>
        <time>2020-05-30T08:37:05.000Z</time>
      </trkpt>
      <trkpt lat="43.41308" lon="6.51174">
        <ele>325.79998779297</ele>
        <time>2020-05-30T08:37:06.000Z</time>
      </trkpt>
      <trkpt lat="43.41312" lon="6.51175">
        <ele>324.79998779297</ele>
        <time>2020-05-30T08:37:07.000Z</time>
      </trkpt>
      <trkpt lat="43.41319" lon="6.51178">
        <ele>323</ele>
        <time>2020-05-30T08:37:09.000Z</time>
      </trkpt>
      <trkpt lat="43.41322" lon="6.51179">
        <ele>322.60000610352</ele>
        <time>2020-05-30T08:37:10.000Z</time>
      </trkpt>
      <trkpt lat="43.4133" lon="6.51184">
        <ele>321.79998779297</ele>
        <time>2020-05-30T08:37:12.000Z</time>
      </trkpt>
      <trkpt lat="43.41334" lon="6.51183">
        <ele>321.39999389648</ele>
        <time>2020-05-30T08:37:13.000Z</time>
      </trkpt>
      <trkpt lat="43.41338" lon="6.51183">
        <ele>320.60000610352</ele>
        <time>2020-05-30T08:37:14.000Z</time>
      </trkpt>
      <trkpt lat="43.41343" lon="6.51185">
        <ele>320.20001220703</ele>
        <time>2020-05-30T08:37:15.000Z</time>
      </trkpt>
      <trkpt lat="43.41352" lon="6.51186">
        <ele>319.79998779297</ele>
        <time>2020-05-30T08:37:17.000Z</time>
      </trkpt>
      <trkpt lat="43.41354" lon="6.51186">
        <ele>319.39999389648</ele>
        <time>2020-05-30T08:37:18.000Z</time>
      </trkpt>
      <trkpt lat="43.41362" lon="6.51186">
        <ele>319</ele>
        <time>2020-05-30T08:37:21.000Z</time>
      </trkpt>
      <trkpt lat="43.41365" lon="6.51187">
        <ele>318.79998779297</ele>
        <time>2020-05-30T08:37:22.000Z</time>
      </trkpt>
      <trkpt lat="43.41374" lon="6.51185">
        <ele>319.20001220703</ele>
        <time>2020-05-30T08:37:25.000Z</time>
      </trkpt>
      <trkpt lat="43.41387" lon="6.51185">
        <ele>319.79998779297</ele>
        <time>2020-05-30T08:37:29.000Z</time>
      </trkpt>
      <trkpt lat="43.41397" lon="6.51188">
        <ele>319</ele>
        <time>2020-05-30T08:37:32.000Z</time>
      </trkpt>
      <trkpt lat="43.414" lon="6.51192">
        <ele>318.39999389648</ele>
        <time>2020-05-30T08:37:33.000Z</time>
      </trkpt>
      <trkpt lat="43.41406" lon="6.51197">
        <ele>318.20001220703</ele>
        <time>2020-05-30T08:37:36.000Z</time>
      </trkpt>
      <trkpt lat="43.41406" lon="6.51198">
        <ele>318</ele>
        <time>2020-05-30T08:37:37.000Z</time>
      </trkpt>
      <trkpt lat="43.4141" lon="6.51202">
        <ele>317.39999389648</ele>
        <time>2020-05-30T08:37:40.000Z</time>
      </trkpt>
      <trkpt lat="43.41411" lon="6.51203">
        <ele>317.39999389648</ele>
        <time>2020-05-30T08:37:41.000Z</time>
      </trkpt>
      <trkpt lat="43.41418" lon="6.51214">
        <ele>316.79998779297</ele>
        <time>2020-05-30T08:37:45.000Z</time>
      </trkpt>
      <trkpt lat="43.41418" lon="6.51217">
        <ele>316.20001220703</ele>
        <time>2020-05-30T08:37:46.000Z</time>
      </trkpt>
      <trkpt lat="43.4142" lon="6.51218">
        <ele>315.60000610352</ele>
        <time>2020-05-30T08:37:47.000Z</time>
      </trkpt>
      <trkpt lat="43.41422" lon="6.51218">
        <ele>315.20001220703</ele>
        <time>2020-05-30T08:37:48.000Z</time>
      </trkpt>
      <trkpt lat="43.41425" lon="6.51219">
        <ele>314.79998779297</ele>
        <time>2020-05-30T08:37:49.000Z</time>
      </trkpt>
      <trkpt lat="43.41434" lon="6.51226">
        <ele>314.39999389648</ele>
        <time>2020-05-30T08:37:53.000Z</time>
      </trkpt>
      <trkpt lat="43.41438" lon="6.51228">
        <ele>314.20001220703</ele>
        <time>2020-05-30T08:37:54.000Z</time>
      </trkpt>
      <trkpt lat="43.41442" lon="6.51229">
        <ele>313.79998779297</ele>
        <time>2020-05-30T08:37:55.000Z</time>
      </trkpt>
      <trkpt lat="43.41449" lon="6.5123">
        <ele>312.39999389648</ele>
        <time>2020-05-30T08:37:57.000Z</time>
      </trkpt>
      <trkpt lat="43.41452" lon="6.51233">
        <ele>311.79998779297</ele>
        <time>2020-05-30T08:37:58.000Z</time>
      </trkpt>
      <trkpt lat="43.41456" lon="6.51235">
        <ele>311.20001220703</ele>
        <time>2020-05-30T08:37:59.000Z</time>
      </trkpt>
      <trkpt lat="43.41459" lon="6.51236">
        <ele>310</ele>
        <time>2020-05-30T08:38:00.000Z</time>
      </trkpt>
      <trkpt lat="43.41464" lon="6.51236">
        <ele>308.60000610352</ele>
        <time>2020-05-30T08:38:02.000Z</time>
      </trkpt>
      <trkpt lat="43.41467" lon="6.51239">
        <ele>307.20001220703</ele>
        <time>2020-05-30T08:38:04.000Z</time>
      </trkpt>
      <trkpt lat="43.41467" lon="6.51243">
        <ele>306.60000610352</ele>
        <time>2020-05-30T08:38:05.000Z</time>
      </trkpt>
      <trkpt lat="43.41467" lon="6.51246">
        <ele>306</ele>
        <time>2020-05-30T08:38:06.000Z</time>
      </trkpt>
      <trkpt lat="43.41467" lon="6.51256">
        <ele>305</ele>
        <time>2020-05-30T08:38:08.000Z</time>
      </trkpt>
      <trkpt lat="43.41469" lon="6.51261">
        <ele>304.20001220703</ele>
        <time>2020-05-30T08:38:09.000Z</time>
      </trkpt>
      <trkpt lat="43.41472" lon="6.51263">
        <ele>303.60000610352</ele>
        <time>2020-05-30T08:38:10.000Z</time>
      </trkpt>
      <trkpt lat="43.4148" lon="6.51265">
        <ele>302.20001220703</ele>
        <time>2020-05-30T08:38:12.000Z</time>
      </trkpt>
      <trkpt lat="43.41489" lon="6.51264">
        <ele>300.79998779297</ele>
        <time>2020-05-30T08:38:14.000Z</time>
      </trkpt>
      <trkpt lat="43.41496" lon="6.51264">
        <ele>299.20001220703</ele>
        <time>2020-05-30T08:38:16.000Z</time>
      </trkpt>
      <trkpt lat="43.41507" lon="6.5127">
        <ele>297.60000610352</ele>
        <time>2020-05-30T08:38:19.000Z</time>
      </trkpt>
      <trkpt lat="43.41515" lon="6.51275">
        <ele>296.20001220703</ele>
        <time>2020-05-30T08:38:21.000Z</time>
      </trkpt>
      <trkpt lat="43.41527" lon="6.51281">
        <ele>294.20001220703</ele>
        <time>2020-05-30T08:38:23.000Z</time>
      </trkpt>
      <trkpt lat="43.41533" lon="6.51285">
        <ele>293.20001220703</ele>
        <time>2020-05-30T08:38:24.000Z</time>
      </trkpt>
      <trkpt lat="43.41538" lon="6.51288">
        <ele>291.79998779297</ele>
        <time>2020-05-30T08:38:25.000Z</time>
      </trkpt>
      <trkpt lat="43.41544" lon="6.51291">
        <ele>291.20001220703</ele>
        <time>2020-05-30T08:38:26.000Z</time>
      </trkpt>
      <trkpt lat="43.41549" lon="6.51294">
        <ele>289.39999389648</ele>
        <time>2020-05-30T08:38:27.000Z</time>
      </trkpt>
      <trkpt lat="43.41552" lon="6.51298">
        <ele>288.60000610352</ele>
        <time>2020-05-30T08:38:28.000Z</time>
      </trkpt>
      <trkpt lat="43.41557" lon="6.513">
        <ele>288.20001220703</ele>
        <time>2020-05-30T08:38:29.000Z</time>
      </trkpt>
      <trkpt lat="43.41565" lon="6.51302">
        <ele>287.60000610352</ele>
        <time>2020-05-30T08:38:31.000Z</time>
      </trkpt>
      <trkpt lat="43.4157" lon="6.51304">
        <ele>287.20001220703</ele>
        <time>2020-05-30T08:38:32.000Z</time>
      </trkpt>
      <trkpt lat="43.41575" lon="6.51309">
        <ele>286.60000610352</ele>
        <time>2020-05-30T08:38:34.000Z</time>
      </trkpt>
      <trkpt lat="43.41577" lon="6.51313">
        <ele>286.20001220703</ele>
        <time>2020-05-30T08:38:35.000Z</time>
      </trkpt>
      <trkpt lat="43.41582" lon="6.5132">
        <ele>285</ele>
        <time>2020-05-30T08:38:37.000Z</time>
      </trkpt>
      <trkpt lat="43.41584" lon="6.51325">
        <ele>284</ele>
        <time>2020-05-30T08:38:38.000Z</time>
      </trkpt>
      <trkpt lat="43.41585" lon="6.51331">
        <ele>283.20001220703</ele>
        <time>2020-05-30T08:38:39.000Z</time>
      </trkpt>
      <trkpt lat="43.41586" lon="6.51339">
        <ele>282.20001220703</ele>
        <time>2020-05-30T08:38:41.000Z</time>
      </trkpt>
      <trkpt lat="43.41587" lon="6.51341">
        <ele>281.20001220703</ele>
        <time>2020-05-30T08:38:42.000Z</time>
      </trkpt>
      <trkpt lat="43.41587" lon="6.51341">
        <ele>280.20001220703</ele>
        <time>2020-05-30T08:38:43.000Z</time>
      </trkpt>
      <trkpt lat="43.41588" lon="6.51343">
        <ele>279.79998779297</ele>
        <time>2020-05-30T08:38:44.000Z</time>
      </trkpt>
      <trkpt lat="43.4159" lon="6.51346">
        <ele>279.79998779297</ele>
        <time>2020-05-30T08:38:46.000Z</time>
      </trkpt>
      <trkpt lat="43.41594" lon="6.51345">
        <ele>280</ele>
        <time>2020-05-30T08:38:48.000Z</time>
      </trkpt>
      <trkpt lat="43.41601" lon="6.51339">
        <ele>278.79998779297</ele>
        <time>2020-05-30T08:38:52.000Z</time>
      </trkpt>
      <trkpt lat="43.41603" lon="6.51338">
        <ele>278</ele>
        <time>2020-05-30T08:38:53.000Z</time>
      </trkpt>
      <trkpt lat="43.41605" lon="6.51339">
        <ele>277.39999389648</ele>
        <time>2020-05-30T08:38:54.000Z</time>
      </trkpt>
      <trkpt lat="43.41611" lon="6.51343">
        <ele>276.60000610352</ele>
        <time>2020-05-30T08:38:56.000Z</time>
      </trkpt>
      <trkpt lat="43.41613" lon="6.51347">
        <ele>276</ele>
        <time>2020-05-30T08:38:57.000Z</time>
      </trkpt>
      <trkpt lat="43.41616" lon="6.51352">
        <ele>274.39999389648</ele>
        <time>2020-05-30T08:38:59.000Z</time>
      </trkpt>
      <trkpt lat="43.41618" lon="6.51355">
        <ele>273.20001220703</ele>
        <time>2020-05-30T08:39:00.000Z</time>
      </trkpt>
      <trkpt lat="43.41618" lon="6.51357">
        <ele>272.20001220703</ele>
        <time>2020-05-30T08:39:01.000Z</time>
      </trkpt>
      <trkpt lat="43.41618" lon="6.51356">
        <ele>271</ele>
        <time>2020-05-30T08:39:02.000Z</time>
      </trkpt>
      <trkpt lat="43.41618" lon="6.51356">
        <ele>269.79998779297</ele>
        <time>2020-05-30T08:39:03.000Z</time>
      </trkpt>
      <trkpt lat="43.41618" lon="6.51357">
        <ele>268.60000610352</ele>
        <time>2020-05-30T08:39:06.000Z</time>
      </trkpt>
      <trkpt lat="43.41617" lon="6.51356">
        <ele>269</ele>
        <time>2020-05-30T08:39:14.000Z</time>
      </trkpt>
      <trkpt lat="43.41617" lon="6.51356">
        <ele>269</ele>
        <time>2020-05-30T08:39:22.000Z</time>
      </trkpt>
      <trkpt lat="43.41618" lon="6.51356">
        <ele>268.60000610352</ele>
        <time>2020-05-30T08:39:39.000Z</time>
      </trkpt>
      <trkpt lat="43.4162" lon="6.51359">
        <ele>269</ele>
        <time>2020-05-30T08:39:42.000Z</time>
      </trkpt>
      <trkpt lat="43.41621" lon="6.51361">
        <ele>269</ele>
        <time>2020-05-30T08:39:43.000Z</time>
      </trkpt>
      <trkpt lat="43.4163" lon="6.51374">
        <ele>268</ele>
        <time>2020-05-30T08:39:47.000Z</time>
      </trkpt>
      <trkpt lat="43.41635" lon="6.51374">
        <ele>266.79998779297</ele>
        <time>2020-05-30T08:39:48.000Z</time>
      </trkpt>
      <trkpt lat="43.4164" lon="6.51374">
        <ele>265.60000610352</ele>
        <time>2020-05-30T08:39:49.000Z</time>
      </trkpt>
      <trkpt lat="43.41644" lon="6.51375">
        <ele>264.79998779297</ele>
        <time>2020-05-30T08:39:50.000Z</time>
      </trkpt>
      <trkpt lat="43.41648" lon="6.51376">
        <ele>263.79998779297</ele>
        <time>2020-05-30T08:39:51.000Z</time>
      </trkpt>
      <trkpt lat="43.41655" lon="6.51381">
        <ele>262.39999389648</ele>
        <time>2020-05-30T08:39:53.000Z</time>
      </trkpt>
      <trkpt lat="43.41657" lon="6.51383">
        <ele>261.60000610352</ele>
        <time>2020-05-30T08:39:54.000Z</time>
      </trkpt>
      <trkpt lat="43.4166" lon="6.51384">
        <ele>260.79998779297</ele>
        <time>2020-05-30T08:39:55.000Z</time>
      </trkpt>
      <trkpt lat="43.41661" lon="6.5139">
        <ele>259</ele>
        <time>2020-05-30T08:39:57.000Z</time>
      </trkpt>
      <trkpt lat="43.41662" lon="6.51392">
        <ele>259</ele>
        <time>2020-05-30T08:39:58.000Z</time>
      </trkpt>
      <trkpt lat="43.41661" lon="6.51397">
        <ele>257.79998779297</ele>
        <time>2020-05-30T08:40:00.000Z</time>
      </trkpt>
      <trkpt lat="43.41661" lon="6.51398">
        <ele>257</ele>
        <time>2020-05-30T08:40:01.000Z</time>
      </trkpt>
      <trkpt lat="43.41662" lon="6.51399">
        <ele>256.39999389648</ele>
        <time>2020-05-30T08:40:02.000Z</time>
      </trkpt>
      <trkpt lat="43.41664" lon="6.51399">
        <ele>255.60000610352</ele>
        <time>2020-05-30T08:40:03.000Z</time>
      </trkpt>
      <trkpt lat="43.41665" lon="6.514">
        <ele>254.80000305176</ele>
        <time>2020-05-30T08:40:04.000Z</time>
      </trkpt>
      <trkpt lat="43.4167" lon="6.51402">
        <ele>253.60000610352</ele>
        <time>2020-05-30T08:40:06.000Z</time>
      </trkpt>
      <trkpt lat="43.41674" lon="6.51407">
        <ele>252.80000305176</ele>
        <time>2020-05-30T08:40:08.000Z</time>
      </trkpt>
      <trkpt lat="43.41676" lon="6.51409">
        <ele>252.19999694824</ele>
        <time>2020-05-30T08:40:09.000Z</time>
      </trkpt>
      <trkpt lat="43.41677" lon="6.51411">
        <ele>251.80000305176</ele>
        <time>2020-05-30T08:40:10.000Z</time>
      </trkpt>
      <trkpt lat="43.41679" lon="6.51412">
        <ele>251</ele>
        <time>2020-05-30T08:40:11.000Z</time>
      </trkpt>
      <trkpt lat="43.41682" lon="6.51413">
        <ele>249.80000305176</ele>
        <time>2020-05-30T08:40:12.000Z</time>
      </trkpt>
      <trkpt lat="43.41687" lon="6.51419">
        <ele>248.19999694824</ele>
        <time>2020-05-30T08:40:14.000Z</time>
      </trkpt>
      <trkpt lat="43.4169" lon="6.51422">
        <ele>247.60000610352</ele>
        <time>2020-05-30T08:40:15.000Z</time>
      </trkpt>
      <trkpt lat="43.41695" lon="6.51427">
        <ele>246.80000305176</ele>
        <time>2020-05-30T08:40:17.000Z</time>
      </trkpt>
      <trkpt lat="43.41698" lon="6.51432">
        <ele>246.80000305176</ele>
        <time>2020-05-30T08:40:19.000Z</time>
      </trkpt>
      <trkpt lat="43.41698" lon="6.51434">
        <ele>246.60000610352</ele>
        <time>2020-05-30T08:40:20.000Z</time>
      </trkpt>
      <trkpt lat="43.41704" lon="6.51442">
        <ele>246.60000610352</ele>
        <time>2020-05-30T08:40:23.000Z</time>
      </trkpt>
      <trkpt lat="43.41712" lon="6.5145">
        <ele>246</ele>
        <time>2020-05-30T08:40:27.000Z</time>
      </trkpt>
      <trkpt lat="43.41712" lon="6.51454">
        <ele>245.60000610352</ele>
        <time>2020-05-30T08:40:28.000Z</time>
      </trkpt>
      <trkpt lat="43.41717" lon="6.51464">
        <ele>243.80000305176</ele>
        <time>2020-05-30T08:40:31.000Z</time>
      </trkpt>
      <trkpt lat="43.4172" lon="6.51467">
        <ele>242.80000305176</ele>
        <time>2020-05-30T08:40:32.000Z</time>
      </trkpt>
      <trkpt lat="43.41727" lon="6.51474">
        <ele>241.39999389648</ele>
        <time>2020-05-30T08:40:34.000Z</time>
      </trkpt>
      <trkpt lat="43.41729" lon="6.51477">
        <ele>240.80000305176</ele>
        <time>2020-05-30T08:40:35.000Z</time>
      </trkpt>
      <trkpt lat="43.41732" lon="6.51479">
        <ele>240</ele>
        <time>2020-05-30T08:40:36.000Z</time>
      </trkpt>
      <trkpt lat="43.41738" lon="6.51486">
        <ele>238.60000610352</ele>
        <time>2020-05-30T08:40:38.000Z</time>
      </trkpt>
      <trkpt lat="43.41741" lon="6.5149">
        <ele>238</ele>
        <time>2020-05-30T08:40:39.000Z</time>
      </trkpt>
      <trkpt lat="43.41743" lon="6.51493">
        <ele>237</ele>
        <time>2020-05-30T08:40:40.000Z</time>
      </trkpt>
      <trkpt lat="43.41745" lon="6.51499">
        <ele>235.80000305176</ele>
        <time>2020-05-30T08:40:42.000Z</time>
      </trkpt>
      <trkpt lat="43.41748" lon="6.51504">
        <ele>234.39999389648</ele>
        <time>2020-05-30T08:40:46.000Z</time>
      </trkpt>
      <trkpt lat="43.41748" lon="6.51504">
        <ele>233.19999694824</ele>
        <time>2020-05-30T08:40:48.000Z</time>
      </trkpt>
      <trkpt lat="43.41748" lon="6.51504">
        <ele>232</ele>
        <time>2020-05-30T08:40:51.000Z</time>
      </trkpt>
      <trkpt lat="43.41748" lon="6.51506">
        <ele>232</ele>
        <time>2020-05-30T08:40:55.000Z</time>
      </trkpt>
      <trkpt lat="43.41751" lon="6.51512">
        <ele>231.60000610352</ele>
        <time>2020-05-30T08:41:02.000Z</time>
      </trkpt>
      <trkpt lat="43.41752" lon="6.51514">
        <ele>230.80000305176</ele>
        <time>2020-05-30T08:41:04.000Z</time>
      </trkpt>
      <trkpt lat="43.41752" lon="6.51518">
        <ele>229.60000610352</ele>
        <time>2020-05-30T08:41:07.000Z</time>
      </trkpt>
      <trkpt lat="43.41751" lon="6.51519">
        <ele>229.19999694824</ele>
        <time>2020-05-30T08:41:08.000Z</time>
      </trkpt>
      <trkpt lat="43.4175" lon="6.51521">
        <ele>228.80000305176</ele>
        <time>2020-05-30T08:41:09.000Z</time>
      </trkpt>
      <trkpt lat="43.41749" lon="6.51522">
        <ele>228.60000610352</ele>
        <time>2020-05-30T08:41:10.000Z</time>
      </trkpt>
      <trkpt lat="43.41746" lon="6.51528">
        <ele>227.19999694824</ele>
        <time>2020-05-30T08:41:13.000Z</time>
      </trkpt>
      <trkpt lat="43.41746" lon="6.51534">
        <ele>225.60000610352</ele>
        <time>2020-05-30T08:41:15.000Z</time>
      </trkpt>
      <trkpt lat="43.41745" lon="6.51537">
        <ele>224.39999389648</ele>
        <time>2020-05-30T08:41:16.000Z</time>
      </trkpt>
      <trkpt lat="43.41744" lon="6.5154">
        <ele>223.39999389648</ele>
        <time>2020-05-30T08:41:17.000Z</time>
      </trkpt>
      <trkpt lat="43.41745" lon="6.51543">
        <ele>222.39999389648</ele>
        <time>2020-05-30T08:41:18.000Z</time>
      </trkpt>
      <trkpt lat="43.41745" lon="6.51546">
        <ele>221.19999694824</ele>
        <time>2020-05-30T08:41:19.000Z</time>
      </trkpt>
      <trkpt lat="43.41745" lon="6.51549">
        <ele>220.19999694824</ele>
        <time>2020-05-30T08:41:20.000Z</time>
      </trkpt>
      <trkpt lat="43.41745" lon="6.51553">
        <ele>219.39999389648</ele>
        <time>2020-05-30T08:41:21.000Z</time>
      </trkpt>
      <trkpt lat="43.41746" lon="6.51556">
        <ele>218.19999694824</ele>
        <time>2020-05-30T08:41:22.000Z</time>
      </trkpt>
      <trkpt lat="43.41745" lon="6.51562">
        <ele>216.60000610352</ele>
        <time>2020-05-30T08:41:24.000Z</time>
      </trkpt>
      <trkpt lat="43.41743" lon="6.51564">
        <ele>215.80000305176</ele>
        <time>2020-05-30T08:41:25.000Z</time>
      </trkpt>
      <trkpt lat="43.41741" lon="6.51565">
        <ele>215.19999694824</ele>
        <time>2020-05-30T08:41:26.000Z</time>
      </trkpt>
      <trkpt lat="43.41737" lon="6.51565">
        <ele>214.19999694824</ele>
        <time>2020-05-30T08:41:28.000Z</time>
      </trkpt>
      <trkpt lat="43.41734" lon="6.51565">
        <ele>213.60000610352</ele>
        <time>2020-05-30T08:41:29.000Z</time>
      </trkpt>
      <trkpt lat="43.4173" lon="6.51565">
        <ele>212.60000610352</ele>
        <time>2020-05-30T08:41:31.000Z</time>
      </trkpt>
      <trkpt lat="43.41724" lon="6.51565">
        <ele>211.39999389648</ele>
        <time>2020-05-30T08:41:33.000Z</time>
      </trkpt>
      <trkpt lat="43.41717" lon="6.51568">
        <ele>209.80000305176</ele>
        <time>2020-05-30T08:41:35.000Z</time>
      </trkpt>
      <trkpt lat="43.41711" lon="6.51565">
        <ele>208</ele>
        <time>2020-05-30T08:41:37.000Z</time>
      </trkpt>
      <trkpt lat="43.41705" lon="6.51563">
        <ele>206.19999694824</ele>
        <time>2020-05-30T08:41:39.000Z</time>
      </trkpt>
      <trkpt lat="43.41703" lon="6.51564">
        <ele>204.80000305176</ele>
        <time>2020-05-30T08:41:40.000Z</time>
      </trkpt>
      <trkpt lat="43.41702" lon="6.51567">
        <ele>204</ele>
        <time>2020-05-30T08:41:41.000Z</time>
      </trkpt>
      <trkpt lat="43.417" lon="6.51571">
        <ele>203.19999694824</ele>
        <time>2020-05-30T08:41:42.000Z</time>
      </trkpt>
      <trkpt lat="43.41696" lon="6.51575">
        <ele>201.80000305176</ele>
        <time>2020-05-30T08:41:44.000Z</time>
      </trkpt>
      <trkpt lat="43.41693" lon="6.51576">
        <ele>201.19999694824</ele>
        <time>2020-05-30T08:41:45.000Z</time>
      </trkpt>
      <trkpt lat="43.41691" lon="6.51576">
        <ele>200.39999389648</ele>
        <time>2020-05-30T08:41:46.000Z</time>
      </trkpt>
      <trkpt lat="43.41688" lon="6.51575">
        <ele>199.60000610352</ele>
        <time>2020-05-30T08:41:47.000Z</time>
      </trkpt>
      <trkpt lat="43.41688" lon="6.51576">
        <ele>198.19999694824</ele>
        <time>2020-05-30T08:41:48.000Z</time>
      </trkpt>
      <trkpt lat="43.41688" lon="6.51578">
        <ele>197.19999694824</ele>
        <time>2020-05-30T08:41:49.000Z</time>
      </trkpt>
      <trkpt lat="43.41685" lon="6.51586">
        <ele>195.39999389648</ele>
        <time>2020-05-30T08:41:51.000Z</time>
      </trkpt>
      <trkpt lat="43.41684" lon="6.51591">
        <ele>194.19999694824</ele>
        <time>2020-05-30T08:41:52.000Z</time>
      </trkpt>
      <trkpt lat="43.41682" lon="6.51593">
        <ele>193.19999694824</ele>
        <time>2020-05-30T08:41:53.000Z</time>
      </trkpt>
      <trkpt lat="43.4168" lon="6.51596">
        <ele>191.80000305176</ele>
        <time>2020-05-30T08:41:54.000Z</time>
      </trkpt>
      <trkpt lat="43.41677" lon="6.51599">
        <ele>190.60000610352</ele>
        <time>2020-05-30T08:41:55.000Z</time>
      </trkpt>
      <trkpt lat="43.41674" lon="6.51602">
        <ele>189.39999389648</ele>
        <time>2020-05-30T08:41:56.000Z</time>
      </trkpt>
      <trkpt lat="43.41674" lon="6.51605">
        <ele>188.39999389648</ele>
        <time>2020-05-30T08:41:57.000Z</time>
      </trkpt>
      <trkpt lat="43.41674" lon="6.51607">
        <ele>187.19999694824</ele>
        <time>2020-05-30T08:41:58.000Z</time>
      </trkpt>
      <trkpt lat="43.41673" lon="6.5161">
        <ele>186.19999694824</ele>
        <time>2020-05-30T08:41:59.000Z</time>
      </trkpt>
      <trkpt lat="43.41671" lon="6.51615">
        <ele>184.60000610352</ele>
        <time>2020-05-30T08:42:01.000Z</time>
      </trkpt>
      <trkpt lat="43.41672" lon="6.51617">
        <ele>183.60000610352</ele>
        <time>2020-05-30T08:42:02.000Z</time>
      </trkpt>
      <trkpt lat="43.41673" lon="6.51618">
        <ele>182.80000305176</ele>
        <time>2020-05-30T08:42:03.000Z</time>
      </trkpt>
      <trkpt lat="43.41678" lon="6.51629">
        <ele>181.39999389648</ele>
        <time>2020-05-30T08:42:06.000Z</time>
      </trkpt>
      <trkpt lat="43.41677" lon="6.51647">
        <ele>180.19999694824</ele>
        <time>2020-05-30T08:42:09.000Z</time>
      </trkpt>
      <trkpt lat="43.4168" lon="6.51655">
        <ele>178.80000305176</ele>
        <time>2020-05-30T08:42:11.000Z</time>
      </trkpt>
      <trkpt lat="43.41679" lon="6.51661">
        <ele>178</ele>
        <time>2020-05-30T08:42:12.000Z</time>
      </trkpt>
      <trkpt lat="43.41676" lon="6.51664">
        <ele>177.19999694824</ele>
        <time>2020-05-30T08:42:13.000Z</time>
      </trkpt>
      <trkpt lat="43.41669" lon="6.5167">
        <ele>176</ele>
        <time>2020-05-30T08:42:15.000Z</time>
      </trkpt>
      <trkpt lat="43.41665" lon="6.51676">
        <ele>174.60000610352</ele>
        <time>2020-05-30T08:42:17.000Z</time>
      </trkpt>
      <trkpt lat="43.41666" lon="6.5168">
        <ele>173.60000610352</ele>
        <time>2020-05-30T08:42:18.000Z</time>
      </trkpt>
      <trkpt lat="43.41667" lon="6.51683">
        <ele>172.19999694824</ele>
        <time>2020-05-30T08:42:19.000Z</time>
      </trkpt>
      <trkpt lat="43.41665" lon="6.51686">
        <ele>171.19999694824</ele>
        <time>2020-05-30T08:42:20.000Z</time>
      </trkpt>
      <trkpt lat="43.41663" lon="6.51688">
        <ele>170.60000610352</ele>
        <time>2020-05-30T08:42:21.000Z</time>
      </trkpt>
      <trkpt lat="43.41656" lon="6.51688">
        <ele>169.80000305176</ele>
        <time>2020-05-30T08:42:23.000Z</time>
      </trkpt>
      <trkpt lat="43.41652" lon="6.51688">
        <ele>169.19999694824</ele>
        <time>2020-05-30T08:42:24.000Z</time>
      </trkpt>
      <trkpt lat="43.41651" lon="6.5169">
        <ele>168.80000305176</ele>
        <time>2020-05-30T08:42:25.000Z</time>
      </trkpt>
      <trkpt lat="43.4165" lon="6.51695">
        <ele>168</ele>
        <time>2020-05-30T08:42:26.000Z</time>
      </trkpt>
      <trkpt lat="43.4165" lon="6.51699">
        <ele>166</ele>
        <time>2020-05-30T08:42:28.000Z</time>
      </trkpt>
      <trkpt lat="43.41651" lon="6.51702">
        <ele>165.19999694824</ele>
        <time>2020-05-30T08:42:29.000Z</time>
      </trkpt>
      <trkpt lat="43.41652" lon="6.51707">
        <ele>164.39999389648</ele>
        <time>2020-05-30T08:42:30.000Z</time>
      </trkpt>
      <trkpt lat="43.41655" lon="6.51715">
        <ele>163.19999694824</ele>
        <time>2020-05-30T08:42:32.000Z</time>
      </trkpt>
      <trkpt lat="43.41655" lon="6.51716">
        <ele>162.19999694824</ele>
        <time>2020-05-30T08:42:35.000Z</time>
      </trkpt>
      <trkpt lat="43.41656" lon="6.51716">
        <ele>162.19999694824</ele>
        <time>2020-05-30T08:42:43.000Z</time>
      </trkpt>
      <trkpt lat="43.41656" lon="6.51716">
        <ele>162.19999694824</ele>
        <time>2020-05-30T08:42:50.000Z</time>
      </trkpt>
      <trkpt lat="43.41658" lon="6.51715">
        <ele>162.19999694824</ele>
        <time>2020-05-30T08:43:01.000Z</time>
      </trkpt>
      <trkpt lat="43.41659" lon="6.51716">
        <ele>162.39999389648</ele>
        <time>2020-05-30T08:43:15.000Z</time>
      </trkpt>
      <trkpt lat="43.41659" lon="6.51717">
        <ele>162.39999389648</ele>
        <time>2020-05-30T08:43:41.000Z</time>
      </trkpt>
      <trkpt lat="43.41659" lon="6.51717">
        <ele>162</ele>
        <time>2020-05-30T08:43:50.000Z</time>
      </trkpt>
      <trkpt lat="43.4166" lon="6.51716">
        <ele>161.80000305176</ele>
        <time>2020-05-30T08:44:00.000Z</time>
      </trkpt>
      <trkpt lat="43.4166" lon="6.51717">
        <ele>162.19999694824</ele>
        <time>2020-05-30T08:44:10.000Z</time>
      </trkpt>
      <trkpt lat="43.41659" lon="6.51717">
        <ele>162.19999694824</ele>
        <time>2020-05-30T08:44:27.000Z</time>
      </trkpt>
      <trkpt lat="43.41658" lon="6.51719">
        <ele>162.19999694824</ele>
        <time>2020-05-30T08:44:45.000Z</time>
      </trkpt>
      <trkpt lat="43.41658" lon="6.51719">
        <ele>162</ele>
        <time>2020-05-30T08:45:08.000Z</time>
      </trkpt>
      <trkpt lat="43.41658" lon="6.51718">
        <ele>162</ele>
        <time>2020-05-30T08:45:14.000Z</time>
      </trkpt>
      <trkpt lat="43.41658" lon="6.51718">
        <ele>162</ele>
        <time>2020-05-30T08:45:26.000Z</time>
      </trkpt>
      <trkpt lat="43.41658" lon="6.51719">
        <ele>161.80000305176</ele>
        <time>2020-05-30T08:45:40.000Z</time>
      </trkpt>
      <trkpt lat="43.41658" lon="6.51719">
        <ele>161.60000610352</ele>
        <time>2020-05-30T08:45:57.000Z</time>
      </trkpt>
      <trkpt lat="43.41656" lon="6.51721">
        <ele>161.60000610352</ele>
        <time>2020-05-30T08:46:06.000Z</time>
      </trkpt>
      <trkpt lat="43.41651" lon="6.51732">
        <ele>161.60000610352</ele>
        <time>2020-05-30T08:46:10.000Z</time>
      </trkpt>
      <trkpt lat="43.41645" lon="6.51741">
        <ele>161.39999389648</ele>
        <time>2020-05-30T08:46:12.000Z</time>
      </trkpt>
      <trkpt lat="43.4164" lon="6.5175">
        <ele>161.19999694824</ele>
        <time>2020-05-30T08:46:14.000Z</time>
      </trkpt>
      <trkpt lat="43.41639" lon="6.51756">
        <ele>160.39999389648</ele>
        <time>2020-05-30T08:46:15.000Z</time>
      </trkpt>
      <trkpt lat="43.41639" lon="6.51762">
        <ele>159.19999694824</ele>
        <time>2020-05-30T08:46:16.000Z</time>
      </trkpt>
      <trkpt lat="43.41639" lon="6.51768">
        <ele>157.80000305176</ele>
        <time>2020-05-30T08:46:17.000Z</time>
      </trkpt>
      <trkpt lat="43.41642" lon="6.51772">
        <ele>156.39999389648</ele>
        <time>2020-05-30T08:46:18.000Z</time>
      </trkpt>
      <trkpt lat="43.41644" lon="6.51775">
        <ele>154.80000305176</ele>
        <time>2020-05-30T08:46:19.000Z</time>
      </trkpt>
      <trkpt lat="43.41648" lon="6.5178">
        <ele>153.80000305176</ele>
        <time>2020-05-30T08:46:20.000Z</time>
      </trkpt>
      <trkpt lat="43.41649" lon="6.51785">
        <ele>153.19999694824</ele>
        <time>2020-05-30T08:46:21.000Z</time>
      </trkpt>
      <trkpt lat="43.41651" lon="6.51792">
        <ele>152.60000610352</ele>
        <time>2020-05-30T08:46:22.000Z</time>
      </trkpt>
      <trkpt lat="43.41651" lon="6.51807">
        <ele>152.19999694824</ele>
        <time>2020-05-30T08:46:25.000Z</time>
      </trkpt>
      <trkpt lat="43.41651" lon="6.5183">
        <ele>151.19999694824</ele>
        <time>2020-05-30T08:46:29.000Z</time>
      </trkpt>
      <trkpt lat="43.4165" lon="6.51844">
        <ele>150.19999694824</ele>
        <time>2020-05-30T08:46:31.000Z</time>
      </trkpt>
      <trkpt lat="43.41653" lon="6.51858">
        <ele>149.19999694824</ele>
        <time>2020-05-30T08:46:33.000Z</time>
      </trkpt>
      <trkpt lat="43.41651" lon="6.51867">
        <ele>147.39999389648</ele>
        <time>2020-05-30T08:46:35.000Z</time>
      </trkpt>
      <trkpt lat="43.41651" lon="6.51872">
        <ele>147</ele>
        <time>2020-05-30T08:46:36.000Z</time>
      </trkpt>
      <trkpt lat="43.41652" lon="6.51877">
        <ele>146.39999389648</ele>
        <time>2020-05-30T08:46:37.000Z</time>
      </trkpt>
      <trkpt lat="43.41649" lon="6.5189">
        <ele>145.19999694824</ele>
        <time>2020-05-30T08:46:39.000Z</time>
      </trkpt>
      <trkpt lat="43.41655" lon="6.51903">
        <ele>144</ele>
        <time>2020-05-30T08:46:42.000Z</time>
      </trkpt>
      <trkpt lat="43.41665" lon="6.51909">
        <ele>143.39999389648</ele>
        <time>2020-05-30T08:46:45.000Z</time>
      </trkpt>
      <trkpt lat="43.41668" lon="6.51909">
        <ele>143.39999389648</ele>
        <time>2020-05-30T08:46:46.000Z</time>
      </trkpt>
      <trkpt lat="43.41678" lon="6.51909">
        <ele>144</ele>
        <time>2020-05-30T08:46:49.000Z</time>
      </trkpt>
      <trkpt lat="43.41689" lon="6.51913">
        <ele>143.39999389648</ele>
        <time>2020-05-30T08:46:53.000Z</time>
      </trkpt>
      <trkpt lat="43.41693" lon="6.51916">
        <ele>142.80000305176</ele>
        <time>2020-05-30T08:46:54.000Z</time>
      </trkpt>
      <trkpt lat="43.41698" lon="6.51921">
        <ele>140.60000610352</ele>
        <time>2020-05-30T08:46:56.000Z</time>
      </trkpt>
      <trkpt lat="43.41705" lon="6.51926">
        <ele>139.39999389648</ele>
        <time>2020-05-30T08:46:59.000Z</time>
      </trkpt>
      <trkpt lat="43.41709" lon="6.51928">
        <ele>139.19999694824</ele>
        <time>2020-05-30T08:47:00.000Z</time>
      </trkpt>
      <trkpt lat="43.4172" lon="6.51938">
        <ele>139</ele>
        <time>2020-05-30T08:47:04.000Z</time>
      </trkpt>
      <trkpt lat="43.41724" lon="6.51941">
        <ele>139.19999694824</ele>
        <time>2020-05-30T08:47:05.000Z</time>
      </trkpt>
      <trkpt lat="43.41733" lon="6.51944">
        <ele>140</ele>
        <time>2020-05-30T08:47:08.000Z</time>
      </trkpt>
      <trkpt lat="43.41739" lon="6.51946">
        <ele>139.19999694824</ele>
        <time>2020-05-30T08:47:10.000Z</time>
      </trkpt>
      <trkpt lat="43.41742" lon="6.51944">
        <ele>138.19999694824</ele>
        <time>2020-05-30T08:47:11.000Z</time>
      </trkpt>
      <trkpt lat="43.41751" lon="6.51938">
        <ele>136.19999694824</ele>
        <time>2020-05-30T08:47:13.000Z</time>
      </trkpt>
      <trkpt lat="43.4176" lon="6.51936">
        <ele>135.19999694824</ele>
        <time>2020-05-30T08:47:15.000Z</time>
      </trkpt>
      <trkpt lat="43.41764" lon="6.51936">
        <ele>135</ele>
        <time>2020-05-30T08:47:16.000Z</time>
      </trkpt>
      <trkpt lat="43.41776" lon="6.51938">
        <ele>134</ele>
        <time>2020-05-30T08:47:19.000Z</time>
      </trkpt>
      <trkpt lat="43.41786" lon="6.51933">
        <ele>132.60000610352</ele>
        <time>2020-05-30T08:47:22.000Z</time>
      </trkpt>
      <trkpt lat="43.41806" lon="6.51931">
        <ele>132.19999694824</ele>
        <time>2020-05-30T08:47:26.000Z</time>
      </trkpt>
      <trkpt lat="43.41814" lon="6.51942">
        <ele>132.19999694824</ele>
        <time>2020-05-30T08:47:29.000Z</time>
      </trkpt>
      <trkpt lat="43.41816" lon="6.51963">
        <ele>131.80000305176</ele>
        <time>2020-05-30T08:47:33.000Z</time>
      </trkpt>
      <trkpt lat="43.41816" lon="6.51969">
        <ele>132</ele>
        <time>2020-05-30T08:47:34.000Z</time>
      </trkpt>
      <trkpt lat="43.41814" lon="6.51975">
        <ele>132</ele>
        <time>2020-05-30T08:47:35.000Z</time>
      </trkpt>
      <trkpt lat="43.41809" lon="6.51987">
        <ele>132.19999694824</ele>
        <time>2020-05-30T08:47:37.000Z</time>
      </trkpt>
      <trkpt lat="43.4181" lon="6.52004">
        <ele>131.80000305176</ele>
        <time>2020-05-30T08:47:40.000Z</time>
      </trkpt>
      <trkpt lat="43.41814" lon="6.52008">
        <ele>131.60000610352</ele>
        <time>2020-05-30T08:47:41.000Z</time>
      </trkpt>
      <trkpt lat="43.41819" lon="6.52012">
        <ele>131.39999389648</ele>
        <time>2020-05-30T08:47:42.000Z</time>
      </trkpt>
      <trkpt lat="43.41821" lon="6.52016">
        <ele>131</ele>
        <time>2020-05-30T08:47:43.000Z</time>
      </trkpt>
      <trkpt lat="43.41825" lon="6.52022">
        <ele>130.39999389648</ele>
        <time>2020-05-30T08:47:45.000Z</time>
      </trkpt>
      <trkpt lat="43.4183" lon="6.52028">
        <ele>129.19999694824</ele>
        <time>2020-05-30T08:47:47.000Z</time>
      </trkpt>
      <trkpt lat="43.41833" lon="6.52032">
        <ele>128.60000610352</ele>
        <time>2020-05-30T08:47:48.000Z</time>
      </trkpt>
      <trkpt lat="43.41835" lon="6.52035">
        <ele>127.40000152588</ele>
        <time>2020-05-30T08:47:49.000Z</time>
      </trkpt>
      <trkpt lat="43.41838" lon="6.52037">
        <ele>126.19999694824</ele>
        <time>2020-05-30T08:47:50.000Z</time>
      </trkpt>
      <trkpt lat="43.4184" lon="6.52038">
        <ele>125.19999694824</ele>
        <time>2020-05-30T08:47:51.000Z</time>
      </trkpt>
      <trkpt lat="43.41847" lon="6.52034">
        <ele>123.19999694824</ele>
        <time>2020-05-30T08:47:53.000Z</time>
      </trkpt>
      <trkpt lat="43.41851" lon="6.52035">
        <ele>122</ele>
        <time>2020-05-30T08:47:55.000Z</time>
      </trkpt>
      <trkpt lat="43.41852" lon="6.52038">
        <ele>121.80000305176</ele>
        <time>2020-05-30T08:47:56.000Z</time>
      </trkpt>
      <trkpt lat="43.4186" lon="6.52044">
        <ele>121</ele>
        <time>2020-05-30T08:47:59.000Z</time>
      </trkpt>
      <trkpt lat="43.41864" lon="6.52038">
        <ele>119.59999847412</ele>
        <time>2020-05-30T08:48:02.000Z</time>
      </trkpt>
      <trkpt lat="43.41865" lon="6.52034">
        <ele>117.80000305176</ele>
        <time>2020-05-30T08:48:04.000Z</time>
      </trkpt>
      <trkpt lat="43.41865" lon="6.52029">
        <ele>116.80000305176</ele>
        <time>2020-05-30T08:48:06.000Z</time>
      </trkpt>
      <trkpt lat="43.41867" lon="6.52026">
        <ele>116.80000305176</ele>
        <time>2020-05-30T08:48:07.000Z</time>
      </trkpt>
      <trkpt lat="43.4187" lon="6.5202">
        <ele>116.40000152588</ele>
        <time>2020-05-30T08:48:09.000Z</time>
      </trkpt>
      <trkpt lat="43.41874" lon="6.52014">
        <ele>115.59999847412</ele>
        <time>2020-05-30T08:48:11.000Z</time>
      </trkpt>
      <trkpt lat="43.41877" lon="6.52013">
        <ele>114.80000305176</ele>
        <time>2020-05-30T08:48:12.000Z</time>
      </trkpt>
      <trkpt lat="43.41881" lon="6.52018">
        <ele>113.40000152588</ele>
        <time>2020-05-30T08:48:14.000Z</time>
      </trkpt>
      <trkpt lat="43.41888" lon="6.5202">
        <ele>112.19999694824</ele>
        <time>2020-05-30T08:48:16.000Z</time>
      </trkpt>
      <trkpt lat="43.4189" lon="6.52025">
        <ele>112</ele>
        <time>2020-05-30T08:48:17.000Z</time>
      </trkpt>
      <trkpt lat="43.41897" lon="6.52038">
        <ele>111.19999694824</ele>
        <time>2020-05-30T08:48:20.000Z</time>
      </trkpt>
      <trkpt lat="43.41898" lon="6.52042">
        <ele>111</ele>
        <time>2020-05-30T08:48:21.000Z</time>
      </trkpt>
      <trkpt lat="43.419" lon="6.52044">
        <ele>110.59999847412</ele>
        <time>2020-05-30T08:48:22.000Z</time>
      </trkpt>
      <trkpt lat="43.41906" lon="6.52042">
        <ele>109.80000305176</ele>
        <time>2020-05-30T08:48:24.000Z</time>
      </trkpt>
      <trkpt lat="43.4191" lon="6.52044">
        <ele>108.40000152588</ele>
        <time>2020-05-30T08:48:26.000Z</time>
      </trkpt>
      <trkpt lat="43.4191" lon="6.52047">
        <ele>108</ele>
        <time>2020-05-30T08:48:27.000Z</time>
      </trkpt>
      <trkpt lat="43.41909" lon="6.52051">
        <ele>107.40000152588</ele>
        <time>2020-05-30T08:48:28.000Z</time>
      </trkpt>
      <trkpt lat="43.41908" lon="6.52056">
        <ele>107</ele>
        <time>2020-05-30T08:48:29.000Z</time>
      </trkpt>
      <trkpt lat="43.41906" lon="6.52063">
        <ele>106.80000305176</ele>
        <time>2020-05-30T08:48:31.000Z</time>
      </trkpt>
      <trkpt lat="43.41903" lon="6.52081">
        <ele>106.80000305176</ele>
        <time>2020-05-30T08:48:35.000Z</time>
      </trkpt>
      <trkpt lat="43.41904" lon="6.52083">
        <ele>106.59999847412</ele>
        <time>2020-05-30T08:48:36.000Z</time>
      </trkpt>
      <trkpt lat="43.41907" lon="6.52086">
        <ele>106.19999694824</ele>
        <time>2020-05-30T08:48:37.000Z</time>
      </trkpt>
      <trkpt lat="43.4191" lon="6.5209">
        <ele>105.59999847412</ele>
        <time>2020-05-30T08:48:38.000Z</time>
      </trkpt>
      <trkpt lat="43.41913" lon="6.52094">
        <ele>105</ele>
        <time>2020-05-30T08:48:39.000Z</time>
      </trkpt>
      <trkpt lat="43.41915" lon="6.52099">
        <ele>104.59999847412</ele>
        <time>2020-05-30T08:48:40.000Z</time>
      </trkpt>
      <trkpt lat="43.41921" lon="6.52104">
        <ele>104.59999847412</ele>
        <time>2020-05-30T08:48:42.000Z</time>
      </trkpt>
      <trkpt lat="43.41935" lon="6.52108">
        <ele>105.40000152588</ele>
        <time>2020-05-30T08:48:46.000Z</time>
      </trkpt>
      <trkpt lat="43.41947" lon="6.52105">
        <ele>105.80000305176</ele>
        <time>2020-05-30T08:48:50.000Z</time>
      </trkpt>
      <trkpt lat="43.41961" lon="6.52099">
        <ele>105.80000305176</ele>
        <time>2020-05-30T08:48:54.000Z</time>
      </trkpt>
      <trkpt lat="43.41972" lon="6.52092">
        <ele>105.80000305176</ele>
        <time>2020-05-30T08:48:58.000Z</time>
      </trkpt>
      <trkpt lat="43.41987" lon="6.52089">
        <ele>106</ele>
        <time>2020-05-30T08:49:02.000Z</time>
      </trkpt>
      <trkpt lat="43.42002" lon="6.52092">
        <ele>104.59999847412</ele>
        <time>2020-05-30T08:49:06.000Z</time>
      </trkpt>
      <trkpt lat="43.42005" lon="6.52092">
        <ele>104</ele>
        <time>2020-05-30T08:49:07.000Z</time>
      </trkpt>
      <trkpt lat="43.42012" lon="6.52091">
        <ele>103</ele>
        <time>2020-05-30T08:49:10.000Z</time>
      </trkpt>
      <trkpt lat="43.42013" lon="6.52091">
        <ele>103</ele>
        <time>2020-05-30T08:49:11.000Z</time>
      </trkpt>
      <trkpt lat="43.42018" lon="6.52091">
        <ele>102.40000152588</ele>
        <time>2020-05-30T08:49:15.000Z</time>
      </trkpt>
      <trkpt lat="43.42027" lon="6.52091">
        <ele>102.40000152588</ele>
        <time>2020-05-30T08:49:19.000Z</time>
      </trkpt>
      <trkpt lat="43.42039" lon="6.52102">
        <ele>102</ele>
        <time>2020-05-30T08:49:22.000Z</time>
      </trkpt>
      <trkpt lat="43.42043" lon="6.52105">
        <ele>101.40000152588</ele>
        <time>2020-05-30T08:49:23.000Z</time>
      </trkpt>
      <trkpt lat="43.42044" lon="6.52111">
        <ele>100</ele>
        <time>2020-05-30T08:49:25.000Z</time>
      </trkpt>
      <trkpt lat="43.42051" lon="6.52122">
        <ele>99</ele>
        <time>2020-05-30T08:49:27.000Z</time>
      </trkpt>
      <trkpt lat="43.42053" lon="6.52125">
        <ele>98.400001525879</ele>
        <time>2020-05-30T08:49:28.000Z</time>
      </trkpt>
      <trkpt lat="43.42057" lon="6.52133">
        <ele>97.599998474121</ele>
        <time>2020-05-30T08:49:30.000Z</time>
      </trkpt>
      <trkpt lat="43.42057" lon="6.52137">
        <ele>96.800003051758</ele>
        <time>2020-05-30T08:49:31.000Z</time>
      </trkpt>
      <trkpt lat="43.42057" lon="6.52141">
        <ele>95.599998474121</ele>
        <time>2020-05-30T08:49:32.000Z</time>
      </trkpt>
      <trkpt lat="43.42058" lon="6.52144">
        <ele>93.800003051758</ele>
        <time>2020-05-30T08:49:34.000Z</time>
      </trkpt>
      <trkpt lat="43.4206" lon="6.52146">
        <ele>92.800003051758</ele>
        <time>2020-05-30T08:49:35.000Z</time>
      </trkpt>
      <trkpt lat="43.42063" lon="6.52149">
        <ele>92</ele>
        <time>2020-05-30T08:49:36.000Z</time>
      </trkpt>
      <trkpt lat="43.42064" lon="6.52153">
        <ele>91.599998474121</ele>
        <time>2020-05-30T08:49:37.000Z</time>
      </trkpt>
      <trkpt lat="43.42068" lon="6.52161">
        <ele>90.400001525879</ele>
        <time>2020-05-30T08:49:39.000Z</time>
      </trkpt>
      <trkpt lat="43.42068" lon="6.52174">
        <ele>88.400001525879</ele>
        <time>2020-05-30T08:49:42.000Z</time>
      </trkpt>
      <trkpt lat="43.42067" lon="6.5218">
        <ele>87</ele>
        <time>2020-05-30T08:49:44.000Z</time>
      </trkpt>
      <trkpt lat="43.42069" lon="6.52183">
        <ele>86.199996948242</ele>
        <time>2020-05-30T08:49:45.000Z</time>
      </trkpt>
      <trkpt lat="43.42071" lon="6.52184">
        <ele>85.599998474121</ele>
        <time>2020-05-30T08:49:46.000Z</time>
      </trkpt>
      <trkpt lat="43.42077" lon="6.52189">
        <ele>84.599998474121</ele>
        <time>2020-05-30T08:49:48.000Z</time>
      </trkpt>
      <trkpt lat="43.42078" lon="6.52195">
        <ele>83.599998474121</ele>
        <time>2020-05-30T08:49:49.000Z</time>
      </trkpt>
      <trkpt lat="43.42079" lon="6.52201">
        <ele>82</ele>
        <time>2020-05-30T08:49:51.000Z</time>
      </trkpt>
      <trkpt lat="43.4208" lon="6.52203">
        <ele>81.400001525879</ele>
        <time>2020-05-30T08:49:52.000Z</time>
      </trkpt>
      <trkpt lat="43.42084" lon="6.52206">
        <ele>80.400001525879</ele>
        <time>2020-05-30T08:49:53.000Z</time>
      </trkpt>
      <trkpt lat="43.42092" lon="6.52212">
        <ele>78.800003051758</ele>
        <time>2020-05-30T08:49:55.000Z</time>
      </trkpt>
      <trkpt lat="43.42098" lon="6.52215">
        <ele>77</ele>
        <time>2020-05-30T08:49:57.000Z</time>
      </trkpt>
      <trkpt lat="43.42105" lon="6.52217">
        <ele>75.400001525879</ele>
        <time>2020-05-30T08:49:59.000Z</time>
      </trkpt>
      <trkpt lat="43.42108" lon="6.52221">
        <ele>74.400001525879</ele>
        <time>2020-05-30T08:50:00.000Z</time>
      </trkpt>
      <trkpt lat="43.42113" lon="6.5223">
        <ele>73.400001525879</ele>
        <time>2020-05-30T08:50:02.000Z</time>
      </trkpt>
      <trkpt lat="43.42119" lon="6.52235">
        <ele>71.599998474121</ele>
        <time>2020-05-30T08:50:04.000Z</time>
      </trkpt>
      <trkpt lat="43.42121" lon="6.52239">
        <ele>70</ele>
        <time>2020-05-30T08:50:06.000Z</time>
      </trkpt>
      <trkpt lat="43.42121" lon="6.5224">
        <ele>69.400001525879</ele>
        <time>2020-05-30T08:50:07.000Z</time>
      </trkpt>
      <trkpt lat="43.42122" lon="6.52241">
        <ele>68.199996948242</ele>
        <time>2020-05-30T08:50:08.000Z</time>
      </trkpt>
      <trkpt lat="43.42124" lon="6.5225">
        <ele>68.599998474121</ele>
        <time>2020-05-30T08:50:11.000Z</time>
      </trkpt>
      <trkpt lat="43.42131" lon="6.52278">
        <ele>67.800003051758</ele>
        <time>2020-05-30T08:50:17.000Z</time>
      </trkpt>
      <trkpt lat="43.42133" lon="6.5229">
        <ele>67.199996948242</ele>
        <time>2020-05-30T08:50:19.000Z</time>
      </trkpt>
      <trkpt lat="43.42135" lon="6.52298">
        <ele>66.800003051758</ele>
        <time>2020-05-30T08:50:22.000Z</time>
      </trkpt>
      <trkpt lat="43.42135" lon="6.52298">
        <ele>66</ele>
        <time>2020-05-30T08:50:25.000Z</time>
      </trkpt>
      <trkpt lat="43.42135" lon="6.52298">
        <ele>65.599998474121</ele>
        <time>2020-05-30T08:50:27.000Z</time>
      </trkpt>
      <trkpt lat="43.42137" lon="6.52302">
        <ele>65.800003051758</ele>
        <time>2020-05-30T08:50:34.000Z</time>
      </trkpt>
      <trkpt lat="43.42146" lon="6.52316">
        <ele>65.599998474121</ele>
        <time>2020-05-30T08:50:40.000Z</time>
      </trkpt>
      <trkpt lat="43.42159" lon="6.52332">
        <ele>65</ele>
        <time>2020-05-30T08:50:45.000Z</time>
      </trkpt>
      <trkpt lat="43.42165" lon="6.52337">
        <ele>64.800003051758</ele>
        <time>2020-05-30T08:50:47.000Z</time>
      </trkpt>
      <trkpt lat="43.42178" lon="6.52343">
        <ele>64.400001525879</ele>
        <time>2020-05-30T08:50:52.000Z</time>
      </trkpt>
      <trkpt lat="43.42183" lon="6.52342">
        <ele>63.799999237061</ele>
        <time>2020-05-30T08:50:54.000Z</time>
      </trkpt>
      <trkpt lat="43.4219" lon="6.52337">
        <ele>63.599998474121</ele>
        <time>2020-05-30T08:50:57.000Z</time>
      </trkpt>
      <trkpt lat="43.422" lon="6.52331">
        <ele>63</ele>
        <time>2020-05-30T08:51:02.000Z</time>
      </trkpt>
      <trkpt lat="43.42199" lon="6.52331">
        <ele>62.599998474121</ele>
        <time>2020-05-30T08:51:03.000Z</time>
      </trkpt>
      <trkpt lat="43.422" lon="6.52331">
        <ele>62</ele>
        <time>2020-05-30T08:51:06.000Z</time>
      </trkpt>
      <trkpt lat="43.422" lon="6.52331">
        <ele>62.200000762939</ele>
        <time>2020-05-30T08:51:16.000Z</time>
      </trkpt>
      <trkpt lat="43.42199" lon="6.52331">
        <ele>62</ele>
        <time>2020-05-30T08:51:27.000Z</time>
      </trkpt>
      <trkpt lat="43.42199" lon="6.52332">
        <ele>62</ele>
        <time>2020-05-30T08:51:34.000Z</time>
      </trkpt>
      <trkpt lat="43.42199" lon="6.52332">
        <ele>61.799999237061</ele>
        <time>2020-05-30T08:51:59.000Z</time>
      </trkpt>
      <trkpt lat="43.422" lon="6.52332">
        <ele>62.200000762939</ele>
        <time>2020-05-30T08:52:11.000Z</time>
      </trkpt>
      <trkpt lat="43.42201" lon="6.52332">
        <ele>62</ele>
        <time>2020-05-30T08:52:36.000Z</time>
      </trkpt>
      <trkpt lat="43.42201" lon="6.52332">
        <ele>62</ele>
        <time>2020-05-30T08:52:45.000Z</time>
      </trkpt>
      <trkpt lat="43.42201" lon="6.52332">
        <ele>61.599998474121</ele>
        <time>2020-05-30T08:52:49.000Z</time>
      </trkpt>
      <trkpt lat="43.42201" lon="6.52331">
        <ele>61.599998474121</ele>
        <time>2020-05-30T08:52:56.000Z</time>
      </trkpt>
      <trkpt lat="43.42201" lon="6.52332">
        <ele>62</ele>
        <time>2020-05-30T08:53:03.000Z</time>
      </trkpt>
      <trkpt lat="43.42201" lon="6.52332">
        <ele>62</ele>
        <time>2020-05-30T08:53:13.000Z</time>
      </trkpt>
      <trkpt lat="43.42202" lon="6.52331">
        <ele>61.599998474121</ele>
        <time>2020-05-30T08:53:24.000Z</time>
      </trkpt>
      <trkpt lat="43.42201" lon="6.52331">
        <ele>61.400001525879</ele>
        <time>2020-05-30T08:53:36.000Z</time>
      </trkpt>
      <trkpt lat="43.422" lon="6.52331">
        <ele>61.599998474121</ele>
        <time>2020-05-30T08:53:44.000Z</time>
      </trkpt>
      <trkpt lat="43.422" lon="6.5233">
        <ele>61.599998474121</ele>
        <time>2020-05-30T08:53:53.000Z</time>
      </trkpt>
      <trkpt lat="43.422" lon="6.5233">
        <ele>61.200000762939</ele>
        <time>2020-05-30T08:54:08.000Z</time>
      </trkpt>
      <trkpt lat="43.422" lon="6.5233">
        <ele>61.200000762939</ele>
        <time>2020-05-30T08:54:22.000Z</time>
      </trkpt>
      <trkpt lat="43.422" lon="6.52331">
        <ele>61.400001525879</ele>
        <time>2020-05-30T08:54:43.000Z</time>
      </trkpt>
      <trkpt lat="43.422" lon="6.5233">
        <ele>61.400001525879</ele>
        <time>2020-05-30T08:54:53.000Z</time>
      </trkpt>
      <trkpt lat="43.42199" lon="6.52329">
        <ele>61</ele>
        <time>2020-05-30T08:55:02.000Z</time>
      </trkpt>
      <trkpt lat="43.42201" lon="6.52328">
        <ele>60.799999237061</ele>
        <time>2020-05-30T08:55:05.000Z</time>
      </trkpt>
      <trkpt lat="43.42204" lon="6.52327">
        <ele>60.799999237061</ele>
        <time>2020-05-30T08:55:07.000Z</time>
      </trkpt>
      <trkpt lat="43.42208" lon="6.52327">
        <ele>60.799999237061</ele>
        <time>2020-05-30T08:55:09.000Z</time>
      </trkpt>
      <trkpt lat="43.42219" lon="6.5233">
        <ele>60.599998474121</ele>
        <time>2020-05-30T08:55:13.000Z</time>
      </trkpt>
      <trkpt lat="43.4222" lon="6.5233">
        <ele>60.599998474121</ele>
        <time>2020-05-30T08:55:14.000Z</time>
      </trkpt>
      <trkpt lat="43.42219" lon="6.5233">
        <ele>60.400001525879</ele>
        <time>2020-05-30T08:55:16.000Z</time>
      </trkpt>
      <trkpt lat="43.42226" lon="6.52332">
        <ele>60.200000762939</ele>
        <time>2020-05-30T08:55:20.000Z</time>
      </trkpt>
      <trkpt lat="43.42242" lon="6.5234">
        <ele>60.200000762939</ele>
        <time>2020-05-30T08:55:25.000Z</time>
      </trkpt>
      <trkpt lat="43.42253" lon="6.52347">
        <ele>60</ele>
        <time>2020-05-30T08:55:28.000Z</time>
      </trkpt>
      <trkpt lat="43.42266" lon="6.52353">
        <ele>59.599998474121</ele>
        <time>2020-05-30T08:55:31.000Z</time>
      </trkpt>
      <trkpt lat="43.4227" lon="6.52356">
        <ele>59.400001525879</ele>
        <time>2020-05-30T08:55:32.000Z</time>
      </trkpt>
      <trkpt lat="43.42275" lon="6.52357">
        <ele>59.200000762939</ele>
        <time>2020-05-30T08:55:33.000Z</time>
      </trkpt>
      <trkpt lat="43.42298" lon="6.52364">
        <ele>58.200000762939</ele>
        <time>2020-05-30T08:55:38.000Z</time>
      </trkpt>
      <trkpt lat="43.42317" lon="6.52374">
        <ele>57.799999237061</ele>
        <time>2020-05-30T08:55:42.000Z</time>
      </trkpt>
      <trkpt lat="43.42325" lon="6.52381">
        <ele>57.599998474121</ele>
        <time>2020-05-30T08:55:44.000Z</time>
      </trkpt>
      <trkpt lat="43.42341" lon="6.52394">
        <ele>57</ele>
        <time>2020-05-30T08:55:47.000Z</time>
      </trkpt>
      <trkpt lat="43.42346" lon="6.524">
        <ele>56.599998474121</ele>
        <time>2020-05-30T08:55:48.000Z</time>
      </trkpt>
      <trkpt lat="43.42352" lon="6.52405">
        <ele>56</ele>
        <time>2020-05-30T08:55:49.000Z</time>
      </trkpt>
      <trkpt lat="43.42357" lon="6.5241">
        <ele>55.200000762939</ele>
        <time>2020-05-30T08:55:50.000Z</time>
      </trkpt>
      <trkpt lat="43.42361" lon="6.52415">
        <ele>54.400001525879</ele>
        <time>2020-05-30T08:55:51.000Z</time>
      </trkpt>
      <trkpt lat="43.42365" lon="6.52421">
        <ele>54</ele>
        <time>2020-05-30T08:55:52.000Z</time>
      </trkpt>
      <trkpt lat="43.42372" lon="6.52435">
        <ele>53</ele>
        <time>2020-05-30T08:55:54.000Z</time>
      </trkpt>
      <trkpt lat="43.42377" lon="6.52455">
        <ele>53</ele>
        <time>2020-05-30T08:55:58.000Z</time>
      </trkpt>
      <trkpt lat="43.42377" lon="6.52465">
        <ele>53.400001525879</ele>
        <time>2020-05-30T08:56:00.000Z</time>
      </trkpt>
      <trkpt lat="43.42377" lon="6.52484">
        <ele>53.200000762939</ele>
        <time>2020-05-30T08:56:03.000Z</time>
      </trkpt>
      <trkpt lat="43.42376" lon="6.5249">
        <ele>52.799999237061</ele>
        <time>2020-05-30T08:56:04.000Z</time>
      </trkpt>
      <trkpt lat="43.42376" lon="6.52496">
        <ele>52.400001525879</ele>
        <time>2020-05-30T08:56:05.000Z</time>
      </trkpt>
      <trkpt lat="43.42379" lon="6.52518">
        <ele>51.799999237061</ele>
        <time>2020-05-30T08:56:09.000Z</time>
      </trkpt>
      <trkpt lat="43.42382" lon="6.52531">
        <ele>51.599998474121</ele>
        <time>2020-05-30T08:56:12.000Z</time>
      </trkpt>
      <trkpt lat="43.42388" lon="6.52542">
        <ele>51.400001525879</ele>
        <time>2020-05-30T08:56:15.000Z</time>
      </trkpt>
      <trkpt lat="43.42403" lon="6.52554">
        <ele>51.400001525879</ele>
        <time>2020-05-30T08:56:21.000Z</time>
      </trkpt>
      <trkpt lat="43.42414" lon="6.52561">
        <ele>50.799999237061</ele>
        <time>2020-05-30T08:56:26.000Z</time>
      </trkpt>
      <trkpt lat="43.42416" lon="6.52566">
        <ele>50.599998474121</ele>
        <time>2020-05-30T08:56:29.000Z</time>
      </trkpt>
      <trkpt lat="43.42416" lon="6.52569">
        <ele>50.400001525879</ele>
        <time>2020-05-30T08:56:30.000Z</time>
      </trkpt>
      <trkpt lat="43.42415" lon="6.52572">
        <ele>50.400001525879</ele>
        <time>2020-05-30T08:56:31.000Z</time>
      </trkpt>
      <trkpt lat="43.4241" lon="6.52573">
        <ele>49.799999237061</ele>
        <time>2020-05-30T08:56:34.000Z</time>
      </trkpt>
      <trkpt lat="43.42405" lon="6.52572">
        <ele>49.400001525879</ele>
        <time>2020-05-30T08:56:37.000Z</time>
      </trkpt>
      <trkpt lat="43.42404" lon="6.52572">
        <ele>49.400001525879</ele>
        <time>2020-05-30T08:56:38.000Z</time>
      </trkpt>
      <trkpt lat="43.42398" lon="6.52572">
        <ele>49.200000762939</ele>
        <time>2020-05-30T08:56:41.000Z</time>
      </trkpt>
      <trkpt lat="43.42381" lon="6.52569">
        <ele>49.200000762939</ele>
        <time>2020-05-30T08:56:47.000Z</time>
      </trkpt>
      <trkpt lat="43.42368" lon="6.52565">
        <ele>49.200000762939</ele>
        <time>2020-05-30T08:56:52.000Z</time>
      </trkpt>
      <trkpt lat="43.4236" lon="6.52561">
        <ele>48.799999237061</ele>
        <time>2020-05-30T08:56:58.000Z</time>
      </trkpt>
      <trkpt lat="43.42353" lon="6.52557">
        <ele>48.400001525879</ele>
        <time>2020-05-30T08:57:01.000Z</time>
      </trkpt>
      <trkpt lat="43.42343" lon="6.5255">
        <ele>49</ele>
        <time>2020-05-30T08:57:05.000Z</time>
      </trkpt>
      <trkpt lat="43.42338" lon="6.52547">
        <ele>49.599998474121</ele>
        <time>2020-05-30T08:57:07.000Z</time>
      </trkpt>
      <trkpt lat="43.42332" lon="6.52544">
        <ele>50</ele>
        <time>2020-05-30T08:57:09.000Z</time>
      </trkpt>
      <trkpt lat="43.42323" lon="6.52538">
        <ele>50.400001525879</ele>
        <time>2020-05-30T08:57:14.000Z</time>
      </trkpt>
      <trkpt lat="43.42321" lon="6.52536">
        <ele>50.799999237061</ele>
        <time>2020-05-30T08:57:15.000Z</time>
      </trkpt>
      <trkpt lat="43.4231" lon="6.52527">
        <ele>51</ele>
        <time>2020-05-30T08:57:21.000Z</time>
      </trkpt>
      <trkpt lat="43.42295" lon="6.5251">
        <ele>51.400001525879</ele>
        <time>2020-05-30T08:57:29.000Z</time>
      </trkpt>
      <trkpt lat="43.42282" lon="6.52496">
        <ele>51.799999237061</ele>
        <time>2020-05-30T08:57:35.000Z</time>
      </trkpt>
      <trkpt lat="43.42278" lon="6.52491">
        <ele>52</ele>
        <time>2020-05-30T08:57:37.000Z</time>
      </trkpt>
      <trkpt lat="43.42259" lon="6.52478">
        <ele>51.799999237061</ele>
        <time>2020-05-30T08:57:44.000Z</time>
      </trkpt>
      <trkpt lat="43.42238" lon="6.52468">
        <ele>52</ele>
        <time>2020-05-30T08:57:52.000Z</time>
      </trkpt>
      <trkpt lat="43.4222" lon="6.52457">
        <ele>51.400001525879</ele>
        <time>2020-05-30T08:57:58.000Z</time>
      </trkpt>
      <trkpt lat="43.42204" lon="6.52455">
        <ele>52.599998474121</ele>
        <time>2020-05-30T08:58:03.000Z</time>
      </trkpt>
      <trkpt lat="43.42201" lon="6.52456">
        <ele>52.799999237061</ele>
        <time>2020-05-30T08:58:04.000Z</time>
      </trkpt>
      <trkpt lat="43.42193" lon="6.52458">
        <ele>54.200000762939</ele>
        <time>2020-05-30T08:58:07.000Z</time>
      </trkpt>
      <trkpt lat="43.42188" lon="6.52461">
        <ele>55.200000762939</ele>
        <time>2020-05-30T08:58:09.000Z</time>
      </trkpt>
      <trkpt lat="43.42186" lon="6.52462">
        <ele>55.400001525879</ele>
        <time>2020-05-30T08:58:10.000Z</time>
      </trkpt>
      <trkpt lat="43.42176" lon="6.52468">
        <ele>56.200000762939</ele>
        <time>2020-05-30T08:58:14.000Z</time>
      </trkpt>
      <trkpt lat="43.4217" lon="6.52471">
        <ele>56.599998474121</ele>
        <time>2020-05-30T08:58:17.000Z</time>
      </trkpt>
      <trkpt lat="43.42163" lon="6.52474">
        <ele>57.200000762939</ele>
        <time>2020-05-30T08:58:20.000Z</time>
      </trkpt>
      <trkpt lat="43.42146" lon="6.52482">
        <ele>57.599998474121</ele>
        <time>2020-05-30T08:58:27.000Z</time>
      </trkpt>
      <trkpt lat="43.42144" lon="6.52483">
        <ele>57.799999237061</ele>
        <time>2020-05-30T08:58:28.000Z</time>
      </trkpt>
      <trkpt lat="43.42133" lon="6.52486">
        <ele>58.400001525879</ele>
        <time>2020-05-30T08:58:33.000Z</time>
      </trkpt>
      <trkpt lat="43.42124" lon="6.52489">
        <ele>58.799999237061</ele>
        <time>2020-05-30T08:58:36.000Z</time>
      </trkpt>
      <trkpt lat="43.42116" lon="6.52493">
        <ele>59.400001525879</ele>
        <time>2020-05-30T08:58:39.000Z</time>
      </trkpt>
      <trkpt lat="43.42104" lon="6.52497">
        <ele>60</ele>
        <time>2020-05-30T08:58:43.000Z</time>
      </trkpt>
      <trkpt lat="43.42098" lon="6.52499">
        <ele>60.599998474121</ele>
        <time>2020-05-30T08:58:45.000Z</time>
      </trkpt>
      <trkpt lat="43.4209" lon="6.52501">
        <ele>61</ele>
        <time>2020-05-30T08:58:47.000Z</time>
      </trkpt>
      <trkpt lat="43.42074" lon="6.52505">
        <ele>62</ele>
        <time>2020-05-30T08:58:52.000Z</time>
      </trkpt>
      <trkpt lat="43.42071" lon="6.52506">
        <ele>62.200000762939</ele>
        <time>2020-05-30T08:58:53.000Z</time>
      </trkpt>
      <trkpt lat="43.42048" lon="6.52511">
        <ele>63</ele>
        <time>2020-05-30T08:59:00.000Z</time>
      </trkpt>
      <trkpt lat="43.42045" lon="6.52512">
        <ele>63.200000762939</ele>
        <time>2020-05-30T08:59:01.000Z</time>
      </trkpt>
      <trkpt lat="43.42028" lon="6.52518">
        <ele>64</ele>
        <time>2020-05-30T08:59:07.000Z</time>
      </trkpt>
      <trkpt lat="43.42007" lon="6.52528">
        <ele>64.199996948242</ele>
        <time>2020-05-30T08:59:15.000Z</time>
      </trkpt>
      <trkpt lat="43.41995" lon="6.52539">
        <ele>64.199996948242</ele>
        <time>2020-05-30T08:59:21.000Z</time>
      </trkpt>
      <trkpt lat="43.41985" lon="6.52548">
        <ele>65.199996948242</ele>
        <time>2020-05-30T08:59:26.000Z</time>
      </trkpt>
      <trkpt lat="43.41973" lon="6.52559">
        <ele>66.400001525879</ele>
        <time>2020-05-30T08:59:32.000Z</time>
      </trkpt>
      <trkpt lat="43.41971" lon="6.52561">
        <ele>66.400001525879</ele>
        <time>2020-05-30T08:59:33.000Z</time>
      </trkpt>
      <trkpt lat="43.41958" lon="6.52573">
        <ele>67.400001525879</ele>
        <time>2020-05-30T08:59:39.000Z</time>
      </trkpt>
      <trkpt lat="43.41952" lon="6.52579">
        <ele>68.199996948242</ele>
        <time>2020-05-30T08:59:42.000Z</time>
      </trkpt>
      <trkpt lat="43.41947" lon="6.52583">
        <ele>68.599998474121</ele>
        <time>2020-05-30T08:59:44.000Z</time>
      </trkpt>
      <trkpt lat="43.41938" lon="6.5259">
        <ele>68.800003051758</ele>
        <time>2020-05-30T08:59:48.000Z</time>
      </trkpt>
      <trkpt lat="43.41926" lon="6.52598">
        <ele>69.800003051758</ele>
        <time>2020-05-30T08:59:53.000Z</time>
      </trkpt>
      <trkpt lat="43.4192" lon="6.52605">
        <ele>70.800003051758</ele>
        <time>2020-05-30T08:59:56.000Z</time>
      </trkpt>
      <trkpt lat="43.41912" lon="6.52616">
        <ele>72</ele>
        <time>2020-05-30T09:00:00.000Z</time>
      </trkpt>
      <trkpt lat="43.41905" lon="6.52622">
        <ele>73.199996948242</ele>
        <time>2020-05-30T09:00:04.000Z</time>
      </trkpt>
      <trkpt lat="43.41894" lon="6.52616">
        <ele>73.800003051758</ele>
        <time>2020-05-30T09:00:09.000Z</time>
      </trkpt>
      <trkpt lat="43.41888" lon="6.52612">
        <ele>74.400001525879</ele>
        <time>2020-05-30T09:00:12.000Z</time>
      </trkpt>
      <trkpt lat="43.41882" lon="6.5261">
        <ele>75.199996948242</ele>
        <time>2020-05-30T09:00:15.000Z</time>
      </trkpt>
      <trkpt lat="43.41878" lon="6.52609">
        <ele>75.599998474121</ele>
        <time>2020-05-30T09:00:17.000Z</time>
      </trkpt>
      <trkpt lat="43.41873" lon="6.52609">
        <ele>76.199996948242</ele>
        <time>2020-05-30T09:00:20.000Z</time>
      </trkpt>
      <trkpt lat="43.41872" lon="6.5261">
        <ele>76.400001525879</ele>
        <time>2020-05-30T09:00:22.000Z</time>
      </trkpt>
      <trkpt lat="43.41868" lon="6.5261">
        <ele>76.800003051758</ele>
        <time>2020-05-30T09:00:25.000Z</time>
      </trkpt>
      <trkpt lat="43.41867" lon="6.5261">
        <ele>77.199996948242</ele>
        <time>2020-05-30T09:00:30.000Z</time>
      </trkpt>
      <trkpt lat="43.4186" lon="6.52611">
        <ele>77.400001525879</ele>
        <time>2020-05-30T09:00:37.000Z</time>
      </trkpt>
      <trkpt lat="43.4185" lon="6.52612">
        <ele>78</ele>
        <time>2020-05-30T09:00:41.000Z</time>
      </trkpt>
      <trkpt lat="43.41847" lon="6.52613">
        <ele>78.199996948242</ele>
        <time>2020-05-30T09:00:42.000Z</time>
      </trkpt>
      <trkpt lat="43.4183" lon="6.52615">
        <ele>79</ele>
        <time>2020-05-30T09:00:48.000Z</time>
      </trkpt>
      <trkpt lat="43.41827" lon="6.52615">
        <ele>79.199996948242</ele>
        <time>2020-05-30T09:00:49.000Z</time>
      </trkpt>
      <trkpt lat="43.4182" lon="6.5261">
        <ele>80.199996948242</ele>
        <time>2020-05-30T09:00:52.000Z</time>
      </trkpt>
      <trkpt lat="43.41814" lon="6.52605">
        <ele>81.400001525879</ele>
        <time>2020-05-30T09:00:55.000Z</time>
      </trkpt>
      <trkpt lat="43.41808" lon="6.526">
        <ele>82.400001525879</ele>
        <time>2020-05-30T09:00:58.000Z</time>
      </trkpt>
      <trkpt lat="43.418" lon="6.52598">
        <ele>83.599998474121</ele>
        <time>2020-05-30T09:01:01.000Z</time>
      </trkpt>
      <trkpt lat="43.41791" lon="6.52597">
        <ele>85.199996948242</ele>
        <time>2020-05-30T09:01:05.000Z</time>
      </trkpt>
      <trkpt lat="43.41787" lon="6.52599">
        <ele>86.199996948242</ele>
        <time>2020-05-30T09:01:07.000Z</time>
      </trkpt>
      <trkpt lat="43.41777" lon="6.52599">
        <ele>87.400001525879</ele>
        <time>2020-05-30T09:01:11.000Z</time>
      </trkpt>
      <trkpt lat="43.41773" lon="6.52598">
        <ele>88</ele>
        <time>2020-05-30T09:01:13.000Z</time>
      </trkpt>
      <trkpt lat="43.41771" lon="6.52597">
        <ele>88.400001525879</ele>
        <time>2020-05-30T09:01:14.000Z</time>
      </trkpt>
      <trkpt lat="43.41764" lon="6.52594">
        <ele>89.400001525879</ele>
        <time>2020-05-30T09:01:17.000Z</time>
      </trkpt>
      <trkpt lat="43.4176" lon="6.52592">
        <ele>90</ele>
        <time>2020-05-30T09:01:19.000Z</time>
      </trkpt>
      <trkpt lat="43.41754" lon="6.52589">
        <ele>90.599998474121</ele>
        <time>2020-05-30T09:01:22.000Z</time>
      </trkpt>
      <trkpt lat="43.41747" lon="6.52584">
        <ele>91.599998474121</ele>
        <time>2020-05-30T09:01:26.000Z</time>
      </trkpt>
      <trkpt lat="43.41735" lon="6.52575">
        <ele>92.599998474121</ele>
        <time>2020-05-30T09:01:32.000Z</time>
      </trkpt>
      <trkpt lat="43.41718" lon="6.52568">
        <ele>93.599998474121</ele>
        <time>2020-05-30T09:01:40.000Z</time>
      </trkpt>
      <trkpt lat="43.41715" lon="6.52567">
        <ele>93.800003051758</ele>
        <time>2020-05-30T09:01:41.000Z</time>
      </trkpt>
      <trkpt lat="43.41703" lon="6.52569">
        <ele>94.800003051758</ele>
        <time>2020-05-30T09:01:47.000Z</time>
      </trkpt>
      <trkpt lat="43.41701" lon="6.52569">
        <ele>95</ele>
        <time>2020-05-30T09:01:48.000Z</time>
      </trkpt>
      <trkpt lat="43.41692" lon="6.52575">
        <ele>96</ele>
        <time>2020-05-30T09:01:53.000Z</time>
      </trkpt>
      <trkpt lat="43.4169" lon="6.52577">
        <ele>96</ele>
        <time>2020-05-30T09:01:54.000Z</time>
      </trkpt>
      <trkpt lat="43.41676" lon="6.52589">
        <ele>96.400001525879</ele>
        <time>2020-05-30T09:02:01.000Z</time>
      </trkpt>
      <trkpt lat="43.41667" lon="6.52603">
        <ele>96.800003051758</ele>
        <time>2020-05-30T09:02:07.000Z</time>
      </trkpt>
      <trkpt lat="43.41651" lon="6.52619">
        <ele>96.800003051758</ele>
        <time>2020-05-30T09:02:15.000Z</time>
      </trkpt>
      <trkpt lat="43.41638" lon="6.52634">
        <ele>96.599998474121</ele>
        <time>2020-05-30T09:02:22.000Z</time>
      </trkpt>
      <trkpt lat="43.41633" lon="6.5265">
        <ele>96.800003051758</ele>
        <time>2020-05-30T09:02:27.000Z</time>
      </trkpt>
      <trkpt lat="43.4163" lon="6.52655">
        <ele>97</ele>
        <time>2020-05-30T09:02:29.000Z</time>
      </trkpt>
      <trkpt lat="43.41626" lon="6.52658">
        <ele>97.199996948242</ele>
        <time>2020-05-30T09:02:31.000Z</time>
      </trkpt>
      <trkpt lat="43.41614" lon="6.52658">
        <ele>97.400001525879</ele>
        <time>2020-05-30T09:02:35.000Z</time>
      </trkpt>
      <trkpt lat="43.41606" lon="6.52656">
        <ele>97.199996948242</ele>
        <time>2020-05-30T09:02:39.000Z</time>
      </trkpt>
      <trkpt lat="43.41604" lon="6.52656">
        <ele>96.800003051758</ele>
        <time>2020-05-30T09:02:40.000Z</time>
      </trkpt>
      <trkpt lat="43.41592" lon="6.52654">
        <ele>96</ele>
        <time>2020-05-30T09:02:44.000Z</time>
      </trkpt>
      <trkpt lat="43.41586" lon="6.52652">
        <ele>95.599998474121</ele>
        <time>2020-05-30T09:02:46.000Z</time>
      </trkpt>
      <trkpt lat="43.41573" lon="6.52646">
        <ele>94.800003051758</ele>
        <time>2020-05-30T09:02:50.000Z</time>
      </trkpt>
      <trkpt lat="43.41563" lon="6.52639">
        <ele>94.199996948242</ele>
        <time>2020-05-30T09:02:53.000Z</time>
      </trkpt>
      <trkpt lat="43.41557" lon="6.52635">
        <ele>93.599998474121</ele>
        <time>2020-05-30T09:02:55.000Z</time>
      </trkpt>
      <trkpt lat="43.41547" lon="6.52627">
        <ele>93</ele>
        <time>2020-05-30T09:02:59.000Z</time>
      </trkpt>
      <trkpt lat="43.41533" lon="6.52622">
        <ele>92.599998474121</ele>
        <time>2020-05-30T09:03:03.000Z</time>
      </trkpt>
      <trkpt lat="43.41529" lon="6.52621">
        <ele>92.400001525879</ele>
        <time>2020-05-30T09:03:04.000Z</time>
      </trkpt>
      <trkpt lat="43.41515" lon="6.52623">
        <ele>91.400001525879</ele>
        <time>2020-05-30T09:03:08.000Z</time>
      </trkpt>
      <trkpt lat="43.41512" lon="6.52624">
        <ele>91.199996948242</ele>
        <time>2020-05-30T09:03:09.000Z</time>
      </trkpt>
      <trkpt lat="43.41502" lon="6.52626">
        <ele>90.400001525879</ele>
        <time>2020-05-30T09:03:12.000Z</time>
      </trkpt>
      <trkpt lat="43.41487" lon="6.52632">
        <ele>90.199996948242</ele>
        <time>2020-05-30T09:03:17.000Z</time>
      </trkpt>
      <trkpt lat="43.41469" lon="6.52648">
        <ele>89.400001525879</ele>
        <time>2020-05-30T09:03:23.000Z</time>
      </trkpt>
      <trkpt lat="43.41448" lon="6.52662">
        <ele>88.599998474121</ele>
        <time>2020-05-30T09:03:29.000Z</time>
      </trkpt>
      <trkpt lat="43.41442" lon="6.52664">
        <ele>88</ele>
        <time>2020-05-30T09:03:31.000Z</time>
      </trkpt>
      <trkpt lat="43.41432" lon="6.52662">
        <ele>87.800003051758</ele>
        <time>2020-05-30T09:03:34.000Z</time>
      </trkpt>
      <trkpt lat="43.41404" lon="6.5265">
        <ele>88.400001525879</ele>
        <time>2020-05-30T09:03:42.000Z</time>
      </trkpt>
      <trkpt lat="43.41382" lon="6.52642">
        <ele>88.800003051758</ele>
        <time>2020-05-30T09:03:48.000Z</time>
      </trkpt>
      <trkpt lat="43.41369" lon="6.52637">
        <ele>89.199996948242</ele>
        <time>2020-05-30T09:03:52.000Z</time>
      </trkpt>
      <trkpt lat="43.41359" lon="6.52632">
        <ele>89.400001525879</ele>
        <time>2020-05-30T09:03:56.000Z</time>
      </trkpt>
      <trkpt lat="43.41358" lon="6.52632">
        <ele>89.800003051758</ele>
        <time>2020-05-30T09:04:00.000Z</time>
      </trkpt>
      <trkpt lat="43.41358" lon="6.52632">
        <ele>90.199996948242</ele>
        <time>2020-05-30T09:04:03.000Z</time>
      </trkpt>
      <trkpt lat="43.41358" lon="6.52632">
        <ele>90.199996948242</ele>
        <time>2020-05-30T09:04:12.000Z</time>
      </trkpt>
      <trkpt lat="43.41357" lon="6.52632">
        <ele>90.199996948242</ele>
        <time>2020-05-30T09:04:27.000Z</time>
      </trkpt>
      <trkpt lat="43.41357" lon="6.52632">
        <ele>90.199996948242</ele>
        <time>2020-05-30T09:04:34.000Z</time>
      </trkpt>
      <trkpt lat="43.41357" lon="6.52632">
        <ele>90.400001525879</ele>
        <time>2020-05-30T09:04:43.000Z</time>
      </trkpt>
      <trkpt lat="43.41357" lon="6.52632">
        <ele>90.400001525879</ele>
        <time>2020-05-30T09:04:52.000Z</time>
      </trkpt>
      <trkpt lat="43.41357" lon="6.52632">
        <ele>90.199996948242</ele>
        <time>2020-05-30T09:05:14.000Z</time>
      </trkpt>
      <trkpt lat="43.41358" lon="6.52632">
        <ele>89.800003051758</ele>
        <time>2020-05-30T09:05:20.000Z</time>
      </trkpt>
      <trkpt lat="43.41358" lon="6.52633">
        <ele>89.599998474121</ele>
        <time>2020-05-30T09:05:33.000Z</time>
      </trkpt>
      <trkpt lat="43.41358" lon="6.52633">
        <ele>90.199996948242</ele>
        <time>2020-05-30T09:05:41.000Z</time>
      </trkpt>
      <trkpt lat="43.41358" lon="6.52633">
        <ele>90.199996948242</ele>
        <time>2020-05-30T09:05:48.000Z</time>
      </trkpt>
      <trkpt lat="43.41358" lon="6.52633">
        <ele>90.400001525879</ele>
        <time>2020-05-30T09:05:53.000Z</time>
      </trkpt>
      <trkpt lat="43.41358" lon="6.52633">
        <ele>90.400001525879</ele>
        <time>2020-05-30T09:06:09.000Z</time>
      </trkpt>
      <trkpt lat="43.41358" lon="6.52633">
        <ele>89.800003051758</ele>
        <time>2020-05-30T09:06:19.000Z</time>
      </trkpt>
      <trkpt lat="43.41359" lon="6.52633">
        <ele>90.199996948242</ele>
        <time>2020-05-30T09:06:31.000Z</time>
      </trkpt>
      <trkpt lat="43.41359" lon="6.52633">
        <ele>90.199996948242</ele>
        <time>2020-05-30T09:06:46.000Z</time>
      </trkpt>
      <trkpt lat="43.41359" lon="6.52633">
        <ele>90.199996948242</ele>
        <time>2020-05-30T09:07:01.000Z</time>
      </trkpt>
      <trkpt lat="43.41359" lon="6.52633">
        <ele>90</ele>
        <time>2020-05-30T09:07:12.000Z</time>
      </trkpt>
      <trkpt lat="43.41359" lon="6.52633">
        <ele>90</ele>
        <time>2020-05-30T09:07:20.000Z</time>
      </trkpt>
      <trkpt lat="43.41359" lon="6.52633">
        <ele>90</ele>
        <time>2020-05-30T09:07:26.000Z</time>
      </trkpt>
      <trkpt lat="43.41359" lon="6.52633">
        <ele>89.800003051758</ele>
        <time>2020-05-30T09:07:38.000Z</time>
      </trkpt>
      <trkpt lat="43.41359" lon="6.52633">
        <ele>89.599998474121</ele>
        <time>2020-05-30T09:08:03.000Z</time>
      </trkpt>
      <trkpt lat="43.4136" lon="6.52634">
        <ele>89.400001525879</ele>
        <time>2020-05-30T09:08:21.000Z</time>
      </trkpt>
      <trkpt lat="43.4136" lon="6.52634">
        <ele>89.400001525879</ele>
        <time>2020-05-30T09:08:36.000Z</time>
      </trkpt>
      <trkpt lat="43.4136" lon="6.52634">
        <ele>89.800003051758</ele>
        <time>2020-05-30T09:08:51.000Z</time>
      </trkpt>
      <trkpt lat="43.41359" lon="6.52635">
        <ele>89</ele>
        <time>2020-05-30T09:08:57.000Z</time>
      </trkpt>
      <trkpt lat="43.41359" lon="6.52635">
        <ele>89</ele>
        <time>2020-05-30T09:08:58.000Z</time>
      </trkpt>
      <trkpt lat="43.41358" lon="6.52637">
        <ele>89.199996948242</ele>
        <time>2020-05-30T09:09:09.000Z</time>
      </trkpt>
      <trkpt lat="43.41357" lon="6.52635">
        <ele>89.199996948242</ele>
        <time>2020-05-30T09:09:13.000Z</time>
      </trkpt>
      <trkpt lat="43.41356" lon="6.52635">
        <ele>89.400001525879</ele>
        <time>2020-05-30T09:09:18.000Z</time>
      </trkpt>
      <trkpt lat="43.41351" lon="6.5263">
        <ele>89.400001525879</ele>
        <time>2020-05-30T09:09:24.000Z</time>
      </trkpt>
      <trkpt lat="43.41349" lon="6.5263">
        <ele>89.400001525879</ele>
        <time>2020-05-30T09:09:25.000Z</time>
      </trkpt>
      <trkpt lat="43.4134" lon="6.52628">
        <ele>89.599998474121</ele>
        <time>2020-05-30T09:09:30.000Z</time>
      </trkpt>
      <trkpt lat="43.41329" lon="6.52625">
        <ele>89.599998474121</ele>
        <time>2020-05-30T09:09:35.000Z</time>
      </trkpt>
      <trkpt lat="43.41306" lon="6.52625">
        <ele>89.800003051758</ele>
        <time>2020-05-30T09:09:43.000Z</time>
      </trkpt>
      <trkpt lat="43.41289" lon="6.52636">
        <ele>89.599998474121</ele>
        <time>2020-05-30T09:09:49.000Z</time>
      </trkpt>
      <trkpt lat="43.41275" lon="6.52634">
        <ele>89.400001525879</ele>
        <time>2020-05-30T09:09:53.000Z</time>
      </trkpt>
      <trkpt lat="43.41253" lon="6.52634">
        <ele>90</ele>
        <time>2020-05-30T09:10:00.000Z</time>
      </trkpt>
      <trkpt lat="43.41247" lon="6.52633">
        <ele>90.199996948242</ele>
        <time>2020-05-30T09:10:02.000Z</time>
      </trkpt>
      <trkpt lat="43.4122" lon="6.52631">
        <ele>91</ele>
        <time>2020-05-30T09:10:11.000Z</time>
      </trkpt>
      <trkpt lat="43.41198" lon="6.52633">
        <ele>92</ele>
        <time>2020-05-30T09:10:19.000Z</time>
      </trkpt>
      <trkpt lat="43.41192" lon="6.52634">
        <ele>92</ele>
        <time>2020-05-30T09:10:21.000Z</time>
      </trkpt>
      <trkpt lat="43.41169" lon="6.52637">
        <ele>92</ele>
        <time>2020-05-30T09:10:27.000Z</time>
      </trkpt>
      <trkpt lat="43.41153" lon="6.52641">
        <ele>91</ele>
        <time>2020-05-30T09:10:32.000Z</time>
      </trkpt>
      <trkpt lat="43.41137" lon="6.52652">
        <ele>91.800003051758</ele>
        <time>2020-05-30T09:10:38.000Z</time>
      </trkpt>
      <trkpt lat="43.41133" lon="6.52653">
        <ele>92.199996948242</ele>
        <time>2020-05-30T09:10:39.000Z</time>
      </trkpt>
      <trkpt lat="43.41128" lon="6.52655">
        <ele>93.400001525879</ele>
        <time>2020-05-30T09:10:41.000Z</time>
      </trkpt>
      <trkpt lat="43.41119" lon="6.52658">
        <ele>94.400001525879</ele>
        <time>2020-05-30T09:10:44.000Z</time>
      </trkpt>
      <trkpt lat="43.41113" lon="6.52662">
        <ele>95.199996948242</ele>
        <time>2020-05-30T09:10:46.000Z</time>
      </trkpt>
      <trkpt lat="43.41107" lon="6.52664">
        <ele>95.599998474121</ele>
        <time>2020-05-30T09:10:48.000Z</time>
      </trkpt>
      <trkpt lat="43.4109" lon="6.52674">
        <ele>96.599998474121</ele>
        <time>2020-05-30T09:10:54.000Z</time>
      </trkpt>
      <trkpt lat="43.41087" lon="6.52675">
        <ele>96.599998474121</ele>
        <time>2020-05-30T09:10:55.000Z</time>
      </trkpt>
      <trkpt lat="43.4106" lon="6.52686">
        <ele>97.400001525879</ele>
        <time>2020-05-30T09:11:03.000Z</time>
      </trkpt>
      <trkpt lat="43.41033" lon="6.52685">
        <ele>96.400001525879</ele>
        <time>2020-05-30T09:11:09.000Z</time>
      </trkpt>
      <trkpt lat="43.41029" lon="6.52687">
        <ele>96</ele>
        <time>2020-05-30T09:11:10.000Z</time>
      </trkpt>
      <trkpt lat="43.41023" lon="6.52691">
        <ele>95.599998474121</ele>
        <time>2020-05-30T09:11:12.000Z</time>
      </trkpt>
      <trkpt lat="43.41019" lon="6.52693">
        <ele>95.599998474121</ele>
        <time>2020-05-30T09:11:13.000Z</time>
      </trkpt>
      <trkpt lat="43.41013" lon="6.52694">
        <ele>95.800003051758</ele>
        <time>2020-05-30T09:11:15.000Z</time>
      </trkpt>
      <trkpt lat="43.41008" lon="6.52696">
        <ele>97</ele>
        <time>2020-05-30T09:11:17.000Z</time>
      </trkpt>
      <trkpt lat="43.41001" lon="6.52698">
        <ele>98.199996948242</ele>
        <time>2020-05-30T09:11:19.000Z</time>
      </trkpt>
      <trkpt lat="43.40988" lon="6.52703">
        <ele>99.199996948242</ele>
        <time>2020-05-30T09:11:23.000Z</time>
      </trkpt>
      <trkpt lat="43.40978" lon="6.52706">
        <ele>99.599998474121</ele>
        <time>2020-05-30T09:11:26.000Z</time>
      </trkpt>
      <trkpt lat="43.40959" lon="6.52709">
        <ele>100.40000152588</ele>
        <time>2020-05-30T09:11:32.000Z</time>
      </trkpt>
      <trkpt lat="43.40955" lon="6.5271">
        <ele>100.59999847412</ele>
        <time>2020-05-30T09:11:33.000Z</time>
      </trkpt>
      <trkpt lat="43.40942" lon="6.52715">
        <ele>101.59999847412</ele>
        <time>2020-05-30T09:11:37.000Z</time>
      </trkpt>
      <trkpt lat="43.4093" lon="6.5272">
        <ele>102.19999694824</ele>
        <time>2020-05-30T09:11:41.000Z</time>
      </trkpt>
      <trkpt lat="43.40923" lon="6.52722">
        <ele>102.59999847412</ele>
        <time>2020-05-30T09:11:43.000Z</time>
      </trkpt>
      <trkpt lat="43.40909" lon="6.52727">
        <ele>103.19999694824</ele>
        <time>2020-05-30T09:11:48.000Z</time>
      </trkpt>
      <trkpt lat="43.40904" lon="6.5273">
        <ele>103.80000305176</ele>
        <time>2020-05-30T09:11:50.000Z</time>
      </trkpt>
      <trkpt lat="43.4089" lon="6.52739">
        <ele>104.80000305176</ele>
        <time>2020-05-30T09:11:56.000Z</time>
      </trkpt>
      <trkpt lat="43.40889" lon="6.52741">
        <ele>105.19999694824</ele>
        <time>2020-05-30T09:11:57.000Z</time>
      </trkpt>
      <trkpt lat="43.40886" lon="6.52761">
        <ele>105.80000305176</ele>
        <time>2020-05-30T09:12:02.000Z</time>
      </trkpt>
      <trkpt lat="43.40885" lon="6.52777">
        <ele>105.80000305176</ele>
        <time>2020-05-30T09:12:07.000Z</time>
      </trkpt>
      <trkpt lat="43.40886" lon="6.5278">
        <ele>106</ele>
        <time>2020-05-30T09:12:08.000Z</time>
      </trkpt>
      <trkpt lat="43.40884" lon="6.52799">
        <ele>106.80000305176</ele>
        <time>2020-05-30T09:12:14.000Z</time>
      </trkpt>
      <trkpt lat="43.40883" lon="6.52801">
        <ele>107</ele>
        <time>2020-05-30T09:12:15.000Z</time>
      </trkpt>
      <trkpt lat="43.40884" lon="6.52808">
        <ele>108</ele>
        <time>2020-05-30T09:12:18.000Z</time>
      </trkpt>
      <trkpt lat="43.40884" lon="6.52818">
        <ele>109.19999694824</ele>
        <time>2020-05-30T09:12:22.000Z</time>
      </trkpt>
      <trkpt lat="43.40884" lon="6.52821">
        <ele>109.40000152588</ele>
        <time>2020-05-30T09:12:23.000Z</time>
      </trkpt>
      <trkpt lat="43.40885" lon="6.5283">
        <ele>110.19999694824</ele>
        <time>2020-05-30T09:12:26.000Z</time>
      </trkpt>
      <trkpt lat="43.40885" lon="6.52839">
        <ele>111.40000152588</ele>
        <time>2020-05-30T09:12:29.000Z</time>
      </trkpt>
      <trkpt lat="43.40885" lon="6.52842">
        <ele>111.59999847412</ele>
        <time>2020-05-30T09:12:30.000Z</time>
      </trkpt>
      <trkpt lat="43.40885" lon="6.52845">
        <ele>112</ele>
        <time>2020-05-30T09:12:31.000Z</time>
      </trkpt>
      <trkpt lat="43.40884" lon="6.5285">
        <ele>112.59999847412</ele>
        <time>2020-05-30T09:12:33.000Z</time>
      </trkpt>
      <trkpt lat="43.40884" lon="6.52858">
        <ele>113.59999847412</ele>
        <time>2020-05-30T09:12:36.000Z</time>
      </trkpt>
      <trkpt lat="43.40884" lon="6.52859">
        <ele>113.80000305176</ele>
        <time>2020-05-30T09:12:37.000Z</time>
      </trkpt>
      <trkpt lat="43.40885" lon="6.52863">
        <ele>114</ele>
        <time>2020-05-30T09:12:38.000Z</time>
      </trkpt>
      <trkpt lat="43.40881" lon="6.5287">
        <ele>114.59999847412</ele>
        <time>2020-05-30T09:12:41.000Z</time>
      </trkpt>
      <trkpt lat="43.4088" lon="6.52872">
        <ele>115</ele>
        <time>2020-05-30T09:12:42.000Z</time>
      </trkpt>
      <trkpt lat="43.40873" lon="6.52874">
        <ele>115.80000305176</ele>
        <time>2020-05-30T09:12:45.000Z</time>
      </trkpt>
      <trkpt lat="43.4087" lon="6.52873">
        <ele>116</ele>
        <time>2020-05-30T09:12:46.000Z</time>
      </trkpt>
      <trkpt lat="43.40864" lon="6.52864">
        <ele>117</ele>
        <time>2020-05-30T09:12:50.000Z</time>
      </trkpt>
      <trkpt lat="43.40862" lon="6.52856">
        <ele>118.40000152588</ele>
        <time>2020-05-30T09:12:53.000Z</time>
      </trkpt>
      <trkpt lat="43.40859" lon="6.52849">
        <ele>119.80000305176</ele>
        <time>2020-05-30T09:12:56.000Z</time>
      </trkpt>
      <trkpt lat="43.40857" lon="6.52841">
        <ele>120.80000305176</ele>
        <time>2020-05-30T09:12:59.000Z</time>
      </trkpt>
      <trkpt lat="43.40855" lon="6.52838">
        <ele>121.59999847412</ele>
        <time>2020-05-30T09:13:01.000Z</time>
      </trkpt>
      <trkpt lat="43.40854" lon="6.52835">
        <ele>122.19999694824</ele>
        <time>2020-05-30T09:13:02.000Z</time>
      </trkpt>
      <trkpt lat="43.40852" lon="6.52832">
        <ele>123.40000152588</ele>
        <time>2020-05-30T09:13:04.000Z</time>
      </trkpt>
      <trkpt lat="43.40852" lon="6.52833">
        <ele>124</ele>
        <time>2020-05-30T09:13:05.000Z</time>
      </trkpt>
      <trkpt lat="43.40852" lon="6.52833">
        <ele>124.40000152588</ele>
        <time>2020-05-30T09:13:06.000Z</time>
      </trkpt>
      <trkpt lat="43.40851" lon="6.5283">
        <ele>125</ele>
        <time>2020-05-30T09:13:11.000Z</time>
      </trkpt>
      <trkpt lat="43.40849" lon="6.52827">
        <ele>125.40000152588</ele>
        <time>2020-05-30T09:13:13.000Z</time>
      </trkpt>
      <trkpt lat="43.40848" lon="6.52826">
        <ele>125.59999847412</ele>
        <time>2020-05-30T09:13:14.000Z</time>
      </trkpt>
      <trkpt lat="43.40841" lon="6.52826">
        <ele>126.59999847412</ele>
        <time>2020-05-30T09:13:18.000Z</time>
      </trkpt>
      <trkpt lat="43.40834" lon="6.52829">
        <ele>127.59999847412</ele>
        <time>2020-05-30T09:13:21.000Z</time>
      </trkpt>
      <trkpt lat="43.40829" lon="6.52833">
        <ele>128.60000610352</ele>
        <time>2020-05-30T09:13:24.000Z</time>
      </trkpt>
      <trkpt lat="43.40827" lon="6.52834">
        <ele>129</ele>
        <time>2020-05-30T09:13:25.000Z</time>
      </trkpt>
      <trkpt lat="43.40825" lon="6.52835">
        <ele>130</ele>
        <time>2020-05-30T09:13:27.000Z</time>
      </trkpt>
      <trkpt lat="43.40822" lon="6.52838">
        <ele>130.80000305176</ele>
        <time>2020-05-30T09:13:29.000Z</time>
      </trkpt>
      <trkpt lat="43.40821" lon="6.52839">
        <ele>131.39999389648</ele>
        <time>2020-05-30T09:13:30.000Z</time>
      </trkpt>
      <trkpt lat="43.40817" lon="6.52841">
        <ele>132.80000305176</ele>
        <time>2020-05-30T09:13:33.000Z</time>
      </trkpt>
      <trkpt lat="43.40815" lon="6.52843">
        <ele>134.19999694824</ele>
        <time>2020-05-30T09:13:35.000Z</time>
      </trkpt>
      <trkpt lat="43.40813" lon="6.52844">
        <ele>135.39999389648</ele>
        <time>2020-05-30T09:13:37.000Z</time>
      </trkpt>
      <trkpt lat="43.40809" lon="6.52844">
        <ele>136.80000305176</ele>
        <time>2020-05-30T09:13:39.000Z</time>
      </trkpt>
      <trkpt lat="43.40808" lon="6.52844">
        <ele>137.19999694824</ele>
        <time>2020-05-30T09:13:40.000Z</time>
      </trkpt>
      <trkpt lat="43.40807" lon="6.52845">
        <ele>137.80000305176</ele>
        <time>2020-05-30T09:13:41.000Z</time>
      </trkpt>
      <trkpt lat="43.40804" lon="6.52846">
        <ele>139.19999694824</ele>
        <time>2020-05-30T09:13:44.000Z</time>
      </trkpt>
      <trkpt lat="43.40803" lon="6.52847">
        <ele>139.60000610352</ele>
        <time>2020-05-30T09:13:45.000Z</time>
      </trkpt>
      <trkpt lat="43.40803" lon="6.52847">
        <ele>140.19999694824</ele>
        <time>2020-05-30T09:13:48.000Z</time>
      </trkpt>
      <trkpt lat="43.40803" lon="6.52847">
        <ele>140.19999694824</ele>
        <time>2020-05-30T09:13:50.000Z</time>
      </trkpt>
      <trkpt lat="43.40804" lon="6.52847">
        <ele>140.39999389648</ele>
        <time>2020-05-30T09:14:02.000Z</time>
      </trkpt>
      <trkpt lat="43.40805" lon="6.52846">
        <ele>140.39999389648</ele>
        <time>2020-05-30T09:14:11.000Z</time>
      </trkpt>
      <trkpt lat="43.40806" lon="6.52845">
        <ele>140</ele>
        <time>2020-05-30T09:14:20.000Z</time>
      </trkpt>
      <trkpt lat="43.40801" lon="6.52843">
        <ele>140.19999694824</ele>
        <time>2020-05-30T09:14:25.000Z</time>
      </trkpt>
      <trkpt lat="43.40798" lon="6.5285">
        <ele>140.19999694824</ele>
        <time>2020-05-30T09:14:29.000Z</time>
      </trkpt>
      <trkpt lat="43.40797" lon="6.52853">
        <ele>140.39999389648</ele>
        <time>2020-05-30T09:14:30.000Z</time>
      </trkpt>
      <trkpt lat="43.40794" lon="6.52855">
        <ele>141.19999694824</ele>
        <time>2020-05-30T09:14:32.000Z</time>
      </trkpt>
      <trkpt lat="43.40793" lon="6.52856">
        <ele>142.39999389648</ele>
        <time>2020-05-30T09:14:34.000Z</time>
      </trkpt>
      <trkpt lat="43.40794" lon="6.52857">
        <ele>142.80000305176</ele>
        <time>2020-05-30T09:14:35.000Z</time>
      </trkpt>
      <trkpt lat="43.40794" lon="6.52857">
        <ele>143.60000610352</ele>
        <time>2020-05-30T09:14:37.000Z</time>
      </trkpt>
      <trkpt lat="43.40794" lon="6.52857">
        <ele>143.60000610352</ele>
        <time>2020-05-30T09:14:38.000Z</time>
      </trkpt>
      <trkpt lat="43.40794" lon="6.52857">
        <ele>142.80000305176</ele>
        <time>2020-05-30T09:14:49.000Z</time>
      </trkpt>
      <trkpt lat="43.40792" lon="6.52858">
        <ele>143.80000305176</ele>
        <time>2020-05-30T09:15:00.000Z</time>
      </trkpt>
      <trkpt lat="43.40793" lon="6.52858">
        <ele>143.80000305176</ele>
        <time>2020-05-30T09:15:06.000Z</time>
      </trkpt>
      <trkpt lat="43.40792" lon="6.52857">
        <ele>144</ele>
        <time>2020-05-30T09:15:13.000Z</time>
      </trkpt>
      <trkpt lat="43.40791" lon="6.52858">
        <ele>144.19999694824</ele>
        <time>2020-05-30T09:15:24.000Z</time>
      </trkpt>
      <trkpt lat="43.40791" lon="6.52857">
        <ele>144.60000610352</ele>
        <time>2020-05-30T09:15:27.000Z</time>
      </trkpt>
      <trkpt lat="43.40791" lon="6.52857">
        <ele>144.80000305176</ele>
        <time>2020-05-30T09:15:30.000Z</time>
      </trkpt>
      <trkpt lat="43.40789" lon="6.52854">
        <ele>144.60000610352</ele>
        <time>2020-05-30T09:15:40.000Z</time>
      </trkpt>
      <trkpt lat="43.40789" lon="6.52855">
        <ele>144.80000305176</ele>
        <time>2020-05-30T09:15:46.000Z</time>
      </trkpt>
      <trkpt lat="43.40789" lon="6.52855">
        <ele>145.19999694824</ele>
        <time>2020-05-30T09:15:59.000Z</time>
      </trkpt>
      <trkpt lat="43.40789" lon="6.52856">
        <ele>145.39999389648</ele>
        <time>2020-05-30T09:16:08.000Z</time>
      </trkpt>
      <trkpt lat="43.40789" lon="6.52857">
        <ele>145</ele>
        <time>2020-05-30T09:16:15.000Z</time>
      </trkpt>
      <trkpt lat="43.40787" lon="6.52859">
        <ele>145</ele>
        <time>2020-05-30T09:16:17.000Z</time>
      </trkpt>
      <trkpt lat="43.40785" lon="6.52862">
        <ele>145.60000610352</ele>
        <time>2020-05-30T09:16:20.000Z</time>
      </trkpt>
      <trkpt lat="43.40785" lon="6.52863">
        <ele>146</ele>
        <time>2020-05-30T09:16:21.000Z</time>
      </trkpt>
      <trkpt lat="43.40785" lon="6.52863">
        <ele>146.80000305176</ele>
        <time>2020-05-30T09:16:25.000Z</time>
      </trkpt>
      <trkpt lat="43.40785" lon="6.52864">
        <ele>146.80000305176</ele>
        <time>2020-05-30T09:16:26.000Z</time>
      </trkpt>
      <trkpt lat="43.40784" lon="6.52867">
        <ele>147.80000305176</ele>
        <time>2020-05-30T09:16:31.000Z</time>
      </trkpt>
      <trkpt lat="43.40784" lon="6.52867">
        <ele>148</ele>
        <time>2020-05-30T09:16:32.000Z</time>
      </trkpt>
      <trkpt lat="43.40783" lon="6.52873">
        <ele>149</ele>
        <time>2020-05-30T09:16:38.000Z</time>
      </trkpt>
      <trkpt lat="43.40782" lon="6.52874">
        <ele>149.60000610352</ele>
        <time>2020-05-30T09:16:40.000Z</time>
      </trkpt>
      <trkpt lat="43.40782" lon="6.52875">
        <ele>150</ele>
        <time>2020-05-30T09:16:41.000Z</time>
      </trkpt>
      <trkpt lat="43.40781" lon="6.52875">
        <ele>150.19999694824</ele>
        <time>2020-05-30T09:16:42.000Z</time>
      </trkpt>
      <trkpt lat="43.4078" lon="6.52878">
        <ele>151.19999694824</ele>
        <time>2020-05-30T09:16:48.000Z</time>
      </trkpt>
      <trkpt lat="43.4078" lon="6.52878">
        <ele>151.39999389648</ele>
        <time>2020-05-30T09:16:49.000Z</time>
      </trkpt>
      <trkpt lat="43.40779" lon="6.52883">
        <ele>151.60000610352</ele>
        <time>2020-05-30T09:16:55.000Z</time>
      </trkpt>
      <trkpt lat="43.40779" lon="6.52887">
        <ele>152.60000610352</ele>
        <time>2020-05-30T09:17:00.000Z</time>
      </trkpt>
      <trkpt lat="43.4078" lon="6.52889">
        <ele>154.19999694824</ele>
        <time>2020-05-30T09:17:01.000Z</time>
      </trkpt>
      <trkpt lat="43.4078" lon="6.52889">
        <ele>156</ele>
        <time>2020-05-30T09:17:02.000Z</time>
      </trkpt>
      <trkpt lat="43.4078" lon="6.52891">
        <ele>156.19999694824</ele>
        <time>2020-05-30T09:17:05.000Z</time>
      </trkpt>
      <trkpt lat="43.4078" lon="6.52891">
        <ele>153.39999389648</ele>
        <time>2020-05-30T09:17:07.000Z</time>
      </trkpt>
      <trkpt lat="43.40779" lon="6.52893">
        <ele>153.39999389648</ele>
        <time>2020-05-30T09:17:10.000Z</time>
      </trkpt>
      <trkpt lat="43.40777" lon="6.52899">
        <ele>153.80000305176</ele>
        <time>2020-05-30T09:17:14.000Z</time>
      </trkpt>
      <trkpt lat="43.40777" lon="6.52901">
        <ele>154.60000610352</ele>
        <time>2020-05-30T09:17:18.000Z</time>
      </trkpt>
      <trkpt lat="43.40776" lon="6.52902">
        <ele>154.80000305176</ele>
        <time>2020-05-30T09:17:19.000Z</time>
      </trkpt>
      <trkpt lat="43.40774" lon="6.5291">
        <ele>155.39999389648</ele>
        <time>2020-05-30T09:17:25.000Z</time>
      </trkpt>
      <trkpt lat="43.40772" lon="6.52914">
        <ele>155.60000610352</ele>
        <time>2020-05-30T09:17:27.000Z</time>
      </trkpt>
      <trkpt lat="43.40767" lon="6.5292">
        <ele>157</ele>
        <time>2020-05-30T09:17:30.000Z</time>
      </trkpt>
      <trkpt lat="43.40765" lon="6.52924">
        <ele>157.80000305176</ele>
        <time>2020-05-30T09:17:32.000Z</time>
      </trkpt>
      <trkpt lat="43.40764" lon="6.52926">
        <ele>158.19999694824</ele>
        <time>2020-05-30T09:17:33.000Z</time>
      </trkpt>
      <trkpt lat="43.40762" lon="6.52932">
        <ele>159.19999694824</ele>
        <time>2020-05-30T09:17:36.000Z</time>
      </trkpt>
      <trkpt lat="43.4076" lon="6.52935">
        <ele>160.19999694824</ele>
        <time>2020-05-30T09:17:38.000Z</time>
      </trkpt>
      <trkpt lat="43.40759" lon="6.52937">
        <ele>160.39999389648</ele>
        <time>2020-05-30T09:17:39.000Z</time>
      </trkpt>
      <trkpt lat="43.40753" lon="6.52945">
        <ele>161.60000610352</ele>
        <time>2020-05-30T09:17:44.000Z</time>
      </trkpt>
      <trkpt lat="43.40749" lon="6.5295">
        <ele>162.80000305176</ele>
        <time>2020-05-30T09:17:47.000Z</time>
      </trkpt>
      <trkpt lat="43.40742" lon="6.52961">
        <ele>164</ele>
        <time>2020-05-30T09:17:52.000Z</time>
      </trkpt>
      <trkpt lat="43.40738" lon="6.52968">
        <ele>165.39999389648</ele>
        <time>2020-05-30T09:17:55.000Z</time>
      </trkpt>
      <trkpt lat="43.40736" lon="6.52972">
        <ele>166.39999389648</ele>
        <time>2020-05-30T09:17:57.000Z</time>
      </trkpt>
      <trkpt lat="43.40735" lon="6.52974">
        <ele>166.80000305176</ele>
        <time>2020-05-30T09:17:58.000Z</time>
      </trkpt>
      <trkpt lat="43.40732" lon="6.52979">
        <ele>167.60000610352</ele>
        <time>2020-05-30T09:18:00.000Z</time>
      </trkpt>
      <trkpt lat="43.40728" lon="6.52989">
        <ele>169</ele>
        <time>2020-05-30T09:18:04.000Z</time>
      </trkpt>
      <trkpt lat="43.40727" lon="6.52991">
        <ele>169.39999389648</ele>
        <time>2020-05-30T09:18:05.000Z</time>
      </trkpt>
      <trkpt lat="43.40724" lon="6.52997">
        <ele>170.39999389648</ele>
        <time>2020-05-30T09:18:07.000Z</time>
      </trkpt>
      <trkpt lat="43.40721" lon="6.53005">
        <ele>171.60000610352</ele>
        <time>2020-05-30T09:18:10.000Z</time>
      </trkpt>
      <trkpt lat="43.40716" lon="6.53017">
        <ele>173</ele>
        <time>2020-05-30T09:18:14.000Z</time>
      </trkpt>
      <trkpt lat="43.40711" lon="6.53026">
        <ele>174.19999694824</ele>
        <time>2020-05-30T09:18:17.000Z</time>
      </trkpt>
      <trkpt lat="43.40707" lon="6.53037">
        <ele>175.19999694824</ele>
        <time>2020-05-30T09:18:20.000Z</time>
      </trkpt>
      <trkpt lat="43.40705" lon="6.5304">
        <ele>175.60000610352</ele>
        <time>2020-05-30T09:18:21.000Z</time>
      </trkpt>
      <trkpt lat="43.40702" lon="6.53047">
        <ele>176.39999389648</ele>
        <time>2020-05-30T09:18:23.000Z</time>
      </trkpt>
      <trkpt lat="43.40698" lon="6.53058">
        <ele>177.60000610352</ele>
        <time>2020-05-30T09:18:26.000Z</time>
      </trkpt>
      <trkpt lat="43.40696" lon="6.53061">
        <ele>177.80000305176</ele>
        <time>2020-05-30T09:18:27.000Z</time>
      </trkpt>
      <trkpt lat="43.40692" lon="6.53072">
        <ele>178.60000610352</ele>
        <time>2020-05-30T09:18:30.000Z</time>
      </trkpt>
      <trkpt lat="43.40688" lon="6.53083">
        <ele>179.60000610352</ele>
        <time>2020-05-30T09:18:33.000Z</time>
      </trkpt>
      <trkpt lat="43.40686" lon="6.53087">
        <ele>180</ele>
        <time>2020-05-30T09:18:34.000Z</time>
      </trkpt>
      <trkpt lat="43.40678" lon="6.53099">
        <ele>181.39999389648</ele>
        <time>2020-05-30T09:18:38.000Z</time>
      </trkpt>
      <trkpt lat="43.40674" lon="6.53105">
        <ele>182.19999694824</ele>
        <time>2020-05-30T09:18:40.000Z</time>
      </trkpt>
      <trkpt lat="43.40672" lon="6.53108">
        <ele>183</ele>
        <time>2020-05-30T09:18:41.000Z</time>
      </trkpt>
      <trkpt lat="43.40667" lon="6.53114">
        <ele>184.19999694824</ele>
        <time>2020-05-30T09:18:43.000Z</time>
      </trkpt>
      <trkpt lat="43.40664" lon="6.5312">
        <ele>185.60000610352</ele>
        <time>2020-05-30T09:18:45.000Z</time>
      </trkpt>
      <trkpt lat="43.40658" lon="6.53128">
        <ele>187</ele>
        <time>2020-05-30T09:18:48.000Z</time>
      </trkpt>
      <trkpt lat="43.40652" lon="6.5314">
        <ele>188</ele>
        <time>2020-05-30T09:18:52.000Z</time>
      </trkpt>
      <trkpt lat="43.4065" lon="6.53142">
        <ele>188.60000610352</ele>
        <time>2020-05-30T09:18:54.000Z</time>
      </trkpt>
      <trkpt lat="43.4065" lon="6.53142">
        <ele>189.39999389648</ele>
        <time>2020-05-30T09:18:56.000Z</time>
      </trkpt>
      <trkpt lat="43.4065" lon="6.53142">
        <ele>190.19999694824</ele>
        <time>2020-05-30T09:19:00.000Z</time>
      </trkpt>
      <trkpt lat="43.40651" lon="6.53143">
        <ele>190.19999694824</ele>
        <time>2020-05-30T09:19:08.000Z</time>
      </trkpt>
      <trkpt lat="43.4065" lon="6.53143">
        <ele>190.19999694824</ele>
        <time>2020-05-30T09:19:09.000Z</time>
      </trkpt>
      <trkpt lat="43.4065" lon="6.53143">
        <ele>190</ele>
        <time>2020-05-30T09:19:14.000Z</time>
      </trkpt>
      <trkpt lat="43.40649" lon="6.53143">
        <ele>189.80000305176</ele>
        <time>2020-05-30T09:19:21.000Z</time>
      </trkpt>
      <trkpt lat="43.40649" lon="6.53143">
        <ele>190.19999694824</ele>
        <time>2020-05-30T09:19:30.000Z</time>
      </trkpt>
      <trkpt lat="43.40649" lon="6.53144">
        <ele>190.39999389648</ele>
        <time>2020-05-30T09:19:32.000Z</time>
      </trkpt>
      <trkpt lat="43.40648" lon="6.53144">
        <ele>188.60000610352</ele>
        <time>2020-05-30T09:19:37.000Z</time>
      </trkpt>
      <trkpt lat="43.40649" lon="6.53144">
        <ele>189</ele>
        <time>2020-05-30T09:19:41.000Z</time>
      </trkpt>
      <trkpt lat="43.40648" lon="6.53144">
        <ele>187.39999389648</ele>
        <time>2020-05-30T09:19:43.000Z</time>
      </trkpt>
      <trkpt lat="43.40648" lon="6.53144">
        <ele>184.60000610352</ele>
        <time>2020-05-30T09:19:44.000Z</time>
      </trkpt>
      <trkpt lat="43.40649" lon="6.53144">
        <ele>182.60000610352</ele>
        <time>2020-05-30T09:19:45.000Z</time>
      </trkpt>
      <trkpt lat="43.40648" lon="6.53144">
        <ele>178</ele>
        <time>2020-05-30T09:19:46.000Z</time>
      </trkpt>
      <trkpt lat="43.40648" lon="6.53144">
        <ele>176.19999694824</ele>
        <time>2020-05-30T09:19:47.000Z</time>
      </trkpt>
      <trkpt lat="43.40648" lon="6.53144">
        <ele>174.39999389648</ele>
        <time>2020-05-30T09:19:48.000Z</time>
      </trkpt>
      <trkpt lat="43.40648" lon="6.53144">
        <ele>172.19999694824</ele>
        <time>2020-05-30T09:19:49.000Z</time>
      </trkpt>
      <trkpt lat="43.40649" lon="6.53144">
        <ele>170.19999694824</ele>
        <time>2020-05-30T09:19:50.000Z</time>
      </trkpt>
      <trkpt lat="43.40649" lon="6.53144">
        <ele>167.60000610352</ele>
        <time>2020-05-30T09:19:51.000Z</time>
      </trkpt>
      <trkpt lat="43.40649" lon="6.53144">
        <ele>165</ele>
        <time>2020-05-30T09:19:52.000Z</time>
      </trkpt>
      <trkpt lat="43.40649" lon="6.53144">
        <ele>163.60000610352</ele>
        <time>2020-05-30T09:19:53.000Z</time>
      </trkpt>
      <trkpt lat="43.40649" lon="6.53144">
        <ele>162.39999389648</ele>
        <time>2020-05-30T09:19:54.000Z</time>
      </trkpt>
      <trkpt lat="43.40649" lon="6.53144">
        <ele>161</ele>
        <time>2020-05-30T09:19:55.000Z</time>
      </trkpt>
      <trkpt lat="43.40649" lon="6.53144">
        <ele>161</ele>
        <time>2020-05-30T09:19:56.000Z</time>
      </trkpt>
      <trkpt lat="43.40649" lon="6.53145">
        <ele>159.80000305176</ele>
        <time>2020-05-30T09:19:59.000Z</time>
      </trkpt>
      <trkpt lat="43.40649" lon="6.53145">
        <ele>158.19999694824</ele>
        <time>2020-05-30T09:20:01.000Z</time>
      </trkpt>
      <trkpt lat="43.40649" lon="6.53145">
        <ele>157</ele>
        <time>2020-05-30T09:20:02.000Z</time>
      </trkpt>
      <trkpt lat="43.4065" lon="6.53145">
        <ele>155.60000610352</ele>
        <time>2020-05-30T09:20:03.000Z</time>
      </trkpt>
      <trkpt lat="43.4065" lon="6.53145">
        <ele>153.80000305176</ele>
        <time>2020-05-30T09:20:04.000Z</time>
      </trkpt>
      <trkpt lat="43.4065" lon="6.53145">
        <ele>152.19999694824</ele>
        <time>2020-05-30T09:20:07.000Z</time>
      </trkpt>
      <trkpt lat="43.4065" lon="6.53145">
        <ele>151</ele>
        <time>2020-05-30T09:20:09.000Z</time>
      </trkpt>
      <trkpt lat="43.4065" lon="6.53146">
        <ele>149</ele>
        <time>2020-05-30T09:20:11.000Z</time>
      </trkpt>
      <trkpt lat="43.40651" lon="6.53145">
        <ele>147.39999389648</ele>
        <time>2020-05-30T09:20:14.000Z</time>
      </trkpt>
      <trkpt lat="43.40651" lon="6.53146">
        <ele>153.39999389648</ele>
        <time>2020-05-30T09:20:16.000Z</time>
      </trkpt>
      <trkpt lat="43.40652" lon="6.53146">
        <ele>160.19999694824</ele>
        <time>2020-05-30T09:20:17.000Z</time>
      </trkpt>
      <trkpt lat="43.40652" lon="6.53145">
        <ele>169.60000610352</ele>
        <time>2020-05-30T09:20:18.000Z</time>
      </trkpt>
      <trkpt lat="43.40652" lon="6.53145">
        <ele>181.60000610352</ele>
        <time>2020-05-30T09:20:19.000Z</time>
      </trkpt>
      <trkpt lat="43.40652" lon="6.53145">
        <ele>190.19999694824</ele>
        <time>2020-05-30T09:20:20.000Z</time>
      </trkpt>
      <trkpt lat="43.40652" lon="6.53145">
        <ele>194</ele>
        <time>2020-05-30T09:20:21.000Z</time>
      </trkpt>
      <trkpt lat="43.40653" lon="6.53145">
        <ele>194.19999694824</ele>
        <time>2020-05-30T09:20:30.000Z</time>
      </trkpt>
      <trkpt lat="43.40653" lon="6.53146">
        <ele>194.39999389648</ele>
        <time>2020-05-30T09:20:40.000Z</time>
      </trkpt>
      <trkpt lat="43.40653" lon="6.53147">
        <ele>195</ele>
        <time>2020-05-30T09:20:48.000Z</time>
      </trkpt>
      <trkpt lat="43.40653" lon="6.53147">
        <ele>195.19999694824</ele>
        <time>2020-05-30T09:20:49.000Z</time>
      </trkpt>
      <trkpt lat="43.40653" lon="6.53148">
        <ele>195.60000610352</ele>
        <time>2020-05-30T09:20:59.000Z</time>
      </trkpt>
      <trkpt lat="43.40645" lon="6.53156">
        <ele>195.80000305176</ele>
        <time>2020-05-30T09:21:04.000Z</time>
      </trkpt>
      <trkpt lat="43.40642" lon="6.53164">
        <ele>196.19999694824</ele>
        <time>2020-05-30T09:21:07.000Z</time>
      </trkpt>
      <trkpt lat="43.40637" lon="6.5317">
        <ele>196.80000305176</ele>
        <time>2020-05-30T09:21:10.000Z</time>
      </trkpt>
      <trkpt lat="43.40635" lon="6.53175">
        <ele>197.19999694824</ele>
        <time>2020-05-30T09:21:12.000Z</time>
      </trkpt>
      <trkpt lat="43.4063" lon="6.53184">
        <ele>198.19999694824</ele>
        <time>2020-05-30T09:21:16.000Z</time>
      </trkpt>
      <trkpt lat="43.40629" lon="6.53186">
        <ele>198.39999389648</ele>
        <time>2020-05-30T09:21:17.000Z</time>
      </trkpt>
      <trkpt lat="43.40622" lon="6.532">
        <ele>199.60000610352</ele>
        <time>2020-05-30T09:21:24.000Z</time>
      </trkpt>
      <trkpt lat="43.40616" lon="6.53211">
        <ele>200.39999389648</ele>
        <time>2020-05-30T09:21:30.000Z</time>
      </trkpt>
      <trkpt lat="43.40614" lon="6.53213">
        <ele>200.60000610352</ele>
        <time>2020-05-30T09:21:31.000Z</time>
      </trkpt>
      <trkpt lat="43.40608" lon="6.53223">
        <ele>201.39999389648</ele>
        <time>2020-05-30T09:21:36.000Z</time>
      </trkpt>
      <trkpt lat="43.40607" lon="6.53225">
        <ele>201.80000305176</ele>
        <time>2020-05-30T09:21:37.000Z</time>
      </trkpt>
      <trkpt lat="43.40604" lon="6.53229">
        <ele>203</ele>
        <time>2020-05-30T09:21:39.000Z</time>
      </trkpt>
      <trkpt lat="43.40602" lon="6.53235">
        <ele>204.19999694824</ele>
        <time>2020-05-30T09:21:42.000Z</time>
      </trkpt>
      <trkpt lat="43.406" lon="6.53243">
        <ele>205.39999389648</ele>
        <time>2020-05-30T09:21:46.000Z</time>
      </trkpt>
      <trkpt lat="43.40597" lon="6.53249">
        <ele>206.39999389648</ele>
        <time>2020-05-30T09:21:49.000Z</time>
      </trkpt>
      <trkpt lat="43.40597" lon="6.5325">
        <ele>206.60000610352</ele>
        <time>2020-05-30T09:21:50.000Z</time>
      </trkpt>
      <trkpt lat="43.40595" lon="6.53259">
        <ele>207.80000305176</ele>
        <time>2020-05-30T09:21:54.000Z</time>
      </trkpt>
      <trkpt lat="43.40594" lon="6.53261">
        <ele>208.19999694824</ele>
        <time>2020-05-30T09:21:55.000Z</time>
      </trkpt>
      <trkpt lat="43.40591" lon="6.53267">
        <ele>209</ele>
        <time>2020-05-30T09:21:58.000Z</time>
      </trkpt>
      <trkpt lat="43.40589" lon="6.53277">
        <ele>210</ele>
        <time>2020-05-30T09:22:02.000Z</time>
      </trkpt>
      <trkpt lat="43.40586" lon="6.53285">
        <ele>211.19999694824</ele>
        <time>2020-05-30T09:22:05.000Z</time>
      </trkpt>
      <trkpt lat="43.40584" lon="6.5329">
        <ele>212.80000305176</ele>
        <time>2020-05-30T09:22:08.000Z</time>
      </trkpt>
      <trkpt lat="43.40583" lon="6.53294">
        <ele>213.80000305176</ele>
        <time>2020-05-30T09:22:10.000Z</time>
      </trkpt>
      <trkpt lat="43.40581" lon="6.53297">
        <ele>214.80000305176</ele>
        <time>2020-05-30T09:22:12.000Z</time>
      </trkpt>
      <trkpt lat="43.4058" lon="6.53297">
        <ele>215.39999389648</ele>
        <time>2020-05-30T09:22:13.000Z</time>
      </trkpt>
      <trkpt lat="43.40581" lon="6.53297">
        <ele>215.80000305176</ele>
        <time>2020-05-30T09:22:14.000Z</time>
      </trkpt>
      <trkpt lat="43.40581" lon="6.53297">
        <ele>216.39999389648</ele>
        <time>2020-05-30T09:22:19.000Z</time>
      </trkpt>
      <trkpt lat="43.40582" lon="6.53297">
        <ele>217</ele>
        <time>2020-05-30T09:22:24.000Z</time>
      </trkpt>
      <trkpt lat="43.40583" lon="6.53297">
        <ele>217</ele>
        <time>2020-05-30T09:22:27.000Z</time>
      </trkpt>
      <trkpt lat="43.40584" lon="6.53297">
        <ele>217.19999694824</ele>
        <time>2020-05-30T09:22:43.000Z</time>
      </trkpt>
      <trkpt lat="43.40585" lon="6.53297">
        <ele>217.19999694824</ele>
        <time>2020-05-30T09:22:56.000Z</time>
      </trkpt>
      <trkpt lat="43.40585" lon="6.53299">
        <ele>217.19999694824</ele>
        <time>2020-05-30T09:23:03.000Z</time>
      </trkpt>
      <trkpt lat="43.40584" lon="6.53302">
        <ele>218</ele>
        <time>2020-05-30T09:23:12.000Z</time>
      </trkpt>
      <trkpt lat="43.40584" lon="6.53303">
        <ele>218.19999694824</ele>
        <time>2020-05-30T09:23:13.000Z</time>
      </trkpt>
      <trkpt lat="43.40584" lon="6.53303">
        <ele>219</ele>
        <time>2020-05-30T09:23:20.000Z</time>
      </trkpt>
      <trkpt lat="43.40584" lon="6.53304">
        <ele>219.19999694824</ele>
        <time>2020-05-30T09:23:21.000Z</time>
      </trkpt>
      <trkpt lat="43.40583" lon="6.53305">
        <ele>219.39999389648</ele>
        <time>2020-05-30T09:23:25.000Z</time>
      </trkpt>
      <trkpt lat="43.40582" lon="6.53307">
        <ele>219.39999389648</ele>
        <time>2020-05-30T09:23:31.000Z</time>
      </trkpt>
      <trkpt lat="43.40579" lon="6.53315">
        <ele>220.19999694824</ele>
        <time>2020-05-30T09:23:36.000Z</time>
      </trkpt>
      <trkpt lat="43.40576" lon="6.53323">
        <ele>221.19999694824</ele>
        <time>2020-05-30T09:23:40.000Z</time>
      </trkpt>
      <trkpt lat="43.40574" lon="6.53328">
        <ele>222.60000610352</ele>
        <time>2020-05-30T09:23:43.000Z</time>
      </trkpt>
      <trkpt lat="43.40573" lon="6.5333">
        <ele>223</ele>
        <time>2020-05-30T09:23:44.000Z</time>
      </trkpt>
      <trkpt lat="43.40571" lon="6.53335">
        <ele>224</ele>
        <time>2020-05-30T09:23:46.000Z</time>
      </trkpt>
      <trkpt lat="43.4057" lon="6.5334">
        <ele>225.39999389648</ele>
        <time>2020-05-30T09:23:48.000Z</time>
      </trkpt>
      <trkpt lat="43.40568" lon="6.53343">
        <ele>226.60000610352</ele>
        <time>2020-05-30T09:23:50.000Z</time>
      </trkpt>
      <trkpt lat="43.40568" lon="6.53344">
        <ele>227</ele>
        <time>2020-05-30T09:23:51.000Z</time>
      </trkpt>
      <trkpt lat="43.40568" lon="6.53344">
        <ele>228</ele>
        <time>2020-05-30T09:23:53.000Z</time>
      </trkpt>
      <trkpt lat="43.40568" lon="6.53344">
        <ele>229</ele>
        <time>2020-05-30T09:23:57.000Z</time>
      </trkpt>
      <trkpt lat="43.40568" lon="6.53344">
        <ele>229</ele>
        <time>2020-05-30T09:23:59.000Z</time>
      </trkpt>
      <trkpt lat="43.40568" lon="6.53347">
        <ele>229.39999389648</ele>
        <time>2020-05-30T09:24:08.000Z</time>
      </trkpt>
      <trkpt lat="43.40567" lon="6.5335">
        <ele>230.19999694824</ele>
        <time>2020-05-30T09:24:14.000Z</time>
      </trkpt>
      <trkpt lat="43.40566" lon="6.53352">
        <ele>230.39999389648</ele>
        <time>2020-05-30T09:24:16.000Z</time>
      </trkpt>
      <trkpt lat="43.40565" lon="6.53354">
        <ele>231.19999694824</ele>
        <time>2020-05-30T09:24:19.000Z</time>
      </trkpt>
      <trkpt lat="43.40565" lon="6.53355">
        <ele>232.39999389648</ele>
        <time>2020-05-30T09:24:23.000Z</time>
      </trkpt>
      <trkpt lat="43.40565" lon="6.53355">
        <ele>232.60000610352</ele>
        <time>2020-05-30T09:24:41.000Z</time>
      </trkpt>
      <trkpt lat="43.40565" lon="6.53356">
        <ele>232.39999389648</ele>
        <time>2020-05-30T09:24:46.000Z</time>
      </trkpt>
      <trkpt lat="43.40565" lon="6.53357">
        <ele>231.80000305176</ele>
        <time>2020-05-30T09:24:53.000Z</time>
      </trkpt>
      <trkpt lat="43.40565" lon="6.53357">
        <ele>233.19999694824</ele>
        <time>2020-05-30T09:25:01.000Z</time>
      </trkpt>
      <trkpt lat="43.40565" lon="6.53357">
        <ele>233.19999694824</ele>
        <time>2020-05-30T09:25:03.000Z</time>
      </trkpt>
      <trkpt lat="43.40565" lon="6.53359">
        <ele>232.80000305176</ele>
        <time>2020-05-30T09:25:11.000Z</time>
      </trkpt>
      <trkpt lat="43.40565" lon="6.5336">
        <ele>233.39999389648</ele>
        <time>2020-05-30T09:25:16.000Z</time>
      </trkpt>
      <trkpt lat="43.40565" lon="6.53361">
        <ele>233.80000305176</ele>
        <time>2020-05-30T09:25:18.000Z</time>
      </trkpt>
      <trkpt lat="43.40564" lon="6.53363">
        <ele>234.39999389648</ele>
        <time>2020-05-30T09:25:24.000Z</time>
      </trkpt>
      <trkpt lat="43.40563" lon="6.53367">
        <ele>235.19999694824</ele>
        <time>2020-05-30T09:25:30.000Z</time>
      </trkpt>
      <trkpt lat="43.40563" lon="6.53369">
        <ele>235.80000305176</ele>
        <time>2020-05-30T09:25:32.000Z</time>
      </trkpt>
      <trkpt lat="43.40562" lon="6.53372">
        <ele>236.80000305176</ele>
        <time>2020-05-30T09:25:37.000Z</time>
      </trkpt>
      <trkpt lat="43.40562" lon="6.53374">
        <ele>237.80000305176</ele>
        <time>2020-05-30T09:25:44.000Z</time>
      </trkpt>
      <trkpt lat="43.40562" lon="6.53374">
        <ele>238</ele>
        <time>2020-05-30T09:25:45.000Z</time>
      </trkpt>
      <trkpt lat="43.40561" lon="6.53375">
        <ele>238.19999694824</ele>
        <time>2020-05-30T09:25:52.000Z</time>
      </trkpt>
      <trkpt lat="43.40561" lon="6.53377">
        <ele>238.60000610352</ele>
        <time>2020-05-30T09:26:04.000Z</time>
      </trkpt>
      <trkpt lat="43.40561" lon="6.53379">
        <ele>239</ele>
        <time>2020-05-30T09:26:08.000Z</time>
      </trkpt>
      <trkpt lat="43.4056" lon="6.53381">
        <ele>239.39999389648</ele>
        <time>2020-05-30T09:26:12.000Z</time>
      </trkpt>
      <trkpt lat="43.40558" lon="6.53383">
        <ele>240</ele>
        <time>2020-05-30T09:26:18.000Z</time>
      </trkpt>
      <trkpt lat="43.40558" lon="6.53383">
        <ele>240</ele>
        <time>2020-05-30T09:26:19.000Z</time>
      </trkpt>
      <trkpt lat="43.40557" lon="6.53385">
        <ele>240.80000305176</ele>
        <time>2020-05-30T09:26:28.000Z</time>
      </trkpt>
      <trkpt lat="43.40557" lon="6.53387">
        <ele>241</ele>
        <time>2020-05-30T09:26:31.000Z</time>
      </trkpt>
      <trkpt lat="43.40556" lon="6.53387">
        <ele>241.60000610352</ele>
        <time>2020-05-30T09:26:36.000Z</time>
      </trkpt>
      <trkpt lat="43.40556" lon="6.53387">
        <ele>241.39999389648</ele>
        <time>2020-05-30T09:26:42.000Z</time>
      </trkpt>
      <trkpt lat="43.40557" lon="6.53389">
        <ele>241.39999389648</ele>
        <time>2020-05-30T09:26:46.000Z</time>
      </trkpt>
      <trkpt lat="43.40557" lon="6.53389">
        <ele>242</ele>
        <time>2020-05-30T09:26:50.000Z</time>
      </trkpt>
      <trkpt lat="43.40557" lon="6.53391">
        <ele>242.19999694824</ele>
        <time>2020-05-30T09:26:58.000Z</time>
      </trkpt>
      <trkpt lat="43.40557" lon="6.53397">
        <ele>243.19999694824</ele>
        <time>2020-05-30T09:27:05.000Z</time>
      </trkpt>
      <trkpt lat="43.40557" lon="6.53399">
        <ele>243.60000610352</ele>
        <time>2020-05-30T09:27:07.000Z</time>
      </trkpt>
      <trkpt lat="43.40557" lon="6.53401">
        <ele>244.19999694824</ele>
        <time>2020-05-30T09:27:09.000Z</time>
      </trkpt>
      <trkpt lat="43.40557" lon="6.53404">
        <ele>245.39999389648</ele>
        <time>2020-05-30T09:27:16.000Z</time>
      </trkpt>
      <trkpt lat="43.40556" lon="6.53408">
        <ele>246.39999389648</ele>
        <time>2020-05-30T09:27:20.000Z</time>
      </trkpt>
      <trkpt lat="43.40555" lon="6.53412">
        <ele>247.60000610352</ele>
        <time>2020-05-30T09:27:25.000Z</time>
      </trkpt>
      <trkpt lat="43.40555" lon="6.53415">
        <ele>248.60000610352</ele>
        <time>2020-05-30T09:27:29.000Z</time>
      </trkpt>
      <trkpt lat="43.40554" lon="6.53419">
        <ele>249.60000610352</ele>
        <time>2020-05-30T09:27:34.000Z</time>
      </trkpt>
      <trkpt lat="43.40554" lon="6.5342">
        <ele>250.19999694824</ele>
        <time>2020-05-30T09:27:36.000Z</time>
      </trkpt>
      <trkpt lat="43.40554" lon="6.53421">
        <ele>250.80000305176</ele>
        <time>2020-05-30T09:27:38.000Z</time>
      </trkpt>
      <trkpt lat="43.40553" lon="6.53423">
        <ele>251.39999389648</ele>
        <time>2020-05-30T09:27:42.000Z</time>
      </trkpt>
      <trkpt lat="43.40553" lon="6.53424">
        <ele>252</ele>
        <time>2020-05-30T09:27:47.000Z</time>
      </trkpt>
      <trkpt lat="43.40553" lon="6.53426">
        <ele>252.19999694824</ele>
        <time>2020-05-30T09:27:50.000Z</time>
      </trkpt>
      <trkpt lat="43.40552" lon="6.53429">
        <ele>253.19999694824</ele>
        <time>2020-05-30T09:27:56.000Z</time>
      </trkpt>
      <trkpt lat="43.40552" lon="6.5343">
        <ele>253.39999389648</ele>
        <time>2020-05-30T09:27:57.000Z</time>
      </trkpt>
      <trkpt lat="43.40551" lon="6.53434">
        <ele>254.39999389648</ele>
        <time>2020-05-30T09:28:05.000Z</time>
      </trkpt>
      <trkpt lat="43.4055" lon="6.53438">
        <ele>255.60000610352</ele>
        <time>2020-05-30T09:28:12.000Z</time>
      </trkpt>
      <trkpt lat="43.4055" lon="6.53439">
        <ele>255.80000305176</ele>
        <time>2020-05-30T09:28:13.000Z</time>
      </trkpt>
      <trkpt lat="43.4055" lon="6.53441">
        <ele>256.60000610352</ele>
        <time>2020-05-30T09:28:16.000Z</time>
      </trkpt>
      <trkpt lat="43.4055" lon="6.53444">
        <ele>257.39999389648</ele>
        <time>2020-05-30T09:28:22.000Z</time>
      </trkpt>
      <trkpt lat="43.4055" lon="6.53445">
        <ele>257.60000610352</ele>
        <time>2020-05-30T09:28:24.000Z</time>
      </trkpt>
      <trkpt lat="43.40549" lon="6.53448">
        <ele>258.79998779297</ele>
        <time>2020-05-30T09:28:29.000Z</time>
      </trkpt>
      <trkpt lat="43.40549" lon="6.53448">
        <ele>259.39999389648</ele>
        <time>2020-05-30T09:28:31.000Z</time>
      </trkpt>
      <trkpt lat="43.40549" lon="6.5345">
        <ele>259.79998779297</ele>
        <time>2020-05-30T09:28:35.000Z</time>
      </trkpt>
      <trkpt lat="43.4055" lon="6.53453">
        <ele>260.79998779297</ele>
        <time>2020-05-30T09:28:42.000Z</time>
      </trkpt>
      <trkpt lat="43.4055" lon="6.53453">
        <ele>261</ele>
        <time>2020-05-30T09:28:43.000Z</time>
      </trkpt>
      <trkpt lat="43.40549" lon="6.53455">
        <ele>261.60000610352</ele>
        <time>2020-05-30T09:28:46.000Z</time>
      </trkpt>
      <trkpt lat="43.40549" lon="6.53455">
        <ele>262</ele>
        <time>2020-05-30T09:28:48.000Z</time>
      </trkpt>
      <trkpt lat="43.40549" lon="6.53457">
        <ele>262.79998779297</ele>
        <time>2020-05-30T09:28:54.000Z</time>
      </trkpt>
      <trkpt lat="43.40548" lon="6.53459">
        <ele>263.20001220703</ele>
        <time>2020-05-30T09:28:57.000Z</time>
      </trkpt>
      <trkpt lat="43.40547" lon="6.5346">
        <ele>264</ele>
        <time>2020-05-30T09:29:02.000Z</time>
      </trkpt>
      <trkpt lat="43.40547" lon="6.5346">
        <ele>264.20001220703</ele>
        <time>2020-05-30T09:29:03.000Z</time>
      </trkpt>
      <trkpt lat="43.40547" lon="6.5346">
        <ele>264.60000610352</ele>
        <time>2020-05-30T09:29:10.000Z</time>
      </trkpt>
      <trkpt lat="43.40547" lon="6.5346">
        <ele>264.79998779297</ele>
        <time>2020-05-30T09:29:20.000Z</time>
      </trkpt>
      <trkpt lat="43.40546" lon="6.53464">
        <ele>265</ele>
        <time>2020-05-30T09:29:30.000Z</time>
      </trkpt>
      <trkpt lat="43.40545" lon="6.53465">
        <ele>265.39999389648</ele>
        <time>2020-05-30T09:29:32.000Z</time>
      </trkpt>
      <trkpt lat="43.40545" lon="6.53467">
        <ele>266.39999389648</ele>
        <time>2020-05-30T09:29:37.000Z</time>
      </trkpt>
      <trkpt lat="43.40546" lon="6.53468">
        <ele>266.79998779297</ele>
        <time>2020-05-30T09:29:38.000Z</time>
      </trkpt>
      <trkpt lat="43.40545" lon="6.5347">
        <ele>266.79998779297</ele>
        <time>2020-05-30T09:29:40.000Z</time>
      </trkpt>
      <trkpt lat="43.40545" lon="6.53471">
        <ele>267</ele>
        <time>2020-05-30T09:29:42.000Z</time>
      </trkpt>
      <trkpt lat="43.40545" lon="6.53471">
        <ele>267.79998779297</ele>
        <time>2020-05-30T09:29:45.000Z</time>
      </trkpt>
      <trkpt lat="43.40545" lon="6.53471">
        <ele>268.20001220703</ele>
        <time>2020-05-30T09:29:50.000Z</time>
      </trkpt>
      <trkpt lat="43.40545" lon="6.53472">
        <ele>268.20001220703</ele>
        <time>2020-05-30T09:29:57.000Z</time>
      </trkpt>
      <trkpt lat="43.40546" lon="6.53473">
        <ele>268.39999389648</ele>
        <time>2020-05-30T09:30:04.000Z</time>
      </trkpt>
      <trkpt lat="43.40547" lon="6.53473">
        <ele>268.39999389648</ele>
        <time>2020-05-30T09:30:21.000Z</time>
      </trkpt>
      <trkpt lat="43.40547" lon="6.53473">
        <ele>268.20001220703</ele>
        <time>2020-05-30T09:30:28.000Z</time>
      </trkpt>
      <trkpt lat="43.40547" lon="6.53473">
        <ele>268.39999389648</ele>
        <time>2020-05-30T09:30:39.000Z</time>
      </trkpt>
      <trkpt lat="43.40548" lon="6.53473">
        <ele>268.39999389648</ele>
        <time>2020-05-30T09:31:00.000Z</time>
      </trkpt>
      <trkpt lat="43.40548" lon="6.53474">
        <ele>268.39999389648</ele>
        <time>2020-05-30T09:31:07.000Z</time>
      </trkpt>
      <trkpt lat="43.40551" lon="6.53478">
        <ele>268.39999389648</ele>
        <time>2020-05-30T09:31:12.000Z</time>
      </trkpt>
      <trkpt lat="43.40552" lon="6.53479">
        <ele>268.20001220703</ele>
        <time>2020-05-30T09:31:17.000Z</time>
      </trkpt>
      <trkpt lat="43.40557" lon="6.53482">
        <ele>268.39999389648</ele>
        <time>2020-05-30T09:31:22.000Z</time>
      </trkpt>
      <trkpt lat="43.40567" lon="6.5349">
        <ele>268.39999389648</ele>
        <time>2020-05-30T09:31:28.000Z</time>
      </trkpt>
      <trkpt lat="43.40578" lon="6.53501">
        <ele>268</ele>
        <time>2020-05-30T09:31:34.000Z</time>
      </trkpt>
      <trkpt lat="43.4059" lon="6.53509">
        <ele>267.79998779297</ele>
        <time>2020-05-30T09:31:40.000Z</time>
      </trkpt>
      <trkpt lat="43.40603" lon="6.53517">
        <ele>267.79998779297</ele>
        <time>2020-05-30T09:31:46.000Z</time>
      </trkpt>
      <trkpt lat="43.40616" lon="6.53524">
        <ele>267.39999389648</ele>
        <time>2020-05-30T09:31:52.000Z</time>
      </trkpt>
      <trkpt lat="43.40626" lon="6.53529">
        <ele>267.60000610352</ele>
        <time>2020-05-30T09:31:57.000Z</time>
      </trkpt>
      <trkpt lat="43.4064" lon="6.53535">
        <ele>267.79998779297</ele>
        <time>2020-05-30T09:32:03.000Z</time>
      </trkpt>
      <trkpt lat="43.40648" lon="6.53537">
        <ele>267.79998779297</ele>
        <time>2020-05-30T09:32:07.000Z</time>
      </trkpt>
      <trkpt lat="43.4067" lon="6.53535">
        <ele>267.60000610352</ele>
        <time>2020-05-30T09:32:15.000Z</time>
      </trkpt>
      <trkpt lat="43.40691" lon="6.53527">
        <ele>267.79998779297</ele>
        <time>2020-05-30T09:32:22.000Z</time>
      </trkpt>
      <trkpt lat="43.40714" lon="6.53516">
        <ele>267.20001220703</ele>
        <time>2020-05-30T09:32:30.000Z</time>
      </trkpt>
      <trkpt lat="43.40731" lon="6.53515">
        <ele>267</ele>
        <time>2020-05-30T09:32:36.000Z</time>
      </trkpt>
      <trkpt lat="43.40755" lon="6.53522">
        <ele>267.20001220703</ele>
        <time>2020-05-30T09:32:43.000Z</time>
      </trkpt>
      <trkpt lat="43.40787" lon="6.53531">
        <ele>267</ele>
        <time>2020-05-30T09:32:53.000Z</time>
      </trkpt>
      <trkpt lat="43.40807" lon="6.53527">
        <ele>267</ele>
        <time>2020-05-30T09:32:59.000Z</time>
      </trkpt>
      <trkpt lat="43.4081" lon="6.53526">
        <ele>266.60000610352</ele>
        <time>2020-05-30T09:33:00.000Z</time>
      </trkpt>
      <trkpt lat="43.40831" lon="6.53523">
        <ele>266.60000610352</ele>
        <time>2020-05-30T09:33:07.000Z</time>
      </trkpt>
      <trkpt lat="43.40845" lon="6.53533">
        <ele>266.39999389648</ele>
        <time>2020-05-30T09:33:12.000Z</time>
      </trkpt>
      <trkpt lat="43.40854" lon="6.53552">
        <ele>266.60000610352</ele>
        <time>2020-05-30T09:33:17.000Z</time>
      </trkpt>
      <trkpt lat="43.40872" lon="6.53584">
        <ele>266</ele>
        <time>2020-05-30T09:33:25.000Z</time>
      </trkpt>
      <trkpt lat="43.4089" lon="6.53602">
        <ele>265.60000610352</ele>
        <time>2020-05-30T09:33:31.000Z</time>
      </trkpt>
      <trkpt lat="43.40896" lon="6.53607">
        <ele>265.79998779297</ele>
        <time>2020-05-30T09:33:33.000Z</time>
      </trkpt>
      <trkpt lat="43.40918" lon="6.53621">
        <ele>266</ele>
        <time>2020-05-30T09:33:40.000Z</time>
      </trkpt>
      <trkpt lat="43.40944" lon="6.53635">
        <ele>266</ele>
        <time>2020-05-30T09:33:48.000Z</time>
      </trkpt>
      <trkpt lat="43.40971" lon="6.53648">
        <ele>265.79998779297</ele>
        <time>2020-05-30T09:33:56.000Z</time>
      </trkpt>
      <trkpt lat="43.40991" lon="6.53646">
        <ele>266.20001220703</ele>
        <time>2020-05-30T09:34:02.000Z</time>
      </trkpt>
      <trkpt lat="43.41017" lon="6.53631">
        <ele>266.39999389648</ele>
        <time>2020-05-30T09:34:10.000Z</time>
      </trkpt>
      <trkpt lat="43.41037" lon="6.53614">
        <ele>266.20001220703</ele>
        <time>2020-05-30T09:34:17.000Z</time>
      </trkpt>
      <trkpt lat="43.41059" lon="6.53585">
        <ele>266.60000610352</ele>
        <time>2020-05-30T09:34:26.000Z</time>
      </trkpt>
      <trkpt lat="43.41075" lon="6.53571">
        <ele>266.79998779297</ele>
        <time>2020-05-30T09:34:32.000Z</time>
      </trkpt>
      <trkpt lat="43.4109" lon="6.53574">
        <ele>266.39999389648</ele>
        <time>2020-05-30T09:34:36.000Z</time>
      </trkpt>
      <trkpt lat="43.41118" lon="6.536">
        <ele>266</ele>
        <time>2020-05-30T09:34:45.000Z</time>
      </trkpt>
      <trkpt lat="43.41146" lon="6.53617">
        <ele>266.20001220703</ele>
        <time>2020-05-30T09:34:53.000Z</time>
      </trkpt>
      <trkpt lat="43.41179" lon="6.53633">
        <ele>266.39999389648</ele>
        <time>2020-05-30T09:35:02.000Z</time>
      </trkpt>
      <trkpt lat="43.41194" lon="6.53652">
        <ele>266.39999389648</ele>
        <time>2020-05-30T09:35:08.000Z</time>
      </trkpt>
      <trkpt lat="43.41196" lon="6.53658">
        <ele>266.60000610352</ele>
        <time>2020-05-30T09:35:12.000Z</time>
      </trkpt>
      <trkpt lat="43.41197" lon="6.53658">
        <ele>267</ele>
        <time>2020-05-30T09:35:19.000Z</time>
      </trkpt>
      <trkpt lat="43.41198" lon="6.53658">
        <ele>266.79998779297</ele>
        <time>2020-05-30T09:35:31.000Z</time>
      </trkpt>
      <trkpt lat="43.41199" lon="6.53659">
        <ele>266.79998779297</ele>
        <time>2020-05-30T09:35:32.000Z</time>
      </trkpt>
      <trkpt lat="43.41201" lon="6.53663">
        <ele>266.60000610352</ele>
        <time>2020-05-30T09:35:34.000Z</time>
      </trkpt>
      <trkpt lat="43.412" lon="6.53666">
        <ele>266.60000610352</ele>
        <time>2020-05-30T09:35:36.000Z</time>
      </trkpt>
      <trkpt lat="43.41197" lon="6.53667">
        <ele>266.79998779297</ele>
        <time>2020-05-30T09:35:38.000Z</time>
      </trkpt>
      <trkpt lat="43.4119" lon="6.5367">
        <ele>267</ele>
        <time>2020-05-30T09:35:43.000Z</time>
      </trkpt>
      <trkpt lat="43.4118" lon="6.53674">
        <ele>267.60000610352</ele>
        <time>2020-05-30T09:35:48.000Z</time>
      </trkpt>
      <trkpt lat="43.41176" lon="6.53675">
        <ele>268.39999389648</ele>
        <time>2020-05-30T09:35:50.000Z</time>
      </trkpt>
      <trkpt lat="43.41172" lon="6.53676">
        <ele>269</ele>
        <time>2020-05-30T09:35:52.000Z</time>
      </trkpt>
      <trkpt lat="43.41166" lon="6.53678">
        <ele>270.39999389648</ele>
        <time>2020-05-30T09:35:55.000Z</time>
      </trkpt>
      <trkpt lat="43.41165" lon="6.53679">
        <ele>270.60000610352</ele>
        <time>2020-05-30T09:35:56.000Z</time>
      </trkpt>
      <trkpt lat="43.41161" lon="6.5368">
        <ele>271.39999389648</ele>
        <time>2020-05-30T09:35:58.000Z</time>
      </trkpt>
      <trkpt lat="43.41153" lon="6.53681">
        <ele>272.60000610352</ele>
        <time>2020-05-30T09:36:02.000Z</time>
      </trkpt>
      <trkpt lat="43.41152" lon="6.53682">
        <ele>272.79998779297</ele>
        <time>2020-05-30T09:36:03.000Z</time>
      </trkpt>
      <trkpt lat="43.41148" lon="6.53682">
        <ele>273.79998779297</ele>
        <time>2020-05-30T09:36:05.000Z</time>
      </trkpt>
      <trkpt lat="43.41143" lon="6.53683">
        <ele>275</ele>
        <time>2020-05-30T09:36:08.000Z</time>
      </trkpt>
      <trkpt lat="43.4114" lon="6.53684">
        <ele>275.79998779297</ele>
        <time>2020-05-30T09:36:10.000Z</time>
      </trkpt>
      <trkpt lat="43.41138" lon="6.53684">
        <ele>276</ele>
        <time>2020-05-30T09:36:11.000Z</time>
      </trkpt>
      <trkpt lat="43.41131" lon="6.53684">
        <ele>277.20001220703</ele>
        <time>2020-05-30T09:36:15.000Z</time>
      </trkpt>
      <trkpt lat="43.41128" lon="6.53685">
        <ele>277.79998779297</ele>
        <time>2020-05-30T09:36:17.000Z</time>
      </trkpt>
      <trkpt lat="43.41124" lon="6.53684">
        <ele>278.39999389648</ele>
        <time>2020-05-30T09:36:19.000Z</time>
      </trkpt>
      <trkpt lat="43.41117" lon="6.53685">
        <ele>279.60000610352</ele>
        <time>2020-05-30T09:36:23.000Z</time>
      </trkpt>
      <trkpt lat="43.41112" lon="6.53685">
        <ele>280.60000610352</ele>
        <time>2020-05-30T09:36:26.000Z</time>
      </trkpt>
      <trkpt lat="43.41107" lon="6.53686">
        <ele>282</ele>
        <time>2020-05-30T09:36:29.000Z</time>
      </trkpt>
      <trkpt lat="43.41103" lon="6.53686">
        <ele>282.79998779297</ele>
        <time>2020-05-30T09:36:31.000Z</time>
      </trkpt>
      <trkpt lat="43.41101" lon="6.53686">
        <ele>283.20001220703</ele>
        <time>2020-05-30T09:36:32.000Z</time>
      </trkpt>
      <trkpt lat="43.41093" lon="6.53687">
        <ele>284.39999389648</ele>
        <time>2020-05-30T09:36:37.000Z</time>
      </trkpt>
      <trkpt lat="43.41087" lon="6.53686">
        <ele>285.39999389648</ele>
        <time>2020-05-30T09:36:41.000Z</time>
      </trkpt>
      <trkpt lat="43.41085" lon="6.53686">
        <ele>285.60000610352</ele>
        <time>2020-05-30T09:36:42.000Z</time>
      </trkpt>
      <trkpt lat="43.41069" lon="6.53692">
        <ele>286</ele>
        <time>2020-05-30T09:36:48.000Z</time>
      </trkpt>
      <trkpt lat="43.41058" lon="6.53698">
        <ele>286.39999389648</ele>
        <time>2020-05-30T09:36:53.000Z</time>
      </trkpt>
      <trkpt lat="43.41052" lon="6.53702">
        <ele>287.20001220703</ele>
        <time>2020-05-30T09:36:56.000Z</time>
      </trkpt>
      <trkpt lat="43.41049" lon="6.53704">
        <ele>287.39999389648</ele>
        <time>2020-05-30T09:36:57.000Z</time>
      </trkpt>
      <trkpt lat="43.41036" lon="6.53715">
        <ele>288.60000610352</ele>
        <time>2020-05-30T09:37:03.000Z</time>
      </trkpt>
      <trkpt lat="43.41028" lon="6.53723">
        <ele>289.20001220703</ele>
        <time>2020-05-30T09:37:07.000Z</time>
      </trkpt>
      <trkpt lat="43.41019" lon="6.53728">
        <ele>289.60000610352</ele>
        <time>2020-05-30T09:37:11.000Z</time>
      </trkpt>
      <trkpt lat="43.41017" lon="6.5373">
        <ele>289.79998779297</ele>
        <time>2020-05-30T09:37:12.000Z</time>
      </trkpt>
      <trkpt lat="43.41004" lon="6.53738">
        <ele>291</ele>
        <time>2020-05-30T09:37:17.000Z</time>
      </trkpt>
      <trkpt lat="43.40997" lon="6.53744">
        <ele>292.20001220703</ele>
        <time>2020-05-30T09:37:20.000Z</time>
      </trkpt>
      <trkpt lat="43.40985" lon="6.53751">
        <ele>293.39999389648</ele>
        <time>2020-05-30T09:37:24.000Z</time>
      </trkpt>
      <trkpt lat="43.40978" lon="6.53755">
        <ele>295</ele>
        <time>2020-05-30T09:37:27.000Z</time>
      </trkpt>
      <trkpt lat="43.40977" lon="6.53757">
        <ele>295.39999389648</ele>
        <time>2020-05-30T09:37:28.000Z</time>
      </trkpt>
      <trkpt lat="43.40973" lon="6.53759">
        <ele>296</ele>
        <time>2020-05-30T09:37:30.000Z</time>
      </trkpt>
      <trkpt lat="43.40966" lon="6.53761">
        <ele>296.79998779297</ele>
        <time>2020-05-30T09:37:34.000Z</time>
      </trkpt>
      <trkpt lat="43.40964" lon="6.53761">
        <ele>297.20001220703</ele>
        <time>2020-05-30T09:37:35.000Z</time>
      </trkpt>
      <trkpt lat="43.40952" lon="6.5376">
        <ele>298.20001220703</ele>
        <time>2020-05-30T09:37:41.000Z</time>
      </trkpt>
      <trkpt lat="43.4094" lon="6.53754">
        <ele>298.79998779297</ele>
        <time>2020-05-30T09:37:47.000Z</time>
      </trkpt>
      <trkpt lat="43.40916" lon="6.53737">
        <ele>297.39999389648</ele>
        <time>2020-05-30T09:37:54.000Z</time>
      </trkpt>
      <trkpt lat="43.40913" lon="6.53735">
        <ele>297</ele>
        <time>2020-05-30T09:37:55.000Z</time>
      </trkpt>
      <trkpt lat="43.40907" lon="6.5373">
        <ele>296</ele>
        <time>2020-05-30T09:37:57.000Z</time>
      </trkpt>
      <trkpt lat="43.40904" lon="6.53728">
        <ele>295.60000610352</ele>
        <time>2020-05-30T09:37:58.000Z</time>
      </trkpt>
      <trkpt lat="43.40886" lon="6.53715">
        <ele>295</ele>
        <time>2020-05-30T09:38:03.000Z</time>
      </trkpt>
      <trkpt lat="43.40866" lon="6.53704">
        <ele>295.39999389648</ele>
        <time>2020-05-30T09:38:10.000Z</time>
      </trkpt>
      <trkpt lat="43.4085" lon="6.53695">
        <ele>296.60000610352</ele>
        <time>2020-05-30T09:38:16.000Z</time>
      </trkpt>
      <trkpt lat="43.40848" lon="6.53694">
        <ele>296.79998779297</ele>
        <time>2020-05-30T09:38:17.000Z</time>
      </trkpt>
      <trkpt lat="43.40835" lon="6.53689">
        <ele>297.79998779297</ele>
        <time>2020-05-30T09:38:22.000Z</time>
      </trkpt>
      <trkpt lat="43.40833" lon="6.53688">
        <ele>298</ele>
        <time>2020-05-30T09:38:23.000Z</time>
      </trkpt>
      <trkpt lat="43.40828" lon="6.53684">
        <ele>298.79998779297</ele>
        <time>2020-05-30T09:38:26.000Z</time>
      </trkpt>
      <trkpt lat="43.40824" lon="6.53682">
        <ele>299.60000610352</ele>
        <time>2020-05-30T09:38:28.000Z</time>
      </trkpt>
      <trkpt lat="43.40821" lon="6.53681">
        <ele>300.20001220703</ele>
        <time>2020-05-30T09:38:29.000Z</time>
      </trkpt>
      <trkpt lat="43.40816" lon="6.53678">
        <ele>301.39999389648</ele>
        <time>2020-05-30T09:38:32.000Z</time>
      </trkpt>
      <trkpt lat="43.40812" lon="6.53676">
        <ele>302.20001220703</ele>
        <time>2020-05-30T09:38:34.000Z</time>
      </trkpt>
      <trkpt lat="43.4081" lon="6.53675">
        <ele>302.60000610352</ele>
        <time>2020-05-30T09:38:35.000Z</time>
      </trkpt>
      <trkpt lat="43.40804" lon="6.53672">
        <ele>303.79998779297</ele>
        <time>2020-05-30T09:38:38.000Z</time>
      </trkpt>
      <trkpt lat="43.40798" lon="6.5367">
        <ele>305</ele>
        <time>2020-05-30T09:38:41.000Z</time>
      </trkpt>
      <trkpt lat="43.40791" lon="6.53669">
        <ele>306</ele>
        <time>2020-05-30T09:38:44.000Z</time>
      </trkpt>
      <trkpt lat="43.40785" lon="6.53668">
        <ele>307.79998779297</ele>
        <time>2020-05-30T09:38:47.000Z</time>
      </trkpt>
      <trkpt lat="43.40781" lon="6.53669">
        <ele>309</ele>
        <time>2020-05-30T09:38:49.000Z</time>
      </trkpt>
      <trkpt lat="43.40775" lon="6.53668">
        <ele>310.20001220703</ele>
        <time>2020-05-30T09:38:52.000Z</time>
      </trkpt>
      <trkpt lat="43.40762" lon="6.53667">
        <ele>311.39999389648</ele>
        <time>2020-05-30T09:38:58.000Z</time>
      </trkpt>
      <trkpt lat="43.40752" lon="6.53668">
        <ele>312.60000610352</ele>
        <time>2020-05-30T09:39:03.000Z</time>
      </trkpt>
      <trkpt lat="43.40748" lon="6.53668">
        <ele>313.60000610352</ele>
        <time>2020-05-30T09:39:05.000Z</time>
      </trkpt>
      <trkpt lat="43.40744" lon="6.53669">
        <ele>314.79998779297</ele>
        <time>2020-05-30T09:39:07.000Z</time>
      </trkpt>
      <trkpt lat="43.40739" lon="6.53669">
        <ele>316</ele>
        <time>2020-05-30T09:39:10.000Z</time>
      </trkpt>
      <trkpt lat="43.40735" lon="6.53669">
        <ele>316.79998779297</ele>
        <time>2020-05-30T09:39:12.000Z</time>
      </trkpt>
      <trkpt lat="43.40732" lon="6.5367">
        <ele>317.20001220703</ele>
        <time>2020-05-30T09:39:14.000Z</time>
      </trkpt>
      <trkpt lat="43.40718" lon="6.53674">
        <ele>318.39999389648</ele>
        <time>2020-05-30T09:39:21.000Z</time>
      </trkpt>
      <trkpt lat="43.40708" lon="6.53677">
        <ele>319.39999389648</ele>
        <time>2020-05-30T09:39:26.000Z</time>
      </trkpt>
      <trkpt lat="43.40696" lon="6.5368">
        <ele>319.60000610352</ele>
        <time>2020-05-30T09:39:31.000Z</time>
      </trkpt>
      <trkpt lat="43.40679" lon="6.53686">
        <ele>319</ele>
        <time>2020-05-30T09:39:36.000Z</time>
      </trkpt>
      <trkpt lat="43.40655" lon="6.5369">
        <ele>320</ele>
        <time>2020-05-30T09:39:45.000Z</time>
      </trkpt>
      <trkpt lat="43.40651" lon="6.53691">
        <ele>320.79998779297</ele>
        <time>2020-05-30T09:39:47.000Z</time>
      </trkpt>
      <trkpt lat="43.40642" lon="6.53692">
        <ele>322.20001220703</ele>
        <time>2020-05-30T09:39:51.000Z</time>
      </trkpt>
      <trkpt lat="43.40637" lon="6.53691">
        <ele>322.60000610352</ele>
        <time>2020-05-30T09:39:53.000Z</time>
      </trkpt>
      <trkpt lat="43.40632" lon="6.53691">
        <ele>323.39999389648</ele>
        <time>2020-05-30T09:39:55.000Z</time>
      </trkpt>
      <trkpt lat="43.40618" lon="6.53691">
        <ele>324.79998779297</ele>
        <time>2020-05-30T09:40:01.000Z</time>
      </trkpt>
      <trkpt lat="43.40614" lon="6.53691">
        <ele>326</ele>
        <time>2020-05-30T09:40:03.000Z</time>
      </trkpt>
      <trkpt lat="43.40609" lon="6.53691">
        <ele>327.39999389648</ele>
        <time>2020-05-30T09:40:05.000Z</time>
      </trkpt>
      <trkpt lat="43.40604" lon="6.53691">
        <ele>328.60000610352</ele>
        <time>2020-05-30T09:40:07.000Z</time>
      </trkpt>
      <trkpt lat="43.406" lon="6.53691">
        <ele>329.79998779297</ele>
        <time>2020-05-30T09:40:09.000Z</time>
      </trkpt>
      <trkpt lat="43.40595" lon="6.53691">
        <ele>331.39999389648</ele>
        <time>2020-05-30T09:40:12.000Z</time>
      </trkpt>
      <trkpt lat="43.4059" lon="6.53692">
        <ele>332.60000610352</ele>
        <time>2020-05-30T09:40:15.000Z</time>
      </trkpt>
      <trkpt lat="43.40584" lon="6.53691">
        <ele>333.60000610352</ele>
        <time>2020-05-30T09:40:18.000Z</time>
      </trkpt>
      <trkpt lat="43.40578" lon="6.53691">
        <ele>334.79998779297</ele>
        <time>2020-05-30T09:40:21.000Z</time>
      </trkpt>
      <trkpt lat="43.40574" lon="6.53691">
        <ele>336.20001220703</ele>
        <time>2020-05-30T09:40:23.000Z</time>
      </trkpt>
      <trkpt lat="43.40571" lon="6.5369">
        <ele>337.20001220703</ele>
        <time>2020-05-30T09:40:25.000Z</time>
      </trkpt>
      <trkpt lat="43.40567" lon="6.53691">
        <ele>338.20001220703</ele>
        <time>2020-05-30T09:40:27.000Z</time>
      </trkpt>
      <trkpt lat="43.40564" lon="6.53691">
        <ele>339.20001220703</ele>
        <time>2020-05-30T09:40:29.000Z</time>
      </trkpt>
      <trkpt lat="43.40562" lon="6.53691">
        <ele>339.39999389648</ele>
        <time>2020-05-30T09:40:30.000Z</time>
      </trkpt>
      <trkpt lat="43.40557" lon="6.53691">
        <ele>340.60000610352</ele>
        <time>2020-05-30T09:40:33.000Z</time>
      </trkpt>
      <trkpt lat="43.40553" lon="6.53691">
        <ele>341.20001220703</ele>
        <time>2020-05-30T09:40:35.000Z</time>
      </trkpt>
      <trkpt lat="43.4055" lon="6.5369">
        <ele>341.60000610352</ele>
        <time>2020-05-30T09:40:37.000Z</time>
      </trkpt>
      <trkpt lat="43.40546" lon="6.53691">
        <ele>343</ele>
        <time>2020-05-30T09:40:40.000Z</time>
      </trkpt>
      <trkpt lat="43.40544" lon="6.53692">
        <ele>343.60000610352</ele>
        <time>2020-05-30T09:40:41.000Z</time>
      </trkpt>
      <trkpt lat="43.40542" lon="6.53692">
        <ele>344.20001220703</ele>
        <time>2020-05-30T09:40:42.000Z</time>
      </trkpt>
      <trkpt lat="43.40537" lon="6.53692">
        <ele>345.79998779297</ele>
        <time>2020-05-30T09:40:45.000Z</time>
      </trkpt>
      <trkpt lat="43.40532" lon="6.53693">
        <ele>346.79998779297</ele>
        <time>2020-05-30T09:40:48.000Z</time>
      </trkpt>
      <trkpt lat="43.40531" lon="6.53694">
        <ele>347</ele>
        <time>2020-05-30T09:40:49.000Z</time>
      </trkpt>
      <trkpt lat="43.40524" lon="6.53697">
        <ele>348.39999389648</ele>
        <time>2020-05-30T09:40:53.000Z</time>
      </trkpt>
      <trkpt lat="43.40522" lon="6.53698">
        <ele>348.79998779297</ele>
        <time>2020-05-30T09:40:54.000Z</time>
      </trkpt>
      <trkpt lat="43.4052" lon="6.537">
        <ele>349.60000610352</ele>
        <time>2020-05-30T09:40:56.000Z</time>
      </trkpt>
      <trkpt lat="43.40516" lon="6.53702">
        <ele>351</ele>
        <time>2020-05-30T09:40:58.000Z</time>
      </trkpt>
      <trkpt lat="43.40512" lon="6.53703">
        <ele>352.20001220703</ele>
        <time>2020-05-30T09:41:00.000Z</time>
      </trkpt>
      <trkpt lat="43.40507" lon="6.53705">
        <ele>353.39999389648</ele>
        <time>2020-05-30T09:41:03.000Z</time>
      </trkpt>
      <trkpt lat="43.40501" lon="6.5371">
        <ele>354.39999389648</ele>
        <time>2020-05-30T09:41:07.000Z</time>
      </trkpt>
      <trkpt lat="43.40497" lon="6.53714">
        <ele>355.39999389648</ele>
        <time>2020-05-30T09:41:10.000Z</time>
      </trkpt>
      <trkpt lat="43.40492" lon="6.53719">
        <ele>356.79998779297</ele>
        <time>2020-05-30T09:41:14.000Z</time>
      </trkpt>
      <trkpt lat="43.4049" lon="6.5372">
        <ele>357.39999389648</ele>
        <time>2020-05-30T09:41:16.000Z</time>
      </trkpt>
      <trkpt lat="43.4049" lon="6.5372">
        <ele>358</ele>
        <time>2020-05-30T09:41:17.000Z</time>
      </trkpt>
      <trkpt lat="43.40488" lon="6.53721">
        <ele>359</ele>
        <time>2020-05-30T09:41:21.000Z</time>
      </trkpt>
      <trkpt lat="43.40489" lon="6.53721">
        <ele>359</ele>
        <time>2020-05-30T09:41:32.000Z</time>
      </trkpt>
      <trkpt lat="43.40488" lon="6.53722">
        <ele>358.79998779297</ele>
        <time>2020-05-30T09:41:43.000Z</time>
      </trkpt>
      <trkpt lat="43.40488" lon="6.53724">
        <ele>358.79998779297</ele>
        <time>2020-05-30T09:41:51.000Z</time>
      </trkpt>
      <trkpt lat="43.40487" lon="6.53724">
        <ele>358.20001220703</ele>
        <time>2020-05-30T09:41:57.000Z</time>
      </trkpt>
      <trkpt lat="43.40487" lon="6.53724">
        <ele>358</ele>
        <time>2020-05-30T09:42:03.000Z</time>
      </trkpt>
      <trkpt lat="43.40487" lon="6.53725">
        <ele>358</ele>
        <time>2020-05-30T09:42:05.000Z</time>
      </trkpt>
      <trkpt lat="43.40486" lon="6.53725">
        <ele>358.20001220703</ele>
        <time>2020-05-30T09:42:12.000Z</time>
      </trkpt>
      <trkpt lat="43.40486" lon="6.53724">
        <ele>358.60000610352</ele>
        <time>2020-05-30T09:42:25.000Z</time>
      </trkpt>
      <trkpt lat="43.40486" lon="6.53724">
        <ele>357</ele>
        <time>2020-05-30T09:42:27.000Z</time>
      </trkpt>
      <trkpt lat="43.40486" lon="6.53724">
        <ele>355.60000610352</ele>
        <time>2020-05-30T09:42:28.000Z</time>
      </trkpt>
      <trkpt lat="43.40486" lon="6.53724">
        <ele>354</ele>
        <time>2020-05-30T09:42:29.000Z</time>
      </trkpt>
      <trkpt lat="43.40486" lon="6.53724">
        <ele>351.79998779297</ele>
        <time>2020-05-30T09:42:30.000Z</time>
      </trkpt>
      <trkpt lat="43.40486" lon="6.53723">
        <ele>349.79998779297</ele>
        <time>2020-05-30T09:42:31.000Z</time>
      </trkpt>
      <trkpt lat="43.40486" lon="6.53723">
        <ele>348.20001220703</ele>
        <time>2020-05-30T09:42:32.000Z</time>
      </trkpt>
      <trkpt lat="43.40486" lon="6.53723">
        <ele>346.79998779297</ele>
        <time>2020-05-30T09:42:33.000Z</time>
      </trkpt>
      <trkpt lat="43.40486" lon="6.53723">
        <ele>345</ele>
        <time>2020-05-30T09:42:35.000Z</time>
      </trkpt>
      <trkpt lat="43.40486" lon="6.53723">
        <ele>343.60000610352</ele>
        <time>2020-05-30T09:42:37.000Z</time>
      </trkpt>
      <trkpt lat="43.40486" lon="6.53723">
        <ele>342.39999389648</ele>
        <time>2020-05-30T09:42:39.000Z</time>
      </trkpt>
      <trkpt lat="43.40486" lon="6.53723">
        <ele>341.39999389648</ele>
        <time>2020-05-30T09:42:41.000Z</time>
      </trkpt>
      <trkpt lat="43.40486" lon="6.53723">
        <ele>339.20001220703</ele>
        <time>2020-05-30T09:42:43.000Z</time>
      </trkpt>
      <trkpt lat="43.40486" lon="6.53723">
        <ele>338</ele>
        <time>2020-05-30T09:42:44.000Z</time>
      </trkpt>
      <trkpt lat="43.40486" lon="6.53723">
        <ele>336.79998779297</ele>
        <time>2020-05-30T09:42:46.000Z</time>
      </trkpt>
      <trkpt lat="43.40486" lon="6.53723">
        <ele>335.60000610352</ele>
        <time>2020-05-30T09:42:47.000Z</time>
      </trkpt>
      <trkpt lat="43.40486" lon="6.53723">
        <ele>337.39999389648</ele>
        <time>2020-05-30T09:42:51.000Z</time>
      </trkpt>
      <trkpt lat="43.40486" lon="6.53723">
        <ele>339</ele>
        <time>2020-05-30T09:42:52.000Z</time>
      </trkpt>
      <trkpt lat="43.40486" lon="6.53723">
        <ele>341.20001220703</ele>
        <time>2020-05-30T09:42:53.000Z</time>
      </trkpt>
      <trkpt lat="43.40486" lon="6.53723">
        <ele>343.60000610352</ele>
        <time>2020-05-30T09:42:54.000Z</time>
      </trkpt>
      <trkpt lat="43.40486" lon="6.53723">
        <ele>346.39999389648</ele>
        <time>2020-05-30T09:42:55.000Z</time>
      </trkpt>
      <trkpt lat="43.40485" lon="6.53724">
        <ele>347.20001220703</ele>
        <time>2020-05-30T09:43:09.000Z</time>
      </trkpt>
      <trkpt lat="43.40485" lon="6.53724">
        <ele>347.39999389648</ele>
        <time>2020-05-30T09:43:16.000Z</time>
      </trkpt>
      <trkpt lat="43.40485" lon="6.53724">
        <ele>348.60000610352</ele>
        <time>2020-05-30T09:43:36.000Z</time>
      </trkpt>
      <trkpt lat="43.40486" lon="6.53723">
        <ele>348.79998779297</ele>
        <time>2020-05-30T09:43:45.000Z</time>
      </trkpt>
      <trkpt lat="43.40486" lon="6.53723">
        <ele>349.20001220703</ele>
        <time>2020-05-30T09:43:51.000Z</time>
      </trkpt>
      <trkpt lat="43.40486" lon="6.53723">
        <ele>349.60000610352</ele>
        <time>2020-05-30T09:43:59.000Z</time>
      </trkpt>
      <trkpt lat="43.40487" lon="6.53723">
        <ele>349.79998779297</ele>
        <time>2020-05-30T09:44:06.000Z</time>
      </trkpt>
      <trkpt lat="43.40487" lon="6.53723">
        <ele>349</ele>
        <time>2020-05-30T09:44:12.000Z</time>
      </trkpt>
      <trkpt lat="43.40486" lon="6.53722">
        <ele>349.20001220703</ele>
        <time>2020-05-30T09:44:20.000Z</time>
      </trkpt>
      <trkpt lat="43.40484" lon="6.53722">
        <ele>349</ele>
        <time>2020-05-30T09:44:23.000Z</time>
      </trkpt>
      <trkpt lat="43.40483" lon="6.53722">
        <ele>348.79998779297</ele>
        <time>2020-05-30T09:44:25.000Z</time>
      </trkpt>
      <trkpt lat="43.40481" lon="6.53722">
        <ele>349</ele>
        <time>2020-05-30T09:44:31.000Z</time>
      </trkpt>
      <trkpt lat="43.40481" lon="6.53721">
        <ele>350.60000610352</ele>
        <time>2020-05-30T09:44:43.000Z</time>
      </trkpt>
      <trkpt lat="43.40481" lon="6.53722">
        <ele>351.20001220703</ele>
        <time>2020-05-30T09:44:48.000Z</time>
      </trkpt>
      <trkpt lat="43.40481" lon="6.53722">
        <ele>351.60000610352</ele>
        <time>2020-05-30T09:44:51.000Z</time>
      </trkpt>
      <trkpt lat="43.40481" lon="6.53722">
        <ele>352.60000610352</ele>
        <time>2020-05-30T09:45:00.000Z</time>
      </trkpt>
      <trkpt lat="43.40481" lon="6.53722">
        <ele>353.39999389648</ele>
        <time>2020-05-30T09:45:05.000Z</time>
      </trkpt>
      <trkpt lat="43.4048" lon="6.53722">
        <ele>353.79998779297</ele>
        <time>2020-05-30T09:45:08.000Z</time>
      </trkpt>
      <trkpt lat="43.4048" lon="6.53722">
        <ele>354.79998779297</ele>
        <time>2020-05-30T09:45:15.000Z</time>
      </trkpt>
      <trkpt lat="43.4048" lon="6.53722">
        <ele>355</ele>
        <time>2020-05-30T09:45:18.000Z</time>
      </trkpt>
      <trkpt lat="43.4048" lon="6.53721">
        <ele>355.79998779297</ele>
        <time>2020-05-30T09:45:23.000Z</time>
      </trkpt>
      <trkpt lat="43.40481" lon="6.53722">
        <ele>356.60000610352</ele>
        <time>2020-05-30T09:45:29.000Z</time>
      </trkpt>
      <trkpt lat="43.40482" lon="6.53723">
        <ele>357</ele>
        <time>2020-05-30T09:45:31.000Z</time>
      </trkpt>
      <trkpt lat="43.40481" lon="6.53723">
        <ele>358.20001220703</ele>
        <time>2020-05-30T09:45:38.000Z</time>
      </trkpt>
      <trkpt lat="43.40482" lon="6.53722">
        <ele>358.20001220703</ele>
        <time>2020-05-30T09:45:46.000Z</time>
      </trkpt>
      <trkpt lat="43.40482" lon="6.53721">
        <ele>358</ele>
        <time>2020-05-30T09:45:54.000Z</time>
      </trkpt>
      <trkpt lat="43.40483" lon="6.53721">
        <ele>357.79998779297</ele>
        <time>2020-05-30T09:46:02.000Z</time>
      </trkpt>
      <trkpt lat="43.40483" lon="6.53722">
        <ele>358</ele>
        <time>2020-05-30T09:46:09.000Z</time>
      </trkpt>
      <trkpt lat="43.40484" lon="6.53722">
        <ele>358.20001220703</ele>
        <time>2020-05-30T09:46:16.000Z</time>
      </trkpt>
      <trkpt lat="43.40484" lon="6.53722">
        <ele>357.79998779297</ele>
        <time>2020-05-30T09:46:33.000Z</time>
      </trkpt>
      <trkpt lat="43.40484" lon="6.53723">
        <ele>358.39999389648</ele>
        <time>2020-05-30T09:46:46.000Z</time>
      </trkpt>
      <trkpt lat="43.40483" lon="6.53723">
        <ele>358.20001220703</ele>
        <time>2020-05-30T09:46:52.000Z</time>
      </trkpt>
      <trkpt lat="43.40483" lon="6.53723">
        <ele>358.39999389648</ele>
        <time>2020-05-30T09:46:59.000Z</time>
      </trkpt>
      <trkpt lat="43.40483" lon="6.53723">
        <ele>358.20001220703</ele>
        <time>2020-05-30T09:47:06.000Z</time>
      </trkpt>
      <trkpt lat="43.40482" lon="6.53722">
        <ele>358.39999389648</ele>
        <time>2020-05-30T09:47:11.000Z</time>
      </trkpt>
      <trkpt lat="43.40482" lon="6.53722">
        <ele>358.60000610352</ele>
        <time>2020-05-30T09:47:20.000Z</time>
      </trkpt>
      <trkpt lat="43.40482" lon="6.53722">
        <ele>358.60000610352</ele>
        <time>2020-05-30T09:47:30.000Z</time>
      </trkpt>
      <trkpt lat="43.40481" lon="6.53722">
        <ele>358.39999389648</ele>
        <time>2020-05-30T09:47:35.000Z</time>
      </trkpt>
      <trkpt lat="43.40482" lon="6.53721">
        <ele>358.39999389648</ele>
        <time>2020-05-30T09:47:44.000Z</time>
      </trkpt>
      <trkpt lat="43.40482" lon="6.53721">
        <ele>358.39999389648</ele>
        <time>2020-05-30T09:47:55.000Z</time>
      </trkpt>
      <trkpt lat="43.40483" lon="6.53721">
        <ele>358</ele>
        <time>2020-05-30T09:48:02.000Z</time>
      </trkpt>
      <trkpt lat="43.40483" lon="6.53721">
        <ele>357.39999389648</ele>
        <time>2020-05-30T09:48:09.000Z</time>
      </trkpt>
      <trkpt lat="43.40484" lon="6.53721">
        <ele>357.60000610352</ele>
        <time>2020-05-30T09:48:16.000Z</time>
      </trkpt>
      <trkpt lat="43.40485" lon="6.53721">
        <ele>357.60000610352</ele>
        <time>2020-05-30T09:48:17.000Z</time>
      </trkpt>
      <trkpt lat="43.40486" lon="6.5372">
        <ele>358.20001220703</ele>
        <time>2020-05-30T09:48:22.000Z</time>
      </trkpt>
      <trkpt lat="43.40486" lon="6.53719">
        <ele>358.39999389648</ele>
        <time>2020-05-30T09:48:28.000Z</time>
      </trkpt>
      <trkpt lat="43.40487" lon="6.5372">
        <ele>358.20001220703</ele>
        <time>2020-05-30T09:48:38.000Z</time>
      </trkpt>
      <trkpt lat="43.40496" lon="6.53723">
        <ele>358.20001220703</ele>
        <time>2020-05-30T09:48:43.000Z</time>
      </trkpt>
      <trkpt lat="43.40503" lon="6.53729">
        <ele>356.79998779297</ele>
        <time>2020-05-30T09:48:47.000Z</time>
      </trkpt>
      <trkpt lat="43.40507" lon="6.53729">
        <ele>356</ele>
        <time>2020-05-30T09:48:48.000Z</time>
      </trkpt>
      <trkpt lat="43.4051" lon="6.53728">
        <ele>355.39999389648</ele>
        <time>2020-05-30T09:48:49.000Z</time>
      </trkpt>
      <trkpt lat="43.40514" lon="6.53722">
        <ele>354</ele>
        <time>2020-05-30T09:48:51.000Z</time>
      </trkpt>
      <trkpt lat="43.40516" lon="6.53718">
        <ele>353.60000610352</ele>
        <time>2020-05-30T09:48:52.000Z</time>
      </trkpt>
      <trkpt lat="43.40522" lon="6.53709">
        <ele>352.60000610352</ele>
        <time>2020-05-30T09:48:54.000Z</time>
      </trkpt>
      <trkpt lat="43.40526" lon="6.53706">
        <ele>352</ele>
        <time>2020-05-30T09:48:56.000Z</time>
      </trkpt>
      <trkpt lat="43.40532" lon="6.53709">
        <ele>351.60000610352</ele>
        <time>2020-05-30T09:48:58.000Z</time>
      </trkpt>
      <trkpt lat="43.40534" lon="6.53709">
        <ele>351.39999389648</ele>
        <time>2020-05-30T09:48:59.000Z</time>
      </trkpt>
      <trkpt lat="43.4054" lon="6.53703">
        <ele>350.60000610352</ele>
        <time>2020-05-30T09:49:01.000Z</time>
      </trkpt>
      <trkpt lat="43.40544" lon="6.53698">
        <ele>350</ele>
        <time>2020-05-30T09:49:02.000Z</time>
      </trkpt>
      <trkpt lat="43.40547" lon="6.53697">
        <ele>348.60000610352</ele>
        <time>2020-05-30T09:49:03.000Z</time>
      </trkpt>
      <trkpt lat="43.4055" lon="6.53698">
        <ele>347.20001220703</ele>
        <time>2020-05-30T09:49:04.000Z</time>
      </trkpt>
      <trkpt lat="43.40554" lon="6.53699">
        <ele>346</ele>
        <time>2020-05-30T09:49:05.000Z</time>
      </trkpt>
      <trkpt lat="43.40557" lon="6.53697">
        <ele>345.20001220703</ele>
        <time>2020-05-30T09:49:06.000Z</time>
      </trkpt>
      <trkpt lat="43.40562" lon="6.53697">
        <ele>344</ele>
        <time>2020-05-30T09:49:07.000Z</time>
      </trkpt>
      <trkpt lat="43.40566" lon="6.53698">
        <ele>343.20001220703</ele>
        <time>2020-05-30T09:49:08.000Z</time>
      </trkpt>
      <trkpt lat="43.40569" lon="6.53696">
        <ele>342.39999389648</ele>
        <time>2020-05-30T09:49:09.000Z</time>
      </trkpt>
      <trkpt lat="43.40571" lon="6.53698">
        <ele>341.20001220703</ele>
        <time>2020-05-30T09:49:10.000Z</time>
      </trkpt>
      <trkpt lat="43.40573" lon="6.53701">
        <ele>340</ele>
        <time>2020-05-30T09:49:11.000Z</time>
      </trkpt>
      <trkpt lat="43.4058" lon="6.537">
        <ele>338.60000610352</ele>
        <time>2020-05-30T09:49:13.000Z</time>
      </trkpt>
      <trkpt lat="43.40584" lon="6.53701">
        <ele>337.79998779297</ele>
        <time>2020-05-30T09:49:14.000Z</time>
      </trkpt>
      <trkpt lat="43.40588" lon="6.53701">
        <ele>337.60000610352</ele>
        <time>2020-05-30T09:49:15.000Z</time>
      </trkpt>
      <trkpt lat="43.40596" lon="6.53699">
        <ele>335.79998779297</ele>
        <time>2020-05-30T09:49:17.000Z</time>
      </trkpt>
      <trkpt lat="43.40598" lon="6.53701">
        <ele>335.20001220703</ele>
        <time>2020-05-30T09:49:18.000Z</time>
      </trkpt>
      <trkpt lat="43.40599" lon="6.53704">
        <ele>334.60000610352</ele>
        <time>2020-05-30T09:49:19.000Z</time>
      </trkpt>
      <trkpt lat="43.40604" lon="6.53703">
        <ele>332.79998779297</ele>
        <time>2020-05-30T09:49:21.000Z</time>
      </trkpt>
      <trkpt lat="43.40613" lon="6.53698">
        <ele>331.20001220703</ele>
        <time>2020-05-30T09:49:23.000Z</time>
      </trkpt>
      <trkpt lat="43.40618" lon="6.53699">
        <ele>330</ele>
        <time>2020-05-30T09:49:24.000Z</time>
      </trkpt>
      <trkpt lat="43.40624" lon="6.53702">
        <ele>328.79998779297</ele>
        <time>2020-05-30T09:49:25.000Z</time>
      </trkpt>
      <trkpt lat="43.40629" lon="6.53706">
        <ele>327.79998779297</ele>
        <time>2020-05-30T09:49:26.000Z</time>
      </trkpt>
      <trkpt lat="43.40635" lon="6.53707">
        <ele>327</ele>
        <time>2020-05-30T09:49:27.000Z</time>
      </trkpt>
      <trkpt lat="43.40641" lon="6.53707">
        <ele>326</ele>
        <time>2020-05-30T09:49:28.000Z</time>
      </trkpt>
      <trkpt lat="43.40648" lon="6.53707">
        <ele>324.79998779297</ele>
        <time>2020-05-30T09:49:29.000Z</time>
      </trkpt>
      <trkpt lat="43.40653" lon="6.53707">
        <ele>323.60000610352</ele>
        <time>2020-05-30T09:49:30.000Z</time>
      </trkpt>
      <trkpt lat="43.40658" lon="6.53707">
        <ele>322.79998779297</ele>
        <time>2020-05-30T09:49:31.000Z</time>
      </trkpt>
      <trkpt lat="43.40664" lon="6.53706">
        <ele>322.20001220703</ele>
        <time>2020-05-30T09:49:32.000Z</time>
      </trkpt>
      <trkpt lat="43.40669" lon="6.53708">
        <ele>322</ele>
        <time>2020-05-30T09:49:33.000Z</time>
      </trkpt>
      <trkpt lat="43.40673" lon="6.53711">
        <ele>321.79998779297</ele>
        <time>2020-05-30T09:49:34.000Z</time>
      </trkpt>
      <trkpt lat="43.40682" lon="6.53712">
        <ele>321.20001220703</ele>
        <time>2020-05-30T09:49:36.000Z</time>
      </trkpt>
      <trkpt lat="43.40684" lon="6.53716">
        <ele>321</ele>
        <time>2020-05-30T09:49:37.000Z</time>
      </trkpt>
      <trkpt lat="43.40683" lon="6.53725">
        <ele>319.79998779297</ele>
        <time>2020-05-30T09:49:39.000Z</time>
      </trkpt>
      <trkpt lat="43.40685" lon="6.53728">
        <ele>319</ele>
        <time>2020-05-30T09:49:40.000Z</time>
      </trkpt>
      <trkpt lat="43.40689" lon="6.5373">
        <ele>318.39999389648</ele>
        <time>2020-05-30T09:49:41.000Z</time>
      </trkpt>
      <trkpt lat="43.40694" lon="6.53733">
        <ele>317.39999389648</ele>
        <time>2020-05-30T09:49:42.000Z</time>
      </trkpt>
      <trkpt lat="43.40698" lon="6.53733">
        <ele>316.39999389648</ele>
        <time>2020-05-30T09:49:43.000Z</time>
      </trkpt>
      <trkpt lat="43.40704" lon="6.53734">
        <ele>315</ele>
        <time>2020-05-30T09:49:44.000Z</time>
      </trkpt>
      <trkpt lat="43.40709" lon="6.53736">
        <ele>313.79998779297</ele>
        <time>2020-05-30T09:49:45.000Z</time>
      </trkpt>
      <trkpt lat="43.40715" lon="6.53737">
        <ele>312.79998779297</ele>
        <time>2020-05-30T09:49:46.000Z</time>
      </trkpt>
      <trkpt lat="43.40722" lon="6.53737">
        <ele>312</ele>
        <time>2020-05-30T09:49:47.000Z</time>
      </trkpt>
      <trkpt lat="43.40728" lon="6.53737">
        <ele>311</ele>
        <time>2020-05-30T09:49:48.000Z</time>
      </trkpt>
      <trkpt lat="43.40739" lon="6.53733">
        <ele>309.79998779297</ele>
        <time>2020-05-30T09:49:50.000Z</time>
      </trkpt>
      <trkpt lat="43.40745" lon="6.5373">
        <ele>309</ele>
        <time>2020-05-30T09:49:51.000Z</time>
      </trkpt>
      <trkpt lat="43.40751" lon="6.53728">
        <ele>308.39999389648</ele>
        <time>2020-05-30T09:49:52.000Z</time>
      </trkpt>
      <trkpt lat="43.40766" lon="6.53723">
        <ele>307</ele>
        <time>2020-05-30T09:49:55.000Z</time>
      </trkpt>
      <trkpt lat="43.40771" lon="6.53723">
        <ele>306.39999389648</ele>
        <time>2020-05-30T09:49:56.000Z</time>
      </trkpt>
      <trkpt lat="43.4078" lon="6.53718">
        <ele>306</ele>
        <time>2020-05-30T09:49:58.000Z</time>
      </trkpt>
      <trkpt lat="43.40785" lon="6.53714">
        <ele>305.39999389648</ele>
        <time>2020-05-30T09:49:59.000Z</time>
      </trkpt>
      <trkpt lat="43.40803" lon="6.53713">
        <ele>305</ele>
        <time>2020-05-30T09:50:02.000Z</time>
      </trkpt>
      <trkpt lat="43.40811" lon="6.53716">
        <ele>304.60000610352</ele>
        <time>2020-05-30T09:50:03.000Z</time>
      </trkpt>
      <trkpt lat="43.40825" lon="6.5372">
        <ele>303</ele>
        <time>2020-05-30T09:50:05.000Z</time>
      </trkpt>
      <trkpt lat="43.40831" lon="6.53723">
        <ele>302</ele>
        <time>2020-05-30T09:50:06.000Z</time>
      </trkpt>
      <trkpt lat="43.40838" lon="6.53727">
        <ele>300.60000610352</ele>
        <time>2020-05-30T09:50:07.000Z</time>
      </trkpt>
      <trkpt lat="43.40845" lon="6.53728">
        <ele>299.39999389648</ele>
        <time>2020-05-30T09:50:08.000Z</time>
      </trkpt>
      <trkpt lat="43.40858" lon="6.53729">
        <ele>297.79998779297</ele>
        <time>2020-05-30T09:50:10.000Z</time>
      </trkpt>
      <trkpt lat="43.4087" lon="6.53725">
        <ele>296.39999389648</ele>
        <time>2020-05-30T09:50:12.000Z</time>
      </trkpt>
      <trkpt lat="43.40875" lon="6.53721">
        <ele>296</ele>
        <time>2020-05-30T09:50:13.000Z</time>
      </trkpt>
      <trkpt lat="43.40881" lon="6.53714">
        <ele>295</ele>
        <time>2020-05-30T09:50:15.000Z</time>
      </trkpt>
      <trkpt lat="43.40881" lon="6.53714">
        <ele>294.79998779297</ele>
        <time>2020-05-30T09:50:16.000Z</time>
      </trkpt>
      <trkpt lat="43.40882" lon="6.53714">
        <ele>295.79998779297</ele>
        <time>2020-05-30T09:50:22.000Z</time>
      </trkpt>
      <trkpt lat="43.40883" lon="6.53713">
        <ele>295.60000610352</ele>
        <time>2020-05-30T09:50:31.000Z</time>
      </trkpt>
      <trkpt lat="43.40883" lon="6.53713">
        <ele>295.39999389648</ele>
        <time>2020-05-30T09:50:38.000Z</time>
      </trkpt>
      <trkpt lat="43.40885" lon="6.5371">
        <ele>295.79998779297</ele>
        <time>2020-05-30T09:50:47.000Z</time>
      </trkpt>
      <trkpt lat="43.40892" lon="6.5371">
        <ele>295.79998779297</ele>
        <time>2020-05-30T09:50:50.000Z</time>
      </trkpt>
      <trkpt lat="43.40893" lon="6.53712">
        <ele>295.79998779297</ele>
        <time>2020-05-30T09:50:51.000Z</time>
      </trkpt>
      <trkpt lat="43.40896" lon="6.53714">
        <ele>295.60000610352</ele>
        <time>2020-05-30T09:50:53.000Z</time>
      </trkpt>
      <trkpt lat="43.40903" lon="6.53714">
        <ele>295.39999389648</ele>
        <time>2020-05-30T09:50:55.000Z</time>
      </trkpt>
      <trkpt lat="43.40915" lon="6.53717">
        <ele>295</ele>
        <time>2020-05-30T09:50:58.000Z</time>
      </trkpt>
      <trkpt lat="43.40919" lon="6.53718">
        <ele>294.79998779297</ele>
        <time>2020-05-30T09:50:59.000Z</time>
      </trkpt>
      <trkpt lat="43.40924" lon="6.53718">
        <ele>294.60000610352</ele>
        <time>2020-05-30T09:51:00.000Z</time>
      </trkpt>
      <trkpt lat="43.40935" lon="6.53717">
        <ele>294.20001220703</ele>
        <time>2020-05-30T09:51:03.000Z</time>
      </trkpt>
      <trkpt lat="43.4094" lon="6.53715">
        <ele>294.20001220703</ele>
        <time>2020-05-30T09:51:04.000Z</time>
      </trkpt>
      <trkpt lat="43.4095" lon="6.53716">
        <ele>293.79998779297</ele>
        <time>2020-05-30T09:51:06.000Z</time>
      </trkpt>
      <trkpt lat="43.40961" lon="6.53714">
        <ele>292.60000610352</ele>
        <time>2020-05-30T09:51:08.000Z</time>
      </trkpt>
      <trkpt lat="43.40972" lon="6.53714">
        <ele>291.39999389648</ele>
        <time>2020-05-30T09:51:10.000Z</time>
      </trkpt>
      <trkpt lat="43.40984" lon="6.53713">
        <ele>289.60000610352</ele>
        <time>2020-05-30T09:51:12.000Z</time>
      </trkpt>
      <trkpt lat="43.40989" lon="6.53712">
        <ele>289.20001220703</ele>
        <time>2020-05-30T09:51:13.000Z</time>
      </trkpt>
      <trkpt lat="43.40994" lon="6.5371">
        <ele>288.79998779297</ele>
        <time>2020-05-30T09:51:14.000Z</time>
      </trkpt>
      <trkpt lat="43.41" lon="6.53707">
        <ele>288.39999389648</ele>
        <time>2020-05-30T09:51:15.000Z</time>
      </trkpt>
      <trkpt lat="43.41005" lon="6.53706">
        <ele>288.20001220703</ele>
        <time>2020-05-30T09:51:16.000Z</time>
      </trkpt>
      <trkpt lat="43.41019" lon="6.53698">
        <ele>287.79998779297</ele>
        <time>2020-05-30T09:51:19.000Z</time>
      </trkpt>
      <trkpt lat="43.41028" lon="6.53692">
        <ele>287.39999389648</ele>
        <time>2020-05-30T09:51:21.000Z</time>
      </trkpt>
      <trkpt lat="43.41038" lon="6.53686">
        <ele>287</ele>
        <time>2020-05-30T09:51:23.000Z</time>
      </trkpt>
      <trkpt lat="43.41054" lon="6.53677">
        <ele>286.20001220703</ele>
        <time>2020-05-30T09:51:26.000Z</time>
      </trkpt>
      <trkpt lat="43.41059" lon="6.53669">
        <ele>285.79998779297</ele>
        <time>2020-05-30T09:51:27.000Z</time>
      </trkpt>
      <trkpt lat="43.41068" lon="6.53659">
        <ele>285</ele>
        <time>2020-05-30T09:51:29.000Z</time>
      </trkpt>
      <trkpt lat="43.41073" lon="6.53657">
        <ele>284.79998779297</ele>
        <time>2020-05-30T09:51:30.000Z</time>
      </trkpt>
      <trkpt lat="43.41085" lon="6.53659">
        <ele>284.60000610352</ele>
        <time>2020-05-30T09:51:33.000Z</time>
      </trkpt>
      <trkpt lat="43.4109" lon="6.53659">
        <ele>284.79998779297</ele>
        <time>2020-05-30T09:51:34.000Z</time>
      </trkpt>
      <trkpt lat="43.41095" lon="6.53663">
        <ele>285</ele>
        <time>2020-05-30T09:51:35.000Z</time>
      </trkpt>
      <trkpt lat="43.41105" lon="6.53669">
        <ele>284.79998779297</ele>
        <time>2020-05-30T09:51:37.000Z</time>
      </trkpt>
      <trkpt lat="43.41118" lon="6.53668">
        <ele>283.79998779297</ele>
        <time>2020-05-30T09:51:39.000Z</time>
      </trkpt>
      <trkpt lat="43.41123" lon="6.53668">
        <ele>283.20001220703</ele>
        <time>2020-05-30T09:51:40.000Z</time>
      </trkpt>
      <trkpt lat="43.41128" lon="6.53669">
        <ele>282.79998779297</ele>
        <time>2020-05-30T09:51:41.000Z</time>
      </trkpt>
      <trkpt lat="43.4114" lon="6.53663">
        <ele>280.60000610352</ele>
        <time>2020-05-30T09:51:43.000Z</time>
      </trkpt>
      <trkpt lat="43.41146" lon="6.53659">
        <ele>279.39999389648</ele>
        <time>2020-05-30T09:51:44.000Z</time>
      </trkpt>
      <trkpt lat="43.41156" lon="6.53656">
        <ele>278</ele>
        <time>2020-05-30T09:51:46.000Z</time>
      </trkpt>
      <trkpt lat="43.41161" lon="6.53654">
        <ele>276.60000610352</ele>
        <time>2020-05-30T09:51:47.000Z</time>
      </trkpt>
      <trkpt lat="43.41172" lon="6.53653">
        <ele>274.39999389648</ele>
        <time>2020-05-30T09:51:49.000Z</time>
      </trkpt>
      <trkpt lat="43.41179" lon="6.53654">
        <ele>273.39999389648</ele>
        <time>2020-05-30T09:51:50.000Z</time>
      </trkpt>
      <trkpt lat="43.41185" lon="6.53656">
        <ele>272.20001220703</ele>
        <time>2020-05-30T09:51:51.000Z</time>
      </trkpt>
      <trkpt lat="43.41193" lon="6.53657">
        <ele>271.20001220703</ele>
        <time>2020-05-30T09:51:52.000Z</time>
      </trkpt>
      <trkpt lat="43.412" lon="6.53657">
        <ele>270</ele>
        <time>2020-05-30T09:51:53.000Z</time>
      </trkpt>
      <trkpt lat="43.41214" lon="6.53653">
        <ele>268.20001220703</ele>
        <time>2020-05-30T09:51:55.000Z</time>
      </trkpt>
      <trkpt lat="43.41226" lon="6.53649">
        <ele>267</ele>
        <time>2020-05-30T09:51:57.000Z</time>
      </trkpt>
      <trkpt lat="43.41231" lon="6.53646">
        <ele>266.60000610352</ele>
        <time>2020-05-30T09:51:58.000Z</time>
      </trkpt>
      <trkpt lat="43.4125" lon="6.53643">
        <ele>266.60000610352</ele>
        <time>2020-05-30T09:52:01.000Z</time>
      </trkpt>
      <trkpt lat="43.41264" lon="6.53638">
        <ele>265.60000610352</ele>
        <time>2020-05-30T09:52:03.000Z</time>
      </trkpt>
      <trkpt lat="43.4127" lon="6.53638">
        <ele>265</ele>
        <time>2020-05-30T09:52:04.000Z</time>
      </trkpt>
      <trkpt lat="43.41275" lon="6.5364">
        <ele>264.60000610352</ele>
        <time>2020-05-30T09:52:05.000Z</time>
      </trkpt>
      <trkpt lat="43.41293" lon="6.53638">
        <ele>263.79998779297</ele>
        <time>2020-05-30T09:52:08.000Z</time>
      </trkpt>
      <trkpt lat="43.41298" lon="6.53639">
        <ele>263.60000610352</ele>
        <time>2020-05-30T09:52:09.000Z</time>
      </trkpt>
      <trkpt lat="43.4131" lon="6.53634">
        <ele>263.79998779297</ele>
        <time>2020-05-30T09:52:11.000Z</time>
      </trkpt>
      <trkpt lat="43.41317" lon="6.53633">
        <ele>263.20001220703</ele>
        <time>2020-05-30T09:52:12.000Z</time>
      </trkpt>
      <trkpt lat="43.41331" lon="6.53631">
        <ele>262.20001220703</ele>
        <time>2020-05-30T09:52:14.000Z</time>
      </trkpt>
      <trkpt lat="43.41338" lon="6.5363">
        <ele>261.39999389648</ele>
        <time>2020-05-30T09:52:15.000Z</time>
      </trkpt>
      <trkpt lat="43.41344" lon="6.53629">
        <ele>260.60000610352</ele>
        <time>2020-05-30T09:52:16.000Z</time>
      </trkpt>
      <trkpt lat="43.41357" lon="6.53625">
        <ele>259.79998779297</ele>
        <time>2020-05-30T09:52:18.000Z</time>
      </trkpt>
      <trkpt lat="43.41362" lon="6.53622">
        <ele>259.20001220703</ele>
        <time>2020-05-30T09:52:19.000Z</time>
      </trkpt>
      <trkpt lat="43.41367" lon="6.53618">
        <ele>259</ele>
        <time>2020-05-30T09:52:20.000Z</time>
      </trkpt>
      <trkpt lat="43.41375" lon="6.53604">
        <ele>258.39999389648</ele>
        <time>2020-05-30T09:52:23.000Z</time>
      </trkpt>
      <trkpt lat="43.41376" lon="6.53598">
        <ele>258.20001220703</ele>
        <time>2020-05-30T09:52:24.000Z</time>
      </trkpt>
      <trkpt lat="43.41375" lon="6.53586">
        <ele>257.79998779297</ele>
        <time>2020-05-30T09:52:26.000Z</time>
      </trkpt>
      <trkpt lat="43.41379" lon="6.53569">
        <ele>256.60000610352</ele>
        <time>2020-05-30T09:52:29.000Z</time>
      </trkpt>
      <trkpt lat="43.41381" lon="6.53566">
        <ele>256.20001220703</ele>
        <time>2020-05-30T09:52:30.000Z</time>
      </trkpt>
      <trkpt lat="43.41381" lon="6.53564">
        <ele>255.60000610352</ele>
        <time>2020-05-30T09:52:31.000Z</time>
      </trkpt>
      <trkpt lat="43.4138" lon="6.5356">
        <ele>255</ele>
        <time>2020-05-30T09:52:32.000Z</time>
      </trkpt>
      <trkpt lat="43.41381" lon="6.53554">
        <ele>254.39999389648</ele>
        <time>2020-05-30T09:52:33.000Z</time>
      </trkpt>
      <trkpt lat="43.41384" lon="6.53543">
        <ele>253</ele>
        <time>2020-05-30T09:52:35.000Z</time>
      </trkpt>
      <trkpt lat="43.41382" lon="6.5353">
        <ele>251.39999389648</ele>
        <time>2020-05-30T09:52:37.000Z</time>
      </trkpt>
      <trkpt lat="43.4138" lon="6.53523">
        <ele>250.60000610352</ele>
        <time>2020-05-30T09:52:38.000Z</time>
      </trkpt>
      <trkpt lat="43.41379" lon="6.53517">
        <ele>250.39999389648</ele>
        <time>2020-05-30T09:52:39.000Z</time>
      </trkpt>
      <trkpt lat="43.41377" lon="6.53504">
        <ele>250.19999694824</ele>
        <time>2020-05-30T09:52:41.000Z</time>
      </trkpt>
      <trkpt lat="43.41376" lon="6.53498">
        <ele>250</ele>
        <time>2020-05-30T09:52:42.000Z</time>
      </trkpt>
      <trkpt lat="43.41374" lon="6.53484">
        <ele>250.19999694824</ele>
        <time>2020-05-30T09:52:44.000Z</time>
      </trkpt>
      <trkpt lat="43.41377" lon="6.53473">
        <ele>249.39999389648</ele>
        <time>2020-05-30T09:52:46.000Z</time>
      </trkpt>
      <trkpt lat="43.41381" lon="6.53469">
        <ele>248.80000305176</ele>
        <time>2020-05-30T09:52:47.000Z</time>
      </trkpt>
      <trkpt lat="43.4139" lon="6.53462">
        <ele>247.60000610352</ele>
        <time>2020-05-30T09:52:49.000Z</time>
      </trkpt>
      <trkpt lat="43.41394" lon="6.53456">
        <ele>247.39999389648</ele>
        <time>2020-05-30T09:52:50.000Z</time>
      </trkpt>
      <trkpt lat="43.41404" lon="6.53444">
        <ele>246.60000610352</ele>
        <time>2020-05-30T09:52:52.000Z</time>
      </trkpt>
      <trkpt lat="43.41408" lon="6.53437">
        <ele>246.19999694824</ele>
        <time>2020-05-30T09:52:53.000Z</time>
      </trkpt>
      <trkpt lat="43.41417" lon="6.53427">
        <ele>245</ele>
        <time>2020-05-30T09:52:55.000Z</time>
      </trkpt>
      <trkpt lat="43.41427" lon="6.53415">
        <ele>243.60000610352</ele>
        <time>2020-05-30T09:52:57.000Z</time>
      </trkpt>
      <trkpt lat="43.41431" lon="6.53408">
        <ele>242.80000305176</ele>
        <time>2020-05-30T09:52:58.000Z</time>
      </trkpt>
      <trkpt lat="43.41436" lon="6.53401">
        <ele>242</ele>
        <time>2020-05-30T09:52:59.000Z</time>
      </trkpt>
      <trkpt lat="43.41445" lon="6.53391">
        <ele>240.39999389648</ele>
        <time>2020-05-30T09:53:01.000Z</time>
      </trkpt>
      <trkpt lat="43.41447" lon="6.53385">
        <ele>239.80000305176</ele>
        <time>2020-05-30T09:53:02.000Z</time>
      </trkpt>
      <trkpt lat="43.41449" lon="6.53379">
        <ele>239</ele>
        <time>2020-05-30T09:53:03.000Z</time>
      </trkpt>
      <trkpt lat="43.41454" lon="6.53367">
        <ele>237.80000305176</ele>
        <time>2020-05-30T09:53:05.000Z</time>
      </trkpt>
      <trkpt lat="43.41455" lon="6.5336">
        <ele>237.80000305176</ele>
        <time>2020-05-30T09:53:06.000Z</time>
      </trkpt>
      <trkpt lat="43.41456" lon="6.53352">
        <ele>237.60000610352</ele>
        <time>2020-05-30T09:53:07.000Z</time>
      </trkpt>
      <trkpt lat="43.41458" lon="6.53347">
        <ele>237.39999389648</ele>
        <time>2020-05-30T09:53:08.000Z</time>
      </trkpt>
      <trkpt lat="43.41459" lon="6.53338">
        <ele>236.80000305176</ele>
        <time>2020-05-30T09:53:10.000Z</time>
      </trkpt>
      <trkpt lat="43.41456" lon="6.5333">
        <ele>236.80000305176</ele>
        <time>2020-05-30T09:53:11.000Z</time>
      </trkpt>
      <trkpt lat="43.4145" lon="6.53317">
        <ele>236.19999694824</ele>
        <time>2020-05-30T09:53:13.000Z</time>
      </trkpt>
      <trkpt lat="43.41449" lon="6.53311">
        <ele>235.39999389648</ele>
        <time>2020-05-30T09:53:14.000Z</time>
      </trkpt>
      <trkpt lat="43.41448" lon="6.53293">
        <ele>234.39999389648</ele>
        <time>2020-05-30T09:53:17.000Z</time>
      </trkpt>
      <trkpt lat="43.41451" lon="6.53279">
        <ele>235.39999389648</ele>
        <time>2020-05-30T09:53:21.000Z</time>
      </trkpt>
      <trkpt lat="43.41454" lon="6.53275">
        <ele>237.19999694824</ele>
        <time>2020-05-30T09:53:23.000Z</time>
      </trkpt>
      <trkpt lat="43.41455" lon="6.53274">
        <ele>237.80000305176</ele>
        <time>2020-05-30T09:53:24.000Z</time>
      </trkpt>
      <trkpt lat="43.41456" lon="6.53273">
        <ele>238.80000305176</ele>
        <time>2020-05-30T09:53:25.000Z</time>
      </trkpt>
      <trkpt lat="43.41456" lon="6.53273">
        <ele>240</ele>
        <time>2020-05-30T09:53:27.000Z</time>
      </trkpt>
      <trkpt lat="43.41458" lon="6.53271">
        <ele>241</ele>
        <time>2020-05-30T09:53:35.000Z</time>
      </trkpt>
      <trkpt lat="43.41459" lon="6.5327">
        <ele>241.19999694824</ele>
        <time>2020-05-30T09:53:37.000Z</time>
      </trkpt>
      <trkpt lat="43.41463" lon="6.53265">
        <ele>241.39999389648</ele>
        <time>2020-05-30T09:53:40.000Z</time>
      </trkpt>
      <trkpt lat="43.41472" lon="6.53246">
        <ele>241.39999389648</ele>
        <time>2020-05-30T09:53:44.000Z</time>
      </trkpt>
      <trkpt lat="43.41476" lon="6.53241">
        <ele>241</ele>
        <time>2020-05-30T09:53:45.000Z</time>
      </trkpt>
      <trkpt lat="43.41489" lon="6.5323">
        <ele>240</ele>
        <time>2020-05-30T09:53:48.000Z</time>
      </trkpt>
      <trkpt lat="43.41504" lon="6.53226">
        <ele>238.60000610352</ele>
        <time>2020-05-30T09:53:51.000Z</time>
      </trkpt>
      <trkpt lat="43.41515" lon="6.53225">
        <ele>238.19999694824</ele>
        <time>2020-05-30T09:53:53.000Z</time>
      </trkpt>
      <trkpt lat="43.41525" lon="6.53226">
        <ele>237.39999389648</ele>
        <time>2020-05-30T09:53:55.000Z</time>
      </trkpt>
      <trkpt lat="43.41528" lon="6.53226">
        <ele>237</ele>
        <time>2020-05-30T09:53:56.000Z</time>
      </trkpt>
      <trkpt lat="43.41531" lon="6.53225">
        <ele>236.60000610352</ele>
        <time>2020-05-30T09:53:57.000Z</time>
      </trkpt>
      <trkpt lat="43.41534" lon="6.53221">
        <ele>236.19999694824</ele>
        <time>2020-05-30T09:53:58.000Z</time>
      </trkpt>
      <trkpt lat="43.41538" lon="6.53216">
        <ele>236</ele>
        <time>2020-05-30T09:53:59.000Z</time>
      </trkpt>
      <trkpt lat="43.41541" lon="6.53206">
        <ele>236</ele>
        <time>2020-05-30T09:54:02.000Z</time>
      </trkpt>
      <trkpt lat="43.41547" lon="6.53192">
        <ele>236.60000610352</ele>
        <time>2020-05-30T09:54:06.000Z</time>
      </trkpt>
      <trkpt lat="43.4155" lon="6.53188">
        <ele>236.80000305176</ele>
        <time>2020-05-30T09:54:08.000Z</time>
      </trkpt>
      <trkpt lat="43.41554" lon="6.53181">
        <ele>236.80000305176</ele>
        <time>2020-05-30T09:54:10.000Z</time>
      </trkpt>
      <trkpt lat="43.41557" lon="6.53176">
        <ele>236.80000305176</ele>
        <time>2020-05-30T09:54:11.000Z</time>
      </trkpt>
      <trkpt lat="43.4157" lon="6.53166">
        <ele>236.19999694824</ele>
        <time>2020-05-30T09:54:14.000Z</time>
      </trkpt>
      <trkpt lat="43.41568" lon="6.53168">
        <ele>236.19999694824</ele>
        <time>2020-05-30T09:54:15.000Z</time>
      </trkpt>
      <trkpt lat="43.41582" lon="6.53164">
        <ele>235.60000610352</ele>
        <time>2020-05-30T09:54:17.000Z</time>
      </trkpt>
      <trkpt lat="43.41587" lon="6.53163">
        <ele>235.19999694824</ele>
        <time>2020-05-30T09:54:18.000Z</time>
      </trkpt>
      <trkpt lat="43.41591" lon="6.5316">
        <ele>235</ele>
        <time>2020-05-30T09:54:19.000Z</time>
      </trkpt>
      <trkpt lat="43.41601" lon="6.53156">
        <ele>234.19999694824</ele>
        <time>2020-05-30T09:54:21.000Z</time>
      </trkpt>
      <trkpt lat="43.41606" lon="6.53155">
        <ele>234</ele>
        <time>2020-05-30T09:54:22.000Z</time>
      </trkpt>
      <trkpt lat="43.41617" lon="6.53154">
        <ele>233.19999694824</ele>
        <time>2020-05-30T09:54:24.000Z</time>
      </trkpt>
      <trkpt lat="43.41623" lon="6.53156">
        <ele>232.60000610352</ele>
        <time>2020-05-30T09:54:25.000Z</time>
      </trkpt>
      <trkpt lat="43.41633" lon="6.53159">
        <ele>231.80000305176</ele>
        <time>2020-05-30T09:54:27.000Z</time>
      </trkpt>
      <trkpt lat="43.41638" lon="6.53161">
        <ele>231.39999389648</ele>
        <time>2020-05-30T09:54:28.000Z</time>
      </trkpt>
      <trkpt lat="43.41647" lon="6.5316">
        <ele>230.60000610352</ele>
        <time>2020-05-30T09:54:30.000Z</time>
      </trkpt>
      <trkpt lat="43.41651" lon="6.53159">
        <ele>230.60000610352</ele>
        <time>2020-05-30T09:54:31.000Z</time>
      </trkpt>
      <trkpt lat="43.41657" lon="6.53157">
        <ele>230.39999389648</ele>
        <time>2020-05-30T09:54:32.000Z</time>
      </trkpt>
      <trkpt lat="43.41662" lon="6.53156">
        <ele>230.19999694824</ele>
        <time>2020-05-30T09:54:33.000Z</time>
      </trkpt>
      <trkpt lat="43.4167" lon="6.53155">
        <ele>229.80000305176</ele>
        <time>2020-05-30T09:54:35.000Z</time>
      </trkpt>
      <trkpt lat="43.41685" lon="6.53148">
        <ele>229.60000610352</ele>
        <time>2020-05-30T09:54:38.000Z</time>
      </trkpt>
      <trkpt lat="43.41692" lon="6.53137">
        <ele>229.19999694824</ele>
        <time>2020-05-30T09:54:41.000Z</time>
      </trkpt>
      <trkpt lat="43.41704" lon="6.53131">
        <ele>228.19999694824</ele>
        <time>2020-05-30T09:54:44.000Z</time>
      </trkpt>
      <trkpt lat="43.41713" lon="6.53121">
        <ele>227</ele>
        <time>2020-05-30T09:54:47.000Z</time>
      </trkpt>
      <trkpt lat="43.41716" lon="6.5312">
        <ele>226.60000610352</ele>
        <time>2020-05-30T09:54:48.000Z</time>
      </trkpt>
      <trkpt lat="43.41725" lon="6.53119">
        <ele>225.19999694824</ele>
        <time>2020-05-30T09:54:50.000Z</time>
      </trkpt>
      <trkpt lat="43.41729" lon="6.53121">
        <ele>224.39999389648</ele>
        <time>2020-05-30T09:54:51.000Z</time>
      </trkpt>
      <trkpt lat="43.41731" lon="6.53124">
        <ele>223.19999694824</ele>
        <time>2020-05-30T09:54:52.000Z</time>
      </trkpt>
      <trkpt lat="43.41733" lon="6.53129">
        <ele>222.19999694824</ele>
        <time>2020-05-30T09:54:53.000Z</time>
      </trkpt>
      <trkpt lat="43.41735" lon="6.53131">
        <ele>221.60000610352</ele>
        <time>2020-05-30T09:54:54.000Z</time>
      </trkpt>
      <trkpt lat="43.41739" lon="6.53132">
        <ele>221</ele>
        <time>2020-05-30T09:54:55.000Z</time>
      </trkpt>
      <trkpt lat="43.41744" lon="6.53134">
        <ele>220.60000610352</ele>
        <time>2020-05-30T09:54:56.000Z</time>
      </trkpt>
      <trkpt lat="43.41751" lon="6.53136">
        <ele>220.19999694824</ele>
        <time>2020-05-30T09:54:57.000Z</time>
      </trkpt>
      <trkpt lat="43.41755" lon="6.53137">
        <ele>219.60000610352</ele>
        <time>2020-05-30T09:54:58.000Z</time>
      </trkpt>
      <trkpt lat="43.4176" lon="6.53136">
        <ele>218.80000305176</ele>
        <time>2020-05-30T09:54:59.000Z</time>
      </trkpt>
      <trkpt lat="43.41765" lon="6.53136">
        <ele>218.19999694824</ele>
        <time>2020-05-30T09:55:00.000Z</time>
      </trkpt>
      <trkpt lat="43.4177" lon="6.53137">
        <ele>217.60000610352</ele>
        <time>2020-05-30T09:55:01.000Z</time>
      </trkpt>
      <trkpt lat="43.41776" lon="6.53139">
        <ele>217</ele>
        <time>2020-05-30T09:55:02.000Z</time>
      </trkpt>
      <trkpt lat="43.41787" lon="6.53142">
        <ele>216.60000610352</ele>
        <time>2020-05-30T09:55:04.000Z</time>
      </trkpt>
      <trkpt lat="43.41793" lon="6.53143">
        <ele>216</ele>
        <time>2020-05-30T09:55:05.000Z</time>
      </trkpt>
      <trkpt lat="43.41798" lon="6.53141">
        <ele>215.60000610352</ele>
        <time>2020-05-30T09:55:06.000Z</time>
      </trkpt>
      <trkpt lat="43.41803" lon="6.5314">
        <ele>215.19999694824</ele>
        <time>2020-05-30T09:55:07.000Z</time>
      </trkpt>
      <trkpt lat="43.41808" lon="6.53137">
        <ele>214.39999389648</ele>
        <time>2020-05-30T09:55:08.000Z</time>
      </trkpt>
      <trkpt lat="43.41821" lon="6.53131">
        <ele>213.19999694824</ele>
        <time>2020-05-30T09:55:10.000Z</time>
      </trkpt>
      <trkpt lat="43.41827" lon="6.53128">
        <ele>212.19999694824</ele>
        <time>2020-05-30T09:55:11.000Z</time>
      </trkpt>
      <trkpt lat="43.41833" lon="6.53125">
        <ele>211.39999389648</ele>
        <time>2020-05-30T09:55:12.000Z</time>
      </trkpt>
      <trkpt lat="43.41838" lon="6.53122">
        <ele>210.80000305176</ele>
        <time>2020-05-30T09:55:13.000Z</time>
      </trkpt>
      <trkpt lat="43.41842" lon="6.53121">
        <ele>210.39999389648</ele>
        <time>2020-05-30T09:55:14.000Z</time>
      </trkpt>
      <trkpt lat="43.41855" lon="6.53117">
        <ele>209.60000610352</ele>
        <time>2020-05-30T09:55:17.000Z</time>
      </trkpt>
      <trkpt lat="43.4186" lon="6.5312">
        <ele>209.39999389648</ele>
        <time>2020-05-30T09:55:18.000Z</time>
      </trkpt>
      <trkpt lat="43.41866" lon="6.53119">
        <ele>208.19999694824</ele>
        <time>2020-05-30T09:55:20.000Z</time>
      </trkpt>
      <trkpt lat="43.41869" lon="6.53117">
        <ele>207.60000610352</ele>
        <time>2020-05-30T09:55:21.000Z</time>
      </trkpt>
      <trkpt lat="43.41872" lon="6.53114">
        <ele>206.19999694824</ele>
        <time>2020-05-30T09:55:22.000Z</time>
      </trkpt>
      <trkpt lat="43.41875" lon="6.53112">
        <ele>207.39999389648</ele>
        <time>2020-05-30T09:55:23.000Z</time>
      </trkpt>
      <trkpt lat="43.4188" lon="6.53108">
        <ele>205.80000305176</ele>
        <time>2020-05-30T09:55:24.000Z</time>
      </trkpt>
      <trkpt lat="43.41887" lon="6.53104">
        <ele>204.39999389648</ele>
        <time>2020-05-30T09:55:25.000Z</time>
      </trkpt>
      <trkpt lat="43.41898" lon="6.53096">
        <ele>202.39999389648</ele>
        <time>2020-05-30T09:55:27.000Z</time>
      </trkpt>
      <trkpt lat="43.419" lon="6.53095">
        <ele>200.80000305176</ele>
        <time>2020-05-30T09:55:28.000Z</time>
      </trkpt>
      <trkpt lat="43.41901" lon="6.53095">
        <ele>200.80000305176</ele>
        <time>2020-05-30T09:55:29.000Z</time>
      </trkpt>
      <trkpt lat="43.41902" lon="6.53094">
        <ele>200.80000305176</ele>
        <time>2020-05-30T09:55:35.000Z</time>
      </trkpt>
      <trkpt lat="43.41906" lon="6.53093">
        <ele>200.60000610352</ele>
        <time>2020-05-30T09:55:46.000Z</time>
      </trkpt>
      <trkpt lat="43.41919" lon="6.53085">
        <ele>200.80000305176</ele>
        <time>2020-05-30T09:55:51.000Z</time>
      </trkpt>
      <trkpt lat="43.4194" lon="6.53072">
        <ele>200</ele>
        <time>2020-05-30T09:55:58.000Z</time>
      </trkpt>
      <trkpt lat="43.41948" lon="6.53071">
        <ele>200</ele>
        <time>2020-05-30T09:56:02.000Z</time>
      </trkpt>
      <trkpt lat="43.41954" lon="6.53069">
        <ele>200.39999389648</ele>
        <time>2020-05-30T09:56:09.000Z</time>
      </trkpt>
      <trkpt lat="43.41962" lon="6.53058">
        <ele>199.39999389648</ele>
        <time>2020-05-30T09:56:13.000Z</time>
      </trkpt>
      <trkpt lat="43.41968" lon="6.53051">
        <ele>198</ele>
        <time>2020-05-30T09:56:15.000Z</time>
      </trkpt>
      <trkpt lat="43.41972" lon="6.53042">
        <ele>196.60000610352</ele>
        <time>2020-05-30T09:56:17.000Z</time>
      </trkpt>
      <trkpt lat="43.41974" lon="6.53039">
        <ele>195.19999694824</ele>
        <time>2020-05-30T09:56:18.000Z</time>
      </trkpt>
      <trkpt lat="43.41977" lon="6.53035">
        <ele>194</ele>
        <time>2020-05-30T09:56:19.000Z</time>
      </trkpt>
      <trkpt lat="43.41979" lon="6.5303">
        <ele>192.60000610352</ele>
        <time>2020-05-30T09:56:20.000Z</time>
      </trkpt>
      <trkpt lat="43.41981" lon="6.53023">
        <ele>191.19999694824</ele>
        <time>2020-05-30T09:56:21.000Z</time>
      </trkpt>
      <trkpt lat="43.41984" lon="6.53018">
        <ele>190</ele>
        <time>2020-05-30T09:56:22.000Z</time>
      </trkpt>
      <trkpt lat="43.41986" lon="6.53014">
        <ele>188.60000610352</ele>
        <time>2020-05-30T09:56:23.000Z</time>
      </trkpt>
      <trkpt lat="43.41987" lon="6.5301">
        <ele>187.39999389648</ele>
        <time>2020-05-30T09:56:24.000Z</time>
      </trkpt>
      <trkpt lat="43.41987" lon="6.53006">
        <ele>186</ele>
        <time>2020-05-30T09:56:25.000Z</time>
      </trkpt>
      <trkpt lat="43.41988" lon="6.53001">
        <ele>184.80000305176</ele>
        <time>2020-05-30T09:56:26.000Z</time>
      </trkpt>
      <trkpt lat="43.41991" lon="6.52997">
        <ele>183.39999389648</ele>
        <time>2020-05-30T09:56:27.000Z</time>
      </trkpt>
      <trkpt lat="43.41995" lon="6.52994">
        <ele>182</ele>
        <time>2020-05-30T09:56:28.000Z</time>
      </trkpt>
      <trkpt lat="43.42" lon="6.5299">
        <ele>181</ele>
        <time>2020-05-30T09:56:29.000Z</time>
      </trkpt>
      <trkpt lat="43.42004" lon="6.52986">
        <ele>180.19999694824</ele>
        <time>2020-05-30T09:56:30.000Z</time>
      </trkpt>
      <trkpt lat="43.42008" lon="6.52983">
        <ele>179.60000610352</ele>
        <time>2020-05-30T09:56:31.000Z</time>
      </trkpt>
      <trkpt lat="43.42013" lon="6.52975">
        <ele>177.39999389648</ele>
        <time>2020-05-30T09:56:33.000Z</time>
      </trkpt>
      <trkpt lat="43.42016" lon="6.52972">
        <ele>176.60000610352</ele>
        <time>2020-05-30T09:56:34.000Z</time>
      </trkpt>
      <trkpt lat="43.42021" lon="6.52969">
        <ele>175.60000610352</ele>
        <time>2020-05-30T09:56:35.000Z</time>
      </trkpt>
      <trkpt lat="43.42025" lon="6.52967">
        <ele>174.19999694824</ele>
        <time>2020-05-30T09:56:36.000Z</time>
      </trkpt>
      <trkpt lat="43.4203" lon="6.52967">
        <ele>173</ele>
        <time>2020-05-30T09:56:37.000Z</time>
      </trkpt>
      <trkpt lat="43.42037" lon="6.52972">
        <ele>171.60000610352</ele>
        <time>2020-05-30T09:56:39.000Z</time>
      </trkpt>
      <trkpt lat="43.4204" lon="6.52978">
        <ele>171</ele>
        <time>2020-05-30T09:56:40.000Z</time>
      </trkpt>
      <trkpt lat="43.42042" lon="6.52983">
        <ele>170</ele>
        <time>2020-05-30T09:56:41.000Z</time>
      </trkpt>
      <trkpt lat="43.42045" lon="6.52989">
        <ele>169.60000610352</ele>
        <time>2020-05-30T09:56:42.000Z</time>
      </trkpt>
      <trkpt lat="43.42048" lon="6.52995">
        <ele>169.19999694824</ele>
        <time>2020-05-30T09:56:43.000Z</time>
      </trkpt>
      <trkpt lat="43.4205" lon="6.53001">
        <ele>169.19999694824</ele>
        <time>2020-05-30T09:56:44.000Z</time>
      </trkpt>
      <trkpt lat="43.42052" lon="6.53007">
        <ele>169</ele>
        <time>2020-05-30T09:56:45.000Z</time>
      </trkpt>
      <trkpt lat="43.42056" lon="6.5301">
        <ele>169.19999694824</ele>
        <time>2020-05-30T09:56:47.000Z</time>
      </trkpt>
      <trkpt lat="43.42059" lon="6.53008">
        <ele>168</ele>
        <time>2020-05-30T09:56:50.000Z</time>
      </trkpt>
      <trkpt lat="43.42062" lon="6.53009">
        <ele>166.80000305176</ele>
        <time>2020-05-30T09:56:53.000Z</time>
      </trkpt>
      <trkpt lat="43.42067" lon="6.53011">
        <ele>166.19999694824</ele>
        <time>2020-05-30T09:56:55.000Z</time>
      </trkpt>
      <trkpt lat="43.42083" lon="6.5302">
        <ele>165.80000305176</ele>
        <time>2020-05-30T09:57:01.000Z</time>
      </trkpt>
      <trkpt lat="43.42086" lon="6.53023">
        <ele>165.80000305176</ele>
        <time>2020-05-30T09:57:02.000Z</time>
      </trkpt>
      <trkpt lat="43.42101" lon="6.5304">
        <ele>165.80000305176</ele>
        <time>2020-05-30T09:57:07.000Z</time>
      </trkpt>
      <trkpt lat="43.4211" lon="6.53058">
        <ele>166</ele>
        <time>2020-05-30T09:57:11.000Z</time>
      </trkpt>
      <trkpt lat="43.42116" lon="6.53066">
        <ele>166</ele>
        <time>2020-05-30T09:57:13.000Z</time>
      </trkpt>
      <trkpt lat="43.42129" lon="6.53059">
        <ele>165.60000610352</ele>
        <time>2020-05-30T09:57:16.000Z</time>
      </trkpt>
      <trkpt lat="43.42134" lon="6.53056">
        <ele>165.39999389648</ele>
        <time>2020-05-30T09:57:17.000Z</time>
      </trkpt>
      <trkpt lat="43.42141" lon="6.53049">
        <ele>165.39999389648</ele>
        <time>2020-05-30T09:57:19.000Z</time>
      </trkpt>
      <trkpt lat="43.42147" lon="6.53039">
        <ele>165.80000305176</ele>
        <time>2020-05-30T09:57:21.000Z</time>
      </trkpt>
      <trkpt lat="43.42151" lon="6.53023">
        <ele>166.19999694824</ele>
        <time>2020-05-30T09:57:23.000Z</time>
      </trkpt>
      <trkpt lat="43.42155" lon="6.5301">
        <ele>166</ele>
        <time>2020-05-30T09:57:25.000Z</time>
      </trkpt>
      <trkpt lat="43.42169" lon="6.52973">
        <ele>165.60000610352</ele>
        <time>2020-05-30T09:57:31.000Z</time>
      </trkpt>
      <trkpt lat="43.4219" lon="6.52952">
        <ele>166</ele>
        <time>2020-05-30T09:57:36.000Z</time>
      </trkpt>
      <trkpt lat="43.42196" lon="6.52949">
        <ele>166</ele>
        <time>2020-05-30T09:57:37.000Z</time>
      </trkpt>
      <trkpt lat="43.42214" lon="6.5294">
        <ele>166</ele>
        <time>2020-05-30T09:57:41.000Z</time>
      </trkpt>
      <trkpt lat="43.42221" lon="6.52947">
        <ele>166</ele>
        <time>2020-05-30T09:57:43.000Z</time>
      </trkpt>
      <trkpt lat="43.42222" lon="6.52959">
        <ele>166.19999694824</ele>
        <time>2020-05-30T09:57:45.000Z</time>
      </trkpt>
      <trkpt lat="43.42223" lon="6.52965">
        <ele>166</ele>
        <time>2020-05-30T09:57:46.000Z</time>
      </trkpt>
      <trkpt lat="43.42224" lon="6.52998">
        <ele>164.60000610352</ele>
        <time>2020-05-30T09:57:50.000Z</time>
      </trkpt>
      <trkpt lat="43.42224" lon="6.53006">
        <ele>163.80000305176</ele>
        <time>2020-05-30T09:57:51.000Z</time>
      </trkpt>
      <trkpt lat="43.42224" lon="6.53016">
        <ele>162.60000610352</ele>
        <time>2020-05-30T09:57:52.000Z</time>
      </trkpt>
      <trkpt lat="43.42223" lon="6.53034">
        <ele>160.80000305176</ele>
        <time>2020-05-30T09:57:54.000Z</time>
      </trkpt>
      <trkpt lat="43.42223" lon="6.53051">
        <ele>160</ele>
        <time>2020-05-30T09:57:56.000Z</time>
      </trkpt>
      <trkpt lat="43.42224" lon="6.53058">
        <ele>160.19999694824</ele>
        <time>2020-05-30T09:57:57.000Z</time>
      </trkpt>
      <trkpt lat="43.42239" lon="6.53076">
        <ele>159.39999389648</ele>
        <time>2020-05-30T09:58:00.000Z</time>
      </trkpt>
      <trkpt lat="43.42249" lon="6.53089">
        <ele>157.60000610352</ele>
        <time>2020-05-30T09:58:02.000Z</time>
      </trkpt>
      <trkpt lat="43.42259" lon="6.53101">
        <ele>156</ele>
        <time>2020-05-30T09:58:04.000Z</time>
      </trkpt>
      <trkpt lat="43.42266" lon="6.53106">
        <ele>155</ele>
        <time>2020-05-30T09:58:05.000Z</time>
      </trkpt>
      <trkpt lat="43.4228" lon="6.53113">
        <ele>154</ele>
        <time>2020-05-30T09:58:07.000Z</time>
      </trkpt>
      <trkpt lat="43.42284" lon="6.53117">
        <ele>153</ele>
        <time>2020-05-30T09:58:08.000Z</time>
      </trkpt>
      <trkpt lat="43.4229" lon="6.53124">
        <ele>152.80000305176</ele>
        <time>2020-05-30T09:58:09.000Z</time>
      </trkpt>
      <trkpt lat="43.423" lon="6.53128">
        <ele>152</ele>
        <time>2020-05-30T09:58:11.000Z</time>
      </trkpt>
      <trkpt lat="43.42305" lon="6.53125">
        <ele>151.60000610352</ele>
        <time>2020-05-30T09:58:12.000Z</time>
      </trkpt>
      <trkpt lat="43.42308" lon="6.53119">
        <ele>150.80000305176</ele>
        <time>2020-05-30T09:58:13.000Z</time>
      </trkpt>
      <trkpt lat="43.42311" lon="6.53112">
        <ele>150.39999389648</ele>
        <time>2020-05-30T09:58:14.000Z</time>
      </trkpt>
      <trkpt lat="43.42314" lon="6.53105">
        <ele>149.39999389648</ele>
        <time>2020-05-30T09:58:16.000Z</time>
      </trkpt>
      <trkpt lat="43.42314" lon="6.53105">
        <ele>149.19999694824</ele>
        <time>2020-05-30T09:58:17.000Z</time>
      </trkpt>
      <trkpt lat="43.42314" lon="6.53104">
        <ele>149.19999694824</ele>
        <time>2020-05-30T09:58:19.000Z</time>
      </trkpt>
      <trkpt lat="43.42314" lon="6.53103">
        <ele>149.19999694824</ele>
        <time>2020-05-30T09:58:33.000Z</time>
      </trkpt>
      <trkpt lat="43.42313" lon="6.531">
        <ele>149.19999694824</ele>
        <time>2020-05-30T09:58:51.000Z</time>
      </trkpt>
      <trkpt lat="43.42317" lon="6.53095">
        <ele>149.19999694824</ele>
        <time>2020-05-30T09:58:59.000Z</time>
      </trkpt>
      <trkpt lat="43.4232" lon="6.53089">
        <ele>149.19999694824</ele>
        <time>2020-05-30T09:59:03.000Z</time>
      </trkpt>
      <trkpt lat="43.42323" lon="6.53083">
        <ele>148.80000305176</ele>
        <time>2020-05-30T09:59:05.000Z</time>
      </trkpt>
      <trkpt lat="43.42325" lon="6.53081">
        <ele>148.19999694824</ele>
        <time>2020-05-30T09:59:06.000Z</time>
      </trkpt>
      <trkpt lat="43.42326" lon="6.53079">
        <ele>147.80000305176</ele>
        <time>2020-05-30T09:59:07.000Z</time>
      </trkpt>
      <trkpt lat="43.42326" lon="6.53077">
        <ele>147</ele>
        <time>2020-05-30T09:59:08.000Z</time>
      </trkpt>
      <trkpt lat="43.42324" lon="6.53073">
        <ele>145.80000305176</ele>
        <time>2020-05-30T09:59:10.000Z</time>
      </trkpt>
      <trkpt lat="43.42324" lon="6.5307">
        <ele>145.39999389648</ele>
        <time>2020-05-30T09:59:11.000Z</time>
      </trkpt>
      <trkpt lat="43.42326" lon="6.53065">
        <ele>144</ele>
        <time>2020-05-30T09:59:13.000Z</time>
      </trkpt>
      <trkpt lat="43.42332" lon="6.53063">
        <ele>142.60000610352</ele>
        <time>2020-05-30T09:59:15.000Z</time>
      </trkpt>
      <trkpt lat="43.42335" lon="6.53061">
        <ele>141.60000610352</ele>
        <time>2020-05-30T09:59:16.000Z</time>
      </trkpt>
      <trkpt lat="43.4234" lon="6.53059">
        <ele>140.60000610352</ele>
        <time>2020-05-30T09:59:17.000Z</time>
      </trkpt>
      <trkpt lat="43.42345" lon="6.53057">
        <ele>139</ele>
        <time>2020-05-30T09:59:19.000Z</time>
      </trkpt>
      <trkpt lat="43.42346" lon="6.53055">
        <ele>138.19999694824</ele>
        <time>2020-05-30T09:59:20.000Z</time>
      </trkpt>
      <trkpt lat="43.42348" lon="6.53052">
        <ele>137.19999694824</ele>
        <time>2020-05-30T09:59:21.000Z</time>
      </trkpt>
      <trkpt lat="43.42354" lon="6.53051">
        <ele>135.39999389648</ele>
        <time>2020-05-30T09:59:23.000Z</time>
      </trkpt>
      <trkpt lat="43.42358" lon="6.53051">
        <ele>134.60000610352</ele>
        <time>2020-05-30T09:59:24.000Z</time>
      </trkpt>
      <trkpt lat="43.42361" lon="6.53052">
        <ele>133.80000305176</ele>
        <time>2020-05-30T09:59:25.000Z</time>
      </trkpt>
      <trkpt lat="43.42366" lon="6.53058">
        <ele>132.39999389648</ele>
        <time>2020-05-30T09:59:27.000Z</time>
      </trkpt>
      <trkpt lat="43.42369" lon="6.53059">
        <ele>132</ele>
        <time>2020-05-30T09:59:28.000Z</time>
      </trkpt>
      <trkpt lat="43.42377" lon="6.53062">
        <ele>131.19999694824</ele>
        <time>2020-05-30T09:59:30.000Z</time>
      </trkpt>
      <trkpt lat="43.42381" lon="6.53064">
        <ele>130.80000305176</ele>
        <time>2020-05-30T09:59:31.000Z</time>
      </trkpt>
      <trkpt lat="43.42385" lon="6.53066">
        <ele>130.80000305176</ele>
        <time>2020-05-30T09:59:32.000Z</time>
      </trkpt>
      <trkpt lat="43.42387" lon="6.53069">
        <ele>130.19999694824</ele>
        <time>2020-05-30T09:59:33.000Z</time>
      </trkpt>
      <trkpt lat="43.4239" lon="6.53072">
        <ele>129.19999694824</ele>
        <time>2020-05-30T09:59:34.000Z</time>
      </trkpt>
      <trkpt lat="43.42393" lon="6.53075">
        <ele>128.39999389648</ele>
        <time>2020-05-30T09:59:35.000Z</time>
      </trkpt>
      <trkpt lat="43.42395" lon="6.53076">
        <ele>127.59999847412</ele>
        <time>2020-05-30T09:59:36.000Z</time>
      </trkpt>
      <trkpt lat="43.42398" lon="6.53074">
        <ele>126.19999694824</ele>
        <time>2020-05-30T09:59:38.000Z</time>
      </trkpt>
      <trkpt lat="43.42403" lon="6.53062">
        <ele>124.19999694824</ele>
        <time>2020-05-30T09:59:41.000Z</time>
      </trkpt>
      <trkpt lat="43.42406" lon="6.53055">
        <ele>123</ele>
        <time>2020-05-30T09:59:43.000Z</time>
      </trkpt>
      <trkpt lat="43.42407" lon="6.53039">
        <ele>122.59999847412</ele>
        <time>2020-05-30T09:59:46.000Z</time>
      </trkpt>
      <trkpt lat="43.42411" lon="6.53026">
        <ele>123</ele>
        <time>2020-05-30T09:59:48.000Z</time>
      </trkpt>
      <trkpt lat="43.42415" lon="6.53013">
        <ele>122.40000152588</ele>
        <time>2020-05-30T09:59:50.000Z</time>
      </trkpt>
      <trkpt lat="43.42417" lon="6.53">
        <ele>121.59999847412</ele>
        <time>2020-05-30T09:59:52.000Z</time>
      </trkpt>
      <trkpt lat="43.42423" lon="6.52984">
        <ele>120.40000152588</ele>
        <time>2020-05-30T09:59:55.000Z</time>
      </trkpt>
      <trkpt lat="43.4243" lon="6.5297">
        <ele>119.19999694824</ele>
        <time>2020-05-30T09:59:58.000Z</time>
      </trkpt>
      <trkpt lat="43.4243" lon="6.52965">
        <ele>118.80000305176</ele>
        <time>2020-05-30T09:59:59.000Z</time>
      </trkpt>
      <trkpt lat="43.42436" lon="6.52958">
        <ele>117.59999847412</ele>
        <time>2020-05-30T10:00:01.000Z</time>
      </trkpt>
      <trkpt lat="43.4244" lon="6.52956">
        <ele>117</ele>
        <time>2020-05-30T10:00:02.000Z</time>
      </trkpt>
      <trkpt lat="43.42442" lon="6.52953">
        <ele>116.40000152588</ele>
        <time>2020-05-30T10:00:03.000Z</time>
      </trkpt>
      <trkpt lat="43.4245" lon="6.52946">
        <ele>115.40000152588</ele>
        <time>2020-05-30T10:00:05.000Z</time>
      </trkpt>
      <trkpt lat="43.42454" lon="6.52942">
        <ele>115.19999694824</ele>
        <time>2020-05-30T10:00:06.000Z</time>
      </trkpt>
      <trkpt lat="43.4246" lon="6.52931">
        <ele>114.80000305176</ele>
        <time>2020-05-30T10:00:08.000Z</time>
      </trkpt>
      <trkpt lat="43.42464" lon="6.52927">
        <ele>114.40000152588</ele>
        <time>2020-05-30T10:00:09.000Z</time>
      </trkpt>
      <trkpt lat="43.42468" lon="6.52924">
        <ele>114</ele>
        <time>2020-05-30T10:00:10.000Z</time>
      </trkpt>
      <trkpt lat="43.42477" lon="6.52919">
        <ele>113.40000152588</ele>
        <time>2020-05-30T10:00:12.000Z</time>
      </trkpt>
      <trkpt lat="43.4248" lon="6.52915">
        <ele>113</ele>
        <time>2020-05-30T10:00:13.000Z</time>
      </trkpt>
      <trkpt lat="43.4249" lon="6.52904">
        <ele>112.59999847412</ele>
        <time>2020-05-30T10:00:16.000Z</time>
      </trkpt>
      <trkpt lat="43.42495" lon="6.52899">
        <ele>112.59999847412</ele>
        <time>2020-05-30T10:00:17.000Z</time>
      </trkpt>
      <trkpt lat="43.42503" lon="6.52891">
        <ele>112.19999694824</ele>
        <time>2020-05-30T10:00:19.000Z</time>
      </trkpt>
      <trkpt lat="43.42505" lon="6.52886">
        <ele>111.80000305176</ele>
        <time>2020-05-30T10:00:20.000Z</time>
      </trkpt>
      <trkpt lat="43.4251" lon="6.5288">
        <ele>110.19999694824</ele>
        <time>2020-05-30T10:00:22.000Z</time>
      </trkpt>
      <trkpt lat="43.42514" lon="6.52877">
        <ele>109</ele>
        <time>2020-05-30T10:00:23.000Z</time>
      </trkpt>
      <trkpt lat="43.42518" lon="6.52875">
        <ele>108</ele>
        <time>2020-05-30T10:00:24.000Z</time>
      </trkpt>
      <trkpt lat="43.42519" lon="6.52871">
        <ele>107.19999694824</ele>
        <time>2020-05-30T10:00:25.000Z</time>
      </trkpt>
      <trkpt lat="43.4252" lon="6.5286">
        <ele>106</ele>
        <time>2020-05-30T10:00:27.000Z</time>
      </trkpt>
      <trkpt lat="43.42521" lon="6.52848">
        <ele>105.40000152588</ele>
        <time>2020-05-30T10:00:29.000Z</time>
      </trkpt>
      <trkpt lat="43.42522" lon="6.52836">
        <ele>105.19999694824</ele>
        <time>2020-05-30T10:00:31.000Z</time>
      </trkpt>
      <trkpt lat="43.42523" lon="6.5283">
        <ele>104.80000305176</ele>
        <time>2020-05-30T10:00:32.000Z</time>
      </trkpt>
      <trkpt lat="43.42528" lon="6.52815">
        <ele>104.19999694824</ele>
        <time>2020-05-30T10:00:35.000Z</time>
      </trkpt>
      <trkpt lat="43.4253" lon="6.52811">
        <ele>104</ele>
        <time>2020-05-30T10:00:36.000Z</time>
      </trkpt>
      <trkpt lat="43.42533" lon="6.52803">
        <ele>103.80000305176</ele>
        <time>2020-05-30T10:00:38.000Z</time>
      </trkpt>
      <trkpt lat="43.42532" lon="6.52798">
        <ele>103.59999847412</ele>
        <time>2020-05-30T10:00:39.000Z</time>
      </trkpt>
      <trkpt lat="43.4253" lon="6.52776">
        <ele>103.40000152588</ele>
        <time>2020-05-30T10:00:43.000Z</time>
      </trkpt>
      <trkpt lat="43.42534" lon="6.52768">
        <ele>102.19999694824</ele>
        <time>2020-05-30T10:00:45.000Z</time>
      </trkpt>
      <trkpt lat="43.42536" lon="6.52766">
        <ele>101</ele>
        <time>2020-05-30T10:00:46.000Z</time>
      </trkpt>
      <trkpt lat="43.42539" lon="6.52758">
        <ele>99.400001525879</ele>
        <time>2020-05-30T10:00:48.000Z</time>
      </trkpt>
      <trkpt lat="43.42538" lon="6.52749">
        <ele>98.599998474121</ele>
        <time>2020-05-30T10:00:50.000Z</time>
      </trkpt>
      <trkpt lat="43.42543" lon="6.52734">
        <ele>97.800003051758</ele>
        <time>2020-05-30T10:00:53.000Z</time>
      </trkpt>
      <trkpt lat="43.42541" lon="6.52726">
        <ele>96.400001525879</ele>
        <time>2020-05-30T10:00:55.000Z</time>
      </trkpt>
      <trkpt lat="43.42538" lon="6.52722">
        <ele>95.800003051758</ele>
        <time>2020-05-30T10:00:56.000Z</time>
      </trkpt>
      <trkpt lat="43.42537" lon="6.52717">
        <ele>95</ele>
        <time>2020-05-30T10:00:57.000Z</time>
      </trkpt>
      <trkpt lat="43.42538" lon="6.52705">
        <ele>94</ele>
        <time>2020-05-30T10:00:59.000Z</time>
      </trkpt>
      <trkpt lat="43.4254" lon="6.52695">
        <ele>92.599998474121</ele>
        <time>2020-05-30T10:01:01.000Z</time>
      </trkpt>
      <trkpt lat="43.42543" lon="6.52694">
        <ele>91.800003051758</ele>
        <time>2020-05-30T10:01:02.000Z</time>
      </trkpt>
      <trkpt lat="43.42546" lon="6.52694">
        <ele>90.199996948242</ele>
        <time>2020-05-30T10:01:03.000Z</time>
      </trkpt>
      <trkpt lat="43.4255" lon="6.52693">
        <ele>88.800003051758</ele>
        <time>2020-05-30T10:01:04.000Z</time>
      </trkpt>
      <trkpt lat="43.42554" lon="6.52691">
        <ele>87.800003051758</ele>
        <time>2020-05-30T10:01:05.000Z</time>
      </trkpt>
      <trkpt lat="43.42556" lon="6.52686">
        <ele>86.599998474121</ele>
        <time>2020-05-30T10:01:06.000Z</time>
      </trkpt>
      <trkpt lat="43.42561" lon="6.52676">
        <ele>85.199996948242</ele>
        <time>2020-05-30T10:01:08.000Z</time>
      </trkpt>
      <trkpt lat="43.42564" lon="6.52671">
        <ele>84.400001525879</ele>
        <time>2020-05-30T10:01:09.000Z</time>
      </trkpt>
      <trkpt lat="43.42568" lon="6.52667">
        <ele>83.599998474121</ele>
        <time>2020-05-30T10:01:10.000Z</time>
      </trkpt>
      <trkpt lat="43.4257" lon="6.52663">
        <ele>81.800003051758</ele>
        <time>2020-05-30T10:01:12.000Z</time>
      </trkpt>
      <trkpt lat="43.42574" lon="6.52656">
        <ele>80.400001525879</ele>
        <time>2020-05-30T10:01:15.000Z</time>
      </trkpt>
      <trkpt lat="43.42575" lon="6.52656">
        <ele>80</ele>
        <time>2020-05-30T10:01:16.000Z</time>
      </trkpt>
      <trkpt lat="43.42581" lon="6.52654">
        <ele>79.199996948242</ele>
        <time>2020-05-30T10:01:18.000Z</time>
      </trkpt>
      <trkpt lat="43.42587" lon="6.5265">
        <ele>78.199996948242</ele>
        <time>2020-05-30T10:01:20.000Z</time>
      </trkpt>
      <trkpt lat="43.42591" lon="6.52648">
        <ele>77.800003051758</ele>
        <time>2020-05-30T10:01:21.000Z</time>
      </trkpt>
      <trkpt lat="43.42597" lon="6.52646">
        <ele>76.599998474121</ele>
        <time>2020-05-30T10:01:23.000Z</time>
      </trkpt>
      <trkpt lat="43.42602" lon="6.52644">
        <ele>75.599998474121</ele>
        <time>2020-05-30T10:01:24.000Z</time>
      </trkpt>
      <trkpt lat="43.42607" lon="6.52644">
        <ele>74.599998474121</ele>
        <time>2020-05-30T10:01:25.000Z</time>
      </trkpt>
      <trkpt lat="43.42616" lon="6.52643">
        <ele>73</ele>
        <time>2020-05-30T10:01:27.000Z</time>
      </trkpt>
      <trkpt lat="43.42623" lon="6.52643">
        <ele>72</ele>
        <time>2020-05-30T10:01:29.000Z</time>
      </trkpt>
      <trkpt lat="43.42625" lon="6.52641">
        <ele>71.599998474121</ele>
        <time>2020-05-30T10:01:30.000Z</time>
      </trkpt>
      <trkpt lat="43.42632" lon="6.52638">
        <ele>70.800003051758</ele>
        <time>2020-05-30T10:01:32.000Z</time>
      </trkpt>
      <trkpt lat="43.42638" lon="6.52638">
        <ele>70</ele>
        <time>2020-05-30T10:01:34.000Z</time>
      </trkpt>
      <trkpt lat="43.42643" lon="6.52638">
        <ele>69.199996948242</ele>
        <time>2020-05-30T10:01:35.000Z</time>
      </trkpt>
      <trkpt lat="43.42652" lon="6.52641">
        <ele>68.199996948242</ele>
        <time>2020-05-30T10:01:38.000Z</time>
      </trkpt>
      <trkpt lat="43.42655" lon="6.52643">
        <ele>66.800003051758</ele>
        <time>2020-05-30T10:01:39.000Z</time>
      </trkpt>
      <trkpt lat="43.42658" lon="6.52646">
        <ele>65.599998474121</ele>
        <time>2020-05-30T10:01:40.000Z</time>
      </trkpt>
      <trkpt lat="43.42661" lon="6.52651">
        <ele>64.400001525879</ele>
        <time>2020-05-30T10:01:41.000Z</time>
      </trkpt>
      <trkpt lat="43.42665" lon="6.52656">
        <ele>62.599998474121</ele>
        <time>2020-05-30T10:01:42.000Z</time>
      </trkpt>
      <trkpt lat="43.42667" lon="6.52657">
        <ele>60.599998474121</ele>
        <time>2020-05-30T10:01:43.000Z</time>
      </trkpt>
      <trkpt lat="43.4267" lon="6.52655">
        <ele>59.200000762939</ele>
        <time>2020-05-30T10:01:44.000Z</time>
      </trkpt>
      <trkpt lat="43.4267" lon="6.52653">
        <ele>58</ele>
        <time>2020-05-30T10:01:45.000Z</time>
      </trkpt>
      <trkpt lat="43.42669" lon="6.52644">
        <ele>56.599998474121</ele>
        <time>2020-05-30T10:01:47.000Z</time>
      </trkpt>
      <trkpt lat="43.42668" lon="6.52631">
        <ele>55.599998474121</ele>
        <time>2020-05-30T10:01:50.000Z</time>
      </trkpt>
      <trkpt lat="43.42668" lon="6.52623">
        <ele>55.400001525879</ele>
        <time>2020-05-30T10:01:51.000Z</time>
      </trkpt>
      <trkpt lat="43.42672" lon="6.52614">
        <ele>55.400001525879</ele>
        <time>2020-05-30T10:01:53.000Z</time>
      </trkpt>
      <trkpt lat="43.42675" lon="6.52609">
        <ele>55.200000762939</ele>
        <time>2020-05-30T10:01:55.000Z</time>
      </trkpt>
      <trkpt lat="43.42678" lon="6.52606">
        <ele>55</ele>
        <time>2020-05-30T10:01:57.000Z</time>
      </trkpt>
      <trkpt lat="43.4268" lon="6.52603">
        <ele>54.599998474121</ele>
        <time>2020-05-30T10:01:58.000Z</time>
      </trkpt>
      <trkpt lat="43.42683" lon="6.52597">
        <ele>55.599998474121</ele>
        <time>2020-05-30T10:02:00.000Z</time>
      </trkpt>
      <trkpt lat="43.42685" lon="6.52594">
        <ele>55.799999237061</ele>
        <time>2020-05-30T10:02:01.000Z</time>
      </trkpt>
      <trkpt lat="43.42688" lon="6.52582">
        <ele>56.200000762939</ele>
        <time>2020-05-30T10:02:05.000Z</time>
      </trkpt>
      <trkpt lat="43.42686" lon="6.52578">
        <ele>56</ele>
        <time>2020-05-30T10:02:06.000Z</time>
      </trkpt>
      <trkpt lat="43.42684" lon="6.52569">
        <ele>55.200000762939</ele>
        <time>2020-05-30T10:02:08.000Z</time>
      </trkpt>
      <trkpt lat="43.42683" lon="6.52566">
        <ele>54.599998474121</ele>
        <time>2020-05-30T10:02:09.000Z</time>
      </trkpt>
      <trkpt lat="43.4268" lon="6.52558">
        <ele>53.200000762939</ele>
        <time>2020-05-30T10:02:11.000Z</time>
      </trkpt>
      <trkpt lat="43.42682" lon="6.52548">
        <ele>51.599998474121</ele>
        <time>2020-05-30T10:02:13.000Z</time>
      </trkpt>
      <trkpt lat="43.42685" lon="6.52544">
        <ele>50.799999237061</ele>
        <time>2020-05-30T10:02:14.000Z</time>
      </trkpt>
      <trkpt lat="43.42685" lon="6.52541">
        <ele>49.599998474121</ele>
        <time>2020-05-30T10:02:15.000Z</time>
      </trkpt>
      <trkpt lat="43.42686" lon="6.52536">
        <ele>47.799999237061</ele>
        <time>2020-05-30T10:02:17.000Z</time>
      </trkpt>
      <trkpt lat="43.4268" lon="6.52528">
        <ele>46.200000762939</ele>
        <time>2020-05-30T10:02:20.000Z</time>
      </trkpt>
      <trkpt lat="43.42674" lon="6.52516">
        <ele>45.200000762939</ele>
        <time>2020-05-30T10:02:24.000Z</time>
      </trkpt>
      <trkpt lat="43.42676" lon="6.52507">
        <ele>46.200000762939</ele>
        <time>2020-05-30T10:02:26.000Z</time>
      </trkpt>
      <trkpt lat="43.42677" lon="6.52501">
        <ele>46.400001525879</ele>
        <time>2020-05-30T10:02:27.000Z</time>
      </trkpt>
      <trkpt lat="43.42676" lon="6.52498">
        <ele>46.599998474121</ele>
        <time>2020-05-30T10:02:28.000Z</time>
      </trkpt>
      <trkpt lat="43.42675" lon="6.52488">
        <ele>46.599998474121</ele>
        <time>2020-05-30T10:02:32.000Z</time>
      </trkpt>
      <trkpt lat="43.42676" lon="6.52485">
        <ele>45.400001525879</ele>
        <time>2020-05-30T10:02:37.000Z</time>
      </trkpt>
      <trkpt lat="43.42677" lon="6.52478">
        <ele>45.400001525879</ele>
        <time>2020-05-30T10:02:40.000Z</time>
      </trkpt>
      <trkpt lat="43.4268" lon="6.52473">
        <ele>45</ele>
        <time>2020-05-30T10:02:43.000Z</time>
      </trkpt>
      <trkpt lat="43.42681" lon="6.52469">
        <ele>44.799999237061</ele>
        <time>2020-05-30T10:02:47.000Z</time>
      </trkpt>
      <trkpt lat="43.42684" lon="6.52469">
        <ele>44.599998474121</ele>
        <time>2020-05-30T10:02:56.000Z</time>
      </trkpt>
      <trkpt lat="43.42686" lon="6.52469">
        <ele>44.799999237061</ele>
        <time>2020-05-30T10:03:05.000Z</time>
      </trkpt>
      <trkpt lat="43.42685" lon="6.52469">
        <ele>44.599998474121</ele>
        <time>2020-05-30T10:03:09.000Z</time>
      </trkpt>
      <trkpt lat="43.42683" lon="6.5247">
        <ele>44.599998474121</ele>
        <time>2020-05-30T10:03:11.000Z</time>
      </trkpt>
      <trkpt lat="43.42685" lon="6.52472">
        <ele>44.599998474121</ele>
        <time>2020-05-30T10:03:14.000Z</time>
      </trkpt>
      <trkpt lat="43.42686" lon="6.52474">
        <ele>44.599998474121</ele>
        <time>2020-05-30T10:03:16.000Z</time>
      </trkpt>
      <trkpt lat="43.4269" lon="6.52471">
        <ele>44.599998474121</ele>
        <time>2020-05-30T10:03:24.000Z</time>
      </trkpt>
      <trkpt lat="43.42692" lon="6.5247">
        <ele>44.599998474121</ele>
        <time>2020-05-30T10:03:26.000Z</time>
      </trkpt>
      <trkpt lat="43.42695" lon="6.5247">
        <ele>44.599998474121</ele>
        <time>2020-05-30T10:03:28.000Z</time>
      </trkpt>
      <trkpt lat="43.42697" lon="6.5247">
        <ele>44.599998474121</ele>
        <time>2020-05-30T10:03:29.000Z</time>
      </trkpt>
      <trkpt lat="43.42693" lon="6.52469">
        <ele>44.599998474121</ele>
        <time>2020-05-30T10:03:34.000Z</time>
      </trkpt>
      <trkpt lat="43.42689" lon="6.52467">
        <ele>44.599998474121</ele>
        <time>2020-05-30T10:03:36.000Z</time>
      </trkpt>
      <trkpt lat="43.42688" lon="6.52464">
        <ele>44.599998474121</ele>
        <time>2020-05-30T10:03:38.000Z</time>
      </trkpt>
      <trkpt lat="43.42684" lon="6.52463">
        <ele>44.599998474121</ele>
        <time>2020-05-30T10:03:44.000Z</time>
      </trkpt>
      <trkpt lat="43.42684" lon="6.52466">
        <ele>44.599998474121</ele>
        <time>2020-05-30T10:03:46.000Z</time>
      </trkpt>
      <trkpt lat="43.42682" lon="6.52469">
        <ele>44.400001525879</ele>
        <time>2020-05-30T10:03:48.000Z</time>
      </trkpt>
      <trkpt lat="43.42679" lon="6.52485">
        <ele>44.799999237061</ele>
        <time>2020-05-30T10:03:54.000Z</time>
      </trkpt>
      <trkpt lat="43.42674" lon="6.52501">
        <ele>45.200000762939</ele>
        <time>2020-05-30T10:03:58.000Z</time>
      </trkpt>
      <trkpt lat="43.42661" lon="6.52524">
        <ele>46.200000762939</ele>
        <time>2020-05-30T10:04:05.000Z</time>
      </trkpt>
      <trkpt lat="43.42657" lon="6.52529">
        <ele>46.599998474121</ele>
        <time>2020-05-30T10:04:07.000Z</time>
      </trkpt>
      <trkpt lat="43.42641" lon="6.52545">
        <ele>47.400001525879</ele>
        <time>2020-05-30T10:04:13.000Z</time>
      </trkpt>
      <trkpt lat="43.42638" lon="6.52548">
        <ele>47.599998474121</ele>
        <time>2020-05-30T10:04:14.000Z</time>
      </trkpt>
      <trkpt lat="43.42623" lon="6.52557">
        <ele>48.200000762939</ele>
        <time>2020-05-30T10:04:19.000Z</time>
      </trkpt>
      <trkpt lat="43.42614" lon="6.5256">
        <ele>48.599998474121</ele>
        <time>2020-05-30T10:04:22.000Z</time>
      </trkpt>
      <trkpt lat="43.426" lon="6.5256">
        <ele>49.200000762939</ele>
        <time>2020-05-30T10:04:26.000Z</time>
      </trkpt>
      <trkpt lat="43.42575" lon="6.5255">
        <ele>49.400001525879</ele>
        <time>2020-05-30T10:04:33.000Z</time>
      </trkpt>
      <trkpt lat="43.42546" lon="6.52536">
        <ele>49.400001525879</ele>
        <time>2020-05-30T10:04:41.000Z</time>
      </trkpt>
      <trkpt lat="43.42526" lon="6.52529">
        <ele>49.200000762939</ele>
        <time>2020-05-30T10:04:47.000Z</time>
      </trkpt>
      <trkpt lat="43.42519" lon="6.52531">
        <ele>49.799999237061</ele>
        <time>2020-05-30T10:04:50.000Z</time>
      </trkpt>
      <trkpt lat="43.42516" lon="6.52532">
        <ele>50</ele>
        <time>2020-05-30T10:04:52.000Z</time>
      </trkpt>
      <trkpt lat="43.42514" lon="6.52533">
        <ele>49.799999237061</ele>
        <time>2020-05-30T10:04:56.000Z</time>
      </trkpt>
      <trkpt lat="43.42509" lon="6.52536">
        <ele>49.799999237061</ele>
        <time>2020-05-30T10:05:09.000Z</time>
      </trkpt>
      <trkpt lat="43.42507" lon="6.52538">
        <ele>49.799999237061</ele>
        <time>2020-05-30T10:05:11.000Z</time>
      </trkpt>
      <trkpt lat="43.42503" lon="6.52541">
        <ele>49.599998474121</ele>
        <time>2020-05-30T10:05:13.000Z</time>
      </trkpt>
      <trkpt lat="43.42498" lon="6.52543">
        <ele>49.599998474121</ele>
        <time>2020-05-30T10:05:15.000Z</time>
      </trkpt>
      <trkpt lat="43.42485" lon="6.52552">
        <ele>49.799999237061</ele>
        <time>2020-05-30T10:05:19.000Z</time>
      </trkpt>
      <trkpt lat="43.42466" lon="6.52561">
        <ele>50</ele>
        <time>2020-05-30T10:05:25.000Z</time>
      </trkpt>
      <trkpt lat="43.42463" lon="6.52563">
        <ele>50.799999237061</ele>
        <time>2020-05-30T10:05:29.000Z</time>
      </trkpt>
      <trkpt lat="43.42461" lon="6.52567">
        <ele>51</ele>
        <time>2020-05-30T10:05:39.000Z</time>
      </trkpt>
      <trkpt lat="43.42459" lon="6.52568">
        <ele>51</ele>
        <time>2020-05-30T10:05:40.000Z</time>
      </trkpt>
      <trkpt lat="43.42442" lon="6.52578">
        <ele>51.400001525879</ele>
        <time>2020-05-30T10:05:47.000Z</time>
      </trkpt>
      <trkpt lat="43.42432" lon="6.52575">
        <ele>52</ele>
        <time>2020-05-30T10:05:50.000Z</time>
      </trkpt>
      <trkpt lat="43.42426" lon="6.52571">
        <ele>52.400001525879</ele>
        <time>2020-05-30T10:05:52.000Z</time>
      </trkpt>
      <trkpt lat="43.42417" lon="6.52562">
        <ele>53</ele>
        <time>2020-05-30T10:05:55.000Z</time>
      </trkpt>
      <trkpt lat="43.42408" lon="6.52557">
        <ele>53.599998474121</ele>
        <time>2020-05-30T10:05:58.000Z</time>
      </trkpt>
      <trkpt lat="43.42401" lon="6.52552">
        <ele>54.200000762939</ele>
        <time>2020-05-30T10:06:00.000Z</time>
      </trkpt>
      <trkpt lat="43.42386" lon="6.52536">
        <ele>55.200000762939</ele>
        <time>2020-05-30T10:06:05.000Z</time>
      </trkpt>
      <trkpt lat="43.42383" lon="6.52526">
        <ele>55.400001525879</ele>
        <time>2020-05-30T10:06:07.000Z</time>
      </trkpt>
      <trkpt lat="43.4238" lon="6.52512">
        <ele>55.599998474121</ele>
        <time>2020-05-30T10:06:10.000Z</time>
      </trkpt>
      <trkpt lat="43.4238" lon="6.52475">
        <ele>55.799999237061</ele>
        <time>2020-05-30T10:06:17.000Z</time>
      </trkpt>
      <trkpt lat="43.42379" lon="6.52451">
        <ele>56.599998474121</ele>
        <time>2020-05-30T10:06:22.000Z</time>
      </trkpt>
      <trkpt lat="43.42377" lon="6.52442">
        <ele>57.200000762939</ele>
        <time>2020-05-30T10:06:24.000Z</time>
      </trkpt>
      <trkpt lat="43.42373" lon="6.5243">
        <ele>57.599998474121</ele>
        <time>2020-05-30T10:06:27.000Z</time>
      </trkpt>
      <trkpt lat="43.42366" lon="6.52418">
        <ele>58.200000762939</ele>
        <time>2020-05-30T10:06:30.000Z</time>
      </trkpt>
      <trkpt lat="43.4235" lon="6.52403">
        <ele>58.400001525879</ele>
        <time>2020-05-30T10:06:35.000Z</time>
      </trkpt>
      <trkpt lat="43.42339" lon="6.52393">
        <ele>58.799999237061</ele>
        <time>2020-05-30T10:06:39.000Z</time>
      </trkpt>
      <trkpt lat="43.42334" lon="6.52389">
        <ele>59</ele>
        <time>2020-05-30T10:06:41.000Z</time>
      </trkpt>
      <trkpt lat="43.42325" lon="6.52381">
        <ele>59.799999237061</ele>
        <time>2020-05-30T10:06:44.000Z</time>
      </trkpt>
      <trkpt lat="43.42313" lon="6.52372">
        <ele>61</ele>
        <time>2020-05-30T10:06:48.000Z</time>
      </trkpt>
      <trkpt lat="43.42294" lon="6.52364">
        <ele>61.599998474121</ele>
        <time>2020-05-30T10:06:54.000Z</time>
      </trkpt>
      <trkpt lat="43.42283" lon="6.52361">
        <ele>62.200000762939</ele>
        <time>2020-05-30T10:06:57.000Z</time>
      </trkpt>
      <trkpt lat="43.42272" lon="6.52357">
        <ele>62.599998474121</ele>
        <time>2020-05-30T10:07:00.000Z</time>
      </trkpt>
      <trkpt lat="43.42259" lon="6.52349">
        <ele>63.200000762939</ele>
        <time>2020-05-30T10:07:04.000Z</time>
      </trkpt>
      <trkpt lat="43.42248" lon="6.52344">
        <ele>63.400001525879</ele>
        <time>2020-05-30T10:07:07.000Z</time>
      </trkpt>
      <trkpt lat="43.42231" lon="6.52334">
        <ele>64</ele>
        <time>2020-05-30T10:07:12.000Z</time>
      </trkpt>
      <trkpt lat="43.42217" lon="6.52328">
        <ele>64.400001525879</ele>
        <time>2020-05-30T10:07:16.000Z</time>
      </trkpt>
      <trkpt lat="43.42206" lon="6.52328">
        <ele>65</ele>
        <time>2020-05-30T10:07:19.000Z</time>
      </trkpt>
      <trkpt lat="43.42199" lon="6.52331">
        <ele>65.400001525879</ele>
        <time>2020-05-30T10:07:21.000Z</time>
      </trkpt>
      <trkpt lat="43.42186" lon="6.52339">
        <ele>66</ele>
        <time>2020-05-30T10:07:25.000Z</time>
      </trkpt>
      <trkpt lat="43.42171" lon="6.52339">
        <ele>66.599998474121</ele>
        <time>2020-05-30T10:07:30.000Z</time>
      </trkpt>
      <trkpt lat="43.42155" lon="6.52323">
        <ele>67.599998474121</ele>
        <time>2020-05-30T10:07:35.000Z</time>
      </trkpt>
      <trkpt lat="43.42137" lon="6.52293">
        <ele>68.599998474121</ele>
        <time>2020-05-30T10:07:43.000Z</time>
      </trkpt>
      <trkpt lat="43.42133" lon="6.5227">
        <ele>69.400001525879</ele>
        <time>2020-05-30T10:07:49.000Z</time>
      </trkpt>
      <trkpt lat="43.42131" lon="6.52264">
        <ele>69.800003051758</ele>
        <time>2020-05-30T10:07:51.000Z</time>
      </trkpt>
      <trkpt lat="43.42127" lon="6.52248">
        <ele>71</ele>
        <time>2020-05-30T10:07:56.000Z</time>
      </trkpt>
      <trkpt lat="43.42125" lon="6.52244">
        <ele>71</ele>
        <time>2020-05-30T10:07:57.000Z</time>
      </trkpt>
      <trkpt lat="43.42122" lon="6.52237">
        <ele>71.800003051758</ele>
        <time>2020-05-30T10:08:01.000Z</time>
      </trkpt>
      <trkpt lat="43.4212" lon="6.52235">
        <ele>72</ele>
        <time>2020-05-30T10:08:02.000Z</time>
      </trkpt>
      <trkpt lat="43.42113" lon="6.52226">
        <ele>71.400001525879</ele>
        <time>2020-05-30T10:08:06.000Z</time>
      </trkpt>
      <trkpt lat="43.42109" lon="6.52221">
        <ele>71.599998474121</ele>
        <time>2020-05-30T10:08:09.000Z</time>
      </trkpt>
      <trkpt lat="43.42106" lon="6.52218">
        <ele>73</ele>
        <time>2020-05-30T10:08:12.000Z</time>
      </trkpt>
      <trkpt lat="43.42107" lon="6.52218">
        <ele>73.599998474121</ele>
        <time>2020-05-30T10:08:13.000Z</time>
      </trkpt>
      <trkpt lat="43.42107" lon="6.52218">
        <ele>74.599998474121</ele>
        <time>2020-05-30T10:08:16.000Z</time>
      </trkpt>
      <trkpt lat="43.42106" lon="6.52218">
        <ele>74.599998474121</ele>
        <time>2020-05-30T10:08:24.000Z</time>
      </trkpt>
      <trkpt lat="43.42106" lon="6.52218">
        <ele>75</ele>
        <time>2020-05-30T10:08:30.000Z</time>
      </trkpt>
      <trkpt lat="43.42104" lon="6.52217">
        <ele>75.800003051758</ele>
        <time>2020-05-30T10:08:38.000Z</time>
      </trkpt>
      <trkpt lat="43.42101" lon="6.52218">
        <ele>76.599998474121</ele>
        <time>2020-05-30T10:08:44.000Z</time>
      </trkpt>
      <trkpt lat="43.421" lon="6.52217">
        <ele>76.800003051758</ele>
        <time>2020-05-30T10:08:46.000Z</time>
      </trkpt>
      <trkpt lat="43.42097" lon="6.52216">
        <ele>77.599998474121</ele>
        <time>2020-05-30T10:08:51.000Z</time>
      </trkpt>
      <trkpt lat="43.42096" lon="6.52216">
        <ele>77.800003051758</ele>
        <time>2020-05-30T10:08:52.000Z</time>
      </trkpt>
      <trkpt lat="43.42096" lon="6.52214">
        <ele>78.800003051758</ele>
        <time>2020-05-30T10:09:00.000Z</time>
      </trkpt>
      <trkpt lat="43.42096" lon="6.52215">
        <ele>79</ele>
        <time>2020-05-30T10:09:04.000Z</time>
      </trkpt>
      <trkpt lat="43.42096" lon="6.52215">
        <ele>78.800003051758</ele>
        <time>2020-05-30T10:09:16.000Z</time>
      </trkpt>
      <trkpt lat="43.42095" lon="6.52215">
        <ele>78.800003051758</ele>
        <time>2020-05-30T10:09:22.000Z</time>
      </trkpt>
      <trkpt lat="43.42091" lon="6.52212">
        <ele>78.800003051758</ele>
        <time>2020-05-30T10:09:27.000Z</time>
      </trkpt>
      <trkpt lat="43.42082" lon="6.52205">
        <ele>80.199996948242</ele>
        <time>2020-05-30T10:09:32.000Z</time>
      </trkpt>
      <trkpt lat="43.42081" lon="6.52203">
        <ele>80.599998474121</ele>
        <time>2020-05-30T10:09:33.000Z</time>
      </trkpt>
      <trkpt lat="43.42081" lon="6.522">
        <ele>81</ele>
        <time>2020-05-30T10:09:34.000Z</time>
      </trkpt>
      <trkpt lat="43.42081" lon="6.52198">
        <ele>81.199996948242</ele>
        <time>2020-05-30T10:09:35.000Z</time>
      </trkpt>
      <trkpt lat="43.4208" lon="6.52192">
        <ele>82.599998474121</ele>
        <time>2020-05-30T10:09:38.000Z</time>
      </trkpt>
      <trkpt lat="43.42079" lon="6.5219">
        <ele>83</ele>
        <time>2020-05-30T10:09:39.000Z</time>
      </trkpt>
      <trkpt lat="43.42077" lon="6.52188">
        <ele>83.800003051758</ele>
        <time>2020-05-30T10:09:41.000Z</time>
      </trkpt>
      <trkpt lat="43.42073" lon="6.52187">
        <ele>84.400001525879</ele>
        <time>2020-05-30T10:09:43.000Z</time>
      </trkpt>
      <trkpt lat="43.42072" lon="6.52185">
        <ele>85</ele>
        <time>2020-05-30T10:09:44.000Z</time>
      </trkpt>
      <trkpt lat="43.4207" lon="6.52181">
        <ele>85.800003051758</ele>
        <time>2020-05-30T10:09:47.000Z</time>
      </trkpt>
      <trkpt lat="43.4207" lon="6.5218">
        <ele>86</ele>
        <time>2020-05-30T10:09:48.000Z</time>
      </trkpt>
      <trkpt lat="43.4207" lon="6.5218">
        <ele>87.199996948242</ele>
        <time>2020-05-30T10:09:52.000Z</time>
      </trkpt>
      <trkpt lat="43.4207" lon="6.52179">
        <ele>87.199996948242</ele>
        <time>2020-05-30T10:09:53.000Z</time>
      </trkpt>
      <trkpt lat="43.42071" lon="6.52176">
        <ele>88</ele>
        <time>2020-05-30T10:10:00.000Z</time>
      </trkpt>
      <trkpt lat="43.42071" lon="6.52176">
        <ele>88.199996948242</ele>
        <time>2020-05-30T10:10:01.000Z</time>
      </trkpt>
      <trkpt lat="43.42071" lon="6.52171">
        <ele>88.800003051758</ele>
        <time>2020-05-30T10:10:07.000Z</time>
      </trkpt>
      <trkpt lat="43.4207" lon="6.52169">
        <ele>89.400001525879</ele>
        <time>2020-05-30T10:10:11.000Z</time>
      </trkpt>
      <trkpt lat="43.4207" lon="6.52168">
        <ele>90</ele>
        <time>2020-05-30T10:10:14.000Z</time>
      </trkpt>
      <trkpt lat="43.42071" lon="6.52163">
        <ele>90.199996948242</ele>
        <time>2020-05-30T10:10:19.000Z</time>
      </trkpt>
      <trkpt lat="43.4207" lon="6.5216">
        <ele>90.199996948242</ele>
        <time>2020-05-30T10:10:20.000Z</time>
      </trkpt>
      <trkpt lat="43.42068" lon="6.52156">
        <ele>90.599998474121</ele>
        <time>2020-05-30T10:10:22.000Z</time>
      </trkpt>
      <trkpt lat="43.42067" lon="6.52153">
        <ele>91</ele>
        <time>2020-05-30T10:10:23.000Z</time>
      </trkpt>
      <trkpt lat="43.42066" lon="6.52151">
        <ele>91.599998474121</ele>
        <time>2020-05-30T10:10:24.000Z</time>
      </trkpt>
      <trkpt lat="43.42062" lon="6.52148">
        <ele>92.800003051758</ele>
        <time>2020-05-30T10:10:26.000Z</time>
      </trkpt>
      <trkpt lat="43.42061" lon="6.52145">
        <ele>93.199996948242</ele>
        <time>2020-05-30T10:10:27.000Z</time>
      </trkpt>
      <trkpt lat="43.42061" lon="6.52144">
        <ele>93.599998474121</ele>
        <time>2020-05-30T10:10:28.000Z</time>
      </trkpt>
      <trkpt lat="43.42061" lon="6.52141">
        <ele>94</ele>
        <time>2020-05-30T10:10:29.000Z</time>
      </trkpt>
      <trkpt lat="43.42062" lon="6.52136">
        <ele>94.800003051758</ele>
        <time>2020-05-30T10:10:32.000Z</time>
      </trkpt>
      <trkpt lat="43.42062" lon="6.52134">
        <ele>95.400001525879</ele>
        <time>2020-05-30T10:10:33.000Z</time>
      </trkpt>
      <trkpt lat="43.4206" lon="6.5213">
        <ele>96.400001525879</ele>
        <time>2020-05-30T10:10:35.000Z</time>
      </trkpt>
      <trkpt lat="43.42058" lon="6.52129">
        <ele>97</ele>
        <time>2020-05-30T10:10:36.000Z</time>
      </trkpt>
      <trkpt lat="43.42057" lon="6.52127">
        <ele>97.599998474121</ele>
        <time>2020-05-30T10:10:37.000Z</time>
      </trkpt>
      <trkpt lat="43.42052" lon="6.5212">
        <ele>98.800003051758</ele>
        <time>2020-05-30T10:10:40.000Z</time>
      </trkpt>
      <trkpt lat="43.42049" lon="6.52114">
        <ele>99.400001525879</ele>
        <time>2020-05-30T10:10:42.000Z</time>
      </trkpt>
      <trkpt lat="43.42047" lon="6.52106">
        <ele>100</ele>
        <time>2020-05-30T10:10:45.000Z</time>
      </trkpt>
      <trkpt lat="43.42046" lon="6.52105">
        <ele>100.19999694824</ele>
        <time>2020-05-30T10:10:46.000Z</time>
      </trkpt>
      <trkpt lat="43.42045" lon="6.52104">
        <ele>100.59999847412</ele>
        <time>2020-05-30T10:10:47.000Z</time>
      </trkpt>
      <trkpt lat="43.42043" lon="6.52103">
        <ele>101</ele>
        <time>2020-05-30T10:10:48.000Z</time>
      </trkpt>
      <trkpt lat="43.42037" lon="6.52098">
        <ele>102.19999694824</ele>
        <time>2020-05-30T10:10:51.000Z</time>
      </trkpt>
      <trkpt lat="43.42034" lon="6.52095">
        <ele>102.40000152588</ele>
        <time>2020-05-30T10:10:53.000Z</time>
      </trkpt>
      <trkpt lat="43.42029" lon="6.52092">
        <ele>103.40000152588</ele>
        <time>2020-05-30T10:10:56.000Z</time>
      </trkpt>
      <trkpt lat="43.42027" lon="6.52092">
        <ele>104</ele>
        <time>2020-05-30T10:10:57.000Z</time>
      </trkpt>
      <trkpt lat="43.42026" lon="6.52092">
        <ele>104.59999847412</ele>
        <time>2020-05-30T10:10:58.000Z</time>
      </trkpt>
      <trkpt lat="43.42018" lon="6.52094">
        <ele>105.59999847412</ele>
        <time>2020-05-30T10:11:02.000Z</time>
      </trkpt>
      <trkpt lat="43.42015" lon="6.52094">
        <ele>105</ele>
        <time>2020-05-30T10:11:07.000Z</time>
      </trkpt>
      <trkpt lat="43.42012" lon="6.52093">
        <ele>105</ele>
        <time>2020-05-30T10:11:12.000Z</time>
      </trkpt>
      <trkpt lat="43.4201" lon="6.52094">
        <ele>105.40000152588</ele>
        <time>2020-05-30T10:11:18.000Z</time>
      </trkpt>
      <trkpt lat="43.42009" lon="6.52093">
        <ele>105.40000152588</ele>
        <time>2020-05-30T10:11:19.000Z</time>
      </trkpt>
      <trkpt lat="43.42005" lon="6.52093">
        <ele>105.40000152588</ele>
        <time>2020-05-30T10:11:22.000Z</time>
      </trkpt>
      <trkpt lat="43.42003" lon="6.52092">
        <ele>105.59999847412</ele>
        <time>2020-05-30T10:11:26.000Z</time>
      </trkpt>
      <trkpt lat="43.41999" lon="6.52091">
        <ele>105.59999847412</ele>
        <time>2020-05-30T10:11:29.000Z</time>
      </trkpt>
      <trkpt lat="43.41997" lon="6.5209">
        <ele>105.80000305176</ele>
        <time>2020-05-30T10:11:31.000Z</time>
      </trkpt>
      <trkpt lat="43.4199" lon="6.5209">
        <ele>106.59999847412</ele>
        <time>2020-05-30T10:11:36.000Z</time>
      </trkpt>
      <trkpt lat="43.41987" lon="6.5209">
        <ele>106.80000305176</ele>
        <time>2020-05-30T10:11:37.000Z</time>
      </trkpt>
      <trkpt lat="43.4198" lon="6.52092">
        <ele>108</ele>
        <time>2020-05-30T10:11:41.000Z</time>
      </trkpt>
      <trkpt lat="43.41978" lon="6.52093">
        <ele>108.40000152588</ele>
        <time>2020-05-30T10:11:42.000Z</time>
      </trkpt>
      <trkpt lat="43.41969" lon="6.52098">
        <ele>108.80000305176</ele>
        <time>2020-05-30T10:11:47.000Z</time>
      </trkpt>
      <trkpt lat="43.41958" lon="6.52102">
        <ele>108.59999847412</ele>
        <time>2020-05-30T10:11:52.000Z</time>
      </trkpt>
      <trkpt lat="43.41948" lon="6.52108">
        <ele>108.59999847412</ele>
        <time>2020-05-30T10:11:57.000Z</time>
      </trkpt>
      <trkpt lat="43.41936" lon="6.52107">
        <ele>108.19999694824</ele>
        <time>2020-05-30T10:12:02.000Z</time>
      </trkpt>
      <trkpt lat="43.41924" lon="6.52102">
        <ele>108.40000152588</ele>
        <time>2020-05-30T10:12:06.000Z</time>
      </trkpt>
      <trkpt lat="43.41916" lon="6.5209">
        <ele>107.59999847412</ele>
        <time>2020-05-30T10:12:10.000Z</time>
      </trkpt>
      <trkpt lat="43.41909" lon="6.52078">
        <ele>107.80000305176</ele>
        <time>2020-05-30T10:12:14.000Z</time>
      </trkpt>
      <trkpt lat="43.41908" lon="6.52075">
        <ele>107.59999847412</ele>
        <time>2020-05-30T10:12:15.000Z</time>
      </trkpt>
      <trkpt lat="43.41911" lon="6.52063">
        <ele>107.80000305176</ele>
        <time>2020-05-30T10:12:19.000Z</time>
      </trkpt>
      <trkpt lat="43.41914" lon="6.52058">
        <ele>109</ele>
        <time>2020-05-30T10:12:22.000Z</time>
      </trkpt>
      <trkpt lat="43.41915" lon="6.52052">
        <ele>109.80000305176</ele>
        <time>2020-05-30T10:12:24.000Z</time>
      </trkpt>
      <trkpt lat="43.41916" lon="6.52048">
        <ele>110.19999694824</ele>
        <time>2020-05-30T10:12:25.000Z</time>
      </trkpt>
      <trkpt lat="43.41917" lon="6.52042">
        <ele>109.59999847412</ele>
        <time>2020-05-30T10:12:28.000Z</time>
      </trkpt>
      <trkpt lat="43.41917" lon="6.52042">
        <ele>109.40000152588</ele>
        <time>2020-05-30T10:12:29.000Z</time>
      </trkpt>
      <trkpt lat="43.41917" lon="6.52042">
        <ele>109.40000152588</ele>
        <time>2020-05-30T10:12:32.000Z</time>
      </trkpt>
      <trkpt lat="43.41915" lon="6.52041">
        <ele>110.40000152588</ele>
        <time>2020-05-30T10:12:39.000Z</time>
      </trkpt>
      <trkpt lat="43.41912" lon="6.52043">
        <ele>110.19999694824</ele>
        <time>2020-05-30T10:12:45.000Z</time>
      </trkpt>
      <trkpt lat="43.41904" lon="6.52038">
        <ele>110.59999847412</ele>
        <time>2020-05-30T10:12:50.000Z</time>
      </trkpt>
      <trkpt lat="43.41903" lon="6.52034">
        <ele>111.19999694824</ele>
        <time>2020-05-30T10:12:52.000Z</time>
      </trkpt>
      <trkpt lat="43.41898" lon="6.52026">
        <ele>112.40000152588</ele>
        <time>2020-05-30T10:12:55.000Z</time>
      </trkpt>
      <trkpt lat="43.41895" lon="6.52019">
        <ele>113</ele>
        <time>2020-05-30T10:12:59.000Z</time>
      </trkpt>
      <trkpt lat="43.41887" lon="6.52013">
        <ele>113.59999847412</ele>
        <time>2020-05-30T10:13:03.000Z</time>
      </trkpt>
      <trkpt lat="43.41886" lon="6.52012">
        <ele>113.80000305176</ele>
        <time>2020-05-30T10:13:04.000Z</time>
      </trkpt>
      <trkpt lat="43.41884" lon="6.52012">
        <ele>114.40000152588</ele>
        <time>2020-05-30T10:13:06.000Z</time>
      </trkpt>
      <trkpt lat="43.41883" lon="6.52014">
        <ele>114.59999847412</ele>
        <time>2020-05-30T10:13:07.000Z</time>
      </trkpt>
      <trkpt lat="43.41879" lon="6.52018">
        <ele>115.80000305176</ele>
        <time>2020-05-30T10:13:10.000Z</time>
      </trkpt>
      <trkpt lat="43.41878" lon="6.52019">
        <ele>116</ele>
        <time>2020-05-30T10:13:11.000Z</time>
      </trkpt>
      <trkpt lat="43.41876" lon="6.52022">
        <ele>117</ele>
        <time>2020-05-30T10:13:13.000Z</time>
      </trkpt>
      <trkpt lat="43.41874" lon="6.52023">
        <ele>117.80000305176</ele>
        <time>2020-05-30T10:13:16.000Z</time>
      </trkpt>
      <trkpt lat="43.41874" lon="6.52023">
        <ele>118.19999694824</ele>
        <time>2020-05-30T10:13:17.000Z</time>
      </trkpt>
      <trkpt lat="43.41873" lon="6.52028">
        <ele>119.40000152588</ele>
        <time>2020-05-30T10:13:22.000Z</time>
      </trkpt>
      <trkpt lat="43.41872" lon="6.52029">
        <ele>120</ele>
        <time>2020-05-30T10:13:28.000Z</time>
      </trkpt>
      <trkpt lat="43.41871" lon="6.52034">
        <ele>120</ele>
        <time>2020-05-30T10:13:33.000Z</time>
      </trkpt>
      <trkpt lat="43.41867" lon="6.52043">
        <ele>120</ele>
        <time>2020-05-30T10:13:37.000Z</time>
      </trkpt>
      <trkpt lat="43.41865" lon="6.52043">
        <ele>120.19999694824</ele>
        <time>2020-05-30T10:13:38.000Z</time>
      </trkpt>
      <trkpt lat="43.41864" lon="6.52043">
        <ele>120.40000152588</ele>
        <time>2020-05-30T10:13:39.000Z</time>
      </trkpt>
      <trkpt lat="43.41857" lon="6.52037">
        <ele>121.80000305176</ele>
        <time>2020-05-30T10:13:43.000Z</time>
      </trkpt>
      <trkpt lat="43.41855" lon="6.52032">
        <ele>123</ele>
        <time>2020-05-30T10:13:46.000Z</time>
      </trkpt>
      <trkpt lat="43.41853" lon="6.52032">
        <ele>123.40000152588</ele>
        <time>2020-05-30T10:13:47.000Z</time>
      </trkpt>
      <trkpt lat="43.41848" lon="6.52036">
        <ele>124.19999694824</ele>
        <time>2020-05-30T10:13:50.000Z</time>
      </trkpt>
      <trkpt lat="43.41843" lon="6.52036">
        <ele>124.59999847412</ele>
        <time>2020-05-30T10:13:52.000Z</time>
      </trkpt>
      <trkpt lat="43.41841" lon="6.52034">
        <ele>125.40000152588</ele>
        <time>2020-05-30T10:13:55.000Z</time>
      </trkpt>
      <trkpt lat="43.41841" lon="6.52035">
        <ele>126.59999847412</ele>
        <time>2020-05-30T10:13:58.000Z</time>
      </trkpt>
      <trkpt lat="43.4184" lon="6.52035">
        <ele>126.59999847412</ele>
        <time>2020-05-30T10:14:05.000Z</time>
      </trkpt>
      <trkpt lat="43.41837" lon="6.52032">
        <ele>127.19999694824</ele>
        <time>2020-05-30T10:14:13.000Z</time>
      </trkpt>
      <trkpt lat="43.41837" lon="6.52031">
        <ele>127.59999847412</ele>
        <time>2020-05-30T10:14:16.000Z</time>
      </trkpt>
      <trkpt lat="43.41837" lon="6.52031">
        <ele>127.80000305176</ele>
        <time>2020-05-30T10:14:19.000Z</time>
      </trkpt>
      <trkpt lat="43.41836" lon="6.52029">
        <ele>127.40000152588</ele>
        <time>2020-05-30T10:14:25.000Z</time>
      </trkpt>
      <trkpt lat="43.41837" lon="6.52027">
        <ele>127.59999847412</ele>
        <time>2020-05-30T10:14:27.000Z</time>
      </trkpt>
      <trkpt lat="43.41841" lon="6.52022">
        <ele>127.59999847412</ele>
        <time>2020-05-30T10:14:30.000Z</time>
      </trkpt>
      <trkpt lat="43.41846" lon="6.52012">
        <ele>128.39999389648</ele>
        <time>2020-05-30T10:14:36.000Z</time>
      </trkpt>
      <trkpt lat="43.41848" lon="6.52007">
        <ele>128.80000305176</ele>
        <time>2020-05-30T10:14:38.000Z</time>
      </trkpt>
      <trkpt lat="43.41849" lon="6.51996">
        <ele>129.60000610352</ele>
        <time>2020-05-30T10:14:42.000Z</time>
      </trkpt>
      <trkpt lat="43.41849" lon="6.51993">
        <ele>129.80000305176</ele>
        <time>2020-05-30T10:14:43.000Z</time>
      </trkpt>
      <trkpt lat="43.41848" lon="6.51971">
        <ele>131</ele>
        <time>2020-05-30T10:14:50.000Z</time>
      </trkpt>
      <trkpt lat="43.41844" lon="6.5196">
        <ele>132.39999389648</ele>
        <time>2020-05-30T10:14:54.000Z</time>
      </trkpt>
      <trkpt lat="43.41841" lon="6.5195">
        <ele>133.39999389648</ele>
        <time>2020-05-30T10:14:58.000Z</time>
      </trkpt>
      <trkpt lat="43.41834" lon="6.5194">
        <ele>134.39999389648</ele>
        <time>2020-05-30T10:15:03.000Z</time>
      </trkpt>
      <trkpt lat="43.4183" lon="6.51938">
        <ele>134.80000305176</ele>
        <time>2020-05-30T10:15:05.000Z</time>
      </trkpt>
      <trkpt lat="43.41812" lon="6.51928">
        <ele>135</ele>
        <time>2020-05-30T10:15:12.000Z</time>
      </trkpt>
      <trkpt lat="43.41799" lon="6.51927">
        <ele>134.60000610352</ele>
        <time>2020-05-30T10:15:17.000Z</time>
      </trkpt>
      <trkpt lat="43.41784" lon="6.51934">
        <ele>135.19999694824</ele>
        <time>2020-05-30T10:15:23.000Z</time>
      </trkpt>
      <trkpt lat="43.41782" lon="6.51936">
        <ele>135.39999389648</ele>
        <time>2020-05-30T10:15:24.000Z</time>
      </trkpt>
      <trkpt lat="43.41777" lon="6.5194">
        <ele>135.60000610352</ele>
        <time>2020-05-30T10:15:26.000Z</time>
      </trkpt>
      <trkpt lat="43.41771" lon="6.51938">
        <ele>135.39999389648</ele>
        <time>2020-05-30T10:15:29.000Z</time>
      </trkpt>
      <trkpt lat="43.41769" lon="6.51937">
        <ele>135.39999389648</ele>
        <time>2020-05-30T10:15:30.000Z</time>
      </trkpt>
      <trkpt lat="43.41761" lon="6.51939">
        <ele>136.80000305176</ele>
        <time>2020-05-30T10:15:34.000Z</time>
      </trkpt>
      <trkpt lat="43.4175" lon="6.51945">
        <ele>138</ele>
        <time>2020-05-30T10:15:39.000Z</time>
      </trkpt>
      <trkpt lat="43.41748" lon="6.51947">
        <ele>138.19999694824</ele>
        <time>2020-05-30T10:15:40.000Z</time>
      </trkpt>
      <trkpt lat="43.41743" lon="6.51947">
        <ele>138.19999694824</ele>
        <time>2020-05-30T10:15:42.000Z</time>
      </trkpt>
      <trkpt lat="43.41741" lon="6.51946">
        <ele>138.19999694824</ele>
        <time>2020-05-30T10:15:43.000Z</time>
      </trkpt>
      <trkpt lat="43.41739" lon="6.51944">
        <ele>138.60000610352</ele>
        <time>2020-05-30T10:15:45.000Z</time>
      </trkpt>
      <trkpt lat="43.41739" lon="6.51944">
        <ele>139.19999694824</ele>
        <time>2020-05-30T10:15:47.000Z</time>
      </trkpt>
      <trkpt lat="43.41738" lon="6.51944">
        <ele>139.39999389648</ele>
        <time>2020-05-30T10:15:48.000Z</time>
      </trkpt>
      <trkpt lat="43.41737" lon="6.51945">
        <ele>140.19999694824</ele>
        <time>2020-05-30T10:15:53.000Z</time>
      </trkpt>
      <trkpt lat="43.41736" lon="6.51945">
        <ele>140.19999694824</ele>
        <time>2020-05-30T10:15:59.000Z</time>
      </trkpt>
      <trkpt lat="43.41734" lon="6.51944">
        <ele>141.19999694824</ele>
        <time>2020-05-30T10:16:08.000Z</time>
      </trkpt>
      <trkpt lat="43.41731" lon="6.51943">
        <ele>141.80000305176</ele>
        <time>2020-05-30T10:16:16.000Z</time>
      </trkpt>
      <trkpt lat="43.41729" lon="6.51942">
        <ele>142.60000610352</ele>
        <time>2020-05-30T10:16:19.000Z</time>
      </trkpt>
      <trkpt lat="43.41728" lon="6.51941">
        <ele>143</ele>
        <time>2020-05-30T10:16:22.000Z</time>
      </trkpt>
      <trkpt lat="43.41723" lon="6.51936">
        <ele>143.19999694824</ele>
        <time>2020-05-30T10:16:28.000Z</time>
      </trkpt>
      <trkpt lat="43.41715" lon="6.51931">
        <ele>143.39999389648</ele>
        <time>2020-05-30T10:16:33.000Z</time>
      </trkpt>
      <trkpt lat="43.41703" lon="6.51922">
        <ele>142.39999389648</ele>
        <time>2020-05-30T10:16:38.000Z</time>
      </trkpt>
      <trkpt lat="43.41699" lon="6.51917">
        <ele>143</ele>
        <time>2020-05-30T10:16:43.000Z</time>
      </trkpt>
      <trkpt lat="43.41698" lon="6.51916">
        <ele>142.39999389648</ele>
        <time>2020-05-30T10:16:58.000Z</time>
      </trkpt>
      <trkpt lat="43.41697" lon="6.51917">
        <ele>142.39999389648</ele>
        <time>2020-05-30T10:17:06.000Z</time>
      </trkpt>
      <trkpt lat="43.41692" lon="6.51913">
        <ele>142.39999389648</ele>
        <time>2020-05-30T10:17:12.000Z</time>
      </trkpt>
      <trkpt lat="43.41691" lon="6.51912">
        <ele>143.39999389648</ele>
        <time>2020-05-30T10:17:16.000Z</time>
      </trkpt>
      <trkpt lat="43.41691" lon="6.51912">
        <ele>143.80000305176</ele>
        <time>2020-05-30T10:17:17.000Z</time>
      </trkpt>
      <trkpt lat="43.41689" lon="6.51911">
        <ele>144</ele>
        <time>2020-05-30T10:17:25.000Z</time>
      </trkpt>
      <trkpt lat="43.41686" lon="6.51911">
        <ele>144</ele>
        <time>2020-05-30T10:17:31.000Z</time>
      </trkpt>
      <trkpt lat="43.41679" lon="6.51907">
        <ele>144.80000305176</ele>
        <time>2020-05-30T10:17:35.000Z</time>
      </trkpt>
      <trkpt lat="43.41678" lon="6.51907">
        <ele>145</ele>
        <time>2020-05-30T10:17:36.000Z</time>
      </trkpt>
      <trkpt lat="43.41676" lon="6.51908">
        <ele>145.60000610352</ele>
        <time>2020-05-30T10:17:37.000Z</time>
      </trkpt>
      <trkpt lat="43.41673" lon="6.51908">
        <ele>146.19999694824</ele>
        <time>2020-05-30T10:17:38.000Z</time>
      </trkpt>
      <trkpt lat="43.41668" lon="6.51906">
        <ele>147.39999389648</ele>
        <time>2020-05-30T10:17:41.000Z</time>
      </trkpt>
      <trkpt lat="43.41658" lon="6.51901">
        <ele>147.39999389648</ele>
        <time>2020-05-30T10:17:47.000Z</time>
      </trkpt>
      <trkpt lat="43.41658" lon="6.51901">
        <ele>146.80000305176</ele>
        <time>2020-05-30T10:17:52.000Z</time>
      </trkpt>
      <trkpt lat="43.41658" lon="6.519">
        <ele>146.80000305176</ele>
        <time>2020-05-30T10:17:58.000Z</time>
      </trkpt>
      <trkpt lat="43.41655" lon="6.51897">
        <ele>146.60000610352</ele>
        <time>2020-05-30T10:18:04.000Z</time>
      </trkpt>
      <trkpt lat="43.41654" lon="6.51881">
        <ele>146.39999389648</ele>
        <time>2020-05-30T10:18:09.000Z</time>
      </trkpt>
      <trkpt lat="43.41655" lon="6.51876">
        <ele>146.39999389648</ele>
        <time>2020-05-30T10:18:11.000Z</time>
      </trkpt>
      <trkpt lat="43.41655" lon="6.51871">
        <ele>146.80000305176</ele>
        <time>2020-05-30T10:18:13.000Z</time>
      </trkpt>
      <trkpt lat="43.41656" lon="6.51859">
        <ele>148</ele>
        <time>2020-05-30T10:18:18.000Z</time>
      </trkpt>
      <trkpt lat="43.41655" lon="6.51853">
        <ele>148.60000610352</ele>
        <time>2020-05-30T10:18:20.000Z</time>
      </trkpt>
      <trkpt lat="43.41653" lon="6.51846">
        <ele>148.80000305176</ele>
        <time>2020-05-30T10:18:22.000Z</time>
      </trkpt>
      <trkpt lat="43.41653" lon="6.51833">
        <ele>149.39999389648</ele>
        <time>2020-05-30T10:18:26.000Z</time>
      </trkpt>
      <trkpt lat="43.41653" lon="6.51829">
        <ele>149.80000305176</ele>
        <time>2020-05-30T10:18:27.000Z</time>
      </trkpt>
      <trkpt lat="43.41652" lon="6.51822">
        <ele>151</ele>
        <time>2020-05-30T10:18:29.000Z</time>
      </trkpt>
      <trkpt lat="43.41653" lon="6.51818">
        <ele>151.39999389648</ele>
        <time>2020-05-30T10:18:30.000Z</time>
      </trkpt>
      <trkpt lat="43.41654" lon="6.51813">
        <ele>151.80000305176</ele>
        <time>2020-05-30T10:18:32.000Z</time>
      </trkpt>
      <trkpt lat="43.41654" lon="6.51806">
        <ele>152.39999389648</ele>
        <time>2020-05-30T10:18:34.000Z</time>
      </trkpt>
      <trkpt lat="43.41655" lon="6.51799">
        <ele>153.39999389648</ele>
        <time>2020-05-30T10:18:36.000Z</time>
      </trkpt>
      <trkpt lat="43.41655" lon="6.51795">
        <ele>153.80000305176</ele>
        <time>2020-05-30T10:18:37.000Z</time>
      </trkpt>
      <trkpt lat="43.41652" lon="6.51784">
        <ele>154.60000610352</ele>
        <time>2020-05-30T10:18:41.000Z</time>
      </trkpt>
      <trkpt lat="43.41648" lon="6.51775">
        <ele>154.80000305176</ele>
        <time>2020-05-30T10:18:44.000Z</time>
      </trkpt>
      <trkpt lat="43.41647" lon="6.51773">
        <ele>154.80000305176</ele>
        <time>2020-05-30T10:18:45.000Z</time>
      </trkpt>
      <trkpt lat="43.41644" lon="6.51767">
        <ele>155.19999694824</ele>
        <time>2020-05-30T10:18:47.000Z</time>
      </trkpt>
      <trkpt lat="43.41644" lon="6.51761">
        <ele>155.60000610352</ele>
        <time>2020-05-30T10:18:49.000Z</time>
      </trkpt>
      <trkpt lat="43.41643" lon="6.51758">
        <ele>156</ele>
        <time>2020-05-30T10:18:50.000Z</time>
      </trkpt>
      <trkpt lat="43.41644" lon="6.51749">
        <ele>157</ele>
        <time>2020-05-30T10:18:53.000Z</time>
      </trkpt>
      <trkpt lat="43.41646" lon="6.51744">
        <ele>158</ele>
        <time>2020-05-30T10:18:55.000Z</time>
      </trkpt>
      <trkpt lat="43.4165" lon="6.51737">
        <ele>159.39999389648</ele>
        <time>2020-05-30T10:18:58.000Z</time>
      </trkpt>
      <trkpt lat="43.41652" lon="6.51735">
        <ele>160</ele>
        <time>2020-05-30T10:18:59.000Z</time>
      </trkpt>
      <trkpt lat="43.41654" lon="6.51733">
        <ele>160.60000610352</ele>
        <time>2020-05-30T10:19:00.000Z</time>
      </trkpt>
      <trkpt lat="43.41656" lon="6.51727">
        <ele>162</ele>
        <time>2020-05-30T10:19:03.000Z</time>
      </trkpt>
      <trkpt lat="43.41656" lon="6.51723">
        <ele>163</ele>
        <time>2020-05-30T10:19:05.000Z</time>
      </trkpt>
      <trkpt lat="43.41654" lon="6.51716">
        <ele>164</ele>
        <time>2020-05-30T10:19:08.000Z</time>
      </trkpt>
      <trkpt lat="43.41654" lon="6.51716">
        <ele>164.19999694824</ele>
        <time>2020-05-30T10:19:09.000Z</time>
      </trkpt>
      <trkpt lat="43.41654" lon="6.51715">
        <ele>164.39999389648</ele>
        <time>2020-05-30T10:19:11.000Z</time>
      </trkpt>
      <trkpt lat="43.41653" lon="6.51714">
        <ele>164.39999389648</ele>
        <time>2020-05-30T10:19:21.000Z</time>
      </trkpt>
      <trkpt lat="43.41651" lon="6.51712">
        <ele>164.60000610352</ele>
        <time>2020-05-30T10:19:29.000Z</time>
      </trkpt>
      <trkpt lat="43.4165" lon="6.51711">
        <ele>164.60000610352</ele>
        <time>2020-05-30T10:19:30.000Z</time>
      </trkpt>
      <trkpt lat="43.41644" lon="6.51705">
        <ele>164.60000610352</ele>
        <time>2020-05-30T10:19:33.000Z</time>
      </trkpt>
      <trkpt lat="43.41634" lon="6.51702">
        <ele>164.19999694824</ele>
        <time>2020-05-30T10:19:37.000Z</time>
      </trkpt>
      <trkpt lat="43.41624" lon="6.51709">
        <ele>163.80000305176</ele>
        <time>2020-05-30T10:19:41.000Z</time>
      </trkpt>
      <trkpt lat="43.41616" lon="6.51723">
        <ele>163.60000610352</ele>
        <time>2020-05-30T10:19:47.000Z</time>
      </trkpt>
      <trkpt lat="43.41603" lon="6.51739">
        <ele>163.60000610352</ele>
        <time>2020-05-30T10:19:54.000Z</time>
      </trkpt>
      <trkpt lat="43.41589" lon="6.51748">
        <ele>163.39999389648</ele>
        <time>2020-05-30T10:20:00.000Z</time>
      </trkpt>
      <trkpt lat="43.41572" lon="6.51747">
        <ele>163.39999389648</ele>
        <time>2020-05-30T10:20:06.000Z</time>
      </trkpt>
      <trkpt lat="43.41549" lon="6.51734">
        <ele>163.39999389648</ele>
        <time>2020-05-30T10:20:14.000Z</time>
      </trkpt>
      <trkpt lat="43.41529" lon="6.51718">
        <ele>163.39999389648</ele>
        <time>2020-05-30T10:20:21.000Z</time>
      </trkpt>
      <trkpt lat="43.41512" lon="6.5171">
        <ele>163.39999389648</ele>
        <time>2020-05-30T10:20:26.000Z</time>
      </trkpt>
      <trkpt lat="43.41491" lon="6.51703">
        <ele>163.60000610352</ele>
        <time>2020-05-30T10:20:32.000Z</time>
      </trkpt>
      <trkpt lat="43.4147" lon="6.517">
        <ele>163.60000610352</ele>
        <time>2020-05-30T10:20:38.000Z</time>
      </trkpt>
      <trkpt lat="43.41458" lon="6.51721">
        <ele>163.60000610352</ele>
        <time>2020-05-30T10:20:43.000Z</time>
      </trkpt>
      <trkpt lat="43.41439" lon="6.5175">
        <ele>164</ele>
        <time>2020-05-30T10:20:50.000Z</time>
      </trkpt>
      <trkpt lat="43.41414" lon="6.51773">
        <ele>164.19999694824</ele>
        <time>2020-05-30T10:20:58.000Z</time>
      </trkpt>
      <trkpt lat="43.41399" lon="6.51775">
        <ele>164.39999389648</ele>
        <time>2020-05-30T10:21:02.000Z</time>
      </trkpt>
      <trkpt lat="43.41394" lon="6.51773">
        <ele>164.19999694824</ele>
        <time>2020-05-30T10:21:03.000Z</time>
      </trkpt>
      <trkpt lat="43.4138" lon="6.5176">
        <ele>163.19999694824</ele>
        <time>2020-05-30T10:21:07.000Z</time>
      </trkpt>
      <trkpt lat="43.41377" lon="6.51756">
        <ele>163.19999694824</ele>
        <time>2020-05-30T10:21:08.000Z</time>
      </trkpt>
      <trkpt lat="43.41355" lon="6.51732">
        <ele>164</ele>
        <time>2020-05-30T10:21:16.000Z</time>
      </trkpt>
      <trkpt lat="43.4134" lon="6.51728">
        <ele>164.80000305176</ele>
        <time>2020-05-30T10:21:20.000Z</time>
      </trkpt>
      <trkpt lat="43.41332" lon="6.51729">
        <ele>165.60000610352</ele>
        <time>2020-05-30T10:21:22.000Z</time>
      </trkpt>
      <trkpt lat="43.41322" lon="6.51733">
        <ele>167</ele>
        <time>2020-05-30T10:21:25.000Z</time>
      </trkpt>
      <trkpt lat="43.41318" lon="6.51733">
        <ele>167.19999694824</ele>
        <time>2020-05-30T10:21:26.000Z</time>
      </trkpt>
      <trkpt lat="43.4131" lon="6.51733">
        <ele>168</ele>
        <time>2020-05-30T10:21:28.000Z</time>
      </trkpt>
      <trkpt lat="43.41299" lon="6.5173">
        <ele>168.80000305176</ele>
        <time>2020-05-30T10:21:31.000Z</time>
      </trkpt>
      <trkpt lat="43.41295" lon="6.51728">
        <ele>169.19999694824</ele>
        <time>2020-05-30T10:21:32.000Z</time>
      </trkpt>
      <trkpt lat="43.41285" lon="6.51722">
        <ele>170.39999389648</ele>
        <time>2020-05-30T10:21:35.000Z</time>
      </trkpt>
      <trkpt lat="43.41282" lon="6.51718">
        <ele>171</ele>
        <time>2020-05-30T10:21:37.000Z</time>
      </trkpt>
      <trkpt lat="43.41281" lon="6.51718">
        <ele>171.39999389648</ele>
        <time>2020-05-30T10:21:38.000Z</time>
      </trkpt>
      <trkpt lat="43.4128" lon="6.51718">
        <ele>172</ele>
        <time>2020-05-30T10:21:41.000Z</time>
      </trkpt>
      <trkpt lat="43.41279" lon="6.51717">
        <ele>172.19999694824</ele>
        <time>2020-05-30T10:21:44.000Z</time>
      </trkpt>
      <trkpt lat="43.41275" lon="6.51715">
        <ele>172.19999694824</ele>
        <time>2020-05-30T10:21:47.000Z</time>
      </trkpt>
      <trkpt lat="43.41267" lon="6.51707">
        <ele>172.39999389648</ele>
        <time>2020-05-30T10:21:51.000Z</time>
      </trkpt>
      <trkpt lat="43.41261" lon="6.51703">
        <ele>172.80000305176</ele>
        <time>2020-05-30T10:21:53.000Z</time>
      </trkpt>
      <trkpt lat="43.41252" lon="6.51697">
        <ele>173.60000610352</ele>
        <time>2020-05-30T10:21:56.000Z</time>
      </trkpt>
      <trkpt lat="43.4124" lon="6.51692">
        <ele>174.80000305176</ele>
        <time>2020-05-30T10:22:00.000Z</time>
      </trkpt>
      <trkpt lat="43.41232" lon="6.51686">
        <ele>175.80000305176</ele>
        <time>2020-05-30T10:22:03.000Z</time>
      </trkpt>
      <trkpt lat="43.41225" lon="6.51677">
        <ele>176.60000610352</ele>
        <time>2020-05-30T10:22:06.000Z</time>
      </trkpt>
      <trkpt lat="43.41222" lon="6.51671">
        <ele>177.19999694824</ele>
        <time>2020-05-30T10:22:08.000Z</time>
      </trkpt>
      <trkpt lat="43.41216" lon="6.51653">
        <ele>178.19999694824</ele>
        <time>2020-05-30T10:22:13.000Z</time>
      </trkpt>
      <trkpt lat="43.4121" lon="6.51634">
        <ele>179.39999389648</ele>
        <time>2020-05-30T10:22:18.000Z</time>
      </trkpt>
      <trkpt lat="43.41209" lon="6.51625">
        <ele>179.80000305176</ele>
        <time>2020-05-30T10:22:20.000Z</time>
      </trkpt>
      <trkpt lat="43.41208" lon="6.51609">
        <ele>180.39999389648</ele>
        <time>2020-05-30T10:22:24.000Z</time>
      </trkpt>
      <trkpt lat="43.41208" lon="6.51597">
        <ele>181.60000610352</ele>
        <time>2020-05-30T10:22:27.000Z</time>
      </trkpt>
      <trkpt lat="43.41208" lon="6.51594">
        <ele>182.19999694824</ele>
        <time>2020-05-30T10:22:28.000Z</time>
      </trkpt>
      <trkpt lat="43.41209" lon="6.51587">
        <ele>182.80000305176</ele>
        <time>2020-05-30T10:22:30.000Z</time>
      </trkpt>
      <trkpt lat="43.4121" lon="6.51572">
        <ele>183.39999389648</ele>
        <time>2020-05-30T10:22:34.000Z</time>
      </trkpt>
      <trkpt lat="43.41212" lon="6.51569">
        <ele>183.39999389648</ele>
        <time>2020-05-30T10:22:35.000Z</time>
      </trkpt>
      <trkpt lat="43.41219" lon="6.51568">
        <ele>184</ele>
        <time>2020-05-30T10:22:38.000Z</time>
      </trkpt>
      <trkpt lat="43.4122" lon="6.51569">
        <ele>184.19999694824</ele>
        <time>2020-05-30T10:22:39.000Z</time>
      </trkpt>
      <trkpt lat="43.41222" lon="6.51571">
        <ele>184.60000610352</ele>
        <time>2020-05-30T10:22:41.000Z</time>
      </trkpt>
      <trkpt lat="43.41224" lon="6.51574">
        <ele>185.19999694824</ele>
        <time>2020-05-30T10:22:43.000Z</time>
      </trkpt>
      <trkpt lat="43.41225" lon="6.51578">
        <ele>186</ele>
        <time>2020-05-30T10:22:45.000Z</time>
      </trkpt>
      <trkpt lat="43.41226" lon="6.51579">
        <ele>186.19999694824</ele>
        <time>2020-05-30T10:22:46.000Z</time>
      </trkpt>
      <trkpt lat="43.41229" lon="6.51581">
        <ele>186.80000305176</ele>
        <time>2020-05-30T10:22:48.000Z</time>
      </trkpt>
      <trkpt lat="43.41235" lon="6.51581">
        <ele>187.19999694824</ele>
        <time>2020-05-30T10:22:51.000Z</time>
      </trkpt>
      <trkpt lat="43.41238" lon="6.51581">
        <ele>187.60000610352</ele>
        <time>2020-05-30T10:22:52.000Z</time>
      </trkpt>
      <trkpt lat="43.41243" lon="6.51578">
        <ele>188.80000305176</ele>
        <time>2020-05-30T10:22:55.000Z</time>
      </trkpt>
      <trkpt lat="43.41245" lon="6.51577">
        <ele>189</ele>
        <time>2020-05-30T10:22:56.000Z</time>
      </trkpt>
      <trkpt lat="43.41251" lon="6.5157">
        <ele>190</ele>
        <time>2020-05-30T10:23:00.000Z</time>
      </trkpt>
      <trkpt lat="43.41252" lon="6.51565">
        <ele>190.80000305176</ele>
        <time>2020-05-30T10:23:02.000Z</time>
      </trkpt>
      <trkpt lat="43.41253" lon="6.51563">
        <ele>191.19999694824</ele>
        <time>2020-05-30T10:23:03.000Z</time>
      </trkpt>
      <trkpt lat="43.41255" lon="6.51555">
        <ele>192.19999694824</ele>
        <time>2020-05-30T10:23:06.000Z</time>
      </trkpt>
      <trkpt lat="43.41256" lon="6.51546">
        <ele>193.39999389648</ele>
        <time>2020-05-30T10:23:09.000Z</time>
      </trkpt>
      <trkpt lat="43.41258" lon="6.51536">
        <ele>194.39999389648</ele>
        <time>2020-05-30T10:23:13.000Z</time>
      </trkpt>
      <trkpt lat="43.41258" lon="6.51536">
        <ele>194.80000305176</ele>
        <time>2020-05-30T10:23:15.000Z</time>
      </trkpt>
      <trkpt lat="43.41258" lon="6.51534">
        <ele>195</ele>
        <time>2020-05-30T10:23:17.000Z</time>
      </trkpt>
      <trkpt lat="43.41257" lon="6.5153">
        <ele>195.19999694824</ele>
        <time>2020-05-30T10:23:19.000Z</time>
      </trkpt>
      <trkpt lat="43.41253" lon="6.5152">
        <ele>195.39999389648</ele>
        <time>2020-05-30T10:23:22.000Z</time>
      </trkpt>
      <trkpt lat="43.41249" lon="6.51514">
        <ele>195.19999694824</ele>
        <time>2020-05-30T10:23:24.000Z</time>
      </trkpt>
      <trkpt lat="43.41229" lon="6.51501">
        <ele>196.19999694824</ele>
        <time>2020-05-30T10:23:32.000Z</time>
      </trkpt>
      <trkpt lat="43.41226" lon="6.51499">
        <ele>196.60000610352</ele>
        <time>2020-05-30T10:23:33.000Z</time>
      </trkpt>
      <trkpt lat="43.41215" lon="6.51491">
        <ele>197.60000610352</ele>
        <time>2020-05-30T10:23:37.000Z</time>
      </trkpt>
      <trkpt lat="43.41211" lon="6.51486">
        <ele>198.39999389648</ele>
        <time>2020-05-30T10:23:39.000Z</time>
      </trkpt>
      <trkpt lat="43.41208" lon="6.51482">
        <ele>199</ele>
        <time>2020-05-30T10:23:41.000Z</time>
      </trkpt>
      <trkpt lat="43.41202" lon="6.51473">
        <ele>200.39999389648</ele>
        <time>2020-05-30T10:23:44.000Z</time>
      </trkpt>
      <trkpt lat="43.412" lon="6.51471">
        <ele>200.80000305176</ele>
        <time>2020-05-30T10:23:45.000Z</time>
      </trkpt>
      <trkpt lat="43.41191" lon="6.51459">
        <ele>201.80000305176</ele>
        <time>2020-05-30T10:23:50.000Z</time>
      </trkpt>
      <trkpt lat="43.41185" lon="6.51451">
        <ele>202.60000610352</ele>
        <time>2020-05-30T10:23:53.000Z</time>
      </trkpt>
      <trkpt lat="43.41183" lon="6.51448">
        <ele>203</ele>
        <time>2020-05-30T10:23:54.000Z</time>
      </trkpt>
      <trkpt lat="43.41178" lon="6.5144">
        <ele>204.19999694824</ele>
        <time>2020-05-30T10:23:57.000Z</time>
      </trkpt>
      <trkpt lat="43.41173" lon="6.51433">
        <ele>205.60000610352</ele>
        <time>2020-05-30T10:24:00.000Z</time>
      </trkpt>
      <trkpt lat="43.41166" lon="6.51426">
        <ele>206.60000610352</ele>
        <time>2020-05-30T10:24:03.000Z</time>
      </trkpt>
      <trkpt lat="43.41164" lon="6.51424">
        <ele>206.80000305176</ele>
        <time>2020-05-30T10:24:04.000Z</time>
      </trkpt>
      <trkpt lat="43.41154" lon="6.51411">
        <ele>207.60000610352</ele>
        <time>2020-05-30T10:24:10.000Z</time>
      </trkpt>
      <trkpt lat="43.4115" lon="6.51407">
        <ele>208</ele>
        <time>2020-05-30T10:24:12.000Z</time>
      </trkpt>
      <trkpt lat="43.41144" lon="6.51399">
        <ele>209.39999389648</ele>
        <time>2020-05-30T10:24:16.000Z</time>
      </trkpt>
      <trkpt lat="43.41143" lon="6.51397">
        <ele>209.80000305176</ele>
        <time>2020-05-30T10:24:17.000Z</time>
      </trkpt>
      <trkpt lat="43.41141" lon="6.51393">
        <ele>210.39999389648</ele>
        <time>2020-05-30T10:24:19.000Z</time>
      </trkpt>
      <trkpt lat="43.41139" lon="6.51386">
        <ele>211.39999389648</ele>
        <time>2020-05-30T10:24:22.000Z</time>
      </trkpt>
      <trkpt lat="43.41138" lon="6.51383">
        <ele>211.80000305176</ele>
        <time>2020-05-30T10:24:23.000Z</time>
      </trkpt>
      <trkpt lat="43.41136" lon="6.51375">
        <ele>212.60000610352</ele>
        <time>2020-05-30T10:24:26.000Z</time>
      </trkpt>
      <trkpt lat="43.41134" lon="6.51366">
        <ele>213.60000610352</ele>
        <time>2020-05-30T10:24:29.000Z</time>
      </trkpt>
      <trkpt lat="43.41134" lon="6.51361">
        <ele>214.80000305176</ele>
        <time>2020-05-30T10:24:31.000Z</time>
      </trkpt>
      <trkpt lat="43.41136" lon="6.51352">
        <ele>216.19999694824</ele>
        <time>2020-05-30T10:24:34.000Z</time>
      </trkpt>
      <trkpt lat="43.41138" lon="6.51351">
        <ele>216.60000610352</ele>
        <time>2020-05-30T10:24:35.000Z</time>
      </trkpt>
      <trkpt lat="43.41142" lon="6.51351">
        <ele>217.39999389648</ele>
        <time>2020-05-30T10:24:37.000Z</time>
      </trkpt>
      <trkpt lat="43.41146" lon="6.51353">
        <ele>218.39999389648</ele>
        <time>2020-05-30T10:24:39.000Z</time>
      </trkpt>
      <trkpt lat="43.41147" lon="6.51355">
        <ele>218.80000305176</ele>
        <time>2020-05-30T10:24:40.000Z</time>
      </trkpt>
      <trkpt lat="43.4115" lon="6.51359">
        <ele>219.39999389648</ele>
        <time>2020-05-30T10:24:42.000Z</time>
      </trkpt>
      <trkpt lat="43.41153" lon="6.51362">
        <ele>220</ele>
        <time>2020-05-30T10:24:44.000Z</time>
      </trkpt>
      <trkpt lat="43.41156" lon="6.51364">
        <ele>220.60000610352</ele>
        <time>2020-05-30T10:24:46.000Z</time>
      </trkpt>
      <trkpt lat="43.41164" lon="6.51366">
        <ele>221.80000305176</ele>
        <time>2020-05-30T10:24:49.000Z</time>
      </trkpt>
      <trkpt lat="43.41177" lon="6.51368">
        <ele>223</ele>
        <time>2020-05-30T10:24:54.000Z</time>
      </trkpt>
      <trkpt lat="43.41185" lon="6.51368">
        <ele>224.19999694824</ele>
        <time>2020-05-30T10:24:57.000Z</time>
      </trkpt>
      <trkpt lat="43.41195" lon="6.51369">
        <ele>225.39999389648</ele>
        <time>2020-05-30T10:25:00.000Z</time>
      </trkpt>
      <trkpt lat="43.41198" lon="6.51369">
        <ele>225.60000610352</ele>
        <time>2020-05-30T10:25:01.000Z</time>
      </trkpt>
      <trkpt lat="43.41204" lon="6.51369">
        <ele>226.39999389648</ele>
        <time>2020-05-30T10:25:03.000Z</time>
      </trkpt>
      <trkpt lat="43.41213" lon="6.51371">
        <ele>227.60000610352</ele>
        <time>2020-05-30T10:25:06.000Z</time>
      </trkpt>
      <trkpt lat="43.41216" lon="6.51372">
        <ele>228</ele>
        <time>2020-05-30T10:25:07.000Z</time>
      </trkpt>
      <trkpt lat="43.41221" lon="6.51373">
        <ele>228.80000305176</ele>
        <time>2020-05-30T10:25:09.000Z</time>
      </trkpt>
      <trkpt lat="43.41227" lon="6.51374">
        <ele>229.80000305176</ele>
        <time>2020-05-30T10:25:12.000Z</time>
      </trkpt>
      <trkpt lat="43.41232" lon="6.51375">
        <ele>230.80000305176</ele>
        <time>2020-05-30T10:25:14.000Z</time>
      </trkpt>
      <trkpt lat="43.41235" lon="6.51374">
        <ele>231</ele>
        <time>2020-05-30T10:25:15.000Z</time>
      </trkpt>
      <trkpt lat="43.41246" lon="6.51375">
        <ele>231.60000610352</ele>
        <time>2020-05-30T10:25:19.000Z</time>
      </trkpt>
      <trkpt lat="43.41253" lon="6.51375">
        <ele>232.19999694824</ele>
        <time>2020-05-30T10:25:22.000Z</time>
      </trkpt>
      <trkpt lat="43.41263" lon="6.51375">
        <ele>233.60000610352</ele>
        <time>2020-05-30T10:25:26.000Z</time>
      </trkpt>
      <trkpt lat="43.41268" lon="6.51375">
        <ele>234.39999389648</ele>
        <time>2020-05-30T10:25:28.000Z</time>
      </trkpt>
      <trkpt lat="43.41271" lon="6.51375">
        <ele>234.60000610352</ele>
        <time>2020-05-30T10:25:29.000Z</time>
      </trkpt>
      <trkpt lat="43.41279" lon="6.51374">
        <ele>235.60000610352</ele>
        <time>2020-05-30T10:25:32.000Z</time>
      </trkpt>
      <trkpt lat="43.41285" lon="6.51374">
        <ele>236.80000305176</ele>
        <time>2020-05-30T10:25:35.000Z</time>
      </trkpt>
      <trkpt lat="43.41292" lon="6.51373">
        <ele>237.80000305176</ele>
        <time>2020-05-30T10:25:38.000Z</time>
      </trkpt>
      <trkpt lat="43.41301" lon="6.51374">
        <ele>238.39999389648</ele>
        <time>2020-05-30T10:25:41.000Z</time>
      </trkpt>
      <trkpt lat="43.41309" lon="6.51378">
        <ele>239.19999694824</ele>
        <time>2020-05-30T10:25:44.000Z</time>
      </trkpt>
      <trkpt lat="43.41315" lon="6.51383">
        <ele>240.19999694824</ele>
        <time>2020-05-30T10:25:47.000Z</time>
      </trkpt>
      <trkpt lat="43.41322" lon="6.51388">
        <ele>241.39999389648</ele>
        <time>2020-05-30T10:25:50.000Z</time>
      </trkpt>
      <trkpt lat="43.41332" lon="6.51395">
        <ele>242.60000610352</ele>
        <time>2020-05-30T10:25:54.000Z</time>
      </trkpt>
      <trkpt lat="43.41347" lon="6.514">
        <ele>243.80000305176</ele>
        <time>2020-05-30T10:25:59.000Z</time>
      </trkpt>
      <trkpt lat="43.41353" lon="6.51401">
        <ele>244.60000610352</ele>
        <time>2020-05-30T10:26:01.000Z</time>
      </trkpt>
      <trkpt lat="43.41356" lon="6.51401">
        <ele>245.19999694824</ele>
        <time>2020-05-30T10:26:02.000Z</time>
      </trkpt>
      <trkpt lat="43.41365" lon="6.51401">
        <ele>246.19999694824</ele>
        <time>2020-05-30T10:26:05.000Z</time>
      </trkpt>
      <trkpt lat="43.41371" lon="6.514">
        <ele>246.80000305176</ele>
        <time>2020-05-30T10:26:07.000Z</time>
      </trkpt>
      <trkpt lat="43.41376" lon="6.51398">
        <ele>247.39999389648</ele>
        <time>2020-05-30T10:26:09.000Z</time>
      </trkpt>
      <trkpt lat="43.41388" lon="6.51395">
        <ele>248.60000610352</ele>
        <time>2020-05-30T10:26:13.000Z</time>
      </trkpt>
      <trkpt lat="43.41394" lon="6.51394">
        <ele>249.19999694824</ele>
        <time>2020-05-30T10:26:15.000Z</time>
      </trkpt>
      <trkpt lat="43.414" lon="6.51393">
        <ele>250</ele>
        <time>2020-05-30T10:26:17.000Z</time>
      </trkpt>
      <trkpt lat="43.41409" lon="6.51391">
        <ele>251</ele>
        <time>2020-05-30T10:26:20.000Z</time>
      </trkpt>
      <trkpt lat="43.41417" lon="6.51388">
        <ele>252</ele>
        <time>2020-05-30T10:26:23.000Z</time>
      </trkpt>
      <trkpt lat="43.4142" lon="6.51387">
        <ele>252.39999389648</ele>
        <time>2020-05-30T10:26:24.000Z</time>
      </trkpt>
      <trkpt lat="43.41428" lon="6.51382">
        <ele>253.60000610352</ele>
        <time>2020-05-30T10:26:27.000Z</time>
      </trkpt>
      <trkpt lat="43.4144" lon="6.51377">
        <ele>254.80000305176</ele>
        <time>2020-05-30T10:26:31.000Z</time>
      </trkpt>
      <trkpt lat="43.41452" lon="6.51374">
        <ele>256</ele>
        <time>2020-05-30T10:26:35.000Z</time>
      </trkpt>
      <trkpt lat="43.41461" lon="6.51372">
        <ele>257</ele>
        <time>2020-05-30T10:26:38.000Z</time>
      </trkpt>
      <trkpt lat="43.41473" lon="6.51371">
        <ele>258.39999389648</ele>
        <time>2020-05-30T10:26:42.000Z</time>
      </trkpt>
      <trkpt lat="43.41479" lon="6.5137">
        <ele>259</ele>
        <time>2020-05-30T10:26:44.000Z</time>
      </trkpt>
      <trkpt lat="43.41484" lon="6.51369">
        <ele>259.60000610352</ele>
        <time>2020-05-30T10:26:46.000Z</time>
      </trkpt>
      <trkpt lat="43.41495" lon="6.51368">
        <ele>260.60000610352</ele>
        <time>2020-05-30T10:26:50.000Z</time>
      </trkpt>
      <trkpt lat="43.41498" lon="6.51367">
        <ele>260.79998779297</ele>
        <time>2020-05-30T10:26:51.000Z</time>
      </trkpt>
      <trkpt lat="43.41506" lon="6.51365">
        <ele>261.79998779297</ele>
        <time>2020-05-30T10:26:54.000Z</time>
      </trkpt>
      <trkpt lat="43.41515" lon="6.51362">
        <ele>263.20001220703</ele>
        <time>2020-05-30T10:26:57.000Z</time>
      </trkpt>
      <trkpt lat="43.41521" lon="6.5136">
        <ele>263.79998779297</ele>
        <time>2020-05-30T10:26:59.000Z</time>
      </trkpt>
      <trkpt lat="43.41527" lon="6.51359">
        <ele>264.39999389648</ele>
        <time>2020-05-30T10:27:01.000Z</time>
      </trkpt>
      <trkpt lat="43.41535" lon="6.51358">
        <ele>265.60000610352</ele>
        <time>2020-05-30T10:27:04.000Z</time>
      </trkpt>
      <trkpt lat="43.41538" lon="6.51358">
        <ele>266</ele>
        <time>2020-05-30T10:27:05.000Z</time>
      </trkpt>
      <trkpt lat="43.41544" lon="6.51358">
        <ele>266.60000610352</ele>
        <time>2020-05-30T10:27:07.000Z</time>
      </trkpt>
      <trkpt lat="43.41554" lon="6.51358">
        <ele>268</ele>
        <time>2020-05-30T10:27:11.000Z</time>
      </trkpt>
      <trkpt lat="43.41561" lon="6.51357">
        <ele>268.79998779297</ele>
        <time>2020-05-30T10:27:13.000Z</time>
      </trkpt>
      <trkpt lat="43.41564" lon="6.51356">
        <ele>269.20001220703</ele>
        <time>2020-05-30T10:27:14.000Z</time>
      </trkpt>
      <trkpt lat="43.41575" lon="6.51356">
        <ele>270.39999389648</ele>
        <time>2020-05-30T10:27:18.000Z</time>
      </trkpt>
      <trkpt lat="43.41581" lon="6.51357">
        <ele>271</ele>
        <time>2020-05-30T10:27:20.000Z</time>
      </trkpt>
      <trkpt lat="43.4159" lon="6.51359">
        <ele>271.60000610352</ele>
        <time>2020-05-30T10:27:23.000Z</time>
      </trkpt>
      <trkpt lat="43.41607" lon="6.51359">
        <ele>272.20001220703</ele>
        <time>2020-05-30T10:27:29.000Z</time>
      </trkpt>
      <trkpt lat="43.41621" lon="6.51353">
        <ele>271.60000610352</ele>
        <time>2020-05-30T10:27:35.000Z</time>
      </trkpt>
      <trkpt lat="43.4163" lon="6.51339">
        <ele>271.20001220703</ele>
        <time>2020-05-30T10:27:41.000Z</time>
      </trkpt>
      <trkpt lat="43.41629" lon="6.51336">
        <ele>271.20001220703</ele>
        <time>2020-05-30T10:27:42.000Z</time>
      </trkpt>
      <trkpt lat="43.41625" lon="6.51329">
        <ele>271</ele>
        <time>2020-05-30T10:27:44.000Z</time>
      </trkpt>
      <trkpt lat="43.41615" lon="6.51308">
        <ele>272.79998779297</ele>
        <time>2020-05-30T10:27:50.000Z</time>
      </trkpt>
      <trkpt lat="43.4161" lon="6.513">
        <ele>274</ele>
        <time>2020-05-30T10:27:53.000Z</time>
      </trkpt>
      <trkpt lat="43.41608" lon="6.51295">
        <ele>275.20001220703</ele>
        <time>2020-05-30T10:27:55.000Z</time>
      </trkpt>
      <trkpt lat="43.41607" lon="6.51293">
        <ele>275.39999389648</ele>
        <time>2020-05-30T10:27:56.000Z</time>
      </trkpt>
      <trkpt lat="43.41604" lon="6.51289">
        <ele>276.60000610352</ele>
        <time>2020-05-30T10:27:58.000Z</time>
      </trkpt>
      <trkpt lat="43.41598" lon="6.51282">
        <ele>278.20001220703</ele>
        <time>2020-05-30T10:28:02.000Z</time>
      </trkpt>
      <trkpt lat="43.41596" lon="6.51281">
        <ele>278.39999389648</ele>
        <time>2020-05-30T10:28:03.000Z</time>
      </trkpt>
      <trkpt lat="43.41593" lon="6.51278">
        <ele>279.39999389648</ele>
        <time>2020-05-30T10:28:05.000Z</time>
      </trkpt>
      <trkpt lat="43.41587" lon="6.51274">
        <ele>280.79998779297</ele>
        <time>2020-05-30T10:28:09.000Z</time>
      </trkpt>
      <trkpt lat="43.41585" lon="6.51273">
        <ele>281.20001220703</ele>
        <time>2020-05-30T10:28:10.000Z</time>
      </trkpt>
      <trkpt lat="43.41581" lon="6.5127">
        <ele>282</ele>
        <time>2020-05-30T10:28:12.000Z</time>
      </trkpt>
      <trkpt lat="43.41575" lon="6.51264">
        <ele>283</ele>
        <time>2020-05-30T10:28:15.000Z</time>
      </trkpt>
      <trkpt lat="43.41572" lon="6.51262">
        <ele>283.79998779297</ele>
        <time>2020-05-30T10:28:17.000Z</time>
      </trkpt>
      <trkpt lat="43.41568" lon="6.51261">
        <ele>284.39999389648</ele>
        <time>2020-05-30T10:28:19.000Z</time>
      </trkpt>
      <trkpt lat="43.41566" lon="6.51261">
        <ele>285.39999389648</ele>
        <time>2020-05-30T10:28:21.000Z</time>
      </trkpt>
      <trkpt lat="43.41566" lon="6.51262">
        <ele>286.39999389648</ele>
        <time>2020-05-30T10:28:23.000Z</time>
      </trkpt>
      <trkpt lat="43.41565" lon="6.51262">
        <ele>287.60000610352</ele>
        <time>2020-05-30T10:28:28.000Z</time>
      </trkpt>
      <trkpt lat="43.41565" lon="6.51261">
        <ele>287.60000610352</ele>
        <time>2020-05-30T10:28:29.000Z</time>
      </trkpt>
      <trkpt lat="43.41565" lon="6.5126">
        <ele>287.79998779297</ele>
        <time>2020-05-30T10:28:36.000Z</time>
      </trkpt>
      <trkpt lat="43.41562" lon="6.51259">
        <ele>288.20001220703</ele>
        <time>2020-05-30T10:28:42.000Z</time>
      </trkpt>
      <trkpt lat="43.4156" lon="6.51259">
        <ele>288.60000610352</ele>
        <time>2020-05-30T10:28:45.000Z</time>
      </trkpt>
      <trkpt lat="43.4156" lon="6.51259">
        <ele>289.20001220703</ele>
        <time>2020-05-30T10:28:49.000Z</time>
      </trkpt>
      <trkpt lat="43.41554" lon="6.51259">
        <ele>289.20001220703</ele>
        <time>2020-05-30T10:28:54.000Z</time>
      </trkpt>
      <trkpt lat="43.41548" lon="6.5126">
        <ele>290</ele>
        <time>2020-05-30T10:28:57.000Z</time>
      </trkpt>
      <trkpt lat="43.41539" lon="6.51263">
        <ele>291</ele>
        <time>2020-05-30T10:29:01.000Z</time>
      </trkpt>
      <trkpt lat="43.41536" lon="6.51264">
        <ele>291.20001220703</ele>
        <time>2020-05-30T10:29:02.000Z</time>
      </trkpt>
      <trkpt lat="43.41526" lon="6.51263">
        <ele>291.79998779297</ele>
        <time>2020-05-30T10:29:07.000Z</time>
      </trkpt>
      <trkpt lat="43.4152" lon="6.51261">
        <ele>292.39999389648</ele>
        <time>2020-05-30T10:29:10.000Z</time>
      </trkpt>
      <trkpt lat="43.41515" lon="6.51256">
        <ele>293.20001220703</ele>
        <time>2020-05-30T10:29:13.000Z</time>
      </trkpt>
      <trkpt lat="43.41514" lon="6.51254">
        <ele>293.79998779297</ele>
        <time>2020-05-30T10:29:14.000Z</time>
      </trkpt>
      <trkpt lat="43.41507" lon="6.5125">
        <ele>295.39999389648</ele>
        <time>2020-05-30T10:29:17.000Z</time>
      </trkpt>
      <trkpt lat="43.41504" lon="6.51249">
        <ele>296</ele>
        <time>2020-05-30T10:29:19.000Z</time>
      </trkpt>
      <trkpt lat="43.41502" lon="6.51249">
        <ele>296.60000610352</ele>
        <time>2020-05-30T10:29:20.000Z</time>
      </trkpt>
      <trkpt lat="43.41496" lon="6.51247">
        <ele>298</ele>
        <time>2020-05-30T10:29:23.000Z</time>
      </trkpt>
      <trkpt lat="43.4149" lon="6.51242">
        <ele>299</ele>
        <time>2020-05-30T10:29:26.000Z</time>
      </trkpt>
      <trkpt lat="43.41486" lon="6.51236">
        <ele>300.20001220703</ele>
        <time>2020-05-30T10:29:29.000Z</time>
      </trkpt>
      <trkpt lat="43.41484" lon="6.51233">
        <ele>300.79998779297</ele>
        <time>2020-05-30T10:29:31.000Z</time>
      </trkpt>
      <trkpt lat="43.41483" lon="6.51231">
        <ele>301.79998779297</ele>
        <time>2020-05-30T10:29:32.000Z</time>
      </trkpt>
      <trkpt lat="43.4148" lon="6.51226">
        <ele>303.39999389648</ele>
        <time>2020-05-30T10:29:35.000Z</time>
      </trkpt>
      <trkpt lat="43.41477" lon="6.51225">
        <ele>304.39999389648</ele>
        <time>2020-05-30T10:29:37.000Z</time>
      </trkpt>
      <trkpt lat="43.41475" lon="6.51224">
        <ele>304.79998779297</ele>
        <time>2020-05-30T10:29:38.000Z</time>
      </trkpt>
      <trkpt lat="43.41469" lon="6.51222">
        <ele>306.20001220703</ele>
        <time>2020-05-30T10:29:42.000Z</time>
      </trkpt>
      <trkpt lat="43.41466" lon="6.51221">
        <ele>306.79998779297</ele>
        <time>2020-05-30T10:29:44.000Z</time>
      </trkpt>
      <trkpt lat="43.41463" lon="6.5122">
        <ele>307.39999389648</ele>
        <time>2020-05-30T10:29:46.000Z</time>
      </trkpt>
      <trkpt lat="43.41458" lon="6.51218">
        <ele>308.79998779297</ele>
        <time>2020-05-30T10:29:49.000Z</time>
      </trkpt>
      <trkpt lat="43.41455" lon="6.51215">
        <ele>310.20001220703</ele>
        <time>2020-05-30T10:29:52.000Z</time>
      </trkpt>
      <trkpt lat="43.41453" lon="6.51214">
        <ele>310.60000610352</ele>
        <time>2020-05-30T10:29:53.000Z</time>
      </trkpt>
      <trkpt lat="43.4145" lon="6.51211">
        <ele>311.39999389648</ele>
        <time>2020-05-30T10:29:55.000Z</time>
      </trkpt>
      <trkpt lat="43.41443" lon="6.51205">
        <ele>312.39999389648</ele>
        <time>2020-05-30T10:30:00.000Z</time>
      </trkpt>
      <trkpt lat="43.41441" lon="6.51204">
        <ele>312.60000610352</ele>
        <time>2020-05-30T10:30:01.000Z</time>
      </trkpt>
      <trkpt lat="43.41435" lon="6.51198">
        <ele>313.39999389648</ele>
        <time>2020-05-30T10:30:05.000Z</time>
      </trkpt>
      <trkpt lat="43.41431" lon="6.51194">
        <ele>314.20001220703</ele>
        <time>2020-05-30T10:30:08.000Z</time>
      </trkpt>
      <trkpt lat="43.41428" lon="6.51191">
        <ele>314.60000610352</ele>
        <time>2020-05-30T10:30:10.000Z</time>
      </trkpt>
      <trkpt lat="43.41421" lon="6.51186">
        <ele>315.79998779297</ele>
        <time>2020-05-30T10:30:14.000Z</time>
      </trkpt>
      <trkpt lat="43.41417" lon="6.51184">
        <ele>316</ele>
        <time>2020-05-30T10:30:16.000Z</time>
      </trkpt>
      <trkpt lat="43.4141" lon="6.51177">
        <ele>316.79998779297</ele>
        <time>2020-05-30T10:30:20.000Z</time>
      </trkpt>
      <trkpt lat="43.41404" lon="6.51171">
        <ele>317.39999389648</ele>
        <time>2020-05-30T10:30:24.000Z</time>
      </trkpt>
      <trkpt lat="43.41399" lon="6.51168">
        <ele>318</ele>
        <time>2020-05-30T10:30:27.000Z</time>
      </trkpt>
      <trkpt lat="43.41393" lon="6.51165">
        <ele>319.20001220703</ele>
        <time>2020-05-30T10:30:31.000Z</time>
      </trkpt>
      <trkpt lat="43.41385" lon="6.51163">
        <ele>320.60000610352</ele>
        <time>2020-05-30T10:30:35.000Z</time>
      </trkpt>
      <trkpt lat="43.4138" lon="6.51159">
        <ele>321.39999389648</ele>
        <time>2020-05-30T10:30:38.000Z</time>
      </trkpt>
      <trkpt lat="43.41378" lon="6.51158">
        <ele>321.79998779297</ele>
        <time>2020-05-30T10:30:39.000Z</time>
      </trkpt>
      <trkpt lat="43.41373" lon="6.51153">
        <ele>323</ele>
        <time>2020-05-30T10:30:42.000Z</time>
      </trkpt>
      <trkpt lat="43.41367" lon="6.51147">
        <ele>324</ele>
        <time>2020-05-30T10:30:46.000Z</time>
      </trkpt>
      <trkpt lat="43.41365" lon="6.51146">
        <ele>324.20001220703</ele>
        <time>2020-05-30T10:30:47.000Z</time>
      </trkpt>
      <trkpt lat="43.41355" lon="6.51142">
        <ele>325.20001220703</ele>
        <time>2020-05-30T10:30:52.000Z</time>
      </trkpt>
      <trkpt lat="43.41347" lon="6.51142">
        <ele>325.60000610352</ele>
        <time>2020-05-30T10:30:55.000Z</time>
      </trkpt>
      <trkpt lat="43.4134" lon="6.51142">
        <ele>326.20001220703</ele>
        <time>2020-05-30T10:30:58.000Z</time>
      </trkpt>
      <trkpt lat="43.41332" lon="6.51143">
        <ele>327.39999389648</ele>
        <time>2020-05-30T10:31:01.000Z</time>
      </trkpt>
      <trkpt lat="43.41327" lon="6.51142">
        <ele>328.20001220703</ele>
        <time>2020-05-30T10:31:03.000Z</time>
      </trkpt>
      <trkpt lat="43.41324" lon="6.51141">
        <ele>328.39999389648</ele>
        <time>2020-05-30T10:31:04.000Z</time>
      </trkpt>
      <trkpt lat="43.41318" lon="6.51136">
        <ele>329.60000610352</ele>
        <time>2020-05-30T10:31:07.000Z</time>
      </trkpt>
      <trkpt lat="43.41314" lon="6.51131">
        <ele>330.39999389648</ele>
        <time>2020-05-30T10:31:09.000Z</time>
      </trkpt>
      <trkpt lat="43.41311" lon="6.51122">
        <ele>330.79998779297</ele>
        <time>2020-05-30T10:31:12.000Z</time>
      </trkpt>
      <trkpt lat="43.41307" lon="6.51105">
        <ele>332.20001220703</ele>
        <time>2020-05-30T10:31:17.000Z</time>
      </trkpt>
      <trkpt lat="43.41304" lon="6.51099">
        <ele>333.39999389648</ele>
        <time>2020-05-30T10:31:19.000Z</time>
      </trkpt>
      <trkpt lat="43.413" lon="6.51091">
        <ele>334.79998779297</ele>
        <time>2020-05-30T10:31:22.000Z</time>
      </trkpt>
      <trkpt lat="43.41296" lon="6.51087">
        <ele>335.39999389648</ele>
        <time>2020-05-30T10:31:24.000Z</time>
      </trkpt>
      <trkpt lat="43.41292" lon="6.51083">
        <ele>336</ele>
        <time>2020-05-30T10:31:26.000Z</time>
      </trkpt>
      <trkpt lat="43.41281" lon="6.51074">
        <ele>337</ele>
        <time>2020-05-30T10:31:31.000Z</time>
      </trkpt>
      <trkpt lat="43.41279" lon="6.51072">
        <ele>337.39999389648</ele>
        <time>2020-05-30T10:31:32.000Z</time>
      </trkpt>
      <trkpt lat="43.41272" lon="6.51067">
        <ele>338.20001220703</ele>
        <time>2020-05-30T10:31:35.000Z</time>
      </trkpt>
      <trkpt lat="43.41258" lon="6.51052">
        <ele>339.39999389648</ele>
        <time>2020-05-30T10:31:41.000Z</time>
      </trkpt>
      <trkpt lat="43.41248" lon="6.51036">
        <ele>339.79998779297</ele>
        <time>2020-05-30T10:31:47.000Z</time>
      </trkpt>
      <trkpt lat="43.41249" lon="6.51028">
        <ele>340.20001220703</ele>
        <time>2020-05-30T10:31:51.000Z</time>
      </trkpt>
      <trkpt lat="43.41251" lon="6.51028">
        <ele>340.39999389648</ele>
        <time>2020-05-30T10:31:52.000Z</time>
      </trkpt>
      <trkpt lat="43.41253" lon="6.51027">
        <ele>340.39999389648</ele>
        <time>2020-05-30T10:31:53.000Z</time>
      </trkpt>
      <trkpt lat="43.41261" lon="6.51026">
        <ele>340.79998779297</ele>
        <time>2020-05-30T10:31:57.000Z</time>
      </trkpt>
      <trkpt lat="43.41265" lon="6.51024">
        <ele>340.79998779297</ele>
        <time>2020-05-30T10:31:59.000Z</time>
      </trkpt>
      <trkpt lat="43.41271" lon="6.5102">
        <ele>340.20001220703</ele>
        <time>2020-05-30T10:32:01.000Z</time>
      </trkpt>
      <trkpt lat="43.41275" lon="6.51019">
        <ele>340.20001220703</ele>
        <time>2020-05-30T10:32:02.000Z</time>
      </trkpt>
      <trkpt lat="43.41286" lon="6.51016">
        <ele>339</ele>
        <time>2020-05-30T10:32:05.000Z</time>
      </trkpt>
      <trkpt lat="43.41301" lon="6.51007">
        <ele>338.39999389648</ele>
        <time>2020-05-30T10:32:11.000Z</time>
      </trkpt>
      <trkpt lat="43.41307" lon="6.51007">
        <ele>338</ele>
        <time>2020-05-30T10:32:15.000Z</time>
      </trkpt>
      <trkpt lat="43.41307" lon="6.51006">
        <ele>338</ele>
        <time>2020-05-30T10:32:16.000Z</time>
      </trkpt>
      <trkpt lat="43.41308" lon="6.51005">
        <ele>337.79998779297</ele>
        <time>2020-05-30T10:32:17.000Z</time>
      </trkpt>
      <trkpt lat="43.41305" lon="6.51005">
        <ele>337.79998779297</ele>
        <time>2020-05-30T10:32:19.000Z</time>
      </trkpt>
      <trkpt lat="43.41302" lon="6.51007">
        <ele>337.60000610352</ele>
        <time>2020-05-30T10:32:20.000Z</time>
      </trkpt>
      <trkpt lat="43.41285" lon="6.51016">
        <ele>337.79998779297</ele>
        <time>2020-05-30T10:32:27.000Z</time>
      </trkpt>
      <trkpt lat="43.4127" lon="6.51023">
        <ele>338.20001220703</ele>
        <time>2020-05-30T10:32:33.000Z</time>
      </trkpt>
      <trkpt lat="43.41261" lon="6.51026">
        <ele>339</ele>
        <time>2020-05-30T10:32:38.000Z</time>
      </trkpt>
      <trkpt lat="43.41258" lon="6.51028">
        <ele>339.39999389648</ele>
        <time>2020-05-30T10:32:40.000Z</time>
      </trkpt>
      <trkpt lat="43.41249" lon="6.5103">
        <ele>340.20001220703</ele>
        <time>2020-05-30T10:32:45.000Z</time>
      </trkpt>
      <trkpt lat="43.41226" lon="6.51029">
        <ele>341.20001220703</ele>
        <time>2020-05-30T10:32:54.000Z</time>
      </trkpt>
      <trkpt lat="43.41222" lon="6.51029">
        <ele>341.20001220703</ele>
        <time>2020-05-30T10:32:55.000Z</time>
      </trkpt>
      <trkpt lat="43.41212" lon="6.51023">
        <ele>341.20001220703</ele>
        <time>2020-05-30T10:32:58.000Z</time>
      </trkpt>
      <trkpt lat="43.41212" lon="6.51022">
        <ele>341.20001220703</ele>
        <time>2020-05-30T10:32:59.000Z</time>
      </trkpt>
      <trkpt lat="43.41206" lon="6.51003">
        <ele>340.79998779297</ele>
        <time>2020-05-30T10:33:03.000Z</time>
      </trkpt>
      <trkpt lat="43.41209" lon="6.50992">
        <ele>340.60000610352</ele>
        <time>2020-05-30T10:33:07.000Z</time>
      </trkpt>
      <trkpt lat="43.41209" lon="6.50992">
        <ele>340.60000610352</ele>
        <time>2020-05-30T10:33:11.000Z</time>
      </trkpt>
      <trkpt lat="43.41209" lon="6.50992">
        <ele>340.60000610352</ele>
        <time>2020-05-30T10:33:22.000Z</time>
      </trkpt>
      <trkpt lat="43.41209" lon="6.50992">
        <ele>340.60000610352</ele>
        <time>2020-05-30T10:33:49.000Z</time>
      </trkpt>
      <trkpt lat="43.41209" lon="6.50992">
        <ele>341</ele>
        <time>2020-05-30T10:34:12.000Z</time>
      </trkpt>
      <trkpt lat="43.41209" lon="6.50993">
        <ele>341</ele>
        <time>2020-05-30T10:34:19.000Z</time>
      </trkpt>
      <trkpt lat="43.4121" lon="6.50993">
        <ele>340.60000610352</ele>
        <time>2020-05-30T10:34:24.000Z</time>
      </trkpt>
      <trkpt lat="43.41209" lon="6.50993">
        <ele>340.39999389648</ele>
        <time>2020-05-30T10:34:34.000Z</time>
      </trkpt>
      <trkpt lat="43.41209" lon="6.50993">
        <ele>340.79998779297</ele>
        <time>2020-05-30T10:34:44.000Z</time>
      </trkpt>
      <trkpt lat="43.41209" lon="6.50993">
        <ele>340</ele>
        <time>2020-05-30T10:34:50.000Z</time>
      </trkpt>
      <trkpt lat="43.41209" lon="6.50992">
        <ele>340</ele>
        <time>2020-05-30T10:34:54.000Z</time>
      </trkpt>
      <trkpt lat="43.41209" lon="6.50992">
        <ele>340</ele>
        <time>2020-05-30T10:35:02.000Z</time>
      </trkpt>
      <trkpt lat="43.41209" lon="6.50992">
        <ele>340.60000610352</ele>
        <time>2020-05-30T10:35:11.000Z</time>
      </trkpt>
      <trkpt lat="43.41209" lon="6.50992">
        <ele>341</ele>
        <time>2020-05-30T10:35:14.000Z</time>
      </trkpt>
      <trkpt lat="43.41208" lon="6.50991">
        <ele>341.20001220703</ele>
        <time>2020-05-30T10:35:22.000Z</time>
      </trkpt>
      <trkpt lat="43.41209" lon="6.50991">
        <ele>341</ele>
        <time>2020-05-30T10:35:40.000Z</time>
      </trkpt>
      <trkpt lat="43.41208" lon="6.50991">
        <ele>341.20001220703</ele>
        <time>2020-05-30T10:35:50.000Z</time>
      </trkpt>
      <trkpt lat="43.41209" lon="6.50991">
        <ele>341.20001220703</ele>
        <time>2020-05-30T10:36:12.000Z</time>
      </trkpt>
      <trkpt lat="43.4121" lon="6.50993">
        <ele>341.39999389648</ele>
        <time>2020-05-30T10:36:20.000Z</time>
      </trkpt>
      <trkpt lat="43.4121" lon="6.50993">
        <ele>342</ele>
        <time>2020-05-30T10:36:26.000Z</time>
      </trkpt>
      <trkpt lat="43.4121" lon="6.50993">
        <ele>343.60000610352</ele>
        <time>2020-05-30T10:36:27.000Z</time>
      </trkpt>
      <trkpt lat="43.41209" lon="6.50993">
        <ele>336.79998779297</ele>
        <time>2020-05-30T10:36:29.000Z</time>
      </trkpt>
      <trkpt lat="43.41209" lon="6.50993">
        <ele>332.20001220703</ele>
        <time>2020-05-30T10:36:30.000Z</time>
      </trkpt>
      <trkpt lat="43.41208" lon="6.50993">
        <ele>328.79998779297</ele>
        <time>2020-05-30T10:36:31.000Z</time>
      </trkpt>
      <trkpt lat="43.41208" lon="6.50993">
        <ele>324.79998779297</ele>
        <time>2020-05-30T10:36:32.000Z</time>
      </trkpt>
      <trkpt lat="43.41208" lon="6.50993">
        <ele>325.20001220703</ele>
        <time>2020-05-30T10:36:33.000Z</time>
      </trkpt>
      <trkpt lat="43.41208" lon="6.50993">
        <ele>331.39999389648</ele>
        <time>2020-05-30T10:36:34.000Z</time>
      </trkpt>
      <trkpt lat="43.41208" lon="6.50993">
        <ele>336.39999389648</ele>
        <time>2020-05-30T10:36:35.000Z</time>
      </trkpt>
      <trkpt lat="43.41208" lon="6.50993">
        <ele>339.39999389648</ele>
        <time>2020-05-30T10:36:36.000Z</time>
      </trkpt>
      <trkpt lat="43.41208" lon="6.50994">
        <ele>341.20001220703</ele>
        <time>2020-05-30T10:36:38.000Z</time>
      </trkpt>
      <trkpt lat="43.41208" lon="6.50994">
        <ele>341.20001220703</ele>
        <time>2020-05-30T10:36:40.000Z</time>
      </trkpt>
      <trkpt lat="43.41208" lon="6.50993">
        <ele>341.39999389648</ele>
        <time>2020-05-30T10:36:52.000Z</time>
      </trkpt>
      <trkpt lat="43.41208" lon="6.50994">
        <ele>341.20001220703</ele>
        <time>2020-05-30T10:36:59.000Z</time>
      </trkpt>
      <trkpt lat="43.41209" lon="6.50993">
        <ele>340.79998779297</ele>
        <time>2020-05-30T10:37:11.000Z</time>
      </trkpt>
      <trkpt lat="43.41208" lon="6.50992">
        <ele>340.79998779297</ele>
        <time>2020-05-30T10:37:24.000Z</time>
      </trkpt>
      <trkpt lat="43.41209" lon="6.50991">
        <ele>340.79998779297</ele>
        <time>2020-05-30T10:37:30.000Z</time>
      </trkpt>
      <trkpt lat="43.4121" lon="6.5099">
        <ele>341.39999389648</ele>
        <time>2020-05-30T10:37:40.000Z</time>
      </trkpt>
      <trkpt lat="43.4121" lon="6.50988">
        <ele>341.39999389648</ele>
        <time>2020-05-30T10:37:49.000Z</time>
      </trkpt>
      <trkpt lat="43.4121" lon="6.50988">
        <ele>341.20001220703</ele>
        <time>2020-05-30T10:38:04.000Z</time>
      </trkpt>
      <trkpt lat="43.41214" lon="6.50983">
        <ele>341.20001220703</ele>
        <time>2020-05-30T10:38:08.000Z</time>
      </trkpt>
      <trkpt lat="43.41223" lon="6.50969">
        <ele>341</ele>
        <time>2020-05-30T10:38:14.000Z</time>
      </trkpt>
      <trkpt lat="43.41233" lon="6.50951">
        <ele>341.39999389648</ele>
        <time>2020-05-30T10:38:21.000Z</time>
      </trkpt>
      <trkpt lat="43.41238" lon="6.5093">
        <ele>341.60000610352</ele>
        <time>2020-05-30T10:38:27.000Z</time>
      </trkpt>
      <trkpt lat="43.4124" lon="6.50927">
        <ele>341.60000610352</ele>
        <time>2020-05-30T10:38:28.000Z</time>
      </trkpt>
      <trkpt lat="43.41245" lon="6.50927">
        <ele>341.60000610352</ele>
        <time>2020-05-30T10:38:30.000Z</time>
      </trkpt>
      <trkpt lat="43.41247" lon="6.50938">
        <ele>341.79998779297</ele>
        <time>2020-05-30T10:38:33.000Z</time>
      </trkpt>
      <trkpt lat="43.41245" lon="6.50951">
        <ele>341.60000610352</ele>
        <time>2020-05-30T10:38:36.000Z</time>
      </trkpt>
      <trkpt lat="43.41247" lon="6.50961">
        <ele>341.39999389648</ele>
        <time>2020-05-30T10:38:38.000Z</time>
      </trkpt>
      <trkpt lat="43.4125" lon="6.50966">
        <ele>341</ele>
        <time>2020-05-30T10:38:39.000Z</time>
      </trkpt>
      <trkpt lat="43.41258" lon="6.50971">
        <ele>340.60000610352</ele>
        <time>2020-05-30T10:38:41.000Z</time>
      </trkpt>
      <trkpt lat="43.41271" lon="6.50981">
        <ele>340.20001220703</ele>
        <time>2020-05-30T10:38:44.000Z</time>
      </trkpt>
      <trkpt lat="43.41275" lon="6.50983">
        <ele>340</ele>
        <time>2020-05-30T10:38:45.000Z</time>
      </trkpt>
      <trkpt lat="43.41284" lon="6.50981">
        <ele>339.79998779297</ele>
        <time>2020-05-30T10:38:48.000Z</time>
      </trkpt>
      <trkpt lat="43.41287" lon="6.5098">
        <ele>339.39999389648</ele>
        <time>2020-05-30T10:38:49.000Z</time>
      </trkpt>
      <trkpt lat="43.41294" lon="6.50976">
        <ele>338.39999389648</ele>
        <time>2020-05-30T10:38:51.000Z</time>
      </trkpt>
      <trkpt lat="43.41303" lon="6.50972">
        <ele>337.60000610352</ele>
        <time>2020-05-30T10:38:54.000Z</time>
      </trkpt>
      <trkpt lat="43.41306" lon="6.50971">
        <ele>337.39999389648</ele>
        <time>2020-05-30T10:38:55.000Z</time>
      </trkpt>
      <trkpt lat="43.41316" lon="6.50969">
        <ele>337.20001220703</ele>
        <time>2020-05-30T10:39:00.000Z</time>
      </trkpt>
      <trkpt lat="43.41318" lon="6.5097">
        <ele>337.39999389648</ele>
        <time>2020-05-30T10:39:01.000Z</time>
      </trkpt>
      <trkpt lat="43.41323" lon="6.50972">
        <ele>337.79998779297</ele>
        <time>2020-05-30T10:39:04.000Z</time>
      </trkpt>
      <trkpt lat="43.41333" lon="6.50963">
        <ele>337.79998779297</ele>
        <time>2020-05-30T10:39:08.000Z</time>
      </trkpt>
      <trkpt lat="43.41339" lon="6.50957">
        <ele>337.20001220703</ele>
        <time>2020-05-30T10:39:13.000Z</time>
      </trkpt>
      <trkpt lat="43.41339" lon="6.50957">
        <ele>337</ele>
        <time>2020-05-30T10:39:19.000Z</time>
      </trkpt>
      <trkpt lat="43.41341" lon="6.50956">
        <ele>336.79998779297</ele>
        <time>2020-05-30T10:39:23.000Z</time>
      </trkpt>
      <trkpt lat="43.41344" lon="6.50956">
        <ele>336.79998779297</ele>
        <time>2020-05-30T10:39:25.000Z</time>
      </trkpt>
      <trkpt lat="43.41348" lon="6.50951">
        <ele>336.20001220703</ele>
        <time>2020-05-30T10:39:29.000Z</time>
      </trkpt>
      <trkpt lat="43.41349" lon="6.50948">
        <ele>336</ele>
        <time>2020-05-30T10:39:30.000Z</time>
      </trkpt>
      <trkpt lat="43.4135" lon="6.50945">
        <ele>335.79998779297</ele>
        <time>2020-05-30T10:39:31.000Z</time>
      </trkpt>
      <trkpt lat="43.41351" lon="6.5093">
        <ele>335.39999389648</ele>
        <time>2020-05-30T10:39:34.000Z</time>
      </trkpt>
      <trkpt lat="43.41348" lon="6.50925">
        <ele>335.20001220703</ele>
        <time>2020-05-30T10:39:35.000Z</time>
      </trkpt>
      <trkpt lat="43.41346" lon="6.50915">
        <ele>334.39999389648</ele>
        <time>2020-05-30T10:39:37.000Z</time>
      </trkpt>
      <trkpt lat="43.41348" lon="6.5091">
        <ele>334.20001220703</ele>
        <time>2020-05-30T10:39:38.000Z</time>
      </trkpt>
      <trkpt lat="43.41349" lon="6.509">
        <ele>333.79998779297</ele>
        <time>2020-05-30T10:39:40.000Z</time>
      </trkpt>
      <trkpt lat="43.41356" lon="6.50892">
        <ele>333</ele>
        <time>2020-05-30T10:39:42.000Z</time>
      </trkpt>
      <trkpt lat="43.41359" lon="6.50887">
        <ele>333</ele>
        <time>2020-05-30T10:39:43.000Z</time>
      </trkpt>
      <trkpt lat="43.4136" lon="6.50874">
        <ele>331.60000610352</ele>
        <time>2020-05-30T10:39:45.000Z</time>
      </trkpt>
      <trkpt lat="43.4136" lon="6.5087">
        <ele>331.20001220703</ele>
        <time>2020-05-30T10:39:46.000Z</time>
      </trkpt>
      <trkpt lat="43.4136" lon="6.50863">
        <ele>330.60000610352</ele>
        <time>2020-05-30T10:39:47.000Z</time>
      </trkpt>
      <trkpt lat="43.41363" lon="6.50855">
        <ele>329.60000610352</ele>
        <time>2020-05-30T10:39:49.000Z</time>
      </trkpt>
      <trkpt lat="43.41362" lon="6.50851">
        <ele>329</ele>
        <time>2020-05-30T10:39:50.000Z</time>
      </trkpt>
      <trkpt lat="43.41362" lon="6.5084">
        <ele>328.20001220703</ele>
        <time>2020-05-30T10:39:52.000Z</time>
      </trkpt>
      <trkpt lat="43.41367" lon="6.50829">
        <ele>326.60000610352</ele>
        <time>2020-05-30T10:39:54.000Z</time>
      </trkpt>
      <trkpt lat="43.41377" lon="6.50821">
        <ele>325.20001220703</ele>
        <time>2020-05-30T10:39:57.000Z</time>
      </trkpt>
      <trkpt lat="43.4138" lon="6.50819">
        <ele>325</ele>
        <time>2020-05-30T10:39:58.000Z</time>
      </trkpt>
      <trkpt lat="43.4139" lon="6.50814">
        <ele>324.39999389648</ele>
        <time>2020-05-30T10:40:01.000Z</time>
      </trkpt>
      <trkpt lat="43.41393" lon="6.50811">
        <ele>324</ele>
        <time>2020-05-30T10:40:02.000Z</time>
      </trkpt>
      <trkpt lat="43.41403" lon="6.50801">
        <ele>322.60000610352</ele>
        <time>2020-05-30T10:40:05.000Z</time>
      </trkpt>
      <trkpt lat="43.41413" lon="6.50788">
        <ele>321</ele>
        <time>2020-05-30T10:40:08.000Z</time>
      </trkpt>
      <trkpt lat="43.41416" lon="6.50783">
        <ele>320</ele>
        <time>2020-05-30T10:40:09.000Z</time>
      </trkpt>
      <trkpt lat="43.41419" lon="6.5078">
        <ele>319.79998779297</ele>
        <time>2020-05-30T10:40:10.000Z</time>
      </trkpt>
      <trkpt lat="43.41422" lon="6.50779">
        <ele>319</ele>
        <time>2020-05-30T10:40:11.000Z</time>
      </trkpt>
      <trkpt lat="43.41426" lon="6.5078">
        <ele>318.39999389648</ele>
        <time>2020-05-30T10:40:12.000Z</time>
      </trkpt>
      <trkpt lat="43.41435" lon="6.50778">
        <ele>317.20001220703</ele>
        <time>2020-05-30T10:40:14.000Z</time>
      </trkpt>
      <trkpt lat="43.41444" lon="6.50775">
        <ele>316</ele>
        <time>2020-05-30T10:40:16.000Z</time>
      </trkpt>
      <trkpt lat="43.41453" lon="6.50776">
        <ele>314.60000610352</ele>
        <time>2020-05-30T10:40:18.000Z</time>
      </trkpt>
      <trkpt lat="43.41463" lon="6.50781">
        <ele>313.39999389648</ele>
        <time>2020-05-30T10:40:20.000Z</time>
      </trkpt>
      <trkpt lat="43.41468" lon="6.50785">
        <ele>312.39999389648</ele>
        <time>2020-05-30T10:40:21.000Z</time>
      </trkpt>
      <trkpt lat="43.41472" lon="6.50787">
        <ele>311.79998779297</ele>
        <time>2020-05-30T10:40:22.000Z</time>
      </trkpt>
      <trkpt lat="43.41481" lon="6.5078">
        <ele>310</ele>
        <time>2020-05-30T10:40:24.000Z</time>
      </trkpt>
      <trkpt lat="43.41494" lon="6.50773">
        <ele>309</ele>
        <time>2020-05-30T10:40:27.000Z</time>
      </trkpt>
      <trkpt lat="43.41497" lon="6.5077">
        <ele>308.60000610352</ele>
        <time>2020-05-30T10:40:28.000Z</time>
      </trkpt>
      <trkpt lat="43.41511" lon="6.50761">
        <ele>308.20001220703</ele>
        <time>2020-05-30T10:40:31.000Z</time>
      </trkpt>
      <trkpt lat="43.41523" lon="6.50757">
        <ele>307.39999389648</ele>
        <time>2020-05-30T10:40:33.000Z</time>
      </trkpt>
      <trkpt lat="43.41534" lon="6.50748">
        <ele>306.60000610352</ele>
        <time>2020-05-30T10:40:35.000Z</time>
      </trkpt>
      <trkpt lat="43.41539" lon="6.50744">
        <ele>306</ele>
        <time>2020-05-30T10:40:36.000Z</time>
      </trkpt>
      <trkpt lat="43.41545" lon="6.50741">
        <ele>305.20001220703</ele>
        <time>2020-05-30T10:40:37.000Z</time>
      </trkpt>
      <trkpt lat="43.41551" lon="6.50737">
        <ele>304.39999389648</ele>
        <time>2020-05-30T10:40:38.000Z</time>
      </trkpt>
      <trkpt lat="43.41558" lon="6.50734">
        <ele>303.39999389648</ele>
        <time>2020-05-30T10:40:40.000Z</time>
      </trkpt>
      <trkpt lat="43.41562" lon="6.50731">
        <ele>303.20001220703</ele>
        <time>2020-05-30T10:40:43.000Z</time>
      </trkpt>
      <trkpt lat="43.41562" lon="6.50731">
        <ele>303</ele>
        <time>2020-05-30T10:40:48.000Z</time>
      </trkpt>
      <trkpt lat="43.41564" lon="6.5073">
        <ele>302.79998779297</ele>
        <time>2020-05-30T10:40:53.000Z</time>
      </trkpt>
      <trkpt lat="43.4157" lon="6.50727">
        <ele>302.60000610352</ele>
        <time>2020-05-30T10:40:58.000Z</time>
      </trkpt>
      <trkpt lat="43.41575" lon="6.50721">
        <ele>302.60000610352</ele>
        <time>2020-05-30T10:41:00.000Z</time>
      </trkpt>
      <trkpt lat="43.4158" lon="6.50714">
        <ele>302</ele>
        <time>2020-05-30T10:41:02.000Z</time>
      </trkpt>
      <trkpt lat="43.41584" lon="6.50705">
        <ele>301.20001220703</ele>
        <time>2020-05-30T10:41:04.000Z</time>
      </trkpt>
      <trkpt lat="43.41586" lon="6.50696">
        <ele>300.79998779297</ele>
        <time>2020-05-30T10:41:05.000Z</time>
      </trkpt>
      <trkpt lat="43.41589" lon="6.50686">
        <ele>299.60000610352</ele>
        <time>2020-05-30T10:41:07.000Z</time>
      </trkpt>
      <trkpt lat="43.41593" lon="6.50686">
        <ele>298.79998779297</ele>
        <time>2020-05-30T10:41:08.000Z</time>
      </trkpt>
      <trkpt lat="43.41598" lon="6.50686">
        <ele>297.60000610352</ele>
        <time>2020-05-30T10:41:09.000Z</time>
      </trkpt>
      <trkpt lat="43.41607" lon="6.50683">
        <ele>296</ele>
        <time>2020-05-30T10:41:11.000Z</time>
      </trkpt>
      <trkpt lat="43.41612" lon="6.50681">
        <ele>294.60000610352</ele>
        <time>2020-05-30T10:41:12.000Z</time>
      </trkpt>
      <trkpt lat="43.41621" lon="6.50677">
        <ele>293</ele>
        <time>2020-05-30T10:41:14.000Z</time>
      </trkpt>
      <trkpt lat="43.41626" lon="6.50666">
        <ele>292.20001220703</ele>
        <time>2020-05-30T10:41:16.000Z</time>
      </trkpt>
      <trkpt lat="43.41628" lon="6.50661">
        <ele>291.79998779297</ele>
        <time>2020-05-30T10:41:17.000Z</time>
      </trkpt>
      <trkpt lat="43.41633" lon="6.50655">
        <ele>290</ele>
        <time>2020-05-30T10:41:19.000Z</time>
      </trkpt>
      <trkpt lat="43.41638" lon="6.50655">
        <ele>288.79998779297</ele>
        <time>2020-05-30T10:41:20.000Z</time>
      </trkpt>
      <trkpt lat="43.41642" lon="6.50655">
        <ele>288</ele>
        <time>2020-05-30T10:41:21.000Z</time>
      </trkpt>
      <trkpt lat="43.41646" lon="6.50652">
        <ele>287.39999389648</ele>
        <time>2020-05-30T10:41:22.000Z</time>
      </trkpt>
      <trkpt lat="43.41653" lon="6.50636">
        <ele>285.79998779297</ele>
        <time>2020-05-30T10:41:26.000Z</time>
      </trkpt>
      <trkpt lat="43.41657" lon="6.50633">
        <ele>285.20001220703</ele>
        <time>2020-05-30T10:41:27.000Z</time>
      </trkpt>
      <trkpt lat="43.41661" lon="6.5063">
        <ele>284.20001220703</ele>
        <time>2020-05-30T10:41:28.000Z</time>
      </trkpt>
      <trkpt lat="43.41666" lon="6.50628">
        <ele>282.79998779297</ele>
        <time>2020-05-30T10:41:29.000Z</time>
      </trkpt>
      <trkpt lat="43.41671" lon="6.50625">
        <ele>281.60000610352</ele>
        <time>2020-05-30T10:41:30.000Z</time>
      </trkpt>
      <trkpt lat="43.4168" lon="6.5062">
        <ele>279.60000610352</ele>
        <time>2020-05-30T10:41:32.000Z</time>
      </trkpt>
      <trkpt lat="43.41684" lon="6.50615">
        <ele>278.79998779297</ele>
        <time>2020-05-30T10:41:33.000Z</time>
      </trkpt>
      <trkpt lat="43.41688" lon="6.50611">
        <ele>278.20001220703</ele>
        <time>2020-05-30T10:41:34.000Z</time>
      </trkpt>
      <trkpt lat="43.41696" lon="6.50609">
        <ele>277</ele>
        <time>2020-05-30T10:41:36.000Z</time>
      </trkpt>
      <trkpt lat="43.41704" lon="6.50606">
        <ele>275.79998779297</ele>
        <time>2020-05-30T10:41:38.000Z</time>
      </trkpt>
      <trkpt lat="43.41708" lon="6.50604">
        <ele>275.39999389648</ele>
        <time>2020-05-30T10:41:39.000Z</time>
      </trkpt>
      <trkpt lat="43.41718" lon="6.506">
        <ele>274.60000610352</ele>
        <time>2020-05-30T10:41:41.000Z</time>
      </trkpt>
      <trkpt lat="43.41727" lon="6.50593">
        <ele>273.20001220703</ele>
        <time>2020-05-30T10:41:43.000Z</time>
      </trkpt>
      <trkpt lat="43.41734" lon="6.50589">
        <ele>271.79998779297</ele>
        <time>2020-05-30T10:41:45.000Z</time>
      </trkpt>
      <trkpt lat="43.41736" lon="6.50588">
        <ele>271.39999389648</ele>
        <time>2020-05-30T10:41:46.000Z</time>
      </trkpt>
      <trkpt lat="43.41741" lon="6.50588">
        <ele>271.60000610352</ele>
        <time>2020-05-30T10:41:49.000Z</time>
      </trkpt>
      <trkpt lat="43.41742" lon="6.5059">
        <ele>272</ele>
        <time>2020-05-30T10:41:50.000Z</time>
      </trkpt>
      <trkpt lat="43.41745" lon="6.50592">
        <ele>272.20001220703</ele>
        <time>2020-05-30T10:41:52.000Z</time>
      </trkpt>
      <trkpt lat="43.41752" lon="6.50592">
        <ele>271.39999389648</ele>
        <time>2020-05-30T10:41:54.000Z</time>
      </trkpt>
      <trkpt lat="43.41773" lon="6.50589">
        <ele>270.39999389648</ele>
        <time>2020-05-30T10:41:58.000Z</time>
      </trkpt>
      <trkpt lat="43.41779" lon="6.50588">
        <ele>270.39999389648</ele>
        <time>2020-05-30T10:41:59.000Z</time>
      </trkpt>
      <trkpt lat="43.41791" lon="6.50588">
        <ele>269.39999389648</ele>
        <time>2020-05-30T10:42:01.000Z</time>
      </trkpt>
      <trkpt lat="43.41797" lon="6.50588">
        <ele>269</ele>
        <time>2020-05-30T10:42:02.000Z</time>
      </trkpt>
      <trkpt lat="43.41801" lon="6.50587">
        <ele>268.60000610352</ele>
        <time>2020-05-30T10:42:03.000Z</time>
      </trkpt>
      <trkpt lat="43.41804" lon="6.50588">
        <ele>268</ele>
        <time>2020-05-30T10:42:04.000Z</time>
      </trkpt>
      <trkpt lat="43.41805" lon="6.50588">
        <ele>267.39999389648</ele>
        <time>2020-05-30T10:42:06.000Z</time>
      </trkpt>
      <trkpt lat="43.41807" lon="6.50589">
        <ele>267.20001220703</ele>
        <time>2020-05-30T10:42:09.000Z</time>
      </trkpt>
      <trkpt lat="43.41816" lon="6.5059">
        <ele>267.20001220703</ele>
        <time>2020-05-30T10:42:12.000Z</time>
      </trkpt>
      <trkpt lat="43.4182" lon="6.50588">
        <ele>266.79998779297</ele>
        <time>2020-05-30T10:42:13.000Z</time>
      </trkpt>
      <trkpt lat="43.41829" lon="6.50586">
        <ele>266</ele>
        <time>2020-05-30T10:42:15.000Z</time>
      </trkpt>
      <trkpt lat="43.41833" lon="6.50588">
        <ele>265.60000610352</ele>
        <time>2020-05-30T10:42:16.000Z</time>
      </trkpt>
      <trkpt lat="43.41843" lon="6.50592">
        <ele>265</ele>
        <time>2020-05-30T10:42:18.000Z</time>
      </trkpt>
      <trkpt lat="43.41855" lon="6.50597">
        <ele>264.79998779297</ele>
        <time>2020-05-30T10:42:20.000Z</time>
      </trkpt>
      <trkpt lat="43.41861" lon="6.50599">
        <ele>264.39999389648</ele>
        <time>2020-05-30T10:42:21.000Z</time>
      </trkpt>
      <trkpt lat="43.41873" lon="6.50603">
        <ele>263.39999389648</ele>
        <time>2020-05-30T10:42:23.000Z</time>
      </trkpt>
      <trkpt lat="43.41879" lon="6.50605">
        <ele>262.20001220703</ele>
        <time>2020-05-30T10:42:24.000Z</time>
      </trkpt>
      <trkpt lat="43.41891" lon="6.50607">
        <ele>261</ele>
        <time>2020-05-30T10:42:26.000Z</time>
      </trkpt>
      <trkpt lat="43.41908" lon="6.50613">
        <ele>260.20001220703</ele>
        <time>2020-05-30T10:42:29.000Z</time>
      </trkpt>
      <trkpt lat="43.41925" lon="6.50621">
        <ele>259.79998779297</ele>
        <time>2020-05-30T10:42:32.000Z</time>
      </trkpt>
      <trkpt lat="43.41936" lon="6.50621">
        <ele>259</ele>
        <time>2020-05-30T10:42:34.000Z</time>
      </trkpt>
      <trkpt lat="43.41942" lon="6.50621">
        <ele>258.60000610352</ele>
        <time>2020-05-30T10:42:35.000Z</time>
      </trkpt>
      <trkpt lat="43.41952" lon="6.50621">
        <ele>258.60000610352</ele>
        <time>2020-05-30T10:42:37.000Z</time>
      </trkpt>
      <trkpt lat="43.41961" lon="6.5062">
        <ele>258.79998779297</ele>
        <time>2020-05-30T10:42:39.000Z</time>
      </trkpt>
      <trkpt lat="43.41978" lon="6.50627">
        <ele>258.79998779297</ele>
        <time>2020-05-30T10:42:43.000Z</time>
      </trkpt>
      <trkpt lat="43.41986" lon="6.50621">
        <ele>258.79998779297</ele>
        <time>2020-05-30T10:42:46.000Z</time>
      </trkpt>
      <trkpt lat="43.4199" lon="6.5062">
        <ele>259</ele>
        <time>2020-05-30T10:42:47.000Z</time>
      </trkpt>
      <trkpt lat="43.42001" lon="6.50615">
        <ele>259.60000610352</ele>
        <time>2020-05-30T10:42:50.000Z</time>
      </trkpt>
      <trkpt lat="43.42005" lon="6.50612">
        <ele>259.79998779297</ele>
        <time>2020-05-30T10:42:51.000Z</time>
      </trkpt>
      <trkpt lat="43.42009" lon="6.50611">
        <ele>260.20001220703</ele>
        <time>2020-05-30T10:42:52.000Z</time>
      </trkpt>
      <trkpt lat="43.42018" lon="6.50611">
        <ele>261.20001220703</ele>
        <time>2020-05-30T10:42:54.000Z</time>
      </trkpt>
      <trkpt lat="43.42022" lon="6.5061">
        <ele>261.60000610352</ele>
        <time>2020-05-30T10:42:55.000Z</time>
      </trkpt>
      <trkpt lat="43.42025" lon="6.50609">
        <ele>261.79998779297</ele>
        <time>2020-05-30T10:42:56.000Z</time>
      </trkpt>
      <trkpt lat="43.42028" lon="6.5061">
        <ele>262.39999389648</ele>
        <time>2020-05-30T10:42:57.000Z</time>
      </trkpt>
      <trkpt lat="43.42033" lon="6.50614">
        <ele>263.20001220703</ele>
        <time>2020-05-30T10:42:59.000Z</time>
      </trkpt>
      <trkpt lat="43.42036" lon="6.50616">
        <ele>263.60000610352</ele>
        <time>2020-05-30T10:43:00.000Z</time>
      </trkpt>
      <trkpt lat="43.42041" lon="6.50618">
        <ele>264.79998779297</ele>
        <time>2020-05-30T10:43:02.000Z</time>
      </trkpt>
      <trkpt lat="43.42044" lon="6.50618">
        <ele>265.20001220703</ele>
        <time>2020-05-30T10:43:03.000Z</time>
      </trkpt>
      <trkpt lat="43.42049" lon="6.50619">
        <ele>265.79998779297</ele>
        <time>2020-05-30T10:43:05.000Z</time>
      </trkpt>
      <trkpt lat="43.42051" lon="6.5062">
        <ele>266</ele>
        <time>2020-05-30T10:43:06.000Z</time>
      </trkpt>
      <trkpt lat="43.42067" lon="6.5062">
        <ele>266.79998779297</ele>
        <time>2020-05-30T10:43:12.000Z</time>
      </trkpt>
      <trkpt lat="43.4207" lon="6.5062">
        <ele>267</ele>
        <time>2020-05-30T10:43:13.000Z</time>
      </trkpt>
      <trkpt lat="43.42082" lon="6.50617">
        <ele>266.60000610352</ele>
        <time>2020-05-30T10:43:17.000Z</time>
      </trkpt>
      <trkpt lat="43.42092" lon="6.5061">
        <ele>266.60000610352</ele>
        <time>2020-05-30T10:43:21.000Z</time>
      </trkpt>
      <trkpt lat="43.421" lon="6.50598">
        <ele>266.20001220703</ele>
        <time>2020-05-30T10:43:24.000Z</time>
      </trkpt>
      <trkpt lat="43.42104" lon="6.50597">
        <ele>266</ele>
        <time>2020-05-30T10:43:25.000Z</time>
      </trkpt>
      <trkpt lat="43.42107" lon="6.50598">
        <ele>265.79998779297</ele>
        <time>2020-05-30T10:43:26.000Z</time>
      </trkpt>
      <trkpt lat="43.42115" lon="6.50598">
        <ele>265.20001220703</ele>
        <time>2020-05-30T10:43:28.000Z</time>
      </trkpt>
      <trkpt lat="43.42118" lon="6.50595">
        <ele>264.60000610352</ele>
        <time>2020-05-30T10:43:29.000Z</time>
      </trkpt>
      <trkpt lat="43.42121" lon="6.50592">
        <ele>264.20001220703</ele>
        <time>2020-05-30T10:43:30.000Z</time>
      </trkpt>
      <trkpt lat="43.42127" lon="6.50589">
        <ele>263.20001220703</ele>
        <time>2020-05-30T10:43:32.000Z</time>
      </trkpt>
      <trkpt lat="43.4213" lon="6.50589">
        <ele>263</ele>
        <time>2020-05-30T10:43:33.000Z</time>
      </trkpt>
      <trkpt lat="43.42138" lon="6.50592">
        <ele>261.20001220703</ele>
        <time>2020-05-30T10:43:35.000Z</time>
      </trkpt>
      <trkpt lat="43.42144" lon="6.50593">
        <ele>259.39999389648</ele>
        <time>2020-05-30T10:43:37.000Z</time>
      </trkpt>
      <trkpt lat="43.42148" lon="6.50594">
        <ele>257.39999389648</ele>
        <time>2020-05-30T10:43:38.000Z</time>
      </trkpt>
      <trkpt lat="43.42156" lon="6.50599">
        <ele>256.20001220703</ele>
        <time>2020-05-30T10:43:40.000Z</time>
      </trkpt>
      <trkpt lat="43.42157" lon="6.50597">
        <ele>256.20001220703</ele>
        <time>2020-05-30T10:43:41.000Z</time>
      </trkpt>
      <trkpt lat="43.4217" lon="6.50598">
        <ele>256.20001220703</ele>
        <time>2020-05-30T10:43:43.000Z</time>
      </trkpt>
      <trkpt lat="43.42174" lon="6.50598">
        <ele>254.80000305176</ele>
        <time>2020-05-30T10:43:44.000Z</time>
      </trkpt>
      <trkpt lat="43.42183" lon="6.50603">
        <ele>253.39999389648</ele>
        <time>2020-05-30T10:43:46.000Z</time>
      </trkpt>
      <trkpt lat="43.42188" lon="6.50604">
        <ele>252.60000610352</ele>
        <time>2020-05-30T10:43:47.000Z</time>
      </trkpt>
      <trkpt lat="43.42195" lon="6.50605">
        <ele>251.80000305176</ele>
        <time>2020-05-30T10:43:48.000Z</time>
      </trkpt>
      <trkpt lat="43.42201" lon="6.50604">
        <ele>251</ele>
        <time>2020-05-30T10:43:49.000Z</time>
      </trkpt>
      <trkpt lat="43.42208" lon="6.50602">
        <ele>249.60000610352</ele>
        <time>2020-05-30T10:43:50.000Z</time>
      </trkpt>
      <trkpt lat="43.42213" lon="6.506">
        <ele>248.19999694824</ele>
        <time>2020-05-30T10:43:51.000Z</time>
      </trkpt>
      <trkpt lat="43.42224" lon="6.50598">
        <ele>246</ele>
        <time>2020-05-30T10:43:53.000Z</time>
      </trkpt>
      <trkpt lat="43.4224" lon="6.50596">
        <ele>244.60000610352</ele>
        <time>2020-05-30T10:43:56.000Z</time>
      </trkpt>
      <trkpt lat="43.42253" lon="6.50592">
        <ele>242.60000610352</ele>
        <time>2020-05-30T10:43:59.000Z</time>
      </trkpt>
      <trkpt lat="43.42257" lon="6.50588">
        <ele>241.80000305176</ele>
        <time>2020-05-30T10:44:00.000Z</time>
      </trkpt>
      <trkpt lat="43.4226" lon="6.50584">
        <ele>241</ele>
        <time>2020-05-30T10:44:01.000Z</time>
      </trkpt>
      <trkpt lat="43.42264" lon="6.5058">
        <ele>240</ele>
        <time>2020-05-30T10:44:02.000Z</time>
      </trkpt>
      <trkpt lat="43.42269" lon="6.50577">
        <ele>239.39999389648</ele>
        <time>2020-05-30T10:44:03.000Z</time>
      </trkpt>
      <trkpt lat="43.42275" lon="6.50573">
        <ele>239</ele>
        <time>2020-05-30T10:44:04.000Z</time>
      </trkpt>
      <trkpt lat="43.42281" lon="6.50568">
        <ele>238.19999694824</ele>
        <time>2020-05-30T10:44:05.000Z</time>
      </trkpt>
      <trkpt lat="43.42294" lon="6.50559">
        <ele>237</ele>
        <time>2020-05-30T10:44:07.000Z</time>
      </trkpt>
      <trkpt lat="43.42302" lon="6.50555">
        <ele>236.19999694824</ele>
        <time>2020-05-30T10:44:08.000Z</time>
      </trkpt>
      <trkpt lat="43.4231" lon="6.50553">
        <ele>235.39999389648</ele>
        <time>2020-05-30T10:44:09.000Z</time>
      </trkpt>
      <trkpt lat="43.42325" lon="6.50547">
        <ele>234.19999694824</ele>
        <time>2020-05-30T10:44:11.000Z</time>
      </trkpt>
      <trkpt lat="43.42332" lon="6.50543">
        <ele>232.80000305176</ele>
        <time>2020-05-30T10:44:12.000Z</time>
      </trkpt>
      <trkpt lat="43.42344" lon="6.50537">
        <ele>231.39999389648</ele>
        <time>2020-05-30T10:44:14.000Z</time>
      </trkpt>
      <trkpt lat="43.42348" lon="6.50536">
        <ele>231</ele>
        <time>2020-05-30T10:44:15.000Z</time>
      </trkpt>
      <trkpt lat="43.42354" lon="6.50539">
        <ele>230.80000305176</ele>
        <time>2020-05-30T10:44:17.000Z</time>
      </trkpt>
      <trkpt lat="43.42357" lon="6.50542">
        <ele>230.80000305176</ele>
        <time>2020-05-30T10:44:18.000Z</time>
      </trkpt>
      <trkpt lat="43.4236" lon="6.50545">
        <ele>230.60000610352</ele>
        <time>2020-05-30T10:44:19.000Z</time>
      </trkpt>
      <trkpt lat="43.42364" lon="6.50546">
        <ele>230</ele>
        <time>2020-05-30T10:44:20.000Z</time>
      </trkpt>
      <trkpt lat="43.42368" lon="6.50547">
        <ele>229.39999389648</ele>
        <time>2020-05-30T10:44:21.000Z</time>
      </trkpt>
      <trkpt lat="43.42372" lon="6.50549">
        <ele>229</ele>
        <time>2020-05-30T10:44:22.000Z</time>
      </trkpt>
      <trkpt lat="43.42386" lon="6.50553">
        <ele>228.39999389648</ele>
        <time>2020-05-30T10:44:25.000Z</time>
      </trkpt>
      <trkpt lat="43.42391" lon="6.50555">
        <ele>227.80000305176</ele>
        <time>2020-05-30T10:44:26.000Z</time>
      </trkpt>
      <trkpt lat="43.42395" lon="6.50557">
        <ele>227.19999694824</ele>
        <time>2020-05-30T10:44:27.000Z</time>
      </trkpt>
      <trkpt lat="43.42398" lon="6.50558">
        <ele>226.60000610352</ele>
        <time>2020-05-30T10:44:28.000Z</time>
      </trkpt>
      <trkpt lat="43.42402" lon="6.50559">
        <ele>225.19999694824</ele>
        <time>2020-05-30T10:44:29.000Z</time>
      </trkpt>
      <trkpt lat="43.42408" lon="6.50562">
        <ele>223.19999694824</ele>
        <time>2020-05-30T10:44:31.000Z</time>
      </trkpt>
      <trkpt lat="43.42411" lon="6.50562">
        <ele>222.39999389648</ele>
        <time>2020-05-30T10:44:32.000Z</time>
      </trkpt>
      <trkpt lat="43.42414" lon="6.50561">
        <ele>221</ele>
        <time>2020-05-30T10:44:33.000Z</time>
      </trkpt>
      <trkpt lat="43.4242" lon="6.50555">
        <ele>219.80000305176</ele>
        <time>2020-05-30T10:44:35.000Z</time>
      </trkpt>
      <trkpt lat="43.42424" lon="6.50548">
        <ele>218.39999389648</ele>
        <time>2020-05-30T10:44:37.000Z</time>
      </trkpt>
      <trkpt lat="43.42425" lon="6.50543">
        <ele>217.60000610352</ele>
        <time>2020-05-30T10:44:38.000Z</time>
      </trkpt>
      <trkpt lat="43.42427" lon="6.50539">
        <ele>217.19999694824</ele>
        <time>2020-05-30T10:44:39.000Z</time>
      </trkpt>
      <trkpt lat="43.42434" lon="6.5053">
        <ele>216.19999694824</ele>
        <time>2020-05-30T10:44:41.000Z</time>
      </trkpt>
      <trkpt lat="43.42438" lon="6.5052">
        <ele>214.80000305176</ele>
        <time>2020-05-30T10:44:43.000Z</time>
      </trkpt>
      <trkpt lat="43.4244" lon="6.50516">
        <ele>214</ele>
        <time>2020-05-30T10:44:44.000Z</time>
      </trkpt>
      <trkpt lat="43.42443" lon="6.50513">
        <ele>213.60000610352</ele>
        <time>2020-05-30T10:44:45.000Z</time>
      </trkpt>
      <trkpt lat="43.42446" lon="6.50512">
        <ele>213.19999694824</ele>
        <time>2020-05-30T10:44:46.000Z</time>
      </trkpt>
      <trkpt lat="43.4245" lon="6.5051">
        <ele>213</ele>
        <time>2020-05-30T10:44:47.000Z</time>
      </trkpt>
      <trkpt lat="43.42454" lon="6.50508">
        <ele>213</ele>
        <time>2020-05-30T10:44:48.000Z</time>
      </trkpt>
      <trkpt lat="43.42462" lon="6.50504">
        <ele>213.19999694824</ele>
        <time>2020-05-30T10:44:50.000Z</time>
      </trkpt>
      <trkpt lat="43.42474" lon="6.50496">
        <ele>213.19999694824</ele>
        <time>2020-05-30T10:44:54.000Z</time>
      </trkpt>
      <trkpt lat="43.42484" lon="6.50492">
        <ele>212.60000610352</ele>
        <time>2020-05-30T10:44:57.000Z</time>
      </trkpt>
      <trkpt lat="43.42491" lon="6.50487">
        <ele>211.39999389648</ele>
        <time>2020-05-30T10:45:00.000Z</time>
      </trkpt>
      <trkpt lat="43.42505" lon="6.5048">
        <ele>211.60000610352</ele>
        <time>2020-05-30T10:45:04.000Z</time>
      </trkpt>
      <trkpt lat="43.42522" lon="6.50471">
        <ele>211.60000610352</ele>
        <time>2020-05-30T10:45:08.000Z</time>
      </trkpt>
      <trkpt lat="43.42529" lon="6.50462">
        <ele>210.60000610352</ele>
        <time>2020-05-30T10:45:10.000Z</time>
      </trkpt>
      <trkpt lat="43.42531" lon="6.50459">
        <ele>210.39999389648</ele>
        <time>2020-05-30T10:45:11.000Z</time>
      </trkpt>
      <trkpt lat="43.42534" lon="6.50458">
        <ele>210</ele>
        <time>2020-05-30T10:45:12.000Z</time>
      </trkpt>
      <trkpt lat="43.4254" lon="6.50454">
        <ele>209.19999694824</ele>
        <time>2020-05-30T10:45:14.000Z</time>
      </trkpt>
      <trkpt lat="43.42543" lon="6.50451">
        <ele>208.39999389648</ele>
        <time>2020-05-30T10:45:15.000Z</time>
      </trkpt>
      <trkpt lat="43.42545" lon="6.50449">
        <ele>208</ele>
        <time>2020-05-30T10:45:16.000Z</time>
      </trkpt>
      <trkpt lat="43.42548" lon="6.5045">
        <ele>207.19999694824</ele>
        <time>2020-05-30T10:45:17.000Z</time>
      </trkpt>
      <trkpt lat="43.42549" lon="6.50451">
        <ele>206</ele>
        <time>2020-05-30T10:45:18.000Z</time>
      </trkpt>
      <trkpt lat="43.42553" lon="6.50453">
        <ele>204.60000610352</ele>
        <time>2020-05-30T10:45:20.000Z</time>
      </trkpt>
      <trkpt lat="43.42557" lon="6.50454">
        <ele>202.80000305176</ele>
        <time>2020-05-30T10:45:22.000Z</time>
      </trkpt>
      <trkpt lat="43.4256" lon="6.50458">
        <ele>201.19999694824</ele>
        <time>2020-05-30T10:45:24.000Z</time>
      </trkpt>
      <trkpt lat="43.42563" lon="6.5046">
        <ele>200</ele>
        <time>2020-05-30T10:45:26.000Z</time>
      </trkpt>
      <trkpt lat="43.42565" lon="6.50459">
        <ele>199.60000610352</ele>
        <time>2020-05-30T10:45:27.000Z</time>
      </trkpt>
      <trkpt lat="43.42567" lon="6.50458">
        <ele>198.80000305176</ele>
        <time>2020-05-30T10:45:28.000Z</time>
      </trkpt>
      <trkpt lat="43.4257" lon="6.50455">
        <ele>197.19999694824</ele>
        <time>2020-05-30T10:45:30.000Z</time>
      </trkpt>
      <trkpt lat="43.42571" lon="6.50453">
        <ele>196</ele>
        <time>2020-05-30T10:45:31.000Z</time>
      </trkpt>
      <trkpt lat="43.42576" lon="6.5045">
        <ele>194.60000610352</ele>
        <time>2020-05-30T10:45:33.000Z</time>
      </trkpt>
      <trkpt lat="43.42579" lon="6.50451">
        <ele>194.19999694824</ele>
        <time>2020-05-30T10:45:34.000Z</time>
      </trkpt>
      <trkpt lat="43.42584" lon="6.50451">
        <ele>193.19999694824</ele>
        <time>2020-05-30T10:45:36.000Z</time>
      </trkpt>
      <trkpt lat="43.42589" lon="6.50448">
        <ele>191.60000610352</ele>
        <time>2020-05-30T10:45:38.000Z</time>
      </trkpt>
      <trkpt lat="43.4259" lon="6.50445">
        <ele>190.19999694824</ele>
        <time>2020-05-30T10:45:39.000Z</time>
      </trkpt>
      <trkpt lat="43.4259" lon="6.50442">
        <ele>189.19999694824</ele>
        <time>2020-05-30T10:45:40.000Z</time>
      </trkpt>
      <trkpt lat="43.42594" lon="6.50441">
        <ele>188</ele>
        <time>2020-05-30T10:45:42.000Z</time>
      </trkpt>
      <trkpt lat="43.42601" lon="6.50443">
        <ele>187.60000610352</ele>
        <time>2020-05-30T10:45:46.000Z</time>
      </trkpt>
      <trkpt lat="43.42607" lon="6.50442">
        <ele>186.39999389648</ele>
        <time>2020-05-30T10:45:48.000Z</time>
      </trkpt>
      <trkpt lat="43.4261" lon="6.5044">
        <ele>185.39999389648</ele>
        <time>2020-05-30T10:45:49.000Z</time>
      </trkpt>
      <trkpt lat="43.42612" lon="6.50438">
        <ele>184.19999694824</ele>
        <time>2020-05-30T10:45:50.000Z</time>
      </trkpt>
      <trkpt lat="43.42614" lon="6.50436">
        <ele>183.19999694824</ele>
        <time>2020-05-30T10:45:51.000Z</time>
      </trkpt>
      <trkpt lat="43.42618" lon="6.50435">
        <ele>181.19999694824</ele>
        <time>2020-05-30T10:45:53.000Z</time>
      </trkpt>
      <trkpt lat="43.4262" lon="6.50434">
        <ele>180</ele>
        <time>2020-05-30T10:45:54.000Z</time>
      </trkpt>
      <trkpt lat="43.42621" lon="6.5043">
        <ele>178.60000610352</ele>
        <time>2020-05-30T10:45:56.000Z</time>
      </trkpt>
      <trkpt lat="43.42621" lon="6.5043">
        <ele>177.39999389648</ele>
        <time>2020-05-30T10:45:57.000Z</time>
      </trkpt>
      <trkpt lat="43.42623" lon="6.5043">
        <ele>176.19999694824</ele>
        <time>2020-05-30T10:46:00.000Z</time>
      </trkpt>
      <trkpt lat="43.42625" lon="6.50425">
        <ele>175.80000305176</ele>
        <time>2020-05-30T10:46:06.000Z</time>
      </trkpt>
      <trkpt lat="43.4263" lon="6.50425">
        <ele>175.19999694824</ele>
        <time>2020-05-30T10:46:09.000Z</time>
      </trkpt>
      <trkpt lat="43.42631" lon="6.50426">
        <ele>174.80000305176</ele>
        <time>2020-05-30T10:46:10.000Z</time>
      </trkpt>
      <trkpt lat="43.42634" lon="6.50428">
        <ele>173.60000610352</ele>
        <time>2020-05-30T10:46:12.000Z</time>
      </trkpt>
      <trkpt lat="43.42636" lon="6.50429">
        <ele>173</ele>
        <time>2020-05-30T10:46:13.000Z</time>
      </trkpt>
      <trkpt lat="43.42638" lon="6.50431">
        <ele>172.39999389648</ele>
        <time>2020-05-30T10:46:14.000Z</time>
      </trkpt>
      <trkpt lat="43.4264" lon="6.50435">
        <ele>171.60000610352</ele>
        <time>2020-05-30T10:46:16.000Z</time>
      </trkpt>
      <trkpt lat="43.42641" lon="6.50436">
        <ele>170.39999389648</ele>
        <time>2020-05-30T10:46:17.000Z</time>
      </trkpt>
      <trkpt lat="43.42643" lon="6.50436">
        <ele>169.80000305176</ele>
        <time>2020-05-30T10:46:18.000Z</time>
      </trkpt>
      <trkpt lat="43.42644" lon="6.50436">
        <ele>169.39999389648</ele>
        <time>2020-05-30T10:46:19.000Z</time>
      </trkpt>
      <trkpt lat="43.42646" lon="6.50437">
        <ele>168.60000610352</ele>
        <time>2020-05-30T10:46:20.000Z</time>
      </trkpt>
      <trkpt lat="43.4265" lon="6.50439">
        <ele>167.80000305176</ele>
        <time>2020-05-30T10:46:22.000Z</time>
      </trkpt>
      <trkpt lat="43.42651" lon="6.50442">
        <ele>167.19999694824</ele>
        <time>2020-05-30T10:46:23.000Z</time>
      </trkpt>
      <trkpt lat="43.42653" lon="6.50447">
        <ele>166</ele>
        <time>2020-05-30T10:46:24.000Z</time>
      </trkpt>
      <trkpt lat="43.42655" lon="6.50455">
        <ele>164.60000610352</ele>
        <time>2020-05-30T10:46:26.000Z</time>
      </trkpt>
      <trkpt lat="43.42656" lon="6.50457">
        <ele>162.60000610352</ele>
        <time>2020-05-30T10:46:27.000Z</time>
      </trkpt>
      <trkpt lat="43.42656" lon="6.50457">
        <ele>161</ele>
        <time>2020-05-30T10:46:29.000Z</time>
      </trkpt>
      <trkpt lat="43.42657" lon="6.50458">
        <ele>159.60000610352</ele>
        <time>2020-05-30T10:46:32.000Z</time>
      </trkpt>
      <trkpt lat="43.42659" lon="6.50461">
        <ele>159.60000610352</ele>
        <time>2020-05-30T10:46:34.000Z</time>
      </trkpt>
      <trkpt lat="43.4266" lon="6.50464">
        <ele>159.80000305176</ele>
        <time>2020-05-30T10:46:35.000Z</time>
      </trkpt>
      <trkpt lat="43.4266" lon="6.50479">
        <ele>159.60000610352</ele>
        <time>2020-05-30T10:46:39.000Z</time>
      </trkpt>
      <trkpt lat="43.42662" lon="6.50487">
        <ele>158.60000610352</ele>
        <time>2020-05-30T10:46:41.000Z</time>
      </trkpt>
      <trkpt lat="43.42662" lon="6.50492">
        <ele>157.60000610352</ele>
        <time>2020-05-30T10:46:42.000Z</time>
      </trkpt>
      <trkpt lat="43.42664" lon="6.50494">
        <ele>156.80000305176</ele>
        <time>2020-05-30T10:46:43.000Z</time>
      </trkpt>
      <trkpt lat="43.42669" lon="6.505">
        <ele>156</ele>
        <time>2020-05-30T10:46:45.000Z</time>
      </trkpt>
      <trkpt lat="43.42675" lon="6.50506">
        <ele>155.80000305176</ele>
        <time>2020-05-30T10:46:47.000Z</time>
      </trkpt>
      <trkpt lat="43.42679" lon="6.50505">
        <ele>155.60000610352</ele>
        <time>2020-05-30T10:46:48.000Z</time>
      </trkpt>
      <trkpt lat="43.42686" lon="6.50511">
        <ele>154.80000305176</ele>
        <time>2020-05-30T10:46:50.000Z</time>
      </trkpt>
      <trkpt lat="43.4269" lon="6.50514">
        <ele>154.39999389648</ele>
        <time>2020-05-30T10:46:51.000Z</time>
      </trkpt>
      <trkpt lat="43.42693" lon="6.50523">
        <ele>153.39999389648</ele>
        <time>2020-05-30T10:46:53.000Z</time>
      </trkpt>
      <trkpt lat="43.42697" lon="6.50527">
        <ele>153.39999389648</ele>
        <time>2020-05-30T10:46:54.000Z</time>
      </trkpt>
      <trkpt lat="43.42704" lon="6.50537">
        <ele>152.39999389648</ele>
        <time>2020-05-30T10:46:57.000Z</time>
      </trkpt>
      <trkpt lat="43.42713" lon="6.50544">
        <ele>150.39999389648</ele>
        <time>2020-05-30T10:47:00.000Z</time>
      </trkpt>
      <trkpt lat="43.42718" lon="6.50542">
        <ele>149.80000305176</ele>
        <time>2020-05-30T10:47:01.000Z</time>
      </trkpt>
      <trkpt lat="43.42724" lon="6.50541">
        <ele>149.60000610352</ele>
        <time>2020-05-30T10:47:02.000Z</time>
      </trkpt>
      <trkpt lat="43.4273" lon="6.5054">
        <ele>148.80000305176</ele>
        <time>2020-05-30T10:47:03.000Z</time>
      </trkpt>
      <trkpt lat="43.42736" lon="6.50538">
        <ele>148.19999694824</ele>
        <time>2020-05-30T10:47:04.000Z</time>
      </trkpt>
      <trkpt lat="43.42742" lon="6.50535">
        <ele>147.60000610352</ele>
        <time>2020-05-30T10:47:05.000Z</time>
      </trkpt>
      <trkpt lat="43.42747" lon="6.50534">
        <ele>147.19999694824</ele>
        <time>2020-05-30T10:47:06.000Z</time>
      </trkpt>
      <trkpt lat="43.42752" lon="6.50533">
        <ele>146.39999389648</ele>
        <time>2020-05-30T10:47:07.000Z</time>
      </trkpt>
      <trkpt lat="43.42756" lon="6.50531">
        <ele>145.19999694824</ele>
        <time>2020-05-30T10:47:09.000Z</time>
      </trkpt>
      <trkpt lat="43.42757" lon="6.50531">
        <ele>144.80000305176</ele>
        <time>2020-05-30T10:47:13.000Z</time>
      </trkpt>
      <trkpt lat="43.4276" lon="6.50526">
        <ele>144.80000305176</ele>
        <time>2020-05-30T10:47:31.000Z</time>
      </trkpt>
      <trkpt lat="43.4276" lon="6.50523">
        <ele>144.80000305176</ele>
        <time>2020-05-30T10:47:32.000Z</time>
      </trkpt>
      <trkpt lat="43.42765" lon="6.50517">
        <ele>144.60000610352</ele>
        <time>2020-05-30T10:47:35.000Z</time>
      </trkpt>
      <trkpt lat="43.42769" lon="6.50517">
        <ele>144.19999694824</ele>
        <time>2020-05-30T10:47:36.000Z</time>
      </trkpt>
      <trkpt lat="43.42784" lon="6.5052">
        <ele>142.60000610352</ele>
        <time>2020-05-30T10:47:39.000Z</time>
      </trkpt>
      <trkpt lat="43.42792" lon="6.50525">
        <ele>142</ele>
        <time>2020-05-30T10:47:41.000Z</time>
      </trkpt>
      <trkpt lat="43.42795" lon="6.50526">
        <ele>141.60000610352</ele>
        <time>2020-05-30T10:47:42.000Z</time>
      </trkpt>
      <trkpt lat="43.42807" lon="6.50531">
        <ele>140.39999389648</ele>
        <time>2020-05-30T10:47:45.000Z</time>
      </trkpt>
      <trkpt lat="43.42811" lon="6.50533">
        <ele>139.60000610352</ele>
        <time>2020-05-30T10:47:46.000Z</time>
      </trkpt>
      <trkpt lat="43.42818" lon="6.50534">
        <ele>139</ele>
        <time>2020-05-30T10:47:48.000Z</time>
      </trkpt>
      <trkpt lat="43.42823" lon="6.50535">
        <ele>138.60000610352</ele>
        <time>2020-05-30T10:47:49.000Z</time>
      </trkpt>
      <trkpt lat="43.42827" lon="6.50537">
        <ele>138.39999389648</ele>
        <time>2020-05-30T10:47:50.000Z</time>
      </trkpt>
      <trkpt lat="43.42831" lon="6.50536">
        <ele>137.60000610352</ele>
        <time>2020-05-30T10:47:51.000Z</time>
      </trkpt>
      <trkpt lat="43.42835" lon="6.50537">
        <ele>137</ele>
        <time>2020-05-30T10:47:52.000Z</time>
      </trkpt>
      <trkpt lat="43.4284" lon="6.50539">
        <ele>136</ele>
        <time>2020-05-30T10:47:53.000Z</time>
      </trkpt>
      <trkpt lat="43.42844" lon="6.50542">
        <ele>135.19999694824</ele>
        <time>2020-05-30T10:47:54.000Z</time>
      </trkpt>
      <trkpt lat="43.42848" lon="6.50543">
        <ele>134.60000610352</ele>
        <time>2020-05-30T10:47:55.000Z</time>
      </trkpt>
      <trkpt lat="43.42856" lon="6.50545">
        <ele>132.39999389648</ele>
        <time>2020-05-30T10:47:57.000Z</time>
      </trkpt>
      <trkpt lat="43.4286" lon="6.50546">
        <ele>131.80000305176</ele>
        <time>2020-05-30T10:47:58.000Z</time>
      </trkpt>
      <trkpt lat="43.42865" lon="6.50549">
        <ele>131</ele>
        <time>2020-05-30T10:47:59.000Z</time>
      </trkpt>
      <trkpt lat="43.42871" lon="6.5055">
        <ele>130.39999389648</ele>
        <time>2020-05-30T10:48:00.000Z</time>
      </trkpt>
      <trkpt lat="43.42876" lon="6.50551">
        <ele>129.80000305176</ele>
        <time>2020-05-30T10:48:01.000Z</time>
      </trkpt>
      <trkpt lat="43.42894" lon="6.50545">
        <ele>128.39999389648</ele>
        <time>2020-05-30T10:48:05.000Z</time>
      </trkpt>
      <trkpt lat="43.42897" lon="6.50542">
        <ele>127.40000152588</ele>
        <time>2020-05-30T10:48:06.000Z</time>
      </trkpt>
      <trkpt lat="43.42902" lon="6.5054">
        <ele>126.19999694824</ele>
        <time>2020-05-30T10:48:07.000Z</time>
      </trkpt>
      <trkpt lat="43.42914" lon="6.50537">
        <ele>124.40000152588</ele>
        <time>2020-05-30T10:48:09.000Z</time>
      </trkpt>
      <trkpt lat="43.42919" lon="6.50534">
        <ele>123.40000152588</ele>
        <time>2020-05-30T10:48:10.000Z</time>
      </trkpt>
      <trkpt lat="43.42925" lon="6.5053">
        <ele>122.80000305176</ele>
        <time>2020-05-30T10:48:12.000Z</time>
      </trkpt>
      <trkpt lat="43.42929" lon="6.50529">
        <ele>122.19999694824</ele>
        <time>2020-05-30T10:48:13.000Z</time>
      </trkpt>
      <trkpt lat="43.42933" lon="6.5053">
        <ele>122</ele>
        <time>2020-05-30T10:48:14.000Z</time>
      </trkpt>
      <trkpt lat="43.42939" lon="6.50531">
        <ele>121.59999847412</ele>
        <time>2020-05-30T10:48:15.000Z</time>
      </trkpt>
      <trkpt lat="43.42944" lon="6.50532">
        <ele>121</ele>
        <time>2020-05-30T10:48:16.000Z</time>
      </trkpt>
      <trkpt lat="43.42954" lon="6.50536">
        <ele>119.19999694824</ele>
        <time>2020-05-30T10:48:18.000Z</time>
      </trkpt>
      <trkpt lat="43.42958" lon="6.50539">
        <ele>118</ele>
        <time>2020-05-30T10:48:19.000Z</time>
      </trkpt>
      <trkpt lat="43.42964" lon="6.50542">
        <ele>116.80000305176</ele>
        <time>2020-05-30T10:48:20.000Z</time>
      </trkpt>
      <trkpt lat="43.42969" lon="6.50544">
        <ele>115.80000305176</ele>
        <time>2020-05-30T10:48:21.000Z</time>
      </trkpt>
      <trkpt lat="43.42979" lon="6.50547">
        <ele>113.59999847412</ele>
        <time>2020-05-30T10:48:23.000Z</time>
      </trkpt>
      <trkpt lat="43.42982" lon="6.50548">
        <ele>112.80000305176</ele>
        <time>2020-05-30T10:48:24.000Z</time>
      </trkpt>
      <trkpt lat="43.42989" lon="6.50551">
        <ele>112.40000152588</ele>
        <time>2020-05-30T10:48:26.000Z</time>
      </trkpt>
      <trkpt lat="43.42997" lon="6.50557">
        <ele>111.59999847412</ele>
        <time>2020-05-30T10:48:28.000Z</time>
      </trkpt>
      <trkpt lat="43.43004" lon="6.50564">
        <ele>110.59999847412</ele>
        <time>2020-05-30T10:48:30.000Z</time>
      </trkpt>
      <trkpt lat="43.43013" lon="6.50574">
        <ele>108.80000305176</ele>
        <time>2020-05-30T10:48:32.000Z</time>
      </trkpt>
      <trkpt lat="43.43021" lon="6.50584">
        <ele>106.40000152588</ele>
        <time>2020-05-30T10:48:34.000Z</time>
      </trkpt>
      <trkpt lat="43.43027" lon="6.50595">
        <ele>104.19999694824</ele>
        <time>2020-05-30T10:48:36.000Z</time>
      </trkpt>
      <trkpt lat="43.43032" lon="6.50603">
        <ele>103.40000152588</ele>
        <time>2020-05-30T10:48:37.000Z</time>
      </trkpt>
      <trkpt lat="43.43032" lon="6.50608">
        <ele>102.80000305176</ele>
        <time>2020-05-30T10:48:38.000Z</time>
      </trkpt>
      <trkpt lat="43.43033" lon="6.50612">
        <ele>102.40000152588</ele>
        <time>2020-05-30T10:48:39.000Z</time>
      </trkpt>
      <trkpt lat="43.43037" lon="6.50626">
        <ele>101.80000305176</ele>
        <time>2020-05-30T10:48:42.000Z</time>
      </trkpt>
      <trkpt lat="43.43038" lon="6.50631">
        <ele>101.59999847412</ele>
        <time>2020-05-30T10:48:43.000Z</time>
      </trkpt>
      <trkpt lat="43.43038" lon="6.50636">
        <ele>100.59999847412</ele>
        <time>2020-05-30T10:48:44.000Z</time>
      </trkpt>
      <trkpt lat="43.4304" lon="6.50647">
        <ele>99.199996948242</ele>
        <time>2020-05-30T10:48:46.000Z</time>
      </trkpt>
      <trkpt lat="43.43043" lon="6.50653">
        <ele>98.199996948242</ele>
        <time>2020-05-30T10:48:47.000Z</time>
      </trkpt>
      <trkpt lat="43.43046" lon="6.50665">
        <ele>96.599998474121</ele>
        <time>2020-05-30T10:48:49.000Z</time>
      </trkpt>
      <trkpt lat="43.4305" lon="6.50668">
        <ele>96</ele>
        <time>2020-05-30T10:48:50.000Z</time>
      </trkpt>
      <trkpt lat="43.43053" lon="6.50671">
        <ele>94.800003051758</ele>
        <time>2020-05-30T10:48:51.000Z</time>
      </trkpt>
      <trkpt lat="43.43067" lon="6.50682">
        <ele>93.599998474121</ele>
        <time>2020-05-30T10:48:55.000Z</time>
      </trkpt>
      <trkpt lat="43.43071" lon="6.50688">
        <ele>92.599998474121</ele>
        <time>2020-05-30T10:48:57.000Z</time>
      </trkpt>
      <trkpt lat="43.43072" lon="6.50691">
        <ele>91.599998474121</ele>
        <time>2020-05-30T10:48:58.000Z</time>
      </trkpt>
      <trkpt lat="43.43077" lon="6.50702">
        <ele>90.199996948242</ele>
        <time>2020-05-30T10:49:00.000Z</time>
      </trkpt>
      <trkpt lat="43.4308" lon="6.50708">
        <ele>89.800003051758</ele>
        <time>2020-05-30T10:49:01.000Z</time>
      </trkpt>
      <trkpt lat="43.43084" lon="6.50713">
        <ele>89.400001525879</ele>
        <time>2020-05-30T10:49:02.000Z</time>
      </trkpt>
      <trkpt lat="43.43088" lon="6.50717">
        <ele>88.599998474121</ele>
        <time>2020-05-30T10:49:03.000Z</time>
      </trkpt>
      <trkpt lat="43.43092" lon="6.50722">
        <ele>87.800003051758</ele>
        <time>2020-05-30T10:49:04.000Z</time>
      </trkpt>
      <trkpt lat="43.43097" lon="6.50727">
        <ele>87.199996948242</ele>
        <time>2020-05-30T10:49:05.000Z</time>
      </trkpt>
      <trkpt lat="43.43107" lon="6.50736">
        <ele>86</ele>
        <time>2020-05-30T10:49:07.000Z</time>
      </trkpt>
      <trkpt lat="43.43114" lon="6.50747">
        <ele>85.800003051758</ele>
        <time>2020-05-30T10:49:09.000Z</time>
      </trkpt>
      <trkpt lat="43.43116" lon="6.50753">
        <ele>85.599998474121</ele>
        <time>2020-05-30T10:49:10.000Z</time>
      </trkpt>
      <trkpt lat="43.43117" lon="6.50758">
        <ele>84.800003051758</ele>
        <time>2020-05-30T10:49:11.000Z</time>
      </trkpt>
      <trkpt lat="43.43121" lon="6.50769">
        <ele>82.400001525879</ele>
        <time>2020-05-30T10:49:13.000Z</time>
      </trkpt>
      <trkpt lat="43.43122" lon="6.50774">
        <ele>81.400001525879</ele>
        <time>2020-05-30T10:49:14.000Z</time>
      </trkpt>
      <trkpt lat="43.43125" lon="6.50779">
        <ele>80.400001525879</ele>
        <time>2020-05-30T10:49:15.000Z</time>
      </trkpt>
      <trkpt lat="43.43128" lon="6.50791">
        <ele>78.800003051758</ele>
        <time>2020-05-30T10:49:17.000Z</time>
      </trkpt>
      <trkpt lat="43.43129" lon="6.50797">
        <ele>78.400001525879</ele>
        <time>2020-05-30T10:49:18.000Z</time>
      </trkpt>
      <trkpt lat="43.43131" lon="6.50803">
        <ele>77.599998474121</ele>
        <time>2020-05-30T10:49:19.000Z</time>
      </trkpt>
      <trkpt lat="43.43134" lon="6.50813">
        <ele>76.199996948242</ele>
        <time>2020-05-30T10:49:21.000Z</time>
      </trkpt>
      <trkpt lat="43.43135" lon="6.50819">
        <ele>75.800003051758</ele>
        <time>2020-05-30T10:49:22.000Z</time>
      </trkpt>
      <trkpt lat="43.43133" lon="6.50827">
        <ele>74</ele>
        <time>2020-05-30T10:49:24.000Z</time>
      </trkpt>
      <trkpt lat="43.43132" lon="6.50834">
        <ele>73.199996948242</ele>
        <time>2020-05-30T10:49:25.000Z</time>
      </trkpt>
      <trkpt lat="43.43132" lon="6.50839">
        <ele>72.199996948242</ele>
        <time>2020-05-30T10:49:26.000Z</time>
      </trkpt>
      <trkpt lat="43.43137" lon="6.50847">
        <ele>70.400001525879</ele>
        <time>2020-05-30T10:49:28.000Z</time>
      </trkpt>
      <trkpt lat="43.4315" lon="6.50855">
        <ele>69.199996948242</ele>
        <time>2020-05-30T10:49:31.000Z</time>
      </trkpt>
      <trkpt lat="43.43152" lon="6.50858">
        <ele>68.599998474121</ele>
        <time>2020-05-30T10:49:32.000Z</time>
      </trkpt>
      <trkpt lat="43.43154" lon="6.50862">
        <ele>68</ele>
        <time>2020-05-30T10:49:33.000Z</time>
      </trkpt>
      <trkpt lat="43.43158" lon="6.50871">
        <ele>66.800003051758</ele>
        <time>2020-05-30T10:49:35.000Z</time>
      </trkpt>
      <trkpt lat="43.43159" lon="6.50876">
        <ele>65.599998474121</ele>
        <time>2020-05-30T10:49:36.000Z</time>
      </trkpt>
      <trkpt lat="43.43162" lon="6.50881">
        <ele>65</ele>
        <time>2020-05-30T10:49:37.000Z</time>
      </trkpt>
      <trkpt lat="43.43164" lon="6.50886">
        <ele>64.800003051758</ele>
        <time>2020-05-30T10:49:38.000Z</time>
      </trkpt>
      <trkpt lat="43.43165" lon="6.50892">
        <ele>64.400001525879</ele>
        <time>2020-05-30T10:49:39.000Z</time>
      </trkpt>
      <trkpt lat="43.43165" lon="6.50905">
        <ele>64</ele>
        <time>2020-05-30T10:49:41.000Z</time>
      </trkpt>
      <trkpt lat="43.43164" lon="6.50918">
        <ele>63.799999237061</ele>
        <time>2020-05-30T10:49:43.000Z</time>
      </trkpt>
      <trkpt lat="43.43165" lon="6.50938">
        <ele>62.799999237061</ele>
        <time>2020-05-30T10:49:46.000Z</time>
      </trkpt>
      <trkpt lat="43.43164" lon="6.50946">
        <ele>62.200000762939</ele>
        <time>2020-05-30T10:49:47.000Z</time>
      </trkpt>
      <trkpt lat="43.43164" lon="6.50954">
        <ele>61.599998474121</ele>
        <time>2020-05-30T10:49:48.000Z</time>
      </trkpt>
      <trkpt lat="43.43164" lon="6.50971">
        <ele>59.799999237061</ele>
        <time>2020-05-30T10:49:50.000Z</time>
      </trkpt>
      <trkpt lat="43.43163" lon="6.50979">
        <ele>59.200000762939</ele>
        <time>2020-05-30T10:49:51.000Z</time>
      </trkpt>
      <trkpt lat="43.43164" lon="6.50986">
        <ele>58</ele>
        <time>2020-05-30T10:49:52.000Z</time>
      </trkpt>
      <trkpt lat="43.43165" lon="6.50994">
        <ele>57</ele>
        <time>2020-05-30T10:49:53.000Z</time>
      </trkpt>
      <trkpt lat="43.43165" lon="6.51002">
        <ele>56.200000762939</ele>
        <time>2020-05-30T10:49:54.000Z</time>
      </trkpt>
      <trkpt lat="43.43166" lon="6.51008">
        <ele>54.599998474121</ele>
        <time>2020-05-30T10:49:55.000Z</time>
      </trkpt>
      <trkpt lat="43.43167" lon="6.51014">
        <ele>53.400001525879</ele>
        <time>2020-05-30T10:49:56.000Z</time>
      </trkpt>
      <trkpt lat="43.43168" lon="6.51018">
        <ele>52.799999237061</ele>
        <time>2020-05-30T10:49:57.000Z</time>
      </trkpt>
      <trkpt lat="43.43169" lon="6.51023">
        <ele>51.599998474121</ele>
        <time>2020-05-30T10:49:58.000Z</time>
      </trkpt>
      <trkpt lat="43.43169" lon="6.51029">
        <ele>50</ele>
        <time>2020-05-30T10:49:59.000Z</time>
      </trkpt>
      <trkpt lat="43.43171" lon="6.51036">
        <ele>49.799999237061</ele>
        <time>2020-05-30T10:50:01.000Z</time>
      </trkpt>
      <trkpt lat="43.43179" lon="6.51039">
        <ele>50.799999237061</ele>
        <time>2020-05-30T10:50:04.000Z</time>
      </trkpt>
      <trkpt lat="43.43182" lon="6.5104">
        <ele>51</ele>
        <time>2020-05-30T10:50:05.000Z</time>
      </trkpt>
      <trkpt lat="43.43201" lon="6.51043">
        <ele>51</ele>
        <time>2020-05-30T10:50:11.000Z</time>
      </trkpt>
      <trkpt lat="43.43226" lon="6.51047">
        <ele>50.599998474121</ele>
        <time>2020-05-30T10:50:19.000Z</time>
      </trkpt>
      <trkpt lat="43.43246" lon="6.51051">
        <ele>50.799999237061</ele>
        <time>2020-05-30T10:50:26.000Z</time>
      </trkpt>
      <trkpt lat="43.43266" lon="6.51048">
        <ele>51.200000762939</ele>
        <time>2020-05-30T10:50:32.000Z</time>
      </trkpt>
      <trkpt lat="43.43296" lon="6.51037">
        <ele>51.400001525879</ele>
        <time>2020-05-30T10:50:41.000Z</time>
      </trkpt>
      <trkpt lat="43.43325" lon="6.51025">
        <ele>52</ele>
        <time>2020-05-30T10:50:50.000Z</time>
      </trkpt>
      <trkpt lat="43.43335" lon="6.51022">
        <ele>52.200000762939</ele>
        <time>2020-05-30T10:50:53.000Z</time>
      </trkpt>
      <trkpt lat="43.43342" lon="6.51021">
        <ele>52.200000762939</ele>
        <time>2020-05-30T10:50:55.000Z</time>
      </trkpt>
      <trkpt lat="43.43364" lon="6.51027">
        <ele>52.799999237061</ele>
        <time>2020-05-30T10:51:02.000Z</time>
      </trkpt>
      <trkpt lat="43.4338" lon="6.5103">
        <ele>53.200000762939</ele>
        <time>2020-05-30T10:51:07.000Z</time>
      </trkpt>
      <trkpt lat="43.43387" lon="6.51031">
        <ele>53.400001525879</ele>
        <time>2020-05-30T10:51:09.000Z</time>
      </trkpt>
      <trkpt lat="43.43405" lon="6.5104">
        <ele>53.799999237061</ele>
        <time>2020-05-30T10:51:15.000Z</time>
      </trkpt>
      <trkpt lat="43.43417" lon="6.51047">
        <ele>54.200000762939</ele>
        <time>2020-05-30T10:51:19.000Z</time>
      </trkpt>
      <trkpt lat="43.43427" lon="6.51051">
        <ele>54.599998474121</ele>
        <time>2020-05-30T10:51:22.000Z</time>
      </trkpt>
      <trkpt lat="43.43454" lon="6.51058">
        <ele>55</ele>
        <time>2020-05-30T10:51:30.000Z</time>
      </trkpt>
      <trkpt lat="43.4346" lon="6.5106">
        <ele>55.200000762939</ele>
        <time>2020-05-30T10:51:32.000Z</time>
      </trkpt>
      <trkpt lat="43.43474" lon="6.5107">
        <ele>55.400001525879</ele>
        <time>2020-05-30T10:51:37.000Z</time>
      </trkpt>
      <trkpt lat="43.43494" lon="6.51075">
        <ele>55.599998474121</ele>
        <time>2020-05-30T10:51:43.000Z</time>
      </trkpt>
      <trkpt lat="43.43519" lon="6.51076">
        <ele>54.400001525879</ele>
        <time>2020-05-30T10:51:49.000Z</time>
      </trkpt>
      <trkpt lat="43.43522" lon="6.51076">
        <ele>54</ele>
        <time>2020-05-30T10:51:50.000Z</time>
      </trkpt>
      <trkpt lat="43.43523" lon="6.51077">
        <ele>53.400001525879</ele>
        <time>2020-05-30T10:51:53.000Z</time>
      </trkpt>
      <trkpt lat="43.43524" lon="6.51077">
        <ele>53.200000762939</ele>
        <time>2020-05-30T10:52:00.000Z</time>
      </trkpt>
      <trkpt lat="43.43524" lon="6.51076">
        <ele>53</ele>
        <time>2020-05-30T10:52:06.000Z</time>
      </trkpt>
      <trkpt lat="43.43524" lon="6.51076">
        <ele>53</ele>
        <time>2020-05-30T10:52:12.000Z</time>
      </trkpt>
      <trkpt lat="43.43524" lon="6.51076">
        <ele>53</ele>
        <time>2020-05-30T10:52:23.000Z</time>
      </trkpt>
      <trkpt lat="43.43525" lon="6.51075">
        <ele>52.799999237061</ele>
        <time>2020-05-30T10:52:28.000Z</time>
      </trkpt>
      <trkpt lat="43.43523" lon="6.51077">
        <ele>52.599998474121</ele>
        <time>2020-05-30T10:52:35.000Z</time>
      </trkpt>
      <trkpt lat="43.43523" lon="6.51079">
        <ele>52.599998474121</ele>
        <time>2020-05-30T10:52:42.000Z</time>
      </trkpt>
      <trkpt lat="43.43524" lon="6.51077">
        <ele>52.400001525879</ele>
        <time>2020-05-30T10:52:49.000Z</time>
      </trkpt>
      <trkpt lat="43.43526" lon="6.51076">
        <ele>52.400001525879</ele>
        <time>2020-05-30T10:52:55.000Z</time>
      </trkpt>
      <trkpt lat="43.43526" lon="6.51076">
        <ele>52.799999237061</ele>
        <time>2020-05-30T10:53:03.000Z</time>
      </trkpt>
      <trkpt lat="43.43525" lon="6.51077">
        <ele>52.599998474121</ele>
        <time>2020-05-30T10:53:07.000Z</time>
      </trkpt>
      <trkpt lat="43.43525" lon="6.51077">
        <ele>52.400001525879</ele>
        <time>2020-05-30T10:53:16.000Z</time>
      </trkpt>
      <trkpt lat="43.43526" lon="6.51078">
        <ele>52.400001525879</ele>
        <time>2020-05-30T10:53:24.000Z</time>
      </trkpt>
      <trkpt lat="43.43527" lon="6.51077">
        <ele>52.400001525879</ele>
        <time>2020-05-30T10:53:32.000Z</time>
      </trkpt>
      <trkpt lat="43.43528" lon="6.51076">
        <ele>52.200000762939</ele>
        <time>2020-05-30T10:53:40.000Z</time>
      </trkpt>
      <trkpt lat="43.43529" lon="6.51076">
        <ele>52.400001525879</ele>
        <time>2020-05-30T10:53:50.000Z</time>
      </trkpt>
      <trkpt lat="43.43529" lon="6.51075">
        <ele>52.400001525879</ele>
        <time>2020-05-30T10:53:57.000Z</time>
      </trkpt>
      <trkpt lat="43.43526" lon="6.51074">
        <ele>52.599998474121</ele>
        <time>2020-05-30T10:54:06.000Z</time>
      </trkpt>
      <trkpt lat="43.43526" lon="6.51074">
        <ele>52.599998474121</ele>
        <time>2020-05-30T10:54:14.000Z</time>
      </trkpt>
      <trkpt lat="43.43525" lon="6.51075">
        <ele>52.599998474121</ele>
        <time>2020-05-30T10:54:30.000Z</time>
      </trkpt>
      <trkpt lat="43.43524" lon="6.51076">
        <ele>52.599998474121</ele>
        <time>2020-05-30T10:54:39.000Z</time>
      </trkpt>
      <trkpt lat="43.43525" lon="6.51075">
        <ele>52.400001525879</ele>
        <time>2020-05-30T10:54:47.000Z</time>
      </trkpt>
      <trkpt lat="43.43526" lon="6.51075">
        <ele>52.200000762939</ele>
        <time>2020-05-30T10:54:55.000Z</time>
      </trkpt>
      <trkpt lat="43.43525" lon="6.51076">
        <ele>52.200000762939</ele>
        <time>2020-05-30T10:55:04.000Z</time>
      </trkpt>
      <trkpt lat="43.43525" lon="6.51076">
        <ele>52</ele>
        <time>2020-05-30T10:55:05.000Z</time>
      </trkpt>
      <trkpt lat="43.43525" lon="6.51076">
        <ele>51.799999237061</ele>
        <time>2020-05-30T10:55:20.000Z</time>
      </trkpt>
      <trkpt lat="43.43526" lon="6.51076">
        <ele>52.200000762939</ele>
        <time>2020-05-30T10:55:28.000Z</time>
      </trkpt>
      <trkpt lat="43.43526" lon="6.51077">
        <ele>52</ele>
        <time>2020-05-30T10:55:36.000Z</time>
      </trkpt>
      <trkpt lat="43.43526" lon="6.51077">
        <ele>51.799999237061</ele>
        <time>2020-05-30T10:55:41.000Z</time>
      </trkpt>
      <trkpt lat="43.43526" lon="6.51077">
        <ele>51.799999237061</ele>
        <time>2020-05-30T10:55:48.000Z</time>
      </trkpt>
      <trkpt lat="43.43527" lon="6.51076">
        <ele>51.599998474121</ele>
        <time>2020-05-30T10:55:56.000Z</time>
      </trkpt>
      <trkpt lat="43.4353" lon="6.51075">
        <ele>51.599998474121</ele>
        <time>2020-05-30T10:56:01.000Z</time>
      </trkpt>
      <trkpt lat="43.4353" lon="6.51074">
        <ele>51.400001525879</ele>
        <time>2020-05-30T10:56:08.000Z</time>
      </trkpt>
      <trkpt lat="43.43532" lon="6.51074">
        <ele>51.400001525879</ele>
        <time>2020-05-30T10:56:28.000Z</time>
      </trkpt>
      <trkpt lat="43.43532" lon="6.51074">
        <ele>51.400001525879</ele>
        <time>2020-05-30T10:56:37.000Z</time>
      </trkpt>
      <trkpt lat="43.43532" lon="6.51075">
        <ele>51.400001525879</ele>
        <time>2020-05-30T10:56:43.000Z</time>
      </trkpt>
      <trkpt lat="43.43532" lon="6.51076">
        <ele>51.200000762939</ele>
        <time>2020-05-30T10:56:52.000Z</time>
      </trkpt>
      <trkpt lat="43.43533" lon="6.51076">
        <ele>51.400001525879</ele>
        <time>2020-05-30T10:57:04.000Z</time>
      </trkpt>
      <trkpt lat="43.43531" lon="6.51077">
        <ele>51.200000762939</ele>
        <time>2020-05-30T10:57:25.000Z</time>
      </trkpt>
      <trkpt lat="43.43531" lon="6.51077">
        <ele>51.200000762939</ele>
        <time>2020-05-30T10:57:32.000Z</time>
      </trkpt>
      <trkpt lat="43.43531" lon="6.51077">
        <ele>51</ele>
        <time>2020-05-30T10:57:36.000Z</time>
      </trkpt>
      <trkpt lat="43.43531" lon="6.51077">
        <ele>51.200000762939</ele>
        <time>2020-05-30T10:57:48.000Z</time>
      </trkpt>
      <trkpt lat="43.43531" lon="6.51078">
        <ele>51.400001525879</ele>
        <time>2020-05-30T10:58:08.000Z</time>
      </trkpt>
      <trkpt lat="43.43532" lon="6.51079">
        <ele>51.200000762939</ele>
        <time>2020-05-30T10:58:20.000Z</time>
      </trkpt>
      <trkpt lat="43.43532" lon="6.51079">
        <ele>51.200000762939</ele>
        <time>2020-05-30T10:58:28.000Z</time>
      </trkpt>
      <trkpt lat="43.43532" lon="6.51079">
        <ele>51</ele>
        <time>2020-05-30T10:58:34.000Z</time>
      </trkpt>
      <trkpt lat="43.43531" lon="6.51081">
        <ele>51.400001525879</ele>
        <time>2020-05-30T10:58:41.000Z</time>
      </trkpt>
      <trkpt lat="43.4353" lon="6.51081">
        <ele>51.200000762939</ele>
        <time>2020-05-30T10:58:47.000Z</time>
      </trkpt>
      <trkpt lat="43.43529" lon="6.5108">
        <ele>51.400001525879</ele>
        <time>2020-05-30T10:58:56.000Z</time>
      </trkpt>
      <trkpt lat="43.43527" lon="6.51081">
        <ele>51</ele>
        <time>2020-05-30T10:59:08.000Z</time>
      </trkpt>
      <trkpt lat="43.43524" lon="6.5108">
        <ele>51</ele>
        <time>2020-05-30T10:59:14.000Z</time>
      </trkpt>
      <trkpt lat="43.43522" lon="6.51079">
        <ele>51.400001525879</ele>
        <time>2020-05-30T10:59:21.000Z</time>
      </trkpt>
      <trkpt lat="43.43519" lon="6.51078">
        <ele>51.400001525879</ele>
        <time>2020-05-30T10:59:26.000Z</time>
      </trkpt>
      <trkpt lat="43.43507" lon="6.51078">
        <ele>51.799999237061</ele>
        <time>2020-05-30T10:59:33.000Z</time>
      </trkpt>
      <trkpt lat="43.43501" lon="6.51078">
        <ele>52</ele>
        <time>2020-05-30T10:59:36.000Z</time>
      </trkpt>
      <trkpt lat="43.43494" lon="6.51078">
        <ele>52.400001525879</ele>
        <time>2020-05-30T10:59:40.000Z</time>
      </trkpt>
      <trkpt lat="43.43485" lon="6.51076">
        <ele>53.200000762939</ele>
        <time>2020-05-30T10:59:45.000Z</time>
      </trkpt>
      <trkpt lat="43.43481" lon="6.51075">
        <ele>53.400001525879</ele>
        <time>2020-05-30T10:59:47.000Z</time>
      </trkpt>
      <trkpt lat="43.43466" lon="6.51063">
        <ele>53.599998474121</ele>
        <time>2020-05-30T10:59:54.000Z</time>
      </trkpt>
      <trkpt lat="43.43446" lon="6.51057">
        <ele>53.200000762939</ele>
        <time>2020-05-30T11:00:01.000Z</time>
      </trkpt>
      <trkpt lat="43.43433" lon="6.51055">
        <ele>52.799999237061</ele>
        <time>2020-05-30T11:00:07.000Z</time>
      </trkpt>
      <trkpt lat="43.43422" lon="6.51047">
        <ele>52.799999237061</ele>
        <time>2020-05-30T11:00:14.000Z</time>
      </trkpt>
      <trkpt lat="43.4341" lon="6.51038">
        <ele>52.599998474121</ele>
        <time>2020-05-30T11:00:21.000Z</time>
      </trkpt>
      <trkpt lat="43.43391" lon="6.5103">
        <ele>52.200000762939</ele>
        <time>2020-05-30T11:00:29.000Z</time>
      </trkpt>
      <trkpt lat="43.43376" lon="6.5103">
        <ele>52.200000762939</ele>
        <time>2020-05-30T11:00:35.000Z</time>
      </trkpt>
      <trkpt lat="43.4336" lon="6.51024">
        <ele>51.599998474121</ele>
        <time>2020-05-30T11:00:42.000Z</time>
      </trkpt>
      <trkpt lat="43.43352" lon="6.51021">
        <ele>51.200000762939</ele>
        <time>2020-05-30T11:00:45.000Z</time>
      </trkpt>
      <trkpt lat="43.43343" lon="6.5102">
        <ele>51</ele>
        <time>2020-05-30T11:00:48.000Z</time>
      </trkpt>
      <trkpt lat="43.43326" lon="6.51024">
        <ele>50.799999237061</ele>
        <time>2020-05-30T11:00:53.000Z</time>
      </trkpt>
      <trkpt lat="43.43304" lon="6.51033">
        <ele>50.400001525879</ele>
        <time>2020-05-30T11:00:59.000Z</time>
      </trkpt>
      <trkpt lat="43.43282" lon="6.51042">
        <ele>50.200000762939</ele>
        <time>2020-05-30T11:01:05.000Z</time>
      </trkpt>
      <trkpt lat="43.43279" lon="6.51043">
        <ele>50</ele>
        <time>2020-05-30T11:01:06.000Z</time>
      </trkpt>
      <trkpt lat="43.43254" lon="6.51049">
        <ele>49.799999237061</ele>
        <time>2020-05-30T11:01:14.000Z</time>
      </trkpt>
      <trkpt lat="43.43246" lon="6.51046">
        <ele>49.599998474121</ele>
        <time>2020-05-30T11:01:19.000Z</time>
      </trkpt>
      <trkpt lat="43.43245" lon="6.51046">
        <ele>49.400001525879</ele>
        <time>2020-05-30T11:01:24.000Z</time>
      </trkpt>
      <trkpt lat="43.43245" lon="6.51046">
        <ele>49.400001525879</ele>
        <time>2020-05-30T11:01:35.000Z</time>
      </trkpt>
      <trkpt lat="43.43245" lon="6.51045">
        <ele>49.599998474121</ele>
        <time>2020-05-30T11:01:50.000Z</time>
      </trkpt>
      <trkpt lat="43.43245" lon="6.51045">
        <ele>49.799999237061</ele>
        <time>2020-05-30T11:02:11.000Z</time>
      </trkpt>
      <trkpt lat="43.43244" lon="6.51046">
        <ele>50</ele>
        <time>2020-05-30T11:02:37.000Z</time>
      </trkpt>
      <trkpt lat="43.43244" lon="6.51043">
        <ele>49.799999237061</ele>
        <time>2020-05-30T11:02:49.000Z</time>
      </trkpt>
      <trkpt lat="43.43244" lon="6.51042">
        <ele>49.799999237061</ele>
        <time>2020-05-30T11:02:55.000Z</time>
      </trkpt>
      <trkpt lat="43.43244" lon="6.5104">
        <ele>49.400001525879</ele>
        <time>2020-05-30T11:03:06.000Z</time>
      </trkpt>
      <trkpt lat="43.43243" lon="6.51036">
        <ele>49</ele>
        <time>2020-05-30T11:03:09.000Z</time>
      </trkpt>
      <trkpt lat="43.43243" lon="6.51035">
        <ele>49.200000762939</ele>
        <time>2020-05-30T11:03:12.000Z</time>
      </trkpt>
      <trkpt lat="43.43243" lon="6.51033">
        <ele>49.400001525879</ele>
        <time>2020-05-30T11:03:17.000Z</time>
      </trkpt>
      <trkpt lat="43.4324" lon="6.5102">
        <ele>49.200000762939</ele>
        <time>2020-05-30T11:03:22.000Z</time>
      </trkpt>
      <trkpt lat="43.43236" lon="6.51003">
        <ele>48</ele>
        <time>2020-05-30T11:03:25.000Z</time>
      </trkpt>
      <trkpt lat="43.43236" lon="6.50998">
        <ele>47.599998474121</ele>
        <time>2020-05-30T11:03:26.000Z</time>
      </trkpt>
      <trkpt lat="43.43236" lon="6.50992">
        <ele>47.200000762939</ele>
        <time>2020-05-30T11:03:27.000Z</time>
      </trkpt>
      <trkpt lat="43.43235" lon="6.50979">
        <ele>46.599998474121</ele>
        <time>2020-05-30T11:03:29.000Z</time>
      </trkpt>
      <trkpt lat="43.43236" lon="6.50973">
        <ele>46.799999237061</ele>
        <time>2020-05-30T11:03:30.000Z</time>
      </trkpt>
      <trkpt lat="43.43238" lon="6.50968">
        <ele>46.599998474121</ele>
        <time>2020-05-30T11:03:31.000Z</time>
      </trkpt>
      <trkpt lat="43.43238" lon="6.5096">
        <ele>45.400001525879</ele>
        <time>2020-05-30T11:03:34.000Z</time>
      </trkpt>
      <trkpt lat="43.43238" lon="6.50957">
        <ele>44.599998474121</ele>
        <time>2020-05-30T11:03:35.000Z</time>
      </trkpt>
      <trkpt lat="43.43238" lon="6.50954">
        <ele>44.200000762939</ele>
        <time>2020-05-30T11:03:36.000Z</time>
      </trkpt>
      <trkpt lat="43.43238" lon="6.50947">
        <ele>43.200000762939</ele>
        <time>2020-05-30T11:03:40.000Z</time>
      </trkpt>
      <trkpt lat="43.43239" lon="6.50935">
        <ele>43</ele>
        <time>2020-05-30T11:03:43.000Z</time>
      </trkpt>
      <trkpt lat="43.4324" lon="6.50931">
        <ele>42.799999237061</ele>
        <time>2020-05-30T11:03:44.000Z</time>
      </trkpt>
      <trkpt lat="43.43237" lon="6.50906">
        <ele>41.799999237061</ele>
        <time>2020-05-30T11:03:48.000Z</time>
      </trkpt>
      <trkpt lat="43.43235" lon="6.50886">
        <ele>40.599998474121</ele>
        <time>2020-05-30T11:03:51.000Z</time>
      </trkpt>
      <trkpt lat="43.43236" lon="6.50877">
        <ele>40</ele>
        <time>2020-05-30T11:03:53.000Z</time>
      </trkpt>
      <trkpt lat="43.43239" lon="6.50858">
        <ele>40</ele>
        <time>2020-05-30T11:03:59.000Z</time>
      </trkpt>
      <trkpt lat="43.4324" lon="6.50845">
        <ele>40.200000762939</ele>
        <time>2020-05-30T11:04:04.000Z</time>
      </trkpt>
      <trkpt lat="43.43241" lon="6.50826">
        <ele>40.599998474121</ele>
        <time>2020-05-30T11:04:09.000Z</time>
      </trkpt>
      <trkpt lat="43.4324" lon="6.50815">
        <ele>40.799999237061</ele>
        <time>2020-05-30T11:04:13.000Z</time>
      </trkpt>
      <trkpt lat="43.43238" lon="6.50805">
        <ele>41</ele>
        <time>2020-05-30T11:04:16.000Z</time>
      </trkpt>
      <trkpt lat="43.43236" lon="6.50799">
        <ele>41</ele>
        <time>2020-05-30T11:04:18.000Z</time>
      </trkpt>
      <trkpt lat="43.4323" lon="6.50778">
        <ele>41.200000762939</ele>
        <time>2020-05-30T11:04:24.000Z</time>
      </trkpt>
      <trkpt lat="43.43229" lon="6.50752">
        <ele>41.400001525879</ele>
        <time>2020-05-30T11:04:31.000Z</time>
      </trkpt>
      <trkpt lat="43.43228" lon="6.50744">
        <ele>41.599998474121</ele>
        <time>2020-05-30T11:04:33.000Z</time>
      </trkpt>
      <trkpt lat="43.43226" lon="6.50721">
        <ele>42.400001525879</ele>
        <time>2020-05-30T11:04:39.000Z</time>
      </trkpt>
      <trkpt lat="43.43221" lon="6.50691">
        <ele>42.200000762939</ele>
        <time>2020-05-30T11:04:46.000Z</time>
      </trkpt>
      <trkpt lat="43.43213" lon="6.50662">
        <ele>41.799999237061</ele>
        <time>2020-05-30T11:04:53.000Z</time>
      </trkpt>
      <trkpt lat="43.43206" lon="6.50638">
        <ele>41.400001525879</ele>
        <time>2020-05-30T11:04:58.000Z</time>
      </trkpt>
      <trkpt lat="43.43204" lon="6.50618">
        <ele>40.599998474121</ele>
        <time>2020-05-30T11:05:02.000Z</time>
      </trkpt>
      <trkpt lat="43.43203" lon="6.50617">
        <ele>40.400001525879</ele>
        <time>2020-05-30T11:05:03.000Z</time>
      </trkpt>
      <trkpt lat="43.432" lon="6.50612">
        <ele>40</ele>
        <time>2020-05-30T11:05:08.000Z</time>
      </trkpt>
      <trkpt lat="43.43198" lon="6.5061">
        <ele>40</ele>
        <time>2020-05-30T11:05:16.000Z</time>
      </trkpt>
      <trkpt lat="43.43197" lon="6.50609">
        <ele>40</ele>
        <time>2020-05-30T11:05:30.000Z</time>
      </trkpt>
      <trkpt lat="43.43197" lon="6.50608">
        <ele>40</ele>
        <time>2020-05-30T11:05:44.000Z</time>
      </trkpt>
      <trkpt lat="43.432" lon="6.50612">
        <ele>39.799999237061</ele>
        <time>2020-05-30T11:05:51.000Z</time>
      </trkpt>
      <trkpt lat="43.43201" lon="6.50616">
        <ele>39.799999237061</ele>
        <time>2020-05-30T11:05:53.000Z</time>
      </trkpt>
      <trkpt lat="43.43203" lon="6.50623">
        <ele>40</ele>
        <time>2020-05-30T11:05:55.000Z</time>
      </trkpt>
      <trkpt lat="43.43205" lon="6.50641">
        <ele>40.400001525879</ele>
        <time>2020-05-30T11:06:00.000Z</time>
      </trkpt>
      <trkpt lat="43.43206" lon="6.50645">
        <ele>40.599998474121</ele>
        <time>2020-05-30T11:06:01.000Z</time>
      </trkpt>
      <trkpt lat="43.43214" lon="6.5067">
        <ele>41.799999237061</ele>
        <time>2020-05-30T11:06:07.000Z</time>
      </trkpt>
      <trkpt lat="43.43215" lon="6.50674">
        <ele>41.799999237061</ele>
        <time>2020-05-30T11:06:08.000Z</time>
      </trkpt>
      <trkpt lat="43.4322" lon="6.50695">
        <ele>41.799999237061</ele>
        <time>2020-05-30T11:06:13.000Z</time>
      </trkpt>
      <trkpt lat="43.43223" lon="6.50724">
        <ele>42.400001525879</ele>
        <time>2020-05-30T11:06:19.000Z</time>
      </trkpt>
      <trkpt lat="43.43225" lon="6.50745">
        <ele>42.799999237061</ele>
        <time>2020-05-30T11:06:23.000Z</time>
      </trkpt>
      <trkpt lat="43.43225" lon="6.50761">
        <ele>43</ele>
        <time>2020-05-30T11:06:26.000Z</time>
      </trkpt>
      <trkpt lat="43.43228" lon="6.50782">
        <ele>42.200000762939</ele>
        <time>2020-05-30T11:06:30.000Z</time>
      </trkpt>
      <trkpt lat="43.43232" lon="6.50794">
        <ele>41.599998474121</ele>
        <time>2020-05-30T11:06:32.000Z</time>
      </trkpt>
      <trkpt lat="43.43236" lon="6.50818">
        <ele>41.400001525879</ele>
        <time>2020-05-30T11:06:37.000Z</time>
      </trkpt>
      <trkpt lat="43.43234" lon="6.50849">
        <ele>41.599998474121</ele>
        <time>2020-05-30T11:06:42.000Z</time>
      </trkpt>
      <trkpt lat="43.43231" lon="6.5087">
        <ele>40.799999237061</ele>
        <time>2020-05-30T11:06:45.000Z</time>
      </trkpt>
      <trkpt lat="43.4323" lon="6.50882">
        <ele>40.200000762939</ele>
        <time>2020-05-30T11:06:47.000Z</time>
      </trkpt>
      <trkpt lat="43.4323" lon="6.50889">
        <ele>39.799999237061</ele>
        <time>2020-05-30T11:06:48.000Z</time>
      </trkpt>
      <trkpt lat="43.43231" lon="6.50904">
        <ele>39.200000762939</ele>
        <time>2020-05-30T11:06:51.000Z</time>
      </trkpt>
      <trkpt lat="43.43233" lon="6.50913">
        <ele>39.599998474121</ele>
        <time>2020-05-30T11:06:53.000Z</time>
      </trkpt>
      <trkpt lat="43.43234" lon="6.50936">
        <ele>41.400001525879</ele>
        <time>2020-05-30T11:06:59.000Z</time>
      </trkpt>
      <trkpt lat="43.43233" lon="6.50944">
        <ele>42.599998474121</ele>
        <time>2020-05-30T11:07:03.000Z</time>
      </trkpt>
      <trkpt lat="43.43233" lon="6.50945">
        <ele>42.799999237061</ele>
        <time>2020-05-30T11:07:04.000Z</time>
      </trkpt>
      <trkpt lat="43.43233" lon="6.50945">
        <ele>43.200000762939</ele>
        <time>2020-05-30T11:07:09.000Z</time>
      </trkpt>
      <trkpt lat="43.43232" lon="6.50946">
        <ele>43.200000762939</ele>
        <time>2020-05-30T11:07:19.000Z</time>
      </trkpt>
      <trkpt lat="43.43231" lon="6.50948">
        <ele>43</ele>
        <time>2020-05-30T11:07:36.000Z</time>
      </trkpt>
      <trkpt lat="43.43231" lon="6.50956">
        <ele>43.400001525879</ele>
        <time>2020-05-30T11:07:41.000Z</time>
      </trkpt>
      <trkpt lat="43.43231" lon="6.50961">
        <ele>43.599998474121</ele>
        <time>2020-05-30T11:07:43.000Z</time>
      </trkpt>
      <trkpt lat="43.43229" lon="6.50973">
        <ele>44.400001525879</ele>
        <time>2020-05-30T11:07:47.000Z</time>
      </trkpt>
      <trkpt lat="43.43229" lon="6.50976">
        <ele>44.799999237061</ele>
        <time>2020-05-30T11:07:48.000Z</time>
      </trkpt>
      <trkpt lat="43.4323" lon="6.50987">
        <ele>45.799999237061</ele>
        <time>2020-05-30T11:07:52.000Z</time>
      </trkpt>
      <trkpt lat="43.4323" lon="6.50995">
        <ele>46.799999237061</ele>
        <time>2020-05-30T11:07:55.000Z</time>
      </trkpt>
      <trkpt lat="43.43232" lon="6.51006">
        <ele>47.599998474121</ele>
        <time>2020-05-30T11:07:59.000Z</time>
      </trkpt>
      <trkpt lat="43.43233" lon="6.51013">
        <ele>47.799999237061</ele>
        <time>2020-05-30T11:08:01.000Z</time>
      </trkpt>
      <trkpt lat="43.43233" lon="6.51015">
        <ele>48</ele>
        <time>2020-05-30T11:08:02.000Z</time>
      </trkpt>
      <trkpt lat="43.43234" lon="6.51017">
        <ele>48.200000762939</ele>
        <time>2020-05-30T11:08:03.000Z</time>
      </trkpt>
      <trkpt lat="43.43238" lon="6.5103">
        <ele>49</ele>
        <time>2020-05-30T11:08:09.000Z</time>
      </trkpt>
      <trkpt lat="43.43238" lon="6.51031">
        <ele>49.400001525879</ele>
        <time>2020-05-30T11:08:10.000Z</time>
      </trkpt>
      <trkpt lat="43.43238" lon="6.51034">
        <ele>50.200000762939</ele>
        <time>2020-05-30T11:08:14.000Z</time>
      </trkpt>
      <trkpt lat="43.43238" lon="6.51034">
        <ele>50.200000762939</ele>
        <time>2020-05-30T11:08:15.000Z</time>
      </trkpt>
      <trkpt lat="43.43238" lon="6.51036">
        <ele>50.200000762939</ele>
        <time>2020-05-30T11:08:17.000Z</time>
      </trkpt>
      <trkpt lat="43.43238" lon="6.51036">
        <ele>50.200000762939</ele>
        <time>2020-05-30T11:08:20.000Z</time>
      </trkpt>
      <trkpt lat="43.43239" lon="6.51038">
        <ele>50.200000762939</ele>
        <time>2020-05-30T11:08:22.000Z</time>
      </trkpt>
      <trkpt lat="43.4324" lon="6.51042">
        <ele>50.599998474121</ele>
        <time>2020-05-30T11:08:25.000Z</time>
      </trkpt>
      <trkpt lat="43.43241" lon="6.51047">
        <ele>51.200000762939</ele>
        <time>2020-05-30T11:08:32.000Z</time>
      </trkpt>
      <trkpt lat="43.43241" lon="6.51048">
        <ele>51.400001525879</ele>
        <time>2020-05-30T11:08:37.000Z</time>
      </trkpt>
      <trkpt lat="43.43242" lon="6.51049">
        <ele>51.200000762939</ele>
        <time>2020-05-30T11:08:46.000Z</time>
      </trkpt>
      <trkpt lat="43.43244" lon="6.51051">
        <ele>51.200000762939</ele>
        <time>2020-05-30T11:08:53.000Z</time>
      </trkpt>
      <trkpt lat="43.43244" lon="6.51051">
        <ele>51</ele>
        <time>2020-05-30T11:09:07.000Z</time>
      </trkpt>
      <trkpt lat="43.43245" lon="6.51053">
        <ele>51.599998474121</ele>
        <time>2020-05-30T11:09:28.000Z</time>
      </trkpt>
      <trkpt lat="43.43246" lon="6.51053">
        <ele>51.200000762939</ele>
        <time>2020-05-30T11:09:39.000Z</time>
      </trkpt>
      <trkpt lat="43.4325" lon="6.51053">
        <ele>51.200000762939</ele>
        <time>2020-05-30T11:09:47.000Z</time>
      </trkpt>
      <trkpt lat="43.4325" lon="6.51051">
        <ele>51.200000762939</ele>
        <time>2020-05-30T11:09:48.000Z</time>
      </trkpt>
      <trkpt lat="43.43247" lon="6.51049">
        <ele>51.400001525879</ele>
        <time>2020-05-30T11:09:50.000Z</time>
      </trkpt>
      <trkpt lat="43.43235" lon="6.51048">
        <ele>51.400001525879</ele>
        <time>2020-05-30T11:09:55.000Z</time>
      </trkpt>
      <trkpt lat="43.43212" lon="6.51045">
        <ele>51.200000762939</ele>
        <time>2020-05-30T11:10:03.000Z</time>
      </trkpt>
      <trkpt lat="43.43187" lon="6.51041">
        <ele>51</ele>
        <time>2020-05-30T11:10:12.000Z</time>
      </trkpt>
      <trkpt lat="43.43173" lon="6.51044">
        <ele>51</ele>
        <time>2020-05-30T11:10:17.000Z</time>
      </trkpt>
      <trkpt lat="43.43172" lon="6.51047">
        <ele>51.200000762939</ele>
        <time>2020-05-30T11:10:18.000Z</time>
      </trkpt>
      <trkpt lat="43.43166" lon="6.51069">
        <ele>52.400001525879</ele>
        <time>2020-05-30T11:10:23.000Z</time>
      </trkpt>
      <trkpt lat="43.43161" lon="6.5108">
        <ele>53.400001525879</ele>
        <time>2020-05-30T11:10:26.000Z</time>
      </trkpt>
      <trkpt lat="43.43159" lon="6.51084">
        <ele>53.799999237061</ele>
        <time>2020-05-30T11:10:27.000Z</time>
      </trkpt>
      <trkpt lat="43.43153" lon="6.51092">
        <ele>54.400001525879</ele>
        <time>2020-05-30T11:10:30.000Z</time>
      </trkpt>
      <trkpt lat="43.43144" lon="6.511">
        <ele>55.599998474121</ele>
        <time>2020-05-30T11:10:34.000Z</time>
      </trkpt>
      <trkpt lat="43.43142" lon="6.51102">
        <ele>55.799999237061</ele>
        <time>2020-05-30T11:10:35.000Z</time>
      </trkpt>
      <trkpt lat="43.43136" lon="6.51108">
        <ele>56.599998474121</ele>
        <time>2020-05-30T11:10:38.000Z</time>
      </trkpt>
      <trkpt lat="43.43128" lon="6.51115">
        <ele>57.599998474121</ele>
        <time>2020-05-30T11:10:42.000Z</time>
      </trkpt>
      <trkpt lat="43.43126" lon="6.51116">
        <ele>57.799999237061</ele>
        <time>2020-05-30T11:10:43.000Z</time>
      </trkpt>
      <trkpt lat="43.43112" lon="6.51123">
        <ele>58.799999237061</ele>
        <time>2020-05-30T11:10:49.000Z</time>
      </trkpt>
      <trkpt lat="43.43095" lon="6.51129">
        <ele>60</ele>
        <time>2020-05-30T11:10:56.000Z</time>
      </trkpt>
      <trkpt lat="43.43092" lon="6.5113">
        <ele>60</ele>
        <time>2020-05-30T11:10:57.000Z</time>
      </trkpt>
      <trkpt lat="43.43069" lon="6.51128">
        <ele>59.400001525879</ele>
        <time>2020-05-30T11:11:04.000Z</time>
      </trkpt>
      <trkpt lat="43.43049" lon="6.5112">
        <ele>59</ele>
        <time>2020-05-30T11:11:10.000Z</time>
      </trkpt>
      <trkpt lat="43.43046" lon="6.51118">
        <ele>59</ele>
        <time>2020-05-30T11:11:11.000Z</time>
      </trkpt>
      <trkpt lat="43.43039" lon="6.51113">
        <ele>59</ele>
        <time>2020-05-30T11:11:15.000Z</time>
      </trkpt>
      <trkpt lat="43.43032" lon="6.51103">
        <ele>58.799999237061</ele>
        <time>2020-05-30T11:11:21.000Z</time>
      </trkpt>
      <trkpt lat="43.43021" lon="6.51097">
        <ele>58.400001525879</ele>
        <time>2020-05-30T11:11:27.000Z</time>
      </trkpt>
      <trkpt lat="43.43016" lon="6.511">
        <ele>58.400001525879</ele>
        <time>2020-05-30T11:11:32.000Z</time>
      </trkpt>
      <trkpt lat="43.43015" lon="6.51102">
        <ele>58.599998474121</ele>
        <time>2020-05-30T11:11:38.000Z</time>
      </trkpt>
      <trkpt lat="43.43014" lon="6.51104">
        <ele>58.599998474121</ele>
        <time>2020-05-30T11:11:39.000Z</time>
      </trkpt>
      <trkpt lat="43.43012" lon="6.51109">
        <ele>58.599998474121</ele>
        <time>2020-05-30T11:11:41.000Z</time>
      </trkpt>
      <trkpt lat="43.43007" lon="6.51124">
        <ele>58.599998474121</ele>
        <time>2020-05-30T11:11:45.000Z</time>
      </trkpt>
      <trkpt lat="43.42999" lon="6.51151">
        <ele>59.400001525879</ele>
        <time>2020-05-30T11:11:53.000Z</time>
      </trkpt>
      <trkpt lat="43.42993" lon="6.5118">
        <ele>60.200000762939</ele>
        <time>2020-05-30T11:12:01.000Z</time>
      </trkpt>
      <trkpt lat="43.42989" lon="6.51194">
        <ele>60.799999237061</ele>
        <time>2020-05-30T11:12:07.000Z</time>
      </trkpt>
      <trkpt lat="43.42985" lon="6.51198">
        <ele>60.799999237061</ele>
        <time>2020-05-30T11:12:10.000Z</time>
      </trkpt>
      <trkpt lat="43.42983" lon="6.512">
        <ele>60.799999237061</ele>
        <time>2020-05-30T11:12:12.000Z</time>
      </trkpt>
      <trkpt lat="43.42978" lon="6.5121">
        <ele>61</ele>
        <time>2020-05-30T11:12:16.000Z</time>
      </trkpt>
      <trkpt lat="43.42971" lon="6.51222">
        <ele>60.799999237061</ele>
        <time>2020-05-30T11:12:19.000Z</time>
      </trkpt>
      <trkpt lat="43.42968" lon="6.51229">
        <ele>61</ele>
        <time>2020-05-30T11:12:21.000Z</time>
      </trkpt>
      <trkpt lat="43.4296" lon="6.51264">
        <ele>61</ele>
        <time>2020-05-30T11:12:29.000Z</time>
      </trkpt>
      <trkpt lat="43.4295" lon="6.51296">
        <ele>60.799999237061</ele>
        <time>2020-05-30T11:12:36.000Z</time>
      </trkpt>
      <trkpt lat="43.42939" lon="6.51327">
        <ele>60.200000762939</ele>
        <time>2020-05-30T11:12:43.000Z</time>
      </trkpt>
      <trkpt lat="43.42926" lon="6.51355">
        <ele>59.599998474121</ele>
        <time>2020-05-30T11:12:50.000Z</time>
      </trkpt>
      <trkpt lat="43.42922" lon="6.51367">
        <ele>59.799999237061</ele>
        <time>2020-05-30T11:12:53.000Z</time>
      </trkpt>
      <trkpt lat="43.42916" lon="6.51386">
        <ele>59.799999237061</ele>
        <time>2020-05-30T11:12:57.000Z</time>
      </trkpt>
      <trkpt lat="43.42902" lon="6.51414">
        <ele>59.799999237061</ele>
        <time>2020-05-30T11:13:04.000Z</time>
      </trkpt>
      <trkpt lat="43.42902" lon="6.51435">
        <ele>59.799999237061</ele>
        <time>2020-05-30T11:13:08.000Z</time>
      </trkpt>
      <trkpt lat="43.42908" lon="6.51457">
        <ele>59.799999237061</ele>
        <time>2020-05-30T11:13:12.000Z</time>
      </trkpt>
      <trkpt lat="43.42914" lon="6.51489">
        <ele>59</ele>
        <time>2020-05-30T11:13:17.000Z</time>
      </trkpt>
      <trkpt lat="43.42914" lon="6.51497">
        <ele>58.799999237061</ele>
        <time>2020-05-30T11:13:18.000Z</time>
      </trkpt>
      <trkpt lat="43.42914" lon="6.51505">
        <ele>58.200000762939</ele>
        <time>2020-05-30T11:13:19.000Z</time>
      </trkpt>
      <trkpt lat="43.42912" lon="6.5152">
        <ele>57.799999237061</ele>
        <time>2020-05-30T11:13:21.000Z</time>
      </trkpt>
      <trkpt lat="43.42908" lon="6.51534">
        <ele>57.200000762939</ele>
        <time>2020-05-30T11:13:23.000Z</time>
      </trkpt>
      <trkpt lat="43.42906" lon="6.51541">
        <ele>57.200000762939</ele>
        <time>2020-05-30T11:13:24.000Z</time>
      </trkpt>
      <trkpt lat="43.42899" lon="6.51554">
        <ele>56.599998474121</ele>
        <time>2020-05-30T11:13:26.000Z</time>
      </trkpt>
      <trkpt lat="43.42888" lon="6.51573">
        <ele>56.200000762939</ele>
        <time>2020-05-30T11:13:29.000Z</time>
      </trkpt>
      <trkpt lat="43.42881" lon="6.51587">
        <ele>55.200000762939</ele>
        <time>2020-05-30T11:13:31.000Z</time>
      </trkpt>
      <trkpt lat="43.4287" lon="6.51606">
        <ele>54</ele>
        <time>2020-05-30T11:13:34.000Z</time>
      </trkpt>
      <trkpt lat="43.42866" lon="6.5161">
        <ele>54</ele>
        <time>2020-05-30T11:13:35.000Z</time>
      </trkpt>
      <trkpt lat="43.42862" lon="6.51616">
        <ele>53.599998474121</ele>
        <time>2020-05-30T11:13:36.000Z</time>
      </trkpt>
      <trkpt lat="43.42858" lon="6.51621">
        <ele>53.599998474121</ele>
        <time>2020-05-30T11:13:37.000Z</time>
      </trkpt>
      <trkpt lat="43.42852" lon="6.5164">
        <ele>53.200000762939</ele>
        <time>2020-05-30T11:13:40.000Z</time>
      </trkpt>
      <trkpt lat="43.42852" lon="6.51648">
        <ele>53.200000762939</ele>
        <time>2020-05-30T11:13:41.000Z</time>
      </trkpt>
      <trkpt lat="43.42851" lon="6.51662">
        <ele>53</ele>
        <time>2020-05-30T11:13:43.000Z</time>
      </trkpt>
      <trkpt lat="43.42852" lon="6.51669">
        <ele>53</ele>
        <time>2020-05-30T11:13:44.000Z</time>
      </trkpt>
      <trkpt lat="43.42853" lon="6.51681">
        <ele>52.799999237061</ele>
        <time>2020-05-30T11:13:46.000Z</time>
      </trkpt>
      <trkpt lat="43.42862" lon="6.51698">
        <ele>52.799999237061</ele>
        <time>2020-05-30T11:13:49.000Z</time>
      </trkpt>
      <trkpt lat="43.42877" lon="6.51733">
        <ele>52.200000762939</ele>
        <time>2020-05-30T11:13:56.000Z</time>
      </trkpt>
      <trkpt lat="43.4288" lon="6.51748">
        <ele>52</ele>
        <time>2020-05-30T11:13:59.000Z</time>
      </trkpt>
      <trkpt lat="43.42883" lon="6.51778">
        <ele>51.599998474121</ele>
        <time>2020-05-30T11:14:05.000Z</time>
      </trkpt>
      <trkpt lat="43.42887" lon="6.51813">
        <ele>51.599998474121</ele>
        <time>2020-05-30T11:14:12.000Z</time>
      </trkpt>
      <trkpt lat="43.42887" lon="6.51833">
        <ele>52.400001525879</ele>
        <time>2020-05-30T11:14:18.000Z</time>
      </trkpt>
      <trkpt lat="43.4289" lon="6.51858">
        <ele>52.400001525879</ele>
        <time>2020-05-30T11:14:24.000Z</time>
      </trkpt>
      <trkpt lat="43.42896" lon="6.51895">
        <ele>51.799999237061</ele>
        <time>2020-05-30T11:14:31.000Z</time>
      </trkpt>
      <trkpt lat="43.42897" lon="6.51905">
        <ele>51</ele>
        <time>2020-05-30T11:14:35.000Z</time>
      </trkpt>
      <trkpt lat="43.42897" lon="6.51905">
        <ele>50.799999237061</ele>
        <time>2020-05-30T11:14:36.000Z</time>
      </trkpt>
      <trkpt lat="43.42898" lon="6.51907">
        <ele>50.400001525879</ele>
        <time>2020-05-30T11:14:41.000Z</time>
      </trkpt>
      <trkpt lat="43.429" lon="6.51924">
        <ele>50.400001525879</ele>
        <time>2020-05-30T11:14:45.000Z</time>
      </trkpt>
      <trkpt lat="43.42906" lon="6.51945">
        <ele>49.599998474121</ele>
        <time>2020-05-30T11:14:49.000Z</time>
      </trkpt>
      <trkpt lat="43.42909" lon="6.51958">
        <ele>49.400001525879</ele>
        <time>2020-05-30T11:14:51.000Z</time>
      </trkpt>
      <trkpt lat="43.4292" lon="6.51986">
        <ele>48.400001525879</ele>
        <time>2020-05-30T11:14:55.000Z</time>
      </trkpt>
      <trkpt lat="43.42922" lon="6.51994">
        <ele>48.200000762939</ele>
        <time>2020-05-30T11:14:56.000Z</time>
      </trkpt>
      <trkpt lat="43.42927" lon="6.5201">
        <ele>47</ele>
        <time>2020-05-30T11:14:58.000Z</time>
      </trkpt>
      <trkpt lat="43.42933" lon="6.52035">
        <ele>45.599998474121</ele>
        <time>2020-05-30T11:15:01.000Z</time>
      </trkpt>
      <trkpt lat="43.42935" lon="6.52044">
        <ele>45.400001525879</ele>
        <time>2020-05-30T11:15:02.000Z</time>
      </trkpt>
      <trkpt lat="43.42941" lon="6.52076">
        <ele>44.599998474121</ele>
        <time>2020-05-30T11:15:06.000Z</time>
      </trkpt>
      <trkpt lat="43.42946" lon="6.52099">
        <ele>44.400001525879</ele>
        <time>2020-05-30T11:15:09.000Z</time>
      </trkpt>
      <trkpt lat="43.42954" lon="6.52124">
        <ele>44.599998474121</ele>
        <time>2020-05-30T11:15:13.000Z</time>
      </trkpt>
      <trkpt lat="43.42954" lon="6.52131">
        <ele>44.599998474121</ele>
        <time>2020-05-30T11:15:14.000Z</time>
      </trkpt>
      <trkpt lat="43.42959" lon="6.52148">
        <ele>45</ele>
        <time>2020-05-30T11:15:17.000Z</time>
      </trkpt>
      <trkpt lat="43.42961" lon="6.52157">
        <ele>45</ele>
        <time>2020-05-30T11:15:19.000Z</time>
      </trkpt>
      <trkpt lat="43.42962" lon="6.52163">
        <ele>45</ele>
        <time>2020-05-30T11:15:23.000Z</time>
      </trkpt>
      <trkpt lat="43.42962" lon="6.52162">
        <ele>45</ele>
        <time>2020-05-30T11:15:27.000Z</time>
      </trkpt>
      <trkpt lat="43.42964" lon="6.52161">
        <ele>45</ele>
        <time>2020-05-30T11:15:41.000Z</time>
      </trkpt>
      <trkpt lat="43.42967" lon="6.5217">
        <ele>44.799999237061</ele>
        <time>2020-05-30T11:15:47.000Z</time>
      </trkpt>
      <trkpt lat="43.42971" lon="6.5219">
        <ele>44.799999237061</ele>
        <time>2020-05-30T11:15:52.000Z</time>
      </trkpt>
      <trkpt lat="43.42976" lon="6.52208">
        <ele>44.599998474121</ele>
        <time>2020-05-30T11:15:57.000Z</time>
      </trkpt>
      <trkpt lat="43.42978" lon="6.52214">
        <ele>44.599998474121</ele>
        <time>2020-05-30T11:16:00.000Z</time>
      </trkpt>
      <trkpt lat="43.42978" lon="6.52214">
        <ele>44.599998474121</ele>
        <time>2020-05-30T11:16:01.000Z</time>
      </trkpt>
      <trkpt lat="43.42978" lon="6.52216">
        <ele>44.799999237061</ele>
        <time>2020-05-30T11:16:06.000Z</time>
      </trkpt>
      <trkpt lat="43.42979" lon="6.52216">
        <ele>44.400001525879</ele>
        <time>2020-05-30T11:16:23.000Z</time>
      </trkpt>
      <trkpt lat="43.42978" lon="6.52218">
        <ele>44.400001525879</ele>
        <time>2020-05-30T11:16:31.000Z</time>
      </trkpt>
      <trkpt lat="43.42978" lon="6.52226">
        <ele>44.599998474121</ele>
        <time>2020-05-30T11:16:34.000Z</time>
      </trkpt>
      <trkpt lat="43.42979" lon="6.5223">
        <ele>44.599998474121</ele>
        <time>2020-05-30T11:16:35.000Z</time>
      </trkpt>
      <trkpt lat="43.42977" lon="6.52246">
        <ele>44.799999237061</ele>
        <time>2020-05-30T11:16:40.000Z</time>
      </trkpt>
      <trkpt lat="43.4297" lon="6.52264">
        <ele>44.599998474121</ele>
        <time>2020-05-30T11:16:46.000Z</time>
      </trkpt>
      <trkpt lat="43.4295" lon="6.52295">
        <ele>45</ele>
        <time>2020-05-30T11:16:54.000Z</time>
      </trkpt>
      <trkpt lat="43.42933" lon="6.52317">
        <ele>44.799999237061</ele>
        <time>2020-05-30T11:17:00.000Z</time>
      </trkpt>
      <trkpt lat="43.42926" lon="6.52319">
        <ele>44.599998474121</ele>
        <time>2020-05-30T11:17:02.000Z</time>
      </trkpt>
      <trkpt lat="43.42917" lon="6.52319">
        <ele>44.599998474121</ele>
        <time>2020-05-30T11:17:04.000Z</time>
      </trkpt>
      <trkpt lat="43.42898" lon="6.52313">
        <ele>44.400001525879</ele>
        <time>2020-05-30T11:17:09.000Z</time>
      </trkpt>
      <trkpt lat="43.42891" lon="6.52319">
        <ele>44.400001525879</ele>
        <time>2020-05-30T11:17:13.000Z</time>
      </trkpt>
      <trkpt lat="43.4289" lon="6.52321">
        <ele>44.200000762939</ele>
        <time>2020-05-30T11:17:14.000Z</time>
      </trkpt>
      <trkpt lat="43.42883" lon="6.52333">
        <ele>44</ele>
        <time>2020-05-30T11:17:18.000Z</time>
      </trkpt>
      <trkpt lat="43.42865" lon="6.52341">
        <ele>43.799999237061</ele>
        <time>2020-05-30T11:17:24.000Z</time>
      </trkpt>
      <trkpt lat="43.4286" lon="6.52345">
        <ele>43.400001525879</ele>
        <time>2020-05-30T11:17:26.000Z</time>
      </trkpt>
      <trkpt lat="43.42854" lon="6.52355">
        <ele>43.400001525879</ele>
        <time>2020-05-30T11:17:29.000Z</time>
      </trkpt>
      <trkpt lat="43.42854" lon="6.52359">
        <ele>43.400001525879</ele>
        <time>2020-05-30T11:17:30.000Z</time>
      </trkpt>
      <trkpt lat="43.42857" lon="6.52366">
        <ele>43.599998474121</ele>
        <time>2020-05-30T11:17:32.000Z</time>
      </trkpt>
      <trkpt lat="43.42871" lon="6.52379">
        <ele>43.799999237061</ele>
        <time>2020-05-30T11:17:37.000Z</time>
      </trkpt>
      <trkpt lat="43.42874" lon="6.5238">
        <ele>43.799999237061</ele>
        <time>2020-05-30T11:17:38.000Z</time>
      </trkpt>
      <trkpt lat="43.42891" lon="6.52388">
        <ele>43.400001525879</ele>
        <time>2020-05-30T11:17:43.000Z</time>
      </trkpt>
      <trkpt lat="43.42909" lon="6.524">
        <ele>43.799999237061</ele>
        <time>2020-05-30T11:17:49.000Z</time>
      </trkpt>
      <trkpt lat="43.42928" lon="6.52408">
        <ele>44.400001525879</ele>
        <time>2020-05-30T11:17:56.000Z</time>
      </trkpt>
      <trkpt lat="43.42931" lon="6.52407">
        <ele>44.599998474121</ele>
        <time>2020-05-30T11:17:57.000Z</time>
      </trkpt>
      <trkpt lat="43.42946" lon="6.52398">
        <ele>45.200000762939</ele>
        <time>2020-05-30T11:18:02.000Z</time>
      </trkpt>
      <trkpt lat="43.42962" lon="6.52385">
        <ele>45</ele>
        <time>2020-05-30T11:18:08.000Z</time>
      </trkpt>
      <trkpt lat="43.42975" lon="6.52376">
        <ele>45.400001525879</ele>
        <time>2020-05-30T11:18:13.000Z</time>
      </trkpt>
      <trkpt lat="43.42977" lon="6.52376">
        <ele>45.599998474121</ele>
        <time>2020-05-30T11:18:14.000Z</time>
      </trkpt>
      <trkpt lat="43.42985" lon="6.5238">
        <ele>46.200000762939</ele>
        <time>2020-05-30T11:18:18.000Z</time>
      </trkpt>
      <trkpt lat="43.42988" lon="6.52386">
        <ele>46.799999237061</ele>
        <time>2020-05-30T11:18:21.000Z</time>
      </trkpt>
      <trkpt lat="43.42991" lon="6.52392">
        <ele>47</ele>
        <time>2020-05-30T11:18:23.000Z</time>
      </trkpt>
      <trkpt lat="43.42993" lon="6.52401">
        <ele>46.599998474121</ele>
        <time>2020-05-30T11:18:27.000Z</time>
      </trkpt>
      <trkpt lat="43.42993" lon="6.52402">
        <ele>46.799999237061</ele>
        <time>2020-05-30T11:18:32.000Z</time>
      </trkpt>
      <trkpt lat="43.42994" lon="6.52403">
        <ele>47</ele>
        <time>2020-05-30T11:18:53.000Z</time>
      </trkpt>
      <trkpt lat="43.42994" lon="6.52402">
        <ele>46.799999237061</ele>
        <time>2020-05-30T11:19:13.000Z</time>
      </trkpt>
      <trkpt lat="43.42994" lon="6.52403">
        <ele>46.799999237061</ele>
        <time>2020-05-30T11:19:25.000Z</time>
      </trkpt>
      <trkpt lat="43.42994" lon="6.52403">
        <ele>46.599998474121</ele>
        <time>2020-05-30T11:19:32.000Z</time>
      </trkpt>
      <trkpt lat="43.42994" lon="6.52403">
        <ele>46.599998474121</ele>
        <time>2020-05-30T11:19:41.000Z</time>
      </trkpt>
      <trkpt lat="43.42994" lon="6.52404">
        <ele>46.599998474121</ele>
        <time>2020-05-30T11:19:48.000Z</time>
      </trkpt>
      <trkpt lat="43.42994" lon="6.52405">
        <ele>46.799999237061</ele>
        <time>2020-05-30T11:19:53.000Z</time>
      </trkpt>
      <trkpt lat="43.42994" lon="6.52406">
        <ele>47</ele>
        <time>2020-05-30T11:20:02.000Z</time>
      </trkpt>
      <trkpt lat="43.42995" lon="6.52408">
        <ele>47</ele>
        <time>2020-05-30T11:20:03.000Z</time>
      </trkpt>
      <trkpt lat="43.42996" lon="6.52423">
        <ele>46.799999237061</ele>
        <time>2020-05-30T11:20:08.000Z</time>
      </trkpt>
      <trkpt lat="43.43001" lon="6.52441">
        <ele>47.799999237061</ele>
        <time>2020-05-30T11:20:14.000Z</time>
      </trkpt>
      <trkpt lat="43.43001" lon="6.52445">
        <ele>48</ele>
        <time>2020-05-30T11:20:15.000Z</time>
      </trkpt>
      <trkpt lat="43.43001" lon="6.52458">
        <ele>49.200000762939</ele>
        <time>2020-05-30T11:20:19.000Z</time>
      </trkpt>
      <trkpt lat="43.42997" lon="6.52473">
        <ele>50.200000762939</ele>
        <time>2020-05-30T11:20:24.000Z</time>
      </trkpt>
      <trkpt lat="43.42995" lon="6.52478">
        <ele>50.799999237061</ele>
        <time>2020-05-30T11:20:26.000Z</time>
      </trkpt>
      <trkpt lat="43.42993" lon="6.5248">
        <ele>51.200000762939</ele>
        <time>2020-05-30T11:20:27.000Z</time>
      </trkpt>
      <trkpt lat="43.42988" lon="6.52494">
        <ele>52.400001525879</ele>
        <time>2020-05-30T11:20:32.000Z</time>
      </trkpt>
      <trkpt lat="43.42986" lon="6.52499">
        <ele>52.799999237061</ele>
        <time>2020-05-30T11:20:34.000Z</time>
      </trkpt>
      <trkpt lat="43.42982" lon="6.52509">
        <ele>53.599998474121</ele>
        <time>2020-05-30T11:20:38.000Z</time>
      </trkpt>
      <trkpt lat="43.4298" lon="6.52517">
        <ele>54.599998474121</ele>
        <time>2020-05-30T11:20:41.000Z</time>
      </trkpt>
      <trkpt lat="43.42977" lon="6.52526">
        <ele>55.599998474121</ele>
        <time>2020-05-30T11:20:45.000Z</time>
      </trkpt>
      <trkpt lat="43.42977" lon="6.52528">
        <ele>55.799999237061</ele>
        <time>2020-05-30T11:20:46.000Z</time>
      </trkpt>
      <trkpt lat="43.42976" lon="6.52542">
        <ele>56.400001525879</ele>
        <time>2020-05-30T11:20:51.000Z</time>
      </trkpt>
      <trkpt lat="43.42974" lon="6.52548">
        <ele>56.799999237061</ele>
        <time>2020-05-30T11:20:53.000Z</time>
      </trkpt>
      <trkpt lat="43.42973" lon="6.52557">
        <ele>57.599998474121</ele>
        <time>2020-05-30T11:20:57.000Z</time>
      </trkpt>
      <trkpt lat="43.42973" lon="6.52559">
        <ele>58</ele>
        <time>2020-05-30T11:20:58.000Z</time>
      </trkpt>
      <trkpt lat="43.42974" lon="6.5256">
        <ele>58.200000762939</ele>
        <time>2020-05-30T11:20:59.000Z</time>
      </trkpt>
      <trkpt lat="43.42978" lon="6.52561">
        <ele>58.400001525879</ele>
        <time>2020-05-30T11:21:01.000Z</time>
      </trkpt>
      <trkpt lat="43.42982" lon="6.52555">
        <ele>58.400001525879</ele>
        <time>2020-05-30T11:21:04.000Z</time>
      </trkpt>
      <trkpt lat="43.42984" lon="6.52552">
        <ele>58.400001525879</ele>
        <time>2020-05-30T11:21:05.000Z</time>
      </trkpt>
      <trkpt lat="43.43002" lon="6.5253">
        <ele>58.400001525879</ele>
        <time>2020-05-30T11:21:15.000Z</time>
      </trkpt>
      <trkpt lat="43.43013" lon="6.52513">
        <ele>59</ele>
        <time>2020-05-30T11:21:22.000Z</time>
      </trkpt>
      <trkpt lat="43.43019" lon="6.52504">
        <ele>60</ele>
        <time>2020-05-30T11:21:26.000Z</time>
      </trkpt>
      <trkpt lat="43.43026" lon="6.52489">
        <ele>60.799999237061</ele>
        <time>2020-05-30T11:21:31.000Z</time>
      </trkpt>
      <trkpt lat="43.43029" lon="6.52483">
        <ele>61.200000762939</ele>
        <time>2020-05-30T11:21:33.000Z</time>
      </trkpt>
      <trkpt lat="43.43035" lon="6.52476">
        <ele>62.200000762939</ele>
        <time>2020-05-30T11:21:37.000Z</time>
      </trkpt>
      <trkpt lat="43.43042" lon="6.52467">
        <ele>63</ele>
        <time>2020-05-30T11:21:43.000Z</time>
      </trkpt>
      <trkpt lat="43.43044" lon="6.52465">
        <ele>63.400001525879</ele>
        <time>2020-05-30T11:21:45.000Z</time>
      </trkpt>
      <trkpt lat="43.43044" lon="6.52464">
        <ele>63.599998474121</ele>
        <time>2020-05-30T11:21:49.000Z</time>
      </trkpt>
      <trkpt lat="43.43044" lon="6.52464">
        <ele>63.400001525879</ele>
        <time>2020-05-30T11:22:03.000Z</time>
      </trkpt>
      <trkpt lat="43.43044" lon="6.52463">
        <ele>63.799999237061</ele>
        <time>2020-05-30T11:22:11.000Z</time>
      </trkpt>
      <trkpt lat="43.43045" lon="6.52463">
        <ele>63.400001525879</ele>
        <time>2020-05-30T11:22:23.000Z</time>
      </trkpt>
      <trkpt lat="43.43049" lon="6.52462">
        <ele>63.400001525879</ele>
        <time>2020-05-30T11:22:26.000Z</time>
      </trkpt>
      <trkpt lat="43.43058" lon="6.52467">
        <ele>63.799999237061</ele>
        <time>2020-05-30T11:22:32.000Z</time>
      </trkpt>
      <trkpt lat="43.43063" lon="6.52473">
        <ele>64.400001525879</ele>
        <time>2020-05-30T11:22:37.000Z</time>
      </trkpt>
      <trkpt lat="43.43065" lon="6.52474">
        <ele>64.599998474121</ele>
        <time>2020-05-30T11:22:39.000Z</time>
      </trkpt>
      <trkpt lat="43.43066" lon="6.52475">
        <ele>64.800003051758</ele>
        <time>2020-05-30T11:22:44.000Z</time>
      </trkpt>
      <trkpt lat="43.43069" lon="6.52477">
        <ele>64.599998474121</ele>
        <time>2020-05-30T11:22:57.000Z</time>
      </trkpt>
      <trkpt lat="43.43082" lon="6.52486">
        <ele>64.199996948242</ele>
        <time>2020-05-30T11:23:03.000Z</time>
      </trkpt>
      <trkpt lat="43.431" lon="6.52494">
        <ele>63.400001525879</ele>
        <time>2020-05-30T11:23:08.000Z</time>
      </trkpt>
      <trkpt lat="43.43103" lon="6.52496">
        <ele>63.200000762939</ele>
        <time>2020-05-30T11:23:09.000Z</time>
      </trkpt>
      <trkpt lat="43.43114" lon="6.52507">
        <ele>63.400001525879</ele>
        <time>2020-05-30T11:23:14.000Z</time>
      </trkpt>
      <trkpt lat="43.43122" lon="6.52512">
        <ele>62.599998474121</ele>
        <time>2020-05-30T11:23:19.000Z</time>
      </trkpt>
      <trkpt lat="43.43126" lon="6.52514">
        <ele>62.400001525879</ele>
        <time>2020-05-30T11:23:21.000Z</time>
      </trkpt>
      <trkpt lat="43.43138" lon="6.52518">
        <ele>61.799999237061</ele>
        <time>2020-05-30T11:23:25.000Z</time>
      </trkpt>
      <trkpt lat="43.43151" lon="6.52521">
        <ele>61.200000762939</ele>
        <time>2020-05-30T11:23:28.000Z</time>
      </trkpt>
      <trkpt lat="43.43162" lon="6.52522">
        <ele>61.200000762939</ele>
        <time>2020-05-30T11:23:30.000Z</time>
      </trkpt>
      <trkpt lat="43.43173" lon="6.5252">
        <ele>60.400001525879</ele>
        <time>2020-05-30T11:23:32.000Z</time>
      </trkpt>
      <trkpt lat="43.43178" lon="6.52519">
        <ele>59.799999237061</ele>
        <time>2020-05-30T11:23:33.000Z</time>
      </trkpt>
      <trkpt lat="43.4319" lon="6.52517">
        <ele>59</ele>
        <time>2020-05-30T11:23:35.000Z</time>
      </trkpt>
      <trkpt lat="43.43196" lon="6.52517">
        <ele>58.799999237061</ele>
        <time>2020-05-30T11:23:36.000Z</time>
      </trkpt>
      <trkpt lat="43.43215" lon="6.52519">
        <ele>58</ele>
        <time>2020-05-30T11:23:39.000Z</time>
      </trkpt>
      <trkpt lat="43.43221" lon="6.52517">
        <ele>57.400001525879</ele>
        <time>2020-05-30T11:23:40.000Z</time>
      </trkpt>
      <trkpt lat="43.43234" lon="6.52515">
        <ele>56.400001525879</ele>
        <time>2020-05-30T11:23:42.000Z</time>
      </trkpt>
      <trkpt lat="43.43241" lon="6.52515">
        <ele>55.799999237061</ele>
        <time>2020-05-30T11:23:43.000Z</time>
      </trkpt>
      <trkpt lat="43.43247" lon="6.52515">
        <ele>55.400001525879</ele>
        <time>2020-05-30T11:23:44.000Z</time>
      </trkpt>
      <trkpt lat="43.43253" lon="6.52515">
        <ele>55.200000762939</ele>
        <time>2020-05-30T11:23:45.000Z</time>
      </trkpt>
      <trkpt lat="43.43264" lon="6.52513">
        <ele>55</ele>
        <time>2020-05-30T11:23:47.000Z</time>
      </trkpt>
      <trkpt lat="43.43276" lon="6.52509">
        <ele>54.599998474121</ele>
        <time>2020-05-30T11:23:49.000Z</time>
      </trkpt>
      <trkpt lat="43.43282" lon="6.52508">
        <ele>54.599998474121</ele>
        <time>2020-05-30T11:23:50.000Z</time>
      </trkpt>
      <trkpt lat="43.43294" lon="6.52508">
        <ele>54</ele>
        <time>2020-05-30T11:23:52.000Z</time>
      </trkpt>
      <trkpt lat="43.43299" lon="6.52507">
        <ele>53.400001525879</ele>
        <time>2020-05-30T11:23:53.000Z</time>
      </trkpt>
      <trkpt lat="43.43311" lon="6.52505">
        <ele>52.799999237061</ele>
        <time>2020-05-30T11:23:55.000Z</time>
      </trkpt>
      <trkpt lat="43.43335" lon="6.52501">
        <ele>51.599998474121</ele>
        <time>2020-05-30T11:23:59.000Z</time>
      </trkpt>
      <trkpt lat="43.43346" lon="6.52503">
        <ele>50.599998474121</ele>
        <time>2020-05-30T11:24:01.000Z</time>
      </trkpt>
      <trkpt lat="43.43355" lon="6.5251">
        <ele>50.200000762939</ele>
        <time>2020-05-30T11:24:03.000Z</time>
      </trkpt>
      <trkpt lat="43.43365" lon="6.52533">
        <ele>49</ele>
        <time>2020-05-30T11:24:07.000Z</time>
      </trkpt>
      <trkpt lat="43.43366" lon="6.52538">
        <ele>48.799999237061</ele>
        <time>2020-05-30T11:24:08.000Z</time>
      </trkpt>
      <trkpt lat="43.4337" lon="6.52544">
        <ele>48.400001525879</ele>
        <time>2020-05-30T11:24:10.000Z</time>
      </trkpt>
      <trkpt lat="43.43372" lon="6.52545">
        <ele>48</ele>
        <time>2020-05-30T11:24:11.000Z</time>
      </trkpt>
      <trkpt lat="43.43375" lon="6.52544">
        <ele>47.799999237061</ele>
        <time>2020-05-30T11:24:12.000Z</time>
      </trkpt>
      <trkpt lat="43.43379" lon="6.52539">
        <ele>47.400001525879</ele>
        <time>2020-05-30T11:24:14.000Z</time>
      </trkpt>
      <trkpt lat="43.43382" lon="6.52528">
        <ele>47.599998474121</ele>
        <time>2020-05-30T11:24:17.000Z</time>
      </trkpt>
      <trkpt lat="43.43385" lon="6.52521">
        <ele>48.200000762939</ele>
        <time>2020-05-30T11:24:19.000Z</time>
      </trkpt>
      <trkpt lat="43.43396" lon="6.52512">
        <ele>48.799999237061</ele>
        <time>2020-05-30T11:24:24.000Z</time>
      </trkpt>
      <trkpt lat="43.43412" lon="6.52506">
        <ele>49.400001525879</ele>
        <time>2020-05-30T11:24:29.000Z</time>
      </trkpt>
      <trkpt lat="43.43431" lon="6.52502">
        <ele>47.599998474121</ele>
        <time>2020-05-30T11:24:34.000Z</time>
      </trkpt>
      <trkpt lat="43.43439" lon="6.52501">
        <ele>47</ele>
        <time>2020-05-30T11:24:36.000Z</time>
      </trkpt>
      <trkpt lat="43.43447" lon="6.52502">
        <ele>46.400001525879</ele>
        <time>2020-05-30T11:24:38.000Z</time>
      </trkpt>
      <trkpt lat="43.43464" lon="6.52504">
        <ele>45.200000762939</ele>
        <time>2020-05-30T11:24:42.000Z</time>
      </trkpt>
      <trkpt lat="43.43469" lon="6.52503">
        <ele>45</ele>
        <time>2020-05-30T11:24:43.000Z</time>
      </trkpt>
      <trkpt lat="43.43485" lon="6.525">
        <ele>44</ele>
        <time>2020-05-30T11:24:47.000Z</time>
      </trkpt>
      <trkpt lat="43.43489" lon="6.525">
        <ele>43.799999237061</ele>
        <time>2020-05-30T11:24:48.000Z</time>
      </trkpt>
      <trkpt lat="43.43511" lon="6.525">
        <ele>43.400001525879</ele>
        <time>2020-05-30T11:24:54.000Z</time>
      </trkpt>
      <trkpt lat="43.43537" lon="6.52492">
        <ele>43.400001525879</ele>
        <time>2020-05-30T11:25:01.000Z</time>
      </trkpt>
      <trkpt lat="43.43558" lon="6.52484">
        <ele>43.400001525879</ele>
        <time>2020-05-30T11:25:07.000Z</time>
      </trkpt>
      <trkpt lat="43.43582" lon="6.52479">
        <ele>43.200000762939</ele>
        <time>2020-05-30T11:25:14.000Z</time>
      </trkpt>
      <trkpt lat="43.43609" lon="6.52477">
        <ele>43.200000762939</ele>
        <time>2020-05-30T11:25:21.000Z</time>
      </trkpt>
      <trkpt lat="43.43626" lon="6.52471">
        <ele>43</ele>
        <time>2020-05-30T11:25:25.000Z</time>
      </trkpt>
      <trkpt lat="43.4363" lon="6.5247">
        <ele>43</ele>
        <time>2020-05-30T11:25:26.000Z</time>
      </trkpt>
      <trkpt lat="43.43634" lon="6.52469">
        <ele>43</ele>
        <time>2020-05-30T11:25:27.000Z</time>
      </trkpt>
      <trkpt lat="43.43649" lon="6.52457">
        <ele>42.799999237061</ele>
        <time>2020-05-30T11:25:32.000Z</time>
      </trkpt>
      <trkpt lat="43.43665" lon="6.52443">
        <ele>42.599998474121</ele>
        <time>2020-05-30T11:25:37.000Z</time>
      </trkpt>
      <trkpt lat="43.43679" lon="6.52433">
        <ele>42</ele>
        <time>2020-05-30T11:25:41.000Z</time>
      </trkpt>
      <trkpt lat="43.43687" lon="6.52428">
        <ele>41.799999237061</ele>
        <time>2020-05-30T11:25:43.000Z</time>
      </trkpt>
      <trkpt lat="43.43707" lon="6.52422">
        <ele>41.799999237061</ele>
        <time>2020-05-30T11:25:48.000Z</time>
      </trkpt>
      <trkpt lat="43.43711" lon="6.52422">
        <ele>41.799999237061</ele>
        <time>2020-05-30T11:25:49.000Z</time>
      </trkpt>
      <trkpt lat="43.43734" lon="6.52422">
        <ele>42</ele>
        <time>2020-05-30T11:25:55.000Z</time>
      </trkpt>
      <trkpt lat="43.43753" lon="6.52415">
        <ele>41.799999237061</ele>
        <time>2020-05-30T11:26:00.000Z</time>
      </trkpt>
      <trkpt lat="43.43765" lon="6.52417">
        <ele>41.599998474121</ele>
        <time>2020-05-30T11:26:04.000Z</time>
      </trkpt>
      <trkpt lat="43.43779" lon="6.52412">
        <ele>42.599998474121</ele>
        <time>2020-05-30T11:26:10.000Z</time>
      </trkpt>
      <trkpt lat="43.43787" lon="6.52409">
        <ele>42.400001525879</ele>
        <time>2020-05-30T11:26:15.000Z</time>
      </trkpt>
      <trkpt lat="43.43788" lon="6.52409">
        <ele>42.599998474121</ele>
        <time>2020-05-30T11:26:22.000Z</time>
      </trkpt>
      <trkpt lat="43.43789" lon="6.52408">
        <ele>42.599998474121</ele>
        <time>2020-05-30T11:26:38.000Z</time>
      </trkpt>
      <trkpt lat="43.43789" lon="6.52408">
        <ele>42.599998474121</ele>
        <time>2020-05-30T11:26:46.000Z</time>
      </trkpt>
      <trkpt lat="43.43789" lon="6.5241">
        <ele>42.400001525879</ele>
        <time>2020-05-30T11:26:48.000Z</time>
      </trkpt>
      <trkpt lat="43.43787" lon="6.52411">
        <ele>42.200000762939</ele>
        <time>2020-05-30T11:26:51.000Z</time>
      </trkpt>
      <trkpt lat="43.43784" lon="6.52412">
        <ele>42.599998474121</ele>
        <time>2020-05-30T11:26:57.000Z</time>
      </trkpt>
      <trkpt lat="43.43777" lon="6.52412">
        <ele>42.400001525879</ele>
        <time>2020-05-30T11:27:02.000Z</time>
      </trkpt>
      <trkpt lat="43.43764" lon="6.52413">
        <ele>42.400001525879</ele>
        <time>2020-05-30T11:27:07.000Z</time>
      </trkpt>
      <trkpt lat="43.43751" lon="6.52415">
        <ele>42.400001525879</ele>
        <time>2020-05-30T11:27:11.000Z</time>
      </trkpt>
      <trkpt lat="43.43738" lon="6.52418">
        <ele>41.799999237061</ele>
        <time>2020-05-30T11:27:15.000Z</time>
      </trkpt>
      <trkpt lat="43.43735" lon="6.52418">
        <ele>42</ele>
        <time>2020-05-30T11:27:16.000Z</time>
      </trkpt>
      <trkpt lat="43.4372" lon="6.52417">
        <ele>42</ele>
        <time>2020-05-30T11:27:20.000Z</time>
      </trkpt>
      <trkpt lat="43.43702" lon="6.5242">
        <ele>42</ele>
        <time>2020-05-30T11:27:25.000Z</time>
      </trkpt>
      <trkpt lat="43.43686" lon="6.52429">
        <ele>42</ele>
        <time>2020-05-30T11:27:30.000Z</time>
      </trkpt>
      <trkpt lat="43.43675" lon="6.52437">
        <ele>42.200000762939</ele>
        <time>2020-05-30T11:27:34.000Z</time>
      </trkpt>
      <trkpt lat="43.43659" lon="6.52453">
        <ele>42.400001525879</ele>
        <time>2020-05-30T11:27:40.000Z</time>
      </trkpt>
      <trkpt lat="43.43644" lon="6.52467">
        <ele>42.599998474121</ele>
        <time>2020-05-30T11:27:46.000Z</time>
      </trkpt>
      <trkpt lat="43.43629" lon="6.52471">
        <ele>43</ele>
        <time>2020-05-30T11:27:51.000Z</time>
      </trkpt>
      <trkpt lat="43.43616" lon="6.52477">
        <ele>43.200000762939</ele>
        <time>2020-05-30T11:27:56.000Z</time>
      </trkpt>
      <trkpt lat="43.43602" lon="6.52479">
        <ele>43.200000762939</ele>
        <time>2020-05-30T11:28:02.000Z</time>
      </trkpt>
      <trkpt lat="43.43587" lon="6.52479">
        <ele>43.200000762939</ele>
        <time>2020-05-30T11:28:08.000Z</time>
      </trkpt>
      <trkpt lat="43.43576" lon="6.52482">
        <ele>43.400001525879</ele>
        <time>2020-05-30T11:28:13.000Z</time>
      </trkpt>
      <trkpt lat="43.43561" lon="6.52487">
        <ele>43.400001525879</ele>
        <time>2020-05-30T11:28:18.000Z</time>
      </trkpt>
      <trkpt lat="43.43543" lon="6.52494">
        <ele>43.599998474121</ele>
        <time>2020-05-30T11:28:24.000Z</time>
      </trkpt>
      <trkpt lat="43.43519" lon="6.52499">
        <ele>43.799999237061</ele>
        <time>2020-05-30T11:28:31.000Z</time>
      </trkpt>
      <trkpt lat="43.43496" lon="6.52499">
        <ele>44</ele>
        <time>2020-05-30T11:28:38.000Z</time>
      </trkpt>
      <trkpt lat="43.43485" lon="6.52501">
        <ele>44</ele>
        <time>2020-05-30T11:28:42.000Z</time>
      </trkpt>
      <trkpt lat="43.43483" lon="6.52501">
        <ele>44</ele>
        <time>2020-05-30T11:28:43.000Z</time>
      </trkpt>
      <trkpt lat="43.43481" lon="6.52501">
        <ele>44.400001525879</ele>
        <time>2020-05-30T11:28:47.000Z</time>
      </trkpt>
      <trkpt lat="43.43479" lon="6.52499">
        <ele>44.599998474121</ele>
        <time>2020-05-30T11:28:55.000Z</time>
      </trkpt>
      <trkpt lat="43.43477" lon="6.52499">
        <ele>44.400001525879</ele>
        <time>2020-05-30T11:29:14.000Z</time>
      </trkpt>
      <trkpt lat="43.43475" lon="6.52499">
        <ele>44.400001525879</ele>
        <time>2020-05-30T11:29:43.000Z</time>
      </trkpt>
      <trkpt lat="43.43475" lon="6.52497">
        <ele>44.400001525879</ele>
        <time>2020-05-30T11:30:11.000Z</time>
      </trkpt>
      <trkpt lat="43.43474" lon="6.52498">
        <ele>44</ele>
        <time>2020-05-30T11:30:26.000Z</time>
      </trkpt>
      <trkpt lat="43.43474" lon="6.52498">
        <ele>44.799999237061</ele>
        <time>2020-05-30T11:30:37.000Z</time>
      </trkpt>
      <trkpt lat="43.43474" lon="6.52498">
        <ele>44.799999237061</ele>
        <time>2020-05-30T11:30:49.000Z</time>
      </trkpt>
      <trkpt lat="43.43474" lon="6.52498">
        <ele>44.799999237061</ele>
        <time>2020-05-30T11:31:01.000Z</time>
      </trkpt>
      <trkpt lat="43.43473" lon="6.52496">
        <ele>44.799999237061</ele>
        <time>2020-05-30T11:31:09.000Z</time>
      </trkpt>
      <trkpt lat="43.43474" lon="6.52497">
        <ele>44.799999237061</ele>
        <time>2020-05-30T11:31:16.000Z</time>
      </trkpt>
      <trkpt lat="43.43478" lon="6.52497">
        <ele>44.599998474121</ele>
        <time>2020-05-30T11:31:22.000Z</time>
      </trkpt>
      <trkpt lat="43.43489" lon="6.52495">
        <ele>44.400001525879</ele>
        <time>2020-05-30T11:31:27.000Z</time>
      </trkpt>
      <trkpt lat="43.43499" lon="6.52496">
        <ele>44.200000762939</ele>
        <time>2020-05-30T11:31:31.000Z</time>
      </trkpt>
      <trkpt lat="43.43511" lon="6.52495">
        <ele>44.200000762939</ele>
        <time>2020-05-30T11:31:36.000Z</time>
      </trkpt>
      <trkpt lat="43.43512" lon="6.52494">
        <ele>44.200000762939</ele>
        <time>2020-05-30T11:31:37.000Z</time>
      </trkpt>
      <trkpt lat="43.43513" lon="6.52486">
        <ele>44</ele>
        <time>2020-05-30T11:31:40.000Z</time>
      </trkpt>
      <trkpt lat="43.43508" lon="6.52476">
        <ele>43.599998474121</ele>
        <time>2020-05-30T11:31:44.000Z</time>
      </trkpt>
      <trkpt lat="43.43506" lon="6.52474">
        <ele>43.400001525879</ele>
        <time>2020-05-30T11:31:45.000Z</time>
      </trkpt>
      <trkpt lat="43.43502" lon="6.52473">
        <ele>43.400001525879</ele>
        <time>2020-05-30T11:31:47.000Z</time>
      </trkpt>
      <trkpt lat="43.43498" lon="6.52474">
        <ele>43.400001525879</ele>
        <time>2020-05-30T11:31:49.000Z</time>
      </trkpt>
      <trkpt lat="43.43494" lon="6.52474">
        <ele>43.400001525879</ele>
        <time>2020-05-30T11:31:51.000Z</time>
      </trkpt>
      <trkpt lat="43.4349" lon="6.52471">
        <ele>43.400001525879</ele>
        <time>2020-05-30T11:31:54.000Z</time>
      </trkpt>
      <trkpt lat="43.43487" lon="6.52461">
        <ele>43</ele>
        <time>2020-05-30T11:31:59.000Z</time>
      </trkpt>
      <trkpt lat="43.43489" lon="6.52457">
        <ele>42.599998474121</ele>
        <time>2020-05-30T11:32:01.000Z</time>
      </trkpt>
      <trkpt lat="43.43491" lon="6.52454">
        <ele>42</ele>
        <time>2020-05-30T11:32:02.000Z</time>
      </trkpt>
      <trkpt lat="43.43492" lon="6.5245">
        <ele>41</ele>
        <time>2020-05-30T11:32:04.000Z</time>
      </trkpt>
      <trkpt lat="43.43491" lon="6.52447">
        <ele>40.400001525879</ele>
        <time>2020-05-30T11:32:05.000Z</time>
      </trkpt>
      <trkpt lat="43.43489" lon="6.52442">
        <ele>39.200000762939</ele>
        <time>2020-05-30T11:32:07.000Z</time>
      </trkpt>
      <trkpt lat="43.43489" lon="6.5244">
        <ele>38.799999237061</ele>
        <time>2020-05-30T11:32:08.000Z</time>
      </trkpt>
      <trkpt lat="43.4349" lon="6.52436">
        <ele>38</ele>
        <time>2020-05-30T11:32:10.000Z</time>
      </trkpt>
      <trkpt lat="43.43491" lon="6.52435">
        <ele>37.799999237061</ele>
        <time>2020-05-30T11:32:13.000Z</time>
      </trkpt>
      <trkpt lat="43.43492" lon="6.52434">
        <ele>37.599998474121</ele>
        <time>2020-05-30T11:32:23.000Z</time>
      </trkpt>
      <trkpt lat="43.43493" lon="6.52435">
        <ele>37.400001525879</ele>
        <time>2020-05-30T11:32:30.000Z</time>
      </trkpt>
      <trkpt lat="43.43494" lon="6.52434">
        <ele>37.400001525879</ele>
        <time>2020-05-30T11:32:36.000Z</time>
      </trkpt>
      <trkpt lat="43.43494" lon="6.52435">
        <ele>37.400001525879</ele>
        <time>2020-05-30T11:32:51.000Z</time>
      </trkpt>
      <trkpt lat="43.43492" lon="6.52435">
        <ele>37.400001525879</ele>
        <time>2020-05-30T11:32:58.000Z</time>
      </trkpt>
      <trkpt lat="43.43492" lon="6.52435">
        <ele>37</ele>
        <time>2020-05-30T11:33:03.000Z</time>
      </trkpt>
      <trkpt lat="43.43492" lon="6.52432">
        <ele>37</ele>
        <time>2020-05-30T11:33:07.000Z</time>
      </trkpt>
      <trkpt lat="43.43493" lon="6.52431">
        <ele>37</ele>
        <time>2020-05-30T11:33:08.000Z</time>
      </trkpt>
      <trkpt lat="43.43496" lon="6.52433">
        <ele>37.200000762939</ele>
        <time>2020-05-30T11:33:12.000Z</time>
      </trkpt>
      <trkpt lat="43.43499" lon="6.52436">
        <ele>37.200000762939</ele>
        <time>2020-05-30T11:33:17.000Z</time>
      </trkpt>
      <trkpt lat="43.43502" lon="6.52432">
        <ele>37.599998474121</ele>
        <time>2020-05-30T11:33:24.000Z</time>
      </trkpt>
      <trkpt lat="43.43503" lon="6.5243">
        <ele>38</ele>
        <time>2020-05-30T11:33:27.000Z</time>
      </trkpt>
      <trkpt lat="43.43506" lon="6.52426">
        <ele>38.200000762939</ele>
        <time>2020-05-30T11:33:31.000Z</time>
      </trkpt>
      <trkpt lat="43.4351" lon="6.52419">
        <ele>37.799999237061</ele>
        <time>2020-05-30T11:33:37.000Z</time>
      </trkpt>
      <trkpt lat="43.43515" lon="6.52417">
        <ele>38.200000762939</ele>
        <time>2020-05-30T11:33:45.000Z</time>
      </trkpt>
      <trkpt lat="43.43516" lon="6.52416">
        <ele>38</ele>
        <time>2020-05-30T11:33:53.000Z</time>
      </trkpt>
      <trkpt lat="43.43515" lon="6.52416">
        <ele>38</ele>
        <time>2020-05-30T11:34:01.000Z</time>
      </trkpt>
      <trkpt lat="43.43515" lon="6.52421">
        <ele>38</ele>
        <time>2020-05-30T11:34:08.000Z</time>
      </trkpt>
      <trkpt lat="43.43516" lon="6.52422">
        <ele>38.200000762939</ele>
        <time>2020-05-30T11:34:14.000Z</time>
      </trkpt>
      <trkpt lat="43.43516" lon="6.5242">
        <ele>38.200000762939</ele>
        <time>2020-05-30T11:34:22.000Z</time>
      </trkpt>
      <trkpt lat="43.43517" lon="6.52418">
        <ele>38</ele>
        <time>2020-05-30T11:34:24.000Z</time>
      </trkpt>
      <trkpt lat="43.43519" lon="6.52415">
        <ele>37.799999237061</ele>
        <time>2020-05-30T11:34:27.000Z</time>
      </trkpt>
      <trkpt lat="43.43523" lon="6.52415">
        <ele>37.400001525879</ele>
        <time>2020-05-30T11:34:32.000Z</time>
      </trkpt>
      <trkpt lat="43.43524" lon="6.52415">
        <ele>37.400001525879</ele>
        <time>2020-05-30T11:34:33.000Z</time>
      </trkpt>
      <trkpt lat="43.43525" lon="6.52415">
        <ele>37.599998474121</ele>
        <time>2020-05-30T11:34:39.000Z</time>
      </trkpt>
      <trkpt lat="43.43525" lon="6.52414">
        <ele>37.200000762939</ele>
        <time>2020-05-30T11:34:47.000Z</time>
      </trkpt>
      <trkpt lat="43.43524" lon="6.52416">
        <ele>37.599998474121</ele>
        <time>2020-05-30T11:34:57.000Z</time>
      </trkpt>
      <trkpt lat="43.43524" lon="6.52419">
        <ele>37.400001525879</ele>
        <time>2020-05-30T11:35:03.000Z</time>
      </trkpt>
      <trkpt lat="43.43525" lon="6.52419">
        <ele>37.400001525879</ele>
        <time>2020-05-30T11:35:11.000Z</time>
      </trkpt>
      <trkpt lat="43.43524" lon="6.52419">
        <ele>37.200000762939</ele>
        <time>2020-05-30T11:35:18.000Z</time>
      </trkpt>
      <trkpt lat="43.43524" lon="6.52419">
        <ele>37</ele>
        <time>2020-05-30T11:35:19.000Z</time>
      </trkpt>
      <trkpt lat="43.43524" lon="6.52418">
        <ele>36.799999237061</ele>
        <time>2020-05-30T11:35:26.000Z</time>
      </trkpt>
      <trkpt lat="43.43524" lon="6.52418">
        <ele>37.200000762939</ele>
        <time>2020-05-30T11:35:34.000Z</time>
      </trkpt>
      <trkpt lat="43.43524" lon="6.52418">
        <ele>37</ele>
        <time>2020-05-30T11:35:45.000Z</time>
      </trkpt>
      <trkpt lat="43.43524" lon="6.52418">
        <ele>37.400001525879</ele>
        <time>2020-05-30T11:35:57.000Z</time>
      </trkpt>
      <trkpt lat="43.43523" lon="6.52418">
        <ele>37.400001525879</ele>
        <time>2020-05-30T11:36:09.000Z</time>
      </trkpt>
      <trkpt lat="43.43522" lon="6.52417">
        <ele>37.400001525879</ele>
        <time>2020-05-30T11:36:19.000Z</time>
      </trkpt>
      <trkpt lat="43.43521" lon="6.52415">
        <ele>37.200000762939</ele>
        <time>2020-05-30T11:36:37.000Z</time>
      </trkpt>
      <trkpt lat="43.4352" lon="6.52414">
        <ele>37</ele>
        <time>2020-05-30T11:36:57.000Z</time>
      </trkpt>
      <trkpt lat="43.43521" lon="6.52414">
        <ele>37</ele>
        <time>2020-05-30T11:37:05.000Z</time>
      </trkpt>
      <trkpt lat="43.4352" lon="6.52414">
        <ele>36.799999237061</ele>
        <time>2020-05-30T11:37:14.000Z</time>
      </trkpt>
      <trkpt lat="43.4352" lon="6.52415">
        <ele>36.400001525879</ele>
        <time>2020-05-30T11:37:32.000Z</time>
      </trkpt>
      <trkpt lat="43.43519" lon="6.52414">
        <ele>36.599998474121</ele>
        <time>2020-05-30T11:37:48.000Z</time>
      </trkpt>
      <trkpt lat="43.43519" lon="6.52412">
        <ele>36.200000762939</ele>
        <time>2020-05-30T11:38:05.000Z</time>
      </trkpt>
      <trkpt lat="43.4352" lon="6.52412">
        <ele>37</ele>
        <time>2020-05-30T11:38:17.000Z</time>
      </trkpt>
      <trkpt lat="43.4352" lon="6.52412">
        <ele>37</ele>
        <time>2020-05-30T11:38:25.000Z</time>
      </trkpt>
      <trkpt lat="43.4352" lon="6.52413">
        <ele>37</ele>
        <time>2020-05-30T11:38:36.000Z</time>
      </trkpt>
      <trkpt lat="43.4352" lon="6.52411">
        <ele>37.200000762939</ele>
        <time>2020-05-30T11:38:48.000Z</time>
      </trkpt>
      <trkpt lat="43.4352" lon="6.52412">
        <ele>37</ele>
        <time>2020-05-30T11:39:00.000Z</time>
      </trkpt>
      <trkpt lat="43.4352" lon="6.52411">
        <ele>36.400001525879</ele>
        <time>2020-05-30T11:39:16.000Z</time>
      </trkpt>
      <trkpt lat="43.43521" lon="6.5241">
        <ele>37</ele>
        <time>2020-05-30T11:39:33.000Z</time>
      </trkpt>
      <trkpt lat="43.43521" lon="6.52412">
        <ele>37</ele>
        <time>2020-05-30T11:39:53.000Z</time>
      </trkpt>
      <trkpt lat="43.43521" lon="6.52412">
        <ele>37.200000762939</ele>
        <time>2020-05-30T11:40:11.000Z</time>
      </trkpt>
      <trkpt lat="43.4352" lon="6.52413">
        <ele>36.599998474121</ele>
        <time>2020-05-30T11:40:30.000Z</time>
      </trkpt>
      <trkpt lat="43.43521" lon="6.52413">
        <ele>36.799999237061</ele>
        <time>2020-05-30T11:40:50.000Z</time>
      </trkpt>
      <trkpt lat="43.43521" lon="6.52413">
        <ele>36.799999237061</ele>
        <time>2020-05-30T11:41:12.000Z</time>
      </trkpt>
      <trkpt lat="43.43522" lon="6.52414">
        <ele>37</ele>
        <time>2020-05-30T11:41:28.000Z</time>
      </trkpt>
      <trkpt lat="43.43521" lon="6.52414">
        <ele>36.799999237061</ele>
        <time>2020-05-30T11:41:51.000Z</time>
      </trkpt>
      <trkpt lat="43.43521" lon="6.52413">
        <ele>37.200000762939</ele>
        <time>2020-05-30T11:42:13.000Z</time>
      </trkpt>
      <trkpt lat="43.43521" lon="6.52413">
        <ele>37.400001525879</ele>
        <time>2020-05-30T11:42:25.000Z</time>
      </trkpt>
      <trkpt lat="43.43521" lon="6.52413">
        <ele>37.200000762939</ele>
        <time>2020-05-30T11:42:47.000Z</time>
      </trkpt>
      <trkpt lat="43.43521" lon="6.52413">
        <ele>37.400001525879</ele>
        <time>2020-05-30T11:43:05.000Z</time>
      </trkpt>
      <trkpt lat="43.43522" lon="6.52414">
        <ele>37.400001525879</ele>
        <time>2020-05-30T11:43:21.000Z</time>
      </trkpt>
      <trkpt lat="43.43521" lon="6.52413">
        <ele>37.799999237061</ele>
        <time>2020-05-30T11:43:33.000Z</time>
      </trkpt>
      <trkpt lat="43.4352" lon="6.52411">
        <ele>38</ele>
        <time>2020-05-30T11:43:45.000Z</time>
      </trkpt>
      <trkpt lat="43.4352" lon="6.52412">
        <ele>38</ele>
        <time>2020-05-30T11:43:47.000Z</time>
      </trkpt>
      <trkpt lat="43.43521" lon="6.52414">
        <ele>38.200000762939</ele>
        <time>2020-05-30T11:44:03.000Z</time>
      </trkpt>
      <trkpt lat="43.43518" lon="6.5241">
        <ele>38.200000762939</ele>
        <time>2020-05-30T11:44:18.000Z</time>
      </trkpt>
      <trkpt lat="43.43516" lon="6.52407">
        <ele>38.200000762939</ele>
        <time>2020-05-30T11:44:36.000Z</time>
      </trkpt>
      <trkpt lat="43.43515" lon="6.52405">
        <ele>38.200000762939</ele>
        <time>2020-05-30T11:44:55.000Z</time>
      </trkpt>
      <trkpt lat="43.43517" lon="6.52406">
        <ele>38.200000762939</ele>
        <time>2020-05-30T11:45:08.000Z</time>
      </trkpt>
      <trkpt lat="43.43518" lon="6.52404">
        <ele>38.400001525879</ele>
        <time>2020-05-30T11:45:22.000Z</time>
      </trkpt>
      <trkpt lat="43.43518" lon="6.52406">
        <ele>38.400001525879</ele>
        <time>2020-05-30T11:45:36.000Z</time>
      </trkpt>
      <trkpt lat="43.43519" lon="6.52406">
        <ele>38.599998474121</ele>
        <time>2020-05-30T11:45:51.000Z</time>
      </trkpt>
      <trkpt lat="43.43519" lon="6.52408">
        <ele>38.599998474121</ele>
        <time>2020-05-30T11:46:08.000Z</time>
      </trkpt>
      <trkpt lat="43.43518" lon="6.52404">
        <ele>38.400001525879</ele>
        <time>2020-05-30T11:46:25.000Z</time>
      </trkpt>
      <trkpt lat="43.43519" lon="6.52405">
        <ele>38.599998474121</ele>
        <time>2020-05-30T11:46:42.000Z</time>
      </trkpt>
      <trkpt lat="43.43519" lon="6.52404">
        <ele>38.599998474121</ele>
        <time>2020-05-30T11:46:57.000Z</time>
      </trkpt>
      <trkpt lat="43.43519" lon="6.52405">
        <ele>38.799999237061</ele>
        <time>2020-05-30T11:47:10.000Z</time>
      </trkpt>
      <trkpt lat="43.4352" lon="6.52407">
        <ele>38.599998474121</ele>
        <time>2020-05-30T11:47:22.000Z</time>
      </trkpt>
      <trkpt lat="43.4352" lon="6.5241">
        <ele>38.599998474121</ele>
        <time>2020-05-30T11:47:40.000Z</time>
      </trkpt>
      <trkpt lat="43.4352" lon="6.52411">
        <ele>38.599998474121</ele>
        <time>2020-05-30T11:47:58.000Z</time>
      </trkpt>
      <trkpt lat="43.43521" lon="6.52412">
        <ele>38.400001525879</ele>
        <time>2020-05-30T11:48:12.000Z</time>
      </trkpt>
      <trkpt lat="43.43521" lon="6.52411">
        <ele>38.400001525879</ele>
        <time>2020-05-30T11:48:32.000Z</time>
      </trkpt>
      <trkpt lat="43.43522" lon="6.52412">
        <ele>38.599998474121</ele>
        <time>2020-05-30T11:48:52.000Z</time>
      </trkpt>
      <trkpt lat="43.43522" lon="6.52412">
        <ele>39</ele>
        <time>2020-05-30T11:49:06.000Z</time>
      </trkpt>
      <trkpt lat="43.43522" lon="6.52412">
        <ele>39</ele>
        <time>2020-05-30T11:49:10.000Z</time>
      </trkpt>
      <trkpt lat="43.43522" lon="6.52412">
        <ele>38.799999237061</ele>
        <time>2020-05-30T11:49:33.000Z</time>
      </trkpt>
      <trkpt lat="43.43523" lon="6.52413">
        <ele>38.799999237061</ele>
        <time>2020-05-30T11:49:54.000Z</time>
      </trkpt>
      <trkpt lat="43.43523" lon="6.52412">
        <ele>38.799999237061</ele>
        <time>2020-05-30T11:50:16.000Z</time>
      </trkpt>
      <trkpt lat="43.43521" lon="6.5241">
        <ele>38.799999237061</ele>
        <time>2020-05-30T11:50:39.000Z</time>
      </trkpt>
      <trkpt lat="43.43521" lon="6.5241">
        <ele>39</ele>
        <time>2020-05-30T11:51:02.000Z</time>
      </trkpt>
      <trkpt lat="43.43521" lon="6.5241">
        <ele>39.400001525879</ele>
        <time>2020-05-30T11:51:20.000Z</time>
      </trkpt>
      <trkpt lat="43.43521" lon="6.5241">
        <ele>39.400001525879</ele>
        <time>2020-05-30T11:51:37.000Z</time>
      </trkpt>
      <trkpt lat="43.43521" lon="6.52411">
        <ele>39.200000762939</ele>
        <time>2020-05-30T11:51:49.000Z</time>
      </trkpt>
      <trkpt lat="43.43522" lon="6.52412">
        <ele>39.400001525879</ele>
        <time>2020-05-30T11:52:02.000Z</time>
      </trkpt>
      <trkpt lat="43.43523" lon="6.52413">
        <ele>39.200000762939</ele>
        <time>2020-05-30T11:52:12.000Z</time>
      </trkpt>
      <trkpt lat="43.43522" lon="6.52413">
        <ele>38.799999237061</ele>
        <time>2020-05-30T11:52:29.000Z</time>
      </trkpt>
      <trkpt lat="43.43521" lon="6.52412">
        <ele>38.799999237061</ele>
        <time>2020-05-30T11:52:42.000Z</time>
      </trkpt>
      <trkpt lat="43.43521" lon="6.5241">
        <ele>38.799999237061</ele>
        <time>2020-05-30T11:52:56.000Z</time>
      </trkpt>
      <trkpt lat="43.4352" lon="6.52408">
        <ele>38.599998474121</ele>
        <time>2020-05-30T11:53:08.000Z</time>
      </trkpt>
      <trkpt lat="43.43522" lon="6.52408">
        <ele>38.599998474121</ele>
        <time>2020-05-30T11:53:21.000Z</time>
      </trkpt>
      <trkpt lat="43.43522" lon="6.52407">
        <ele>38.799999237061</ele>
        <time>2020-05-30T11:53:28.000Z</time>
      </trkpt>
      <trkpt lat="43.43522" lon="6.52408">
        <ele>38.599998474121</ele>
        <time>2020-05-30T11:53:41.000Z</time>
      </trkpt>
      <trkpt lat="43.43521" lon="6.52408">
        <ele>38.599998474121</ele>
        <time>2020-05-30T11:53:54.000Z</time>
      </trkpt>
      <trkpt lat="43.43523" lon="6.52409">
        <ele>38.799999237061</ele>
        <time>2020-05-30T11:54:05.000Z</time>
      </trkpt>
      <trkpt lat="43.43524" lon="6.5241">
        <ele>38.799999237061</ele>
        <time>2020-05-30T11:54:15.000Z</time>
      </trkpt>
      <trkpt lat="43.43524" lon="6.52408">
        <ele>39</ele>
        <time>2020-05-30T11:54:34.000Z</time>
      </trkpt>
      <trkpt lat="43.43525" lon="6.52409">
        <ele>39</ele>
        <time>2020-05-30T11:54:54.000Z</time>
      </trkpt>
      <trkpt lat="43.43525" lon="6.5241">
        <ele>38.799999237061</ele>
        <time>2020-05-30T11:55:15.000Z</time>
      </trkpt>
      <trkpt lat="43.43525" lon="6.52411">
        <ele>38.599998474121</ele>
        <time>2020-05-30T11:55:33.000Z</time>
      </trkpt>
      <trkpt lat="43.43526" lon="6.52411">
        <ele>39</ele>
        <time>2020-05-30T11:55:51.000Z</time>
      </trkpt>
      <trkpt lat="43.43525" lon="6.52413">
        <ele>38.799999237061</ele>
        <time>2020-05-30T11:56:13.000Z</time>
      </trkpt>
      <trkpt lat="43.43525" lon="6.52411">
        <ele>39</ele>
        <time>2020-05-30T11:56:24.000Z</time>
      </trkpt>
      <trkpt lat="43.43525" lon="6.52411">
        <ele>38.799999237061</ele>
        <time>2020-05-30T11:56:33.000Z</time>
      </trkpt>
      <trkpt lat="43.43526" lon="6.52413">
        <ele>38.799999237061</ele>
        <time>2020-05-30T11:56:43.000Z</time>
      </trkpt>
      <trkpt lat="43.43528" lon="6.52414">
        <ele>38.799999237061</ele>
        <time>2020-05-30T11:56:59.000Z</time>
      </trkpt>
      <trkpt lat="43.43527" lon="6.52414">
        <ele>38.799999237061</ele>
        <time>2020-05-30T11:57:07.000Z</time>
      </trkpt>
      <trkpt lat="43.43526" lon="6.52413">
        <ele>38.200000762939</ele>
        <time>2020-05-30T11:57:17.000Z</time>
      </trkpt>
      <trkpt lat="43.43525" lon="6.52411">
        <ele>38.400001525879</ele>
        <time>2020-05-30T11:57:27.000Z</time>
      </trkpt>
      <trkpt lat="43.43524" lon="6.5241">
        <ele>38.599998474121</ele>
        <time>2020-05-30T11:57:39.000Z</time>
      </trkpt>
      <trkpt lat="43.43521" lon="6.5241">
        <ele>38.799999237061</ele>
        <time>2020-05-30T11:57:45.000Z</time>
      </trkpt>
      <trkpt lat="43.4352" lon="6.52409">
        <ele>39</ele>
        <time>2020-05-30T11:57:46.000Z</time>
      </trkpt>
      <trkpt lat="43.43518" lon="6.52408">
        <ele>39</ele>
        <time>2020-05-30T11:57:52.000Z</time>
      </trkpt>
      <trkpt lat="43.43521" lon="6.5241">
        <ele>38.799999237061</ele>
        <time>2020-05-30T11:58:02.000Z</time>
      </trkpt>
      <trkpt lat="43.43522" lon="6.5241">
        <ele>39</ele>
        <time>2020-05-30T11:58:11.000Z</time>
      </trkpt>
      <trkpt lat="43.43522" lon="6.52411">
        <ele>39</ele>
        <time>2020-05-30T11:58:15.000Z</time>
      </trkpt>
      <trkpt lat="43.43522" lon="6.52412">
        <ele>39</ele>
        <time>2020-05-30T11:58:25.000Z</time>
      </trkpt>
      <trkpt lat="43.43522" lon="6.52412">
        <ele>39</ele>
        <time>2020-05-30T11:58:42.000Z</time>
      </trkpt>
      <trkpt lat="43.43523" lon="6.52413">
        <ele>39</ele>
        <time>2020-05-30T11:58:57.000Z</time>
      </trkpt>
      <trkpt lat="43.43523" lon="6.52412">
        <ele>39</ele>
        <time>2020-05-30T11:59:13.000Z</time>
      </trkpt>
      <trkpt lat="43.43523" lon="6.52413">
        <ele>39.200000762939</ele>
        <time>2020-05-30T11:59:29.000Z</time>
      </trkpt>
      <trkpt lat="43.43523" lon="6.52412">
        <ele>39.400001525879</ele>
        <time>2020-05-30T11:59:50.000Z</time>
      </trkpt>
      <trkpt lat="43.43523" lon="6.5241">
        <ele>39.400001525879</ele>
        <time>2020-05-30T12:00:07.000Z</time>
      </trkpt>
      <trkpt lat="43.43524" lon="6.52407">
        <ele>39.599998474121</ele>
        <time>2020-05-30T12:00:26.000Z</time>
      </trkpt>
      <trkpt lat="43.43524" lon="6.52404">
        <ele>39.599998474121</ele>
        <time>2020-05-30T12:00:44.000Z</time>
      </trkpt>
      <trkpt lat="43.43525" lon="6.52406">
        <ele>39.599998474121</ele>
        <time>2020-05-30T12:01:05.000Z</time>
      </trkpt>
      <trkpt lat="43.43525" lon="6.52408">
        <ele>39.799999237061</ele>
        <time>2020-05-30T12:01:26.000Z</time>
      </trkpt>
      <trkpt lat="43.43525" lon="6.52409">
        <ele>39.599998474121</ele>
        <time>2020-05-30T12:01:47.000Z</time>
      </trkpt>
      <trkpt lat="43.43525" lon="6.5241">
        <ele>39.799999237061</ele>
        <time>2020-05-30T12:02:08.000Z</time>
      </trkpt>
      <trkpt lat="43.43525" lon="6.52411">
        <ele>39.799999237061</ele>
        <time>2020-05-30T12:02:28.000Z</time>
      </trkpt>
      <trkpt lat="43.43525" lon="6.52412">
        <ele>39.599998474121</ele>
        <time>2020-05-30T12:02:43.000Z</time>
      </trkpt>
      <trkpt lat="43.43524" lon="6.52412">
        <ele>39.799999237061</ele>
        <time>2020-05-30T12:03:03.000Z</time>
      </trkpt>
      <trkpt lat="43.43523" lon="6.52412">
        <ele>39.799999237061</ele>
        <time>2020-05-30T12:03:21.000Z</time>
      </trkpt>
      <trkpt lat="43.43524" lon="6.52413">
        <ele>39.799999237061</ele>
        <time>2020-05-30T12:03:41.000Z</time>
      </trkpt>
      <trkpt lat="43.43524" lon="6.52413">
        <ele>39.599998474121</ele>
        <time>2020-05-30T12:03:57.000Z</time>
      </trkpt>
      <trkpt lat="43.43524" lon="6.52413">
        <ele>39.599998474121</ele>
        <time>2020-05-30T12:04:07.000Z</time>
      </trkpt>
      <trkpt lat="43.43524" lon="6.52414">
        <ele>39.799999237061</ele>
        <time>2020-05-30T12:04:17.000Z</time>
      </trkpt>
      <trkpt lat="43.43524" lon="6.52414">
        <ele>40</ele>
        <time>2020-05-30T12:04:23.000Z</time>
      </trkpt>
      <trkpt lat="43.43524" lon="6.52415">
        <ele>40</ele>
        <time>2020-05-30T12:04:28.000Z</time>
      </trkpt>
      <trkpt lat="43.43523" lon="6.52415">
        <ele>39.799999237061</ele>
        <time>2020-05-30T12:04:39.000Z</time>
      </trkpt>
      <trkpt lat="43.43523" lon="6.52414">
        <ele>40</ele>
        <time>2020-05-30T12:04:48.000Z</time>
      </trkpt>
      <trkpt lat="43.43523" lon="6.52414">
        <ele>40.200000762939</ele>
        <time>2020-05-30T12:04:55.000Z</time>
      </trkpt>
      <trkpt lat="43.43522" lon="6.52417">
        <ele>40.200000762939</ele>
        <time>2020-05-30T12:05:00.000Z</time>
      </trkpt>
      <trkpt lat="43.43521" lon="6.52416">
        <ele>39.799999237061</ele>
        <time>2020-05-30T12:05:04.000Z</time>
      </trkpt>
      <trkpt lat="43.43521" lon="6.52416">
        <ele>40</ele>
        <time>2020-05-30T12:05:10.000Z</time>
      </trkpt>
      <trkpt lat="43.43521" lon="6.52417">
        <ele>40</ele>
        <time>2020-05-30T12:05:20.000Z</time>
      </trkpt>
      <trkpt lat="43.43521" lon="6.52417">
        <ele>40.200000762939</ele>
        <time>2020-05-30T12:05:32.000Z</time>
      </trkpt>
      <trkpt lat="43.43522" lon="6.52418">
        <ele>40.400001525879</ele>
        <time>2020-05-30T12:05:45.000Z</time>
      </trkpt>
      <trkpt lat="43.43522" lon="6.52418">
        <ele>40.400001525879</ele>
        <time>2020-05-30T12:05:59.000Z</time>
      </trkpt>
      <trkpt lat="43.43522" lon="6.52418">
        <ele>40.599998474121</ele>
        <time>2020-05-30T12:06:12.000Z</time>
      </trkpt>
      <trkpt lat="43.43522" lon="6.52418">
        <ele>40.400001525879</ele>
        <time>2020-05-30T12:06:25.000Z</time>
      </trkpt>
      <trkpt lat="43.43522" lon="6.52417">
        <ele>40.400001525879</ele>
        <time>2020-05-30T12:06:47.000Z</time>
      </trkpt>
      <trkpt lat="43.43521" lon="6.52417">
        <ele>40.599998474121</ele>
        <time>2020-05-30T12:07:08.000Z</time>
      </trkpt>
      <trkpt lat="43.43521" lon="6.52416">
        <ele>40.799999237061</ele>
        <time>2020-05-30T12:07:30.000Z</time>
      </trkpt>
      <trkpt lat="43.43522" lon="6.52415">
        <ele>40.599998474121</ele>
        <time>2020-05-30T12:07:50.000Z</time>
      </trkpt>
      <trkpt lat="43.43521" lon="6.52415">
        <ele>41</ele>
        <time>2020-05-30T12:08:01.000Z</time>
      </trkpt>
      <trkpt lat="43.43519" lon="6.52415">
        <ele>41</ele>
        <time>2020-05-30T12:08:08.000Z</time>
      </trkpt>
      <trkpt lat="43.43517" lon="6.52419">
        <ele>41</ele>
        <time>2020-05-30T12:08:15.000Z</time>
      </trkpt>
      <trkpt lat="43.43517" lon="6.5242">
        <ele>40.400001525879</ele>
        <time>2020-05-30T12:08:21.000Z</time>
      </trkpt>
      <trkpt lat="43.43517" lon="6.5242">
        <ele>41.200000762939</ele>
        <time>2020-05-30T12:08:25.000Z</time>
      </trkpt>
      <trkpt lat="43.43516" lon="6.5242">
        <ele>41.599998474121</ele>
        <time>2020-05-30T12:08:27.000Z</time>
      </trkpt>
      <trkpt lat="43.43515" lon="6.5242">
        <ele>41.200000762939</ele>
        <time>2020-05-30T12:08:34.000Z</time>
      </trkpt>
      <trkpt lat="43.43515" lon="6.5242">
        <ele>41.799999237061</ele>
        <time>2020-05-30T12:08:43.000Z</time>
      </trkpt>
      <trkpt lat="43.43511" lon="6.52422">
        <ele>41.599998474121</ele>
        <time>2020-05-30T12:08:53.000Z</time>
      </trkpt>
      <trkpt lat="43.43511" lon="6.52422">
        <ele>41.400001525879</ele>
        <time>2020-05-30T12:09:02.000Z</time>
      </trkpt>
      <trkpt lat="43.4351" lon="6.52423">
        <ele>41.400001525879</ele>
        <time>2020-05-30T12:09:09.000Z</time>
      </trkpt>
      <trkpt lat="43.4351" lon="6.52424">
        <ele>41.200000762939</ele>
        <time>2020-05-30T12:09:24.000Z</time>
      </trkpt>
      <trkpt lat="43.43509" lon="6.52425">
        <ele>41.200000762939</ele>
        <time>2020-05-30T12:09:31.000Z</time>
      </trkpt>
      <trkpt lat="43.43509" lon="6.52427">
        <ele>41.200000762939</ele>
        <time>2020-05-30T12:09:52.000Z</time>
      </trkpt>
      <trkpt lat="43.43507" lon="6.52431">
        <ele>41.200000762939</ele>
        <time>2020-05-30T12:09:59.000Z</time>
      </trkpt>
      <trkpt lat="43.43506" lon="6.52432">
        <ele>41.400001525879</ele>
        <time>2020-05-30T12:10:00.000Z</time>
      </trkpt>
      <trkpt lat="43.43504" lon="6.52436">
        <ele>41.599998474121</ele>
        <time>2020-05-30T12:10:06.000Z</time>
      </trkpt>
      <trkpt lat="43.43499" lon="6.52436">
        <ele>41.200000762939</ele>
        <time>2020-05-30T12:10:11.000Z</time>
      </trkpt>
      <trkpt lat="43.43498" lon="6.52433">
        <ele>41</ele>
        <time>2020-05-30T12:10:14.000Z</time>
      </trkpt>
      <trkpt lat="43.43495" lon="6.52432">
        <ele>41</ele>
        <time>2020-05-30T12:10:17.000Z</time>
      </trkpt>
      <trkpt lat="43.43492" lon="6.52437">
        <ele>40.799999237061</ele>
        <time>2020-05-30T12:10:22.000Z</time>
      </trkpt>
      <trkpt lat="43.43492" lon="6.52441">
        <ele>41</ele>
        <time>2020-05-30T12:10:28.000Z</time>
      </trkpt>
      <trkpt lat="43.43493" lon="6.52444">
        <ele>41</ele>
        <time>2020-05-30T12:10:34.000Z</time>
      </trkpt>
      <trkpt lat="43.43495" lon="6.5245">
        <ele>41.200000762939</ele>
        <time>2020-05-30T12:10:42.000Z</time>
      </trkpt>
      <trkpt lat="43.43495" lon="6.52452">
        <ele>41.599998474121</ele>
        <time>2020-05-30T12:10:44.000Z</time>
      </trkpt>
      <trkpt lat="43.43494" lon="6.52454">
        <ele>41.799999237061</ele>
        <time>2020-05-30T12:10:47.000Z</time>
      </trkpt>
      <trkpt lat="43.43493" lon="6.52455">
        <ele>42.200000762939</ele>
        <time>2020-05-30T12:10:49.000Z</time>
      </trkpt>
      <trkpt lat="43.43492" lon="6.52457">
        <ele>42.599998474121</ele>
        <time>2020-05-30T12:10:53.000Z</time>
      </trkpt>
      <trkpt lat="43.4349" lon="6.52461">
        <ele>43.200000762939</ele>
        <time>2020-05-30T12:10:58.000Z</time>
      </trkpt>
      <trkpt lat="43.4349" lon="6.52462">
        <ele>44</ele>
        <time>2020-05-30T12:11:03.000Z</time>
      </trkpt>
      <trkpt lat="43.4349" lon="6.52462">
        <ele>44.200000762939</ele>
        <time>2020-05-30T12:11:04.000Z</time>
      </trkpt>
      <trkpt lat="43.43489" lon="6.52469">
        <ele>45</ele>
        <time>2020-05-30T12:11:11.000Z</time>
      </trkpt>
      <trkpt lat="43.4349" lon="6.5247">
        <ele>45.200000762939</ele>
        <time>2020-05-30T12:11:12.000Z</time>
      </trkpt>
      <trkpt lat="43.43493" lon="6.5247">
        <ele>46.200000762939</ele>
        <time>2020-05-30T12:11:17.000Z</time>
      </trkpt>
      <trkpt lat="43.43496" lon="6.52471">
        <ele>47</ele>
        <time>2020-05-30T12:11:24.000Z</time>
      </trkpt>
      <trkpt lat="43.43495" lon="6.52472">
        <ele>46.799999237061</ele>
        <time>2020-05-30T12:11:30.000Z</time>
      </trkpt>
      <trkpt lat="43.43501" lon="6.52475">
        <ele>46.599998474121</ele>
        <time>2020-05-30T12:11:38.000Z</time>
      </trkpt>
      <trkpt lat="43.43511" lon="6.5249">
        <ele>46.599998474121</ele>
        <time>2020-05-30T12:11:45.000Z</time>
      </trkpt>
      <trkpt lat="43.43512" lon="6.52499">
        <ele>47</ele>
        <time>2020-05-30T12:11:49.000Z</time>
      </trkpt>
      <trkpt lat="43.43508" lon="6.52499">
        <ele>47.400001525879</ele>
        <time>2020-05-30T12:11:53.000Z</time>
      </trkpt>
      <trkpt lat="43.43502" lon="6.525">
        <ele>47.400001525879</ele>
        <time>2020-05-30T12:11:58.000Z</time>
      </trkpt>
      <trkpt lat="43.43499" lon="6.52499">
        <ele>47.400001525879</ele>
        <time>2020-05-30T12:12:00.000Z</time>
      </trkpt>
      <trkpt lat="43.4349" lon="6.525">
        <ele>47.599998474121</ele>
        <time>2020-05-30T12:12:04.000Z</time>
      </trkpt>
      <trkpt lat="43.43488" lon="6.52501">
        <ele>47.599998474121</ele>
        <time>2020-05-30T12:12:05.000Z</time>
      </trkpt>
      <trkpt lat="43.43475" lon="6.52502">
        <ele>47.799999237061</ele>
        <time>2020-05-30T12:12:11.000Z</time>
      </trkpt>
      <trkpt lat="43.43456" lon="6.52504">
        <ele>48.200000762939</ele>
        <time>2020-05-30T12:12:18.000Z</time>
      </trkpt>
      <trkpt lat="43.43451" lon="6.52504">
        <ele>48.400001525879</ele>
        <time>2020-05-30T12:12:20.000Z</time>
      </trkpt>
      <trkpt lat="43.4344" lon="6.52504">
        <ele>49</ele>
        <time>2020-05-30T12:12:24.000Z</time>
      </trkpt>
      <trkpt lat="43.43435" lon="6.52505">
        <ele>49.400001525879</ele>
        <time>2020-05-30T12:12:26.000Z</time>
      </trkpt>
      <trkpt lat="43.43425" lon="6.52507">
        <ele>50.400001525879</ele>
        <time>2020-05-30T12:12:30.000Z</time>
      </trkpt>
      <trkpt lat="43.43423" lon="6.52507">
        <ele>50.599998474121</ele>
        <time>2020-05-30T12:12:31.000Z</time>
      </trkpt>
      <trkpt lat="43.43411" lon="6.5251">
        <ele>51.799999237061</ele>
        <time>2020-05-30T12:12:35.000Z</time>
      </trkpt>
      <trkpt lat="43.43408" lon="6.52511">
        <ele>52</ele>
        <time>2020-05-30T12:12:36.000Z</time>
      </trkpt>
      <trkpt lat="43.43401" lon="6.52514">
        <ele>53</ele>
        <time>2020-05-30T12:12:39.000Z</time>
      </trkpt>
      <trkpt lat="43.43394" lon="6.52519">
        <ele>53.599998474121</ele>
        <time>2020-05-30T12:12:42.000Z</time>
      </trkpt>
      <trkpt lat="43.43385" lon="6.52533">
        <ele>53.599998474121</ele>
        <time>2020-05-30T12:12:46.000Z</time>
      </trkpt>
      <trkpt lat="43.43379" lon="6.52541">
        <ele>53.200000762939</ele>
        <time>2020-05-30T12:12:48.000Z</time>
      </trkpt>
      <trkpt lat="43.43374" lon="6.52542">
        <ele>52.799999237061</ele>
        <time>2020-05-30T12:12:49.000Z</time>
      </trkpt>
      <trkpt lat="43.43368" lon="6.52532">
        <ele>52.200000762939</ele>
        <time>2020-05-30T12:12:52.000Z</time>
      </trkpt>
      <trkpt lat="43.43367" lon="6.52529">
        <ele>52.200000762939</ele>
        <time>2020-05-30T12:12:53.000Z</time>
      </trkpt>
      <trkpt lat="43.43355" lon="6.52508">
        <ele>53.200000762939</ele>
        <time>2020-05-30T12:13:00.000Z</time>
      </trkpt>
      <trkpt lat="43.43339" lon="6.52503">
        <ele>54</ele>
        <time>2020-05-30T12:13:06.000Z</time>
      </trkpt>
      <trkpt lat="43.4332" lon="6.52506">
        <ele>55</ele>
        <time>2020-05-30T12:13:13.000Z</time>
      </trkpt>
      <trkpt lat="43.43317" lon="6.52507">
        <ele>55.200000762939</ele>
        <time>2020-05-30T12:13:14.000Z</time>
      </trkpt>
      <trkpt lat="43.43303" lon="6.52509">
        <ele>55.799999237061</ele>
        <time>2020-05-30T12:13:20.000Z</time>
      </trkpt>
      <trkpt lat="43.43298" lon="6.52509">
        <ele>56.200000762939</ele>
        <time>2020-05-30T12:13:22.000Z</time>
      </trkpt>
      <trkpt lat="43.43283" lon="6.5251">
        <ele>57</ele>
        <time>2020-05-30T12:13:27.000Z</time>
      </trkpt>
      <trkpt lat="43.43281" lon="6.5251">
        <ele>57.400001525879</ele>
        <time>2020-05-30T12:13:28.000Z</time>
      </trkpt>
      <trkpt lat="43.43268" lon="6.52515">
        <ele>58</ele>
        <time>2020-05-30T12:13:33.000Z</time>
      </trkpt>
      <trkpt lat="43.4326" lon="6.52517">
        <ele>58.400001525879</ele>
        <time>2020-05-30T12:13:36.000Z</time>
      </trkpt>
      <trkpt lat="43.43256" lon="6.52517">
        <ele>58.799999237061</ele>
        <time>2020-05-30T12:13:38.000Z</time>
      </trkpt>
      <trkpt lat="43.43241" lon="6.52518">
        <ele>59.599998474121</ele>
        <time>2020-05-30T12:13:43.000Z</time>
      </trkpt>
      <trkpt lat="43.43224" lon="6.52518">
        <ele>60</ele>
        <time>2020-05-30T12:13:49.000Z</time>
      </trkpt>
      <trkpt lat="43.43213" lon="6.52521">
        <ele>61</ele>
        <time>2020-05-30T12:13:53.000Z</time>
      </trkpt>
      <trkpt lat="43.43205" lon="6.52519">
        <ele>61.599998474121</ele>
        <time>2020-05-30T12:13:56.000Z</time>
      </trkpt>
      <trkpt lat="43.43191" lon="6.52518">
        <ele>62</ele>
        <time>2020-05-30T12:14:02.000Z</time>
      </trkpt>
      <trkpt lat="43.43177" lon="6.52522">
        <ele>63</ele>
        <time>2020-05-30T12:14:08.000Z</time>
      </trkpt>
      <trkpt lat="43.43175" lon="6.52523">
        <ele>63</ele>
        <time>2020-05-30T12:14:09.000Z</time>
      </trkpt>
      <trkpt lat="43.43164" lon="6.52524">
        <ele>63.599998474121</ele>
        <time>2020-05-30T12:14:14.000Z</time>
      </trkpt>
      <trkpt lat="43.43152" lon="6.52523">
        <ele>64.199996948242</ele>
        <time>2020-05-30T12:14:19.000Z</time>
      </trkpt>
      <trkpt lat="43.4315" lon="6.52523">
        <ele>64.400001525879</ele>
        <time>2020-05-30T12:14:20.000Z</time>
      </trkpt>
      <trkpt lat="43.43142" lon="6.52521">
        <ele>65.199996948242</ele>
        <time>2020-05-30T12:14:24.000Z</time>
      </trkpt>
      <trkpt lat="43.43137" lon="6.52521">
        <ele>65.599998474121</ele>
        <time>2020-05-30T12:14:26.000Z</time>
      </trkpt>
      <trkpt lat="43.43127" lon="6.52515">
        <ele>66.199996948242</ele>
        <time>2020-05-30T12:14:31.000Z</time>
      </trkpt>
      <trkpt lat="43.43125" lon="6.52514">
        <ele>66.400001525879</ele>
        <time>2020-05-30T12:14:32.000Z</time>
      </trkpt>
      <trkpt lat="43.43112" lon="6.52503">
        <ele>67.199996948242</ele>
        <time>2020-05-30T12:14:38.000Z</time>
      </trkpt>
      <trkpt lat="43.4311" lon="6.52501">
        <ele>67.199996948242</ele>
        <time>2020-05-30T12:14:39.000Z</time>
      </trkpt>
      <trkpt lat="43.431" lon="6.52496">
        <ele>67.599998474121</ele>
        <time>2020-05-30T12:14:43.000Z</time>
      </trkpt>
      <trkpt lat="43.43086" lon="6.5249">
        <ele>68</ele>
        <time>2020-05-30T12:14:48.000Z</time>
      </trkpt>
      <trkpt lat="43.43075" lon="6.52484">
        <ele>68.199996948242</ele>
        <time>2020-05-30T12:14:54.000Z</time>
      </trkpt>
      <trkpt lat="43.43073" lon="6.52481">
        <ele>68.400001525879</ele>
        <time>2020-05-30T12:14:56.000Z</time>
      </trkpt>
      <trkpt lat="43.4307" lon="6.52479">
        <ele>68.800003051758</ele>
        <time>2020-05-30T12:14:59.000Z</time>
      </trkpt>
      <trkpt lat="43.4307" lon="6.52479">
        <ele>68.800003051758</ele>
        <time>2020-05-30T12:15:00.000Z</time>
      </trkpt>
      <trkpt lat="43.43068" lon="6.52477">
        <ele>68.800003051758</ele>
        <time>2020-05-30T12:15:10.000Z</time>
      </trkpt>
      <trkpt lat="43.43067" lon="6.52477">
        <ele>68.599998474121</ele>
        <time>2020-05-30T12:15:28.000Z</time>
      </trkpt>
      <trkpt lat="43.43062" lon="6.52472">
        <ele>68.599998474121</ele>
        <time>2020-05-30T12:15:37.000Z</time>
      </trkpt>
      <trkpt lat="43.4306" lon="6.52468">
        <ele>68.400001525879</ele>
        <time>2020-05-30T12:15:40.000Z</time>
      </trkpt>
      <trkpt lat="43.4306" lon="6.52468">
        <ele>68.400001525879</ele>
        <time>2020-05-30T12:15:42.000Z</time>
      </trkpt>
      <trkpt lat="43.43061" lon="6.52469">
        <ele>68.800003051758</ele>
        <time>2020-05-30T12:15:48.000Z</time>
      </trkpt>
      <trkpt lat="43.43061" lon="6.5247">
        <ele>68.599998474121</ele>
        <time>2020-05-30T12:15:57.000Z</time>
      </trkpt>
      <trkpt lat="43.43066" lon="6.5248">
        <ele>68.599998474121</ele>
        <time>2020-05-30T12:16:01.000Z</time>
      </trkpt>
      <trkpt lat="43.43075" lon="6.52489">
        <ele>69.599998474121</ele>
        <time>2020-05-30T12:16:05.000Z</time>
      </trkpt>
      <trkpt lat="43.43078" lon="6.5249">
        <ele>69.800003051758</ele>
        <time>2020-05-30T12:16:06.000Z</time>
      </trkpt>
      <trkpt lat="43.4309" lon="6.52499">
        <ele>70.400001525879</ele>
        <time>2020-05-30T12:16:10.000Z</time>
      </trkpt>
      <trkpt lat="43.43095" lon="6.52502">
        <ele>70.800003051758</ele>
        <time>2020-05-30T12:16:12.000Z</time>
      </trkpt>
      <trkpt lat="43.43104" lon="6.52514">
        <ele>71.400001525879</ele>
        <time>2020-05-30T12:16:16.000Z</time>
      </trkpt>
      <trkpt lat="43.43111" lon="6.52523">
        <ele>71.800003051758</ele>
        <time>2020-05-30T12:16:18.000Z</time>
      </trkpt>
      <trkpt lat="43.43121" lon="6.52535">
        <ele>73</ele>
        <time>2020-05-30T12:16:22.000Z</time>
      </trkpt>
      <trkpt lat="43.43124" lon="6.52536">
        <ele>73.400001525879</ele>
        <time>2020-05-30T12:16:23.000Z</time>
      </trkpt>
      <trkpt lat="43.43127" lon="6.52537">
        <ele>74</ele>
        <time>2020-05-30T12:16:24.000Z</time>
      </trkpt>
      <trkpt lat="43.43134" lon="6.52539">
        <ele>74.400001525879</ele>
        <time>2020-05-30T12:16:26.000Z</time>
      </trkpt>
      <trkpt lat="43.43146" lon="6.52547">
        <ele>75</ele>
        <time>2020-05-30T12:16:30.000Z</time>
      </trkpt>
      <trkpt lat="43.4315" lon="6.52547">
        <ele>75</ele>
        <time>2020-05-30T12:16:31.000Z</time>
      </trkpt>
      <trkpt lat="43.43159" lon="6.52551">
        <ele>76</ele>
        <time>2020-05-30T12:16:34.000Z</time>
      </trkpt>
      <trkpt lat="43.43162" lon="6.52552">
        <ele>76.400001525879</ele>
        <time>2020-05-30T12:16:35.000Z</time>
      </trkpt>
      <trkpt lat="43.43177" lon="6.52557">
        <ele>77.400001525879</ele>
        <time>2020-05-30T12:16:40.000Z</time>
      </trkpt>
      <trkpt lat="43.4318" lon="6.52558">
        <ele>77.800003051758</ele>
        <time>2020-05-30T12:16:41.000Z</time>
      </trkpt>
      <trkpt lat="43.43192" lon="6.52563">
        <ele>78.599998474121</ele>
        <time>2020-05-30T12:16:45.000Z</time>
      </trkpt>
      <trkpt lat="43.43194" lon="6.52563">
        <ele>78.800003051758</ele>
        <time>2020-05-30T12:16:46.000Z</time>
      </trkpt>
      <trkpt lat="43.43205" lon="6.52569">
        <ele>79.599998474121</ele>
        <time>2020-05-30T12:16:50.000Z</time>
      </trkpt>
      <trkpt lat="43.43208" lon="6.52569">
        <ele>79.599998474121</ele>
        <time>2020-05-30T12:16:51.000Z</time>
      </trkpt>
      <trkpt lat="43.43224" lon="6.52568">
        <ele>80.400001525879</ele>
        <time>2020-05-30T12:16:56.000Z</time>
      </trkpt>
      <trkpt lat="43.43227" lon="6.52568">
        <ele>80.599998474121</ele>
        <time>2020-05-30T12:16:57.000Z</time>
      </trkpt>
      <trkpt lat="43.43241" lon="6.52568">
        <ele>81.800003051758</ele>
        <time>2020-05-30T12:17:01.000Z</time>
      </trkpt>
      <trkpt lat="43.43265" lon="6.52575">
        <ele>82.800003051758</ele>
        <time>2020-05-30T12:17:08.000Z</time>
      </trkpt>
      <trkpt lat="43.43268" lon="6.52575">
        <ele>82.800003051758</ele>
        <time>2020-05-30T12:17:09.000Z</time>
      </trkpt>
      <trkpt lat="43.43281" lon="6.52579">
        <ele>84</ele>
        <time>2020-05-30T12:17:13.000Z</time>
      </trkpt>
      <trkpt lat="43.4329" lon="6.52581">
        <ele>84.800003051758</ele>
        <time>2020-05-30T12:17:16.000Z</time>
      </trkpt>
      <trkpt lat="43.43293" lon="6.52583">
        <ele>85.199996948242</ele>
        <time>2020-05-30T12:17:17.000Z</time>
      </trkpt>
      <trkpt lat="43.43301" lon="6.52586">
        <ele>86.199996948242</ele>
        <time>2020-05-30T12:17:20.000Z</time>
      </trkpt>
      <trkpt lat="43.43306" lon="6.52589">
        <ele>86.800003051758</ele>
        <time>2020-05-30T12:17:22.000Z</time>
      </trkpt>
      <trkpt lat="43.4331" lon="6.52593">
        <ele>87.400001525879</ele>
        <time>2020-05-30T12:17:24.000Z</time>
      </trkpt>
      <trkpt lat="43.43315" lon="6.52601">
        <ele>87.599998474121</ele>
        <time>2020-05-30T12:17:27.000Z</time>
      </trkpt>
      <trkpt lat="43.43317" lon="6.52613">
        <ele>88</ele>
        <time>2020-05-30T12:17:31.000Z</time>
      </trkpt>
      <trkpt lat="43.43318" lon="6.52624">
        <ele>88.400001525879</ele>
        <time>2020-05-30T12:17:34.000Z</time>
      </trkpt>
      <trkpt lat="43.43319" lon="6.5263">
        <ele>88.800003051758</ele>
        <time>2020-05-30T12:17:36.000Z</time>
      </trkpt>
      <trkpt lat="43.43321" lon="6.52641">
        <ele>89.800003051758</ele>
        <time>2020-05-30T12:17:39.000Z</time>
      </trkpt>
      <trkpt lat="43.43322" lon="6.5265">
        <ele>90.400001525879</ele>
        <time>2020-05-30T12:17:42.000Z</time>
      </trkpt>
      <trkpt lat="43.43326" lon="6.5266">
        <ele>90.800003051758</ele>
        <time>2020-05-30T12:17:45.000Z</time>
      </trkpt>
      <trkpt lat="43.4333" lon="6.5267">
        <ele>91.400001525879</ele>
        <time>2020-05-30T12:17:48.000Z</time>
      </trkpt>
      <trkpt lat="43.43333" lon="6.52676">
        <ele>91.800003051758</ele>
        <time>2020-05-30T12:17:50.000Z</time>
      </trkpt>
      <trkpt lat="43.43334" lon="6.5269">
        <ele>93</ele>
        <time>2020-05-30T12:17:54.000Z</time>
      </trkpt>
      <trkpt lat="43.43329" lon="6.52705">
        <ele>93.800003051758</ele>
        <time>2020-05-30T12:17:59.000Z</time>
      </trkpt>
      <trkpt lat="43.43325" lon="6.52713">
        <ele>94</ele>
        <time>2020-05-30T12:18:02.000Z</time>
      </trkpt>
      <trkpt lat="43.43318" lon="6.52721">
        <ele>94.800003051758</ele>
        <time>2020-05-30T12:18:06.000Z</time>
      </trkpt>
      <trkpt lat="43.43315" lon="6.52726">
        <ele>95.199996948242</ele>
        <time>2020-05-30T12:18:08.000Z</time>
      </trkpt>
      <trkpt lat="43.43308" lon="6.52736">
        <ele>95.800003051758</ele>
        <time>2020-05-30T12:18:12.000Z</time>
      </trkpt>
      <trkpt lat="43.43305" lon="6.52741">
        <ele>96.400001525879</ele>
        <time>2020-05-30T12:18:14.000Z</time>
      </trkpt>
      <trkpt lat="43.43298" lon="6.52753">
        <ele>97.400001525879</ele>
        <time>2020-05-30T12:18:19.000Z</time>
      </trkpt>
      <trkpt lat="43.43297" lon="6.52756">
        <ele>97.599998474121</ele>
        <time>2020-05-30T12:18:20.000Z</time>
      </trkpt>
      <trkpt lat="43.43289" lon="6.52769">
        <ele>98.599998474121</ele>
        <time>2020-05-30T12:18:25.000Z</time>
      </trkpt>
      <trkpt lat="43.43283" lon="6.52776">
        <ele>98.800003051758</ele>
        <time>2020-05-30T12:18:28.000Z</time>
      </trkpt>
      <trkpt lat="43.43275" lon="6.52787">
        <ele>99.599998474121</ele>
        <time>2020-05-30T12:18:33.000Z</time>
      </trkpt>
      <trkpt lat="43.43273" lon="6.52804">
        <ele>100.80000305176</ele>
        <time>2020-05-30T12:18:38.000Z</time>
      </trkpt>
      <trkpt lat="43.4327" lon="6.52825">
        <ele>102</ele>
        <time>2020-05-30T12:18:44.000Z</time>
      </trkpt>
      <trkpt lat="43.43269" lon="6.52828">
        <ele>102.19999694824</ele>
        <time>2020-05-30T12:18:45.000Z</time>
      </trkpt>
      <trkpt lat="43.43267" lon="6.52841">
        <ele>103</ele>
        <time>2020-05-30T12:18:49.000Z</time>
      </trkpt>
      <trkpt lat="43.43266" lon="6.5285">
        <ele>103.40000152588</ele>
        <time>2020-05-30T12:18:52.000Z</time>
      </trkpt>
      <trkpt lat="43.43265" lon="6.52859">
        <ele>104</ele>
        <time>2020-05-30T12:18:55.000Z</time>
      </trkpt>
      <trkpt lat="43.43264" lon="6.52873">
        <ele>104.80000305176</ele>
        <time>2020-05-30T12:18:59.000Z</time>
      </trkpt>
      <trkpt lat="43.43263" lon="6.52882">
        <ele>105.19999694824</ele>
        <time>2020-05-30T12:19:02.000Z</time>
      </trkpt>
      <trkpt lat="43.43263" lon="6.52889">
        <ele>105.59999847412</ele>
        <time>2020-05-30T12:19:04.000Z</time>
      </trkpt>
      <trkpt lat="43.43271" lon="6.52903">
        <ele>106</ele>
        <time>2020-05-30T12:19:09.000Z</time>
      </trkpt>
      <trkpt lat="43.43274" lon="6.52908">
        <ele>106.19999694824</ele>
        <time>2020-05-30T12:19:11.000Z</time>
      </trkpt>
      <trkpt lat="43.43279" lon="6.52917">
        <ele>107</ele>
        <time>2020-05-30T12:19:14.000Z</time>
      </trkpt>
      <trkpt lat="43.43286" lon="6.52923">
        <ele>107.40000152588</ele>
        <time>2020-05-30T12:19:17.000Z</time>
      </trkpt>
      <trkpt lat="43.43291" lon="6.52931">
        <ele>107.80000305176</ele>
        <time>2020-05-30T12:19:20.000Z</time>
      </trkpt>
      <trkpt lat="43.43295" lon="6.5294">
        <ele>108.59999847412</ele>
        <time>2020-05-30T12:19:23.000Z</time>
      </trkpt>
      <trkpt lat="43.43298" lon="6.52952">
        <ele>109.40000152588</ele>
        <time>2020-05-30T12:19:27.000Z</time>
      </trkpt>
      <trkpt lat="43.43299" lon="6.52955">
        <ele>109.59999847412</ele>
        <time>2020-05-30T12:19:29.000Z</time>
      </trkpt>
      <trkpt lat="43.43301" lon="6.52966">
        <ele>110</ele>
        <time>2020-05-30T12:19:33.000Z</time>
      </trkpt>
      <trkpt lat="43.43308" lon="6.52977">
        <ele>108.59999847412</ele>
        <time>2020-05-30T12:19:37.000Z</time>
      </trkpt>
      <trkpt lat="43.43313" lon="6.52982">
        <ele>109.59999847412</ele>
        <time>2020-05-30T12:19:40.000Z</time>
      </trkpt>
      <trkpt lat="43.43315" lon="6.52984">
        <ele>110.80000305176</ele>
        <time>2020-05-30T12:19:41.000Z</time>
      </trkpt>
      <trkpt lat="43.43316" lon="6.52986">
        <ele>111</ele>
        <time>2020-05-30T12:19:42.000Z</time>
      </trkpt>
      <trkpt lat="43.4332" lon="6.52995">
        <ele>111.80000305176</ele>
        <time>2020-05-30T12:19:45.000Z</time>
      </trkpt>
      <trkpt lat="43.43327" lon="6.53008">
        <ele>112.59999847412</ele>
        <time>2020-05-30T12:19:49.000Z</time>
      </trkpt>
      <trkpt lat="43.43328" lon="6.5301">
        <ele>112.80000305176</ele>
        <time>2020-05-30T12:19:50.000Z</time>
      </trkpt>
      <trkpt lat="43.43335" lon="6.53026">
        <ele>114.19999694824</ele>
        <time>2020-05-30T12:19:55.000Z</time>
      </trkpt>
      <trkpt lat="43.43341" lon="6.5304">
        <ele>115.19999694824</ele>
        <time>2020-05-30T12:19:59.000Z</time>
      </trkpt>
      <trkpt lat="43.43343" lon="6.53043">
        <ele>115.40000152588</ele>
        <time>2020-05-30T12:20:00.000Z</time>
      </trkpt>
      <trkpt lat="43.4335" lon="6.53051">
        <ele>115.40000152588</ele>
        <time>2020-05-30T12:20:05.000Z</time>
      </trkpt>
      <trkpt lat="43.43352" lon="6.53046">
        <ele>115.40000152588</ele>
        <time>2020-05-30T12:20:08.000Z</time>
      </trkpt>
      <trkpt lat="43.43351" lon="6.5303">
        <ele>115.40000152588</ele>
        <time>2020-05-30T12:20:12.000Z</time>
      </trkpt>
      <trkpt lat="43.43352" lon="6.53015">
        <ele>115.40000152588</ele>
        <time>2020-05-30T12:20:16.000Z</time>
      </trkpt>
      <trkpt lat="43.43347" lon="6.52998">
        <ele>115.19999694824</ele>
        <time>2020-05-30T12:20:20.000Z</time>
      </trkpt>
      <trkpt lat="43.43341" lon="6.52978">
        <ele>115.40000152588</ele>
        <time>2020-05-30T12:20:25.000Z</time>
      </trkpt>
      <trkpt lat="43.43337" lon="6.52949">
        <ele>114.80000305176</ele>
        <time>2020-05-30T12:20:31.000Z</time>
      </trkpt>
      <trkpt lat="43.43336" lon="6.52927">
        <ele>114.59999847412</ele>
        <time>2020-05-30T12:20:36.000Z</time>
      </trkpt>
      <trkpt lat="43.43335" lon="6.52907">
        <ele>114.59999847412</ele>
        <time>2020-05-30T12:20:40.000Z</time>
      </trkpt>
      <trkpt lat="43.43338" lon="6.52884">
        <ele>114.40000152588</ele>
        <time>2020-05-30T12:20:45.000Z</time>
      </trkpt>
      <trkpt lat="43.43348" lon="6.52874">
        <ele>114.59999847412</ele>
        <time>2020-05-30T12:20:49.000Z</time>
      </trkpt>
      <trkpt lat="43.43362" lon="6.52872">
        <ele>115.80000305176</ele>
        <time>2020-05-30T12:20:54.000Z</time>
      </trkpt>
      <trkpt lat="43.43367" lon="6.52869">
        <ele>115.80000305176</ele>
        <time>2020-05-30T12:20:56.000Z</time>
      </trkpt>
      <trkpt lat="43.43371" lon="6.52865">
        <ele>116.19999694824</ele>
        <time>2020-05-30T12:20:58.000Z</time>
      </trkpt>
      <trkpt lat="43.43374" lon="6.52862">
        <ele>116.40000152588</ele>
        <time>2020-05-30T12:20:59.000Z</time>
      </trkpt>
      <trkpt lat="43.43383" lon="6.52851">
        <ele>117.59999847412</ele>
        <time>2020-05-30T12:21:03.000Z</time>
      </trkpt>
      <trkpt lat="43.43388" lon="6.52845">
        <ele>118.19999694824</ele>
        <time>2020-05-30T12:21:05.000Z</time>
      </trkpt>
      <trkpt lat="43.43398" lon="6.52842">
        <ele>118.80000305176</ele>
        <time>2020-05-30T12:21:08.000Z</time>
      </trkpt>
      <trkpt lat="43.43402" lon="6.52842">
        <ele>118.80000305176</ele>
        <time>2020-05-30T12:21:09.000Z</time>
      </trkpt>
      <trkpt lat="43.43414" lon="6.52842">
        <ele>119.59999847412</ele>
        <time>2020-05-30T12:21:13.000Z</time>
      </trkpt>
      <trkpt lat="43.43417" lon="6.52842">
        <ele>119.80000305176</ele>
        <time>2020-05-30T12:21:14.000Z</time>
      </trkpt>
      <trkpt lat="43.43436" lon="6.52841">
        <ele>121</ele>
        <time>2020-05-30T12:21:20.000Z</time>
      </trkpt>
      <trkpt lat="43.43443" lon="6.52838">
        <ele>122</ele>
        <time>2020-05-30T12:21:25.000Z</time>
      </trkpt>
      <trkpt lat="43.43444" lon="6.52834">
        <ele>122.80000305176</ele>
        <time>2020-05-30T12:21:34.000Z</time>
      </trkpt>
      <trkpt lat="43.43451" lon="6.52828">
        <ele>123</ele>
        <time>2020-05-30T12:21:38.000Z</time>
      </trkpt>
      <trkpt lat="43.43453" lon="6.52826">
        <ele>123.19999694824</ele>
        <time>2020-05-30T12:21:39.000Z</time>
      </trkpt>
      <trkpt lat="43.43463" lon="6.52808">
        <ele>124</ele>
        <time>2020-05-30T12:21:44.000Z</time>
      </trkpt>
      <trkpt lat="43.43466" lon="6.52804">
        <ele>124.19999694824</ele>
        <time>2020-05-30T12:21:45.000Z</time>
      </trkpt>
      <trkpt lat="43.43475" lon="6.52793">
        <ele>124.40000152588</ele>
        <time>2020-05-30T12:21:49.000Z</time>
      </trkpt>
      <trkpt lat="43.43483" lon="6.52782">
        <ele>125.40000152588</ele>
        <time>2020-05-30T12:21:52.000Z</time>
      </trkpt>
      <trkpt lat="43.43491" lon="6.52775">
        <ele>126.19999694824</ele>
        <time>2020-05-30T12:21:55.000Z</time>
      </trkpt>
      <trkpt lat="43.43493" lon="6.52773">
        <ele>126.40000152588</ele>
        <time>2020-05-30T12:21:56.000Z</time>
      </trkpt>
      <trkpt lat="43.43496" lon="6.52774">
        <ele>126.59999847412</ele>
        <time>2020-05-30T12:21:57.000Z</time>
      </trkpt>
      <trkpt lat="43.43498" lon="6.52775">
        <ele>126.80000305176</ele>
        <time>2020-05-30T12:21:58.000Z</time>
      </trkpt>
      <trkpt lat="43.43502" lon="6.52777">
        <ele>127.59999847412</ele>
        <time>2020-05-30T12:22:01.000Z</time>
      </trkpt>
      <trkpt lat="43.43509" lon="6.52774">
        <ele>129.39999389648</ele>
        <time>2020-05-30T12:22:04.000Z</time>
      </trkpt>
      <trkpt lat="43.43513" lon="6.52769">
        <ele>130</ele>
        <time>2020-05-30T12:22:06.000Z</time>
      </trkpt>
      <trkpt lat="43.43519" lon="6.52766">
        <ele>130</ele>
        <time>2020-05-30T12:22:08.000Z</time>
      </trkpt>
      <trkpt lat="43.43528" lon="6.5277">
        <ele>128.60000610352</ele>
        <time>2020-05-30T12:22:11.000Z</time>
      </trkpt>
      <trkpt lat="43.43531" lon="6.52773">
        <ele>128.19999694824</ele>
        <time>2020-05-30T12:22:12.000Z</time>
      </trkpt>
      <trkpt lat="43.43543" lon="6.52788">
        <ele>129.19999694824</ele>
        <time>2020-05-30T12:22:17.000Z</time>
      </trkpt>
      <trkpt lat="43.43549" lon="6.52795">
        <ele>129.80000305176</ele>
        <time>2020-05-30T12:22:19.000Z</time>
      </trkpt>
      <trkpt lat="43.43557" lon="6.52802">
        <ele>130.60000610352</ele>
        <time>2020-05-30T12:22:22.000Z</time>
      </trkpt>
      <trkpt lat="43.43562" lon="6.52805">
        <ele>131.19999694824</ele>
        <time>2020-05-30T12:22:24.000Z</time>
      </trkpt>
      <trkpt lat="43.43567" lon="6.52807">
        <ele>131.80000305176</ele>
        <time>2020-05-30T12:22:26.000Z</time>
      </trkpt>
      <trkpt lat="43.43578" lon="6.5281">
        <ele>132.19999694824</ele>
        <time>2020-05-30T12:22:30.000Z</time>
      </trkpt>
      <trkpt lat="43.43592" lon="6.5281">
        <ele>132.19999694824</ele>
        <time>2020-05-30T12:22:35.000Z</time>
      </trkpt>
      <trkpt lat="43.43614" lon="6.52802">
        <ele>132.60000610352</ele>
        <time>2020-05-30T12:22:43.000Z</time>
      </trkpt>
      <trkpt lat="43.43617" lon="6.52801">
        <ele>132.80000305176</ele>
        <time>2020-05-30T12:22:44.000Z</time>
      </trkpt>
      <trkpt lat="43.43633" lon="6.52795">
        <ele>133.80000305176</ele>
        <time>2020-05-30T12:22:50.000Z</time>
      </trkpt>
      <trkpt lat="43.43653" lon="6.52787">
        <ele>135</ele>
        <time>2020-05-30T12:22:58.000Z</time>
      </trkpt>
      <trkpt lat="43.43667" lon="6.52789">
        <ele>135.60000610352</ele>
        <time>2020-05-30T12:23:03.000Z</time>
      </trkpt>
      <trkpt lat="43.43674" lon="6.52794">
        <ele>136</ele>
        <time>2020-05-30T12:23:06.000Z</time>
      </trkpt>
      <trkpt lat="43.43682" lon="6.528">
        <ele>136.80000305176</ele>
        <time>2020-05-30T12:23:09.000Z</time>
      </trkpt>
      <trkpt lat="43.43688" lon="6.52807">
        <ele>137.19999694824</ele>
        <time>2020-05-30T12:23:12.000Z</time>
      </trkpt>
      <trkpt lat="43.43698" lon="6.52816">
        <ele>137.80000305176</ele>
        <time>2020-05-30T12:23:16.000Z</time>
      </trkpt>
      <trkpt lat="43.43703" lon="6.5282">
        <ele>138.19999694824</ele>
        <time>2020-05-30T12:23:18.000Z</time>
      </trkpt>
      <trkpt lat="43.43712" lon="6.52829">
        <ele>139</ele>
        <time>2020-05-30T12:23:22.000Z</time>
      </trkpt>
      <trkpt lat="43.43717" lon="6.52838">
        <ele>139.39999389648</ele>
        <time>2020-05-30T12:23:25.000Z</time>
      </trkpt>
      <trkpt lat="43.43718" lon="6.52845">
        <ele>139.80000305176</ele>
        <time>2020-05-30T12:23:27.000Z</time>
      </trkpt>
      <trkpt lat="43.43717" lon="6.52858">
        <ele>140.39999389648</ele>
        <time>2020-05-30T12:23:31.000Z</time>
      </trkpt>
      <trkpt lat="43.43717" lon="6.52862">
        <ele>140.60000610352</ele>
        <time>2020-05-30T12:23:32.000Z</time>
      </trkpt>
      <trkpt lat="43.43717" lon="6.52881">
        <ele>141.60000610352</ele>
        <time>2020-05-30T12:23:37.000Z</time>
      </trkpt>
      <trkpt lat="43.43717" lon="6.52885">
        <ele>141.80000305176</ele>
        <time>2020-05-30T12:23:38.000Z</time>
      </trkpt>
      <trkpt lat="43.4372" lon="6.52892">
        <ele>142</ele>
        <time>2020-05-30T12:23:40.000Z</time>
      </trkpt>
      <trkpt lat="43.43722" lon="6.52903">
        <ele>142.80000305176</ele>
        <time>2020-05-30T12:23:43.000Z</time>
      </trkpt>
      <trkpt lat="43.43723" lon="6.52918">
        <ele>143.80000305176</ele>
        <time>2020-05-30T12:23:47.000Z</time>
      </trkpt>
      <trkpt lat="43.43723" lon="6.52922">
        <ele>144</ele>
        <time>2020-05-30T12:23:48.000Z</time>
      </trkpt>
      <trkpt lat="43.43723" lon="6.52926">
        <ele>144.19999694824</ele>
        <time>2020-05-30T12:23:49.000Z</time>
      </trkpt>
      <trkpt lat="43.43719" lon="6.52948">
        <ele>144.80000305176</ele>
        <time>2020-05-30T12:23:55.000Z</time>
      </trkpt>
      <trkpt lat="43.43718" lon="6.52952">
        <ele>145</ele>
        <time>2020-05-30T12:23:56.000Z</time>
      </trkpt>
      <trkpt lat="43.43719" lon="6.52968">
        <ele>145.60000610352</ele>
        <time>2020-05-30T12:24:00.000Z</time>
      </trkpt>
      <trkpt lat="43.4372" lon="6.52978">
        <ele>146.19999694824</ele>
        <time>2020-05-30T12:24:02.000Z</time>
      </trkpt>
      <trkpt lat="43.43721" lon="6.52993">
        <ele>147</ele>
        <time>2020-05-30T12:24:06.000Z</time>
      </trkpt>
      <trkpt lat="43.43723" lon="6.52997">
        <ele>147.39999389648</ele>
        <time>2020-05-30T12:24:07.000Z</time>
      </trkpt>
      <trkpt lat="43.43725" lon="6.53">
        <ele>147.60000610352</ele>
        <time>2020-05-30T12:24:08.000Z</time>
      </trkpt>
      <trkpt lat="43.4373" lon="6.53003">
        <ele>147.60000610352</ele>
        <time>2020-05-30T12:24:10.000Z</time>
      </trkpt>
      <trkpt lat="43.43738" lon="6.53007">
        <ele>148.19999694824</ele>
        <time>2020-05-30T12:24:13.000Z</time>
      </trkpt>
      <trkpt lat="43.43741" lon="6.53009">
        <ele>148.60000610352</ele>
        <time>2020-05-30T12:24:14.000Z</time>
      </trkpt>
      <trkpt lat="43.43746" lon="6.53012">
        <ele>149.39999389648</ele>
        <time>2020-05-30T12:24:16.000Z</time>
      </trkpt>
      <trkpt lat="43.43751" lon="6.53017">
        <ele>149.80000305176</ele>
        <time>2020-05-30T12:24:18.000Z</time>
      </trkpt>
      <trkpt lat="43.43755" lon="6.53025">
        <ele>150.39999389648</ele>
        <time>2020-05-30T12:24:21.000Z</time>
      </trkpt>
      <trkpt lat="43.43761" lon="6.53038">
        <ele>151</ele>
        <time>2020-05-30T12:24:25.000Z</time>
      </trkpt>
      <trkpt lat="43.43762" lon="6.53041">
        <ele>151.19999694824</ele>
        <time>2020-05-30T12:24:26.000Z</time>
      </trkpt>
      <trkpt lat="43.43764" lon="6.53044">
        <ele>151.39999389648</ele>
        <time>2020-05-30T12:24:27.000Z</time>
      </trkpt>
      <trkpt lat="43.43773" lon="6.53048">
        <ele>152</ele>
        <time>2020-05-30T12:24:30.000Z</time>
      </trkpt>
      <trkpt lat="43.43776" lon="6.53049">
        <ele>152</ele>
        <time>2020-05-30T12:24:31.000Z</time>
      </trkpt>
      <trkpt lat="43.43782" lon="6.53052">
        <ele>152.60000610352</ele>
        <time>2020-05-30T12:24:34.000Z</time>
      </trkpt>
      <trkpt lat="43.43787" lon="6.5305">
        <ele>153.19999694824</ele>
        <time>2020-05-30T12:24:36.000Z</time>
      </trkpt>
      <trkpt lat="43.4379" lon="6.53051">
        <ele>153.19999694824</ele>
        <time>2020-05-30T12:24:37.000Z</time>
      </trkpt>
      <trkpt lat="43.43801" lon="6.53054">
        <ele>153.39999389648</ele>
        <time>2020-05-30T12:24:42.000Z</time>
      </trkpt>
      <trkpt lat="43.43806" lon="6.53053">
        <ele>154.80000305176</ele>
        <time>2020-05-30T12:24:44.000Z</time>
      </trkpt>
      <trkpt lat="43.43817" lon="6.53052">
        <ele>155.39999389648</ele>
        <time>2020-05-30T12:24:48.000Z</time>
      </trkpt>
      <trkpt lat="43.43823" lon="6.5305">
        <ele>155.80000305176</ele>
        <time>2020-05-30T12:24:50.000Z</time>
      </trkpt>
      <trkpt lat="43.43831" lon="6.53048">
        <ele>156.39999389648</ele>
        <time>2020-05-30T12:24:53.000Z</time>
      </trkpt>
      <trkpt lat="43.4384" lon="6.53043">
        <ele>157</ele>
        <time>2020-05-30T12:24:57.000Z</time>
      </trkpt>
      <trkpt lat="43.43846" lon="6.5304">
        <ele>157.39999389648</ele>
        <time>2020-05-30T12:24:59.000Z</time>
      </trkpt>
      <trkpt lat="43.43857" lon="6.53037">
        <ele>158</ele>
        <time>2020-05-30T12:25:03.000Z</time>
      </trkpt>
      <trkpt lat="43.43865" lon="6.53037">
        <ele>158.39999389648</ele>
        <time>2020-05-30T12:25:06.000Z</time>
      </trkpt>
      <trkpt lat="43.43877" lon="6.5304">
        <ele>159.19999694824</ele>
        <time>2020-05-30T12:25:10.000Z</time>
      </trkpt>
      <trkpt lat="43.43884" lon="6.53043">
        <ele>159.39999389648</ele>
        <time>2020-05-30T12:25:12.000Z</time>
      </trkpt>
      <trkpt lat="43.43897" lon="6.53052">
        <ele>159.80000305176</ele>
        <time>2020-05-30T12:25:17.000Z</time>
      </trkpt>
      <trkpt lat="43.43909" lon="6.53056">
        <ele>159.60000610352</ele>
        <time>2020-05-30T12:25:21.000Z</time>
      </trkpt>
      <trkpt lat="43.43923" lon="6.53067">
        <ele>159.39999389648</ele>
        <time>2020-05-30T12:25:26.000Z</time>
      </trkpt>
      <trkpt lat="43.43929" lon="6.5307">
        <ele>160.19999694824</ele>
        <time>2020-05-30T12:25:28.000Z</time>
      </trkpt>
      <trkpt lat="43.43937" lon="6.53076">
        <ele>160.80000305176</ele>
        <time>2020-05-30T12:25:31.000Z</time>
      </trkpt>
      <trkpt lat="43.43946" lon="6.53082">
        <ele>161.39999389648</ele>
        <time>2020-05-30T12:25:34.000Z</time>
      </trkpt>
      <trkpt lat="43.43954" lon="6.53088">
        <ele>161.80000305176</ele>
        <time>2020-05-30T12:25:37.000Z</time>
      </trkpt>
      <trkpt lat="43.43959" lon="6.53096">
        <ele>162.39999389648</ele>
        <time>2020-05-30T12:25:40.000Z</time>
      </trkpt>
      <trkpt lat="43.43964" lon="6.53105">
        <ele>162.80000305176</ele>
        <time>2020-05-30T12:25:43.000Z</time>
      </trkpt>
      <trkpt lat="43.43964" lon="6.53107">
        <ele>163</ele>
        <time>2020-05-30T12:25:44.000Z</time>
      </trkpt>
      <trkpt lat="43.43963" lon="6.53113">
        <ele>163.39999389648</ele>
        <time>2020-05-30T12:25:47.000Z</time>
      </trkpt>
      <trkpt lat="43.43963" lon="6.53114">
        <ele>163.39999389648</ele>
        <time>2020-05-30T12:25:48.000Z</time>
      </trkpt>
      <trkpt lat="43.43962" lon="6.53115">
        <ele>164</ele>
        <time>2020-05-30T12:25:52.000Z</time>
      </trkpt>
      <trkpt lat="43.43962" lon="6.53115">
        <ele>164.19999694824</ele>
        <time>2020-05-30T12:26:01.000Z</time>
      </trkpt>
      <trkpt lat="43.43963" lon="6.53116">
        <ele>164.19999694824</ele>
        <time>2020-05-30T12:26:22.000Z</time>
      </trkpt>
      <trkpt lat="43.43959" lon="6.53127">
        <ele>164.19999694824</ele>
        <time>2020-05-30T12:26:27.000Z</time>
      </trkpt>
      <trkpt lat="43.43953" lon="6.53139">
        <ele>164.60000610352</ele>
        <time>2020-05-30T12:26:31.000Z</time>
      </trkpt>
      <trkpt lat="43.43946" lon="6.53152">
        <ele>165</ele>
        <time>2020-05-30T12:26:35.000Z</time>
      </trkpt>
      <trkpt lat="43.4394" lon="6.53161">
        <ele>165.80000305176</ele>
        <time>2020-05-30T12:26:38.000Z</time>
      </trkpt>
      <trkpt lat="43.43936" lon="6.53171">
        <ele>166.39999389648</ele>
        <time>2020-05-30T12:26:41.000Z</time>
      </trkpt>
      <trkpt lat="43.43933" lon="6.53179">
        <ele>166.80000305176</ele>
        <time>2020-05-30T12:26:43.000Z</time>
      </trkpt>
      <trkpt lat="43.43928" lon="6.53192">
        <ele>167.19999694824</ele>
        <time>2020-05-30T12:26:47.000Z</time>
      </trkpt>
      <trkpt lat="43.43921" lon="6.53223">
        <ele>167.80000305176</ele>
        <time>2020-05-30T12:26:55.000Z</time>
      </trkpt>
      <trkpt lat="43.43921" lon="6.53226">
        <ele>168</ele>
        <time>2020-05-30T12:26:56.000Z</time>
      </trkpt>
      <trkpt lat="43.43915" lon="6.53244">
        <ele>168.60000610352</ele>
        <time>2020-05-30T12:27:01.000Z</time>
      </trkpt>
      <trkpt lat="43.439" lon="6.53269">
        <ele>169</ele>
        <time>2020-05-30T12:27:09.000Z</time>
      </trkpt>
      <trkpt lat="43.4388" lon="6.53289">
        <ele>169.19999694824</ele>
        <time>2020-05-30T12:27:17.000Z</time>
      </trkpt>
      <trkpt lat="43.43864" lon="6.53305">
        <ele>170</ele>
        <time>2020-05-30T12:27:24.000Z</time>
      </trkpt>
      <trkpt lat="43.43848" lon="6.53317">
        <ele>170.19999694824</ele>
        <time>2020-05-30T12:27:30.000Z</time>
      </trkpt>
      <trkpt lat="43.43834" lon="6.53322">
        <ele>171</ele>
        <time>2020-05-30T12:27:35.000Z</time>
      </trkpt>
      <trkpt lat="43.43821" lon="6.53329">
        <ele>171.80000305176</ele>
        <time>2020-05-30T12:27:40.000Z</time>
      </trkpt>
      <trkpt lat="43.43815" lon="6.53333">
        <ele>172.19999694824</ele>
        <time>2020-05-30T12:27:42.000Z</time>
      </trkpt>
      <trkpt lat="43.43803" lon="6.53342">
        <ele>173.19999694824</ele>
        <time>2020-05-30T12:27:47.000Z</time>
      </trkpt>
      <trkpt lat="43.43801" lon="6.53344">
        <ele>173.60000610352</ele>
        <time>2020-05-30T12:27:48.000Z</time>
      </trkpt>
      <trkpt lat="43.43794" lon="6.5335">
        <ele>174.60000610352</ele>
        <time>2020-05-30T12:27:51.000Z</time>
      </trkpt>
      <trkpt lat="43.43786" lon="6.53358">
        <ele>175.60000610352</ele>
        <time>2020-05-30T12:27:55.000Z</time>
      </trkpt>
      <trkpt lat="43.43784" lon="6.5336">
        <ele>175.80000305176</ele>
        <time>2020-05-30T12:27:56.000Z</time>
      </trkpt>
      <trkpt lat="43.43773" lon="6.5337">
        <ele>176.60000610352</ele>
        <time>2020-05-30T12:28:01.000Z</time>
      </trkpt>
      <trkpt lat="43.43771" lon="6.53372">
        <ele>176.80000305176</ele>
        <time>2020-05-30T12:28:02.000Z</time>
      </trkpt>
      <trkpt lat="43.43755" lon="6.5338">
        <ele>177.19999694824</ele>
        <time>2020-05-30T12:28:08.000Z</time>
      </trkpt>
      <trkpt lat="43.43742" lon="6.53376">
        <ele>176.60000610352</ele>
        <time>2020-05-30T12:28:12.000Z</time>
      </trkpt>
      <trkpt lat="43.43732" lon="6.5337">
        <ele>175.39999389648</ele>
        <time>2020-05-30T12:28:16.000Z</time>
      </trkpt>
      <trkpt lat="43.43726" lon="6.53366">
        <ele>175</ele>
        <time>2020-05-30T12:28:18.000Z</time>
      </trkpt>
      <trkpt lat="43.43715" lon="6.53359">
        <ele>174.19999694824</ele>
        <time>2020-05-30T12:28:23.000Z</time>
      </trkpt>
      <trkpt lat="43.43709" lon="6.53355">
        <ele>174</ele>
        <time>2020-05-30T12:28:28.000Z</time>
      </trkpt>
      <trkpt lat="43.43707" lon="6.53354">
        <ele>174.19999694824</ele>
        <time>2020-05-30T12:28:34.000Z</time>
      </trkpt>
      <trkpt lat="43.43705" lon="6.53352">
        <ele>174.39999389648</ele>
        <time>2020-05-30T12:28:53.000Z</time>
      </trkpt>
      <trkpt lat="43.43694" lon="6.53349">
        <ele>174.60000610352</ele>
        <time>2020-05-30T12:28:59.000Z</time>
      </trkpt>
      <trkpt lat="43.43677" lon="6.53354">
        <ele>175.39999389648</ele>
        <time>2020-05-30T12:29:05.000Z</time>
      </trkpt>
      <trkpt lat="43.43659" lon="6.5336">
        <ele>176.19999694824</ele>
        <time>2020-05-30T12:29:11.000Z</time>
      </trkpt>
      <trkpt lat="43.43656" lon="6.53361">
        <ele>176.39999389648</ele>
        <time>2020-05-30T12:29:12.000Z</time>
      </trkpt>
      <trkpt lat="43.43636" lon="6.53366">
        <ele>177.60000610352</ele>
        <time>2020-05-30T12:29:19.000Z</time>
      </trkpt>
      <trkpt lat="43.43621" lon="6.53368">
        <ele>178.80000305176</ele>
        <time>2020-05-30T12:29:25.000Z</time>
      </trkpt>
      <trkpt lat="43.43617" lon="6.53369">
        <ele>179.19999694824</ele>
        <time>2020-05-30T12:29:27.000Z</time>
      </trkpt>
      <trkpt lat="43.43612" lon="6.5337">
        <ele>179.80000305176</ele>
        <time>2020-05-30T12:29:29.000Z</time>
      </trkpt>
      <trkpt lat="43.43597" lon="6.53372">
        <ele>180.80000305176</ele>
        <time>2020-05-30T12:29:35.000Z</time>
      </trkpt>
      <trkpt lat="43.43594" lon="6.53372">
        <ele>181.19999694824</ele>
        <time>2020-05-30T12:29:36.000Z</time>
      </trkpt>
      <trkpt lat="43.43587" lon="6.53373">
        <ele>182</ele>
        <time>2020-05-30T12:29:39.000Z</time>
      </trkpt>
      <trkpt lat="43.43577" lon="6.53376">
        <ele>183.39999389648</ele>
        <time>2020-05-30T12:29:43.000Z</time>
      </trkpt>
      <trkpt lat="43.43574" lon="6.53376">
        <ele>183.60000610352</ele>
        <time>2020-05-30T12:29:44.000Z</time>
      </trkpt>
      <trkpt lat="43.43566" lon="6.53379">
        <ele>184.39999389648</ele>
        <time>2020-05-30T12:29:48.000Z</time>
      </trkpt>
      <trkpt lat="43.43562" lon="6.5338">
        <ele>184.80000305176</ele>
        <time>2020-05-30T12:29:50.000Z</time>
      </trkpt>
      <trkpt lat="43.43557" lon="6.53381">
        <ele>185.39999389648</ele>
        <time>2020-05-30T12:29:53.000Z</time>
      </trkpt>
      <trkpt lat="43.43552" lon="6.5338">
        <ele>185.80000305176</ele>
        <time>2020-05-30T12:29:56.000Z</time>
      </trkpt>
      <trkpt lat="43.43549" lon="6.53379">
        <ele>186.19999694824</ele>
        <time>2020-05-30T12:30:01.000Z</time>
      </trkpt>
      <trkpt lat="43.43549" lon="6.53379">
        <ele>186.60000610352</ele>
        <time>2020-05-30T12:30:04.000Z</time>
      </trkpt>
      <trkpt lat="43.43548" lon="6.53379">
        <ele>186.80000305176</ele>
        <time>2020-05-30T12:30:14.000Z</time>
      </trkpt>
      <trkpt lat="43.43546" lon="6.5338">
        <ele>186.60000610352</ele>
        <time>2020-05-30T12:30:41.000Z</time>
      </trkpt>
      <trkpt lat="43.43545" lon="6.5338">
        <ele>186.19999694824</ele>
        <time>2020-05-30T12:31:01.000Z</time>
      </trkpt>
      <trkpt lat="43.43544" lon="6.5338">
        <ele>186.19999694824</ele>
        <time>2020-05-30T12:31:24.000Z</time>
      </trkpt>
      <trkpt lat="43.43542" lon="6.53381">
        <ele>186</ele>
        <time>2020-05-30T12:31:31.000Z</time>
      </trkpt>
      <trkpt lat="43.43536" lon="6.5339">
        <ele>185.80000305176</ele>
        <time>2020-05-30T12:31:35.000Z</time>
      </trkpt>
      <trkpt lat="43.43526" lon="6.53406">
        <ele>186.80000305176</ele>
        <time>2020-05-30T12:31:41.000Z</time>
      </trkpt>
      <trkpt lat="43.43522" lon="6.53411">
        <ele>187.60000610352</ele>
        <time>2020-05-30T12:31:43.000Z</time>
      </trkpt>
      <trkpt lat="43.43519" lon="6.5342">
        <ele>188.80000305176</ele>
        <time>2020-05-30T12:31:46.000Z</time>
      </trkpt>
      <trkpt lat="43.43517" lon="6.53428">
        <ele>190</ele>
        <time>2020-05-30T12:31:49.000Z</time>
      </trkpt>
      <trkpt lat="43.43515" lon="6.53432">
        <ele>191.19999694824</ele>
        <time>2020-05-30T12:31:51.000Z</time>
      </trkpt>
      <trkpt lat="43.43513" lon="6.53436">
        <ele>192.60000610352</ele>
        <time>2020-05-30T12:31:53.000Z</time>
      </trkpt>
      <trkpt lat="43.43511" lon="6.53441">
        <ele>193.60000610352</ele>
        <time>2020-05-30T12:31:55.000Z</time>
      </trkpt>
      <trkpt lat="43.43511" lon="6.53443">
        <ele>194.19999694824</ele>
        <time>2020-05-30T12:31:56.000Z</time>
      </trkpt>
      <trkpt lat="43.4351" lon="6.53445">
        <ele>194.60000610352</ele>
        <time>2020-05-30T12:31:57.000Z</time>
      </trkpt>
      <trkpt lat="43.43507" lon="6.53451">
        <ele>196</ele>
        <time>2020-05-30T12:32:00.000Z</time>
      </trkpt>
      <trkpt lat="43.43506" lon="6.53453">
        <ele>196.60000610352</ele>
        <time>2020-05-30T12:32:01.000Z</time>
      </trkpt>
      <trkpt lat="43.43504" lon="6.53455">
        <ele>197.60000610352</ele>
        <time>2020-05-30T12:32:03.000Z</time>
      </trkpt>
      <trkpt lat="43.43502" lon="6.53456">
        <ele>198</ele>
        <time>2020-05-30T12:32:04.000Z</time>
      </trkpt>
      <trkpt lat="43.43498" lon="6.53455">
        <ele>199.19999694824</ele>
        <time>2020-05-30T12:32:06.000Z</time>
      </trkpt>
      <trkpt lat="43.43495" lon="6.53454">
        <ele>200</ele>
        <time>2020-05-30T12:32:08.000Z</time>
      </trkpt>
      <trkpt lat="43.43493" lon="6.53454">
        <ele>200.39999389648</ele>
        <time>2020-05-30T12:32:09.000Z</time>
      </trkpt>
      <trkpt lat="43.43488" lon="6.53455">
        <ele>200.80000305176</ele>
        <time>2020-05-30T12:32:12.000Z</time>
      </trkpt>
      <trkpt lat="43.43482" lon="6.53457">
        <ele>201.60000610352</ele>
        <time>2020-05-30T12:32:16.000Z</time>
      </trkpt>
      <trkpt lat="43.43479" lon="6.5346">
        <ele>202.19999694824</ele>
        <time>2020-05-30T12:32:18.000Z</time>
      </trkpt>
      <trkpt lat="43.43477" lon="6.53464">
        <ele>203</ele>
        <time>2020-05-30T12:32:20.000Z</time>
      </trkpt>
      <trkpt lat="43.43472" lon="6.53467">
        <ele>204.60000610352</ele>
        <time>2020-05-30T12:32:23.000Z</time>
      </trkpt>
      <trkpt lat="43.4347" lon="6.53468">
        <ele>205.60000610352</ele>
        <time>2020-05-30T12:32:25.000Z</time>
      </trkpt>
      <trkpt lat="43.43469" lon="6.53468">
        <ele>206.19999694824</ele>
        <time>2020-05-30T12:32:26.000Z</time>
      </trkpt>
      <trkpt lat="43.43467" lon="6.53467">
        <ele>206.39999389648</ele>
        <time>2020-05-30T12:32:27.000Z</time>
      </trkpt>
      <trkpt lat="43.43461" lon="6.53466">
        <ele>206.80000305176</ele>
        <time>2020-05-30T12:32:29.000Z</time>
      </trkpt>
      <trkpt lat="43.4346" lon="6.53468">
        <ele>206.60000610352</ele>
        <time>2020-05-30T12:32:30.000Z</time>
      </trkpt>
      <trkpt lat="43.43455" lon="6.53479">
        <ele>205.80000305176</ele>
        <time>2020-05-30T12:32:34.000Z</time>
      </trkpt>
      <trkpt lat="43.43454" lon="6.53485">
        <ele>206.80000305176</ele>
        <time>2020-05-30T12:32:36.000Z</time>
      </trkpt>
      <trkpt lat="43.43451" lon="6.5349">
        <ele>208.39999389648</ele>
        <time>2020-05-30T12:32:38.000Z</time>
      </trkpt>
      <trkpt lat="43.43449" lon="6.53492">
        <ele>209</ele>
        <time>2020-05-30T12:32:39.000Z</time>
      </trkpt>
      <trkpt lat="43.43448" lon="6.53493">
        <ele>209.60000610352</ele>
        <time>2020-05-30T12:32:40.000Z</time>
      </trkpt>
      <trkpt lat="43.43445" lon="6.53498">
        <ele>210.60000610352</ele>
        <time>2020-05-30T12:32:42.000Z</time>
      </trkpt>
      <trkpt lat="43.43445" lon="6.535">
        <ele>211</ele>
        <time>2020-05-30T12:32:43.000Z</time>
      </trkpt>
      <trkpt lat="43.43443" lon="6.53502">
        <ele>211.39999389648</ele>
        <time>2020-05-30T12:32:44.000Z</time>
      </trkpt>
      <trkpt lat="43.43442" lon="6.53503">
        <ele>211.80000305176</ele>
        <time>2020-05-30T12:32:45.000Z</time>
      </trkpt>
      <trkpt lat="43.43441" lon="6.53505">
        <ele>212.19999694824</ele>
        <time>2020-05-30T12:32:46.000Z</time>
      </trkpt>
      <trkpt lat="43.43438" lon="6.53505">
        <ele>212.80000305176</ele>
        <time>2020-05-30T12:32:47.000Z</time>
      </trkpt>
      <trkpt lat="43.43433" lon="6.53506">
        <ele>213.80000305176</ele>
        <time>2020-05-30T12:32:49.000Z</time>
      </trkpt>
      <trkpt lat="43.43432" lon="6.53507">
        <ele>214</ele>
        <time>2020-05-30T12:32:50.000Z</time>
      </trkpt>
      <trkpt lat="43.4343" lon="6.53512">
        <ele>214.19999694824</ele>
        <time>2020-05-30T12:32:52.000Z</time>
      </trkpt>
      <trkpt lat="43.43429" lon="6.53515">
        <ele>215.39999389648</ele>
        <time>2020-05-30T12:32:56.000Z</time>
      </trkpt>
      <trkpt lat="43.43429" lon="6.53514">
        <ele>216.60000610352</ele>
        <time>2020-05-30T12:32:59.000Z</time>
      </trkpt>
      <trkpt lat="43.43428" lon="6.53516">
        <ele>216.60000610352</ele>
        <time>2020-05-30T12:33:06.000Z</time>
      </trkpt>
      <trkpt lat="43.43426" lon="6.53518">
        <ele>217</ele>
        <time>2020-05-30T12:33:13.000Z</time>
      </trkpt>
      <trkpt lat="43.43419" lon="6.53526">
        <ele>218</ele>
        <time>2020-05-30T12:33:19.000Z</time>
      </trkpt>
      <trkpt lat="43.43414" lon="6.53528">
        <ele>219</ele>
        <time>2020-05-30T12:33:22.000Z</time>
      </trkpt>
      <trkpt lat="43.43411" lon="6.53528">
        <ele>219.80000305176</ele>
        <time>2020-05-30T12:33:24.000Z</time>
      </trkpt>
      <trkpt lat="43.43409" lon="6.53529">
        <ele>220.19999694824</ele>
        <time>2020-05-30T12:33:25.000Z</time>
      </trkpt>
      <trkpt lat="43.43404" lon="6.5353">
        <ele>221.60000610352</ele>
        <time>2020-05-30T12:33:28.000Z</time>
      </trkpt>
      <trkpt lat="43.43398" lon="6.5353">
        <ele>223</ele>
        <time>2020-05-30T12:33:31.000Z</time>
      </trkpt>
      <trkpt lat="43.43394" lon="6.53531">
        <ele>224.39999389648</ele>
        <time>2020-05-30T12:33:34.000Z</time>
      </trkpt>
      <trkpt lat="43.43391" lon="6.53532">
        <ele>224.80000305176</ele>
        <time>2020-05-30T12:33:36.000Z</time>
      </trkpt>
      <trkpt lat="43.43387" lon="6.53535">
        <ele>225.80000305176</ele>
        <time>2020-05-30T12:33:39.000Z</time>
      </trkpt>
      <trkpt lat="43.43384" lon="6.53538">
        <ele>226.60000610352</ele>
        <time>2020-05-30T12:33:41.000Z</time>
      </trkpt>
      <trkpt lat="43.43383" lon="6.5354">
        <ele>227</ele>
        <time>2020-05-30T12:33:42.000Z</time>
      </trkpt>
      <trkpt lat="43.43381" lon="6.5354">
        <ele>228.19999694824</ele>
        <time>2020-05-30T12:33:44.000Z</time>
      </trkpt>
      <trkpt lat="43.4338" lon="6.53541">
        <ele>228.60000610352</ele>
        <time>2020-05-30T12:33:45.000Z</time>
      </trkpt>
      <trkpt lat="43.43379" lon="6.53541">
        <ele>229</ele>
        <time>2020-05-30T12:33:46.000Z</time>
      </trkpt>
      <trkpt lat="43.43376" lon="6.53542">
        <ele>229.39999389648</ele>
        <time>2020-05-30T12:33:48.000Z</time>
      </trkpt>
      <trkpt lat="43.43369" lon="6.53542">
        <ele>229.60000610352</ele>
        <time>2020-05-30T12:33:51.000Z</time>
      </trkpt>
      <trkpt lat="43.43362" lon="6.53544">
        <ele>229.60000610352</ele>
        <time>2020-05-30T12:33:55.000Z</time>
      </trkpt>
      <trkpt lat="43.43359" lon="6.53546">
        <ele>229.80000305176</ele>
        <time>2020-05-30T12:33:57.000Z</time>
      </trkpt>
      <trkpt lat="43.43353" lon="6.53549">
        <ele>230.19999694824</ele>
        <time>2020-05-30T12:34:00.000Z</time>
      </trkpt>
      <trkpt lat="43.43351" lon="6.53548">
        <ele>230.60000610352</ele>
        <time>2020-05-30T12:34:01.000Z</time>
      </trkpt>
      <trkpt lat="43.43348" lon="6.53548">
        <ele>231.19999694824</ele>
        <time>2020-05-30T12:34:02.000Z</time>
      </trkpt>
      <trkpt lat="43.43342" lon="6.53546">
        <ele>231.80000305176</ele>
        <time>2020-05-30T12:34:04.000Z</time>
      </trkpt>
      <trkpt lat="43.43335" lon="6.53547">
        <ele>232</ele>
        <time>2020-05-30T12:34:06.000Z</time>
      </trkpt>
      <trkpt lat="43.43322" lon="6.53549">
        <ele>231.60000610352</ele>
        <time>2020-05-30T12:34:11.000Z</time>
      </trkpt>
      <trkpt lat="43.4332" lon="6.53551">
        <ele>231.39999389648</ele>
        <time>2020-05-30T12:34:12.000Z</time>
      </trkpt>
      <trkpt lat="43.43313" lon="6.53558">
        <ele>232.19999694824</ele>
        <time>2020-05-30T12:34:16.000Z</time>
      </trkpt>
      <trkpt lat="43.43312" lon="6.53559">
        <ele>233</ele>
        <time>2020-05-30T12:34:17.000Z</time>
      </trkpt>
      <trkpt lat="43.43309" lon="6.53559">
        <ele>234.80000305176</ele>
        <time>2020-05-30T12:34:19.000Z</time>
      </trkpt>
      <trkpt lat="43.43306" lon="6.53554">
        <ele>236.19999694824</ele>
        <time>2020-05-30T12:34:21.000Z</time>
      </trkpt>
      <trkpt lat="43.433" lon="6.53551">
        <ele>237.19999694824</ele>
        <time>2020-05-30T12:34:24.000Z</time>
      </trkpt>
      <trkpt lat="43.43298" lon="6.53551">
        <ele>237</ele>
        <time>2020-05-30T12:34:25.000Z</time>
      </trkpt>
      <trkpt lat="43.43292" lon="6.53549">
        <ele>236.80000305176</ele>
        <time>2020-05-30T12:34:29.000Z</time>
      </trkpt>
      <trkpt lat="43.43291" lon="6.53549">
        <ele>237</ele>
        <time>2020-05-30T12:34:34.000Z</time>
      </trkpt>
      <trkpt lat="43.43289" lon="6.53548">
        <ele>237</ele>
        <time>2020-05-30T12:34:46.000Z</time>
      </trkpt>
      <trkpt lat="43.43283" lon="6.53546">
        <ele>237</ele>
        <time>2020-05-30T12:34:54.000Z</time>
      </trkpt>
      <trkpt lat="43.43277" lon="6.53545">
        <ele>238.19999694824</ele>
        <time>2020-05-30T12:34:58.000Z</time>
      </trkpt>
      <trkpt lat="43.43276" lon="6.53546">
        <ele>238.80000305176</ele>
        <time>2020-05-30T12:34:59.000Z</time>
      </trkpt>
      <trkpt lat="43.43277" lon="6.53546">
        <ele>239.39999389648</ele>
        <time>2020-05-30T12:35:00.000Z</time>
      </trkpt>
      <trkpt lat="43.43276" lon="6.53545">
        <ele>239.80000305176</ele>
        <time>2020-05-30T12:35:01.000Z</time>
      </trkpt>
      <trkpt lat="43.43276" lon="6.53545">
        <ele>241</ele>
        <time>2020-05-30T12:35:04.000Z</time>
      </trkpt>
      <trkpt lat="43.43274" lon="6.53545">
        <ele>241</ele>
        <time>2020-05-30T12:35:10.000Z</time>
      </trkpt>
      <trkpt lat="43.43274" lon="6.53545">
        <ele>241.19999694824</ele>
        <time>2020-05-30T12:35:17.000Z</time>
      </trkpt>
      <trkpt lat="43.43272" lon="6.53545">
        <ele>241.39999389648</ele>
        <time>2020-05-30T12:35:25.000Z</time>
      </trkpt>
      <trkpt lat="43.4327" lon="6.53545">
        <ele>241.60000610352</ele>
        <time>2020-05-30T12:35:35.000Z</time>
      </trkpt>
      <trkpt lat="43.43269" lon="6.53545">
        <ele>241.80000305176</ele>
        <time>2020-05-30T12:35:42.000Z</time>
      </trkpt>
      <trkpt lat="43.43268" lon="6.53544">
        <ele>242</ele>
        <time>2020-05-30T12:35:45.000Z</time>
      </trkpt>
      <trkpt lat="43.43268" lon="6.53544">
        <ele>242.80000305176</ele>
        <time>2020-05-30T12:35:51.000Z</time>
      </trkpt>
      <trkpt lat="43.43265" lon="6.53544">
        <ele>243.19999694824</ele>
        <time>2020-05-30T12:35:56.000Z</time>
      </trkpt>
      <trkpt lat="43.43264" lon="6.53544">
        <ele>243.80000305176</ele>
        <time>2020-05-30T12:35:59.000Z</time>
      </trkpt>
      <trkpt lat="43.43264" lon="6.53544">
        <ele>244.19999694824</ele>
        <time>2020-05-30T12:36:02.000Z</time>
      </trkpt>
      <trkpt lat="43.43263" lon="6.53545">
        <ele>245</ele>
        <time>2020-05-30T12:36:07.000Z</time>
      </trkpt>
      <trkpt lat="43.43262" lon="6.53545">
        <ele>245.39999389648</ele>
        <time>2020-05-30T12:36:09.000Z</time>
      </trkpt>
      <trkpt lat="43.43259" lon="6.53545">
        <ele>246.19999694824</ele>
        <time>2020-05-30T12:36:14.000Z</time>
      </trkpt>
      <trkpt lat="43.43259" lon="6.53544">
        <ele>246.39999389648</ele>
        <time>2020-05-30T12:36:16.000Z</time>
      </trkpt>
      <trkpt lat="43.4326" lon="6.53544">
        <ele>247</ele>
        <time>2020-05-30T12:36:20.000Z</time>
      </trkpt>
      <trkpt lat="43.43263" lon="6.53544">
        <ele>247.39999389648</ele>
        <time>2020-05-30T12:36:34.000Z</time>
      </trkpt>
      <trkpt lat="43.43262" lon="6.53543">
        <ele>247.39999389648</ele>
        <time>2020-05-30T12:36:45.000Z</time>
      </trkpt>
      <trkpt lat="43.43262" lon="6.53542">
        <ele>247.60000610352</ele>
        <time>2020-05-30T12:36:52.000Z</time>
      </trkpt>
      <trkpt lat="43.43261" lon="6.53542">
        <ele>247.60000610352</ele>
        <time>2020-05-30T12:36:53.000Z</time>
      </trkpt>
      <trkpt lat="43.43262" lon="6.5354">
        <ele>247.19999694824</ele>
        <time>2020-05-30T12:37:04.000Z</time>
      </trkpt>
      <trkpt lat="43.4326" lon="6.53539">
        <ele>247.39999389648</ele>
        <time>2020-05-30T12:37:13.000Z</time>
      </trkpt>
      <trkpt lat="43.43258" lon="6.53538">
        <ele>247.39999389648</ele>
        <time>2020-05-30T12:37:14.000Z</time>
      </trkpt>
      <trkpt lat="43.43249" lon="6.53536">
        <ele>248.19999694824</ele>
        <time>2020-05-30T12:37:19.000Z</time>
      </trkpt>
      <trkpt lat="43.43247" lon="6.53535">
        <ele>249</ele>
        <time>2020-05-30T12:37:21.000Z</time>
      </trkpt>
      <trkpt lat="43.43246" lon="6.53534">
        <ele>250</ele>
        <time>2020-05-30T12:37:23.000Z</time>
      </trkpt>
      <trkpt lat="43.43246" lon="6.53534">
        <ele>250.39999389648</ele>
        <time>2020-05-30T12:37:24.000Z</time>
      </trkpt>
      <trkpt lat="43.43244" lon="6.53533">
        <ele>250.80000305176</ele>
        <time>2020-05-30T12:37:30.000Z</time>
      </trkpt>
      <trkpt lat="43.43243" lon="6.53531">
        <ele>251</ele>
        <time>2020-05-30T12:37:31.000Z</time>
      </trkpt>
      <trkpt lat="43.43239" lon="6.53525">
        <ele>251.60000610352</ele>
        <time>2020-05-30T12:37:34.000Z</time>
      </trkpt>
      <trkpt lat="43.43238" lon="6.53523">
        <ele>251.60000610352</ele>
        <time>2020-05-30T12:37:35.000Z</time>
      </trkpt>
      <trkpt lat="43.43237" lon="6.5352">
        <ele>251.80000305176</ele>
        <time>2020-05-30T12:37:36.000Z</time>
      </trkpt>
      <trkpt lat="43.43237" lon="6.53515">
        <ele>252</ele>
        <time>2020-05-30T12:37:38.000Z</time>
      </trkpt>
      <trkpt lat="43.43237" lon="6.53513">
        <ele>252.19999694824</ele>
        <time>2020-05-30T12:37:39.000Z</time>
      </trkpt>
      <trkpt lat="43.43237" lon="6.53512">
        <ele>253.39999389648</ele>
        <time>2020-05-30T12:37:42.000Z</time>
      </trkpt>
      <trkpt lat="43.43236" lon="6.53512">
        <ele>254.80000305176</ele>
        <time>2020-05-30T12:37:45.000Z</time>
      </trkpt>
      <trkpt lat="43.43236" lon="6.53511">
        <ele>254.39999389648</ele>
        <time>2020-05-30T12:37:52.000Z</time>
      </trkpt>
      <trkpt lat="43.43237" lon="6.5351">
        <ele>254.80000305176</ele>
        <time>2020-05-30T12:38:02.000Z</time>
      </trkpt>
      <trkpt lat="43.43234" lon="6.53508">
        <ele>255.80000305176</ele>
        <time>2020-05-30T12:38:10.000Z</time>
      </trkpt>
      <trkpt lat="43.43234" lon="6.53507">
        <ele>256.20001220703</ele>
        <time>2020-05-30T12:38:11.000Z</time>
      </trkpt>
      <trkpt lat="43.43233" lon="6.53505">
        <ele>256.79998779297</ele>
        <time>2020-05-30T12:38:14.000Z</time>
      </trkpt>
      <trkpt lat="43.43233" lon="6.53504">
        <ele>257.79998779297</ele>
        <time>2020-05-30T12:38:18.000Z</time>
      </trkpt>
      <trkpt lat="43.43232" lon="6.53504">
        <ele>257.60000610352</ele>
        <time>2020-05-30T12:38:28.000Z</time>
      </trkpt>
      <trkpt lat="43.43231" lon="6.53497">
        <ele>257.60000610352</ele>
        <time>2020-05-30T12:38:33.000Z</time>
      </trkpt>
      <trkpt lat="43.43229" lon="6.53491">
        <ele>258.20001220703</ele>
        <time>2020-05-30T12:38:36.000Z</time>
      </trkpt>
      <trkpt lat="43.43228" lon="6.5349">
        <ele>258.39999389648</ele>
        <time>2020-05-30T12:38:37.000Z</time>
      </trkpt>
      <trkpt lat="43.43229" lon="6.5349">
        <ele>258.79998779297</ele>
        <time>2020-05-30T12:38:38.000Z</time>
      </trkpt>
      <trkpt lat="43.43229" lon="6.53491">
        <ele>259.20001220703</ele>
        <time>2020-05-30T12:38:39.000Z</time>
      </trkpt>
      <trkpt lat="43.43228" lon="6.53487">
        <ele>260</ele>
        <time>2020-05-30T12:38:43.000Z</time>
      </trkpt>
      <trkpt lat="43.43228" lon="6.53488">
        <ele>260.20001220703</ele>
        <time>2020-05-30T12:38:44.000Z</time>
      </trkpt>
      <trkpt lat="43.43227" lon="6.53487">
        <ele>260.79998779297</ele>
        <time>2020-05-30T12:38:48.000Z</time>
      </trkpt>
      <trkpt lat="43.43227" lon="6.53485">
        <ele>261.20001220703</ele>
        <time>2020-05-30T12:38:55.000Z</time>
      </trkpt>
      <trkpt lat="43.43225" lon="6.53484">
        <ele>261.20001220703</ele>
        <time>2020-05-30T12:39:01.000Z</time>
      </trkpt>
      <trkpt lat="43.43225" lon="6.53484">
        <ele>261.20001220703</ele>
        <time>2020-05-30T12:39:03.000Z</time>
      </trkpt>
      <trkpt lat="43.43225" lon="6.53483">
        <ele>261.20001220703</ele>
        <time>2020-05-30T12:39:13.000Z</time>
      </trkpt>
      <trkpt lat="43.43225" lon="6.53481">
        <ele>262</ele>
        <time>2020-05-30T12:39:20.000Z</time>
      </trkpt>
      <trkpt lat="43.43223" lon="6.53475">
        <ele>262</ele>
        <time>2020-05-30T12:39:24.000Z</time>
      </trkpt>
      <trkpt lat="43.43222" lon="6.53474">
        <ele>262</ele>
        <time>2020-05-30T12:39:25.000Z</time>
      </trkpt>
      <trkpt lat="43.43221" lon="6.53471">
        <ele>262.39999389648</ele>
        <time>2020-05-30T12:39:27.000Z</time>
      </trkpt>
      <trkpt lat="43.43221" lon="6.53468">
        <ele>263</ele>
        <time>2020-05-30T12:39:29.000Z</time>
      </trkpt>
      <trkpt lat="43.43221" lon="6.53466">
        <ele>263.20001220703</ele>
        <time>2020-05-30T12:39:30.000Z</time>
      </trkpt>
      <trkpt lat="43.4322" lon="6.53465">
        <ele>263.39999389648</ele>
        <time>2020-05-30T12:39:31.000Z</time>
      </trkpt>
      <trkpt lat="43.43219" lon="6.53456">
        <ele>263.60000610352</ele>
        <time>2020-05-30T12:39:35.000Z</time>
      </trkpt>
      <trkpt lat="43.43217" lon="6.53455">
        <ele>263.60000610352</ele>
        <time>2020-05-30T12:39:36.000Z</time>
      </trkpt>
      <trkpt lat="43.43213" lon="6.53441">
        <ele>264</ele>
        <time>2020-05-30T12:39:41.000Z</time>
      </trkpt>
      <trkpt lat="43.43212" lon="6.53435">
        <ele>264.20001220703</ele>
        <time>2020-05-30T12:39:42.000Z</time>
      </trkpt>
      <trkpt lat="43.43206" lon="6.53423">
        <ele>263.60000610352</ele>
        <time>2020-05-30T12:39:46.000Z</time>
      </trkpt>
      <trkpt lat="43.43203" lon="6.53423">
        <ele>264.79998779297</ele>
        <time>2020-05-30T12:39:50.000Z</time>
      </trkpt>
      <trkpt lat="43.43203" lon="6.53423">
        <ele>266</ele>
        <time>2020-05-30T12:39:53.000Z</time>
      </trkpt>
      <trkpt lat="43.43203" lon="6.53423">
        <ele>265.79998779297</ele>
        <time>2020-05-30T12:39:59.000Z</time>
      </trkpt>
      <trkpt lat="43.43201" lon="6.53422">
        <ele>267.20001220703</ele>
        <time>2020-05-30T12:40:08.000Z</time>
      </trkpt>
      <trkpt lat="43.432" lon="6.53421">
        <ele>268.20001220703</ele>
        <time>2020-05-30T12:40:13.000Z</time>
      </trkpt>
      <trkpt lat="43.43199" lon="6.53421">
        <ele>268.20001220703</ele>
        <time>2020-05-30T12:40:15.000Z</time>
      </trkpt>
      <trkpt lat="43.43197" lon="6.53421">
        <ele>268.79998779297</ele>
        <time>2020-05-30T12:40:22.000Z</time>
      </trkpt>
      <trkpt lat="43.43191" lon="6.53419">
        <ele>268.79998779297</ele>
        <time>2020-05-30T12:40:26.000Z</time>
      </trkpt>
      <trkpt lat="43.43181" lon="6.53414">
        <ele>269.39999389648</ele>
        <time>2020-05-30T12:40:31.000Z</time>
      </trkpt>
      <trkpt lat="43.4318" lon="6.53415">
        <ele>269.39999389648</ele>
        <time>2020-05-30T12:40:32.000Z</time>
      </trkpt>
      <trkpt lat="43.43175" lon="6.53418">
        <ele>270.39999389648</ele>
        <time>2020-05-30T12:40:36.000Z</time>
      </trkpt>
      <trkpt lat="43.43173" lon="6.53418">
        <ele>270.79998779297</ele>
        <time>2020-05-30T12:40:37.000Z</time>
      </trkpt>
      <trkpt lat="43.43169" lon="6.53418">
        <ele>271.39999389648</ele>
        <time>2020-05-30T12:40:39.000Z</time>
      </trkpt>
      <trkpt lat="43.43161" lon="6.53421">
        <ele>272</ele>
        <time>2020-05-30T12:40:44.000Z</time>
      </trkpt>
      <trkpt lat="43.43156" lon="6.53424">
        <ele>272.20001220703</ele>
        <time>2020-05-30T12:40:49.000Z</time>
      </trkpt>
      <trkpt lat="43.43155" lon="6.53426">
        <ele>272</ele>
        <time>2020-05-30T12:40:50.000Z</time>
      </trkpt>
      <trkpt lat="43.43154" lon="6.53431">
        <ele>272.79998779297</ele>
        <time>2020-05-30T12:40:54.000Z</time>
      </trkpt>
      <trkpt lat="43.43152" lon="6.53433">
        <ele>273.79998779297</ele>
        <time>2020-05-30T12:40:56.000Z</time>
      </trkpt>
      <trkpt lat="43.4315" lon="6.53435">
        <ele>274</ele>
        <time>2020-05-30T12:40:57.000Z</time>
      </trkpt>
      <trkpt lat="43.43144" lon="6.53441">
        <ele>274</ele>
        <time>2020-05-30T12:41:00.000Z</time>
      </trkpt>
      <trkpt lat="43.43137" lon="6.53461">
        <ele>274.20001220703</ele>
        <time>2020-05-30T12:41:08.000Z</time>
      </trkpt>
      <trkpt lat="43.43137" lon="6.53465">
        <ele>275</ele>
        <time>2020-05-30T12:41:10.000Z</time>
      </trkpt>
      <trkpt lat="43.43137" lon="6.53467">
        <ele>275.39999389648</ele>
        <time>2020-05-30T12:41:11.000Z</time>
      </trkpt>
      <trkpt lat="43.43137" lon="6.53472">
        <ele>276.20001220703</ele>
        <time>2020-05-30T12:41:13.000Z</time>
      </trkpt>
      <trkpt lat="43.43137" lon="6.53473">
        <ele>276.60000610352</ele>
        <time>2020-05-30T12:41:14.000Z</time>
      </trkpt>
      <trkpt lat="43.43137" lon="6.53474">
        <ele>277.79998779297</ele>
        <time>2020-05-30T12:41:18.000Z</time>
      </trkpt>
      <trkpt lat="43.43137" lon="6.53475">
        <ele>277.79998779297</ele>
        <time>2020-05-30T12:41:19.000Z</time>
      </trkpt>
      <trkpt lat="43.43136" lon="6.5348">
        <ele>278.39999389648</ele>
        <time>2020-05-30T12:41:23.000Z</time>
      </trkpt>
      <trkpt lat="43.43136" lon="6.53494">
        <ele>278.39999389648</ele>
        <time>2020-05-30T12:41:28.000Z</time>
      </trkpt>
      <trkpt lat="43.43142" lon="6.53509">
        <ele>278.20001220703</ele>
        <time>2020-05-30T12:41:34.000Z</time>
      </trkpt>
      <trkpt lat="43.43144" lon="6.53528">
        <ele>278.60000610352</ele>
        <time>2020-05-30T12:41:39.000Z</time>
      </trkpt>
      <trkpt lat="43.43138" lon="6.53552">
        <ele>276.79998779297</ele>
        <time>2020-05-30T12:41:45.000Z</time>
      </trkpt>
      <trkpt lat="43.43137" lon="6.53555">
        <ele>276.60000610352</ele>
        <time>2020-05-30T12:41:46.000Z</time>
      </trkpt>
      <trkpt lat="43.43129" lon="6.53576">
        <ele>277.39999389648</ele>
        <time>2020-05-30T12:41:52.000Z</time>
      </trkpt>
      <trkpt lat="43.43128" lon="6.53579">
        <ele>277.79998779297</ele>
        <time>2020-05-30T12:41:53.000Z</time>
      </trkpt>
      <trkpt lat="43.4312" lon="6.53589">
        <ele>278.79998779297</ele>
        <time>2020-05-30T12:41:56.000Z</time>
      </trkpt>
      <trkpt lat="43.4311" lon="6.53602">
        <ele>277.60000610352</ele>
        <time>2020-05-30T12:41:59.000Z</time>
      </trkpt>
      <trkpt lat="43.43107" lon="6.53608">
        <ele>276.79998779297</ele>
        <time>2020-05-30T12:42:00.000Z</time>
      </trkpt>
      <trkpt lat="43.43103" lon="6.53613">
        <ele>276.39999389648</ele>
        <time>2020-05-30T12:42:01.000Z</time>
      </trkpt>
      <trkpt lat="43.43101" lon="6.53619">
        <ele>275.79998779297</ele>
        <time>2020-05-30T12:42:02.000Z</time>
      </trkpt>
      <trkpt lat="43.43097" lon="6.53627">
        <ele>274.20001220703</ele>
        <time>2020-05-30T12:42:04.000Z</time>
      </trkpt>
      <trkpt lat="43.43093" lon="6.53631">
        <ele>273</ele>
        <time>2020-05-30T12:42:06.000Z</time>
      </trkpt>
      <trkpt lat="43.43087" lon="6.53637">
        <ele>273.20001220703</ele>
        <time>2020-05-30T12:42:08.000Z</time>
      </trkpt>
      <trkpt lat="43.43075" lon="6.53651">
        <ele>272.39999389648</ele>
        <time>2020-05-30T12:42:13.000Z</time>
      </trkpt>
      <trkpt lat="43.43067" lon="6.5366">
        <ele>273</ele>
        <time>2020-05-30T12:42:17.000Z</time>
      </trkpt>
      <trkpt lat="43.43059" lon="6.5367">
        <ele>273.60000610352</ele>
        <time>2020-05-30T12:42:22.000Z</time>
      </trkpt>
      <trkpt lat="43.43059" lon="6.53671">
        <ele>274.20001220703</ele>
        <time>2020-05-30T12:42:24.000Z</time>
      </trkpt>
      <trkpt lat="43.43058" lon="6.53672">
        <ele>275.20001220703</ele>
        <time>2020-05-30T12:42:26.000Z</time>
      </trkpt>
      <trkpt lat="43.43058" lon="6.53671">
        <ele>275.60000610352</ele>
        <time>2020-05-30T12:42:27.000Z</time>
      </trkpt>
      <trkpt lat="43.43058" lon="6.53671">
        <ele>276.20001220703</ele>
        <time>2020-05-30T12:42:35.000Z</time>
      </trkpt>
      <trkpt lat="43.43057" lon="6.53673">
        <ele>276.60000610352</ele>
        <time>2020-05-30T12:42:40.000Z</time>
      </trkpt>
      <trkpt lat="43.43057" lon="6.53673">
        <ele>277</ele>
        <time>2020-05-30T12:42:42.000Z</time>
      </trkpt>
      <trkpt lat="43.43057" lon="6.53674">
        <ele>277.79998779297</ele>
        <time>2020-05-30T12:42:45.000Z</time>
      </trkpt>
      <trkpt lat="43.43056" lon="6.53676">
        <ele>278.20001220703</ele>
        <time>2020-05-30T12:42:50.000Z</time>
      </trkpt>
      <trkpt lat="43.43054" lon="6.5368">
        <ele>278.39999389648</ele>
        <time>2020-05-30T12:42:57.000Z</time>
      </trkpt>
      <trkpt lat="43.43053" lon="6.53681">
        <ele>278.60000610352</ele>
        <time>2020-05-30T12:42:58.000Z</time>
      </trkpt>
      <trkpt lat="43.43053" lon="6.53681">
        <ele>278.79998779297</ele>
        <time>2020-05-30T12:42:59.000Z</time>
      </trkpt>
      <trkpt lat="43.43053" lon="6.53682">
        <ele>279.39999389648</ele>
        <time>2020-05-30T12:43:01.000Z</time>
      </trkpt>
      <trkpt lat="43.43053" lon="6.53683">
        <ele>280</ele>
        <time>2020-05-30T12:43:03.000Z</time>
      </trkpt>
      <trkpt lat="43.43052" lon="6.53683">
        <ele>280.79998779297</ele>
        <time>2020-05-30T12:43:09.000Z</time>
      </trkpt>
      <trkpt lat="43.43052" lon="6.53686">
        <ele>281</ele>
        <time>2020-05-30T12:43:19.000Z</time>
      </trkpt>
      <trkpt lat="43.43051" lon="6.53687">
        <ele>281.20001220703</ele>
        <time>2020-05-30T12:43:21.000Z</time>
      </trkpt>
      <trkpt lat="43.43051" lon="6.53687">
        <ele>281.79998779297</ele>
        <time>2020-05-30T12:43:24.000Z</time>
      </trkpt>
      <trkpt lat="43.43051" lon="6.53689">
        <ele>282.20001220703</ele>
        <time>2020-05-30T12:43:28.000Z</time>
      </trkpt>
      <trkpt lat="43.43051" lon="6.53689">
        <ele>282.20001220703</ele>
        <time>2020-05-30T12:43:29.000Z</time>
      </trkpt>
      <trkpt lat="43.43051" lon="6.53689">
        <ele>282.79998779297</ele>
        <time>2020-05-30T12:43:39.000Z</time>
      </trkpt>
      <trkpt lat="43.43051" lon="6.5369">
        <ele>281.60000610352</ele>
        <time>2020-05-30T12:43:44.000Z</time>
      </trkpt>
      <trkpt lat="43.4305" lon="6.5369">
        <ele>282.39999389648</ele>
        <time>2020-05-30T12:43:50.000Z</time>
      </trkpt>
      <trkpt lat="43.43046" lon="6.53694">
        <ele>282.60000610352</ele>
        <time>2020-05-30T12:43:53.000Z</time>
      </trkpt>
      <trkpt lat="43.43039" lon="6.53697">
        <ele>283.60000610352</ele>
        <time>2020-05-30T12:43:57.000Z</time>
      </trkpt>
      <trkpt lat="43.43037" lon="6.53698">
        <ele>284</ele>
        <time>2020-05-30T12:43:58.000Z</time>
      </trkpt>
      <trkpt lat="43.43034" lon="6.53698">
        <ele>284.60000610352</ele>
        <time>2020-05-30T12:43:59.000Z</time>
      </trkpt>
      <trkpt lat="43.43031" lon="6.53698">
        <ele>284.79998779297</ele>
        <time>2020-05-30T12:44:00.000Z</time>
      </trkpt>
      <trkpt lat="43.43021" lon="6.53696">
        <ele>284.79998779297</ele>
        <time>2020-05-30T12:44:03.000Z</time>
      </trkpt>
      <trkpt lat="43.43012" lon="6.53695">
        <ele>283.79998779297</ele>
        <time>2020-05-30T12:44:06.000Z</time>
      </trkpt>
      <trkpt lat="43.43007" lon="6.53695">
        <ele>283.20001220703</ele>
        <time>2020-05-30T12:44:08.000Z</time>
      </trkpt>
      <trkpt lat="43.43006" lon="6.53696">
        <ele>282.79998779297</ele>
        <time>2020-05-30T12:44:09.000Z</time>
      </trkpt>
      <trkpt lat="43.43001" lon="6.53698">
        <ele>282.79998779297</ele>
        <time>2020-05-30T12:44:13.000Z</time>
      </trkpt>
      <trkpt lat="43.43001" lon="6.53698">
        <ele>283.79998779297</ele>
        <time>2020-05-30T12:44:16.000Z</time>
      </trkpt>
      <trkpt lat="43.43002" lon="6.53698">
        <ele>284.39999389648</ele>
        <time>2020-05-30T12:44:19.000Z</time>
      </trkpt>
      <trkpt lat="43.43" lon="6.53698">
        <ele>284.39999389648</ele>
        <time>2020-05-30T12:44:21.000Z</time>
      </trkpt>
      <trkpt lat="43.42996" lon="6.53698">
        <ele>284.60000610352</ele>
        <time>2020-05-30T12:44:23.000Z</time>
      </trkpt>
      <trkpt lat="43.42989" lon="6.53701">
        <ele>285</ele>
        <time>2020-05-30T12:44:28.000Z</time>
      </trkpt>
      <trkpt lat="43.42989" lon="6.53701">
        <ele>285.20001220703</ele>
        <time>2020-05-30T12:44:29.000Z</time>
      </trkpt>
      <trkpt lat="43.42988" lon="6.53701">
        <ele>286.20001220703</ele>
        <time>2020-05-30T12:44:32.000Z</time>
      </trkpt>
      <trkpt lat="43.42988" lon="6.53701">
        <ele>286.39999389648</ele>
        <time>2020-05-30T12:44:37.000Z</time>
      </trkpt>
      <trkpt lat="43.42986" lon="6.53703">
        <ele>286.79998779297</ele>
        <time>2020-05-30T12:44:45.000Z</time>
      </trkpt>
      <trkpt lat="43.42984" lon="6.53704">
        <ele>287.20001220703</ele>
        <time>2020-05-30T12:44:48.000Z</time>
      </trkpt>
      <trkpt lat="43.42983" lon="6.53705">
        <ele>288.39999389648</ele>
        <time>2020-05-30T12:44:53.000Z</time>
      </trkpt>
      <trkpt lat="43.42981" lon="6.53706">
        <ele>289.20001220703</ele>
        <time>2020-05-30T12:45:01.000Z</time>
      </trkpt>
      <trkpt lat="43.4298" lon="6.53705">
        <ele>289</ele>
        <time>2020-05-30T12:45:04.000Z</time>
      </trkpt>
      <trkpt lat="43.42975" lon="6.53703">
        <ele>288.79998779297</ele>
        <time>2020-05-30T12:45:07.000Z</time>
      </trkpt>
      <trkpt lat="43.42967" lon="6.53704">
        <ele>288</ele>
        <time>2020-05-30T12:45:11.000Z</time>
      </trkpt>
      <trkpt lat="43.42958" lon="6.53709">
        <ele>289</ele>
        <time>2020-05-30T12:45:17.000Z</time>
      </trkpt>
      <trkpt lat="43.42957" lon="6.53709">
        <ele>289.39999389648</ele>
        <time>2020-05-30T12:45:18.000Z</time>
      </trkpt>
      <trkpt lat="43.42951" lon="6.5371">
        <ele>290</ele>
        <time>2020-05-30T12:45:21.000Z</time>
      </trkpt>
      <trkpt lat="43.42949" lon="6.53709">
        <ele>290.20001220703</ele>
        <time>2020-05-30T12:45:22.000Z</time>
      </trkpt>
      <trkpt lat="43.42944" lon="6.53709">
        <ele>290.39999389648</ele>
        <time>2020-05-30T12:45:24.000Z</time>
      </trkpt>
      <trkpt lat="43.42935" lon="6.5371">
        <ele>290</ele>
        <time>2020-05-30T12:45:29.000Z</time>
      </trkpt>
      <trkpt lat="43.42928" lon="6.53712">
        <ele>290.20001220703</ele>
        <time>2020-05-30T12:45:34.000Z</time>
      </trkpt>
      <trkpt lat="43.4292" lon="6.53723">
        <ele>291.79998779297</ele>
        <time>2020-05-30T12:45:40.000Z</time>
      </trkpt>
      <trkpt lat="43.4292" lon="6.53724">
        <ele>293.39999389648</ele>
        <time>2020-05-30T12:45:42.000Z</time>
      </trkpt>
      <trkpt lat="43.4292" lon="6.53724">
        <ele>294.39999389648</ele>
        <time>2020-05-30T12:45:44.000Z</time>
      </trkpt>
      <trkpt lat="43.4292" lon="6.53724">
        <ele>295.60000610352</ele>
        <time>2020-05-30T12:45:45.000Z</time>
      </trkpt>
      <trkpt lat="43.42919" lon="6.53725">
        <ele>295</ele>
        <time>2020-05-30T12:45:53.000Z</time>
      </trkpt>
      <trkpt lat="43.42917" lon="6.53726">
        <ele>294.39999389648</ele>
        <time>2020-05-30T12:46:04.000Z</time>
      </trkpt>
      <trkpt lat="43.42917" lon="6.53727">
        <ele>294.39999389648</ele>
        <time>2020-05-30T12:46:12.000Z</time>
      </trkpt>
      <trkpt lat="43.42915" lon="6.53728">
        <ele>294.39999389648</ele>
        <time>2020-05-30T12:46:27.000Z</time>
      </trkpt>
      <trkpt lat="43.42914" lon="6.53728">
        <ele>294.39999389648</ele>
        <time>2020-05-30T12:46:56.000Z</time>
      </trkpt>
      <trkpt lat="43.42914" lon="6.53727">
        <ele>293.79998779297</ele>
        <time>2020-05-30T12:47:19.000Z</time>
      </trkpt>
      <trkpt lat="43.42913" lon="6.53727">
        <ele>294</ele>
        <time>2020-05-30T12:47:39.000Z</time>
      </trkpt>
      <trkpt lat="43.42911" lon="6.53726">
        <ele>293.79998779297</ele>
        <time>2020-05-30T12:47:52.000Z</time>
      </trkpt>
      <trkpt lat="43.42911" lon="6.53726">
        <ele>293.79998779297</ele>
        <time>2020-05-30T12:48:01.000Z</time>
      </trkpt>
      <trkpt lat="43.42911" lon="6.53726">
        <ele>293.39999389648</ele>
        <time>2020-05-30T12:48:10.000Z</time>
      </trkpt>
      <trkpt lat="43.42911" lon="6.53726">
        <ele>293.39999389648</ele>
        <time>2020-05-30T12:48:16.000Z</time>
      </trkpt>
      <trkpt lat="43.42911" lon="6.53725">
        <ele>293.39999389648</ele>
        <time>2020-05-30T12:48:40.000Z</time>
      </trkpt>
      <trkpt lat="43.42909" lon="6.53725">
        <ele>293.20001220703</ele>
        <time>2020-05-30T12:48:50.000Z</time>
      </trkpt>
      <trkpt lat="43.42908" lon="6.53725">
        <ele>293</ele>
        <time>2020-05-30T12:48:52.000Z</time>
      </trkpt>
      <trkpt lat="43.42905" lon="6.53723">
        <ele>293</ele>
        <time>2020-05-30T12:48:54.000Z</time>
      </trkpt>
      <trkpt lat="43.42901" lon="6.53716">
        <ele>293</ele>
        <time>2020-05-30T12:48:56.000Z</time>
      </trkpt>
      <trkpt lat="43.42899" lon="6.53712">
        <ele>292.79998779297</ele>
        <time>2020-05-30T12:48:57.000Z</time>
      </trkpt>
      <trkpt lat="43.42897" lon="6.53704">
        <ele>291.79998779297</ele>
        <time>2020-05-30T12:48:59.000Z</time>
      </trkpt>
      <trkpt lat="43.42896" lon="6.53697">
        <ele>290.39999389648</ele>
        <time>2020-05-30T12:49:01.000Z</time>
      </trkpt>
      <trkpt lat="43.42894" lon="6.53694">
        <ele>288.60000610352</ele>
        <time>2020-05-30T12:49:03.000Z</time>
      </trkpt>
      <trkpt lat="43.42889" lon="6.5369">
        <ele>287.60000610352</ele>
        <time>2020-05-30T12:49:05.000Z</time>
      </trkpt>
      <trkpt lat="43.42888" lon="6.53686">
        <ele>287.20001220703</ele>
        <time>2020-05-30T12:49:06.000Z</time>
      </trkpt>
      <trkpt lat="43.42884" lon="6.53676">
        <ele>286.39999389648</ele>
        <time>2020-05-30T12:49:08.000Z</time>
      </trkpt>
      <trkpt lat="43.42877" lon="6.53668">
        <ele>284.79998779297</ele>
        <time>2020-05-30T12:49:11.000Z</time>
      </trkpt>
      <trkpt lat="43.42872" lon="6.53665">
        <ele>283.60000610352</ele>
        <time>2020-05-30T12:49:13.000Z</time>
      </trkpt>
      <trkpt lat="43.42857" lon="6.53651">
        <ele>283.79998779297</ele>
        <time>2020-05-30T12:49:18.000Z</time>
      </trkpt>
      <trkpt lat="43.42844" lon="6.53642">
        <ele>282.79998779297</ele>
        <time>2020-05-30T12:49:21.000Z</time>
      </trkpt>
      <trkpt lat="43.42839" lon="6.53637">
        <ele>282.20001220703</ele>
        <time>2020-05-30T12:49:22.000Z</time>
      </trkpt>
      <trkpt lat="43.42835" lon="6.53633">
        <ele>281.79998779297</ele>
        <time>2020-05-30T12:49:23.000Z</time>
      </trkpt>
      <trkpt lat="43.4283" lon="6.53629">
        <ele>281.20001220703</ele>
        <time>2020-05-30T12:49:24.000Z</time>
      </trkpt>
      <trkpt lat="43.42826" lon="6.53623">
        <ele>280.39999389648</ele>
        <time>2020-05-30T12:49:25.000Z</time>
      </trkpt>
      <trkpt lat="43.42824" lon="6.53618">
        <ele>279.79998779297</ele>
        <time>2020-05-30T12:49:26.000Z</time>
      </trkpt>
      <trkpt lat="43.42822" lon="6.53614">
        <ele>279.60000610352</ele>
        <time>2020-05-30T12:49:27.000Z</time>
      </trkpt>
      <trkpt lat="43.42814" lon="6.53605">
        <ele>278</ele>
        <time>2020-05-30T12:49:29.000Z</time>
      </trkpt>
      <trkpt lat="43.42808" lon="6.53598">
        <ele>276.20001220703</ele>
        <time>2020-05-30T12:49:31.000Z</time>
      </trkpt>
      <trkpt lat="43.42805" lon="6.53593">
        <ele>275.60000610352</ele>
        <time>2020-05-30T12:49:32.000Z</time>
      </trkpt>
      <trkpt lat="43.42804" lon="6.53586">
        <ele>275</ele>
        <time>2020-05-30T12:49:33.000Z</time>
      </trkpt>
      <trkpt lat="43.42802" lon="6.53583">
        <ele>274.60000610352</ele>
        <time>2020-05-30T12:49:34.000Z</time>
      </trkpt>
      <trkpt lat="43.42796" lon="6.5358">
        <ele>273.79998779297</ele>
        <time>2020-05-30T12:49:36.000Z</time>
      </trkpt>
      <trkpt lat="43.42793" lon="6.53575">
        <ele>273.39999389648</ele>
        <time>2020-05-30T12:49:37.000Z</time>
      </trkpt>
      <trkpt lat="43.42789" lon="6.53572">
        <ele>272.39999389648</ele>
        <time>2020-05-30T12:49:38.000Z</time>
      </trkpt>
      <trkpt lat="43.42784" lon="6.5357">
        <ele>271.39999389648</ele>
        <time>2020-05-30T12:49:39.000Z</time>
      </trkpt>
      <trkpt lat="43.4278" lon="6.53567">
        <ele>270.60000610352</ele>
        <time>2020-05-30T12:49:40.000Z</time>
      </trkpt>
      <trkpt lat="43.42776" lon="6.53564">
        <ele>270.39999389648</ele>
        <time>2020-05-30T12:49:41.000Z</time>
      </trkpt>
      <trkpt lat="43.42779" lon="6.5356">
        <ele>269.39999389648</ele>
        <time>2020-05-30T12:49:42.000Z</time>
      </trkpt>
      <trkpt lat="43.42779" lon="6.53556">
        <ele>269</ele>
        <time>2020-05-30T12:49:43.000Z</time>
      </trkpt>
      <trkpt lat="43.42774" lon="6.53549">
        <ele>267.79998779297</ele>
        <time>2020-05-30T12:49:45.000Z</time>
      </trkpt>
      <trkpt lat="43.42771" lon="6.53546">
        <ele>267</ele>
        <time>2020-05-30T12:49:46.000Z</time>
      </trkpt>
      <trkpt lat="43.42769" lon="6.53545">
        <ele>266.39999389648</ele>
        <time>2020-05-30T12:49:47.000Z</time>
      </trkpt>
      <trkpt lat="43.42764" lon="6.53546">
        <ele>264.60000610352</ele>
        <time>2020-05-30T12:49:49.000Z</time>
      </trkpt>
      <trkpt lat="43.42751" lon="6.53543">
        <ele>263.39999389648</ele>
        <time>2020-05-30T12:49:52.000Z</time>
      </trkpt>
      <trkpt lat="43.42748" lon="6.53534">
        <ele>262.60000610352</ele>
        <time>2020-05-30T12:49:54.000Z</time>
      </trkpt>
      <trkpt lat="43.42747" lon="6.53528">
        <ele>262.20001220703</ele>
        <time>2020-05-30T12:49:55.000Z</time>
      </trkpt>
      <trkpt lat="43.42749" lon="6.53518">
        <ele>261</ele>
        <time>2020-05-30T12:49:57.000Z</time>
      </trkpt>
      <trkpt lat="43.42749" lon="6.53515">
        <ele>260.39999389648</ele>
        <time>2020-05-30T12:49:58.000Z</time>
      </trkpt>
      <trkpt lat="43.42747" lon="6.53512">
        <ele>259.60000610352</ele>
        <time>2020-05-30T12:49:59.000Z</time>
      </trkpt>
      <trkpt lat="43.42738" lon="6.53506">
        <ele>257.60000610352</ele>
        <time>2020-05-30T12:50:01.000Z</time>
      </trkpt>
      <trkpt lat="43.42734" lon="6.53502">
        <ele>256.60000610352</ele>
        <time>2020-05-30T12:50:02.000Z</time>
      </trkpt>
      <trkpt lat="43.42729" lon="6.53494">
        <ele>254.80000305176</ele>
        <time>2020-05-30T12:50:04.000Z</time>
      </trkpt>
      <trkpt lat="43.42723" lon="6.53493">
        <ele>253.80000305176</ele>
        <time>2020-05-30T12:50:06.000Z</time>
      </trkpt>
      <trkpt lat="43.42719" lon="6.5349">
        <ele>253.19999694824</ele>
        <time>2020-05-30T12:50:07.000Z</time>
      </trkpt>
      <trkpt lat="43.42715" lon="6.53488">
        <ele>252.80000305176</ele>
        <time>2020-05-30T12:50:08.000Z</time>
      </trkpt>
      <trkpt lat="43.42711" lon="6.53486">
        <ele>252.39999389648</ele>
        <time>2020-05-30T12:50:09.000Z</time>
      </trkpt>
      <trkpt lat="43.4271" lon="6.53482">
        <ele>251.80000305176</ele>
        <time>2020-05-30T12:50:10.000Z</time>
      </trkpt>
      <trkpt lat="43.42708" lon="6.53467">
        <ele>251.39999389648</ele>
        <time>2020-05-30T12:50:13.000Z</time>
      </trkpt>
      <trkpt lat="43.42709" lon="6.53463">
        <ele>250.80000305176</ele>
        <time>2020-05-30T12:50:14.000Z</time>
      </trkpt>
      <trkpt lat="43.42717" lon="6.53454">
        <ele>249.39999389648</ele>
        <time>2020-05-30T12:50:17.000Z</time>
      </trkpt>
      <trkpt lat="43.42716" lon="6.53442">
        <ele>248</ele>
        <time>2020-05-30T12:50:20.000Z</time>
      </trkpt>
      <trkpt lat="43.42709" lon="6.53436">
        <ele>246.39999389648</ele>
        <time>2020-05-30T12:50:22.000Z</time>
      </trkpt>
      <trkpt lat="43.42705" lon="6.53434">
        <ele>245.80000305176</ele>
        <time>2020-05-30T12:50:23.000Z</time>
      </trkpt>
      <trkpt lat="43.42701" lon="6.53434">
        <ele>245</ele>
        <time>2020-05-30T12:50:24.000Z</time>
      </trkpt>
      <trkpt lat="43.42696" lon="6.53428">
        <ele>244.19999694824</ele>
        <time>2020-05-30T12:50:26.000Z</time>
      </trkpt>
      <trkpt lat="43.42695" lon="6.53422">
        <ele>243.60000610352</ele>
        <time>2020-05-30T12:50:27.000Z</time>
      </trkpt>
      <trkpt lat="43.4269" lon="6.53415">
        <ele>243</ele>
        <time>2020-05-30T12:50:29.000Z</time>
      </trkpt>
      <trkpt lat="43.42686" lon="6.53414">
        <ele>242.60000610352</ele>
        <time>2020-05-30T12:50:30.000Z</time>
      </trkpt>
      <trkpt lat="43.42675" lon="6.5341">
        <ele>240.60000610352</ele>
        <time>2020-05-30T12:50:32.000Z</time>
      </trkpt>
      <trkpt lat="43.4267" lon="6.5341">
        <ele>239.39999389648</ele>
        <time>2020-05-30T12:50:33.000Z</time>
      </trkpt>
      <trkpt lat="43.42666" lon="6.53406">
        <ele>238.39999389648</ele>
        <time>2020-05-30T12:50:34.000Z</time>
      </trkpt>
      <trkpt lat="43.42663" lon="6.53403">
        <ele>237.39999389648</ele>
        <time>2020-05-30T12:50:35.000Z</time>
      </trkpt>
      <trkpt lat="43.42659" lon="6.534">
        <ele>236.80000305176</ele>
        <time>2020-05-30T12:50:36.000Z</time>
      </trkpt>
      <trkpt lat="43.42655" lon="6.53397">
        <ele>236.19999694824</ele>
        <time>2020-05-30T12:50:37.000Z</time>
      </trkpt>
      <trkpt lat="43.42652" lon="6.53396">
        <ele>235.60000610352</ele>
        <time>2020-05-30T12:50:38.000Z</time>
      </trkpt>
      <trkpt lat="43.42649" lon="6.53392">
        <ele>235.19999694824</ele>
        <time>2020-05-30T12:50:39.000Z</time>
      </trkpt>
      <trkpt lat="43.42644" lon="6.53387">
        <ele>234.19999694824</ele>
        <time>2020-05-30T12:50:41.000Z</time>
      </trkpt>
      <trkpt lat="43.4264" lon="6.53384">
        <ele>234</ele>
        <time>2020-05-30T12:50:42.000Z</time>
      </trkpt>
      <trkpt lat="43.42633" lon="6.53367">
        <ele>234</ele>
        <time>2020-05-30T12:50:45.000Z</time>
      </trkpt>
      <trkpt lat="43.42622" lon="6.53358">
        <ele>233.19999694824</ele>
        <time>2020-05-30T12:50:49.000Z</time>
      </trkpt>
      <trkpt lat="43.42613" lon="6.53345">
        <ele>232.60000610352</ele>
        <time>2020-05-30T12:50:52.000Z</time>
      </trkpt>
      <trkpt lat="43.42605" lon="6.53338">
        <ele>232.19999694824</ele>
        <time>2020-05-30T12:50:54.000Z</time>
      </trkpt>
      <trkpt lat="43.426" lon="6.53334">
        <ele>230.19999694824</ele>
        <time>2020-05-30T12:50:56.000Z</time>
      </trkpt>
      <trkpt lat="43.42598" lon="6.53328">
        <ele>228.60000610352</ele>
        <time>2020-05-30T12:50:58.000Z</time>
      </trkpt>
      <trkpt lat="43.42598" lon="6.53328">
        <ele>227.80000305176</ele>
        <time>2020-05-30T12:51:00.000Z</time>
      </trkpt>
      <trkpt lat="43.42597" lon="6.53328">
        <ele>227.60000610352</ele>
        <time>2020-05-30T12:51:01.000Z</time>
      </trkpt>
      <trkpt lat="43.42597" lon="6.53326">
        <ele>226.60000610352</ele>
        <time>2020-05-30T12:51:08.000Z</time>
      </trkpt>
      <trkpt lat="43.42597" lon="6.53326">
        <ele>226.60000610352</ele>
        <time>2020-05-30T12:51:09.000Z</time>
      </trkpt>
      <trkpt lat="43.42596" lon="6.53323">
        <ele>226.60000610352</ele>
        <time>2020-05-30T12:51:16.000Z</time>
      </trkpt>
      <trkpt lat="43.42586" lon="6.53312">
        <ele>225.80000305176</ele>
        <time>2020-05-30T12:51:20.000Z</time>
      </trkpt>
      <trkpt lat="43.42582" lon="6.53309">
        <ele>225.60000610352</ele>
        <time>2020-05-30T12:51:21.000Z</time>
      </trkpt>
      <trkpt lat="43.42575" lon="6.53305">
        <ele>224.39999389648</ele>
        <time>2020-05-30T12:51:23.000Z</time>
      </trkpt>
      <trkpt lat="43.42572" lon="6.53304">
        <ele>223.80000305176</ele>
        <time>2020-05-30T12:51:24.000Z</time>
      </trkpt>
      <trkpt lat="43.4257" lon="6.53301">
        <ele>223</ele>
        <time>2020-05-30T12:51:25.000Z</time>
      </trkpt>
      <trkpt lat="43.42566" lon="6.53296">
        <ele>222.80000305176</ele>
        <time>2020-05-30T12:51:27.000Z</time>
      </trkpt>
      <trkpt lat="43.42563" lon="6.53288">
        <ele>221.60000610352</ele>
        <time>2020-05-30T12:51:30.000Z</time>
      </trkpt>
      <trkpt lat="43.42563" lon="6.53284">
        <ele>220.19999694824</ele>
        <time>2020-05-30T12:51:33.000Z</time>
      </trkpt>
      <trkpt lat="43.42556" lon="6.53274">
        <ele>218.80000305176</ele>
        <time>2020-05-30T12:51:36.000Z</time>
      </trkpt>
      <trkpt lat="43.42553" lon="6.53263">
        <ele>217.39999389648</ele>
        <time>2020-05-30T12:51:38.000Z</time>
      </trkpt>
      <trkpt lat="43.42554" lon="6.53258">
        <ele>216.60000610352</ele>
        <time>2020-05-30T12:51:39.000Z</time>
      </trkpt>
      <trkpt lat="43.42555" lon="6.53256">
        <ele>215.80000305176</ele>
        <time>2020-05-30T12:51:40.000Z</time>
      </trkpt>
      <trkpt lat="43.42553" lon="6.53248">
        <ele>214</ele>
        <time>2020-05-30T12:51:42.000Z</time>
      </trkpt>
      <trkpt lat="43.42555" lon="6.53245">
        <ele>213.19999694824</ele>
        <time>2020-05-30T12:51:43.000Z</time>
      </trkpt>
      <trkpt lat="43.42557" lon="6.53243">
        <ele>212.60000610352</ele>
        <time>2020-05-30T12:51:44.000Z</time>
      </trkpt>
      <trkpt lat="43.42557" lon="6.53237">
        <ele>211.39999389648</ele>
        <time>2020-05-30T12:51:46.000Z</time>
      </trkpt>
      <trkpt lat="43.42555" lon="6.53231">
        <ele>210.80000305176</ele>
        <time>2020-05-30T12:51:47.000Z</time>
      </trkpt>
      <trkpt lat="43.42557" lon="6.53224">
        <ele>210.39999389648</ele>
        <time>2020-05-30T12:51:48.000Z</time>
      </trkpt>
      <trkpt lat="43.42559" lon="6.5322">
        <ele>209.80000305176</ele>
        <time>2020-05-30T12:51:49.000Z</time>
      </trkpt>
      <trkpt lat="43.42559" lon="6.53212">
        <ele>209.19999694824</ele>
        <time>2020-05-30T12:51:51.000Z</time>
      </trkpt>
      <trkpt lat="43.42558" lon="6.53207">
        <ele>208.60000610352</ele>
        <time>2020-05-30T12:51:52.000Z</time>
      </trkpt>
      <trkpt lat="43.42561" lon="6.53203">
        <ele>208</ele>
        <time>2020-05-30T12:51:53.000Z</time>
      </trkpt>
      <trkpt lat="43.42564" lon="6.53198">
        <ele>207.60000610352</ele>
        <time>2020-05-30T12:51:54.000Z</time>
      </trkpt>
      <trkpt lat="43.42566" lon="6.53192">
        <ele>207</ele>
        <time>2020-05-30T12:51:55.000Z</time>
      </trkpt>
      <trkpt lat="43.42573" lon="6.53183">
        <ele>205.80000305176</ele>
        <time>2020-05-30T12:51:57.000Z</time>
      </trkpt>
      <trkpt lat="43.42576" lon="6.53177">
        <ele>205.19999694824</ele>
        <time>2020-05-30T12:51:58.000Z</time>
      </trkpt>
      <trkpt lat="43.42577" lon="6.53173">
        <ele>204.39999389648</ele>
        <time>2020-05-30T12:51:59.000Z</time>
      </trkpt>
      <trkpt lat="43.42576" lon="6.5316">
        <ele>201.19999694824</ele>
        <time>2020-05-30T12:52:01.000Z</time>
      </trkpt>
      <trkpt lat="43.42574" lon="6.53154">
        <ele>200.19999694824</ele>
        <time>2020-05-30T12:52:02.000Z</time>
      </trkpt>
      <trkpt lat="43.42573" lon="6.53148">
        <ele>198.80000305176</ele>
        <time>2020-05-30T12:52:03.000Z</time>
      </trkpt>
      <trkpt lat="43.42572" lon="6.53141">
        <ele>197.80000305176</ele>
        <time>2020-05-30T12:52:04.000Z</time>
      </trkpt>
      <trkpt lat="43.42569" lon="6.53137">
        <ele>196.80000305176</ele>
        <time>2020-05-30T12:52:05.000Z</time>
      </trkpt>
      <trkpt lat="43.42566" lon="6.53132">
        <ele>196.39999389648</ele>
        <time>2020-05-30T12:52:06.000Z</time>
      </trkpt>
      <trkpt lat="43.42561" lon="6.53127">
        <ele>195.39999389648</ele>
        <time>2020-05-30T12:52:08.000Z</time>
      </trkpt>
      <trkpt lat="43.4256" lon="6.53123">
        <ele>195</ele>
        <time>2020-05-30T12:52:09.000Z</time>
      </trkpt>
      <trkpt lat="43.42559" lon="6.53113">
        <ele>194.19999694824</ele>
        <time>2020-05-30T12:52:12.000Z</time>
      </trkpt>
      <trkpt lat="43.42561" lon="6.53111">
        <ele>193.60000610352</ele>
        <time>2020-05-30T12:52:13.000Z</time>
      </trkpt>
      <trkpt lat="43.42562" lon="6.53104">
        <ele>192</ele>
        <time>2020-05-30T12:52:15.000Z</time>
      </trkpt>
      <trkpt lat="43.42562" lon="6.53095">
        <ele>190.39999389648</ele>
        <time>2020-05-30T12:52:17.000Z</time>
      </trkpt>
      <trkpt lat="43.42564" lon="6.53093">
        <ele>189.39999389648</ele>
        <time>2020-05-30T12:52:18.000Z</time>
      </trkpt>
      <trkpt lat="43.42568" lon="6.53089">
        <ele>187.39999389648</ele>
        <time>2020-05-30T12:52:20.000Z</time>
      </trkpt>
      <trkpt lat="43.42567" lon="6.53087">
        <ele>186.19999694824</ele>
        <time>2020-05-30T12:52:21.000Z</time>
      </trkpt>
      <trkpt lat="43.42567" lon="6.53083">
        <ele>185.19999694824</ele>
        <time>2020-05-30T12:52:22.000Z</time>
      </trkpt>
      <trkpt lat="43.4257" lon="6.53082">
        <ele>184.19999694824</ele>
        <time>2020-05-30T12:52:23.000Z</time>
      </trkpt>
      <trkpt lat="43.42571" lon="6.53079">
        <ele>183</ele>
        <time>2020-05-30T12:52:24.000Z</time>
      </trkpt>
      <trkpt lat="43.42572" lon="6.53075">
        <ele>182.19999694824</ele>
        <time>2020-05-30T12:52:25.000Z</time>
      </trkpt>
      <trkpt lat="43.42573" lon="6.53071">
        <ele>181.19999694824</ele>
        <time>2020-05-30T12:52:26.000Z</time>
      </trkpt>
      <trkpt lat="43.42575" lon="6.53068">
        <ele>180</ele>
        <time>2020-05-30T12:52:27.000Z</time>
      </trkpt>
      <trkpt lat="43.42574" lon="6.53066">
        <ele>179.39999389648</ele>
        <time>2020-05-30T12:52:28.000Z</time>
      </trkpt>
      <trkpt lat="43.42572" lon="6.53063">
        <ele>178.19999694824</ele>
        <time>2020-05-30T12:52:29.000Z</time>
      </trkpt>
      <trkpt lat="43.42573" lon="6.53058">
        <ele>176.19999694824</ele>
        <time>2020-05-30T12:52:31.000Z</time>
      </trkpt>
      <trkpt lat="43.42575" lon="6.53057">
        <ele>175.39999389648</ele>
        <time>2020-05-30T12:52:32.000Z</time>
      </trkpt>
      <trkpt lat="43.42579" lon="6.53055">
        <ele>174.39999389648</ele>
        <time>2020-05-30T12:52:33.000Z</time>
      </trkpt>
      <trkpt lat="43.42584" lon="6.5305">
        <ele>172.80000305176</ele>
        <time>2020-05-30T12:52:35.000Z</time>
      </trkpt>
      <trkpt lat="43.42584" lon="6.53048">
        <ele>172.19999694824</ele>
        <time>2020-05-30T12:52:36.000Z</time>
      </trkpt>
      <trkpt lat="43.42583" lon="6.53046">
        <ele>171.60000610352</ele>
        <time>2020-05-30T12:52:37.000Z</time>
      </trkpt>
      <trkpt lat="43.4258" lon="6.53043">
        <ele>170.39999389648</ele>
        <time>2020-05-30T12:52:38.000Z</time>
      </trkpt>
      <trkpt lat="43.4258" lon="6.53039">
        <ele>169.60000610352</ele>
        <time>2020-05-30T12:52:39.000Z</time>
      </trkpt>
      <trkpt lat="43.42583" lon="6.53037">
        <ele>168.80000305176</ele>
        <time>2020-05-30T12:52:40.000Z</time>
      </trkpt>
      <trkpt lat="43.42583" lon="6.53033">
        <ele>167</ele>
        <time>2020-05-30T12:52:42.000Z</time>
      </trkpt>
      <trkpt lat="43.4258" lon="6.53023">
        <ele>165.80000305176</ele>
        <time>2020-05-30T12:52:44.000Z</time>
      </trkpt>
      <trkpt lat="43.42577" lon="6.53019">
        <ele>164.80000305176</ele>
        <time>2020-05-30T12:52:45.000Z</time>
      </trkpt>
      <trkpt lat="43.42575" lon="6.53016">
        <ele>164</ele>
        <time>2020-05-30T12:52:46.000Z</time>
      </trkpt>
      <trkpt lat="43.42578" lon="6.53013">
        <ele>162.39999389648</ele>
        <time>2020-05-30T12:52:48.000Z</time>
      </trkpt>
      <trkpt lat="43.42577" lon="6.5301">
        <ele>160.80000305176</ele>
        <time>2020-05-30T12:52:50.000Z</time>
      </trkpt>
      <trkpt lat="43.42574" lon="6.53007">
        <ele>160.19999694824</ele>
        <time>2020-05-30T12:52:51.000Z</time>
      </trkpt>
      <trkpt lat="43.4257" lon="6.53003">
        <ele>159.19999694824</ele>
        <time>2020-05-30T12:52:52.000Z</time>
      </trkpt>
      <trkpt lat="43.42565" lon="6.52996">
        <ele>157.19999694824</ele>
        <time>2020-05-30T12:52:54.000Z</time>
      </trkpt>
      <trkpt lat="43.42568" lon="6.52991">
        <ele>156.19999694824</ele>
        <time>2020-05-30T12:52:56.000Z</time>
      </trkpt>
      <trkpt lat="43.42576" lon="6.52986">
        <ele>154.60000610352</ele>
        <time>2020-05-30T12:52:58.000Z</time>
      </trkpt>
      <trkpt lat="43.42581" lon="6.52986">
        <ele>154</ele>
        <time>2020-05-30T12:52:59.000Z</time>
      </trkpt>
      <trkpt lat="43.42584" lon="6.52984">
        <ele>153</ele>
        <time>2020-05-30T12:53:00.000Z</time>
      </trkpt>
      <trkpt lat="43.42583" lon="6.52977">
        <ele>151.19999694824</ele>
        <time>2020-05-30T12:53:02.000Z</time>
      </trkpt>
      <trkpt lat="43.42577" lon="6.52973">
        <ele>149.60000610352</ele>
        <time>2020-05-30T12:53:04.000Z</time>
      </trkpt>
      <trkpt lat="43.42577" lon="6.52968">
        <ele>148.80000305176</ele>
        <time>2020-05-30T12:53:05.000Z</time>
      </trkpt>
      <trkpt lat="43.42579" lon="6.52966">
        <ele>148</ele>
        <time>2020-05-30T12:53:06.000Z</time>
      </trkpt>
      <trkpt lat="43.42579" lon="6.52961">
        <ele>146.80000305176</ele>
        <time>2020-05-30T12:53:08.000Z</time>
      </trkpt>
      <trkpt lat="43.42576" lon="6.52952">
        <ele>145.39999389648</ele>
        <time>2020-05-30T12:53:10.000Z</time>
      </trkpt>
      <trkpt lat="43.42576" lon="6.52946">
        <ele>144.80000305176</ele>
        <time>2020-05-30T12:53:11.000Z</time>
      </trkpt>
      <trkpt lat="43.42574" lon="6.52942">
        <ele>143.60000610352</ele>
        <time>2020-05-30T12:53:12.000Z</time>
      </trkpt>
      <trkpt lat="43.42569" lon="6.52933">
        <ele>141.80000305176</ele>
        <time>2020-05-30T12:53:14.000Z</time>
      </trkpt>
      <trkpt lat="43.42567" lon="6.52928">
        <ele>139.80000305176</ele>
        <time>2020-05-30T12:53:16.000Z</time>
      </trkpt>
      <trkpt lat="43.42568" lon="6.52924">
        <ele>139</ele>
        <time>2020-05-30T12:53:17.000Z</time>
      </trkpt>
      <trkpt lat="43.42569" lon="6.52921">
        <ele>138.19999694824</ele>
        <time>2020-05-30T12:53:18.000Z</time>
      </trkpt>
      <trkpt lat="43.42568" lon="6.52915">
        <ele>136.39999389648</ele>
        <time>2020-05-30T12:53:20.000Z</time>
      </trkpt>
      <trkpt lat="43.42568" lon="6.52914">
        <ele>135.60000610352</ele>
        <time>2020-05-30T12:53:21.000Z</time>
      </trkpt>
      <trkpt lat="43.42568" lon="6.52914">
        <ele>135</ele>
        <time>2020-05-30T12:53:22.000Z</time>
      </trkpt>
      <trkpt lat="43.42568" lon="6.52913">
        <ele>134</ele>
        <time>2020-05-30T12:53:25.000Z</time>
      </trkpt>
      <trkpt lat="43.42568" lon="6.52913">
        <ele>133.80000305176</ele>
        <time>2020-05-30T12:53:27.000Z</time>
      </trkpt>
      <trkpt lat="43.42568" lon="6.52913">
        <ele>133.80000305176</ele>
        <time>2020-05-30T12:53:35.000Z</time>
      </trkpt>
      <trkpt lat="43.42569" lon="6.52912">
        <ele>133.60000610352</ele>
        <time>2020-05-30T12:53:43.000Z</time>
      </trkpt>
      <trkpt lat="43.4257" lon="6.52913">
        <ele>133.60000610352</ele>
        <time>2020-05-30T12:53:59.000Z</time>
      </trkpt>
      <trkpt lat="43.42569" lon="6.52911">
        <ele>133.60000610352</ele>
        <time>2020-05-30T12:54:02.000Z</time>
      </trkpt>
      <trkpt lat="43.42567" lon="6.52907">
        <ele>133.60000610352</ele>
        <time>2020-05-30T12:54:04.000Z</time>
      </trkpt>
      <trkpt lat="43.42562" lon="6.52904">
        <ele>133.39999389648</ele>
        <time>2020-05-30T12:54:07.000Z</time>
      </trkpt>
      <trkpt lat="43.42559" lon="6.52901">
        <ele>133</ele>
        <time>2020-05-30T12:54:08.000Z</time>
      </trkpt>
      <trkpt lat="43.42562" lon="6.52894">
        <ele>131.80000305176</ele>
        <time>2020-05-30T12:54:10.000Z</time>
      </trkpt>
      <trkpt lat="43.42563" lon="6.52892">
        <ele>131.19999694824</ele>
        <time>2020-05-30T12:54:11.000Z</time>
      </trkpt>
      <trkpt lat="43.42565" lon="6.52887">
        <ele>130.60000610352</ele>
        <time>2020-05-30T12:54:12.000Z</time>
      </trkpt>
      <trkpt lat="43.42564" lon="6.52878">
        <ele>129.80000305176</ele>
        <time>2020-05-30T12:54:14.000Z</time>
      </trkpt>
      <trkpt lat="43.42559" lon="6.5287">
        <ele>129.19999694824</ele>
        <time>2020-05-30T12:54:16.000Z</time>
      </trkpt>
      <trkpt lat="43.42558" lon="6.52866">
        <ele>129</ele>
        <time>2020-05-30T12:54:17.000Z</time>
      </trkpt>
      <trkpt lat="43.42561" lon="6.52858">
        <ele>128.19999694824</ele>
        <time>2020-05-30T12:54:19.000Z</time>
      </trkpt>
      <trkpt lat="43.42564" lon="6.52855">
        <ele>127.40000152588</ele>
        <time>2020-05-30T12:54:20.000Z</time>
      </trkpt>
      <trkpt lat="43.42566" lon="6.52851">
        <ele>127</ele>
        <time>2020-05-30T12:54:21.000Z</time>
      </trkpt>
      <trkpt lat="43.4257" lon="6.5284">
        <ele>126</ele>
        <time>2020-05-30T12:54:23.000Z</time>
      </trkpt>
      <trkpt lat="43.42571" lon="6.52836">
        <ele>126</ele>
        <time>2020-05-30T12:54:24.000Z</time>
      </trkpt>
      <trkpt lat="43.42567" lon="6.52829">
        <ele>124.59999847412</ele>
        <time>2020-05-30T12:54:26.000Z</time>
      </trkpt>
      <trkpt lat="43.42568" lon="6.52824">
        <ele>123.80000305176</ele>
        <time>2020-05-30T12:54:27.000Z</time>
      </trkpt>
      <trkpt lat="43.42567" lon="6.5282">
        <ele>123.19999694824</ele>
        <time>2020-05-30T12:54:28.000Z</time>
      </trkpt>
      <trkpt lat="43.42566" lon="6.52815">
        <ele>122.19999694824</ele>
        <time>2020-05-30T12:54:29.000Z</time>
      </trkpt>
      <trkpt lat="43.42568" lon="6.52805">
        <ele>121</ele>
        <time>2020-05-30T12:54:31.000Z</time>
      </trkpt>
      <trkpt lat="43.42563" lon="6.52798">
        <ele>119.59999847412</ele>
        <time>2020-05-30T12:54:33.000Z</time>
      </trkpt>
      <trkpt lat="43.42562" lon="6.52793">
        <ele>119.19999694824</ele>
        <time>2020-05-30T12:54:34.000Z</time>
      </trkpt>
      <trkpt lat="43.42566" lon="6.52787">
        <ele>118.19999694824</ele>
        <time>2020-05-30T12:54:36.000Z</time>
      </trkpt>
      <trkpt lat="43.42567" lon="6.5278">
        <ele>116.80000305176</ele>
        <time>2020-05-30T12:54:38.000Z</time>
      </trkpt>
      <trkpt lat="43.42564" lon="6.52777">
        <ele>116.40000152588</ele>
        <time>2020-05-30T12:54:39.000Z</time>
      </trkpt>
      <trkpt lat="43.42565" lon="6.52774">
        <ele>115.59999847412</ele>
        <time>2020-05-30T12:54:40.000Z</time>
      </trkpt>
      <trkpt lat="43.42566" lon="6.52771">
        <ele>114.59999847412</ele>
        <time>2020-05-30T12:54:41.000Z</time>
      </trkpt>
      <trkpt lat="43.42566" lon="6.52768">
        <ele>113.80000305176</ele>
        <time>2020-05-30T12:54:42.000Z</time>
      </trkpt>
      <trkpt lat="43.42563" lon="6.52767">
        <ele>112.80000305176</ele>
        <time>2020-05-30T12:54:43.000Z</time>
      </trkpt>
      <trkpt lat="43.42563" lon="6.5276">
        <ele>111.59999847412</ele>
        <time>2020-05-30T12:54:45.000Z</time>
      </trkpt>
      <trkpt lat="43.42559" lon="6.52755">
        <ele>110.19999694824</ele>
        <time>2020-05-30T12:54:47.000Z</time>
      </trkpt>
      <trkpt lat="43.4256" lon="6.52751">
        <ele>109.59999847412</ele>
        <time>2020-05-30T12:54:48.000Z</time>
      </trkpt>
      <trkpt lat="43.42562" lon="6.52748">
        <ele>108.59999847412</ele>
        <time>2020-05-30T12:54:49.000Z</time>
      </trkpt>
      <trkpt lat="43.42562" lon="6.52741">
        <ele>107.40000152588</ele>
        <time>2020-05-30T12:54:51.000Z</time>
      </trkpt>
      <trkpt lat="43.42565" lon="6.52736">
        <ele>105.80000305176</ele>
        <time>2020-05-30T12:54:53.000Z</time>
      </trkpt>
      <trkpt lat="43.42567" lon="6.52731">
        <ele>105.19999694824</ele>
        <time>2020-05-30T12:54:54.000Z</time>
      </trkpt>
      <trkpt lat="43.42569" lon="6.52727">
        <ele>104.59999847412</ele>
        <time>2020-05-30T12:54:55.000Z</time>
      </trkpt>
      <trkpt lat="43.42576" lon="6.5272">
        <ele>103</ele>
        <time>2020-05-30T12:54:57.000Z</time>
      </trkpt>
      <trkpt lat="43.42579" lon="6.52718">
        <ele>102.40000152588</ele>
        <time>2020-05-30T12:54:58.000Z</time>
      </trkpt>
      <trkpt lat="43.42579" lon="6.52716">
        <ele>101.19999694824</ele>
        <time>2020-05-30T12:54:59.000Z</time>
      </trkpt>
      <trkpt lat="43.42577" lon="6.52713">
        <ele>100.19999694824</ele>
        <time>2020-05-30T12:55:00.000Z</time>
      </trkpt>
      <trkpt lat="43.42574" lon="6.5271">
        <ele>99.400001525879</ele>
        <time>2020-05-30T12:55:01.000Z</time>
      </trkpt>
      <trkpt lat="43.42572" lon="6.52702">
        <ele>98</ele>
        <time>2020-05-30T12:55:03.000Z</time>
      </trkpt>
      <trkpt lat="43.42577" lon="6.52693">
        <ele>96.800003051758</ele>
        <time>2020-05-30T12:55:05.000Z</time>
      </trkpt>
      <trkpt lat="43.42582" lon="6.52691">
        <ele>95.800003051758</ele>
        <time>2020-05-30T12:55:06.000Z</time>
      </trkpt>
      <trkpt lat="43.42586" lon="6.52691">
        <ele>95</ele>
        <time>2020-05-30T12:55:07.000Z</time>
      </trkpt>
      <trkpt lat="43.42589" lon="6.52693">
        <ele>93.800003051758</ele>
        <time>2020-05-30T12:55:08.000Z</time>
      </trkpt>
      <trkpt lat="43.42592" lon="6.52695">
        <ele>92.599998474121</ele>
        <time>2020-05-30T12:55:09.000Z</time>
      </trkpt>
      <trkpt lat="43.42595" lon="6.52697">
        <ele>92.199996948242</ele>
        <time>2020-05-30T12:55:10.000Z</time>
      </trkpt>
      <trkpt lat="43.426" lon="6.52699">
        <ele>92</ele>
        <time>2020-05-30T12:55:12.000Z</time>
      </trkpt>
      <trkpt lat="43.426" lon="6.52696">
        <ele>92.199996948242</ele>
        <time>2020-05-30T12:55:13.000Z</time>
      </trkpt>
      <trkpt lat="43.42597" lon="6.52693">
        <ele>93.199996948242</ele>
        <time>2020-05-30T12:55:16.000Z</time>
      </trkpt>
      <trkpt lat="43.42585" lon="6.52688">
        <ele>92.400001525879</ele>
        <time>2020-05-30T12:55:20.000Z</time>
      </trkpt>
      <trkpt lat="43.42581" lon="6.52683">
        <ele>91.599998474121</ele>
        <time>2020-05-30T12:55:22.000Z</time>
      </trkpt>
      <trkpt lat="43.42582" lon="6.52681">
        <ele>91</ele>
        <time>2020-05-30T12:55:23.000Z</time>
      </trkpt>
      <trkpt lat="43.42585" lon="6.52678">
        <ele>90.400001525879</ele>
        <time>2020-05-30T12:55:24.000Z</time>
      </trkpt>
      <trkpt lat="43.42588" lon="6.52673">
        <ele>89.400001525879</ele>
        <time>2020-05-30T12:55:26.000Z</time>
      </trkpt>
      <trkpt lat="43.42586" lon="6.52668">
        <ele>88</ele>
        <time>2020-05-30T12:55:28.000Z</time>
      </trkpt>
      <trkpt lat="43.42586" lon="6.52668">
        <ele>87.199996948242</ele>
        <time>2020-05-30T12:55:29.000Z</time>
      </trkpt>
      <trkpt lat="43.42586" lon="6.52668">
        <ele>86.400001525879</ele>
        <time>2020-05-30T12:55:30.000Z</time>
      </trkpt>
      <trkpt lat="43.42586" lon="6.52667">
        <ele>85.199996948242</ele>
        <time>2020-05-30T12:55:32.000Z</time>
      </trkpt>
      <trkpt lat="43.42586" lon="6.52667">
        <ele>84.199996948242</ele>
        <time>2020-05-30T12:55:34.000Z</time>
      </trkpt>
      <trkpt lat="43.42586" lon="6.52667">
        <ele>84.199996948242</ele>
        <time>2020-05-30T12:55:36.000Z</time>
      </trkpt>
      <trkpt lat="43.42584" lon="6.52663">
        <ele>83.599998474121</ele>
        <time>2020-05-30T12:55:41.000Z</time>
      </trkpt>
      <trkpt lat="43.42584" lon="6.52663">
        <ele>83</ele>
        <time>2020-05-30T12:55:43.000Z</time>
      </trkpt>
      <trkpt lat="43.42584" lon="6.52662">
        <ele>82.199996948242</ele>
        <time>2020-05-30T12:55:52.000Z</time>
      </trkpt>
      <trkpt lat="43.42584" lon="6.52661">
        <ele>82</ele>
        <time>2020-05-30T12:55:54.000Z</time>
      </trkpt>
      <trkpt lat="43.42583" lon="6.5266">
        <ele>82.199996948242</ele>
        <time>2020-05-30T12:56:01.000Z</time>
      </trkpt>
      <trkpt lat="43.42583" lon="6.52659">
        <ele>81.800003051758</ele>
        <time>2020-05-30T12:56:11.000Z</time>
      </trkpt>
      <trkpt lat="43.42582" lon="6.52656">
        <ele>81.800003051758</ele>
        <time>2020-05-30T12:56:19.000Z</time>
      </trkpt>
      <trkpt lat="43.42581" lon="6.52654">
        <ele>81.400001525879</ele>
        <time>2020-05-30T12:56:28.000Z</time>
      </trkpt>
      <trkpt lat="43.42582" lon="6.52654">
        <ele>81</ele>
        <time>2020-05-30T12:56:31.000Z</time>
      </trkpt>
      <trkpt lat="43.42583" lon="6.52654">
        <ele>80.800003051758</ele>
        <time>2020-05-30T12:56:32.000Z</time>
      </trkpt>
      <trkpt lat="43.42584" lon="6.52654">
        <ele>80.599998474121</ele>
        <time>2020-05-30T12:56:35.000Z</time>
      </trkpt>
      <trkpt lat="43.42589" lon="6.52652">
        <ele>80.199996948242</ele>
        <time>2020-05-30T12:56:40.000Z</time>
      </trkpt>
      <trkpt lat="43.42598" lon="6.52648">
        <ele>79.599998474121</ele>
        <time>2020-05-30T12:56:43.000Z</time>
      </trkpt>
      <trkpt lat="43.42601" lon="6.52646">
        <ele>79</ele>
        <time>2020-05-30T12:56:44.000Z</time>
      </trkpt>
      <trkpt lat="43.42605" lon="6.52644">
        <ele>78.400001525879</ele>
        <time>2020-05-30T12:56:45.000Z</time>
      </trkpt>
      <trkpt lat="43.42609" lon="6.52643">
        <ele>77.599998474121</ele>
        <time>2020-05-30T12:56:46.000Z</time>
      </trkpt>
      <trkpt lat="43.42614" lon="6.52644">
        <ele>77</ele>
        <time>2020-05-30T12:56:47.000Z</time>
      </trkpt>
      <trkpt lat="43.42618" lon="6.52643">
        <ele>76.400001525879</ele>
        <time>2020-05-30T12:56:48.000Z</time>
      </trkpt>
      <trkpt lat="43.42622" lon="6.52642">
        <ele>75.599998474121</ele>
        <time>2020-05-30T12:56:49.000Z</time>
      </trkpt>
      <trkpt lat="43.42627" lon="6.52641">
        <ele>74.599998474121</ele>
        <time>2020-05-30T12:56:51.000Z</time>
      </trkpt>
      <trkpt lat="43.4263" lon="6.52638">
        <ele>74.400001525879</ele>
        <time>2020-05-30T12:56:52.000Z</time>
      </trkpt>
      <trkpt lat="43.42641" lon="6.52635">
        <ele>73.599998474121</ele>
        <time>2020-05-30T12:56:55.000Z</time>
      </trkpt>
      <trkpt lat="43.42645" lon="6.52636">
        <ele>72.400001525879</ele>
        <time>2020-05-30T12:56:56.000Z</time>
      </trkpt>
      <trkpt lat="43.42649" lon="6.52637">
        <ele>71.400001525879</ele>
        <time>2020-05-30T12:56:57.000Z</time>
      </trkpt>
      <trkpt lat="43.42652" lon="6.52638">
        <ele>70.199996948242</ele>
        <time>2020-05-30T12:56:58.000Z</time>
      </trkpt>
      <trkpt lat="43.42658" lon="6.5264">
        <ele>68.199996948242</ele>
        <time>2020-05-30T12:57:00.000Z</time>
      </trkpt>
      <trkpt lat="43.42661" lon="6.52643">
        <ele>67.599998474121</ele>
        <time>2020-05-30T12:57:01.000Z</time>
      </trkpt>
      <trkpt lat="43.42663" lon="6.52647">
        <ele>67</ele>
        <time>2020-05-30T12:57:02.000Z</time>
      </trkpt>
      <trkpt lat="43.42666" lon="6.52652">
        <ele>65.800003051758</ele>
        <time>2020-05-30T12:57:03.000Z</time>
      </trkpt>
      <trkpt lat="43.42668" lon="6.52655">
        <ele>64</ele>
        <time>2020-05-30T12:57:04.000Z</time>
      </trkpt>
      <trkpt lat="43.42671" lon="6.52656">
        <ele>63.400001525879</ele>
        <time>2020-05-30T12:57:05.000Z</time>
      </trkpt>
      <trkpt lat="43.42673" lon="6.52655">
        <ele>61.799999237061</ele>
        <time>2020-05-30T12:57:06.000Z</time>
      </trkpt>
      <trkpt lat="43.42674" lon="6.52652">
        <ele>60.599998474121</ele>
        <time>2020-05-30T12:57:07.000Z</time>
      </trkpt>
      <trkpt lat="43.42673" lon="6.52648">
        <ele>59.799999237061</ele>
        <time>2020-05-30T12:57:08.000Z</time>
      </trkpt>
      <trkpt lat="43.42673" lon="6.52642">
        <ele>59.400001525879</ele>
        <time>2020-05-30T12:57:09.000Z</time>
      </trkpt>
      <trkpt lat="43.42673" lon="6.52632">
        <ele>58.799999237061</ele>
        <time>2020-05-30T12:57:11.000Z</time>
      </trkpt>
      <trkpt lat="43.42674" lon="6.52616">
        <ele>58.200000762939</ele>
        <time>2020-05-30T12:57:14.000Z</time>
      </trkpt>
      <trkpt lat="43.42676" lon="6.52613">
        <ele>57.599998474121</ele>
        <time>2020-05-30T12:57:15.000Z</time>
      </trkpt>
      <trkpt lat="43.42679" lon="6.52608">
        <ele>57.200000762939</ele>
        <time>2020-05-30T12:57:17.000Z</time>
      </trkpt>
      <trkpt lat="43.4268" lon="6.52605">
        <ele>56.799999237061</ele>
        <time>2020-05-30T12:57:18.000Z</time>
      </trkpt>
      <trkpt lat="43.42682" lon="6.52602">
        <ele>57</ele>
        <time>2020-05-30T12:57:19.000Z</time>
      </trkpt>
      <trkpt lat="43.42686" lon="6.52596">
        <ele>58.400001525879</ele>
        <time>2020-05-30T12:57:21.000Z</time>
      </trkpt>
      <trkpt lat="43.42689" lon="6.52587">
        <ele>59.200000762939</ele>
        <time>2020-05-30T12:57:24.000Z</time>
      </trkpt>
      <trkpt lat="43.42691" lon="6.52584">
        <ele>59.400001525879</ele>
        <time>2020-05-30T12:57:25.000Z</time>
      </trkpt>
      <trkpt lat="43.42689" lon="6.52579">
        <ele>59.200000762939</ele>
        <time>2020-05-30T12:57:27.000Z</time>
      </trkpt>
      <trkpt lat="43.42687" lon="6.52574">
        <ele>59</ele>
        <time>2020-05-30T12:57:28.000Z</time>
      </trkpt>
      <trkpt lat="43.42686" lon="6.5257">
        <ele>58.400001525879</ele>
        <time>2020-05-30T12:57:29.000Z</time>
      </trkpt>
      <trkpt lat="43.42684" lon="6.52564">
        <ele>57.200000762939</ele>
        <time>2020-05-30T12:57:31.000Z</time>
      </trkpt>
      <trkpt lat="43.42681" lon="6.52559">
        <ele>56.200000762939</ele>
        <time>2020-05-30T12:57:32.000Z</time>
      </trkpt>
      <trkpt lat="43.42681" lon="6.52555">
        <ele>55.200000762939</ele>
        <time>2020-05-30T12:57:33.000Z</time>
      </trkpt>
      <trkpt lat="43.42682" lon="6.52549">
        <ele>54.200000762939</ele>
        <time>2020-05-30T12:57:34.000Z</time>
      </trkpt>
      <trkpt lat="43.42685" lon="6.52545">
        <ele>53</ele>
        <time>2020-05-30T12:57:35.000Z</time>
      </trkpt>
      <trkpt lat="43.42687" lon="6.52538">
        <ele>51.799999237061</ele>
        <time>2020-05-30T12:57:37.000Z</time>
      </trkpt>
      <trkpt lat="43.42686" lon="6.52533">
        <ele>50.400001525879</ele>
        <time>2020-05-30T12:57:39.000Z</time>
      </trkpt>
      <trkpt lat="43.42684" lon="6.52531">
        <ele>50</ele>
        <time>2020-05-30T12:57:40.000Z</time>
      </trkpt>
      <trkpt lat="43.42682" lon="6.52528">
        <ele>50.200000762939</ele>
        <time>2020-05-30T12:57:41.000Z</time>
      </trkpt>
      <trkpt lat="43.42675" lon="6.52522">
        <ele>49.200000762939</ele>
        <time>2020-05-30T12:57:44.000Z</time>
      </trkpt>
      <trkpt lat="43.42675" lon="6.52519">
        <ele>49.200000762939</ele>
        <time>2020-05-30T12:57:45.000Z</time>
      </trkpt>
      <trkpt lat="43.42676" lon="6.52508">
        <ele>49.799999237061</ele>
        <time>2020-05-30T12:57:48.000Z</time>
      </trkpt>
      <trkpt lat="43.42678" lon="6.52503">
        <ele>50.200000762939</ele>
        <time>2020-05-30T12:57:50.000Z</time>
      </trkpt>
      <trkpt lat="43.42678" lon="6.52499">
        <ele>50.200000762939</ele>
        <time>2020-05-30T12:57:52.000Z</time>
      </trkpt>
      <trkpt lat="43.42678" lon="6.525">
        <ele>50</ele>
        <time>2020-05-30T12:57:53.000Z</time>
      </trkpt>
      <trkpt lat="43.42677" lon="6.52498">
        <ele>50.200000762939</ele>
        <time>2020-05-30T12:57:55.000Z</time>
      </trkpt>
      <trkpt lat="43.42677" lon="6.52497">
        <ele>50.400001525879</ele>
        <time>2020-05-30T12:57:57.000Z</time>
      </trkpt>
      <trkpt lat="43.42676" lon="6.52495">
        <ele>49.799999237061</ele>
        <time>2020-05-30T12:58:03.000Z</time>
      </trkpt>
      <trkpt lat="43.42676" lon="6.52495">
        <ele>49.599998474121</ele>
        <time>2020-05-30T12:58:10.000Z</time>
      </trkpt>
      <trkpt lat="43.42676" lon="6.52496">
        <ele>49.599998474121</ele>
        <time>2020-05-30T12:58:16.000Z</time>
      </trkpt>
      <trkpt lat="43.42677" lon="6.52496">
        <ele>49.599998474121</ele>
        <time>2020-05-30T12:58:25.000Z</time>
      </trkpt>
      <trkpt lat="43.42677" lon="6.52496">
        <ele>49.200000762939</ele>
        <time>2020-05-30T12:58:28.000Z</time>
      </trkpt>
      <trkpt lat="43.42678" lon="6.52496">
        <ele>49.400001525879</ele>
        <time>2020-05-30T12:58:35.000Z</time>
      </trkpt>
      <trkpt lat="43.42678" lon="6.52497">
        <ele>49.200000762939</ele>
        <time>2020-05-30T12:58:47.000Z</time>
      </trkpt>
      <trkpt lat="43.42679" lon="6.52497">
        <ele>49.599998474121</ele>
        <time>2020-05-30T12:59:07.000Z</time>
      </trkpt>
      <trkpt lat="43.42679" lon="6.52498">
        <ele>49.599998474121</ele>
        <time>2020-05-30T12:59:17.000Z</time>
      </trkpt>
      <trkpt lat="43.42677" lon="6.52506">
        <ele>49.599998474121</ele>
        <time>2020-05-30T12:59:22.000Z</time>
      </trkpt>
      <trkpt lat="43.42668" lon="6.52524">
        <ele>50</ele>
        <time>2020-05-30T12:59:28.000Z</time>
      </trkpt>
      <trkpt lat="43.42663" lon="6.52529">
        <ele>50.200000762939</ele>
        <time>2020-05-30T12:59:30.000Z</time>
      </trkpt>
      <trkpt lat="43.42647" lon="6.52545">
        <ele>50.799999237061</ele>
        <time>2020-05-30T12:59:37.000Z</time>
      </trkpt>
      <trkpt lat="43.42638" lon="6.52553">
        <ele>51.400001525879</ele>
        <time>2020-05-30T12:59:41.000Z</time>
      </trkpt>
      <trkpt lat="43.42628" lon="6.52559">
        <ele>52</ele>
        <time>2020-05-30T12:59:45.000Z</time>
      </trkpt>
      <trkpt lat="43.42614" lon="6.52563">
        <ele>52.400001525879</ele>
        <time>2020-05-30T12:59:50.000Z</time>
      </trkpt>
      <trkpt lat="43.42608" lon="6.52564">
        <ele>52.599998474121</ele>
        <time>2020-05-30T12:59:52.000Z</time>
      </trkpt>
      <trkpt lat="43.4259" lon="6.52557">
        <ele>53</ele>
        <time>2020-05-30T12:59:58.000Z</time>
      </trkpt>
      <trkpt lat="43.42561" lon="6.52544">
        <ele>52.599998474121</ele>
        <time>2020-05-30T13:00:07.000Z</time>
      </trkpt>
      <trkpt lat="43.42541" lon="6.52534">
        <ele>52.799999237061</ele>
        <time>2020-05-30T13:00:14.000Z</time>
      </trkpt>
      <trkpt lat="43.42524" lon="6.5253">
        <ele>53.200000762939</ele>
        <time>2020-05-30T13:00:20.000Z</time>
      </trkpt>
      <trkpt lat="43.42507" lon="6.52537">
        <ele>53</ele>
        <time>2020-05-30T13:00:26.000Z</time>
      </trkpt>
      <trkpt lat="43.42482" lon="6.52553">
        <ele>53.200000762939</ele>
        <time>2020-05-30T13:00:34.000Z</time>
      </trkpt>
      <trkpt lat="43.42477" lon="6.52556">
        <ele>53.599998474121</ele>
        <time>2020-05-30T13:00:36.000Z</time>
      </trkpt>
      <trkpt lat="43.42468" lon="6.52563">
        <ele>54</ele>
        <time>2020-05-30T13:00:40.000Z</time>
      </trkpt>
      <trkpt lat="43.42454" lon="6.52571">
        <ele>54.599998474121</ele>
        <time>2020-05-30T13:00:45.000Z</time>
      </trkpt>
      <trkpt lat="43.42445" lon="6.52575">
        <ele>55</ele>
        <time>2020-05-30T13:00:48.000Z</time>
      </trkpt>
      <trkpt lat="43.42431" lon="6.52574">
        <ele>55.599998474121</ele>
        <time>2020-05-30T13:00:53.000Z</time>
      </trkpt>
      <trkpt lat="43.42429" lon="6.52573">
        <ele>55.799999237061</ele>
        <time>2020-05-30T13:00:54.000Z</time>
      </trkpt>
      <trkpt lat="43.42424" lon="6.52572">
        <ele>56.799999237061</ele>
        <time>2020-05-30T13:00:58.000Z</time>
      </trkpt>
      <trkpt lat="43.42421" lon="6.52572">
        <ele>57</ele>
        <time>2020-05-30T13:01:00.000Z</time>
      </trkpt>
      <trkpt lat="43.42421" lon="6.52571">
        <ele>57</ele>
        <time>2020-05-30T13:01:04.000Z</time>
      </trkpt>
      <trkpt lat="43.42419" lon="6.5257">
        <ele>57.400001525879</ele>
        <time>2020-05-30T13:01:24.000Z</time>
      </trkpt>
      <trkpt lat="43.42418" lon="6.5257">
        <ele>57.599998474121</ele>
        <time>2020-05-30T13:01:45.000Z</time>
      </trkpt>
      <trkpt lat="43.42417" lon="6.52569">
        <ele>57.400001525879</ele>
        <time>2020-05-30T13:02:05.000Z</time>
      </trkpt>
      <trkpt lat="43.42417" lon="6.52569">
        <ele>57.400001525879</ele>
        <time>2020-05-30T13:02:28.000Z</time>
      </trkpt>
      <trkpt lat="43.42417" lon="6.52569">
        <ele>57.400001525879</ele>
        <time>2020-05-30T13:02:50.000Z</time>
      </trkpt>
      <trkpt lat="43.42418" lon="6.5257">
        <ele>57.200000762939</ele>
        <time>2020-05-30T13:03:16.000Z</time>
      </trkpt>
      <trkpt lat="43.42418" lon="6.52571">
        <ele>57.200000762939</ele>
        <time>2020-05-30T13:03:38.000Z</time>
      </trkpt>
      <trkpt lat="43.42418" lon="6.52572">
        <ele>57.200000762939</ele>
        <time>2020-05-30T13:04:05.000Z</time>
      </trkpt>
      <trkpt lat="43.42418" lon="6.52573">
        <ele>57</ele>
        <time>2020-05-30T13:04:25.000Z</time>
      </trkpt>
      <trkpt lat="43.42419" lon="6.52573">
        <ele>56.799999237061</ele>
        <time>2020-05-30T13:04:46.000Z</time>
      </trkpt>
      <trkpt lat="43.42419" lon="6.52573">
        <ele>56.599998474121</ele>
        <time>2020-05-30T13:05:08.000Z</time>
      </trkpt>
      <trkpt lat="43.42418" lon="6.52573">
        <ele>56.799999237061</ele>
        <time>2020-05-30T13:05:29.000Z</time>
      </trkpt>
      <trkpt lat="43.42419" lon="6.52573">
        <ele>56.599998474121</ele>
        <time>2020-05-30T13:05:48.000Z</time>
      </trkpt>
      <trkpt lat="43.42419" lon="6.52573">
        <ele>56.599998474121</ele>
        <time>2020-05-30T13:06:01.000Z</time>
      </trkpt>
      <trkpt lat="43.42418" lon="6.52572">
        <ele>56.599998474121</ele>
        <time>2020-05-30T13:06:20.000Z</time>
      </trkpt>
      <trkpt lat="43.42418" lon="6.52571">
        <ele>56.200000762939</ele>
        <time>2020-05-30T13:06:27.000Z</time>
      </trkpt>
      <trkpt lat="43.42418" lon="6.52571">
        <ele>57</ele>
        <time>2020-05-30T13:06:44.000Z</time>
      </trkpt>
      <trkpt lat="43.42418" lon="6.52571">
        <ele>56.400001525879</ele>
        <time>2020-05-30T13:06:56.000Z</time>
      </trkpt>
      <trkpt lat="43.42416" lon="6.52575">
        <ele>56.400001525879</ele>
        <time>2020-05-30T13:07:15.000Z</time>
      </trkpt>
      <trkpt lat="43.42415" lon="6.52575">
        <ele>56.400001525879</ele>
        <time>2020-05-30T13:07:33.000Z</time>
      </trkpt>
      <trkpt lat="43.42415" lon="6.52574">
        <ele>56.400001525879</ele>
        <time>2020-05-30T13:07:44.000Z</time>
      </trkpt>
      <trkpt lat="43.42416" lon="6.52574">
        <ele>56.400001525879</ele>
        <time>2020-05-30T13:08:00.000Z</time>
      </trkpt>
      <trkpt lat="43.42416" lon="6.52574">
        <ele>57</ele>
        <time>2020-05-30T13:08:11.000Z</time>
      </trkpt>
      <trkpt lat="43.42416" lon="6.52574">
        <ele>57.200000762939</ele>
        <time>2020-05-30T13:08:22.000Z</time>
      </trkpt>
      <trkpt lat="43.42416" lon="6.52574">
        <ele>57.400001525879</ele>
        <time>2020-05-30T13:08:33.000Z</time>
      </trkpt>
      <trkpt lat="43.42416" lon="6.52574">
        <ele>57.200000762939</ele>
        <time>2020-05-30T13:08:40.000Z</time>
      </trkpt>
      <trkpt lat="43.42416" lon="6.52574">
        <ele>57</ele>
        <time>2020-05-30T13:08:52.000Z</time>
      </trkpt>
      <trkpt lat="43.42416" lon="6.52574">
        <ele>57</ele>
        <time>2020-05-30T13:09:02.000Z</time>
      </trkpt>
      <trkpt lat="43.42416" lon="6.52575">
        <ele>57.400001525879</ele>
        <time>2020-05-30T13:09:13.000Z</time>
      </trkpt>
      <trkpt lat="43.42415" lon="6.5258">
        <ele>57.400001525879</ele>
        <time>2020-05-30T13:09:27.000Z</time>
      </trkpt>
      <trkpt lat="43.42415" lon="6.52579">
        <ele>57.400001525879</ele>
        <time>2020-05-30T13:09:45.000Z</time>
      </trkpt>
      <trkpt lat="43.42416" lon="6.5258">
        <ele>57</ele>
        <time>2020-05-30T13:09:55.000Z</time>
      </trkpt>
      <trkpt lat="43.42415" lon="6.5258">
        <ele>56.599998474121</ele>
        <time>2020-05-30T13:10:01.000Z</time>
      </trkpt>
      <trkpt lat="43.42415" lon="6.52579">
        <ele>57.200000762939</ele>
        <time>2020-05-30T13:10:19.000Z</time>
      </trkpt>
      <trkpt lat="43.42413" lon="6.52578">
        <ele>57</ele>
        <time>2020-05-30T13:10:34.000Z</time>
      </trkpt>
      <trkpt lat="43.42412" lon="6.52577">
        <ele>57.400001525879</ele>
        <time>2020-05-30T13:10:46.000Z</time>
      </trkpt>
      <trkpt lat="43.42412" lon="6.52576">
        <ele>57.200000762939</ele>
        <time>2020-05-30T13:10:52.000Z</time>
      </trkpt>
      <trkpt lat="43.42414" lon="6.52575">
        <ele>57</ele>
        <time>2020-05-30T13:10:58.000Z</time>
      </trkpt>
      <trkpt lat="43.42415" lon="6.52575">
        <ele>57</ele>
        <time>2020-05-30T13:11:02.000Z</time>
      </trkpt>
      <trkpt lat="43.42414" lon="6.52574">
        <ele>57.400001525879</ele>
        <time>2020-05-30T13:11:08.000Z</time>
      </trkpt>
      <trkpt lat="43.42413" lon="6.52573">
        <ele>57.599998474121</ele>
        <time>2020-05-30T13:11:19.000Z</time>
      </trkpt>
      <trkpt lat="43.42412" lon="6.52572">
        <ele>57.400001525879</ele>
        <time>2020-05-30T13:11:24.000Z</time>
      </trkpt>
      <trkpt lat="43.42401" lon="6.52573">
        <ele>57.200000762939</ele>
        <time>2020-05-30T13:11:29.000Z</time>
      </trkpt>
      <trkpt lat="43.42375" lon="6.52568">
        <ele>56.599998474121</ele>
        <time>2020-05-30T13:11:37.000Z</time>
      </trkpt>
      <trkpt lat="43.42352" lon="6.52558">
        <ele>56.400001525879</ele>
        <time>2020-05-30T13:11:44.000Z</time>
      </trkpt>
      <trkpt lat="43.42336" lon="6.52548">
        <ele>57.200000762939</ele>
        <time>2020-05-30T13:11:51.000Z</time>
      </trkpt>
      <trkpt lat="43.42329" lon="6.52544">
        <ele>58</ele>
        <time>2020-05-30T13:11:55.000Z</time>
      </trkpt>
      <trkpt lat="43.42323" lon="6.52539">
        <ele>58</ele>
        <time>2020-05-30T13:11:58.000Z</time>
      </trkpt>
      <trkpt lat="43.42307" lon="6.52525">
        <ele>58.400001525879</ele>
        <time>2020-05-30T13:12:06.000Z</time>
      </trkpt>
      <trkpt lat="43.42285" lon="6.525">
        <ele>59.200000762939</ele>
        <time>2020-05-30T13:12:16.000Z</time>
      </trkpt>
      <trkpt lat="43.42262" lon="6.5248">
        <ele>59</ele>
        <time>2020-05-30T13:12:24.000Z</time>
      </trkpt>
      <trkpt lat="43.42234" lon="6.52465">
        <ele>59</ele>
        <time>2020-05-30T13:12:32.000Z</time>
      </trkpt>
      <trkpt lat="43.42215" lon="6.52454">
        <ele>58.599998474121</ele>
        <time>2020-05-30T13:12:38.000Z</time>
      </trkpt>
      <trkpt lat="43.42201" lon="6.52455">
        <ele>60.200000762939</ele>
        <time>2020-05-30T13:12:43.000Z</time>
      </trkpt>
      <trkpt lat="43.42198" lon="6.52456">
        <ele>60.599998474121</ele>
        <time>2020-05-30T13:12:44.000Z</time>
      </trkpt>
      <trkpt lat="43.4219" lon="6.52459">
        <ele>61.599998474121</ele>
        <time>2020-05-30T13:12:47.000Z</time>
      </trkpt>
      <trkpt lat="43.4218" lon="6.52465">
        <ele>62.799999237061</ele>
        <time>2020-05-30T13:12:51.000Z</time>
      </trkpt>
      <trkpt lat="43.42165" lon="6.52474">
        <ele>63.799999237061</ele>
        <time>2020-05-30T13:12:57.000Z</time>
      </trkpt>
      <trkpt lat="43.42163" lon="6.52475">
        <ele>63.799999237061</ele>
        <time>2020-05-30T13:12:58.000Z</time>
      </trkpt>
      <trkpt lat="43.42145" lon="6.52483">
        <ele>65</ele>
        <time>2020-05-30T13:13:04.000Z</time>
      </trkpt>
      <trkpt lat="43.42136" lon="6.52488">
        <ele>65.400001525879</ele>
        <time>2020-05-30T13:13:07.000Z</time>
      </trkpt>
      <trkpt lat="43.42123" lon="6.52493">
        <ele>66</ele>
        <time>2020-05-30T13:13:11.000Z</time>
      </trkpt>
      <trkpt lat="43.42107" lon="6.52499">
        <ele>67.400001525879</ele>
        <time>2020-05-30T13:13:16.000Z</time>
      </trkpt>
      <trkpt lat="43.42104" lon="6.525">
        <ele>67.599998474121</ele>
        <time>2020-05-30T13:13:17.000Z</time>
      </trkpt>
      <trkpt lat="43.42085" lon="6.52505">
        <ele>68.599998474121</ele>
        <time>2020-05-30T13:13:23.000Z</time>
      </trkpt>
      <trkpt lat="43.42081" lon="6.52506">
        <ele>68.800003051758</ele>
        <time>2020-05-30T13:13:24.000Z</time>
      </trkpt>
      <trkpt lat="43.42065" lon="6.52509">
        <ele>69.599998474121</ele>
        <time>2020-05-30T13:13:29.000Z</time>
      </trkpt>
      <trkpt lat="43.42058" lon="6.52509">
        <ele>69.599998474121</ele>
        <time>2020-05-30T13:13:31.000Z</time>
      </trkpt>
      <trkpt lat="43.42044" lon="6.52513">
        <ele>70.800003051758</ele>
        <time>2020-05-30T13:13:35.000Z</time>
      </trkpt>
      <trkpt lat="43.42029" lon="6.52518">
        <ele>71.199996948242</ele>
        <time>2020-05-30T13:13:39.000Z</time>
      </trkpt>
      <trkpt lat="43.41999" lon="6.52535">
        <ele>71.599998474121</ele>
        <time>2020-05-30T13:13:47.000Z</time>
      </trkpt>
      <trkpt lat="43.41991" lon="6.5254">
        <ele>72</ele>
        <time>2020-05-30T13:13:50.000Z</time>
      </trkpt>
      <trkpt lat="43.41982" lon="6.52548">
        <ele>72.400001525879</ele>
        <time>2020-05-30T13:13:53.000Z</time>
      </trkpt>
      <trkpt lat="43.41973" lon="6.52561">
        <ele>73.400001525879</ele>
        <time>2020-05-30T13:13:58.000Z</time>
      </trkpt>
      <trkpt lat="43.41964" lon="6.5257">
        <ele>74.400001525879</ele>
        <time>2020-05-30T13:14:02.000Z</time>
      </trkpt>
      <trkpt lat="43.41959" lon="6.52575">
        <ele>74.599998474121</ele>
        <time>2020-05-30T13:14:04.000Z</time>
      </trkpt>
      <trkpt lat="43.4195" lon="6.52582">
        <ele>75.400001525879</ele>
        <time>2020-05-30T13:14:07.000Z</time>
      </trkpt>
      <trkpt lat="43.41938" lon="6.52593">
        <ele>76.599998474121</ele>
        <time>2020-05-30T13:14:12.000Z</time>
      </trkpt>
      <trkpt lat="43.41923" lon="6.52605">
        <ele>77.800003051758</ele>
        <time>2020-05-30T13:14:18.000Z</time>
      </trkpt>
      <trkpt lat="43.4192" lon="6.52607">
        <ele>78</ele>
        <time>2020-05-30T13:14:19.000Z</time>
      </trkpt>
      <trkpt lat="43.41914" lon="6.52616">
        <ele>79.199996948242</ele>
        <time>2020-05-30T13:14:22.000Z</time>
      </trkpt>
      <trkpt lat="43.41904" lon="6.52623">
        <ele>80.400001525879</ele>
        <time>2020-05-30T13:14:26.000Z</time>
      </trkpt>
      <trkpt lat="43.41894" lon="6.52616">
        <ele>81.199996948242</ele>
        <time>2020-05-30T13:14:30.000Z</time>
      </trkpt>
      <trkpt lat="43.41891" lon="6.52614">
        <ele>81.400001525879</ele>
        <time>2020-05-30T13:14:31.000Z</time>
      </trkpt>
      <trkpt lat="43.41878" lon="6.52611">
        <ele>82.599998474121</ele>
        <time>2020-05-30T13:14:36.000Z</time>
      </trkpt>
      <trkpt lat="43.41875" lon="6.52611">
        <ele>82.599998474121</ele>
        <time>2020-05-30T13:14:37.000Z</time>
      </trkpt>
      <trkpt lat="43.41864" lon="6.5261">
        <ele>83.800003051758</ele>
        <time>2020-05-30T13:14:41.000Z</time>
      </trkpt>
      <trkpt lat="43.41855" lon="6.52611">
        <ele>85</ele>
        <time>2020-05-30T13:14:44.000Z</time>
      </trkpt>
      <trkpt lat="43.41841" lon="6.52615">
        <ele>86</ele>
        <time>2020-05-30T13:14:49.000Z</time>
      </trkpt>
      <trkpt lat="43.41835" lon="6.52616">
        <ele>86.599998474121</ele>
        <time>2020-05-30T13:14:51.000Z</time>
      </trkpt>
      <trkpt lat="43.41826" lon="6.52612">
        <ele>87.199996948242</ele>
        <time>2020-05-30T13:14:54.000Z</time>
      </trkpt>
      <trkpt lat="43.41821" lon="6.52609">
        <ele>87.400001525879</ele>
        <time>2020-05-30T13:14:56.000Z</time>
      </trkpt>
      <trkpt lat="43.41814" lon="6.52604">
        <ele>88.199996948242</ele>
        <time>2020-05-30T13:14:59.000Z</time>
      </trkpt>
      <trkpt lat="43.41808" lon="6.52601">
        <ele>89.400001525879</ele>
        <time>2020-05-30T13:15:01.000Z</time>
      </trkpt>
      <trkpt lat="43.41802" lon="6.52599">
        <ele>90.199996948242</ele>
        <time>2020-05-30T13:15:03.000Z</time>
      </trkpt>
      <trkpt lat="43.41799" lon="6.52599">
        <ele>90.800003051758</ele>
        <time>2020-05-30T13:15:04.000Z</time>
      </trkpt>
      <trkpt lat="43.41794" lon="6.52599">
        <ele>92</ele>
        <time>2020-05-30T13:15:06.000Z</time>
      </trkpt>
      <trkpt lat="43.41787" lon="6.52601">
        <ele>93.400001525879</ele>
        <time>2020-05-30T13:15:08.000Z</time>
      </trkpt>
      <trkpt lat="43.41784" lon="6.52601">
        <ele>93.800003051758</ele>
        <time>2020-05-30T13:15:09.000Z</time>
      </trkpt>
      <trkpt lat="43.41779" lon="6.526">
        <ele>94.599998474121</ele>
        <time>2020-05-30T13:15:11.000Z</time>
      </trkpt>
      <trkpt lat="43.41771" lon="6.52598">
        <ele>95.400001525879</ele>
        <time>2020-05-30T13:15:14.000Z</time>
      </trkpt>
      <trkpt lat="43.41768" lon="6.52596">
        <ele>95.599998474121</ele>
        <time>2020-05-30T13:15:15.000Z</time>
      </trkpt>
      <trkpt lat="43.41761" lon="6.52592">
        <ele>97</ele>
        <time>2020-05-30T13:15:18.000Z</time>
      </trkpt>
      <trkpt lat="43.41755" lon="6.52589">
        <ele>98.199996948242</ele>
        <time>2020-05-30T13:15:20.000Z</time>
      </trkpt>
      <trkpt lat="43.41749" lon="6.52586">
        <ele>98.800003051758</ele>
        <time>2020-05-30T13:15:22.000Z</time>
      </trkpt>
      <trkpt lat="43.41744" lon="6.52582">
        <ele>99.400001525879</ele>
        <time>2020-05-30T13:15:24.000Z</time>
      </trkpt>
      <trkpt lat="43.41727" lon="6.52571">
        <ele>100.40000152588</ele>
        <time>2020-05-30T13:15:30.000Z</time>
      </trkpt>
      <trkpt lat="43.41725" lon="6.5257">
        <ele>100.59999847412</ele>
        <time>2020-05-30T13:15:31.000Z</time>
      </trkpt>
      <trkpt lat="43.41708" lon="6.52568">
        <ele>102</ele>
        <time>2020-05-30T13:15:37.000Z</time>
      </trkpt>
      <trkpt lat="43.41691" lon="6.52577">
        <ele>103</ele>
        <time>2020-05-30T13:15:43.000Z</time>
      </trkpt>
      <trkpt lat="43.41688" lon="6.5258">
        <ele>103.19999694824</ele>
        <time>2020-05-30T13:15:44.000Z</time>
      </trkpt>
      <trkpt lat="43.41674" lon="6.52595">
        <ele>104</ele>
        <time>2020-05-30T13:15:49.000Z</time>
      </trkpt>
      <trkpt lat="43.41669" lon="6.52602">
        <ele>104</ele>
        <time>2020-05-30T13:15:51.000Z</time>
      </trkpt>
      <trkpt lat="43.41664" lon="6.52609">
        <ele>104</ele>
        <time>2020-05-30T13:15:53.000Z</time>
      </trkpt>
      <trkpt lat="43.4165" lon="6.52622">
        <ele>103.80000305176</ele>
        <time>2020-05-30T13:15:57.000Z</time>
      </trkpt>
      <trkpt lat="43.41637" lon="6.52642">
        <ele>103.80000305176</ele>
        <time>2020-05-30T13:16:02.000Z</time>
      </trkpt>
      <trkpt lat="43.41633" lon="6.52655">
        <ele>104</ele>
        <time>2020-05-30T13:16:05.000Z</time>
      </trkpt>
      <trkpt lat="43.4163" lon="6.52658">
        <ele>104.40000152588</ele>
        <time>2020-05-30T13:16:06.000Z</time>
      </trkpt>
      <trkpt lat="43.41617" lon="6.52659">
        <ele>104.80000305176</ele>
        <time>2020-05-30T13:16:09.000Z</time>
      </trkpt>
      <trkpt lat="43.41613" lon="6.52659">
        <ele>104.80000305176</ele>
        <time>2020-05-30T13:16:10.000Z</time>
      </trkpt>
      <trkpt lat="43.41597" lon="6.52657">
        <ele>104.40000152588</ele>
        <time>2020-05-30T13:16:13.000Z</time>
      </trkpt>
      <trkpt lat="43.41585" lon="6.52653">
        <ele>103.59999847412</ele>
        <time>2020-05-30T13:16:15.000Z</time>
      </trkpt>
      <trkpt lat="43.4158" lon="6.5265">
        <ele>103</ele>
        <time>2020-05-30T13:16:16.000Z</time>
      </trkpt>
      <trkpt lat="43.41573" lon="6.52647">
        <ele>102.80000305176</ele>
        <time>2020-05-30T13:16:17.000Z</time>
      </trkpt>
      <trkpt lat="43.41556" lon="6.52634">
        <ele>101.59999847412</ele>
        <time>2020-05-30T13:16:20.000Z</time>
      </trkpt>
      <trkpt lat="43.41551" lon="6.5263">
        <ele>101.40000152588</ele>
        <time>2020-05-30T13:16:21.000Z</time>
      </trkpt>
      <trkpt lat="43.4154" lon="6.52625">
        <ele>100.19999694824</ele>
        <time>2020-05-30T13:16:23.000Z</time>
      </trkpt>
      <trkpt lat="43.41533" lon="6.52624">
        <ele>99.800003051758</ele>
        <time>2020-05-30T13:16:24.000Z</time>
      </trkpt>
      <trkpt lat="43.41522" lon="6.52624">
        <ele>99</ele>
        <time>2020-05-30T13:16:26.000Z</time>
      </trkpt>
      <trkpt lat="43.41515" lon="6.52625">
        <ele>98.599998474121</ele>
        <time>2020-05-30T13:16:27.000Z</time>
      </trkpt>
      <trkpt lat="43.41509" lon="6.52626">
        <ele>98.199996948242</ele>
        <time>2020-05-30T13:16:28.000Z</time>
      </trkpt>
      <trkpt lat="43.41504" lon="6.52628">
        <ele>97.800003051758</ele>
        <time>2020-05-30T13:16:29.000Z</time>
      </trkpt>
      <trkpt lat="43.41487" lon="6.52634">
        <ele>97.199996948242</ele>
        <time>2020-05-30T13:16:32.000Z</time>
      </trkpt>
      <trkpt lat="43.41477" lon="6.52641">
        <ele>97</ele>
        <time>2020-05-30T13:16:34.000Z</time>
      </trkpt>
      <trkpt lat="43.41468" lon="6.52651">
        <ele>96.800003051758</ele>
        <time>2020-05-30T13:16:36.000Z</time>
      </trkpt>
      <trkpt lat="43.41463" lon="6.52656">
        <ele>96.400001525879</ele>
        <time>2020-05-30T13:16:37.000Z</time>
      </trkpt>
      <trkpt lat="43.41452" lon="6.52662">
        <ele>95.800003051758</ele>
        <time>2020-05-30T13:16:39.000Z</time>
      </trkpt>
      <trkpt lat="43.41431" lon="6.52663">
        <ele>95.800003051758</ele>
        <time>2020-05-30T13:16:43.000Z</time>
      </trkpt>
      <trkpt lat="43.41422" lon="6.5266">
        <ele>96</ele>
        <time>2020-05-30T13:16:45.000Z</time>
      </trkpt>
      <trkpt lat="43.414" lon="6.5265">
        <ele>95.800003051758</ele>
        <time>2020-05-30T13:16:50.000Z</time>
      </trkpt>
      <trkpt lat="43.41368" lon="6.52637">
        <ele>96.400001525879</ele>
        <time>2020-05-30T13:16:58.000Z</time>
      </trkpt>
      <trkpt lat="43.41344" lon="6.52629">
        <ele>97</ele>
        <time>2020-05-30T13:17:05.000Z</time>
      </trkpt>
      <trkpt lat="43.41315" lon="6.52624">
        <ele>97.400001525879</ele>
        <time>2020-05-30T13:17:12.000Z</time>
      </trkpt>
      <trkpt lat="43.41302" lon="6.52629">
        <ele>97.400001525879</ele>
        <time>2020-05-30T13:17:15.000Z</time>
      </trkpt>
      <trkpt lat="43.41298" lon="6.52631">
        <ele>97.400001525879</ele>
        <time>2020-05-30T13:17:16.000Z</time>
      </trkpt>
      <trkpt lat="43.41293" lon="6.52634">
        <ele>97.199996948242</ele>
        <time>2020-05-30T13:17:17.000Z</time>
      </trkpt>
      <trkpt lat="43.41277" lon="6.52635">
        <ele>97.199996948242</ele>
        <time>2020-05-30T13:17:20.000Z</time>
      </trkpt>
      <trkpt lat="43.41273" lon="6.52635">
        <ele>97.199996948242</ele>
        <time>2020-05-30T13:17:21.000Z</time>
      </trkpt>
      <trkpt lat="43.41268" lon="6.52634">
        <ele>97.400001525879</ele>
        <time>2020-05-30T13:17:22.000Z</time>
      </trkpt>
      <trkpt lat="43.41248" lon="6.52633">
        <ele>97.400001525879</ele>
        <time>2020-05-30T13:17:26.000Z</time>
      </trkpt>
      <trkpt lat="43.41243" lon="6.52633">
        <ele>97.599998474121</ele>
        <time>2020-05-30T13:17:27.000Z</time>
      </trkpt>
      <trkpt lat="43.41226" lon="6.52633">
        <ele>98.199996948242</ele>
        <time>2020-05-30T13:17:31.000Z</time>
      </trkpt>
      <trkpt lat="43.41215" lon="6.52633">
        <ele>98.599998474121</ele>
        <time>2020-05-30T13:17:34.000Z</time>
      </trkpt>
      <trkpt lat="43.41199" lon="6.52635">
        <ele>99.599998474121</ele>
        <time>2020-05-30T13:17:38.000Z</time>
      </trkpt>
      <trkpt lat="43.41183" lon="6.52638">
        <ele>99.599998474121</ele>
        <time>2020-05-30T13:17:42.000Z</time>
      </trkpt>
      <trkpt lat="43.4117" lon="6.52639">
        <ele>99.800003051758</ele>
        <time>2020-05-30T13:17:45.000Z</time>
      </trkpt>
      <trkpt lat="43.41151" lon="6.52644">
        <ele>99</ele>
        <time>2020-05-30T13:17:50.000Z</time>
      </trkpt>
      <trkpt lat="43.4113" lon="6.52656">
        <ele>100.80000305176</ele>
        <time>2020-05-30T13:17:57.000Z</time>
      </trkpt>
      <trkpt lat="43.41121" lon="6.52659">
        <ele>102</ele>
        <time>2020-05-30T13:18:00.000Z</time>
      </trkpt>
      <trkpt lat="43.41108" lon="6.52666">
        <ele>103.19999694824</ele>
        <time>2020-05-30T13:18:05.000Z</time>
      </trkpt>
      <trkpt lat="43.41105" lon="6.52668">
        <ele>103.40000152588</ele>
        <time>2020-05-30T13:18:06.000Z</time>
      </trkpt>
      <trkpt lat="43.41093" lon="6.52674">
        <ele>104.19999694824</ele>
        <time>2020-05-30T13:18:10.000Z</time>
      </trkpt>
      <trkpt lat="43.41079" lon="6.52682">
        <ele>104.80000305176</ele>
        <time>2020-05-30T13:18:15.000Z</time>
      </trkpt>
      <trkpt lat="43.41056" lon="6.52687">
        <ele>104.59999847412</ele>
        <time>2020-05-30T13:18:21.000Z</time>
      </trkpt>
      <trkpt lat="43.41043" lon="6.52686">
        <ele>104</ele>
        <time>2020-05-30T13:18:24.000Z</time>
      </trkpt>
      <trkpt lat="43.41034" lon="6.52687">
        <ele>103.19999694824</ele>
        <time>2020-05-30T13:18:26.000Z</time>
      </trkpt>
      <trkpt lat="43.41029" lon="6.52689">
        <ele>103</ele>
        <time>2020-05-30T13:18:27.000Z</time>
      </trkpt>
      <trkpt lat="43.41017" lon="6.52693">
        <ele>103</ele>
        <time>2020-05-30T13:18:31.000Z</time>
      </trkpt>
      <trkpt lat="43.41008" lon="6.52696">
        <ele>104.59999847412</ele>
        <time>2020-05-30T13:18:34.000Z</time>
      </trkpt>
      <trkpt lat="43.40999" lon="6.52699">
        <ele>105.59999847412</ele>
        <time>2020-05-30T13:18:37.000Z</time>
      </trkpt>
      <trkpt lat="43.40996" lon="6.527">
        <ele>106</ele>
        <time>2020-05-30T13:18:38.000Z</time>
      </trkpt>
      <trkpt lat="43.40982" lon="6.52705">
        <ele>106.59999847412</ele>
        <time>2020-05-30T13:18:43.000Z</time>
      </trkpt>
      <trkpt lat="43.40976" lon="6.52706">
        <ele>107.40000152588</ele>
        <time>2020-05-30T13:18:45.000Z</time>
      </trkpt>
      <trkpt lat="43.40965" lon="6.52707">
        <ele>107.80000305176</ele>
        <time>2020-05-30T13:18:49.000Z</time>
      </trkpt>
      <trkpt lat="43.40957" lon="6.5271">
        <ele>108</ele>
        <time>2020-05-30T13:18:52.000Z</time>
      </trkpt>
      <trkpt lat="43.40944" lon="6.52716">
        <ele>108.80000305176</ele>
        <time>2020-05-30T13:18:57.000Z</time>
      </trkpt>
      <trkpt lat="43.40933" lon="6.5272">
        <ele>109.19999694824</ele>
        <time>2020-05-30T13:19:01.000Z</time>
      </trkpt>
      <trkpt lat="43.40925" lon="6.52723">
        <ele>109.80000305176</ele>
        <time>2020-05-30T13:19:04.000Z</time>
      </trkpt>
      <trkpt lat="43.40917" lon="6.52725">
        <ele>110.40000152588</ele>
        <time>2020-05-30T13:19:07.000Z</time>
      </trkpt>
      <trkpt lat="43.40906" lon="6.5273">
        <ele>111</ele>
        <time>2020-05-30T13:19:11.000Z</time>
      </trkpt>
      <trkpt lat="43.40893" lon="6.52738">
        <ele>111.80000305176</ele>
        <time>2020-05-30T13:19:16.000Z</time>
      </trkpt>
      <trkpt lat="43.40889" lon="6.52747">
        <ele>112.19999694824</ele>
        <time>2020-05-30T13:19:19.000Z</time>
      </trkpt>
      <trkpt lat="43.40888" lon="6.52752">
        <ele>112.59999847412</ele>
        <time>2020-05-30T13:19:20.000Z</time>
      </trkpt>
      <trkpt lat="43.40886" lon="6.5278">
        <ele>112.80000305176</ele>
        <time>2020-05-30T13:19:26.000Z</time>
      </trkpt>
      <trkpt lat="43.40886" lon="6.52792">
        <ele>113.19999694824</ele>
        <time>2020-05-30T13:19:29.000Z</time>
      </trkpt>
      <trkpt lat="43.40886" lon="6.52802">
        <ele>113.80000305176</ele>
        <time>2020-05-30T13:19:32.000Z</time>
      </trkpt>
      <trkpt lat="43.40886" lon="6.52812">
        <ele>114.40000152588</ele>
        <time>2020-05-30T13:19:35.000Z</time>
      </trkpt>
      <trkpt lat="43.40888" lon="6.52822">
        <ele>115.59999847412</ele>
        <time>2020-05-30T13:19:38.000Z</time>
      </trkpt>
      <trkpt lat="43.40888" lon="6.52825">
        <ele>116.40000152588</ele>
        <time>2020-05-30T13:19:39.000Z</time>
      </trkpt>
      <trkpt lat="43.40888" lon="6.52828">
        <ele>116.80000305176</ele>
        <time>2020-05-30T13:19:40.000Z</time>
      </trkpt>
      <trkpt lat="43.40888" lon="6.52838">
        <ele>118</ele>
        <time>2020-05-30T13:19:43.000Z</time>
      </trkpt>
      <trkpt lat="43.40888" lon="6.52846">
        <ele>119.19999694824</ele>
        <time>2020-05-30T13:19:46.000Z</time>
      </trkpt>
      <trkpt lat="43.40888" lon="6.52856">
        <ele>120.19999694824</ele>
        <time>2020-05-30T13:19:49.000Z</time>
      </trkpt>
      <trkpt lat="43.40888" lon="6.52862">
        <ele>121</ele>
        <time>2020-05-30T13:19:51.000Z</time>
      </trkpt>
      <trkpt lat="43.40888" lon="6.52865">
        <ele>121.40000152588</ele>
        <time>2020-05-30T13:19:52.000Z</time>
      </trkpt>
      <trkpt lat="43.40882" lon="6.52872">
        <ele>122.19999694824</ele>
        <time>2020-05-30T13:19:56.000Z</time>
      </trkpt>
      <trkpt lat="43.4088" lon="6.52873">
        <ele>122.40000152588</ele>
        <time>2020-05-30T13:19:57.000Z</time>
      </trkpt>
      <trkpt lat="43.40872" lon="6.52871">
        <ele>123.19999694824</ele>
        <time>2020-05-30T13:20:00.000Z</time>
      </trkpt>
      <trkpt lat="43.40868" lon="6.52863">
        <ele>123.80000305176</ele>
        <time>2020-05-30T13:20:03.000Z</time>
      </trkpt>
      <trkpt lat="43.40867" lon="6.52857">
        <ele>124.80000305176</ele>
        <time>2020-05-30T13:20:05.000Z</time>
      </trkpt>
      <trkpt lat="43.40866" lon="6.52855">
        <ele>125.40000152588</ele>
        <time>2020-05-30T13:20:06.000Z</time>
      </trkpt>
      <trkpt lat="43.40864" lon="6.52847">
        <ele>126.80000305176</ele>
        <time>2020-05-30T13:20:09.000Z</time>
      </trkpt>
      <trkpt lat="43.40862" lon="6.52841">
        <ele>127.80000305176</ele>
        <time>2020-05-30T13:20:12.000Z</time>
      </trkpt>
      <trkpt lat="43.40861" lon="6.52838">
        <ele>128.60000610352</ele>
        <time>2020-05-30T13:20:13.000Z</time>
      </trkpt>
      <trkpt lat="43.4086" lon="6.52835">
        <ele>128.80000305176</ele>
        <time>2020-05-30T13:20:14.000Z</time>
      </trkpt>
      <trkpt lat="43.40857" lon="6.5283">
        <ele>130.19999694824</ele>
        <time>2020-05-30T13:20:17.000Z</time>
      </trkpt>
      <trkpt lat="43.40851" lon="6.52826">
        <ele>131.60000610352</ele>
        <time>2020-05-30T13:20:20.000Z</time>
      </trkpt>
      <trkpt lat="43.40848" lon="6.52826">
        <ele>132.80000305176</ele>
        <time>2020-05-30T13:20:22.000Z</time>
      </trkpt>
      <trkpt lat="43.40845" lon="6.52826">
        <ele>133.80000305176</ele>
        <time>2020-05-30T13:20:24.000Z</time>
      </trkpt>
      <trkpt lat="43.40842" lon="6.52827">
        <ele>134.39999389648</ele>
        <time>2020-05-30T13:20:26.000Z</time>
      </trkpt>
      <trkpt lat="43.40838" lon="6.52829">
        <ele>134.80000305176</ele>
        <time>2020-05-30T13:20:28.000Z</time>
      </trkpt>
      <trkpt lat="43.40835" lon="6.52831">
        <ele>135.19999694824</ele>
        <time>2020-05-30T13:20:30.000Z</time>
      </trkpt>
      <trkpt lat="43.40835" lon="6.52831">
        <ele>135.60000610352</ele>
        <time>2020-05-30T13:20:31.000Z</time>
      </trkpt>
      <trkpt lat="43.40835" lon="6.52831">
        <ele>136.19999694824</ele>
        <time>2020-05-30T13:20:32.000Z</time>
      </trkpt>
      <trkpt lat="43.40834" lon="6.52831">
        <ele>137.19999694824</ele>
        <time>2020-05-30T13:20:35.000Z</time>
      </trkpt>
      <trkpt lat="43.40834" lon="6.52831">
        <ele>137.39999389648</ele>
        <time>2020-05-30T13:20:37.000Z</time>
      </trkpt>
      <trkpt lat="43.40834" lon="6.52832">
        <ele>137.60000610352</ele>
        <time>2020-05-30T13:20:44.000Z</time>
      </trkpt>
      <trkpt lat="43.40831" lon="6.52835">
        <ele>137.60000610352</ele>
        <time>2020-05-30T13:20:50.000Z</time>
      </trkpt>
      <trkpt lat="43.40826" lon="6.52837">
        <ele>138.19999694824</ele>
        <time>2020-05-30T13:20:53.000Z</time>
      </trkpt>
      <trkpt lat="43.40826" lon="6.52837">
        <ele>138.60000610352</ele>
        <time>2020-05-30T13:20:54.000Z</time>
      </trkpt>
      <trkpt lat="43.40826" lon="6.52837">
        <ele>139.39999389648</ele>
        <time>2020-05-30T13:20:56.000Z</time>
      </trkpt>
      <trkpt lat="43.40825" lon="6.52837">
        <ele>140.60000610352</ele>
        <time>2020-05-30T13:20:59.000Z</time>
      </trkpt>
      <trkpt lat="43.40824" lon="6.52838">
        <ele>141</ele>
        <time>2020-05-30T13:21:04.000Z</time>
      </trkpt>
      <trkpt lat="43.40824" lon="6.52839">
        <ele>141.60000610352</ele>
        <time>2020-05-30T13:21:08.000Z</time>
      </trkpt>
      <trkpt lat="43.40824" lon="6.52839">
        <ele>141.60000610352</ele>
        <time>2020-05-30T13:21:11.000Z</time>
      </trkpt>
      <trkpt lat="43.40823" lon="6.5284">
        <ele>141.39999389648</ele>
        <time>2020-05-30T13:21:19.000Z</time>
      </trkpt>
      <trkpt lat="43.40821" lon="6.52842">
        <ele>141.80000305176</ele>
        <time>2020-05-30T13:21:21.000Z</time>
      </trkpt>
      <trkpt lat="43.40818" lon="6.52845">
        <ele>142.80000305176</ele>
        <time>2020-05-30T13:21:24.000Z</time>
      </trkpt>
      <trkpt lat="43.40815" lon="6.52844">
        <ele>143.80000305176</ele>
        <time>2020-05-30T13:21:26.000Z</time>
      </trkpt>
      <trkpt lat="43.40814" lon="6.52844">
        <ele>144.19999694824</ele>
        <time>2020-05-30T13:21:27.000Z</time>
      </trkpt>
      <trkpt lat="43.40811" lon="6.52844">
        <ele>145</ele>
        <time>2020-05-30T13:21:29.000Z</time>
      </trkpt>
      <trkpt lat="43.4081" lon="6.52845">
        <ele>145.39999389648</ele>
        <time>2020-05-30T13:21:30.000Z</time>
      </trkpt>
      <trkpt lat="43.40806" lon="6.52845">
        <ele>146.39999389648</ele>
        <time>2020-05-30T13:21:35.000Z</time>
      </trkpt>
      <trkpt lat="43.40806" lon="6.52845">
        <ele>146.39999389648</ele>
        <time>2020-05-30T13:21:36.000Z</time>
      </trkpt>
      <trkpt lat="43.40806" lon="6.52845">
        <ele>146.60000610352</ele>
        <time>2020-05-30T13:21:41.000Z</time>
      </trkpt>
      <trkpt lat="43.40806" lon="6.52845">
        <ele>146.60000610352</ele>
        <time>2020-05-30T13:21:50.000Z</time>
      </trkpt>
      <trkpt lat="43.40805" lon="6.52846">
        <ele>146.80000305176</ele>
        <time>2020-05-30T13:21:52.000Z</time>
      </trkpt>
      <trkpt lat="43.40803" lon="6.52851">
        <ele>146.80000305176</ele>
        <time>2020-05-30T13:21:55.000Z</time>
      </trkpt>
      <trkpt lat="43.408" lon="6.52858">
        <ele>147.80000305176</ele>
        <time>2020-05-30T13:21:58.000Z</time>
      </trkpt>
      <trkpt lat="43.40798" lon="6.52863">
        <ele>148.60000610352</ele>
        <time>2020-05-30T13:22:00.000Z</time>
      </trkpt>
      <trkpt lat="43.40797" lon="6.52865">
        <ele>149</ele>
        <time>2020-05-30T13:22:01.000Z</time>
      </trkpt>
      <trkpt lat="43.40795" lon="6.52871">
        <ele>150.60000610352</ele>
        <time>2020-05-30T13:22:03.000Z</time>
      </trkpt>
      <trkpt lat="43.40793" lon="6.52875">
        <ele>152</ele>
        <time>2020-05-30T13:22:05.000Z</time>
      </trkpt>
      <trkpt lat="43.40792" lon="6.52875">
        <ele>152.39999389648</ele>
        <time>2020-05-30T13:22:06.000Z</time>
      </trkpt>
      <trkpt lat="43.40792" lon="6.52875">
        <ele>153.19999694824</ele>
        <time>2020-05-30T13:22:07.000Z</time>
      </trkpt>
      <trkpt lat="43.40792" lon="6.52875">
        <ele>154.39999389648</ele>
        <time>2020-05-30T13:22:09.000Z</time>
      </trkpt>
      <trkpt lat="43.40791" lon="6.52876">
        <ele>155</ele>
        <time>2020-05-30T13:22:11.000Z</time>
      </trkpt>
      <trkpt lat="43.4079" lon="6.52876">
        <ele>155.60000610352</ele>
        <time>2020-05-30T13:22:16.000Z</time>
      </trkpt>
      <trkpt lat="43.4079" lon="6.52877">
        <ele>156</ele>
        <time>2020-05-30T13:22:23.000Z</time>
      </trkpt>
      <trkpt lat="43.40789" lon="6.52884">
        <ele>156.39999389648</ele>
        <time>2020-05-30T13:22:30.000Z</time>
      </trkpt>
      <trkpt lat="43.40787" lon="6.52889">
        <ele>156.60000610352</ele>
        <time>2020-05-30T13:22:32.000Z</time>
      </trkpt>
      <trkpt lat="43.40785" lon="6.52893">
        <ele>157.80000305176</ele>
        <time>2020-05-30T13:22:34.000Z</time>
      </trkpt>
      <trkpt lat="43.40783" lon="6.52897">
        <ele>159</ele>
        <time>2020-05-30T13:22:36.000Z</time>
      </trkpt>
      <trkpt lat="43.40782" lon="6.529">
        <ele>159.80000305176</ele>
        <time>2020-05-30T13:22:37.000Z</time>
      </trkpt>
      <trkpt lat="43.40781" lon="6.52903">
        <ele>160.19999694824</ele>
        <time>2020-05-30T13:22:38.000Z</time>
      </trkpt>
      <trkpt lat="43.40779" lon="6.52909">
        <ele>161.39999389648</ele>
        <time>2020-05-30T13:22:41.000Z</time>
      </trkpt>
      <trkpt lat="43.40778" lon="6.52911">
        <ele>161.80000305176</ele>
        <time>2020-05-30T13:22:42.000Z</time>
      </trkpt>
      <trkpt lat="43.40777" lon="6.52915">
        <ele>162.80000305176</ele>
        <time>2020-05-30T13:22:44.000Z</time>
      </trkpt>
      <trkpt lat="43.40773" lon="6.52921">
        <ele>164</ele>
        <time>2020-05-30T13:22:47.000Z</time>
      </trkpt>
      <trkpt lat="43.4077" lon="6.52927">
        <ele>165.19999694824</ele>
        <time>2020-05-30T13:22:50.000Z</time>
      </trkpt>
      <trkpt lat="43.40769" lon="6.52929">
        <ele>165.60000610352</ele>
        <time>2020-05-30T13:22:51.000Z</time>
      </trkpt>
      <trkpt lat="43.40767" lon="6.52933">
        <ele>166.19999694824</ele>
        <time>2020-05-30T13:22:53.000Z</time>
      </trkpt>
      <trkpt lat="43.40763" lon="6.52939">
        <ele>167.39999389648</ele>
        <time>2020-05-30T13:22:56.000Z</time>
      </trkpt>
      <trkpt lat="43.4076" lon="6.52944">
        <ele>168.80000305176</ele>
        <time>2020-05-30T13:22:59.000Z</time>
      </trkpt>
      <trkpt lat="43.40757" lon="6.52947">
        <ele>169.19999694824</ele>
        <time>2020-05-30T13:23:01.000Z</time>
      </trkpt>
      <trkpt lat="43.40755" lon="6.52951">
        <ele>169.80000305176</ele>
        <time>2020-05-30T13:23:03.000Z</time>
      </trkpt>
      <trkpt lat="43.40747" lon="6.52963">
        <ele>171</ele>
        <time>2020-05-30T13:23:08.000Z</time>
      </trkpt>
      <trkpt lat="43.40743" lon="6.5297">
        <ele>172.60000610352</ele>
        <time>2020-05-30T13:23:12.000Z</time>
      </trkpt>
      <trkpt lat="43.40741" lon="6.52974">
        <ele>174</ele>
        <time>2020-05-30T13:23:14.000Z</time>
      </trkpt>
      <trkpt lat="43.40736" lon="6.52984">
        <ele>175.19999694824</ele>
        <time>2020-05-30T13:23:18.000Z</time>
      </trkpt>
      <trkpt lat="43.40733" lon="6.52991">
        <ele>176.39999389648</ele>
        <time>2020-05-30T13:23:21.000Z</time>
      </trkpt>
      <trkpt lat="43.40731" lon="6.52995">
        <ele>177.39999389648</ele>
        <time>2020-05-30T13:23:23.000Z</time>
      </trkpt>
      <trkpt lat="43.4073" lon="6.52998">
        <ele>177.80000305176</ele>
        <time>2020-05-30T13:23:24.000Z</time>
      </trkpt>
      <trkpt lat="43.40727" lon="6.53006">
        <ele>179</ele>
        <time>2020-05-30T13:23:27.000Z</time>
      </trkpt>
      <trkpt lat="43.40725" lon="6.53011">
        <ele>179.80000305176</ele>
        <time>2020-05-30T13:23:29.000Z</time>
      </trkpt>
      <trkpt lat="43.40723" lon="6.53016">
        <ele>180.39999389648</ele>
        <time>2020-05-30T13:23:31.000Z</time>
      </trkpt>
      <trkpt lat="43.40719" lon="6.53027">
        <ele>181.80000305176</ele>
        <time>2020-05-30T13:23:35.000Z</time>
      </trkpt>
      <trkpt lat="43.40714" lon="6.53035">
        <ele>182.80000305176</ele>
        <time>2020-05-30T13:23:38.000Z</time>
      </trkpt>
      <trkpt lat="43.40713" lon="6.53038">
        <ele>183.19999694824</ele>
        <time>2020-05-30T13:23:39.000Z</time>
      </trkpt>
      <trkpt lat="43.40709" lon="6.53047">
        <ele>184</ele>
        <time>2020-05-30T13:23:42.000Z</time>
      </trkpt>
      <trkpt lat="43.40704" lon="6.5306">
        <ele>185</ele>
        <time>2020-05-30T13:23:46.000Z</time>
      </trkpt>
      <trkpt lat="43.40701" lon="6.53066">
        <ele>185.39999389648</ele>
        <time>2020-05-30T13:23:48.000Z</time>
      </trkpt>
      <trkpt lat="43.40698" lon="6.53072">
        <ele>186</ele>
        <time>2020-05-30T13:23:50.000Z</time>
      </trkpt>
      <trkpt lat="43.40695" lon="6.53082">
        <ele>187</ele>
        <time>2020-05-30T13:23:53.000Z</time>
      </trkpt>
      <trkpt lat="43.4069" lon="6.53093">
        <ele>188.19999694824</ele>
        <time>2020-05-30T13:23:57.000Z</time>
      </trkpt>
      <trkpt lat="43.40683" lon="6.53104">
        <ele>189.60000610352</ele>
        <time>2020-05-30T13:24:01.000Z</time>
      </trkpt>
      <trkpt lat="43.40677" lon="6.53113">
        <ele>191.19999694824</ele>
        <time>2020-05-30T13:24:04.000Z</time>
      </trkpt>
      <trkpt lat="43.40673" lon="6.53118">
        <ele>192.19999694824</ele>
        <time>2020-05-30T13:24:06.000Z</time>
      </trkpt>
      <trkpt lat="43.40667" lon="6.53126">
        <ele>193.60000610352</ele>
        <time>2020-05-30T13:24:09.000Z</time>
      </trkpt>
      <trkpt lat="43.40661" lon="6.53135">
        <ele>194.80000305176</ele>
        <time>2020-05-30T13:24:12.000Z</time>
      </trkpt>
      <trkpt lat="43.40654" lon="6.53148">
        <ele>195.80000305176</ele>
        <time>2020-05-30T13:24:16.000Z</time>
      </trkpt>
      <trkpt lat="43.4065" lon="6.53154">
        <ele>197</ele>
        <time>2020-05-30T13:24:18.000Z</time>
      </trkpt>
      <trkpt lat="43.40647" lon="6.53161">
        <ele>198.19999694824</ele>
        <time>2020-05-30T13:24:20.000Z</time>
      </trkpt>
      <trkpt lat="43.40643" lon="6.53167">
        <ele>199.39999389648</ele>
        <time>2020-05-30T13:24:22.000Z</time>
      </trkpt>
      <trkpt lat="43.4064" lon="6.53173">
        <ele>200.39999389648</ele>
        <time>2020-05-30T13:24:24.000Z</time>
      </trkpt>
      <trkpt lat="43.40639" lon="6.53176">
        <ele>201</ele>
        <time>2020-05-30T13:24:25.000Z</time>
      </trkpt>
      <trkpt lat="43.40636" lon="6.53183">
        <ele>202</ele>
        <time>2020-05-30T13:24:27.000Z</time>
      </trkpt>
      <trkpt lat="43.40631" lon="6.53192">
        <ele>203.60000610352</ele>
        <time>2020-05-30T13:24:30.000Z</time>
      </trkpt>
      <trkpt lat="43.40628" lon="6.53199">
        <ele>204.60000610352</ele>
        <time>2020-05-30T13:24:32.000Z</time>
      </trkpt>
      <trkpt lat="43.40625" lon="6.53206">
        <ele>205.19999694824</ele>
        <time>2020-05-30T13:24:34.000Z</time>
      </trkpt>
      <trkpt lat="43.40624" lon="6.53209">
        <ele>205.80000305176</ele>
        <time>2020-05-30T13:24:35.000Z</time>
      </trkpt>
      <trkpt lat="43.40619" lon="6.53218">
        <ele>207.39999389648</ele>
        <time>2020-05-30T13:24:38.000Z</time>
      </trkpt>
      <trkpt lat="43.40617" lon="6.53221">
        <ele>208</ele>
        <time>2020-05-30T13:24:39.000Z</time>
      </trkpt>
      <trkpt lat="43.40616" lon="6.53223">
        <ele>208.60000610352</ele>
        <time>2020-05-30T13:24:40.000Z</time>
      </trkpt>
      <trkpt lat="43.40613" lon="6.53228">
        <ele>209.80000305176</ele>
        <time>2020-05-30T13:24:42.000Z</time>
      </trkpt>
      <trkpt lat="43.40611" lon="6.53233">
        <ele>211</ele>
        <time>2020-05-30T13:24:44.000Z</time>
      </trkpt>
      <trkpt lat="43.4061" lon="6.53236">
        <ele>211.39999389648</ele>
        <time>2020-05-30T13:24:45.000Z</time>
      </trkpt>
      <trkpt lat="43.40609" lon="6.53242">
        <ele>212.19999694824</ele>
        <time>2020-05-30T13:24:47.000Z</time>
      </trkpt>
      <trkpt lat="43.40606" lon="6.5325">
        <ele>213.19999694824</ele>
        <time>2020-05-30T13:24:50.000Z</time>
      </trkpt>
      <trkpt lat="43.40605" lon="6.53253">
        <ele>213.80000305176</ele>
        <time>2020-05-30T13:24:51.000Z</time>
      </trkpt>
      <trkpt lat="43.40605" lon="6.53256">
        <ele>214.19999694824</ele>
        <time>2020-05-30T13:24:52.000Z</time>
      </trkpt>
      <trkpt lat="43.40602" lon="6.53264">
        <ele>215.39999389648</ele>
        <time>2020-05-30T13:24:55.000Z</time>
      </trkpt>
      <trkpt lat="43.406" lon="6.53273">
        <ele>216.39999389648</ele>
        <time>2020-05-30T13:24:58.000Z</time>
      </trkpt>
      <trkpt lat="43.40599" lon="6.53278">
        <ele>217.39999389648</ele>
        <time>2020-05-30T13:25:00.000Z</time>
      </trkpt>
      <trkpt lat="43.40597" lon="6.53285">
        <ele>218.60000610352</ele>
        <time>2020-05-30T13:25:03.000Z</time>
      </trkpt>
      <trkpt lat="43.40596" lon="6.53287">
        <ele>219</ele>
        <time>2020-05-30T13:25:04.000Z</time>
      </trkpt>
      <trkpt lat="43.40595" lon="6.53292">
        <ele>220</ele>
        <time>2020-05-30T13:25:06.000Z</time>
      </trkpt>
      <trkpt lat="43.40593" lon="6.53297">
        <ele>221.19999694824</ele>
        <time>2020-05-30T13:25:08.000Z</time>
      </trkpt>
      <trkpt lat="43.40592" lon="6.53301">
        <ele>222.39999389648</ele>
        <time>2020-05-30T13:25:10.000Z</time>
      </trkpt>
      <trkpt lat="43.40591" lon="6.53305">
        <ele>223.60000610352</ele>
        <time>2020-05-30T13:25:12.000Z</time>
      </trkpt>
      <trkpt lat="43.40591" lon="6.53307">
        <ele>224.39999389648</ele>
        <time>2020-05-30T13:25:13.000Z</time>
      </trkpt>
      <trkpt lat="43.40591" lon="6.53307">
        <ele>225</ele>
        <time>2020-05-30T13:25:14.000Z</time>
      </trkpt>
      <trkpt lat="43.40591" lon="6.53308">
        <ele>225.60000610352</ele>
        <time>2020-05-30T13:25:15.000Z</time>
      </trkpt>
      <trkpt lat="43.40591" lon="6.53308">
        <ele>226</ele>
        <time>2020-05-30T13:25:16.000Z</time>
      </trkpt>
      <trkpt lat="43.40591" lon="6.53308">
        <ele>226.60000610352</ele>
        <time>2020-05-30T13:25:21.000Z</time>
      </trkpt>
      <trkpt lat="43.4059" lon="6.53308">
        <ele>227.19999694824</ele>
        <time>2020-05-30T13:25:24.000Z</time>
      </trkpt>
      <trkpt lat="43.40589" lon="6.53311">
        <ele>227.39999389648</ele>
        <time>2020-05-30T13:25:29.000Z</time>
      </trkpt>
      <trkpt lat="43.40589" lon="6.53314">
        <ele>228.19999694824</ele>
        <time>2020-05-30T13:25:35.000Z</time>
      </trkpt>
      <trkpt lat="43.40589" lon="6.53314">
        <ele>228.39999389648</ele>
        <time>2020-05-30T13:25:36.000Z</time>
      </trkpt>
      <trkpt lat="43.40588" lon="6.53315">
        <ele>229</ele>
        <time>2020-05-30T13:25:45.000Z</time>
      </trkpt>
      <trkpt lat="43.40587" lon="6.53315">
        <ele>229.19999694824</ele>
        <time>2020-05-30T13:25:50.000Z</time>
      </trkpt>
      <trkpt lat="43.40587" lon="6.53315">
        <ele>229.19999694824</ele>
        <time>2020-05-30T13:25:55.000Z</time>
      </trkpt>
      <trkpt lat="43.40587" lon="6.53315">
        <ele>229</ele>
        <time>2020-05-30T13:26:03.000Z</time>
      </trkpt>
      <trkpt lat="43.40584" lon="6.53324">
        <ele>229.19999694824</ele>
        <time>2020-05-30T13:26:07.000Z</time>
      </trkpt>
      <trkpt lat="43.40581" lon="6.53332">
        <ele>230.39999389648</ele>
        <time>2020-05-30T13:26:11.000Z</time>
      </trkpt>
      <trkpt lat="43.4058" lon="6.53337">
        <ele>231.60000610352</ele>
        <time>2020-05-30T13:26:13.000Z</time>
      </trkpt>
      <trkpt lat="43.40579" lon="6.53341">
        <ele>232.60000610352</ele>
        <time>2020-05-30T13:26:15.000Z</time>
      </trkpt>
      <trkpt lat="43.40576" lon="6.53347">
        <ele>234.19999694824</ele>
        <time>2020-05-30T13:26:18.000Z</time>
      </trkpt>
      <trkpt lat="43.40575" lon="6.53349">
        <ele>234.80000305176</ele>
        <time>2020-05-30T13:26:19.000Z</time>
      </trkpt>
      <trkpt lat="43.40575" lon="6.53351">
        <ele>235.39999389648</ele>
        <time>2020-05-30T13:26:20.000Z</time>
      </trkpt>
      <trkpt lat="43.40573" lon="6.53353">
        <ele>236.80000305176</ele>
        <time>2020-05-30T13:26:22.000Z</time>
      </trkpt>
      <trkpt lat="43.40573" lon="6.53353">
        <ele>237.80000305176</ele>
        <time>2020-05-30T13:26:24.000Z</time>
      </trkpt>
      <trkpt lat="43.40573" lon="6.53353">
        <ele>239</ele>
        <time>2020-05-30T13:26:27.000Z</time>
      </trkpt>
      <trkpt lat="43.40572" lon="6.53353">
        <ele>239.19999694824</ele>
        <time>2020-05-30T13:26:36.000Z</time>
      </trkpt>
      <trkpt lat="43.40573" lon="6.53352">
        <ele>239.19999694824</ele>
        <time>2020-05-30T13:26:43.000Z</time>
      </trkpt>
      <trkpt lat="43.40573" lon="6.53353">
        <ele>239</ele>
        <time>2020-05-30T13:26:53.000Z</time>
      </trkpt>
      <trkpt lat="43.40572" lon="6.53354">
        <ele>239.39999389648</ele>
        <time>2020-05-30T13:26:59.000Z</time>
      </trkpt>
      <trkpt lat="43.40571" lon="6.53356">
        <ele>239.80000305176</ele>
        <time>2020-05-30T13:27:07.000Z</time>
      </trkpt>
      <trkpt lat="43.40571" lon="6.53357">
        <ele>240</ele>
        <time>2020-05-30T13:27:09.000Z</time>
      </trkpt>
      <trkpt lat="43.4057" lon="6.53359">
        <ele>240.60000610352</ele>
        <time>2020-05-30T13:27:14.000Z</time>
      </trkpt>
      <trkpt lat="43.40569" lon="6.53361">
        <ele>241.19999694824</ele>
        <time>2020-05-30T13:27:19.000Z</time>
      </trkpt>
      <trkpt lat="43.40568" lon="6.53364">
        <ele>241.60000610352</ele>
        <time>2020-05-30T13:27:23.000Z</time>
      </trkpt>
      <trkpt lat="43.40567" lon="6.53366">
        <ele>242.19999694824</ele>
        <time>2020-05-30T13:27:26.000Z</time>
      </trkpt>
      <trkpt lat="43.40566" lon="6.53369">
        <ele>243.19999694824</ele>
        <time>2020-05-30T13:27:31.000Z</time>
      </trkpt>
      <trkpt lat="43.40566" lon="6.5337">
        <ele>243.39999389648</ele>
        <time>2020-05-30T13:27:32.000Z</time>
      </trkpt>
      <trkpt lat="43.40565" lon="6.53375">
        <ele>244.39999389648</ele>
        <time>2020-05-30T13:27:37.000Z</time>
      </trkpt>
      <trkpt lat="43.40565" lon="6.53377">
        <ele>245.19999694824</ele>
        <time>2020-05-30T13:27:40.000Z</time>
      </trkpt>
      <trkpt lat="43.40565" lon="6.53379">
        <ele>245.80000305176</ele>
        <time>2020-05-30T13:27:42.000Z</time>
      </trkpt>
      <trkpt lat="43.40564" lon="6.53381">
        <ele>246.39999389648</ele>
        <time>2020-05-30T13:27:47.000Z</time>
      </trkpt>
      <trkpt lat="43.40564" lon="6.53382">
        <ele>246.80000305176</ele>
        <time>2020-05-30T13:27:50.000Z</time>
      </trkpt>
      <trkpt lat="43.40564" lon="6.53382">
        <ele>247.19999694824</ele>
        <time>2020-05-30T13:27:56.000Z</time>
      </trkpt>
      <trkpt lat="43.40563" lon="6.53381">
        <ele>247.39999389648</ele>
        <time>2020-05-30T13:28:27.000Z</time>
      </trkpt>
      <trkpt lat="43.40563" lon="6.53385">
        <ele>247.60000610352</ele>
        <time>2020-05-30T13:28:35.000Z</time>
      </trkpt>
      <trkpt lat="43.40562" lon="6.53386">
        <ele>247.80000305176</ele>
        <time>2020-05-30T13:28:37.000Z</time>
      </trkpt>
      <trkpt lat="43.40562" lon="6.53391">
        <ele>249</ele>
        <time>2020-05-30T13:28:42.000Z</time>
      </trkpt>
      <trkpt lat="43.40562" lon="6.53392">
        <ele>249.19999694824</ele>
        <time>2020-05-30T13:28:43.000Z</time>
      </trkpt>
      <trkpt lat="43.40561" lon="6.53395">
        <ele>250</ele>
        <time>2020-05-30T13:28:46.000Z</time>
      </trkpt>
      <trkpt lat="43.40561" lon="6.53397">
        <ele>251</ele>
        <time>2020-05-30T13:28:50.000Z</time>
      </trkpt>
      <trkpt lat="43.40561" lon="6.53398">
        <ele>251.39999389648</ele>
        <time>2020-05-30T13:28:51.000Z</time>
      </trkpt>
      <trkpt lat="43.4056" lon="6.53402">
        <ele>252</ele>
        <time>2020-05-30T13:28:55.000Z</time>
      </trkpt>
      <trkpt lat="43.4056" lon="6.53404">
        <ele>252.60000610352</ele>
        <time>2020-05-30T13:28:58.000Z</time>
      </trkpt>
      <trkpt lat="43.4056" lon="6.53405">
        <ele>253.19999694824</ele>
        <time>2020-05-30T13:29:01.000Z</time>
      </trkpt>
      <trkpt lat="43.4056" lon="6.53407">
        <ele>253.80000305176</ele>
        <time>2020-05-30T13:29:05.000Z</time>
      </trkpt>
      <trkpt lat="43.40559" lon="6.53409">
        <ele>254.19999694824</ele>
        <time>2020-05-30T13:29:08.000Z</time>
      </trkpt>
      <trkpt lat="43.40559" lon="6.53413">
        <ele>255.39999389648</ele>
        <time>2020-05-30T13:29:13.000Z</time>
      </trkpt>
      <trkpt lat="43.4056" lon="6.53415">
        <ele>256.20001220703</ele>
        <time>2020-05-30T13:29:16.000Z</time>
      </trkpt>
      <trkpt lat="43.4056" lon="6.53416">
        <ele>256.39999389648</ele>
        <time>2020-05-30T13:29:17.000Z</time>
      </trkpt>
      <trkpt lat="43.40561" lon="6.5342">
        <ele>257.60000610352</ele>
        <time>2020-05-30T13:29:23.000Z</time>
      </trkpt>
      <trkpt lat="43.4056" lon="6.53424">
        <ele>258.60000610352</ele>
        <time>2020-05-30T13:29:28.000Z</time>
      </trkpt>
      <trkpt lat="43.40559" lon="6.53426">
        <ele>259.20001220703</ele>
        <time>2020-05-30T13:29:31.000Z</time>
      </trkpt>
      <trkpt lat="43.40559" lon="6.53429">
        <ele>259.79998779297</ele>
        <time>2020-05-30T13:29:34.000Z</time>
      </trkpt>
      <trkpt lat="43.40558" lon="6.53432">
        <ele>260.79998779297</ele>
        <time>2020-05-30T13:29:39.000Z</time>
      </trkpt>
      <trkpt lat="43.40557" lon="6.53434">
        <ele>261.20001220703</ele>
        <time>2020-05-30T13:29:41.000Z</time>
      </trkpt>
      <trkpt lat="43.40557" lon="6.53437">
        <ele>262</ele>
        <time>2020-05-30T13:29:45.000Z</time>
      </trkpt>
      <trkpt lat="43.40557" lon="6.53441">
        <ele>263</ele>
        <time>2020-05-30T13:29:49.000Z</time>
      </trkpt>
      <trkpt lat="43.40557" lon="6.53441">
        <ele>263.39999389648</ele>
        <time>2020-05-30T13:29:50.000Z</time>
      </trkpt>
      <trkpt lat="43.40556" lon="6.53444">
        <ele>264.60000610352</ele>
        <time>2020-05-30T13:29:54.000Z</time>
      </trkpt>
      <trkpt lat="43.40557" lon="6.53446">
        <ele>265.60000610352</ele>
        <time>2020-05-30T13:29:58.000Z</time>
      </trkpt>
      <trkpt lat="43.40557" lon="6.53447">
        <ele>265.79998779297</ele>
        <time>2020-05-30T13:29:59.000Z</time>
      </trkpt>
      <trkpt lat="43.40557" lon="6.53449">
        <ele>266.79998779297</ele>
        <time>2020-05-30T13:30:03.000Z</time>
      </trkpt>
      <trkpt lat="43.40557" lon="6.5345">
        <ele>267.20001220703</ele>
        <time>2020-05-30T13:30:05.000Z</time>
      </trkpt>
      <trkpt lat="43.40557" lon="6.53451">
        <ele>267.79998779297</ele>
        <time>2020-05-30T13:30:11.000Z</time>
      </trkpt>
      <trkpt lat="43.40557" lon="6.53451">
        <ele>268</ele>
        <time>2020-05-30T13:30:12.000Z</time>
      </trkpt>
      <trkpt lat="43.40557" lon="6.53451">
        <ele>268.20001220703</ele>
        <time>2020-05-30T13:30:32.000Z</time>
      </trkpt>
      <trkpt lat="43.40556" lon="6.53455">
        <ele>268.60000610352</ele>
        <time>2020-05-30T13:30:42.000Z</time>
      </trkpt>
      <trkpt lat="43.40557" lon="6.53457">
        <ele>269</ele>
        <time>2020-05-30T13:30:45.000Z</time>
      </trkpt>
      <trkpt lat="43.40557" lon="6.53459">
        <ele>270</ele>
        <time>2020-05-30T13:30:49.000Z</time>
      </trkpt>
      <trkpt lat="43.40556" lon="6.53459">
        <ele>270.20001220703</ele>
        <time>2020-05-30T13:30:50.000Z</time>
      </trkpt>
      <trkpt lat="43.40556" lon="6.53461">
        <ele>271.20001220703</ele>
        <time>2020-05-30T13:30:55.000Z</time>
      </trkpt>
      <trkpt lat="43.40557" lon="6.53462">
        <ele>271.39999389648</ele>
        <time>2020-05-30T13:30:57.000Z</time>
      </trkpt>
      <trkpt lat="43.40557" lon="6.53464">
        <ele>272.39999389648</ele>
        <time>2020-05-30T13:31:03.000Z</time>
      </trkpt>
      <trkpt lat="43.40557" lon="6.53464">
        <ele>272.60000610352</ele>
        <time>2020-05-30T13:31:04.000Z</time>
      </trkpt>
      <trkpt lat="43.40557" lon="6.53465">
        <ele>273</ele>
        <time>2020-05-30T13:31:10.000Z</time>
      </trkpt>
      <trkpt lat="43.40556" lon="6.53466">
        <ele>273.39999389648</ele>
        <time>2020-05-30T13:31:13.000Z</time>
      </trkpt>
      <trkpt lat="43.40553" lon="6.53469">
        <ele>274</ele>
        <time>2020-05-30T13:31:18.000Z</time>
      </trkpt>
      <trkpt lat="43.40553" lon="6.5347">
        <ele>274.39999389648</ele>
        <time>2020-05-30T13:31:20.000Z</time>
      </trkpt>
      <trkpt lat="43.40553" lon="6.53474">
        <ele>275.20001220703</ele>
        <time>2020-05-30T13:31:25.000Z</time>
      </trkpt>
      <trkpt lat="43.40553" lon="6.53475">
        <ele>275.60000610352</ele>
        <time>2020-05-30T13:31:29.000Z</time>
      </trkpt>
      <trkpt lat="43.40553" lon="6.53475">
        <ele>275.79998779297</ele>
        <time>2020-05-30T13:31:32.000Z</time>
      </trkpt>
      <trkpt lat="43.40554" lon="6.53476">
        <ele>275.79998779297</ele>
        <time>2020-05-30T13:31:39.000Z</time>
      </trkpt>
      <trkpt lat="43.40555" lon="6.53478">
        <ele>275</ele>
        <time>2020-05-30T13:31:45.000Z</time>
      </trkpt>
      <trkpt lat="43.40555" lon="6.53478">
        <ele>274.60000610352</ele>
        <time>2020-05-30T13:31:47.000Z</time>
      </trkpt>
      <trkpt lat="43.40555" lon="6.53478">
        <ele>274.60000610352</ele>
        <time>2020-05-30T13:31:53.000Z</time>
      </trkpt>
      <trkpt lat="43.40554" lon="6.53478">
        <ele>275.20001220703</ele>
        <time>2020-05-30T13:31:58.000Z</time>
      </trkpt>
      <trkpt lat="43.40554" lon="6.53478">
        <ele>275.60000610352</ele>
        <time>2020-05-30T13:32:00.000Z</time>
      </trkpt>
      <trkpt lat="43.40554" lon="6.53478">
        <ele>275.39999389648</ele>
        <time>2020-05-30T13:32:19.000Z</time>
      </trkpt>
      <trkpt lat="43.40555" lon="6.53478">
        <ele>275.39999389648</ele>
        <time>2020-05-30T13:32:24.000Z</time>
      </trkpt>
      <trkpt lat="43.40558" lon="6.53481">
        <ele>275.39999389648</ele>
        <time>2020-05-30T13:32:27.000Z</time>
      </trkpt>
      <trkpt lat="43.4057" lon="6.53491">
        <ele>275.39999389648</ele>
        <time>2020-05-30T13:32:34.000Z</time>
      </trkpt>
      <trkpt lat="43.40582" lon="6.53503">
        <ele>274.79998779297</ele>
        <time>2020-05-30T13:32:41.000Z</time>
      </trkpt>
      <trkpt lat="43.40599" lon="6.53515">
        <ele>274.79998779297</ele>
        <time>2020-05-30T13:32:49.000Z</time>
      </trkpt>
      <trkpt lat="43.40613" lon="6.53523">
        <ele>274.60000610352</ele>
        <time>2020-05-30T13:32:56.000Z</time>
      </trkpt>
      <trkpt lat="43.40615" lon="6.53524">
        <ele>274.39999389648</ele>
        <time>2020-05-30T13:32:57.000Z</time>
      </trkpt>
      <trkpt lat="43.40624" lon="6.53529">
        <ele>274.60000610352</ele>
        <time>2020-05-30T13:33:02.000Z</time>
      </trkpt>
      <trkpt lat="43.40635" lon="6.53534">
        <ele>274.79998779297</ele>
        <time>2020-05-30T13:33:08.000Z</time>
      </trkpt>
      <trkpt lat="43.40652" lon="6.53539">
        <ele>274.60000610352</ele>
        <time>2020-05-30T13:33:16.000Z</time>
      </trkpt>
      <trkpt lat="43.40669" lon="6.53538">
        <ele>274.79998779297</ele>
        <time>2020-05-30T13:33:22.000Z</time>
      </trkpt>
      <trkpt lat="43.40691" lon="6.5353">
        <ele>274.39999389648</ele>
        <time>2020-05-30T13:33:29.000Z</time>
      </trkpt>
      <trkpt lat="43.4072" lon="6.53517">
        <ele>274</ele>
        <time>2020-05-30T13:33:37.000Z</time>
      </trkpt>
      <trkpt lat="43.40742" lon="6.53517">
        <ele>274</ele>
        <time>2020-05-30T13:33:43.000Z</time>
      </trkpt>
      <trkpt lat="43.40775" lon="6.53529">
        <ele>273.20001220703</ele>
        <time>2020-05-30T13:33:51.000Z</time>
      </trkpt>
      <trkpt lat="43.40791" lon="6.53533">
        <ele>273.20001220703</ele>
        <time>2020-05-30T13:33:55.000Z</time>
      </trkpt>
      <trkpt lat="43.40804" lon="6.5353">
        <ele>273.39999389648</ele>
        <time>2020-05-30T13:33:58.000Z</time>
      </trkpt>
      <trkpt lat="43.40828" lon="6.53524">
        <ele>273</ele>
        <time>2020-05-30T13:34:04.000Z</time>
      </trkpt>
      <trkpt lat="43.40832" lon="6.53524">
        <ele>273.20001220703</ele>
        <time>2020-05-30T13:34:05.000Z</time>
      </trkpt>
      <trkpt lat="43.40836" lon="6.53525">
        <ele>273.20001220703</ele>
        <time>2020-05-30T13:34:06.000Z</time>
      </trkpt>
      <trkpt lat="43.40847" lon="6.53534">
        <ele>272.79998779297</ele>
        <time>2020-05-30T13:34:09.000Z</time>
      </trkpt>
      <trkpt lat="43.40853" lon="6.53542">
        <ele>272.79998779297</ele>
        <time>2020-05-30T13:34:11.000Z</time>
      </trkpt>
      <trkpt lat="43.40859" lon="6.53557">
        <ele>272.79998779297</ele>
        <time>2020-05-30T13:34:14.000Z</time>
      </trkpt>
      <trkpt lat="43.40877" lon="6.53587">
        <ele>272.60000610352</ele>
        <time>2020-05-30T13:34:20.000Z</time>
      </trkpt>
      <trkpt lat="43.40892" lon="6.53603">
        <ele>272.20001220703</ele>
        <time>2020-05-30T13:34:24.000Z</time>
      </trkpt>
      <trkpt lat="43.409" lon="6.53609">
        <ele>272.20001220703</ele>
        <time>2020-05-30T13:34:26.000Z</time>
      </trkpt>
      <trkpt lat="43.40929" lon="6.53628">
        <ele>272</ele>
        <time>2020-05-30T13:34:33.000Z</time>
      </trkpt>
      <trkpt lat="43.40958" lon="6.53643">
        <ele>272.20001220703</ele>
        <time>2020-05-30T13:34:40.000Z</time>
      </trkpt>
      <trkpt lat="43.40983" lon="6.53652">
        <ele>272</ele>
        <time>2020-05-30T13:34:46.000Z</time>
      </trkpt>
      <trkpt lat="43.40987" lon="6.53652">
        <ele>272</ele>
        <time>2020-05-30T13:34:47.000Z</time>
      </trkpt>
      <trkpt lat="43.40999" lon="6.53646">
        <ele>272</ele>
        <time>2020-05-30T13:34:50.000Z</time>
      </trkpt>
      <trkpt lat="43.41007" lon="6.53641">
        <ele>272</ele>
        <time>2020-05-30T13:34:52.000Z</time>
      </trkpt>
      <trkpt lat="43.41027" lon="6.5363">
        <ele>272</ele>
        <time>2020-05-30T13:34:57.000Z</time>
      </trkpt>
      <trkpt lat="43.41034" lon="6.53624">
        <ele>272.20001220703</ele>
        <time>2020-05-30T13:34:59.000Z</time>
      </trkpt>
      <trkpt lat="43.41041" lon="6.53616">
        <ele>272.39999389648</ele>
        <time>2020-05-30T13:35:01.000Z</time>
      </trkpt>
      <trkpt lat="43.41057" lon="6.53595">
        <ele>272.20001220703</ele>
        <time>2020-05-30T13:35:06.000Z</time>
      </trkpt>
      <trkpt lat="43.41074" lon="6.53575">
        <ele>272</ele>
        <time>2020-05-30T13:35:11.000Z</time>
      </trkpt>
      <trkpt lat="43.41078" lon="6.53572">
        <ele>272.20001220703</ele>
        <time>2020-05-30T13:35:12.000Z</time>
      </trkpt>
      <trkpt lat="43.41087" lon="6.5357">
        <ele>272.20001220703</ele>
        <time>2020-05-30T13:35:14.000Z</time>
      </trkpt>
      <trkpt lat="43.41092" lon="6.53572">
        <ele>272</ele>
        <time>2020-05-30T13:35:15.000Z</time>
      </trkpt>
      <trkpt lat="43.41108" lon="6.53586">
        <ele>271.20001220703</ele>
        <time>2020-05-30T13:35:19.000Z</time>
      </trkpt>
      <trkpt lat="43.41112" lon="6.5359">
        <ele>271.20001220703</ele>
        <time>2020-05-30T13:35:20.000Z</time>
      </trkpt>
      <trkpt lat="43.41116" lon="6.53594">
        <ele>271.20001220703</ele>
        <time>2020-05-30T13:35:21.000Z</time>
      </trkpt>
      <trkpt lat="43.41133" lon="6.53609">
        <ele>271.20001220703</ele>
        <time>2020-05-30T13:35:26.000Z</time>
      </trkpt>
      <trkpt lat="43.41136" lon="6.53612">
        <ele>271.20001220703</ele>
        <time>2020-05-30T13:35:30.000Z</time>
      </trkpt>
      <trkpt lat="43.41138" lon="6.53612">
        <ele>271.60000610352</ele>
        <time>2020-05-30T13:35:32.000Z</time>
      </trkpt>
      <trkpt lat="43.41141" lon="6.53614">
        <ele>271.79998779297</ele>
        <time>2020-05-30T13:35:34.000Z</time>
      </trkpt>
      <trkpt lat="43.41153" lon="6.5362">
        <ele>271.60000610352</ele>
        <time>2020-05-30T13:35:38.000Z</time>
      </trkpt>
      <trkpt lat="43.4118" lon="6.53632">
        <ele>271.39999389648</ele>
        <time>2020-05-30T13:35:45.000Z</time>
      </trkpt>
      <trkpt lat="43.41193" lon="6.53646">
        <ele>271.20001220703</ele>
        <time>2020-05-30T13:35:50.000Z</time>
      </trkpt>
      <trkpt lat="43.41202" lon="6.5366">
        <ele>271.20001220703</ele>
        <time>2020-05-30T13:35:56.000Z</time>
      </trkpt>
      <trkpt lat="43.41203" lon="6.53661">
        <ele>271.39999389648</ele>
        <time>2020-05-30T13:35:58.000Z</time>
      </trkpt>
      <trkpt lat="43.41206" lon="6.5366">
        <ele>271.39999389648</ele>
        <time>2020-05-30T13:36:00.000Z</time>
      </trkpt>
      <trkpt lat="43.41208" lon="6.5366">
        <ele>271.39999389648</ele>
        <time>2020-05-30T13:36:01.000Z</time>
      </trkpt>
      <trkpt lat="43.41219" lon="6.53657">
        <ele>271.39999389648</ele>
        <time>2020-05-30T13:36:04.000Z</time>
      </trkpt>
      <trkpt lat="43.4123" lon="6.53653">
        <ele>271.39999389648</ele>
        <time>2020-05-30T13:36:07.000Z</time>
      </trkpt>
      <trkpt lat="43.41238" lon="6.53649">
        <ele>271.60000610352</ele>
        <time>2020-05-30T13:36:09.000Z</time>
      </trkpt>
      <trkpt lat="43.41244" lon="6.53648">
        <ele>271.20001220703</ele>
        <time>2020-05-30T13:36:11.000Z</time>
      </trkpt>
      <trkpt lat="43.41252" lon="6.53646">
        <ele>270.79998779297</ele>
        <time>2020-05-30T13:36:13.000Z</time>
      </trkpt>
      <trkpt lat="43.4126" lon="6.53644">
        <ele>270.39999389648</ele>
        <time>2020-05-30T13:36:15.000Z</time>
      </trkpt>
      <trkpt lat="43.4127" lon="6.53641">
        <ele>269.79998779297</ele>
        <time>2020-05-30T13:36:17.000Z</time>
      </trkpt>
      <trkpt lat="43.41276" lon="6.53643">
        <ele>269.39999389648</ele>
        <time>2020-05-30T13:36:18.000Z</time>
      </trkpt>
      <trkpt lat="43.41281" lon="6.53644">
        <ele>269.20001220703</ele>
        <time>2020-05-30T13:36:19.000Z</time>
      </trkpt>
      <trkpt lat="43.41286" lon="6.53643">
        <ele>268.60000610352</ele>
        <time>2020-05-30T13:36:20.000Z</time>
      </trkpt>
      <trkpt lat="43.41296" lon="6.53642">
        <ele>268.39999389648</ele>
        <time>2020-05-30T13:36:22.000Z</time>
      </trkpt>
      <trkpt lat="43.41301" lon="6.53643">
        <ele>268.20001220703</ele>
        <time>2020-05-30T13:36:23.000Z</time>
      </trkpt>
      <trkpt lat="43.41306" lon="6.5364">
        <ele>268.20001220703</ele>
        <time>2020-05-30T13:36:24.000Z</time>
      </trkpt>
      <trkpt lat="43.41316" lon="6.53637">
        <ele>268.20001220703</ele>
        <time>2020-05-30T13:36:26.000Z</time>
      </trkpt>
      <trkpt lat="43.41322" lon="6.53636">
        <ele>267.60000610352</ele>
        <time>2020-05-30T13:36:27.000Z</time>
      </trkpt>
      <trkpt lat="43.41329" lon="6.53636">
        <ele>266.60000610352</ele>
        <time>2020-05-30T13:36:28.000Z</time>
      </trkpt>
      <trkpt lat="43.41341" lon="6.53634">
        <ele>265</ele>
        <time>2020-05-30T13:36:30.000Z</time>
      </trkpt>
      <trkpt lat="43.41364" lon="6.53626">
        <ele>263.79998779297</ele>
        <time>2020-05-30T13:36:34.000Z</time>
      </trkpt>
      <trkpt lat="43.41375" lon="6.53612">
        <ele>263</ele>
        <time>2020-05-30T13:36:37.000Z</time>
      </trkpt>
      <trkpt lat="43.41377" lon="6.53609">
        <ele>262.60000610352</ele>
        <time>2020-05-30T13:36:38.000Z</time>
      </trkpt>
      <trkpt lat="43.41377" lon="6.53609">
        <ele>262</ele>
        <time>2020-05-30T13:36:40.000Z</time>
      </trkpt>
      <trkpt lat="43.41378" lon="6.53608">
        <ele>261.79998779297</ele>
        <time>2020-05-30T13:37:00.000Z</time>
      </trkpt>
      <trkpt lat="43.4138" lon="6.53603">
        <ele>261.79998779297</ele>
        <time>2020-05-30T13:37:06.000Z</time>
      </trkpt>
      <trkpt lat="43.41384" lon="6.53605">
        <ele>262</ele>
        <time>2020-05-30T13:37:13.000Z</time>
      </trkpt>
      <trkpt lat="43.41385" lon="6.53606">
        <ele>262.79998779297</ele>
        <time>2020-05-30T13:37:20.000Z</time>
      </trkpt>
      <trkpt lat="43.41385" lon="6.53607">
        <ele>262.60000610352</ele>
        <time>2020-05-30T13:37:24.000Z</time>
      </trkpt>
      <trkpt lat="43.41387" lon="6.5361">
        <ele>262.60000610352</ele>
        <time>2020-05-30T13:37:26.000Z</time>
      </trkpt>
      <trkpt lat="43.41389" lon="6.53616">
        <ele>262.79998779297</ele>
        <time>2020-05-30T13:37:29.000Z</time>
      </trkpt>
      <trkpt lat="43.41393" lon="6.53614">
        <ele>263.39999389648</ele>
        <time>2020-05-30T13:37:32.000Z</time>
      </trkpt>
      <trkpt lat="43.41393" lon="6.53614">
        <ele>263.60000610352</ele>
        <time>2020-05-30T13:37:33.000Z</time>
      </trkpt>
      <trkpt lat="43.41398" lon="6.53611">
        <ele>264</ele>
        <time>2020-05-30T13:37:37.000Z</time>
      </trkpt>
      <trkpt lat="43.41407" lon="6.53609">
        <ele>264.60000610352</ele>
        <time>2020-05-30T13:37:42.000Z</time>
      </trkpt>
      <trkpt lat="43.41409" lon="6.53608">
        <ele>264.79998779297</ele>
        <time>2020-05-30T13:37:43.000Z</time>
      </trkpt>
      <trkpt lat="43.41422" lon="6.53609">
        <ele>265.79998779297</ele>
        <time>2020-05-30T13:37:48.000Z</time>
      </trkpt>
      <trkpt lat="43.41428" lon="6.53609">
        <ele>266.20001220703</ele>
        <time>2020-05-30T13:37:50.000Z</time>
      </trkpt>
      <trkpt lat="43.41439" lon="6.53609">
        <ele>266.79998779297</ele>
        <time>2020-05-30T13:37:54.000Z</time>
      </trkpt>
      <trkpt lat="43.41449" lon="6.53603">
        <ele>267.60000610352</ele>
        <time>2020-05-30T13:37:58.000Z</time>
      </trkpt>
      <trkpt lat="43.41454" lon="6.53598">
        <ele>268</ele>
        <time>2020-05-30T13:38:00.000Z</time>
      </trkpt>
      <trkpt lat="43.41462" lon="6.53583">
        <ele>268.39999389648</ele>
        <time>2020-05-30T13:38:04.000Z</time>
      </trkpt>
      <trkpt lat="43.41474" lon="6.53554">
        <ele>268.60000610352</ele>
        <time>2020-05-30T13:38:11.000Z</time>
      </trkpt>
      <trkpt lat="43.4148" lon="6.53538">
        <ele>268.39999389648</ele>
        <time>2020-05-30T13:38:14.000Z</time>
      </trkpt>
      <trkpt lat="43.41487" lon="6.5352">
        <ele>268.39999389648</ele>
        <time>2020-05-30T13:38:17.000Z</time>
      </trkpt>
      <trkpt lat="43.415" lon="6.53476">
        <ele>268.60000610352</ele>
        <time>2020-05-30T13:38:24.000Z</time>
      </trkpt>
      <trkpt lat="43.41506" lon="6.53462">
        <ele>269.20001220703</ele>
        <time>2020-05-30T13:38:27.000Z</time>
      </trkpt>
      <trkpt lat="43.4151" lon="6.53452">
        <ele>270.39999389648</ele>
        <time>2020-05-30T13:38:30.000Z</time>
      </trkpt>
      <trkpt lat="43.41516" lon="6.5344">
        <ele>271.20001220703</ele>
        <time>2020-05-30T13:38:36.000Z</time>
      </trkpt>
      <trkpt lat="43.41518" lon="6.53438">
        <ele>271.20001220703</ele>
        <time>2020-05-30T13:38:41.000Z</time>
      </trkpt>
      <trkpt lat="43.41518" lon="6.53437">
        <ele>271.39999389648</ele>
        <time>2020-05-30T13:38:46.000Z</time>
      </trkpt>
      <trkpt lat="43.41517" lon="6.53435">
        <ele>271.39999389648</ele>
        <time>2020-05-30T13:38:48.000Z</time>
      </trkpt>
      <trkpt lat="43.41518" lon="6.53423">
        <ele>271.60000610352</ele>
        <time>2020-05-30T13:38:53.000Z</time>
      </trkpt>
      <trkpt lat="43.41529" lon="6.53404">
        <ele>272.20001220703</ele>
        <time>2020-05-30T13:38:59.000Z</time>
      </trkpt>
      <trkpt lat="43.41531" lon="6.53399">
        <ele>272.60000610352</ele>
        <time>2020-05-30T13:39:00.000Z</time>
      </trkpt>
      <trkpt lat="43.41538" lon="6.53387">
        <ele>273.79998779297</ele>
        <time>2020-05-30T13:39:03.000Z</time>
      </trkpt>
      <trkpt lat="43.41543" lon="6.53377">
        <ele>275</ele>
        <time>2020-05-30T13:39:06.000Z</time>
      </trkpt>
      <trkpt lat="43.41559" lon="6.53345">
        <ele>275</ele>
        <time>2020-05-30T13:39:13.000Z</time>
      </trkpt>
      <trkpt lat="43.41566" lon="6.53333">
        <ele>273.39999389648</ele>
        <time>2020-05-30T13:39:15.000Z</time>
      </trkpt>
      <trkpt lat="43.41575" lon="6.53319">
        <ele>272</ele>
        <time>2020-05-30T13:39:17.000Z</time>
      </trkpt>
      <trkpt lat="43.41581" lon="6.53313">
        <ele>270.39999389648</ele>
        <time>2020-05-30T13:39:18.000Z</time>
      </trkpt>
      <trkpt lat="43.41586" lon="6.53309">
        <ele>269.20001220703</ele>
        <time>2020-05-30T13:39:19.000Z</time>
      </trkpt>
      <trkpt lat="43.41592" lon="6.53305">
        <ele>267.79998779297</ele>
        <time>2020-05-30T13:39:20.000Z</time>
      </trkpt>
      <trkpt lat="43.41604" lon="6.53296">
        <ele>266.39999389648</ele>
        <time>2020-05-30T13:39:22.000Z</time>
      </trkpt>
      <trkpt lat="43.41616" lon="6.53287">
        <ele>265</ele>
        <time>2020-05-30T13:39:24.000Z</time>
      </trkpt>
      <trkpt lat="43.41628" lon="6.53279">
        <ele>263.60000610352</ele>
        <time>2020-05-30T13:39:26.000Z</time>
      </trkpt>
      <trkpt lat="43.41634" lon="6.53276">
        <ele>263</ele>
        <time>2020-05-30T13:39:27.000Z</time>
      </trkpt>
      <trkpt lat="43.41641" lon="6.53275">
        <ele>262.60000610352</ele>
        <time>2020-05-30T13:39:28.000Z</time>
      </trkpt>
      <trkpt lat="43.41653" lon="6.53271">
        <ele>262.39999389648</ele>
        <time>2020-05-30T13:39:30.000Z</time>
      </trkpt>
      <trkpt lat="43.41666" lon="6.53269">
        <ele>261.60000610352</ele>
        <time>2020-05-30T13:39:32.000Z</time>
      </trkpt>
      <trkpt lat="43.41672" lon="6.53268">
        <ele>261.20001220703</ele>
        <time>2020-05-30T13:39:33.000Z</time>
      </trkpt>
      <trkpt lat="43.41683" lon="6.53268">
        <ele>260.20001220703</ele>
        <time>2020-05-30T13:39:35.000Z</time>
      </trkpt>
      <trkpt lat="43.41689" lon="6.53269">
        <ele>260.20001220703</ele>
        <time>2020-05-30T13:39:36.000Z</time>
      </trkpt>
      <trkpt lat="43.41695" lon="6.53272">
        <ele>259.79998779297</ele>
        <time>2020-05-30T13:39:37.000Z</time>
      </trkpt>
      <trkpt lat="43.41706" lon="6.53277">
        <ele>259</ele>
        <time>2020-05-30T13:39:39.000Z</time>
      </trkpt>
      <trkpt lat="43.41711" lon="6.5328">
        <ele>258.79998779297</ele>
        <time>2020-05-30T13:39:40.000Z</time>
      </trkpt>
      <trkpt lat="43.41729" lon="6.53286">
        <ele>258</ele>
        <time>2020-05-30T13:39:43.000Z</time>
      </trkpt>
      <trkpt lat="43.41751" lon="6.53291">
        <ele>257.60000610352</ele>
        <time>2020-05-30T13:39:47.000Z</time>
      </trkpt>
      <trkpt lat="43.41777" lon="6.53295">
        <ele>258</ele>
        <time>2020-05-30T13:39:52.000Z</time>
      </trkpt>
      <trkpt lat="43.41782" lon="6.53296">
        <ele>258</ele>
        <time>2020-05-30T13:39:53.000Z</time>
      </trkpt>
      <trkpt lat="43.41787" lon="6.53298">
        <ele>257.79998779297</ele>
        <time>2020-05-30T13:39:54.000Z</time>
      </trkpt>
      <trkpt lat="43.41803" lon="6.53302">
        <ele>257.20001220703</ele>
        <time>2020-05-30T13:39:57.000Z</time>
      </trkpt>
      <trkpt lat="43.41809" lon="6.53303">
        <ele>257</ele>
        <time>2020-05-30T13:39:58.000Z</time>
      </trkpt>
      <trkpt lat="43.41815" lon="6.53304">
        <ele>257</ele>
        <time>2020-05-30T13:39:59.000Z</time>
      </trkpt>
      <trkpt lat="43.4183" lon="6.53305">
        <ele>255.80000305176</ele>
        <time>2020-05-30T13:40:01.000Z</time>
      </trkpt>
      <trkpt lat="43.41838" lon="6.53307">
        <ele>255</ele>
        <time>2020-05-30T13:40:02.000Z</time>
      </trkpt>
      <trkpt lat="43.41845" lon="6.53309">
        <ele>254.60000610352</ele>
        <time>2020-05-30T13:40:03.000Z</time>
      </trkpt>
      <trkpt lat="43.41857" lon="6.53317">
        <ele>253.60000610352</ele>
        <time>2020-05-30T13:40:05.000Z</time>
      </trkpt>
      <trkpt lat="43.4186" lon="6.53322">
        <ele>253</ele>
        <time>2020-05-30T13:40:06.000Z</time>
      </trkpt>
      <trkpt lat="43.41876" lon="6.53344">
        <ele>253</ele>
        <time>2020-05-30T13:40:10.000Z</time>
      </trkpt>
      <trkpt lat="43.41893" lon="6.5336">
        <ele>254.19999694824</ele>
        <time>2020-05-30T13:40:14.000Z</time>
      </trkpt>
      <trkpt lat="43.41897" lon="6.53363">
        <ele>254.60000610352</ele>
        <time>2020-05-30T13:40:15.000Z</time>
      </trkpt>
      <trkpt lat="43.41905" lon="6.53369">
        <ele>255</ele>
        <time>2020-05-30T13:40:17.000Z</time>
      </trkpt>
      <trkpt lat="43.41912" lon="6.53375">
        <ele>255.80000305176</ele>
        <time>2020-05-30T13:40:19.000Z</time>
      </trkpt>
      <trkpt lat="43.41924" lon="6.53384">
        <ele>256.79998779297</ele>
        <time>2020-05-30T13:40:22.000Z</time>
      </trkpt>
      <trkpt lat="43.41933" lon="6.53391">
        <ele>257</ele>
        <time>2020-05-30T13:40:24.000Z</time>
      </trkpt>
      <trkpt lat="43.41937" lon="6.53395">
        <ele>257.39999389648</ele>
        <time>2020-05-30T13:40:25.000Z</time>
      </trkpt>
      <trkpt lat="43.4194" lon="6.53399">
        <ele>257.79998779297</ele>
        <time>2020-05-30T13:40:26.000Z</time>
      </trkpt>
      <trkpt lat="43.41945" lon="6.53409">
        <ele>258.20001220703</ele>
        <time>2020-05-30T13:40:28.000Z</time>
      </trkpt>
      <trkpt lat="43.41947" lon="6.53413">
        <ele>258.79998779297</ele>
        <time>2020-05-30T13:40:29.000Z</time>
      </trkpt>
      <trkpt lat="43.41951" lon="6.53422">
        <ele>259.79998779297</ele>
        <time>2020-05-30T13:40:31.000Z</time>
      </trkpt>
      <trkpt lat="43.41953" lon="6.53428">
        <ele>260.79998779297</ele>
        <time>2020-05-30T13:40:32.000Z</time>
      </trkpt>
      <trkpt lat="43.41955" lon="6.53433">
        <ele>261</ele>
        <time>2020-05-30T13:40:33.000Z</time>
      </trkpt>
      <trkpt lat="43.41965" lon="6.5345">
        <ele>261.60000610352</ele>
        <time>2020-05-30T13:40:37.000Z</time>
      </trkpt>
      <trkpt lat="43.41967" lon="6.53455">
        <ele>261.60000610352</ele>
        <time>2020-05-30T13:40:38.000Z</time>
      </trkpt>
      <trkpt lat="43.41969" lon="6.5346">
        <ele>261.79998779297</ele>
        <time>2020-05-30T13:40:39.000Z</time>
      </trkpt>
      <trkpt lat="43.41975" lon="6.53471">
        <ele>262</ele>
        <time>2020-05-30T13:40:41.000Z</time>
      </trkpt>
      <trkpt lat="43.41981" lon="6.53483">
        <ele>261.60000610352</ele>
        <time>2020-05-30T13:40:43.000Z</time>
      </trkpt>
      <trkpt lat="43.41991" lon="6.53501">
        <ele>261</ele>
        <time>2020-05-30T13:40:46.000Z</time>
      </trkpt>
      <trkpt lat="43.42" lon="6.53511">
        <ele>260.79998779297</ele>
        <time>2020-05-30T13:40:48.000Z</time>
      </trkpt>
      <trkpt lat="43.42011" lon="6.53517">
        <ele>260.60000610352</ele>
        <time>2020-05-30T13:40:50.000Z</time>
      </trkpt>
      <trkpt lat="43.42017" lon="6.53517">
        <ele>260.60000610352</ele>
        <time>2020-05-30T13:40:51.000Z</time>
      </trkpt>
      <trkpt lat="43.42023" lon="6.53517">
        <ele>260.60000610352</ele>
        <time>2020-05-30T13:40:52.000Z</time>
      </trkpt>
      <trkpt lat="43.42047" lon="6.53514">
        <ele>259.79998779297</ele>
        <time>2020-05-30T13:40:56.000Z</time>
      </trkpt>
      <trkpt lat="43.42053" lon="6.53514">
        <ele>259.60000610352</ele>
        <time>2020-05-30T13:40:57.000Z</time>
      </trkpt>
      <trkpt lat="43.42071" lon="6.53518">
        <ele>259.20001220703</ele>
        <time>2020-05-30T13:41:00.000Z</time>
      </trkpt>
      <trkpt lat="43.42084" lon="6.5352">
        <ele>258.79998779297</ele>
        <time>2020-05-30T13:41:02.000Z</time>
      </trkpt>
      <trkpt lat="43.42091" lon="6.53519">
        <ele>258.39999389648</ele>
        <time>2020-05-30T13:41:03.000Z</time>
      </trkpt>
      <trkpt lat="43.42108" lon="6.53512">
        <ele>257.60000610352</ele>
        <time>2020-05-30T13:41:06.000Z</time>
      </trkpt>
      <trkpt lat="43.42114" lon="6.53508">
        <ele>257.39999389648</ele>
        <time>2020-05-30T13:41:07.000Z</time>
      </trkpt>
      <trkpt lat="43.4212" lon="6.53505">
        <ele>257.20001220703</ele>
        <time>2020-05-30T13:41:08.000Z</time>
      </trkpt>
      <trkpt lat="43.42132" lon="6.53502">
        <ele>257</ele>
        <time>2020-05-30T13:41:10.000Z</time>
      </trkpt>
      <trkpt lat="43.42144" lon="6.53504">
        <ele>257.20001220703</ele>
        <time>2020-05-30T13:41:12.000Z</time>
      </trkpt>
      <trkpt lat="43.42156" lon="6.5351">
        <ele>257</ele>
        <time>2020-05-30T13:41:14.000Z</time>
      </trkpt>
      <trkpt lat="43.42176" lon="6.53527">
        <ele>256.39999389648</ele>
        <time>2020-05-30T13:41:18.000Z</time>
      </trkpt>
      <trkpt lat="43.42186" lon="6.53535">
        <ele>256.79998779297</ele>
        <time>2020-05-30T13:41:20.000Z</time>
      </trkpt>
      <trkpt lat="43.42222" lon="6.53557">
        <ele>257.20001220703</ele>
        <time>2020-05-30T13:41:27.000Z</time>
      </trkpt>
      <trkpt lat="43.42248" lon="6.53557">
        <ele>256.60000610352</ele>
        <time>2020-05-30T13:41:31.000Z</time>
      </trkpt>
      <trkpt lat="43.42263" lon="6.53553">
        <ele>255.80000305176</ele>
        <time>2020-05-30T13:41:33.000Z</time>
      </trkpt>
      <trkpt lat="43.42279" lon="6.53548">
        <ele>254.39999389648</ele>
        <time>2020-05-30T13:41:35.000Z</time>
      </trkpt>
      <trkpt lat="43.42287" lon="6.53544">
        <ele>253.60000610352</ele>
        <time>2020-05-30T13:41:36.000Z</time>
      </trkpt>
      <trkpt lat="43.42297" lon="6.5354">
        <ele>251.80000305176</ele>
        <time>2020-05-30T13:41:37.000Z</time>
      </trkpt>
      <trkpt lat="43.42314" lon="6.53533">
        <ele>250.39999389648</ele>
        <time>2020-05-30T13:41:39.000Z</time>
      </trkpt>
      <trkpt lat="43.42321" lon="6.53529">
        <ele>249.19999694824</ele>
        <time>2020-05-30T13:41:40.000Z</time>
      </trkpt>
      <trkpt lat="43.42336" lon="6.53524">
        <ele>247.80000305176</ele>
        <time>2020-05-30T13:41:42.000Z</time>
      </trkpt>
      <trkpt lat="43.42343" lon="6.53521">
        <ele>246.60000610352</ele>
        <time>2020-05-30T13:41:43.000Z</time>
      </trkpt>
      <trkpt lat="43.42351" lon="6.53519">
        <ele>246</ele>
        <time>2020-05-30T13:41:44.000Z</time>
      </trkpt>
      <trkpt lat="43.42358" lon="6.53517">
        <ele>245.39999389648</ele>
        <time>2020-05-30T13:41:45.000Z</time>
      </trkpt>
      <trkpt lat="43.42366" lon="6.53516">
        <ele>245</ele>
        <time>2020-05-30T13:41:46.000Z</time>
      </trkpt>
      <trkpt lat="43.42381" lon="6.53512">
        <ele>243.60000610352</ele>
        <time>2020-05-30T13:41:48.000Z</time>
      </trkpt>
      <trkpt lat="43.42395" lon="6.53509">
        <ele>242.39999389648</ele>
        <time>2020-05-30T13:41:50.000Z</time>
      </trkpt>
      <trkpt lat="43.42418" lon="6.535">
        <ele>241.60000610352</ele>
        <time>2020-05-30T13:41:53.000Z</time>
      </trkpt>
      <trkpt lat="43.42425" lon="6.53498">
        <ele>241.19999694824</ele>
        <time>2020-05-30T13:41:54.000Z</time>
      </trkpt>
      <trkpt lat="43.42431" lon="6.53495">
        <ele>240.60000610352</ele>
        <time>2020-05-30T13:41:55.000Z</time>
      </trkpt>
      <trkpt lat="43.42441" lon="6.5349">
        <ele>239.80000305176</ele>
        <time>2020-05-30T13:41:57.000Z</time>
      </trkpt>
      <trkpt lat="43.42449" lon="6.53488">
        <ele>240.39999389648</ele>
        <time>2020-05-30T13:42:00.000Z</time>
      </trkpt>
      <trkpt lat="43.42452" lon="6.53489">
        <ele>240.80000305176</ele>
        <time>2020-05-30T13:42:01.000Z</time>
      </trkpt>
      <trkpt lat="43.42456" lon="6.5349">
        <ele>242</ele>
        <time>2020-05-30T13:42:03.000Z</time>
      </trkpt>
      <trkpt lat="43.42462" lon="6.53492">
        <ele>242.80000305176</ele>
        <time>2020-05-30T13:42:07.000Z</time>
      </trkpt>
      <trkpt lat="43.42462" lon="6.53493">
        <ele>243.19999694824</ele>
        <time>2020-05-30T13:42:10.000Z</time>
      </trkpt>
      <trkpt lat="43.42462" lon="6.53492">
        <ele>243.39999389648</ele>
        <time>2020-05-30T13:42:17.000Z</time>
      </trkpt>
      <trkpt lat="43.42464" lon="6.53493">
        <ele>242.80000305176</ele>
        <time>2020-05-30T13:42:26.000Z</time>
      </trkpt>
      <trkpt lat="43.42465" lon="6.53494">
        <ele>243</ele>
        <time>2020-05-30T13:42:27.000Z</time>
      </trkpt>
      <trkpt lat="43.42477" lon="6.535">
        <ele>243.19999694824</ele>
        <time>2020-05-30T13:42:31.000Z</time>
      </trkpt>
      <trkpt lat="43.42491" lon="6.53506">
        <ele>243.19999694824</ele>
        <time>2020-05-30T13:42:34.000Z</time>
      </trkpt>
      <trkpt lat="43.42501" lon="6.53507">
        <ele>243.19999694824</ele>
        <time>2020-05-30T13:42:36.000Z</time>
      </trkpt>
      <trkpt lat="43.42529" lon="6.53503">
        <ele>243</ele>
        <time>2020-05-30T13:42:41.000Z</time>
      </trkpt>
      <trkpt lat="43.42535" lon="6.53501">
        <ele>242.39999389648</ele>
        <time>2020-05-30T13:42:42.000Z</time>
      </trkpt>
      <trkpt lat="43.42541" lon="6.53498">
        <ele>242.19999694824</ele>
        <time>2020-05-30T13:42:43.000Z</time>
      </trkpt>
      <trkpt lat="43.42553" lon="6.5349">
        <ele>241.39999389648</ele>
        <time>2020-05-30T13:42:45.000Z</time>
      </trkpt>
      <trkpt lat="43.42564" lon="6.53482">
        <ele>240.60000610352</ele>
        <time>2020-05-30T13:42:47.000Z</time>
      </trkpt>
      <trkpt lat="43.42577" lon="6.53476">
        <ele>240</ele>
        <time>2020-05-30T13:42:49.000Z</time>
      </trkpt>
      <trkpt lat="43.42583" lon="6.53474">
        <ele>239.80000305176</ele>
        <time>2020-05-30T13:42:50.000Z</time>
      </trkpt>
      <trkpt lat="43.42594" lon="6.53472">
        <ele>239.60000610352</ele>
        <time>2020-05-30T13:42:52.000Z</time>
      </trkpt>
      <trkpt lat="43.42599" lon="6.53472">
        <ele>239.60000610352</ele>
        <time>2020-05-30T13:42:53.000Z</time>
      </trkpt>
      <trkpt lat="43.4261" lon="6.53474">
        <ele>239.39999389648</ele>
        <time>2020-05-30T13:42:55.000Z</time>
      </trkpt>
      <trkpt lat="43.42615" lon="6.53475">
        <ele>239.60000610352</ele>
        <time>2020-05-30T13:42:56.000Z</time>
      </trkpt>
      <trkpt lat="43.42629" lon="6.53477">
        <ele>239.80000305176</ele>
        <time>2020-05-30T13:42:59.000Z</time>
      </trkpt>
      <trkpt lat="43.42633" lon="6.53479">
        <ele>240.19999694824</ele>
        <time>2020-05-30T13:43:00.000Z</time>
      </trkpt>
      <trkpt lat="43.4264" lon="6.53484">
        <ele>241</ele>
        <time>2020-05-30T13:43:02.000Z</time>
      </trkpt>
      <trkpt lat="43.42647" lon="6.53491">
        <ele>242</ele>
        <time>2020-05-30T13:43:05.000Z</time>
      </trkpt>
      <trkpt lat="43.42652" lon="6.53498">
        <ele>243.19999694824</ele>
        <time>2020-05-30T13:43:08.000Z</time>
      </trkpt>
      <trkpt lat="43.42658" lon="6.53504">
        <ele>244</ele>
        <time>2020-05-30T13:43:11.000Z</time>
      </trkpt>
      <trkpt lat="43.42661" lon="6.53507">
        <ele>244.19999694824</ele>
        <time>2020-05-30T13:43:12.000Z</time>
      </trkpt>
      <trkpt lat="43.42667" lon="6.53517">
        <ele>245</ele>
        <time>2020-05-30T13:43:15.000Z</time>
      </trkpt>
      <trkpt lat="43.42668" lon="6.5352">
        <ele>245.39999389648</ele>
        <time>2020-05-30T13:43:16.000Z</time>
      </trkpt>
      <trkpt lat="43.42669" lon="6.53532">
        <ele>247</ele>
        <time>2020-05-30T13:43:19.000Z</time>
      </trkpt>
      <trkpt lat="43.42668" lon="6.53536">
        <ele>247.39999389648</ele>
        <time>2020-05-30T13:43:20.000Z</time>
      </trkpt>
      <trkpt lat="43.42666" lon="6.53544">
        <ele>248.19999694824</ele>
        <time>2020-05-30T13:43:22.000Z</time>
      </trkpt>
      <trkpt lat="43.42661" lon="6.53555">
        <ele>249.19999694824</ele>
        <time>2020-05-30T13:43:25.000Z</time>
      </trkpt>
      <trkpt lat="43.42659" lon="6.53558">
        <ele>249.39999389648</ele>
        <time>2020-05-30T13:43:26.000Z</time>
      </trkpt>
      <trkpt lat="43.42649" lon="6.5359">
        <ele>250.39999389648</ele>
        <time>2020-05-30T13:43:34.000Z</time>
      </trkpt>
      <trkpt lat="43.42649" lon="6.53604">
        <ele>250.80000305176</ele>
        <time>2020-05-30T13:43:37.000Z</time>
      </trkpt>
      <trkpt lat="43.42651" lon="6.53612">
        <ele>251</ele>
        <time>2020-05-30T13:43:39.000Z</time>
      </trkpt>
      <trkpt lat="43.42653" lon="6.53615">
        <ele>251.39999389648</ele>
        <time>2020-05-30T13:43:40.000Z</time>
      </trkpt>
      <trkpt lat="43.42654" lon="6.53619">
        <ele>251.60000610352</ele>
        <time>2020-05-30T13:43:41.000Z</time>
      </trkpt>
      <trkpt lat="43.42659" lon="6.53623">
        <ele>252.60000610352</ele>
        <time>2020-05-30T13:43:43.000Z</time>
      </trkpt>
      <trkpt lat="43.42663" lon="6.53628">
        <ele>253.19999694824</ele>
        <time>2020-05-30T13:43:45.000Z</time>
      </trkpt>
      <trkpt lat="43.42671" lon="6.53635">
        <ele>253.80000305176</ele>
        <time>2020-05-30T13:43:48.000Z</time>
      </trkpt>
      <trkpt lat="43.42678" lon="6.53642">
        <ele>255</ele>
        <time>2020-05-30T13:43:51.000Z</time>
      </trkpt>
      <trkpt lat="43.42683" lon="6.53646">
        <ele>255.80000305176</ele>
        <time>2020-05-30T13:43:53.000Z</time>
      </trkpt>
      <trkpt lat="43.42686" lon="6.53648">
        <ele>256.39999389648</ele>
        <time>2020-05-30T13:43:54.000Z</time>
      </trkpt>
      <trkpt lat="43.42698" lon="6.53656">
        <ele>257.60000610352</ele>
        <time>2020-05-30T13:43:58.000Z</time>
      </trkpt>
      <trkpt lat="43.42703" lon="6.53661">
        <ele>258.20001220703</ele>
        <time>2020-05-30T13:44:00.000Z</time>
      </trkpt>
      <trkpt lat="43.42713" lon="6.5367">
        <ele>258.60000610352</ele>
        <time>2020-05-30T13:44:04.000Z</time>
      </trkpt>
      <trkpt lat="43.4272" lon="6.5368">
        <ele>259.79998779297</ele>
        <time>2020-05-30T13:44:08.000Z</time>
      </trkpt>
      <trkpt lat="43.42729" lon="6.53691">
        <ele>260.79998779297</ele>
        <time>2020-05-30T13:44:14.000Z</time>
      </trkpt>
      <trkpt lat="43.42731" lon="6.53692">
        <ele>260.79998779297</ele>
        <time>2020-05-30T13:44:15.000Z</time>
      </trkpt>
      <trkpt lat="43.42737" lon="6.53702">
        <ele>261</ele>
        <time>2020-05-30T13:44:22.000Z</time>
      </trkpt>
      <trkpt lat="43.42739" lon="6.53705">
        <ele>261</ele>
        <time>2020-05-30T13:44:28.000Z</time>
      </trkpt>
      <trkpt lat="43.42739" lon="6.53702">
        <ele>261.20001220703</ele>
        <time>2020-05-30T13:44:37.000Z</time>
      </trkpt>
      <trkpt lat="43.42734" lon="6.53697">
        <ele>261.20001220703</ele>
        <time>2020-05-30T13:44:41.000Z</time>
      </trkpt>
      <trkpt lat="43.42729" lon="6.53692">
        <ele>261.20001220703</ele>
        <time>2020-05-30T13:44:43.000Z</time>
      </trkpt>
      <trkpt lat="43.42711" lon="6.5367">
        <ele>260.60000610352</ele>
        <time>2020-05-30T13:44:50.000Z</time>
      </trkpt>
      <trkpt lat="43.4269" lon="6.5365">
        <ele>260</ele>
        <time>2020-05-30T13:44:56.000Z</time>
      </trkpt>
      <trkpt lat="43.42687" lon="6.53648">
        <ele>259.39999389648</ele>
        <time>2020-05-30T13:44:57.000Z</time>
      </trkpt>
      <trkpt lat="43.42682" lon="6.53646">
        <ele>258.60000610352</ele>
        <time>2020-05-30T13:44:59.000Z</time>
      </trkpt>
      <trkpt lat="43.42681" lon="6.53644">
        <ele>258</ele>
        <time>2020-05-30T13:45:00.000Z</time>
      </trkpt>
      <trkpt lat="43.42679" lon="6.53642">
        <ele>257.39999389648</ele>
        <time>2020-05-30T13:45:02.000Z</time>
      </trkpt>
      <trkpt lat="43.42679" lon="6.5364">
        <ele>257.20001220703</ele>
        <time>2020-05-30T13:45:03.000Z</time>
      </trkpt>
      <trkpt lat="43.42678" lon="6.53633">
        <ele>257</ele>
        <time>2020-05-30T13:45:06.000Z</time>
      </trkpt>
      <trkpt lat="43.42679" lon="6.53633">
        <ele>257.20001220703</ele>
        <time>2020-05-30T13:45:08.000Z</time>
      </trkpt>
      <trkpt lat="43.42679" lon="6.53632">
        <ele>257.39999389648</ele>
        <time>2020-05-30T13:45:25.000Z</time>
      </trkpt>
      <trkpt lat="43.4268" lon="6.53631">
        <ele>257.79998779297</ele>
        <time>2020-05-30T13:45:31.000Z</time>
      </trkpt>
      <trkpt lat="43.4268" lon="6.53631">
        <ele>258</ele>
        <time>2020-05-30T13:45:33.000Z</time>
      </trkpt>
      <trkpt lat="43.42681" lon="6.53627">
        <ele>258.20001220703</ele>
        <time>2020-05-30T13:45:39.000Z</time>
      </trkpt>
      <trkpt lat="43.42683" lon="6.53624">
        <ele>259</ele>
        <time>2020-05-30T13:45:45.000Z</time>
      </trkpt>
      <trkpt lat="43.42684" lon="6.53623">
        <ele>259.39999389648</ele>
        <time>2020-05-30T13:45:49.000Z</time>
      </trkpt>
      <trkpt lat="43.42684" lon="6.53622">
        <ele>259.79998779297</ele>
        <time>2020-05-30T13:45:55.000Z</time>
      </trkpt>
      <trkpt lat="43.42685" lon="6.53618">
        <ele>260</ele>
        <time>2020-05-30T13:45:57.000Z</time>
      </trkpt>
      <trkpt lat="43.42689" lon="6.53596">
        <ele>260</ele>
        <time>2020-05-30T13:46:03.000Z</time>
      </trkpt>
      <trkpt lat="43.42692" lon="6.53576">
        <ele>260</ele>
        <time>2020-05-30T13:46:09.000Z</time>
      </trkpt>
      <trkpt lat="43.42693" lon="6.53573">
        <ele>260.20001220703</ele>
        <time>2020-05-30T13:46:10.000Z</time>
      </trkpt>
      <trkpt lat="43.427" lon="6.53564">
        <ele>260</ele>
        <time>2020-05-30T13:46:15.000Z</time>
      </trkpt>
      <trkpt lat="43.42711" lon="6.53563">
        <ele>260.20001220703</ele>
        <time>2020-05-30T13:46:21.000Z</time>
      </trkpt>
      <trkpt lat="43.42717" lon="6.53566">
        <ele>261.39999389648</ele>
        <time>2020-05-30T13:46:25.000Z</time>
      </trkpt>
      <trkpt lat="43.42719" lon="6.5357">
        <ele>261.79998779297</ele>
        <time>2020-05-30T13:46:27.000Z</time>
      </trkpt>
      <trkpt lat="43.4272" lon="6.53571">
        <ele>262.39999389648</ele>
        <time>2020-05-30T13:46:28.000Z</time>
      </trkpt>
      <trkpt lat="43.42724" lon="6.53574">
        <ele>263.39999389648</ele>
        <time>2020-05-30T13:46:30.000Z</time>
      </trkpt>
      <trkpt lat="43.42726" lon="6.53579">
        <ele>264.39999389648</ele>
        <time>2020-05-30T13:46:32.000Z</time>
      </trkpt>
      <trkpt lat="43.42726" lon="6.53581">
        <ele>265</ele>
        <time>2020-05-30T13:46:33.000Z</time>
      </trkpt>
      <trkpt lat="43.42728" lon="6.53585">
        <ele>266</ele>
        <time>2020-05-30T13:46:35.000Z</time>
      </trkpt>
      <trkpt lat="43.42729" lon="6.53587">
        <ele>266.39999389648</ele>
        <time>2020-05-30T13:46:36.000Z</time>
      </trkpt>
      <trkpt lat="43.4273" lon="6.53589">
        <ele>266.79998779297</ele>
        <time>2020-05-30T13:46:37.000Z</time>
      </trkpt>
      <trkpt lat="43.42731" lon="6.53591">
        <ele>267.20001220703</ele>
        <time>2020-05-30T13:46:38.000Z</time>
      </trkpt>
      <trkpt lat="43.42735" lon="6.53597">
        <ele>268.39999389648</ele>
        <time>2020-05-30T13:46:41.000Z</time>
      </trkpt>
      <trkpt lat="43.42738" lon="6.536">
        <ele>269.39999389648</ele>
        <time>2020-05-30T13:46:43.000Z</time>
      </trkpt>
      <trkpt lat="43.4274" lon="6.53602">
        <ele>269.79998779297</ele>
        <time>2020-05-30T13:46:44.000Z</time>
      </trkpt>
      <trkpt lat="43.42745" lon="6.53606">
        <ele>271</ele>
        <time>2020-05-30T13:46:47.000Z</time>
      </trkpt>
      <trkpt lat="43.42747" lon="6.53608">
        <ele>271.60000610352</ele>
        <time>2020-05-30T13:46:48.000Z</time>
      </trkpt>
      <trkpt lat="43.42749" lon="6.5361">
        <ele>272.20001220703</ele>
        <time>2020-05-30T13:46:49.000Z</time>
      </trkpt>
      <trkpt lat="43.42754" lon="6.53615">
        <ele>273.20001220703</ele>
        <time>2020-05-30T13:46:52.000Z</time>
      </trkpt>
      <trkpt lat="43.42761" lon="6.5362">
        <ele>274.39999389648</ele>
        <time>2020-05-30T13:46:56.000Z</time>
      </trkpt>
      <trkpt lat="43.42768" lon="6.53626">
        <ele>275.79998779297</ele>
        <time>2020-05-30T13:47:00.000Z</time>
      </trkpt>
      <trkpt lat="43.42771" lon="6.53631">
        <ele>276.79998779297</ele>
        <time>2020-05-30T13:47:02.000Z</time>
      </trkpt>
      <trkpt lat="43.42773" lon="6.53632">
        <ele>277.39999389648</ele>
        <time>2020-05-30T13:47:03.000Z</time>
      </trkpt>
      <trkpt lat="43.42777" lon="6.53634">
        <ele>278.39999389648</ele>
        <time>2020-05-30T13:47:05.000Z</time>
      </trkpt>
      <trkpt lat="43.42783" lon="6.53638">
        <ele>279.60000610352</ele>
        <time>2020-05-30T13:47:08.000Z</time>
      </trkpt>
      <trkpt lat="43.42788" lon="6.53642">
        <ele>281</ele>
        <time>2020-05-30T13:47:11.000Z</time>
      </trkpt>
      <trkpt lat="43.42793" lon="6.53645">
        <ele>281.79998779297</ele>
        <time>2020-05-30T13:47:14.000Z</time>
      </trkpt>
      <trkpt lat="43.42795" lon="6.53645">
        <ele>282</ele>
        <time>2020-05-30T13:47:15.000Z</time>
      </trkpt>
      <trkpt lat="43.42803" lon="6.5365">
        <ele>283</ele>
        <time>2020-05-30T13:47:19.000Z</time>
      </trkpt>
      <trkpt lat="43.42813" lon="6.53658">
        <ele>284.20001220703</ele>
        <time>2020-05-30T13:47:24.000Z</time>
      </trkpt>
      <trkpt lat="43.42814" lon="6.5366">
        <ele>284.39999389648</ele>
        <time>2020-05-30T13:47:25.000Z</time>
      </trkpt>
      <trkpt lat="43.42821" lon="6.53669">
        <ele>285.20001220703</ele>
        <time>2020-05-30T13:47:29.000Z</time>
      </trkpt>
      <trkpt lat="43.42827" lon="6.53676">
        <ele>285.60000610352</ele>
        <time>2020-05-30T13:47:32.000Z</time>
      </trkpt>
      <trkpt lat="43.42837" lon="6.53691">
        <ele>286.60000610352</ele>
        <time>2020-05-30T13:47:37.000Z</time>
      </trkpt>
      <trkpt lat="43.42842" lon="6.53697">
        <ele>287.39999389648</ele>
        <time>2020-05-30T13:47:39.000Z</time>
      </trkpt>
      <trkpt lat="43.42844" lon="6.537">
        <ele>287.79998779297</ele>
        <time>2020-05-30T13:47:40.000Z</time>
      </trkpt>
      <trkpt lat="43.42848" lon="6.53705">
        <ele>289</ele>
        <time>2020-05-30T13:47:42.000Z</time>
      </trkpt>
      <trkpt lat="43.42853" lon="6.53713">
        <ele>290</ele>
        <time>2020-05-30T13:47:44.000Z</time>
      </trkpt>
      <trkpt lat="43.42856" lon="6.53716">
        <ele>290.60000610352</ele>
        <time>2020-05-30T13:47:45.000Z</time>
      </trkpt>
      <trkpt lat="43.42866" lon="6.53726">
        <ele>291.79998779297</ele>
        <time>2020-05-30T13:47:49.000Z</time>
      </trkpt>
      <trkpt lat="43.42869" lon="6.53729">
        <ele>292.20001220703</ele>
        <time>2020-05-30T13:47:50.000Z</time>
      </trkpt>
      <trkpt lat="43.42876" lon="6.53737">
        <ele>293.20001220703</ele>
        <time>2020-05-30T13:47:53.000Z</time>
      </trkpt>
      <trkpt lat="43.42886" lon="6.53748">
        <ele>294.60000610352</ele>
        <time>2020-05-30T13:47:57.000Z</time>
      </trkpt>
      <trkpt lat="43.42888" lon="6.53751">
        <ele>295</ele>
        <time>2020-05-30T13:47:58.000Z</time>
      </trkpt>
      <trkpt lat="43.42893" lon="6.53756">
        <ele>296</ele>
        <time>2020-05-30T13:48:00.000Z</time>
      </trkpt>
      <trkpt lat="43.429" lon="6.53764">
        <ele>297.39999389648</ele>
        <time>2020-05-30T13:48:03.000Z</time>
      </trkpt>
      <trkpt lat="43.42904" lon="6.53768">
        <ele>298.20001220703</ele>
        <time>2020-05-30T13:48:05.000Z</time>
      </trkpt>
      <trkpt lat="43.42906" lon="6.53771">
        <ele>298.60000610352</ele>
        <time>2020-05-30T13:48:06.000Z</time>
      </trkpt>
      <trkpt lat="43.42912" lon="6.53776">
        <ele>299.79998779297</ele>
        <time>2020-05-30T13:48:09.000Z</time>
      </trkpt>
      <trkpt lat="43.42917" lon="6.5378">
        <ele>301</ele>
        <time>2020-05-30T13:48:11.000Z</time>
      </trkpt>
      <trkpt lat="43.42918" lon="6.53782">
        <ele>301.39999389648</ele>
        <time>2020-05-30T13:48:12.000Z</time>
      </trkpt>
      <trkpt lat="43.42925" lon="6.53784">
        <ele>302.79998779297</ele>
        <time>2020-05-30T13:48:14.000Z</time>
      </trkpt>
      <trkpt lat="43.42932" lon="6.53788">
        <ele>304</ele>
        <time>2020-05-30T13:48:17.000Z</time>
      </trkpt>
      <trkpt lat="43.42935" lon="6.53788">
        <ele>304.39999389648</ele>
        <time>2020-05-30T13:48:18.000Z</time>
      </trkpt>
      <trkpt lat="43.4294" lon="6.53787">
        <ele>305.20001220703</ele>
        <time>2020-05-30T13:48:20.000Z</time>
      </trkpt>
      <trkpt lat="43.42942" lon="6.53787">
        <ele>305.60000610352</ele>
        <time>2020-05-30T13:48:21.000Z</time>
      </trkpt>
      <trkpt lat="43.42947" lon="6.53787">
        <ele>306.39999389648</ele>
        <time>2020-05-30T13:48:23.000Z</time>
      </trkpt>
      <trkpt lat="43.42952" lon="6.53788">
        <ele>307.60000610352</ele>
        <time>2020-05-30T13:48:27.000Z</time>
      </trkpt>
      <trkpt lat="43.42953" lon="6.53787">
        <ele>307.79998779297</ele>
        <time>2020-05-30T13:48:28.000Z</time>
      </trkpt>
      <trkpt lat="43.42954" lon="6.53786">
        <ele>308.60000610352</ele>
        <time>2020-05-30T13:48:30.000Z</time>
      </trkpt>
      <trkpt lat="43.42955" lon="6.53784">
        <ele>309.20001220703</ele>
        <time>2020-05-30T13:48:32.000Z</time>
      </trkpt>
      <trkpt lat="43.42957" lon="6.53783">
        <ele>309.39999389648</ele>
        <time>2020-05-30T13:48:33.000Z</time>
      </trkpt>
      <trkpt lat="43.4296" lon="6.53783">
        <ele>309.79998779297</ele>
        <time>2020-05-30T13:48:35.000Z</time>
      </trkpt>
      <trkpt lat="43.42962" lon="6.53784">
        <ele>309.79998779297</ele>
        <time>2020-05-30T13:48:36.000Z</time>
      </trkpt>
      <trkpt lat="43.42964" lon="6.53784">
        <ele>309.79998779297</ele>
        <time>2020-05-30T13:48:37.000Z</time>
      </trkpt>
      <trkpt lat="43.42972" lon="6.53784">
        <ele>310.39999389648</ele>
        <time>2020-05-30T13:48:41.000Z</time>
      </trkpt>
      <trkpt lat="43.42974" lon="6.53784">
        <ele>310.60000610352</ele>
        <time>2020-05-30T13:48:42.000Z</time>
      </trkpt>
      <trkpt lat="43.42979" lon="6.53783">
        <ele>310.79998779297</ele>
        <time>2020-05-30T13:48:45.000Z</time>
      </trkpt>
      <trkpt lat="43.42982" lon="6.53785">
        <ele>310.60000610352</ele>
        <time>2020-05-30T13:48:47.000Z</time>
      </trkpt>
      <trkpt lat="43.42982" lon="6.53785">
        <ele>310.60000610352</ele>
        <time>2020-05-30T13:48:48.000Z</time>
      </trkpt>
      <trkpt lat="43.42984" lon="6.53785">
        <ele>310.39999389648</ele>
        <time>2020-05-30T13:48:51.000Z</time>
      </trkpt>
      <trkpt lat="43.42985" lon="6.53785">
        <ele>310.60000610352</ele>
        <time>2020-05-30T13:48:53.000Z</time>
      </trkpt>
      <trkpt lat="43.42986" lon="6.53785">
        <ele>310.20001220703</ele>
        <time>2020-05-30T13:49:04.000Z</time>
      </trkpt>
      <trkpt lat="43.42986" lon="6.53786">
        <ele>310.20001220703</ele>
        <time>2020-05-30T13:49:22.000Z</time>
      </trkpt>
      <trkpt lat="43.42986" lon="6.53786">
        <ele>310.39999389648</ele>
        <time>2020-05-30T13:49:34.000Z</time>
      </trkpt>
      <trkpt lat="43.42987" lon="6.53786">
        <ele>310</ele>
        <time>2020-05-30T13:49:49.000Z</time>
      </trkpt>
      <trkpt lat="43.42987" lon="6.53786">
        <ele>309.79998779297</ele>
        <time>2020-05-30T13:50:01.000Z</time>
      </trkpt>
      <trkpt lat="43.42987" lon="6.53786">
        <ele>309.79998779297</ele>
        <time>2020-05-30T13:50:12.000Z</time>
      </trkpt>
      <trkpt lat="43.42987" lon="6.53785">
        <ele>309.39999389648</ele>
        <time>2020-05-30T13:50:22.000Z</time>
      </trkpt>
      <trkpt lat="43.42986" lon="6.53785">
        <ele>309</ele>
        <time>2020-05-30T13:50:30.000Z</time>
      </trkpt>
      <trkpt lat="43.42985" lon="6.53782">
        <ele>309</ele>
        <time>2020-05-30T13:50:37.000Z</time>
      </trkpt>
      <trkpt lat="43.42983" lon="6.53779">
        <ele>309</ele>
        <time>2020-05-30T13:50:39.000Z</time>
      </trkpt>
      <trkpt lat="43.42978" lon="6.53773">
        <ele>308.60000610352</ele>
        <time>2020-05-30T13:50:42.000Z</time>
      </trkpt>
      <trkpt lat="43.42976" lon="6.53772">
        <ele>308.20001220703</ele>
        <time>2020-05-30T13:50:43.000Z</time>
      </trkpt>
      <trkpt lat="43.42968" lon="6.53768">
        <ele>307.39999389648</ele>
        <time>2020-05-30T13:50:47.000Z</time>
      </trkpt>
      <trkpt lat="43.42964" lon="6.53766">
        <ele>307.39999389648</ele>
        <time>2020-05-30T13:50:49.000Z</time>
      </trkpt>
      <trkpt lat="43.42963" lon="6.53764">
        <ele>306.39999389648</ele>
        <time>2020-05-30T13:50:53.000Z</time>
      </trkpt>
      <trkpt lat="43.4296" lon="6.53758">
        <ele>305.20001220703</ele>
        <time>2020-05-30T13:51:00.000Z</time>
      </trkpt>
      <trkpt lat="43.42955" lon="6.5375">
        <ele>304.79998779297</ele>
        <time>2020-05-30T13:51:04.000Z</time>
      </trkpt>
      <trkpt lat="43.4295" lon="6.53747">
        <ele>304.20001220703</ele>
        <time>2020-05-30T13:51:06.000Z</time>
      </trkpt>
      <trkpt lat="43.42946" lon="6.53741">
        <ele>302.60000610352</ele>
        <time>2020-05-30T13:51:08.000Z</time>
      </trkpt>
      <trkpt lat="43.42944" lon="6.5374">
        <ele>301.39999389648</ele>
        <time>2020-05-30T13:51:09.000Z</time>
      </trkpt>
      <trkpt lat="43.42941" lon="6.53739">
        <ele>300.20001220703</ele>
        <time>2020-05-30T13:51:10.000Z</time>
      </trkpt>
      <trkpt lat="43.42935" lon="6.53738">
        <ele>298.60000610352</ele>
        <time>2020-05-30T13:51:12.000Z</time>
      </trkpt>
      <trkpt lat="43.4293" lon="6.53736">
        <ele>297.79998779297</ele>
        <time>2020-05-30T13:51:13.000Z</time>
      </trkpt>
      <trkpt lat="43.42926" lon="6.53735">
        <ele>297</ele>
        <time>2020-05-30T13:51:14.000Z</time>
      </trkpt>
      <trkpt lat="43.4292" lon="6.53732">
        <ele>295.79998779297</ele>
        <time>2020-05-30T13:51:17.000Z</time>
      </trkpt>
      <trkpt lat="43.42919" lon="6.53725">
        <ele>294.39999389648</ele>
        <time>2020-05-30T13:51:20.000Z</time>
      </trkpt>
      <trkpt lat="43.42923" lon="6.53721">
        <ele>293.79998779297</ele>
        <time>2020-05-30T13:51:22.000Z</time>
      </trkpt>
      <trkpt lat="43.42925" lon="6.53719">
        <ele>293.39999389648</ele>
        <time>2020-05-30T13:51:23.000Z</time>
      </trkpt>
      <trkpt lat="43.42932" lon="6.53714">
        <ele>292</ele>
        <time>2020-05-30T13:51:26.000Z</time>
      </trkpt>
      <trkpt lat="43.42938" lon="6.53713">
        <ele>290.20001220703</ele>
        <time>2020-05-30T13:51:28.000Z</time>
      </trkpt>
      <trkpt lat="43.42943" lon="6.53713">
        <ele>288.60000610352</ele>
        <time>2020-05-30T13:51:30.000Z</time>
      </trkpt>
      <trkpt lat="43.42946" lon="6.53713">
        <ele>288.20001220703</ele>
        <time>2020-05-30T13:51:31.000Z</time>
      </trkpt>
      <trkpt lat="43.42963" lon="6.53709">
        <ele>289</ele>
        <time>2020-05-30T13:51:37.000Z</time>
      </trkpt>
      <trkpt lat="43.42978" lon="6.53706">
        <ele>288.60000610352</ele>
        <time>2020-05-30T13:51:41.000Z</time>
      </trkpt>
      <trkpt lat="43.4298" lon="6.53708">
        <ele>288.39999389648</ele>
        <time>2020-05-30T13:51:42.000Z</time>
      </trkpt>
      <trkpt lat="43.42984" lon="6.53706">
        <ele>287.39999389648</ele>
        <time>2020-05-30T13:51:44.000Z</time>
      </trkpt>
      <trkpt lat="43.42987" lon="6.53703">
        <ele>287.39999389648</ele>
        <time>2020-05-30T13:51:45.000Z</time>
      </trkpt>
      <trkpt lat="43.42998" lon="6.537">
        <ele>286.20001220703</ele>
        <time>2020-05-30T13:51:48.000Z</time>
      </trkpt>
      <trkpt lat="43.43001" lon="6.537">
        <ele>285</ele>
        <time>2020-05-30T13:51:49.000Z</time>
      </trkpt>
      <trkpt lat="43.43008" lon="6.53696">
        <ele>283.39999389648</ele>
        <time>2020-05-30T13:51:51.000Z</time>
      </trkpt>
      <trkpt lat="43.43012" lon="6.53696">
        <ele>282.60000610352</ele>
        <time>2020-05-30T13:51:52.000Z</time>
      </trkpt>
      <trkpt lat="43.43014" lon="6.53697">
        <ele>282</ele>
        <time>2020-05-30T13:51:53.000Z</time>
      </trkpt>
      <trkpt lat="43.43024" lon="6.53699">
        <ele>281</ele>
        <time>2020-05-30T13:51:56.000Z</time>
      </trkpt>
      <trkpt lat="43.43026" lon="6.537">
        <ele>281</ele>
        <time>2020-05-30T13:51:57.000Z</time>
      </trkpt>
      <trkpt lat="43.43038" lon="6.537">
        <ele>281.20001220703</ele>
        <time>2020-05-30T13:52:02.000Z</time>
      </trkpt>
      <trkpt lat="43.43038" lon="6.537">
        <ele>282</ele>
        <time>2020-05-30T13:52:04.000Z</time>
      </trkpt>
      <trkpt lat="43.43038" lon="6.53699">
        <ele>282.39999389648</ele>
        <time>2020-05-30T13:52:06.000Z</time>
      </trkpt>
      <trkpt lat="43.43038" lon="6.53699">
        <ele>283</ele>
        <time>2020-05-30T13:52:14.000Z</time>
      </trkpt>
      <trkpt lat="43.43041" lon="6.53698">
        <ele>282.79998779297</ele>
        <time>2020-05-30T13:52:25.000Z</time>
      </trkpt>
      <trkpt lat="43.43043" lon="6.53698">
        <ele>282.79998779297</ele>
        <time>2020-05-30T13:52:35.000Z</time>
      </trkpt>
      <trkpt lat="43.43042" lon="6.53697">
        <ele>283</ele>
        <time>2020-05-30T13:52:42.000Z</time>
      </trkpt>
      <trkpt lat="43.43043" lon="6.53697">
        <ele>283</ele>
        <time>2020-05-30T13:52:43.000Z</time>
      </trkpt>
      <trkpt lat="43.43043" lon="6.53697">
        <ele>283</ele>
        <time>2020-05-30T13:52:46.000Z</time>
      </trkpt>
      <trkpt lat="43.43044" lon="6.53697">
        <ele>283</ele>
        <time>2020-05-30T13:53:00.000Z</time>
      </trkpt>
      <trkpt lat="43.43052" lon="6.53691">
        <ele>283.20001220703</ele>
        <time>2020-05-30T13:53:04.000Z</time>
      </trkpt>
      <trkpt lat="43.43058" lon="6.53679">
        <ele>282.20001220703</ele>
        <time>2020-05-30T13:53:08.000Z</time>
      </trkpt>
      <trkpt lat="43.4306" lon="6.53675">
        <ele>281.79998779297</ele>
        <time>2020-05-30T13:53:09.000Z</time>
      </trkpt>
      <trkpt lat="43.43063" lon="6.53669">
        <ele>279.79998779297</ele>
        <time>2020-05-30T13:53:11.000Z</time>
      </trkpt>
      <trkpt lat="43.43066" lon="6.53664">
        <ele>278.39999389648</ele>
        <time>2020-05-30T13:53:12.000Z</time>
      </trkpt>
      <trkpt lat="43.4307" lon="6.5366">
        <ele>277</ele>
        <time>2020-05-30T13:53:13.000Z</time>
      </trkpt>
      <trkpt lat="43.43075" lon="6.53657">
        <ele>275.60000610352</ele>
        <time>2020-05-30T13:53:14.000Z</time>
      </trkpt>
      <trkpt lat="43.43078" lon="6.53654">
        <ele>274</ele>
        <time>2020-05-30T13:53:15.000Z</time>
      </trkpt>
      <trkpt lat="43.43082" lon="6.53648">
        <ele>272.39999389648</ele>
        <time>2020-05-30T13:53:17.000Z</time>
      </trkpt>
      <trkpt lat="43.43087" lon="6.53642">
        <ele>271.39999389648</ele>
        <time>2020-05-30T13:53:19.000Z</time>
      </trkpt>
      <trkpt lat="43.43089" lon="6.53639">
        <ele>271.20001220703</ele>
        <time>2020-05-30T13:53:20.000Z</time>
      </trkpt>
      <trkpt lat="43.43096" lon="6.53632">
        <ele>271</ele>
        <time>2020-05-30T13:53:23.000Z</time>
      </trkpt>
      <trkpt lat="43.43105" lon="6.53618">
        <ele>272</ele>
        <time>2020-05-30T13:53:28.000Z</time>
      </trkpt>
      <trkpt lat="43.43113" lon="6.53604">
        <ele>272</ele>
        <time>2020-05-30T13:53:32.000Z</time>
      </trkpt>
      <trkpt lat="43.4312" lon="6.53593">
        <ele>272.60000610352</ele>
        <time>2020-05-30T13:53:36.000Z</time>
      </trkpt>
      <trkpt lat="43.43124" lon="6.53588">
        <ele>273.60000610352</ele>
        <time>2020-05-30T13:53:38.000Z</time>
      </trkpt>
      <trkpt lat="43.43126" lon="6.53586">
        <ele>274.20001220703</ele>
        <time>2020-05-30T13:53:39.000Z</time>
      </trkpt>
      <trkpt lat="43.43128" lon="6.53584">
        <ele>274.79998779297</ele>
        <time>2020-05-30T13:53:40.000Z</time>
      </trkpt>
      <trkpt lat="43.4313" lon="6.53581">
        <ele>276</ele>
        <time>2020-05-30T13:53:44.000Z</time>
      </trkpt>
      <trkpt lat="43.4313" lon="6.53581">
        <ele>276.79998779297</ele>
        <time>2020-05-30T13:53:54.000Z</time>
      </trkpt>
      <trkpt lat="43.43131" lon="6.5358">
        <ele>276.79998779297</ele>
        <time>2020-05-30T13:54:10.000Z</time>
      </trkpt>
      <trkpt lat="43.43132" lon="6.53575">
        <ele>277</ele>
        <time>2020-05-30T13:54:12.000Z</time>
      </trkpt>
      <trkpt lat="43.43135" lon="6.53567">
        <ele>277</ele>
        <time>2020-05-30T13:54:14.000Z</time>
      </trkpt>
      <trkpt lat="43.43143" lon="6.5354">
        <ele>276.79998779297</ele>
        <time>2020-05-30T13:54:20.000Z</time>
      </trkpt>
      <trkpt lat="43.43144" lon="6.53513">
        <ele>277</ele>
        <time>2020-05-30T13:54:26.000Z</time>
      </trkpt>
      <trkpt lat="43.43137" lon="6.53493">
        <ele>277.79998779297</ele>
        <time>2020-05-30T13:54:31.000Z</time>
      </trkpt>
      <trkpt lat="43.43139" lon="6.53472">
        <ele>277</ele>
        <time>2020-05-30T13:54:36.000Z</time>
      </trkpt>
      <trkpt lat="43.43139" lon="6.53455">
        <ele>277.39999389648</ele>
        <time>2020-05-30T13:54:39.000Z</time>
      </trkpt>
      <trkpt lat="43.43141" lon="6.53449">
        <ele>277.20001220703</ele>
        <time>2020-05-30T13:54:40.000Z</time>
      </trkpt>
      <trkpt lat="43.4315" lon="6.53434">
        <ele>275.20001220703</ele>
        <time>2020-05-30T13:54:43.000Z</time>
      </trkpt>
      <trkpt lat="43.43153" lon="6.53432">
        <ele>274</ele>
        <time>2020-05-30T13:54:44.000Z</time>
      </trkpt>
      <trkpt lat="43.43156" lon="6.5343">
        <ele>273.20001220703</ele>
        <time>2020-05-30T13:54:45.000Z</time>
      </trkpt>
      <trkpt lat="43.43157" lon="6.53428">
        <ele>272.79998779297</ele>
        <time>2020-05-30T13:54:46.000Z</time>
      </trkpt>
      <trkpt lat="43.43156" lon="6.53424">
        <ele>272.60000610352</ele>
        <time>2020-05-30T13:54:47.000Z</time>
      </trkpt>
      <trkpt lat="43.43156" lon="6.53421">
        <ele>272.60000610352</ele>
        <time>2020-05-30T13:54:48.000Z</time>
      </trkpt>
      <trkpt lat="43.43157" lon="6.53422">
        <ele>272.60000610352</ele>
        <time>2020-05-30T13:54:49.000Z</time>
      </trkpt>
      <trkpt lat="43.43165" lon="6.53417">
        <ele>273</ele>
        <time>2020-05-30T13:54:51.000Z</time>
      </trkpt>
      <trkpt lat="43.43181" lon="6.53412">
        <ele>271.60000610352</ele>
        <time>2020-05-30T13:54:56.000Z</time>
      </trkpt>
      <trkpt lat="43.43187" lon="6.53413">
        <ele>270.79998779297</ele>
        <time>2020-05-30T13:54:58.000Z</time>
      </trkpt>
      <trkpt lat="43.4319" lon="6.53415">
        <ele>270.60000610352</ele>
        <time>2020-05-30T13:54:59.000Z</time>
      </trkpt>
      <trkpt lat="43.43199" lon="6.53418">
        <ele>269.39999389648</ele>
        <time>2020-05-30T13:55:02.000Z</time>
      </trkpt>
      <trkpt lat="43.43202" lon="6.5342">
        <ele>268.60000610352</ele>
        <time>2020-05-30T13:55:04.000Z</time>
      </trkpt>
      <trkpt lat="43.43204" lon="6.5342">
        <ele>268.39999389648</ele>
        <time>2020-05-30T13:55:05.000Z</time>
      </trkpt>
      <trkpt lat="43.43209" lon="6.53425">
        <ele>267</ele>
        <time>2020-05-30T13:55:07.000Z</time>
      </trkpt>
      <trkpt lat="43.43211" lon="6.53433">
        <ele>265.60000610352</ele>
        <time>2020-05-30T13:55:09.000Z</time>
      </trkpt>
      <trkpt lat="43.43213" lon="6.53442">
        <ele>264.39999389648</ele>
        <time>2020-05-30T13:55:11.000Z</time>
      </trkpt>
      <trkpt lat="43.43213" lon="6.53447">
        <ele>264</ele>
        <time>2020-05-30T13:55:12.000Z</time>
      </trkpt>
      <trkpt lat="43.43215" lon="6.53453">
        <ele>263.60000610352</ele>
        <time>2020-05-30T13:55:14.000Z</time>
      </trkpt>
      <trkpt lat="43.43217" lon="6.53456">
        <ele>263.60000610352</ele>
        <time>2020-05-30T13:55:15.000Z</time>
      </trkpt>
      <trkpt lat="43.43218" lon="6.5346">
        <ele>263.60000610352</ele>
        <time>2020-05-30T13:55:16.000Z</time>
      </trkpt>
      <trkpt lat="43.43221" lon="6.53473">
        <ele>263.60000610352</ele>
        <time>2020-05-30T13:55:19.000Z</time>
      </trkpt>
      <trkpt lat="43.43222" lon="6.53476">
        <ele>263.20001220703</ele>
        <time>2020-05-30T13:55:20.000Z</time>
      </trkpt>
      <trkpt lat="43.43224" lon="6.53489">
        <ele>262</ele>
        <time>2020-05-30T13:55:23.000Z</time>
      </trkpt>
      <trkpt lat="43.43226" lon="6.53495">
        <ele>261.60000610352</ele>
        <time>2020-05-30T13:55:24.000Z</time>
      </trkpt>
      <trkpt lat="43.43228" lon="6.53505">
        <ele>260.60000610352</ele>
        <time>2020-05-30T13:55:26.000Z</time>
      </trkpt>
      <trkpt lat="43.43229" lon="6.53508">
        <ele>260</ele>
        <time>2020-05-30T13:55:27.000Z</time>
      </trkpt>
      <trkpt lat="43.43231" lon="6.53509">
        <ele>259.39999389648</ele>
        <time>2020-05-30T13:55:28.000Z</time>
      </trkpt>
      <trkpt lat="43.43233" lon="6.53516">
        <ele>258.39999389648</ele>
        <time>2020-05-30T13:55:30.000Z</time>
      </trkpt>
      <trkpt lat="43.43237" lon="6.53526">
        <ele>256.79998779297</ele>
        <time>2020-05-30T13:55:32.000Z</time>
      </trkpt>
      <trkpt lat="43.4324" lon="6.53531">
        <ele>256</ele>
        <time>2020-05-30T13:55:33.000Z</time>
      </trkpt>
      <trkpt lat="43.43242" lon="6.53533">
        <ele>254.80000305176</ele>
        <time>2020-05-30T13:55:34.000Z</time>
      </trkpt>
      <trkpt lat="43.43244" lon="6.53534">
        <ele>253.39999389648</ele>
        <time>2020-05-30T13:55:35.000Z</time>
      </trkpt>
      <trkpt lat="43.43244" lon="6.53534">
        <ele>252.19999694824</ele>
        <time>2020-05-30T13:55:36.000Z</time>
      </trkpt>
      <trkpt lat="43.43244" lon="6.53534">
        <ele>251.19999694824</ele>
        <time>2020-05-30T13:55:37.000Z</time>
      </trkpt>
      <trkpt lat="43.43247" lon="6.53536">
        <ele>250</ele>
        <time>2020-05-30T13:55:39.000Z</time>
      </trkpt>
      <trkpt lat="43.43251" lon="6.53537">
        <ele>250</ele>
        <time>2020-05-30T13:55:40.000Z</time>
      </trkpt>
      <trkpt lat="43.43259" lon="6.53542">
        <ele>249</ele>
        <time>2020-05-30T13:55:43.000Z</time>
      </trkpt>
      <trkpt lat="43.43261" lon="6.53542">
        <ele>248</ele>
        <time>2020-05-30T13:55:45.000Z</time>
      </trkpt>
      <trkpt lat="43.43267" lon="6.53542">
        <ele>246.80000305176</ele>
        <time>2020-05-30T13:55:48.000Z</time>
      </trkpt>
      <trkpt lat="43.4327" lon="6.53542">
        <ele>246.39999389648</ele>
        <time>2020-05-30T13:55:49.000Z</time>
      </trkpt>
      <trkpt lat="43.43275" lon="6.53542">
        <ele>245.39999389648</ele>
        <time>2020-05-30T13:55:51.000Z</time>
      </trkpt>
      <trkpt lat="43.43283" lon="6.53546">
        <ele>243.19999694824</ele>
        <time>2020-05-30T13:55:53.000Z</time>
      </trkpt>
      <trkpt lat="43.43288" lon="6.53548">
        <ele>241.60000610352</ele>
        <time>2020-05-30T13:55:54.000Z</time>
      </trkpt>
      <trkpt lat="43.43291" lon="6.5355">
        <ele>240.39999389648</ele>
        <time>2020-05-30T13:55:55.000Z</time>
      </trkpt>
      <trkpt lat="43.43294" lon="6.53551">
        <ele>239.19999694824</ele>
        <time>2020-05-30T13:55:56.000Z</time>
      </trkpt>
      <trkpt lat="43.43297" lon="6.53554">
        <ele>237.80000305176</ele>
        <time>2020-05-30T13:55:57.000Z</time>
      </trkpt>
      <trkpt lat="43.43299" lon="6.53557">
        <ele>237</ele>
        <time>2020-05-30T13:55:58.000Z</time>
      </trkpt>
      <trkpt lat="43.43301" lon="6.53559">
        <ele>236.60000610352</ele>
        <time>2020-05-30T13:55:59.000Z</time>
      </trkpt>
      <trkpt lat="43.43309" lon="6.53556">
        <ele>236.39999389648</ele>
        <time>2020-05-30T13:56:02.000Z</time>
      </trkpt>
      <trkpt lat="43.43316" lon="6.5355">
        <ele>236</ele>
        <time>2020-05-30T13:56:04.000Z</time>
      </trkpt>
      <trkpt lat="43.43322" lon="6.53548">
        <ele>235</ele>
        <time>2020-05-30T13:56:06.000Z</time>
      </trkpt>
      <trkpt lat="43.4333" lon="6.53548">
        <ele>233.60000610352</ele>
        <time>2020-05-30T13:56:08.000Z</time>
      </trkpt>
      <trkpt lat="43.43338" lon="6.53548">
        <ele>232.19999694824</ele>
        <time>2020-05-30T13:56:10.000Z</time>
      </trkpt>
      <trkpt lat="43.43349" lon="6.53549">
        <ele>232.39999389648</ele>
        <time>2020-05-30T13:56:14.000Z</time>
      </trkpt>
      <trkpt lat="43.43352" lon="6.53547">
        <ele>232.39999389648</ele>
        <time>2020-05-30T13:56:15.000Z</time>
      </trkpt>
      <trkpt lat="43.43357" lon="6.53545">
        <ele>232.39999389648</ele>
        <time>2020-05-30T13:56:17.000Z</time>
      </trkpt>
      <trkpt lat="43.43362" lon="6.53543">
        <ele>231.80000305176</ele>
        <time>2020-05-30T13:56:19.000Z</time>
      </trkpt>
      <trkpt lat="43.43362" lon="6.53543">
        <ele>231</ele>
        <time>2020-05-30T13:56:21.000Z</time>
      </trkpt>
      <trkpt lat="43.43362" lon="6.53543">
        <ele>230</ele>
        <time>2020-05-30T13:56:25.000Z</time>
      </trkpt>
      <trkpt lat="43.43363" lon="6.53543">
        <ele>229.80000305176</ele>
        <time>2020-05-30T13:56:36.000Z</time>
      </trkpt>
      <trkpt lat="43.43369" lon="6.53543">
        <ele>229.80000305176</ele>
        <time>2020-05-30T13:56:40.000Z</time>
      </trkpt>
      <trkpt lat="43.43377" lon="6.53537">
        <ele>230</ele>
        <time>2020-05-30T13:56:45.000Z</time>
      </trkpt>
      <trkpt lat="43.43384" lon="6.53531">
        <ele>229</ele>
        <time>2020-05-30T13:56:48.000Z</time>
      </trkpt>
      <trkpt lat="43.4339" lon="6.53531">
        <ele>227.60000610352</ele>
        <time>2020-05-30T13:56:50.000Z</time>
      </trkpt>
      <trkpt lat="43.43397" lon="6.53532">
        <ele>226.19999694824</ele>
        <time>2020-05-30T13:56:52.000Z</time>
      </trkpt>
      <trkpt lat="43.43402" lon="6.53532">
        <ele>225.80000305176</ele>
        <time>2020-05-30T13:56:53.000Z</time>
      </trkpt>
      <trkpt lat="43.43407" lon="6.53531">
        <ele>225</ele>
        <time>2020-05-30T13:56:54.000Z</time>
      </trkpt>
      <trkpt lat="43.43412" lon="6.5353">
        <ele>224.39999389648</ele>
        <time>2020-05-30T13:56:55.000Z</time>
      </trkpt>
      <trkpt lat="43.43416" lon="6.53527">
        <ele>224</ele>
        <time>2020-05-30T13:56:56.000Z</time>
      </trkpt>
      <trkpt lat="43.4342" lon="6.53525">
        <ele>223</ele>
        <time>2020-05-30T13:56:57.000Z</time>
      </trkpt>
      <trkpt lat="43.43424" lon="6.53522">
        <ele>221.80000305176</ele>
        <time>2020-05-30T13:56:58.000Z</time>
      </trkpt>
      <trkpt lat="43.43428" lon="6.53513">
        <ele>220.19999694824</ele>
        <time>2020-05-30T13:57:00.000Z</time>
      </trkpt>
      <trkpt lat="43.43431" lon="6.53512">
        <ele>219.60000610352</ele>
        <time>2020-05-30T13:57:01.000Z</time>
      </trkpt>
      <trkpt lat="43.43433" lon="6.53512">
        <ele>218.80000305176</ele>
        <time>2020-05-30T13:57:02.000Z</time>
      </trkpt>
      <trkpt lat="43.43436" lon="6.53511">
        <ele>218</ele>
        <time>2020-05-30T13:57:03.000Z</time>
      </trkpt>
      <trkpt lat="43.43438" lon="6.53509">
        <ele>216.80000305176</ele>
        <time>2020-05-30T13:57:04.000Z</time>
      </trkpt>
      <trkpt lat="43.4344" lon="6.53504">
        <ele>216</ele>
        <time>2020-05-30T13:57:05.000Z</time>
      </trkpt>
      <trkpt lat="43.43442" lon="6.53499">
        <ele>215</ele>
        <time>2020-05-30T13:57:06.000Z</time>
      </trkpt>
      <trkpt lat="43.43446" lon="6.53497">
        <ele>213.80000305176</ele>
        <time>2020-05-30T13:57:07.000Z</time>
      </trkpt>
      <trkpt lat="43.43451" lon="6.53488">
        <ele>212.19999694824</ele>
        <time>2020-05-30T13:57:09.000Z</time>
      </trkpt>
      <trkpt lat="43.43453" lon="6.53482">
        <ele>211</ele>
        <time>2020-05-30T13:57:10.000Z</time>
      </trkpt>
      <trkpt lat="43.43458" lon="6.53475">
        <ele>209.19999694824</ele>
        <time>2020-05-30T13:57:12.000Z</time>
      </trkpt>
      <trkpt lat="43.43461" lon="6.53475">
        <ele>208.19999694824</ele>
        <time>2020-05-30T13:57:13.000Z</time>
      </trkpt>
      <trkpt lat="43.43464" lon="6.53477">
        <ele>206.60000610352</ele>
        <time>2020-05-30T13:57:15.000Z</time>
      </trkpt>
      <trkpt lat="43.43468" lon="6.53475">
        <ele>206</ele>
        <time>2020-05-30T13:57:17.000Z</time>
      </trkpt>
      <trkpt lat="43.43479" lon="6.53463">
        <ele>206.19999694824</ele>
        <time>2020-05-30T13:57:21.000Z</time>
      </trkpt>
      <trkpt lat="43.43488" lon="6.5346">
        <ele>205.39999389648</ele>
        <time>2020-05-30T13:57:23.000Z</time>
      </trkpt>
      <trkpt lat="43.43493" lon="6.5346">
        <ele>204.60000610352</ele>
        <time>2020-05-30T13:57:24.000Z</time>
      </trkpt>
      <trkpt lat="43.43497" lon="6.53462">
        <ele>203.60000610352</ele>
        <time>2020-05-30T13:57:25.000Z</time>
      </trkpt>
      <trkpt lat="43.435" lon="6.53463">
        <ele>202.60000610352</ele>
        <time>2020-05-30T13:57:26.000Z</time>
      </trkpt>
      <trkpt lat="43.43505" lon="6.5346">
        <ele>201.60000610352</ele>
        <time>2020-05-30T13:57:27.000Z</time>
      </trkpt>
      <trkpt lat="43.43509" lon="6.53457">
        <ele>201.19999694824</ele>
        <time>2020-05-30T13:57:28.000Z</time>
      </trkpt>
      <trkpt lat="43.43515" lon="6.53441">
        <ele>199.80000305176</ele>
        <time>2020-05-30T13:57:30.000Z</time>
      </trkpt>
      <trkpt lat="43.43517" lon="6.5343">
        <ele>198.80000305176</ele>
        <time>2020-05-30T13:57:31.000Z</time>
      </trkpt>
      <trkpt lat="43.43518" lon="6.5342">
        <ele>197</ele>
        <time>2020-05-30T13:57:32.000Z</time>
      </trkpt>
      <trkpt lat="43.43521" lon="6.53415">
        <ele>196.19999694824</ele>
        <time>2020-05-30T13:57:33.000Z</time>
      </trkpt>
      <trkpt lat="43.43526" lon="6.53408">
        <ele>194.39999389648</ele>
        <time>2020-05-30T13:57:34.000Z</time>
      </trkpt>
      <trkpt lat="43.4353" lon="6.53403">
        <ele>193.60000610352</ele>
        <time>2020-05-30T13:57:35.000Z</time>
      </trkpt>
      <trkpt lat="43.43533" lon="6.53396">
        <ele>192.39999389648</ele>
        <time>2020-05-30T13:57:36.000Z</time>
      </trkpt>
      <trkpt lat="43.43538" lon="6.53388">
        <ele>190.80000305176</ele>
        <time>2020-05-30T13:57:37.000Z</time>
      </trkpt>
      <trkpt lat="43.43545" lon="6.53374">
        <ele>188.19999694824</ele>
        <time>2020-05-30T13:57:39.000Z</time>
      </trkpt>
      <trkpt lat="43.43549" lon="6.53369">
        <ele>189.39999389648</ele>
        <time>2020-05-30T13:57:40.000Z</time>
      </trkpt>
      <trkpt lat="43.43553" lon="6.53362">
        <ele>189.80000305176</ele>
        <time>2020-05-30T13:57:43.000Z</time>
      </trkpt>
      <trkpt lat="43.43553" lon="6.5336">
        <ele>190.39999389648</ele>
        <time>2020-05-30T13:57:46.000Z</time>
      </trkpt>
      <trkpt lat="43.43553" lon="6.53361">
        <ele>190.39999389648</ele>
        <time>2020-05-30T13:57:47.000Z</time>
      </trkpt>
      <trkpt lat="43.43555" lon="6.53352">
        <ele>190.60000610352</ele>
        <time>2020-05-30T13:57:52.000Z</time>
      </trkpt>
      <trkpt lat="43.43553" lon="6.5335">
        <ele>190.60000610352</ele>
        <time>2020-05-30T13:57:53.000Z</time>
      </trkpt>
      <trkpt lat="43.43549" lon="6.53342">
        <ele>190.80000305176</ele>
        <time>2020-05-30T13:57:55.000Z</time>
      </trkpt>
      <trkpt lat="43.43541" lon="6.53332">
        <ele>190.60000610352</ele>
        <time>2020-05-30T13:57:58.000Z</time>
      </trkpt>
      <trkpt lat="43.43539" lon="6.53328">
        <ele>190</ele>
        <time>2020-05-30T13:57:59.000Z</time>
      </trkpt>
      <trkpt lat="43.43538" lon="6.53319">
        <ele>189.19999694824</ele>
        <time>2020-05-30T13:58:02.000Z</time>
      </trkpt>
      <trkpt lat="43.43536" lon="6.53316">
        <ele>189.39999389648</ele>
        <time>2020-05-30T13:58:03.000Z</time>
      </trkpt>
      <trkpt lat="43.43534" lon="6.5331">
        <ele>189</ele>
        <time>2020-05-30T13:58:04.000Z</time>
      </trkpt>
      <trkpt lat="43.43532" lon="6.53304">
        <ele>188.80000305176</ele>
        <time>2020-05-30T13:58:05.000Z</time>
      </trkpt>
      <trkpt lat="43.43529" lon="6.53293">
        <ele>188.19999694824</ele>
        <time>2020-05-30T13:58:07.000Z</time>
      </trkpt>
      <trkpt lat="43.43526" lon="6.53289">
        <ele>188</ele>
        <time>2020-05-30T13:58:08.000Z</time>
      </trkpt>
      <trkpt lat="43.43521" lon="6.53269">
        <ele>187.80000305176</ele>
        <time>2020-05-30T13:58:12.000Z</time>
      </trkpt>
      <trkpt lat="43.4352" lon="6.53244">
        <ele>187.39999389648</ele>
        <time>2020-05-30T13:58:17.000Z</time>
      </trkpt>
      <trkpt lat="43.4352" lon="6.53237">
        <ele>187</ele>
        <time>2020-05-30T13:58:19.000Z</time>
      </trkpt>
      <trkpt lat="43.43517" lon="6.53231">
        <ele>186.80000305176</ele>
        <time>2020-05-30T13:58:21.000Z</time>
      </trkpt>
      <trkpt lat="43.43512" lon="6.53215">
        <ele>185.60000610352</ele>
        <time>2020-05-30T13:58:24.000Z</time>
      </trkpt>
      <trkpt lat="43.43511" lon="6.53208">
        <ele>184.80000305176</ele>
        <time>2020-05-30T13:58:25.000Z</time>
      </trkpt>
      <trkpt lat="43.43511" lon="6.53203">
        <ele>183.60000610352</ele>
        <time>2020-05-30T13:58:26.000Z</time>
      </trkpt>
      <trkpt lat="43.4351" lon="6.53201">
        <ele>182.60000610352</ele>
        <time>2020-05-30T13:58:27.000Z</time>
      </trkpt>
      <trkpt lat="43.43508" lon="6.532">
        <ele>182</ele>
        <time>2020-05-30T13:58:28.000Z</time>
      </trkpt>
      <trkpt lat="43.43505" lon="6.53199">
        <ele>181.39999389648</ele>
        <time>2020-05-30T13:58:29.000Z</time>
      </trkpt>
      <trkpt lat="43.43501" lon="6.53192">
        <ele>180.39999389648</ele>
        <time>2020-05-30T13:58:31.000Z</time>
      </trkpt>
      <trkpt lat="43.43501" lon="6.5318">
        <ele>179.19999694824</ele>
        <time>2020-05-30T13:58:33.000Z</time>
      </trkpt>
      <trkpt lat="43.43501" lon="6.53176">
        <ele>177.80000305176</ele>
        <time>2020-05-30T13:58:34.000Z</time>
      </trkpt>
      <trkpt lat="43.43501" lon="6.53172">
        <ele>177</ele>
        <time>2020-05-30T13:58:35.000Z</time>
      </trkpt>
      <trkpt lat="43.43501" lon="6.53169">
        <ele>176.19999694824</ele>
        <time>2020-05-30T13:58:36.000Z</time>
      </trkpt>
      <trkpt lat="43.43499" lon="6.53166">
        <ele>175.60000610352</ele>
        <time>2020-05-30T13:58:37.000Z</time>
      </trkpt>
      <trkpt lat="43.43498" lon="6.53157">
        <ele>175.39999389648</ele>
        <time>2020-05-30T13:58:39.000Z</time>
      </trkpt>
      <trkpt lat="43.43499" lon="6.53152">
        <ele>175</ele>
        <time>2020-05-30T13:58:40.000Z</time>
      </trkpt>
      <trkpt lat="43.43499" lon="6.53148">
        <ele>174.60000610352</ele>
        <time>2020-05-30T13:58:41.000Z</time>
      </trkpt>
      <trkpt lat="43.435" lon="6.53139">
        <ele>173.80000305176</ele>
        <time>2020-05-30T13:58:43.000Z</time>
      </trkpt>
      <trkpt lat="43.43497" lon="6.53134">
        <ele>173.19999694824</ele>
        <time>2020-05-30T13:58:45.000Z</time>
      </trkpt>
      <trkpt lat="43.43493" lon="6.53127">
        <ele>172.60000610352</ele>
        <time>2020-05-30T13:58:47.000Z</time>
      </trkpt>
      <trkpt lat="43.43488" lon="6.5312">
        <ele>171.60000610352</ele>
        <time>2020-05-30T13:58:49.000Z</time>
      </trkpt>
      <trkpt lat="43.43486" lon="6.53115">
        <ele>170.80000305176</ele>
        <time>2020-05-30T13:58:50.000Z</time>
      </trkpt>
      <trkpt lat="43.43484" lon="6.53111">
        <ele>170</ele>
        <time>2020-05-30T13:58:51.000Z</time>
      </trkpt>
      <trkpt lat="43.43482" lon="6.53104">
        <ele>168.60000610352</ele>
        <time>2020-05-30T13:58:53.000Z</time>
      </trkpt>
      <trkpt lat="43.43481" lon="6.531">
        <ele>168.19999694824</ele>
        <time>2020-05-30T13:58:54.000Z</time>
      </trkpt>
      <trkpt lat="43.43479" lon="6.53093">
        <ele>167.39999389648</ele>
        <time>2020-05-30T13:58:56.000Z</time>
      </trkpt>
      <trkpt lat="43.43474" lon="6.53088">
        <ele>167.80000305176</ele>
        <time>2020-05-30T13:58:58.000Z</time>
      </trkpt>
      <trkpt lat="43.43466" lon="6.53071">
        <ele>166.39999389648</ele>
        <time>2020-05-30T13:59:02.000Z</time>
      </trkpt>
      <trkpt lat="43.43459" lon="6.53056">
        <ele>165.19999694824</ele>
        <time>2020-05-30T13:59:05.000Z</time>
      </trkpt>
      <trkpt lat="43.43456" lon="6.5305">
        <ele>165.19999694824</ele>
        <time>2020-05-30T13:59:06.000Z</time>
      </trkpt>
      <trkpt lat="43.4345" lon="6.5304">
        <ele>163.80000305176</ele>
        <time>2020-05-30T13:59:09.000Z</time>
      </trkpt>
      <trkpt lat="43.43446" lon="6.53032">
        <ele>162.60000610352</ele>
        <time>2020-05-30T13:59:11.000Z</time>
      </trkpt>
      <trkpt lat="43.43445" lon="6.53026">
        <ele>162</ele>
        <time>2020-05-30T13:59:12.000Z</time>
      </trkpt>
      <trkpt lat="43.43445" lon="6.53022">
        <ele>161</ele>
        <time>2020-05-30T13:59:13.000Z</time>
      </trkpt>
      <trkpt lat="43.43441" lon="6.53015">
        <ele>160</ele>
        <time>2020-05-30T13:59:15.000Z</time>
      </trkpt>
      <trkpt lat="43.43439" lon="6.53012">
        <ele>159.80000305176</ele>
        <time>2020-05-30T13:59:16.000Z</time>
      </trkpt>
      <trkpt lat="43.43435" lon="6.53003">
        <ele>159</ele>
        <time>2020-05-30T13:59:18.000Z</time>
      </trkpt>
      <trkpt lat="43.43432" lon="6.52999">
        <ele>157.80000305176</ele>
        <time>2020-05-30T13:59:20.000Z</time>
      </trkpt>
      <trkpt lat="43.43427" lon="6.52992">
        <ele>156.60000610352</ele>
        <time>2020-05-30T13:59:24.000Z</time>
      </trkpt>
      <trkpt lat="43.43421" lon="6.52984">
        <ele>156</ele>
        <time>2020-05-30T13:59:27.000Z</time>
      </trkpt>
      <trkpt lat="43.43419" lon="6.52982">
        <ele>155.60000610352</ele>
        <time>2020-05-30T13:59:28.000Z</time>
      </trkpt>
      <trkpt lat="43.43415" lon="6.52975">
        <ele>154</ele>
        <time>2020-05-30T13:59:30.000Z</time>
      </trkpt>
      <trkpt lat="43.43415" lon="6.52971">
        <ele>153</ele>
        <time>2020-05-30T13:59:31.000Z</time>
      </trkpt>
      <trkpt lat="43.43414" lon="6.52968">
        <ele>152</ele>
        <time>2020-05-30T13:59:32.000Z</time>
      </trkpt>
      <trkpt lat="43.43413" lon="6.52966">
        <ele>151.19999694824</ele>
        <time>2020-05-30T13:59:33.000Z</time>
      </trkpt>
      <trkpt lat="43.43408" lon="6.52954">
        <ele>150</ele>
        <time>2020-05-30T13:59:36.000Z</time>
      </trkpt>
      <trkpt lat="43.43407" lon="6.52949">
        <ele>149.60000610352</ele>
        <time>2020-05-30T13:59:37.000Z</time>
      </trkpt>
      <trkpt lat="43.43408" lon="6.52945">
        <ele>148.80000305176</ele>
        <time>2020-05-30T13:59:38.000Z</time>
      </trkpt>
      <trkpt lat="43.43412" lon="6.52937">
        <ele>147.60000610352</ele>
        <time>2020-05-30T13:59:40.000Z</time>
      </trkpt>
      <trkpt lat="43.43416" lon="6.5292">
        <ele>147</ele>
        <time>2020-05-30T13:59:44.000Z</time>
      </trkpt>
      <trkpt lat="43.43419" lon="6.52916">
        <ele>146.60000610352</ele>
        <time>2020-05-30T13:59:45.000Z</time>
      </trkpt>
      <trkpt lat="43.43423" lon="6.5291">
        <ele>144.60000610352</ele>
        <time>2020-05-30T13:59:47.000Z</time>
      </trkpt>
      <trkpt lat="43.43429" lon="6.52901">
        <ele>143</ele>
        <time>2020-05-30T13:59:49.000Z</time>
      </trkpt>
      <trkpt lat="43.43429" lon="6.52897">
        <ele>142.39999389648</ele>
        <time>2020-05-30T13:59:50.000Z</time>
      </trkpt>
      <trkpt lat="43.4343" lon="6.52894">
        <ele>141.80000305176</ele>
        <time>2020-05-30T13:59:51.000Z</time>
      </trkpt>
      <trkpt lat="43.43436" lon="6.52889">
        <ele>140.80000305176</ele>
        <time>2020-05-30T13:59:53.000Z</time>
      </trkpt>
      <trkpt lat="43.43438" lon="6.52885">
        <ele>140</ele>
        <time>2020-05-30T13:59:54.000Z</time>
      </trkpt>
      <trkpt lat="43.43442" lon="6.52882">
        <ele>139.39999389648</ele>
        <time>2020-05-30T13:59:55.000Z</time>
      </trkpt>
      <trkpt lat="43.43446" lon="6.52877">
        <ele>138.60000610352</ele>
        <time>2020-05-30T13:59:57.000Z</time>
      </trkpt>
      <trkpt lat="43.43447" lon="6.52872">
        <ele>138.19999694824</ele>
        <time>2020-05-30T13:59:58.000Z</time>
      </trkpt>
      <trkpt lat="43.43452" lon="6.52866">
        <ele>137.60000610352</ele>
        <time>2020-05-30T14:00:00.000Z</time>
      </trkpt>
      <trkpt lat="43.43453" lon="6.52863">
        <ele>137.19999694824</ele>
        <time>2020-05-30T14:00:01.000Z</time>
      </trkpt>
      <trkpt lat="43.43454" lon="6.5286">
        <ele>136.80000305176</ele>
        <time>2020-05-30T14:00:02.000Z</time>
      </trkpt>
      <trkpt lat="43.43455" lon="6.52851">
        <ele>134.80000305176</ele>
        <time>2020-05-30T14:00:04.000Z</time>
      </trkpt>
      <trkpt lat="43.43456" lon="6.52848">
        <ele>133.19999694824</ele>
        <time>2020-05-30T14:00:05.000Z</time>
      </trkpt>
      <trkpt lat="43.43455" lon="6.52843">
        <ele>131.80000305176</ele>
        <time>2020-05-30T14:00:06.000Z</time>
      </trkpt>
      <trkpt lat="43.43455" lon="6.52839">
        <ele>130.39999389648</ele>
        <time>2020-05-30T14:00:07.000Z</time>
      </trkpt>
      <trkpt lat="43.43455" lon="6.52837">
        <ele>129.39999389648</ele>
        <time>2020-05-30T14:00:08.000Z</time>
      </trkpt>
      <trkpt lat="43.43454" lon="6.52834">
        <ele>128.19999694824</ele>
        <time>2020-05-30T14:00:09.000Z</time>
      </trkpt>
      <trkpt lat="43.43452" lon="6.52832">
        <ele>126.40000152588</ele>
        <time>2020-05-30T14:00:11.000Z</time>
      </trkpt>
      <trkpt lat="43.43451" lon="6.52833">
        <ele>125.59999847412</ele>
        <time>2020-05-30T14:00:12.000Z</time>
      </trkpt>
      <trkpt lat="43.43451" lon="6.52833">
        <ele>124.59999847412</ele>
        <time>2020-05-30T14:00:13.000Z</time>
      </trkpt>
      <trkpt lat="43.43451" lon="6.52832">
        <ele>122.80000305176</ele>
        <time>2020-05-30T14:00:15.000Z</time>
      </trkpt>
      <trkpt lat="43.43451" lon="6.52832">
        <ele>122.40000152588</ele>
        <time>2020-05-30T14:00:18.000Z</time>
      </trkpt>
      <trkpt lat="43.4345" lon="6.52832">
        <ele>122</ele>
        <time>2020-05-30T14:00:29.000Z</time>
      </trkpt>
      <trkpt lat="43.43449" lon="6.52832">
        <ele>122.40000152588</ele>
        <time>2020-05-30T14:00:44.000Z</time>
      </trkpt>
      <trkpt lat="43.43446" lon="6.52834">
        <ele>122.40000152588</ele>
        <time>2020-05-30T14:00:50.000Z</time>
      </trkpt>
      <trkpt lat="43.43433" lon="6.5284">
        <ele>122.40000152588</ele>
        <time>2020-05-30T14:00:54.000Z</time>
      </trkpt>
      <trkpt lat="43.43419" lon="6.52841">
        <ele>121.80000305176</ele>
        <time>2020-05-30T14:00:57.000Z</time>
      </trkpt>
      <trkpt lat="43.43412" lon="6.5284">
        <ele>121.59999847412</ele>
        <time>2020-05-30T14:00:59.000Z</time>
      </trkpt>
      <trkpt lat="43.43402" lon="6.52842">
        <ele>120.59999847412</ele>
        <time>2020-05-30T14:01:01.000Z</time>
      </trkpt>
      <trkpt lat="43.43392" lon="6.52842">
        <ele>119.80000305176</ele>
        <time>2020-05-30T14:01:03.000Z</time>
      </trkpt>
      <trkpt lat="43.43389" lon="6.52844">
        <ele>119.19999694824</ele>
        <time>2020-05-30T14:01:04.000Z</time>
      </trkpt>
      <trkpt lat="43.43386" lon="6.52846">
        <ele>119.19999694824</ele>
        <time>2020-05-30T14:01:05.000Z</time>
      </trkpt>
      <trkpt lat="43.43387" lon="6.52847">
        <ele>119</ele>
        <time>2020-05-30T14:01:06.000Z</time>
      </trkpt>
      <trkpt lat="43.43383" lon="6.52853">
        <ele>119</ele>
        <time>2020-05-30T14:01:07.000Z</time>
      </trkpt>
      <trkpt lat="43.43369" lon="6.52869">
        <ele>118.40000152588</ele>
        <time>2020-05-30T14:01:09.000Z</time>
      </trkpt>
      <trkpt lat="43.43361" lon="6.52872">
        <ele>118.19999694824</ele>
        <time>2020-05-30T14:01:11.000Z</time>
      </trkpt>
      <trkpt lat="43.43348" lon="6.52876">
        <ele>117.19999694824</ele>
        <time>2020-05-30T14:01:14.000Z</time>
      </trkpt>
      <trkpt lat="43.43344" lon="6.52879">
        <ele>116.59999847412</ele>
        <time>2020-05-30T14:01:15.000Z</time>
      </trkpt>
      <trkpt lat="43.43341" lon="6.52883">
        <ele>115.59999847412</ele>
        <time>2020-05-30T14:01:16.000Z</time>
      </trkpt>
      <trkpt lat="43.43337" lon="6.52893">
        <ele>114.59999847412</ele>
        <time>2020-05-30T14:01:18.000Z</time>
      </trkpt>
      <trkpt lat="43.43336" lon="6.52911">
        <ele>114</ele>
        <time>2020-05-30T14:01:21.000Z</time>
      </trkpt>
      <trkpt lat="43.43336" lon="6.52918">
        <ele>114</ele>
        <time>2020-05-30T14:01:22.000Z</time>
      </trkpt>
      <trkpt lat="43.43337" lon="6.5292">
        <ele>114</ele>
        <time>2020-05-30T14:01:23.000Z</time>
      </trkpt>
      <trkpt lat="43.43338" lon="6.5294">
        <ele>114</ele>
        <time>2020-05-30T14:01:26.000Z</time>
      </trkpt>
      <trkpt lat="43.43342" lon="6.52971">
        <ele>114</ele>
        <time>2020-05-30T14:01:31.000Z</time>
      </trkpt>
      <trkpt lat="43.43346" lon="6.52988">
        <ele>114.19999694824</ele>
        <time>2020-05-30T14:01:34.000Z</time>
      </trkpt>
      <trkpt lat="43.43349" lon="6.52996">
        <ele>114.19999694824</ele>
        <time>2020-05-30T14:01:36.000Z</time>
      </trkpt>
      <trkpt lat="43.43355" lon="6.53019">
        <ele>114.19999694824</ele>
        <time>2020-05-30T14:01:40.000Z</time>
      </trkpt>
      <trkpt lat="43.43354" lon="6.53024">
        <ele>114</ele>
        <time>2020-05-30T14:01:41.000Z</time>
      </trkpt>
      <trkpt lat="43.43357" lon="6.53049">
        <ele>114.59999847412</ele>
        <time>2020-05-30T14:01:46.000Z</time>
      </trkpt>
      <trkpt lat="43.43355" lon="6.53053">
        <ele>114.59999847412</ele>
        <time>2020-05-30T14:01:47.000Z</time>
      </trkpt>
      <trkpt lat="43.43351" lon="6.53053">
        <ele>114.59999847412</ele>
        <time>2020-05-30T14:01:48.000Z</time>
      </trkpt>
      <trkpt lat="43.43346" lon="6.53045">
        <ele>114.59999847412</ele>
        <time>2020-05-30T14:01:51.000Z</time>
      </trkpt>
      <trkpt lat="43.43339" lon="6.5303">
        <ele>114.80000305176</ele>
        <time>2020-05-30T14:01:54.000Z</time>
      </trkpt>
      <trkpt lat="43.43337" lon="6.53024">
        <ele>114.80000305176</ele>
        <time>2020-05-30T14:01:55.000Z</time>
      </trkpt>
      <trkpt lat="43.43325" lon="6.53003">
        <ele>114.19999694824</ele>
        <time>2020-05-30T14:01:59.000Z</time>
      </trkpt>
      <trkpt lat="43.43321" lon="6.52996">
        <ele>113.59999847412</ele>
        <time>2020-05-30T14:02:00.000Z</time>
      </trkpt>
      <trkpt lat="43.43318" lon="6.5299">
        <ele>113.40000152588</ele>
        <time>2020-05-30T14:02:01.000Z</time>
      </trkpt>
      <trkpt lat="43.43312" lon="6.52981">
        <ele>112.40000152588</ele>
        <time>2020-05-30T14:02:03.000Z</time>
      </trkpt>
      <trkpt lat="43.43308" lon="6.52978">
        <ele>111.80000305176</ele>
        <time>2020-05-30T14:02:04.000Z</time>
      </trkpt>
      <trkpt lat="43.43304" lon="6.52972">
        <ele>111.19999694824</ele>
        <time>2020-05-30T14:02:06.000Z</time>
      </trkpt>
      <trkpt lat="43.43301" lon="6.52963">
        <ele>110.59999847412</ele>
        <time>2020-05-30T14:02:08.000Z</time>
      </trkpt>
      <trkpt lat="43.433" lon="6.52959">
        <ele>109.80000305176</ele>
        <time>2020-05-30T14:02:09.000Z</time>
      </trkpt>
      <trkpt lat="43.43299" lon="6.52952">
        <ele>108.80000305176</ele>
        <time>2020-05-30T14:02:11.000Z</time>
      </trkpt>
      <trkpt lat="43.43296" lon="6.52945">
        <ele>108.40000152588</ele>
        <time>2020-05-30T14:02:12.000Z</time>
      </trkpt>
      <trkpt lat="43.43286" lon="6.52925">
        <ele>107.80000305176</ele>
        <time>2020-05-30T14:02:16.000Z</time>
      </trkpt>
      <trkpt lat="43.43283" lon="6.52922">
        <ele>107.80000305176</ele>
        <time>2020-05-30T14:02:17.000Z</time>
      </trkpt>
      <trkpt lat="43.43275" lon="6.52913">
        <ele>107</ele>
        <time>2020-05-30T14:02:19.000Z</time>
      </trkpt>
      <trkpt lat="43.4327" lon="6.52904">
        <ele>106.59999847412</ele>
        <time>2020-05-30T14:02:21.000Z</time>
      </trkpt>
      <trkpt lat="43.43264" lon="6.52893">
        <ele>106</ele>
        <time>2020-05-30T14:02:23.000Z</time>
      </trkpt>
      <trkpt lat="43.43264" lon="6.52886">
        <ele>105.59999847412</ele>
        <time>2020-05-30T14:02:24.000Z</time>
      </trkpt>
      <trkpt lat="43.43265" lon="6.52881">
        <ele>105.59999847412</ele>
        <time>2020-05-30T14:02:25.000Z</time>
      </trkpt>
      <trkpt lat="43.43266" lon="6.52868">
        <ele>105</ele>
        <time>2020-05-30T14:02:27.000Z</time>
      </trkpt>
      <trkpt lat="43.43266" lon="6.5286">
        <ele>104.80000305176</ele>
        <time>2020-05-30T14:02:28.000Z</time>
      </trkpt>
      <trkpt lat="43.43267" lon="6.52852">
        <ele>104.40000152588</ele>
        <time>2020-05-30T14:02:29.000Z</time>
      </trkpt>
      <trkpt lat="43.43269" lon="6.52834">
        <ele>103.19999694824</ele>
        <time>2020-05-30T14:02:31.000Z</time>
      </trkpt>
      <trkpt lat="43.43273" lon="6.52816">
        <ele>102</ele>
        <time>2020-05-30T14:02:33.000Z</time>
      </trkpt>
      <trkpt lat="43.43273" lon="6.52807">
        <ele>101.59999847412</ele>
        <time>2020-05-30T14:02:34.000Z</time>
      </trkpt>
      <trkpt lat="43.43274" lon="6.52799">
        <ele>101</ele>
        <time>2020-05-30T14:02:35.000Z</time>
      </trkpt>
      <trkpt lat="43.43277" lon="6.52791">
        <ele>100.80000305176</ele>
        <time>2020-05-30T14:02:36.000Z</time>
      </trkpt>
      <trkpt lat="43.43282" lon="6.52786">
        <ele>100</ele>
        <time>2020-05-30T14:02:37.000Z</time>
      </trkpt>
      <trkpt lat="43.43295" lon="6.52769">
        <ele>98.599998474121</ele>
        <time>2020-05-30T14:02:40.000Z</time>
      </trkpt>
      <trkpt lat="43.43298" lon="6.52763">
        <ele>98.199996948242</ele>
        <time>2020-05-30T14:02:41.000Z</time>
      </trkpt>
      <trkpt lat="43.43303" lon="6.52755">
        <ele>98</ele>
        <time>2020-05-30T14:02:42.000Z</time>
      </trkpt>
      <trkpt lat="43.43308" lon="6.52748">
        <ele>97.400001525879</ele>
        <time>2020-05-30T14:02:43.000Z</time>
      </trkpt>
      <trkpt lat="43.43318" lon="6.52733">
        <ele>96.400001525879</ele>
        <time>2020-05-30T14:02:45.000Z</time>
      </trkpt>
      <trkpt lat="43.43324" lon="6.52726">
        <ele>95.800003051758</ele>
        <time>2020-05-30T14:02:46.000Z</time>
      </trkpt>
      <trkpt lat="43.43329" lon="6.5272">
        <ele>95.400001525879</ele>
        <time>2020-05-30T14:02:47.000Z</time>
      </trkpt>
      <trkpt lat="43.43338" lon="6.52705">
        <ele>94.400001525879</ele>
        <time>2020-05-30T14:02:49.000Z</time>
      </trkpt>
      <trkpt lat="43.4334" lon="6.52698">
        <ele>93.800003051758</ele>
        <time>2020-05-30T14:02:50.000Z</time>
      </trkpt>
      <trkpt lat="43.43341" lon="6.52692">
        <ele>93.400001525879</ele>
        <time>2020-05-30T14:02:51.000Z</time>
      </trkpt>
      <trkpt lat="43.43338" lon="6.52678">
        <ele>92.599998474121</ele>
        <time>2020-05-30T14:02:53.000Z</time>
      </trkpt>
      <trkpt lat="43.43334" lon="6.52669">
        <ele>92.199996948242</ele>
        <time>2020-05-30T14:02:54.000Z</time>
      </trkpt>
      <trkpt lat="43.43331" lon="6.52661">
        <ele>91.599998474121</ele>
        <time>2020-05-30T14:02:55.000Z</time>
      </trkpt>
      <trkpt lat="43.43327" lon="6.52645">
        <ele>91.199996948242</ele>
        <time>2020-05-30T14:02:57.000Z</time>
      </trkpt>
      <trkpt lat="43.43326" lon="6.52637">
        <ele>90.400001525879</ele>
        <time>2020-05-30T14:02:58.000Z</time>
      </trkpt>
      <trkpt lat="43.43325" lon="6.52629">
        <ele>90.199996948242</ele>
        <time>2020-05-30T14:02:59.000Z</time>
      </trkpt>
      <trkpt lat="43.43323" lon="6.52612">
        <ele>88.800003051758</ele>
        <time>2020-05-30T14:03:01.000Z</time>
      </trkpt>
      <trkpt lat="43.43319" lon="6.52601">
        <ele>87.599998474121</ele>
        <time>2020-05-30T14:03:03.000Z</time>
      </trkpt>
      <trkpt lat="43.43315" lon="6.52596">
        <ele>87</ele>
        <time>2020-05-30T14:03:04.000Z</time>
      </trkpt>
      <trkpt lat="43.43299" lon="6.52586">
        <ele>86.400001525879</ele>
        <time>2020-05-30T14:03:07.000Z</time>
      </trkpt>
      <trkpt lat="43.43293" lon="6.52584">
        <ele>86.199996948242</ele>
        <time>2020-05-30T14:03:08.000Z</time>
      </trkpt>
      <trkpt lat="43.43287" lon="6.52581">
        <ele>85.800003051758</ele>
        <time>2020-05-30T14:03:09.000Z</time>
      </trkpt>
      <trkpt lat="43.43275" lon="6.52578">
        <ele>85</ele>
        <time>2020-05-30T14:03:11.000Z</time>
      </trkpt>
      <trkpt lat="43.43259" lon="6.52573">
        <ele>83.599998474121</ele>
        <time>2020-05-30T14:03:13.000Z</time>
      </trkpt>
      <trkpt lat="43.43251" lon="6.52572">
        <ele>82.800003051758</ele>
        <time>2020-05-30T14:03:14.000Z</time>
      </trkpt>
      <trkpt lat="43.43244" lon="6.5257">
        <ele>82</ele>
        <time>2020-05-30T14:03:15.000Z</time>
      </trkpt>
      <trkpt lat="43.43233" lon="6.5257">
        <ele>81.400001525879</ele>
        <time>2020-05-30T14:03:17.000Z</time>
      </trkpt>
      <trkpt lat="43.43227" lon="6.52569">
        <ele>81.199996948242</ele>
        <time>2020-05-30T14:03:18.000Z</time>
      </trkpt>
      <trkpt lat="43.4321" lon="6.52571">
        <ele>81</ele>
        <time>2020-05-30T14:03:21.000Z</time>
      </trkpt>
      <trkpt lat="43.43205" lon="6.52567">
        <ele>80.400001525879</ele>
        <time>2020-05-30T14:03:22.000Z</time>
      </trkpt>
      <trkpt lat="43.43202" lon="6.52566">
        <ele>80</ele>
        <time>2020-05-30T14:03:23.000Z</time>
      </trkpt>
      <trkpt lat="43.43193" lon="6.52563">
        <ele>78.800003051758</ele>
        <time>2020-05-30T14:03:25.000Z</time>
      </trkpt>
      <trkpt lat="43.43188" lon="6.52562">
        <ele>78.599998474121</ele>
        <time>2020-05-30T14:03:26.000Z</time>
      </trkpt>
      <trkpt lat="43.43171" lon="6.52557">
        <ele>78</ele>
        <time>2020-05-30T14:03:29.000Z</time>
      </trkpt>
      <trkpt lat="43.43159" lon="6.52554">
        <ele>77.400001525879</ele>
        <time>2020-05-30T14:03:31.000Z</time>
      </trkpt>
      <trkpt lat="43.43153" lon="6.52552">
        <ele>77</ele>
        <time>2020-05-30T14:03:32.000Z</time>
      </trkpt>
      <trkpt lat="43.43149" lon="6.52549">
        <ele>76.599998474121</ele>
        <time>2020-05-30T14:03:33.000Z</time>
      </trkpt>
      <trkpt lat="43.43143" lon="6.52544">
        <ele>76.199996948242</ele>
        <time>2020-05-30T14:03:34.000Z</time>
      </trkpt>
      <trkpt lat="43.43139" lon="6.52544">
        <ele>75.400001525879</ele>
        <time>2020-05-30T14:03:35.000Z</time>
      </trkpt>
      <trkpt lat="43.43129" lon="6.52539">
        <ele>74.599998474121</ele>
        <time>2020-05-30T14:03:37.000Z</time>
      </trkpt>
      <trkpt lat="43.43125" lon="6.52534">
        <ele>74.400001525879</ele>
        <time>2020-05-30T14:03:38.000Z</time>
      </trkpt>
      <trkpt lat="43.43121" lon="6.52529">
        <ele>74.199996948242</ele>
        <time>2020-05-30T14:03:39.000Z</time>
      </trkpt>
      <trkpt lat="43.43111" lon="6.52518">
        <ele>73.199996948242</ele>
        <time>2020-05-30T14:03:41.000Z</time>
      </trkpt>
      <trkpt lat="43.43101" lon="6.52507">
        <ele>72.400001525879</ele>
        <time>2020-05-30T14:03:43.000Z</time>
      </trkpt>
      <trkpt lat="43.43097" lon="6.52505">
        <ele>71.800003051758</ele>
        <time>2020-05-30T14:03:44.000Z</time>
      </trkpt>
      <trkpt lat="43.43088" lon="6.52498">
        <ele>70.800003051758</ele>
        <time>2020-05-30T14:03:46.000Z</time>
      </trkpt>
      <trkpt lat="43.43083" lon="6.52495">
        <ele>70.599998474121</ele>
        <time>2020-05-30T14:03:47.000Z</time>
      </trkpt>
      <trkpt lat="43.4307" lon="6.52484">
        <ele>70</ele>
        <time>2020-05-30T14:03:50.000Z</time>
      </trkpt>
      <trkpt lat="43.43067" lon="6.5248">
        <ele>70</ele>
        <time>2020-05-30T14:03:51.000Z</time>
      </trkpt>
      <trkpt lat="43.43056" lon="6.52466">
        <ele>69.199996948242</ele>
        <time>2020-05-30T14:03:54.000Z</time>
      </trkpt>
      <trkpt lat="43.43052" lon="6.52466">
        <ele>68</ele>
        <time>2020-05-30T14:03:57.000Z</time>
      </trkpt>
      <trkpt lat="43.43049" lon="6.52466">
        <ele>67.599998474121</ele>
        <time>2020-05-30T14:04:06.000Z</time>
      </trkpt>
      <trkpt lat="43.43048" lon="6.52466">
        <ele>67.599998474121</ele>
        <time>2020-05-30T14:04:12.000Z</time>
      </trkpt>
      <trkpt lat="43.43045" lon="6.52465">
        <ele>67.599998474121</ele>
        <time>2020-05-30T14:04:14.000Z</time>
      </trkpt>
      <trkpt lat="43.43042" lon="6.52458">
        <ele>67.400001525879</ele>
        <time>2020-05-30T14:04:17.000Z</time>
      </trkpt>
      <trkpt lat="43.43042" lon="6.52454">
        <ele>67.199996948242</ele>
        <time>2020-05-30T14:04:18.000Z</time>
      </trkpt>
      <trkpt lat="43.43042" lon="6.5245">
        <ele>66.599998474121</ele>
        <time>2020-05-30T14:04:19.000Z</time>
      </trkpt>
      <trkpt lat="43.43043" lon="6.52441">
        <ele>65.199996948242</ele>
        <time>2020-05-30T14:04:21.000Z</time>
      </trkpt>
      <trkpt lat="43.43044" lon="6.52439">
        <ele>64.199996948242</ele>
        <time>2020-05-30T14:04:22.000Z</time>
      </trkpt>
      <trkpt lat="43.43043" lon="6.52437">
        <ele>64</ele>
        <time>2020-05-30T14:04:23.000Z</time>
      </trkpt>
      <trkpt lat="43.4304" lon="6.52437">
        <ele>63</ele>
        <time>2020-05-30T14:04:24.000Z</time>
      </trkpt>
      <trkpt lat="43.43037" lon="6.52435">
        <ele>62.200000762939</ele>
        <time>2020-05-30T14:04:25.000Z</time>
      </trkpt>
      <trkpt lat="43.43035" lon="6.52432">
        <ele>61.799999237061</ele>
        <time>2020-05-30T14:04:26.000Z</time>
      </trkpt>
      <trkpt lat="43.43034" lon="6.5242">
        <ele>60.799999237061</ele>
        <time>2020-05-30T14:04:28.000Z</time>
      </trkpt>
      <trkpt lat="43.43033" lon="6.52419">
        <ele>59.799999237061</ele>
        <time>2020-05-30T14:04:29.000Z</time>
      </trkpt>
      <trkpt lat="43.43029" lon="6.5242">
        <ele>58.400001525879</ele>
        <time>2020-05-30T14:04:31.000Z</time>
      </trkpt>
      <trkpt lat="43.43025" lon="6.52415">
        <ele>56.799999237061</ele>
        <time>2020-05-30T14:04:33.000Z</time>
      </trkpt>
      <trkpt lat="43.43024" lon="6.52411">
        <ele>56.200000762939</ele>
        <time>2020-05-30T14:04:34.000Z</time>
      </trkpt>
      <trkpt lat="43.43023" lon="6.52407">
        <ele>55</ele>
        <time>2020-05-30T14:04:36.000Z</time>
      </trkpt>
      <trkpt lat="43.43018" lon="6.52406">
        <ele>54</ele>
        <time>2020-05-30T14:04:38.000Z</time>
      </trkpt>
      <trkpt lat="43.43005" lon="6.52401">
        <ele>51.799999237061</ele>
        <time>2020-05-30T14:04:43.000Z</time>
      </trkpt>
      <trkpt lat="43.42999" lon="6.524">
        <ele>50</ele>
        <time>2020-05-30T14:04:45.000Z</time>
      </trkpt>
      <trkpt lat="43.42996" lon="6.52394">
        <ele>49</ele>
        <time>2020-05-30T14:04:47.000Z</time>
      </trkpt>
      <trkpt lat="43.42988" lon="6.52382">
        <ele>49.599998474121</ele>
        <time>2020-05-30T14:04:51.000Z</time>
      </trkpt>
      <trkpt lat="43.42977" lon="6.5238">
        <ele>49.599998474121</ele>
        <time>2020-05-30T14:04:54.000Z</time>
      </trkpt>
      <trkpt lat="43.42972" lon="6.52382">
        <ele>49.599998474121</ele>
        <time>2020-05-30T14:04:55.000Z</time>
      </trkpt>
      <trkpt lat="43.42958" lon="6.52394">
        <ele>48.599998474121</ele>
        <time>2020-05-30T14:04:59.000Z</time>
      </trkpt>
      <trkpt lat="43.42939" lon="6.52407">
        <ele>48</ele>
        <time>2020-05-30T14:05:03.000Z</time>
      </trkpt>
      <trkpt lat="43.42927" lon="6.52413">
        <ele>48</ele>
        <time>2020-05-30T14:05:05.000Z</time>
      </trkpt>
      <trkpt lat="43.42917" lon="6.52407">
        <ele>48</ele>
        <time>2020-05-30T14:05:07.000Z</time>
      </trkpt>
      <trkpt lat="43.42908" lon="6.52401">
        <ele>47.799999237061</ele>
        <time>2020-05-30T14:05:09.000Z</time>
      </trkpt>
      <trkpt lat="43.42899" lon="6.52394">
        <ele>47.400001525879</ele>
        <time>2020-05-30T14:05:11.000Z</time>
      </trkpt>
      <trkpt lat="43.42869" lon="6.52378">
        <ele>46.400001525879</ele>
        <time>2020-05-30T14:05:17.000Z</time>
      </trkpt>
      <trkpt lat="43.42865" lon="6.52375">
        <ele>46.400001525879</ele>
        <time>2020-05-30T14:05:18.000Z</time>
      </trkpt>
      <trkpt lat="43.42856" lon="6.52362">
        <ele>46.599998474121</ele>
        <time>2020-05-30T14:05:21.000Z</time>
      </trkpt>
      <trkpt lat="43.42856" lon="6.52353">
        <ele>46.799999237061</ele>
        <time>2020-05-30T14:05:24.000Z</time>
      </trkpt>
      <trkpt lat="43.42862" lon="6.52347">
        <ele>47</ele>
        <time>2020-05-30T14:05:28.000Z</time>
      </trkpt>
      <trkpt lat="43.42865" lon="6.52343">
        <ele>46.799999237061</ele>
        <time>2020-05-30T14:05:30.000Z</time>
      </trkpt>
      <trkpt lat="43.42869" lon="6.52342">
        <ele>46.599998474121</ele>
        <time>2020-05-30T14:05:32.000Z</time>
      </trkpt>
      <trkpt lat="43.42871" lon="6.52341">
        <ele>46.799999237061</ele>
        <time>2020-05-30T14:05:37.000Z</time>
      </trkpt>
      <trkpt lat="43.42874" lon="6.52339">
        <ele>47</ele>
        <time>2020-05-30T14:05:48.000Z</time>
      </trkpt>
      <trkpt lat="43.42876" lon="6.52338">
        <ele>46.799999237061</ele>
        <time>2020-05-30T14:05:49.000Z</time>
      </trkpt>
      <trkpt lat="43.42888" lon="6.52329">
        <ele>47</ele>
        <time>2020-05-30T14:05:54.000Z</time>
      </trkpt>
      <trkpt lat="43.42897" lon="6.52318">
        <ele>47.200000762939</ele>
        <time>2020-05-30T14:05:57.000Z</time>
      </trkpt>
      <trkpt lat="43.42906" lon="6.52319">
        <ele>47.200000762939</ele>
        <time>2020-05-30T14:05:59.000Z</time>
      </trkpt>
      <trkpt lat="43.42915" lon="6.52323">
        <ele>47.200000762939</ele>
        <time>2020-05-30T14:06:01.000Z</time>
      </trkpt>
      <trkpt lat="43.4292" lon="6.52324">
        <ele>47.200000762939</ele>
        <time>2020-05-30T14:06:02.000Z</time>
      </trkpt>
      <trkpt lat="43.42929" lon="6.52324">
        <ele>47.200000762939</ele>
        <time>2020-05-30T14:06:04.000Z</time>
      </trkpt>
      <trkpt lat="43.42938" lon="6.5232">
        <ele>47.400001525879</ele>
        <time>2020-05-30T14:06:06.000Z</time>
      </trkpt>
      <trkpt lat="43.42947" lon="6.52312">
        <ele>47.799999237061</ele>
        <time>2020-05-30T14:06:08.000Z</time>
      </trkpt>
      <trkpt lat="43.42952" lon="6.52299">
        <ele>48</ele>
        <time>2020-05-30T14:06:10.000Z</time>
      </trkpt>
      <trkpt lat="43.42958" lon="6.52289">
        <ele>48</ele>
        <time>2020-05-30T14:06:12.000Z</time>
      </trkpt>
      <trkpt lat="43.42974" lon="6.52259">
        <ele>48.200000762939</ele>
        <time>2020-05-30T14:06:18.000Z</time>
      </trkpt>
      <trkpt lat="43.42977" lon="6.52247">
        <ele>48</ele>
        <time>2020-05-30T14:06:20.000Z</time>
      </trkpt>
      <trkpt lat="43.42978" lon="6.52235">
        <ele>48</ele>
        <time>2020-05-30T14:06:22.000Z</time>
      </trkpt>
      <trkpt lat="43.42978" lon="6.52233">
        <ele>48</ele>
        <time>2020-05-30T14:06:23.000Z</time>
      </trkpt>
      <trkpt lat="43.42978" lon="6.52223">
        <ele>48</ele>
        <time>2020-05-30T14:06:24.000Z</time>
      </trkpt>
      <trkpt lat="43.42973" lon="6.52203">
        <ele>47.799999237061</ele>
        <time>2020-05-30T14:06:27.000Z</time>
      </trkpt>
      <trkpt lat="43.42965" lon="6.52172">
        <ele>48.200000762939</ele>
        <time>2020-05-30T14:06:32.000Z</time>
      </trkpt>
      <trkpt lat="43.42955" lon="6.52134">
        <ele>47.799999237061</ele>
        <time>2020-05-30T14:06:38.000Z</time>
      </trkpt>
      <trkpt lat="43.42953" lon="6.52129">
        <ele>47.799999237061</ele>
        <time>2020-05-30T14:06:39.000Z</time>
      </trkpt>
      <trkpt lat="43.42949" lon="6.52111">
        <ele>47.799999237061</ele>
        <time>2020-05-30T14:06:42.000Z</time>
      </trkpt>
      <trkpt lat="43.42946" lon="6.52104">
        <ele>47.799999237061</ele>
        <time>2020-05-30T14:06:43.000Z</time>
      </trkpt>
      <trkpt lat="43.42942" lon="6.52084">
        <ele>48.400001525879</ele>
        <time>2020-05-30T14:06:46.000Z</time>
      </trkpt>
      <trkpt lat="43.4294" lon="6.52078">
        <ele>48.400001525879</ele>
        <time>2020-05-30T14:06:47.000Z</time>
      </trkpt>
      <trkpt lat="43.42939" lon="6.52071">
        <ele>48.200000762939</ele>
        <time>2020-05-30T14:06:48.000Z</time>
      </trkpt>
      <trkpt lat="43.42934" lon="6.52039">
        <ele>47.799999237061</ele>
        <time>2020-05-30T14:06:53.000Z</time>
      </trkpt>
      <trkpt lat="43.42925" lon="6.52004">
        <ele>48.400001525879</ele>
        <time>2020-05-30T14:06:59.000Z</time>
      </trkpt>
      <trkpt lat="43.42924" lon="6.52">
        <ele>48.599998474121</ele>
        <time>2020-05-30T14:07:00.000Z</time>
      </trkpt>
      <trkpt lat="43.42917" lon="6.51979">
        <ele>49.200000762939</ele>
        <time>2020-05-30T14:07:05.000Z</time>
      </trkpt>
      <trkpt lat="43.42914" lon="6.5197">
        <ele>49.799999237061</ele>
        <time>2020-05-30T14:07:07.000Z</time>
      </trkpt>
      <trkpt lat="43.42908" lon="6.5195">
        <ele>50.799999237061</ele>
        <time>2020-05-30T14:07:12.000Z</time>
      </trkpt>
      <trkpt lat="43.42907" lon="6.51946">
        <ele>51</ele>
        <time>2020-05-30T14:07:13.000Z</time>
      </trkpt>
      <trkpt lat="43.42904" lon="6.51933">
        <ele>51.799999237061</ele>
        <time>2020-05-30T14:07:16.000Z</time>
      </trkpt>
      <trkpt lat="43.429" lon="6.51912">
        <ele>52.400001525879</ele>
        <time>2020-05-30T14:07:20.000Z</time>
      </trkpt>
      <trkpt lat="43.42898" lon="6.51898">
        <ele>53</ele>
        <time>2020-05-30T14:07:23.000Z</time>
      </trkpt>
      <trkpt lat="43.42895" lon="6.51879">
        <ele>53.400001525879</ele>
        <time>2020-05-30T14:07:27.000Z</time>
      </trkpt>
      <trkpt lat="43.42893" lon="6.51864">
        <ele>54.200000762939</ele>
        <time>2020-05-30T14:07:31.000Z</time>
      </trkpt>
      <trkpt lat="43.42889" lon="6.51833">
        <ele>55.200000762939</ele>
        <time>2020-05-30T14:07:37.000Z</time>
      </trkpt>
      <trkpt lat="43.42886" lon="6.51792">
        <ele>56</ele>
        <time>2020-05-30T14:07:44.000Z</time>
      </trkpt>
      <trkpt lat="43.42882" lon="6.51766">
        <ele>55.400001525879</ele>
        <time>2020-05-30T14:07:48.000Z</time>
      </trkpt>
      <trkpt lat="43.4288" lon="6.51747">
        <ele>55.200000762939</ele>
        <time>2020-05-30T14:07:51.000Z</time>
      </trkpt>
      <trkpt lat="43.42876" lon="6.51729">
        <ele>55.400001525879</ele>
        <time>2020-05-30T14:07:54.000Z</time>
      </trkpt>
      <trkpt lat="43.42869" lon="6.51712">
        <ele>55.599998474121</ele>
        <time>2020-05-30T14:07:57.000Z</time>
      </trkpt>
      <trkpt lat="43.42856" lon="6.51684">
        <ele>56</ele>
        <time>2020-05-30T14:08:02.000Z</time>
      </trkpt>
      <trkpt lat="43.42854" lon="6.51678">
        <ele>56.200000762939</ele>
        <time>2020-05-30T14:08:03.000Z</time>
      </trkpt>
      <trkpt lat="43.42853" lon="6.51672">
        <ele>56.400001525879</ele>
        <time>2020-05-30T14:08:04.000Z</time>
      </trkpt>
      <trkpt lat="43.42852" lon="6.51659">
        <ele>56.599998474121</ele>
        <time>2020-05-30T14:08:06.000Z</time>
      </trkpt>
      <trkpt lat="43.42853" lon="6.51646">
        <ele>56.799999237061</ele>
        <time>2020-05-30T14:08:08.000Z</time>
      </trkpt>
      <trkpt lat="43.42853" lon="6.5164">
        <ele>57</ele>
        <time>2020-05-30T14:08:09.000Z</time>
      </trkpt>
      <trkpt lat="43.42859" lon="6.51625">
        <ele>57</ele>
        <time>2020-05-30T14:08:12.000Z</time>
      </trkpt>
      <trkpt lat="43.42879" lon="6.51599">
        <ele>57.400001525879</ele>
        <time>2020-05-30T14:08:18.000Z</time>
      </trkpt>
      <trkpt lat="43.42896" lon="6.51567">
        <ele>58.200000762939</ele>
        <time>2020-05-30T14:08:25.000Z</time>
      </trkpt>
      <trkpt lat="43.42901" lon="6.51559">
        <ele>58.400001525879</ele>
        <time>2020-05-30T14:08:27.000Z</time>
      </trkpt>
      <trkpt lat="43.42914" lon="6.51535">
        <ele>59.200000762939</ele>
        <time>2020-05-30T14:08:33.000Z</time>
      </trkpt>
      <trkpt lat="43.42916" lon="6.51526">
        <ele>59.599998474121</ele>
        <time>2020-05-30T14:08:35.000Z</time>
      </trkpt>
      <trkpt lat="43.42917" lon="6.51505">
        <ele>60.400001525879</ele>
        <time>2020-05-30T14:08:39.000Z</time>
      </trkpt>
      <trkpt lat="43.42916" lon="6.51501">
        <ele>60.599998474121</ele>
        <time>2020-05-30T14:08:40.000Z</time>
      </trkpt>
      <trkpt lat="43.42912" lon="6.51475">
        <ele>61.400001525879</ele>
        <time>2020-05-30T14:08:45.000Z</time>
      </trkpt>
      <trkpt lat="43.42911" lon="6.5147">
        <ele>61.599998474121</ele>
        <time>2020-05-30T14:08:46.000Z</time>
      </trkpt>
      <trkpt lat="43.42906" lon="6.51445">
        <ele>62.400001525879</ele>
        <time>2020-05-30T14:08:51.000Z</time>
      </trkpt>
      <trkpt lat="43.42903" lon="6.51435">
        <ele>62.599998474121</ele>
        <time>2020-05-30T14:08:53.000Z</time>
      </trkpt>
      <trkpt lat="43.42901" lon="6.5143">
        <ele>63</ele>
        <time>2020-05-30T14:08:54.000Z</time>
      </trkpt>
      <trkpt lat="43.42902" lon="6.51418">
        <ele>63.400001525879</ele>
        <time>2020-05-30T14:08:56.000Z</time>
      </trkpt>
      <trkpt lat="43.42909" lon="6.51404">
        <ele>63.599998474121</ele>
        <time>2020-05-30T14:08:59.000Z</time>
      </trkpt>
      <trkpt lat="43.42912" lon="6.51399">
        <ele>63.599998474121</ele>
        <time>2020-05-30T14:09:00.000Z</time>
      </trkpt>
      <trkpt lat="43.42914" lon="6.51394">
        <ele>63.799999237061</ele>
        <time>2020-05-30T14:09:01.000Z</time>
      </trkpt>
      <trkpt lat="43.42918" lon="6.51377">
        <ele>63.599998474121</ele>
        <time>2020-05-30T14:09:04.000Z</time>
      </trkpt>
      <trkpt lat="43.42919" lon="6.51371">
        <ele>63.400001525879</ele>
        <time>2020-05-30T14:09:05.000Z</time>
      </trkpt>
      <trkpt lat="43.42923" lon="6.51361">
        <ele>63.200000762939</ele>
        <time>2020-05-30T14:09:07.000Z</time>
      </trkpt>
      <trkpt lat="43.42929" lon="6.51346">
        <ele>63.200000762939</ele>
        <time>2020-05-30T14:09:10.000Z</time>
      </trkpt>
      <trkpt lat="43.42931" lon="6.51341">
        <ele>63.200000762939</ele>
        <time>2020-05-30T14:09:11.000Z</time>
      </trkpt>
      <trkpt lat="43.42943" lon="6.51313">
        <ele>64</ele>
        <time>2020-05-30T14:09:17.000Z</time>
      </trkpt>
      <trkpt lat="43.42944" lon="6.51307">
        <ele>64.199996948242</ele>
        <time>2020-05-30T14:09:18.000Z</time>
      </trkpt>
      <trkpt lat="43.42951" lon="6.51292">
        <ele>64.400001525879</ele>
        <time>2020-05-30T14:09:21.000Z</time>
      </trkpt>
      <trkpt lat="43.42953" lon="6.51288">
        <ele>64.400001525879</ele>
        <time>2020-05-30T14:09:22.000Z</time>
      </trkpt>
      <trkpt lat="43.42957" lon="6.51261">
        <ele>64.599998474121</ele>
        <time>2020-05-30T14:09:27.000Z</time>
      </trkpt>
      <trkpt lat="43.4296" lon="6.51244">
        <ele>64.599998474121</ele>
        <time>2020-05-30T14:09:30.000Z</time>
      </trkpt>
      <trkpt lat="43.42962" lon="6.51238">
        <ele>64.800003051758</ele>
        <time>2020-05-30T14:09:31.000Z</time>
      </trkpt>
      <trkpt lat="43.42964" lon="6.51233">
        <ele>64.800003051758</ele>
        <time>2020-05-30T14:09:32.000Z</time>
      </trkpt>
      <trkpt lat="43.42968" lon="6.51223">
        <ele>65</ele>
        <time>2020-05-30T14:09:34.000Z</time>
      </trkpt>
      <trkpt lat="43.42977" lon="6.51205">
        <ele>64.800003051758</ele>
        <time>2020-05-30T14:09:39.000Z</time>
      </trkpt>
      <trkpt lat="43.4298" lon="6.51202">
        <ele>65</ele>
        <time>2020-05-30T14:09:41.000Z</time>
      </trkpt>
      <trkpt lat="43.42984" lon="6.51197">
        <ele>65.199996948242</ele>
        <time>2020-05-30T14:09:43.000Z</time>
      </trkpt>
      <trkpt lat="43.42988" lon="6.5119">
        <ele>65.400001525879</ele>
        <time>2020-05-30T14:09:45.000Z</time>
      </trkpt>
      <trkpt lat="43.42989" lon="6.51182">
        <ele>65.199996948242</ele>
        <time>2020-05-30T14:09:47.000Z</time>
      </trkpt>
      <trkpt lat="43.42992" lon="6.51157">
        <ele>64.599998474121</ele>
        <time>2020-05-30T14:09:52.000Z</time>
      </trkpt>
      <trkpt lat="43.42994" lon="6.51151">
        <ele>64.400001525879</ele>
        <time>2020-05-30T14:09:53.000Z</time>
      </trkpt>
      <trkpt lat="43.43002" lon="6.51128">
        <ele>63.599998474121</ele>
        <time>2020-05-30T14:09:57.000Z</time>
      </trkpt>
      <trkpt lat="43.43006" lon="6.51116">
        <ele>63.400001525879</ele>
        <time>2020-05-30T14:09:59.000Z</time>
      </trkpt>
      <trkpt lat="43.43009" lon="6.5111">
        <ele>63.200000762939</ele>
        <time>2020-05-30T14:10:00.000Z</time>
      </trkpt>
      <trkpt lat="43.43017" lon="6.51104">
        <ele>62.799999237061</ele>
        <time>2020-05-30T14:10:02.000Z</time>
      </trkpt>
      <trkpt lat="43.43029" lon="6.51113">
        <ele>62.599998474121</ele>
        <time>2020-05-30T14:10:05.000Z</time>
      </trkpt>
      <trkpt lat="43.43036" lon="6.5112">
        <ele>62.799999237061</ele>
        <time>2020-05-30T14:10:07.000Z</time>
      </trkpt>
      <trkpt lat="43.43048" lon="6.51129">
        <ele>63</ele>
        <time>2020-05-30T14:10:10.000Z</time>
      </trkpt>
      <trkpt lat="43.43052" lon="6.51131">
        <ele>63.200000762939</ele>
        <time>2020-05-30T14:10:11.000Z</time>
      </trkpt>
      <trkpt lat="43.43066" lon="6.51136">
        <ele>63.400001525879</ele>
        <time>2020-05-30T14:10:14.000Z</time>
      </trkpt>
      <trkpt lat="43.43079" lon="6.51139">
        <ele>63.400001525879</ele>
        <time>2020-05-30T14:10:17.000Z</time>
      </trkpt>
      <trkpt lat="43.43093" lon="6.51136">
        <ele>63.799999237061</ele>
        <time>2020-05-30T14:10:20.000Z</time>
      </trkpt>
      <trkpt lat="43.43102" lon="6.51132">
        <ele>64.199996948242</ele>
        <time>2020-05-30T14:10:22.000Z</time>
      </trkpt>
      <trkpt lat="43.43135" lon="6.5111">
        <ele>63.400001525879</ele>
        <time>2020-05-30T14:10:28.000Z</time>
      </trkpt>
      <trkpt lat="43.43146" lon="6.51098">
        <ele>62.200000762939</ele>
        <time>2020-05-30T14:10:30.000Z</time>
      </trkpt>
      <trkpt lat="43.43157" lon="6.51085">
        <ele>61</ele>
        <time>2020-05-30T14:10:32.000Z</time>
      </trkpt>
      <trkpt lat="43.43161" lon="6.51076">
        <ele>60.400001525879</ele>
        <time>2020-05-30T14:10:33.000Z</time>
      </trkpt>
      <trkpt lat="43.43163" lon="6.51067">
        <ele>59.799999237061</ele>
        <time>2020-05-30T14:10:34.000Z</time>
      </trkpt>
      <trkpt lat="43.43167" lon="6.5105">
        <ele>59</ele>
        <time>2020-05-30T14:10:36.000Z</time>
      </trkpt>
      <trkpt lat="43.43173" lon="6.51045">
        <ele>57.799999237061</ele>
        <time>2020-05-30T14:10:37.000Z</time>
      </trkpt>
      <trkpt lat="43.4318" lon="6.51043">
        <ele>57.200000762939</ele>
        <time>2020-05-30T14:10:38.000Z</time>
      </trkpt>
      <trkpt lat="43.43191" lon="6.51043">
        <ele>56.400001525879</ele>
        <time>2020-05-30T14:10:40.000Z</time>
      </trkpt>
      <trkpt lat="43.43197" lon="6.51044">
        <ele>56.200000762939</ele>
        <time>2020-05-30T14:10:41.000Z</time>
      </trkpt>
      <trkpt lat="43.43214" lon="6.51046">
        <ele>55.200000762939</ele>
        <time>2020-05-30T14:10:44.000Z</time>
      </trkpt>
      <trkpt lat="43.4322" lon="6.51047">
        <ele>55</ele>
        <time>2020-05-30T14:10:45.000Z</time>
      </trkpt>
      <trkpt lat="43.43249" lon="6.51052">
        <ele>55</ele>
        <time>2020-05-30T14:10:50.000Z</time>
      </trkpt>
      <trkpt lat="43.43261" lon="6.5105">
        <ele>55.200000762939</ele>
        <time>2020-05-30T14:10:52.000Z</time>
      </trkpt>
      <trkpt lat="43.43267" lon="6.51048">
        <ele>55.200000762939</ele>
        <time>2020-05-30T14:10:53.000Z</time>
      </trkpt>
      <trkpt lat="43.43322" lon="6.51027">
        <ele>56</ele>
        <time>2020-05-30T14:11:03.000Z</time>
      </trkpt>
      <trkpt lat="43.43338" lon="6.51023">
        <ele>56.200000762939</ele>
        <time>2020-05-30T14:11:06.000Z</time>
      </trkpt>
      <trkpt lat="43.43354" lon="6.51024">
        <ele>56.400001525879</ele>
        <time>2020-05-30T14:11:09.000Z</time>
      </trkpt>
      <trkpt lat="43.43359" lon="6.51026">
        <ele>56.400001525879</ele>
        <time>2020-05-30T14:11:10.000Z</time>
      </trkpt>
      <trkpt lat="43.43374" lon="6.51032">
        <ele>56.599998474121</ele>
        <time>2020-05-30T14:11:13.000Z</time>
      </trkpt>
      <trkpt lat="43.43388" lon="6.51033">
        <ele>56.799999237061</ele>
        <time>2020-05-30T14:11:16.000Z</time>
      </trkpt>
      <trkpt lat="43.43398" lon="6.51037">
        <ele>57.400001525879</ele>
        <time>2020-05-30T14:11:18.000Z</time>
      </trkpt>
      <trkpt lat="43.43406" lon="6.51043">
        <ele>57.799999237061</ele>
        <time>2020-05-30T14:11:20.000Z</time>
      </trkpt>
      <trkpt lat="43.43415" lon="6.51048">
        <ele>58.200000762939</ele>
        <time>2020-05-30T14:11:22.000Z</time>
      </trkpt>
      <trkpt lat="43.43423" lon="6.51053">
        <ele>58.400001525879</ele>
        <time>2020-05-30T14:11:24.000Z</time>
      </trkpt>
      <trkpt lat="43.4343" lon="6.51055">
        <ele>58.400001525879</ele>
        <time>2020-05-30T14:11:26.000Z</time>
      </trkpt>
      <trkpt lat="43.43461" lon="6.51064">
        <ele>58.799999237061</ele>
        <time>2020-05-30T14:11:32.000Z</time>
      </trkpt>
      <trkpt lat="43.43465" lon="6.51067">
        <ele>59</ele>
        <time>2020-05-30T14:11:33.000Z</time>
      </trkpt>
      <trkpt lat="43.43481" lon="6.51076">
        <ele>59.400001525879</ele>
        <time>2020-05-30T14:11:37.000Z</time>
      </trkpt>
      <trkpt lat="43.4349" lon="6.51078">
        <ele>59.400001525879</ele>
        <time>2020-05-30T14:11:39.000Z</time>
      </trkpt>
      <trkpt lat="43.435" lon="6.51079">
        <ele>59.400001525879</ele>
        <time>2020-05-30T14:11:41.000Z</time>
      </trkpt>
      <trkpt lat="43.43522" lon="6.51079">
        <ele>58.400001525879</ele>
        <time>2020-05-30T14:11:45.000Z</time>
      </trkpt>
      <trkpt lat="43.43527" lon="6.5108">
        <ele>58.200000762939</ele>
        <time>2020-05-30T14:11:46.000Z</time>
      </trkpt>
      <trkpt lat="43.43535" lon="6.51084">
        <ele>57.400001525879</ele>
        <time>2020-05-30T14:11:48.000Z</time>
      </trkpt>
      <trkpt lat="43.43539" lon="6.51087">
        <ele>57.200000762939</ele>
        <time>2020-05-30T14:11:49.000Z</time>
      </trkpt>
      <trkpt lat="43.43542" lon="6.5109">
        <ele>56.799999237061</ele>
        <time>2020-05-30T14:11:50.000Z</time>
      </trkpt>
      <trkpt lat="43.43546" lon="6.51089">
        <ele>56.400001525879</ele>
        <time>2020-05-30T14:11:52.000Z</time>
      </trkpt>
      <trkpt lat="43.43545" lon="6.51087">
        <ele>56</ele>
        <time>2020-05-30T14:11:54.000Z</time>
      </trkpt>
      <trkpt lat="43.43545" lon="6.51086">
        <ele>56</ele>
        <time>2020-05-30T14:12:00.000Z</time>
      </trkpt>
      <trkpt lat="43.43544" lon="6.51084">
        <ele>56</ele>
        <time>2020-05-30T14:12:27.000Z</time>
      </trkpt>
      <trkpt lat="43.43541" lon="6.51082">
        <ele>56</ele>
        <time>2020-05-30T14:12:42.000Z</time>
      </trkpt>
      <trkpt lat="43.43531" lon="6.51077">
        <ele>56.200000762939</ele>
        <time>2020-05-30T14:12:46.000Z</time>
      </trkpt>
      <trkpt lat="43.43509" lon="6.51074">
        <ele>56.599998474121</ele>
        <time>2020-05-30T14:12:52.000Z</time>
      </trkpt>
      <trkpt lat="43.43496" lon="6.51075">
        <ele>57.400001525879</ele>
        <time>2020-05-30T14:12:55.000Z</time>
      </trkpt>
      <trkpt lat="43.43484" lon="6.51073">
        <ele>57.799999237061</ele>
        <time>2020-05-30T14:12:58.000Z</time>
      </trkpt>
      <trkpt lat="43.43476" lon="6.5107">
        <ele>58.200000762939</ele>
        <time>2020-05-30T14:13:00.000Z</time>
      </trkpt>
      <trkpt lat="43.43472" lon="6.51067">
        <ele>58.200000762939</ele>
        <time>2020-05-30T14:13:01.000Z</time>
      </trkpt>
      <trkpt lat="43.43459" lon="6.51059">
        <ele>58.400001525879</ele>
        <time>2020-05-30T14:13:04.000Z</time>
      </trkpt>
      <trkpt lat="43.43449" lon="6.51056">
        <ele>58.400001525879</ele>
        <time>2020-05-30T14:13:06.000Z</time>
      </trkpt>
      <trkpt lat="43.43411" lon="6.51041">
        <ele>58.200000762939</ele>
        <time>2020-05-30T14:13:13.000Z</time>
      </trkpt>
      <trkpt lat="43.43394" lon="6.51032">
        <ele>58.200000762939</ele>
        <time>2020-05-30T14:13:16.000Z</time>
      </trkpt>
      <trkpt lat="43.43382" lon="6.51029">
        <ele>57.799999237061</ele>
        <time>2020-05-30T14:13:18.000Z</time>
      </trkpt>
      <trkpt lat="43.4337" lon="6.51026">
        <ele>57.200000762939</ele>
        <time>2020-05-30T14:13:20.000Z</time>
      </trkpt>
      <trkpt lat="43.43352" lon="6.5102">
        <ele>56.400001525879</ele>
        <time>2020-05-30T14:13:23.000Z</time>
      </trkpt>
      <trkpt lat="43.43346" lon="6.51019">
        <ele>56.200000762939</ele>
        <time>2020-05-30T14:13:24.000Z</time>
      </trkpt>
      <trkpt lat="43.43329" lon="6.5102">
        <ele>56</ele>
        <time>2020-05-30T14:13:27.000Z</time>
      </trkpt>
      <trkpt lat="43.43321" lon="6.51023">
        <ele>56</ele>
        <time>2020-05-30T14:13:28.000Z</time>
      </trkpt>
      <trkpt lat="43.43279" lon="6.5104">
        <ele>55.200000762939</ele>
        <time>2020-05-30T14:13:35.000Z</time>
      </trkpt>
      <trkpt lat="43.43246" lon="6.51047">
        <ele>55</ele>
        <time>2020-05-30T14:13:40.000Z</time>
      </trkpt>
      <trkpt lat="43.43241" lon="6.51047">
        <ele>55</ele>
        <time>2020-05-30T14:13:41.000Z</time>
      </trkpt>
      <trkpt lat="43.43185" lon="6.51038">
        <ele>54.799999237061</ele>
        <time>2020-05-30T14:13:50.000Z</time>
      </trkpt>
      <trkpt lat="43.43175" lon="6.51038">
        <ele>54.799999237061</ele>
        <time>2020-05-30T14:13:52.000Z</time>
      </trkpt>
      <trkpt lat="43.43168" lon="6.51047">
        <ele>54.799999237061</ele>
        <time>2020-05-30T14:13:54.000Z</time>
      </trkpt>
      <trkpt lat="43.43164" lon="6.51064">
        <ele>55.799999237061</ele>
        <time>2020-05-30T14:13:58.000Z</time>
      </trkpt>
      <trkpt lat="43.43163" lon="6.51068">
        <ele>56.400001525879</ele>
        <time>2020-05-30T14:13:59.000Z</time>
      </trkpt>
      <trkpt lat="43.43157" lon="6.51084">
        <ele>57.400001525879</ele>
        <time>2020-05-30T14:14:03.000Z</time>
      </trkpt>
      <trkpt lat="43.43151" lon="6.51089">
        <ele>57.799999237061</ele>
        <time>2020-05-30T14:14:05.000Z</time>
      </trkpt>
      <trkpt lat="43.43145" lon="6.51097">
        <ele>58.200000762939</ele>
        <time>2020-05-30T14:14:07.000Z</time>
      </trkpt>
      <trkpt lat="43.43142" lon="6.511">
        <ele>58.400001525879</ele>
        <time>2020-05-30T14:14:08.000Z</time>
      </trkpt>
      <trkpt lat="43.43136" lon="6.51106">
        <ele>59.599998474121</ele>
        <time>2020-05-30T14:14:10.000Z</time>
      </trkpt>
      <trkpt lat="43.43131" lon="6.51111">
        <ele>60.599998474121</ele>
        <time>2020-05-30T14:14:12.000Z</time>
      </trkpt>
      <trkpt lat="43.4312" lon="6.51119">
        <ele>61.799999237061</ele>
        <time>2020-05-30T14:14:16.000Z</time>
      </trkpt>
      <trkpt lat="43.43117" lon="6.5112">
        <ele>62</ele>
        <time>2020-05-30T14:14:17.000Z</time>
      </trkpt>
      <trkpt lat="43.43108" lon="6.51125">
        <ele>62.799999237061</ele>
        <time>2020-05-30T14:14:20.000Z</time>
      </trkpt>
      <trkpt lat="43.43099" lon="6.51129">
        <ele>63.599998474121</ele>
        <time>2020-05-30T14:14:23.000Z</time>
      </trkpt>
      <trkpt lat="43.43092" lon="6.51132">
        <ele>64</ele>
        <time>2020-05-30T14:14:25.000Z</time>
      </trkpt>
      <trkpt lat="43.43081" lon="6.51133">
        <ele>64.199996948242</ele>
        <time>2020-05-30T14:14:28.000Z</time>
      </trkpt>
      <trkpt lat="43.43072" lon="6.51132">
        <ele>64.199996948242</ele>
        <time>2020-05-30T14:14:30.000Z</time>
      </trkpt>
      <trkpt lat="43.43055" lon="6.51125">
        <ele>63.799999237061</ele>
        <time>2020-05-30T14:14:34.000Z</time>
      </trkpt>
      <trkpt lat="43.43038" lon="6.51115">
        <ele>63.599998474121</ele>
        <time>2020-05-30T14:14:38.000Z</time>
      </trkpt>
      <trkpt lat="43.43035" lon="6.5111">
        <ele>63.599998474121</ele>
        <time>2020-05-30T14:14:39.000Z</time>
      </trkpt>
      <trkpt lat="43.43024" lon="6.51098">
        <ele>63.400001525879</ele>
        <time>2020-05-30T14:14:42.000Z</time>
      </trkpt>
      <trkpt lat="43.4302" lon="6.51098">
        <ele>63.400001525879</ele>
        <time>2020-05-30T14:14:43.000Z</time>
      </trkpt>
      <trkpt lat="43.43009" lon="6.5111">
        <ele>62.799999237061</ele>
        <time>2020-05-30T14:14:46.000Z</time>
      </trkpt>
      <trkpt lat="43.43004" lon="6.5113">
        <ele>62.599998474121</ele>
        <time>2020-05-30T14:14:49.000Z</time>
      </trkpt>
      <trkpt lat="43.43003" lon="6.51136">
        <ele>62.599998474121</ele>
        <time>2020-05-30T14:14:50.000Z</time>
      </trkpt>
      <trkpt lat="43.42994" lon="6.51168">
        <ele>63.400001525879</ele>
        <time>2020-05-30T14:14:56.000Z</time>
      </trkpt>
      <trkpt lat="43.42991" lon="6.51176">
        <ele>64</ele>
        <time>2020-05-30T14:15:00.000Z</time>
      </trkpt>
      <trkpt lat="43.42991" lon="6.51177">
        <ele>64.800003051758</ele>
        <time>2020-05-30T14:15:10.000Z</time>
      </trkpt>
      <trkpt lat="43.4299" lon="6.51179">
        <ele>64.800003051758</ele>
        <time>2020-05-30T14:15:39.000Z</time>
      </trkpt>
      <trkpt lat="43.4299" lon="6.51179">
        <ele>64.599998474121</ele>
        <time>2020-05-30T14:15:47.000Z</time>
      </trkpt>
      <trkpt lat="43.42991" lon="6.51179">
        <ele>64.400001525879</ele>
        <time>2020-05-30T14:16:09.000Z</time>
      </trkpt>
      <trkpt lat="43.42992" lon="6.5118">
        <ele>64.599998474121</ele>
        <time>2020-05-30T14:16:26.000Z</time>
      </trkpt>
      <trkpt lat="43.42994" lon="6.51182">
        <ele>64.800003051758</ele>
        <time>2020-05-30T14:16:47.000Z</time>
      </trkpt>
      <trkpt lat="43.42995" lon="6.51183">
        <ele>65</ele>
        <time>2020-05-30T14:17:05.000Z</time>
      </trkpt>
      <trkpt lat="43.42994" lon="6.51185">
        <ele>64.800003051758</ele>
        <time>2020-05-30T14:17:11.000Z</time>
      </trkpt>
      <trkpt lat="43.42993" lon="6.51186">
        <ele>65</ele>
        <time>2020-05-30T14:17:12.000Z</time>
      </trkpt>
      <trkpt lat="43.42991" lon="6.5119">
        <ele>65</ele>
        <time>2020-05-30T14:17:16.000Z</time>
      </trkpt>
      <trkpt lat="43.4299" lon="6.51192">
        <ele>65.199996948242</ele>
        <time>2020-05-30T14:17:18.000Z</time>
      </trkpt>
      <trkpt lat="43.42983" lon="6.512">
        <ele>65.800003051758</ele>
        <time>2020-05-30T14:17:23.000Z</time>
      </trkpt>
      <trkpt lat="43.4298" lon="6.51205">
        <ele>66</ele>
        <time>2020-05-30T14:17:25.000Z</time>
      </trkpt>
      <trkpt lat="43.4297" lon="6.51214">
        <ele>66.800003051758</ele>
        <time>2020-05-30T14:17:29.000Z</time>
      </trkpt>
      <trkpt lat="43.42964" lon="6.51223">
        <ele>67.400001525879</ele>
        <time>2020-05-30T14:17:31.000Z</time>
      </trkpt>
      <trkpt lat="43.42962" lon="6.51227">
        <ele>67.599998474121</ele>
        <time>2020-05-30T14:17:32.000Z</time>
      </trkpt>
      <trkpt lat="43.42957" lon="6.51237">
        <ele>68.400001525879</ele>
        <time>2020-05-30T14:17:34.000Z</time>
      </trkpt>
      <trkpt lat="43.42955" lon="6.51242">
        <ele>68.599998474121</ele>
        <time>2020-05-30T14:17:35.000Z</time>
      </trkpt>
      <trkpt lat="43.42948" lon="6.51263">
        <ele>69.599998474121</ele>
        <time>2020-05-30T14:17:39.000Z</time>
      </trkpt>
      <trkpt lat="43.42945" lon="6.51271">
        <ele>70.400001525879</ele>
        <time>2020-05-30T14:17:41.000Z</time>
      </trkpt>
      <trkpt lat="43.42943" lon="6.51276">
        <ele>70.800003051758</ele>
        <time>2020-05-30T14:17:42.000Z</time>
      </trkpt>
      <trkpt lat="43.42937" lon="6.51289">
        <ele>72</ele>
        <time>2020-05-30T14:17:45.000Z</time>
      </trkpt>
      <trkpt lat="43.42928" lon="6.51304">
        <ele>73.400001525879</ele>
        <time>2020-05-30T14:17:49.000Z</time>
      </trkpt>
      <trkpt lat="43.42921" lon="6.51315">
        <ele>74.400001525879</ele>
        <time>2020-05-30T14:17:52.000Z</time>
      </trkpt>
      <trkpt lat="43.42913" lon="6.51335">
        <ele>75.400001525879</ele>
        <time>2020-05-30T14:17:57.000Z</time>
      </trkpt>
      <trkpt lat="43.42911" lon="6.51341">
        <ele>75.599998474121</ele>
        <time>2020-05-30T14:17:58.000Z</time>
      </trkpt>
      <trkpt lat="43.42905" lon="6.51359">
        <ele>76.599998474121</ele>
        <time>2020-05-30T14:18:02.000Z</time>
      </trkpt>
      <trkpt lat="43.42901" lon="6.51367">
        <ele>77</ele>
        <time>2020-05-30T14:18:04.000Z</time>
      </trkpt>
      <trkpt lat="43.42896" lon="6.51373">
        <ele>77.599998474121</ele>
        <time>2020-05-30T14:18:06.000Z</time>
      </trkpt>
      <trkpt lat="43.42886" lon="6.51386">
        <ele>78.800003051758</ele>
        <time>2020-05-30T14:18:10.000Z</time>
      </trkpt>
      <trkpt lat="43.42885" lon="6.51388">
        <ele>79</ele>
        <time>2020-05-30T14:18:11.000Z</time>
      </trkpt>
      <trkpt lat="43.42873" lon="6.51406">
        <ele>79.800003051758</ele>
        <time>2020-05-30T14:18:16.000Z</time>
      </trkpt>
      <trkpt lat="43.42868" lon="6.51413">
        <ele>80.199996948242</ele>
        <time>2020-05-30T14:18:18.000Z</time>
      </trkpt>
      <trkpt lat="43.42861" lon="6.51422">
        <ele>81</ele>
        <time>2020-05-30T14:18:21.000Z</time>
      </trkpt>
      <trkpt lat="43.42856" lon="6.5144">
        <ele>82</ele>
        <time>2020-05-30T14:18:25.000Z</time>
      </trkpt>
      <trkpt lat="43.42857" lon="6.5147">
        <ele>82.800003051758</ele>
        <time>2020-05-30T14:18:31.000Z</time>
      </trkpt>
      <trkpt lat="43.42854" lon="6.51479">
        <ele>83.400001525879</ele>
        <time>2020-05-30T14:18:33.000Z</time>
      </trkpt>
      <trkpt lat="43.42847" lon="6.51495">
        <ele>84.400001525879</ele>
        <time>2020-05-30T14:18:37.000Z</time>
      </trkpt>
      <trkpt lat="43.42837" lon="6.51511">
        <ele>85.400001525879</ele>
        <time>2020-05-30T14:18:42.000Z</time>
      </trkpt>
      <trkpt lat="43.42832" lon="6.51515">
        <ele>85.599998474121</ele>
        <time>2020-05-30T14:18:44.000Z</time>
      </trkpt>
      <trkpt lat="43.42823" lon="6.5152">
        <ele>86.599998474121</ele>
        <time>2020-05-30T14:18:47.000Z</time>
      </trkpt>
      <trkpt lat="43.42808" lon="6.51527">
        <ele>87.400001525879</ele>
        <time>2020-05-30T14:18:52.000Z</time>
      </trkpt>
      <trkpt lat="43.42802" lon="6.5153">
        <ele>87.599998474121</ele>
        <time>2020-05-30T14:18:54.000Z</time>
      </trkpt>
      <trkpt lat="43.42793" lon="6.51541">
        <ele>88.400001525879</ele>
        <time>2020-05-30T14:18:58.000Z</time>
      </trkpt>
      <trkpt lat="43.42789" lon="6.51549">
        <ele>88.800003051758</ele>
        <time>2020-05-30T14:19:00.000Z</time>
      </trkpt>
      <trkpt lat="43.42784" lon="6.51567">
        <ele>90</ele>
        <time>2020-05-30T14:19:04.000Z</time>
      </trkpt>
      <trkpt lat="43.42783" lon="6.51586">
        <ele>91.199996948242</ele>
        <time>2020-05-30T14:19:08.000Z</time>
      </trkpt>
      <trkpt lat="43.42784" lon="6.51595">
        <ele>91.599998474121</ele>
        <time>2020-05-30T14:19:10.000Z</time>
      </trkpt>
      <trkpt lat="43.42786" lon="6.51609">
        <ele>92.400001525879</ele>
        <time>2020-05-30T14:19:13.000Z</time>
      </trkpt>
      <trkpt lat="43.42784" lon="6.51623">
        <ele>93.400001525879</ele>
        <time>2020-05-30T14:19:16.000Z</time>
      </trkpt>
      <trkpt lat="43.42772" lon="6.5164">
        <ele>94.599998474121</ele>
        <time>2020-05-30T14:19:21.000Z</time>
      </trkpt>
      <trkpt lat="43.4276" lon="6.5165">
        <ele>95.599998474121</ele>
        <time>2020-05-30T14:19:25.000Z</time>
      </trkpt>
      <trkpt lat="43.42748" lon="6.51659">
        <ele>96.599998474121</ele>
        <time>2020-05-30T14:19:29.000Z</time>
      </trkpt>
      <trkpt lat="43.42745" lon="6.51661">
        <ele>96.800003051758</ele>
        <time>2020-05-30T14:19:30.000Z</time>
      </trkpt>
      <trkpt lat="43.42731" lon="6.51672">
        <ele>97.800003051758</ele>
        <time>2020-05-30T14:19:35.000Z</time>
      </trkpt>
      <trkpt lat="43.42729" lon="6.51675">
        <ele>98</ele>
        <time>2020-05-30T14:19:36.000Z</time>
      </trkpt>
      <trkpt lat="43.42724" lon="6.5169">
        <ele>99</ele>
        <time>2020-05-30T14:19:40.000Z</time>
      </trkpt>
      <trkpt lat="43.42725" lon="6.51694">
        <ele>99.199996948242</ele>
        <time>2020-05-30T14:19:41.000Z</time>
      </trkpt>
      <trkpt lat="43.42731" lon="6.51705">
        <ele>99.400001525879</ele>
        <time>2020-05-30T14:19:44.000Z</time>
      </trkpt>
      <trkpt lat="43.42735" lon="6.51711">
        <ele>99.599998474121</ele>
        <time>2020-05-30T14:19:46.000Z</time>
      </trkpt>
      <trkpt lat="43.42737" lon="6.51715">
        <ele>100</ele>
        <time>2020-05-30T14:19:47.000Z</time>
      </trkpt>
      <trkpt lat="43.42751" lon="6.51741">
        <ele>100.80000305176</ele>
        <time>2020-05-30T14:19:54.000Z</time>
      </trkpt>
      <trkpt lat="43.42753" lon="6.51744">
        <ele>101.19999694824</ele>
        <time>2020-05-30T14:19:55.000Z</time>
      </trkpt>
      <trkpt lat="43.42759" lon="6.51755">
        <ele>102.19999694824</ele>
        <time>2020-05-30T14:19:58.000Z</time>
      </trkpt>
      <trkpt lat="43.42768" lon="6.5177">
        <ele>103.40000152588</ele>
        <time>2020-05-30T14:20:02.000Z</time>
      </trkpt>
      <trkpt lat="43.42771" lon="6.51773">
        <ele>103.80000305176</ele>
        <time>2020-05-30T14:20:03.000Z</time>
      </trkpt>
      <trkpt lat="43.42778" lon="6.51783">
        <ele>104.59999847412</ele>
        <time>2020-05-30T14:20:06.000Z</time>
      </trkpt>
      <trkpt lat="43.4279" lon="6.51799">
        <ele>105.19999694824</ele>
        <time>2020-05-30T14:20:11.000Z</time>
      </trkpt>
      <trkpt lat="43.42795" lon="6.51807">
        <ele>105.80000305176</ele>
        <time>2020-05-30T14:20:13.000Z</time>
      </trkpt>
      <trkpt lat="43.428" lon="6.51819">
        <ele>106.80000305176</ele>
        <time>2020-05-30T14:20:16.000Z</time>
      </trkpt>
      <trkpt lat="43.42801" lon="6.51823">
        <ele>107</ele>
        <time>2020-05-30T14:20:17.000Z</time>
      </trkpt>
      <trkpt lat="43.42806" lon="6.5184">
        <ele>108</ele>
        <time>2020-05-30T14:20:21.000Z</time>
      </trkpt>
      <trkpt lat="43.42806" lon="6.51855">
        <ele>108.59999847412</ele>
        <time>2020-05-30T14:20:24.000Z</time>
      </trkpt>
      <trkpt lat="43.42806" lon="6.51865">
        <ele>109</ele>
        <time>2020-05-30T14:20:26.000Z</time>
      </trkpt>
      <trkpt lat="43.42809" lon="6.5189">
        <ele>110.19999694824</ele>
        <time>2020-05-30T14:20:31.000Z</time>
      </trkpt>
      <trkpt lat="43.42813" lon="6.51903">
        <ele>111.40000152588</ele>
        <time>2020-05-30T14:20:34.000Z</time>
      </trkpt>
      <trkpt lat="43.42818" lon="6.51915">
        <ele>112.19999694824</ele>
        <time>2020-05-30T14:20:37.000Z</time>
      </trkpt>
      <trkpt lat="43.42819" lon="6.51919">
        <ele>112.40000152588</ele>
        <time>2020-05-30T14:20:38.000Z</time>
      </trkpt>
      <trkpt lat="43.4282" lon="6.51942">
        <ele>113.59999847412</ele>
        <time>2020-05-30T14:20:43.000Z</time>
      </trkpt>
      <trkpt lat="43.42818" lon="6.51959">
        <ele>114.59999847412</ele>
        <time>2020-05-30T14:20:47.000Z</time>
      </trkpt>
      <trkpt lat="43.42817" lon="6.51971">
        <ele>115.80000305176</ele>
        <time>2020-05-30T14:20:50.000Z</time>
      </trkpt>
      <trkpt lat="43.42817" lon="6.51975">
        <ele>116.40000152588</ele>
        <time>2020-05-30T14:20:51.000Z</time>
      </trkpt>
      <trkpt lat="43.42818" lon="6.51984">
        <ele>117.19999694824</ele>
        <time>2020-05-30T14:20:53.000Z</time>
      </trkpt>
      <trkpt lat="43.42822" lon="6.51997">
        <ele>117.80000305176</ele>
        <time>2020-05-30T14:20:56.000Z</time>
      </trkpt>
      <trkpt lat="43.42825" lon="6.52006">
        <ele>118.40000152588</ele>
        <time>2020-05-30T14:20:58.000Z</time>
      </trkpt>
      <trkpt lat="43.42829" lon="6.52025">
        <ele>119.59999847412</ele>
        <time>2020-05-30T14:21:02.000Z</time>
      </trkpt>
      <trkpt lat="43.42831" lon="6.52034">
        <ele>120.40000152588</ele>
        <time>2020-05-30T14:21:04.000Z</time>
      </trkpt>
      <trkpt lat="43.42832" lon="6.52039">
        <ele>120.59999847412</ele>
        <time>2020-05-30T14:21:05.000Z</time>
      </trkpt>
      <trkpt lat="43.42837" lon="6.52059">
        <ele>121.80000305176</ele>
        <time>2020-05-30T14:21:09.000Z</time>
      </trkpt>
      <trkpt lat="43.42839" lon="6.52068">
        <ele>122.19999694824</ele>
        <time>2020-05-30T14:21:11.000Z</time>
      </trkpt>
      <trkpt lat="43.42845" lon="6.52083">
        <ele>122.80000305176</ele>
        <time>2020-05-30T14:21:14.000Z</time>
      </trkpt>
      <trkpt lat="43.4285" lon="6.52108">
        <ele>123.59999847412</ele>
        <time>2020-05-30T14:21:19.000Z</time>
      </trkpt>
      <trkpt lat="43.42851" lon="6.52132">
        <ele>124</ele>
        <time>2020-05-30T14:21:24.000Z</time>
      </trkpt>
      <trkpt lat="43.42849" lon="6.52137">
        <ele>124</ele>
        <time>2020-05-30T14:21:25.000Z</time>
      </trkpt>
      <trkpt lat="43.42837" lon="6.52147">
        <ele>125</ele>
        <time>2020-05-30T14:21:29.000Z</time>
      </trkpt>
      <trkpt lat="43.42833" lon="6.52149">
        <ele>125.19999694824</ele>
        <time>2020-05-30T14:21:30.000Z</time>
      </trkpt>
      <trkpt lat="43.42816" lon="6.52157">
        <ele>126.40000152588</ele>
        <time>2020-05-30T14:21:35.000Z</time>
      </trkpt>
      <trkpt lat="43.42788" lon="6.52168">
        <ele>127.40000152588</ele>
        <time>2020-05-30T14:21:43.000Z</time>
      </trkpt>
      <trkpt lat="43.42784" lon="6.52169">
        <ele>127.80000305176</ele>
        <time>2020-05-30T14:21:44.000Z</time>
      </trkpt>
      <trkpt lat="43.42771" lon="6.5217">
        <ele>128.80000305176</ele>
        <time>2020-05-30T14:21:48.000Z</time>
      </trkpt>
      <trkpt lat="43.42764" lon="6.52168">
        <ele>129.19999694824</ele>
        <time>2020-05-30T14:21:50.000Z</time>
      </trkpt>
      <trkpt lat="43.42755" lon="6.52165">
        <ele>129.80000305176</ele>
        <time>2020-05-30T14:21:53.000Z</time>
      </trkpt>
      <trkpt lat="43.42737" lon="6.52156">
        <ele>130</ele>
        <time>2020-05-30T14:21:58.000Z</time>
      </trkpt>
      <trkpt lat="43.42725" lon="6.52153">
        <ele>131</ele>
        <time>2020-05-30T14:22:02.000Z</time>
      </trkpt>
      <trkpt lat="43.42719" lon="6.52153">
        <ele>132.19999694824</ele>
        <time>2020-05-30T14:22:04.000Z</time>
      </trkpt>
      <trkpt lat="43.42709" lon="6.52158">
        <ele>133.60000610352</ele>
        <time>2020-05-30T14:22:07.000Z</time>
      </trkpt>
      <trkpt lat="43.427" lon="6.52164">
        <ele>134.39999389648</ele>
        <time>2020-05-30T14:22:10.000Z</time>
      </trkpt>
      <trkpt lat="43.42695" lon="6.52169">
        <ele>134.60000610352</ele>
        <time>2020-05-30T14:22:12.000Z</time>
      </trkpt>
      <trkpt lat="43.42683" lon="6.52183">
        <ele>135.39999389648</ele>
        <time>2020-05-30T14:22:16.000Z</time>
      </trkpt>
      <trkpt lat="43.42678" lon="6.5219">
        <ele>135.60000610352</ele>
        <time>2020-05-30T14:22:18.000Z</time>
      </trkpt>
      <trkpt lat="43.42668" lon="6.52202">
        <ele>137</ele>
        <time>2020-05-30T14:22:22.000Z</time>
      </trkpt>
      <trkpt lat="43.42663" lon="6.52208">
        <ele>137.80000305176</ele>
        <time>2020-05-30T14:22:24.000Z</time>
      </trkpt>
      <trkpt lat="43.4266" lon="6.5221">
        <ele>138</ele>
        <time>2020-05-30T14:22:25.000Z</time>
      </trkpt>
      <trkpt lat="43.42643" lon="6.52216">
        <ele>138.80000305176</ele>
        <time>2020-05-30T14:22:30.000Z</time>
      </trkpt>
      <trkpt lat="43.42637" lon="6.52216">
        <ele>139.19999694824</ele>
        <time>2020-05-30T14:22:32.000Z</time>
      </trkpt>
      <trkpt lat="43.42624" lon="6.5221">
        <ele>140</ele>
        <time>2020-05-30T14:22:36.000Z</time>
      </trkpt>
      <trkpt lat="43.42621" lon="6.52207">
        <ele>140.19999694824</ele>
        <time>2020-05-30T14:22:37.000Z</time>
      </trkpt>
      <trkpt lat="43.4261" lon="6.52197">
        <ele>141.19999694824</ele>
        <time>2020-05-30T14:22:41.000Z</time>
      </trkpt>
      <trkpt lat="43.42605" lon="6.5219">
        <ele>141.60000610352</ele>
        <time>2020-05-30T14:22:43.000Z</time>
      </trkpt>
      <trkpt lat="43.42601" lon="6.52182">
        <ele>142.19999694824</ele>
        <time>2020-05-30T14:22:45.000Z</time>
      </trkpt>
      <trkpt lat="43.42594" lon="6.52165">
        <ele>143</ele>
        <time>2020-05-30T14:22:49.000Z</time>
      </trkpt>
      <trkpt lat="43.42592" lon="6.52157">
        <ele>143.39999389648</ele>
        <time>2020-05-30T14:22:51.000Z</time>
      </trkpt>
      <trkpt lat="43.4259" lon="6.52141">
        <ele>144.60000610352</ele>
        <time>2020-05-30T14:22:54.000Z</time>
      </trkpt>
      <trkpt lat="43.4259" lon="6.52136">
        <ele>144.80000305176</ele>
        <time>2020-05-30T14:22:55.000Z</time>
      </trkpt>
      <trkpt lat="43.42589" lon="6.52123">
        <ele>145.80000305176</ele>
        <time>2020-05-30T14:22:58.000Z</time>
      </trkpt>
      <trkpt lat="43.42589" lon="6.52107">
        <ele>146.39999389648</ele>
        <time>2020-05-30T14:23:01.000Z</time>
      </trkpt>
      <trkpt lat="43.42589" lon="6.52098">
        <ele>146.80000305176</ele>
        <time>2020-05-30T14:23:03.000Z</time>
      </trkpt>
      <trkpt lat="43.4259" lon="6.5207">
        <ele>147.60000610352</ele>
        <time>2020-05-30T14:23:09.000Z</time>
      </trkpt>
      <trkpt lat="43.4259" lon="6.52065">
        <ele>147.80000305176</ele>
        <time>2020-05-30T14:23:10.000Z</time>
      </trkpt>
      <trkpt lat="43.42589" lon="6.52041">
        <ele>149.19999694824</ele>
        <time>2020-05-30T14:23:15.000Z</time>
      </trkpt>
      <trkpt lat="43.42588" lon="6.52037">
        <ele>149.19999694824</ele>
        <time>2020-05-30T14:23:16.000Z</time>
      </trkpt>
      <trkpt lat="43.42584" lon="6.52023">
        <ele>150.39999389648</ele>
        <time>2020-05-30T14:23:19.000Z</time>
      </trkpt>
      <trkpt lat="43.42579" lon="6.5201">
        <ele>151.19999694824</ele>
        <time>2020-05-30T14:23:22.000Z</time>
      </trkpt>
      <trkpt lat="43.42578" lon="6.52006">
        <ele>151.60000610352</ele>
        <time>2020-05-30T14:23:23.000Z</time>
      </trkpt>
      <trkpt lat="43.42568" lon="6.51993">
        <ele>152.60000610352</ele>
        <time>2020-05-30T14:23:27.000Z</time>
      </trkpt>
      <trkpt lat="43.42565" lon="6.5199">
        <ele>152.80000305176</ele>
        <time>2020-05-30T14:23:28.000Z</time>
      </trkpt>
      <trkpt lat="43.42549" lon="6.51981">
        <ele>153.60000610352</ele>
        <time>2020-05-30T14:23:33.000Z</time>
      </trkpt>
      <trkpt lat="43.42546" lon="6.5198">
        <ele>154</ele>
        <time>2020-05-30T14:23:34.000Z</time>
      </trkpt>
      <trkpt lat="43.42537" lon="6.51974">
        <ele>155</ele>
        <time>2020-05-30T14:23:37.000Z</time>
      </trkpt>
      <trkpt lat="43.42525" lon="6.51969">
        <ele>155.80000305176</ele>
        <time>2020-05-30T14:23:41.000Z</time>
      </trkpt>
      <trkpt lat="43.42519" lon="6.51967">
        <ele>156.19999694824</ele>
        <time>2020-05-30T14:23:43.000Z</time>
      </trkpt>
      <trkpt lat="43.42509" lon="6.51965">
        <ele>156.60000610352</ele>
        <time>2020-05-30T14:23:47.000Z</time>
      </trkpt>
      <trkpt lat="43.42503" lon="6.51965">
        <ele>157.19999694824</ele>
        <time>2020-05-30T14:23:49.000Z</time>
      </trkpt>
      <trkpt lat="43.42489" lon="6.51964">
        <ele>158.19999694824</ele>
        <time>2020-05-30T14:23:54.000Z</time>
      </trkpt>
      <trkpt lat="43.42487" lon="6.51964">
        <ele>158.39999389648</ele>
        <time>2020-05-30T14:23:55.000Z</time>
      </trkpt>
      <trkpt lat="43.42473" lon="6.51965">
        <ele>159.39999389648</ele>
        <time>2020-05-30T14:24:00.000Z</time>
      </trkpt>
      <trkpt lat="43.42467" lon="6.51964">
        <ele>159.60000610352</ele>
        <time>2020-05-30T14:24:02.000Z</time>
      </trkpt>
      <trkpt lat="43.42452" lon="6.51953">
        <ele>160.60000610352</ele>
        <time>2020-05-30T14:24:07.000Z</time>
      </trkpt>
      <trkpt lat="43.42445" lon="6.51941">
        <ele>161.80000305176</ele>
        <time>2020-05-30T14:24:10.000Z</time>
      </trkpt>
      <trkpt lat="43.42444" lon="6.51931">
        <ele>162.80000305176</ele>
        <time>2020-05-30T14:24:12.000Z</time>
      </trkpt>
      <trkpt lat="43.42444" lon="6.51926">
        <ele>163</ele>
        <time>2020-05-30T14:24:13.000Z</time>
      </trkpt>
      <trkpt lat="43.42448" lon="6.51917">
        <ele>163.39999389648</ele>
        <time>2020-05-30T14:24:15.000Z</time>
      </trkpt>
      <trkpt lat="43.4245" lon="6.51913">
        <ele>163.60000610352</ele>
        <time>2020-05-30T14:24:16.000Z</time>
      </trkpt>
      <trkpt lat="43.4246" lon="6.51903">
        <ele>164.19999694824</ele>
        <time>2020-05-30T14:24:19.000Z</time>
      </trkpt>
      <trkpt lat="43.42474" lon="6.5189">
        <ele>165.39999389648</ele>
        <time>2020-05-30T14:24:23.000Z</time>
      </trkpt>
      <trkpt lat="43.42477" lon="6.51885">
        <ele>165.80000305176</ele>
        <time>2020-05-30T14:24:24.000Z</time>
      </trkpt>
      <trkpt lat="43.42493" lon="6.51862">
        <ele>166.39999389648</ele>
        <time>2020-05-30T14:24:29.000Z</time>
      </trkpt>
      <trkpt lat="43.42496" lon="6.51857">
        <ele>166.60000610352</ele>
        <time>2020-05-30T14:24:30.000Z</time>
      </trkpt>
      <trkpt lat="43.4251" lon="6.51828">
        <ele>167.19999694824</ele>
        <time>2020-05-30T14:24:36.000Z</time>
      </trkpt>
      <trkpt lat="43.42518" lon="6.51812">
        <ele>167.80000305176</ele>
        <time>2020-05-30T14:24:40.000Z</time>
      </trkpt>
      <trkpt lat="43.42526" lon="6.5179">
        <ele>168.80000305176</ele>
        <time>2020-05-30T14:24:45.000Z</time>
      </trkpt>
      <trkpt lat="43.42528" lon="6.51785">
        <ele>169</ele>
        <time>2020-05-30T14:24:46.000Z</time>
      </trkpt>
      <trkpt lat="43.42539" lon="6.51757">
        <ele>169.60000610352</ele>
        <time>2020-05-30T14:24:53.000Z</time>
      </trkpt>
      <trkpt lat="43.42553" lon="6.51733">
        <ele>170</ele>
        <time>2020-05-30T14:24:59.000Z</time>
      </trkpt>
      <trkpt lat="43.42556" lon="6.51728">
        <ele>170</ele>
        <time>2020-05-30T14:25:00.000Z</time>
      </trkpt>
      <trkpt lat="43.42573" lon="6.517">
        <ele>170.19999694824</ele>
        <time>2020-05-30T14:25:06.000Z</time>
      </trkpt>
      <trkpt lat="43.42582" lon="6.51682">
        <ele>170.19999694824</ele>
        <time>2020-05-30T14:25:10.000Z</time>
      </trkpt>
      <trkpt lat="43.42585" lon="6.51678">
        <ele>170.19999694824</ele>
        <time>2020-05-30T14:25:11.000Z</time>
      </trkpt>
      <trkpt lat="43.42596" lon="6.51661">
        <ele>170.60000610352</ele>
        <time>2020-05-30T14:25:15.000Z</time>
      </trkpt>
      <trkpt lat="43.42601" lon="6.51647">
        <ele>171.19999694824</ele>
        <time>2020-05-30T14:25:18.000Z</time>
      </trkpt>
      <trkpt lat="43.42602" lon="6.51641">
        <ele>171.19999694824</ele>
        <time>2020-05-30T14:25:19.000Z</time>
      </trkpt>
      <trkpt lat="43.42604" lon="6.51614">
        <ele>171.80000305176</ele>
        <time>2020-05-30T14:25:24.000Z</time>
      </trkpt>
      <trkpt lat="43.42615" lon="6.51595">
        <ele>172</ele>
        <time>2020-05-30T14:25:29.000Z</time>
      </trkpt>
      <trkpt lat="43.42621" lon="6.51588">
        <ele>172.19999694824</ele>
        <time>2020-05-30T14:25:31.000Z</time>
      </trkpt>
      <trkpt lat="43.4263" lon="6.51575">
        <ele>172.39999389648</ele>
        <time>2020-05-30T14:25:34.000Z</time>
      </trkpt>
      <trkpt lat="43.42645" lon="6.51554">
        <ele>172.80000305176</ele>
        <time>2020-05-30T14:25:40.000Z</time>
      </trkpt>
      <trkpt lat="43.4265" lon="6.51542">
        <ele>173.19999694824</ele>
        <time>2020-05-30T14:25:43.000Z</time>
      </trkpt>
      <trkpt lat="43.42652" lon="6.51529">
        <ele>173.60000610352</ele>
        <time>2020-05-30T14:25:46.000Z</time>
      </trkpt>
      <trkpt lat="43.42655" lon="6.51498">
        <ele>174.19999694824</ele>
        <time>2020-05-30T14:25:52.000Z</time>
      </trkpt>
      <trkpt lat="43.42654" lon="6.51487">
        <ele>174.19999694824</ele>
        <time>2020-05-30T14:25:54.000Z</time>
      </trkpt>
      <trkpt lat="43.42649" lon="6.5147">
        <ele>174.39999389648</ele>
        <time>2020-05-30T14:25:58.000Z</time>
      </trkpt>
      <trkpt lat="43.42636" lon="6.51457">
        <ele>174.80000305176</ele>
        <time>2020-05-30T14:26:02.000Z</time>
      </trkpt>
      <trkpt lat="43.42633" lon="6.51444">
        <ele>175</ele>
        <time>2020-05-30T14:26:05.000Z</time>
      </trkpt>
      <trkpt lat="43.42633" lon="6.51439">
        <ele>175.19999694824</ele>
        <time>2020-05-30T14:26:06.000Z</time>
      </trkpt>
      <trkpt lat="43.42639" lon="6.51425">
        <ele>175.39999389648</ele>
        <time>2020-05-30T14:26:09.000Z</time>
      </trkpt>
      <trkpt lat="43.42648" lon="6.51401">
        <ele>175.80000305176</ele>
        <time>2020-05-30T14:26:14.000Z</time>
      </trkpt>
      <trkpt lat="43.42648" lon="6.51389">
        <ele>175.80000305176</ele>
        <time>2020-05-30T14:26:16.000Z</time>
      </trkpt>
      <trkpt lat="43.42649" lon="6.51377">
        <ele>176</ele>
        <time>2020-05-30T14:26:18.000Z</time>
      </trkpt>
      <trkpt lat="43.42651" lon="6.51371">
        <ele>175.80000305176</ele>
        <time>2020-05-30T14:26:19.000Z</time>
      </trkpt>
      <trkpt lat="43.42658" lon="6.51353">
        <ele>175.80000305176</ele>
        <time>2020-05-30T14:26:23.000Z</time>
      </trkpt>
      <trkpt lat="43.42656" lon="6.51342">
        <ele>175.39999389648</ele>
        <time>2020-05-30T14:26:25.000Z</time>
      </trkpt>
      <trkpt lat="43.42656" lon="6.51336">
        <ele>175.39999389648</ele>
        <time>2020-05-30T14:26:26.000Z</time>
      </trkpt>
      <trkpt lat="43.42666" lon="6.51326">
        <ele>174.39999389648</ele>
        <time>2020-05-30T14:26:29.000Z</time>
      </trkpt>
      <trkpt lat="43.42669" lon="6.51324">
        <ele>174.19999694824</ele>
        <time>2020-05-30T14:26:30.000Z</time>
      </trkpt>
      <trkpt lat="43.42682" lon="6.51313">
        <ele>173.60000610352</ele>
        <time>2020-05-30T14:26:34.000Z</time>
      </trkpt>
      <trkpt lat="43.4269" lon="6.51301">
        <ele>173.60000610352</ele>
        <time>2020-05-30T14:26:37.000Z</time>
      </trkpt>
      <trkpt lat="43.42692" lon="6.51296">
        <ele>173.60000610352</ele>
        <time>2020-05-30T14:26:38.000Z</time>
      </trkpt>
      <trkpt lat="43.42698" lon="6.51266">
        <ele>173.60000610352</ele>
        <time>2020-05-30T14:26:44.000Z</time>
      </trkpt>
      <trkpt lat="43.42705" lon="6.51249">
        <ele>173.80000305176</ele>
        <time>2020-05-30T14:26:48.000Z</time>
      </trkpt>
      <trkpt lat="43.42718" lon="6.51237">
        <ele>173.80000305176</ele>
        <time>2020-05-30T14:26:53.000Z</time>
      </trkpt>
      <trkpt lat="43.4273" lon="6.51216">
        <ele>174</ele>
        <time>2020-05-30T14:26:58.000Z</time>
      </trkpt>
      <trkpt lat="43.42748" lon="6.51194">
        <ele>175.19999694824</ele>
        <time>2020-05-30T14:27:05.000Z</time>
      </trkpt>
      <trkpt lat="43.42755" lon="6.51175">
        <ele>176.19999694824</ele>
        <time>2020-05-30T14:27:10.000Z</time>
      </trkpt>
      <trkpt lat="43.42752" lon="6.5116">
        <ele>176.60000610352</ele>
        <time>2020-05-30T14:27:14.000Z</time>
      </trkpt>
      <trkpt lat="43.4275" lon="6.51158">
        <ele>176.80000305176</ele>
        <time>2020-05-30T14:27:15.000Z</time>
      </trkpt>
      <trkpt lat="43.42739" lon="6.51147">
        <ele>177.39999389648</ele>
        <time>2020-05-30T14:27:20.000Z</time>
      </trkpt>
      <trkpt lat="43.42721" lon="6.51139">
        <ele>178.39999389648</ele>
        <time>2020-05-30T14:27:26.000Z</time>
      </trkpt>
      <trkpt lat="43.42718" lon="6.51137">
        <ele>178.60000610352</ele>
        <time>2020-05-30T14:27:27.000Z</time>
      </trkpt>
      <trkpt lat="43.42699" lon="6.51127">
        <ele>179.19999694824</ele>
        <time>2020-05-30T14:27:33.000Z</time>
      </trkpt>
      <trkpt lat="43.42692" lon="6.51122">
        <ele>179.60000610352</ele>
        <time>2020-05-30T14:27:35.000Z</time>
      </trkpt>
      <trkpt lat="43.42676" lon="6.51109">
        <ele>180.39999389648</ele>
        <time>2020-05-30T14:27:40.000Z</time>
      </trkpt>
      <trkpt lat="43.42669" lon="6.51104">
        <ele>180.80000305176</ele>
        <time>2020-05-30T14:27:42.000Z</time>
      </trkpt>
      <trkpt lat="43.42653" lon="6.51094">
        <ele>181.39999389648</ele>
        <time>2020-05-30T14:27:47.000Z</time>
      </trkpt>
      <trkpt lat="43.42647" lon="6.51089">
        <ele>181.80000305176</ele>
        <time>2020-05-30T14:27:49.000Z</time>
      </trkpt>
      <trkpt lat="43.42631" lon="6.51081">
        <ele>182.80000305176</ele>
        <time>2020-05-30T14:27:54.000Z</time>
      </trkpt>
      <trkpt lat="43.42625" lon="6.51081">
        <ele>183</ele>
        <time>2020-05-30T14:27:56.000Z</time>
      </trkpt>
      <trkpt lat="43.42622" lon="6.51083">
        <ele>183.19999694824</ele>
        <time>2020-05-30T14:27:57.000Z</time>
      </trkpt>
      <trkpt lat="43.42616" lon="6.51087">
        <ele>183.60000610352</ele>
        <time>2020-05-30T14:27:59.000Z</time>
      </trkpt>
      <trkpt lat="43.42613" lon="6.51089">
        <ele>184</ele>
        <time>2020-05-30T14:28:00.000Z</time>
      </trkpt>
      <trkpt lat="43.42592" lon="6.51103">
        <ele>184.80000305176</ele>
        <time>2020-05-30T14:28:07.000Z</time>
      </trkpt>
      <trkpt lat="43.42585" lon="6.51109">
        <ele>185.19999694824</ele>
        <time>2020-05-30T14:28:10.000Z</time>
      </trkpt>
      <trkpt lat="43.42575" lon="6.51118">
        <ele>185.60000610352</ele>
        <time>2020-05-30T14:28:14.000Z</time>
      </trkpt>
      <trkpt lat="43.4257" lon="6.51121">
        <ele>186.19999694824</ele>
        <time>2020-05-30T14:28:16.000Z</time>
      </trkpt>
      <trkpt lat="43.4256" lon="6.51122">
        <ele>187</ele>
        <time>2020-05-30T14:28:19.000Z</time>
      </trkpt>
      <trkpt lat="43.42554" lon="6.5112">
        <ele>187.39999389648</ele>
        <time>2020-05-30T14:28:21.000Z</time>
      </trkpt>
      <trkpt lat="43.42552" lon="6.51115">
        <ele>187.39999389648</ele>
        <time>2020-05-30T14:28:22.000Z</time>
      </trkpt>
      <trkpt lat="43.42552" lon="6.51111">
        <ele>187.60000610352</ele>
        <time>2020-05-30T14:28:23.000Z</time>
      </trkpt>
      <trkpt lat="43.42558" lon="6.51099">
        <ele>187.60000610352</ele>
        <time>2020-05-30T14:28:26.000Z</time>
      </trkpt>
      <trkpt lat="43.42561" lon="6.51095">
        <ele>187.60000610352</ele>
        <time>2020-05-30T14:28:27.000Z</time>
      </trkpt>
      <trkpt lat="43.4257" lon="6.51076">
        <ele>187.80000305176</ele>
        <time>2020-05-30T14:28:32.000Z</time>
      </trkpt>
      <trkpt lat="43.42574" lon="6.51064">
        <ele>188.39999389648</ele>
        <time>2020-05-30T14:28:35.000Z</time>
      </trkpt>
      <trkpt lat="43.42576" lon="6.51051">
        <ele>188.80000305176</ele>
        <time>2020-05-30T14:28:38.000Z</time>
      </trkpt>
      <trkpt lat="43.42578" lon="6.51029">
        <ele>189.19999694824</ele>
        <time>2020-05-30T14:28:44.000Z</time>
      </trkpt>
      <trkpt lat="43.4258" lon="6.51025">
        <ele>189.19999694824</ele>
        <time>2020-05-30T14:28:45.000Z</time>
      </trkpt>
      <trkpt lat="43.42582" lon="6.51022">
        <ele>189.60000610352</ele>
        <time>2020-05-30T14:28:46.000Z</time>
      </trkpt>
      <trkpt lat="43.42587" lon="6.51007">
        <ele>190.60000610352</ele>
        <time>2020-05-30T14:28:50.000Z</time>
      </trkpt>
      <trkpt lat="43.42587" lon="6.51004">
        <ele>190.80000305176</ele>
        <time>2020-05-30T14:28:51.000Z</time>
      </trkpt>
      <trkpt lat="43.42586" lon="6.50995">
        <ele>191.39999389648</ele>
        <time>2020-05-30T14:28:55.000Z</time>
      </trkpt>
      <trkpt lat="43.42585" lon="6.50994">
        <ele>191.60000610352</ele>
        <time>2020-05-30T14:28:56.000Z</time>
      </trkpt>
      <trkpt lat="43.42582" lon="6.50991">
        <ele>191.80000305176</ele>
        <time>2020-05-30T14:28:58.000Z</time>
      </trkpt>
      <trkpt lat="43.42575" lon="6.50988">
        <ele>192</ele>
        <time>2020-05-30T14:29:01.000Z</time>
      </trkpt>
      <trkpt lat="43.42562" lon="6.50993">
        <ele>192.60000610352</ele>
        <time>2020-05-30T14:29:06.000Z</time>
      </trkpt>
      <trkpt lat="43.42559" lon="6.50995">
        <ele>192.80000305176</ele>
        <time>2020-05-30T14:29:07.000Z</time>
      </trkpt>
      <trkpt lat="43.42541" lon="6.50999">
        <ele>193.80000305176</ele>
        <time>2020-05-30T14:29:12.000Z</time>
      </trkpt>
      <trkpt lat="43.42537" lon="6.50998">
        <ele>193.80000305176</ele>
        <time>2020-05-30T14:29:13.000Z</time>
      </trkpt>
      <trkpt lat="43.42519" lon="6.50989">
        <ele>194.80000305176</ele>
        <time>2020-05-30T14:29:18.000Z</time>
      </trkpt>
      <trkpt lat="43.42515" lon="6.50987">
        <ele>195</ele>
        <time>2020-05-30T14:29:19.000Z</time>
      </trkpt>
      <trkpt lat="43.42503" lon="6.50985">
        <ele>195.80000305176</ele>
        <time>2020-05-30T14:29:23.000Z</time>
      </trkpt>
      <trkpt lat="43.42497" lon="6.50985">
        <ele>196.19999694824</ele>
        <time>2020-05-30T14:29:25.000Z</time>
      </trkpt>
      <trkpt lat="43.42484" lon="6.50985">
        <ele>196.80000305176</ele>
        <time>2020-05-30T14:29:29.000Z</time>
      </trkpt>
      <trkpt lat="43.42475" lon="6.50982">
        <ele>197.19999694824</ele>
        <time>2020-05-30T14:29:32.000Z</time>
      </trkpt>
      <trkpt lat="43.42465" lon="6.5098">
        <ele>197.80000305176</ele>
        <time>2020-05-30T14:29:35.000Z</time>
      </trkpt>
      <trkpt lat="43.42451" lon="6.50976">
        <ele>198.39999389648</ele>
        <time>2020-05-30T14:29:39.000Z</time>
      </trkpt>
      <trkpt lat="43.42433" lon="6.50971">
        <ele>199.39999389648</ele>
        <time>2020-05-30T14:29:44.000Z</time>
      </trkpt>
      <trkpt lat="43.4243" lon="6.50971">
        <ele>199.60000610352</ele>
        <time>2020-05-30T14:29:45.000Z</time>
      </trkpt>
      <trkpt lat="43.42413" lon="6.5097">
        <ele>200.80000305176</ele>
        <time>2020-05-30T14:29:50.000Z</time>
      </trkpt>
      <trkpt lat="43.42393" lon="6.50977">
        <ele>201.60000610352</ele>
        <time>2020-05-30T14:29:56.000Z</time>
      </trkpt>
      <trkpt lat="43.42387" lon="6.50981">
        <ele>201.80000305176</ele>
        <time>2020-05-30T14:29:58.000Z</time>
      </trkpt>
      <trkpt lat="43.42371" lon="6.50995">
        <ele>202.39999389648</ele>
        <time>2020-05-30T14:30:03.000Z</time>
      </trkpt>
      <trkpt lat="43.4236" lon="6.50991">
        <ele>202.80000305176</ele>
        <time>2020-05-30T14:30:06.000Z</time>
      </trkpt>
      <trkpt lat="43.42357" lon="6.50986">
        <ele>203</ele>
        <time>2020-05-30T14:30:07.000Z</time>
      </trkpt>
      <trkpt lat="43.42356" lon="6.50975">
        <ele>202.80000305176</ele>
        <time>2020-05-30T14:30:09.000Z</time>
      </trkpt>
      <trkpt lat="43.42356" lon="6.50955">
        <ele>202.80000305176</ele>
        <time>2020-05-30T14:30:13.000Z</time>
      </trkpt>
      <trkpt lat="43.42353" lon="6.50947">
        <ele>202.80000305176</ele>
        <time>2020-05-30T14:30:15.000Z</time>
      </trkpt>
      <trkpt lat="43.4234" lon="6.50934">
        <ele>203.19999694824</ele>
        <time>2020-05-30T14:30:20.000Z</time>
      </trkpt>
      <trkpt lat="43.42337" lon="6.50931">
        <ele>203.39999389648</ele>
        <time>2020-05-30T14:30:21.000Z</time>
      </trkpt>
      <trkpt lat="43.4233" lon="6.50918">
        <ele>204</ele>
        <time>2020-05-30T14:30:24.000Z</time>
      </trkpt>
      <trkpt lat="43.4233" lon="6.50913">
        <ele>204</ele>
        <time>2020-05-30T14:30:25.000Z</time>
      </trkpt>
      <trkpt lat="43.42327" lon="6.50894">
        <ele>204.60000610352</ele>
        <time>2020-05-30T14:30:29.000Z</time>
      </trkpt>
      <trkpt lat="43.42321" lon="6.50867">
        <ele>205</ele>
        <time>2020-05-30T14:30:35.000Z</time>
      </trkpt>
      <trkpt lat="43.4232" lon="6.50862">
        <ele>205.19999694824</ele>
        <time>2020-05-30T14:30:36.000Z</time>
      </trkpt>
      <trkpt lat="43.42318" lon="6.50856">
        <ele>205.39999389648</ele>
        <time>2020-05-30T14:30:37.000Z</time>
      </trkpt>
      <trkpt lat="43.42314" lon="6.50846">
        <ele>205.80000305176</ele>
        <time>2020-05-30T14:30:39.000Z</time>
      </trkpt>
      <trkpt lat="43.42312" lon="6.50842">
        <ele>206</ele>
        <time>2020-05-30T14:30:40.000Z</time>
      </trkpt>
      <trkpt lat="43.42303" lon="6.50821">
        <ele>206.19999694824</ele>
        <time>2020-05-30T14:30:45.000Z</time>
      </trkpt>
      <trkpt lat="43.42304" lon="6.50811">
        <ele>206.60000610352</ele>
        <time>2020-05-30T14:30:47.000Z</time>
      </trkpt>
      <trkpt lat="43.42315" lon="6.50804">
        <ele>206.60000610352</ele>
        <time>2020-05-30T14:30:50.000Z</time>
      </trkpt>
      <trkpt lat="43.42321" lon="6.50803">
        <ele>206.60000610352</ele>
        <time>2020-05-30T14:30:52.000Z</time>
      </trkpt>
      <trkpt lat="43.42337" lon="6.50793">
        <ele>206.80000305176</ele>
        <time>2020-05-30T14:30:57.000Z</time>
      </trkpt>
      <trkpt lat="43.42348" lon="6.50772">
        <ele>207</ele>
        <time>2020-05-30T14:31:02.000Z</time>
      </trkpt>
      <trkpt lat="43.42349" lon="6.50755">
        <ele>207.19999694824</ele>
        <time>2020-05-30T14:31:05.000Z</time>
      </trkpt>
      <trkpt lat="43.42348" lon="6.50745">
        <ele>207.39999389648</ele>
        <time>2020-05-30T14:31:07.000Z</time>
      </trkpt>
      <trkpt lat="43.4234" lon="6.50718">
        <ele>208</ele>
        <time>2020-05-30T14:31:13.000Z</time>
      </trkpt>
      <trkpt lat="43.42338" lon="6.50714">
        <ele>208.39999389648</ele>
        <time>2020-05-30T14:31:14.000Z</time>
      </trkpt>
      <trkpt lat="43.42322" lon="6.5069">
        <ele>209.19999694824</ele>
        <time>2020-05-30T14:31:20.000Z</time>
      </trkpt>
      <trkpt lat="43.42318" lon="6.50681">
        <ele>209.39999389648</ele>
        <time>2020-05-30T14:31:22.000Z</time>
      </trkpt>
      <trkpt lat="43.4232" lon="6.50671">
        <ele>209.39999389648</ele>
        <time>2020-05-30T14:31:24.000Z</time>
      </trkpt>
      <trkpt lat="43.42328" lon="6.50652">
        <ele>209.19999694824</ele>
        <time>2020-05-30T14:31:28.000Z</time>
      </trkpt>
      <trkpt lat="43.42329" lon="6.50647">
        <ele>209.19999694824</ele>
        <time>2020-05-30T14:31:29.000Z</time>
      </trkpt>
      <trkpt lat="43.42342" lon="6.50619">
        <ele>210.19999694824</ele>
        <time>2020-05-30T14:31:36.000Z</time>
      </trkpt>
      <trkpt lat="43.42359" lon="6.50611">
        <ele>210.39999389648</ele>
        <time>2020-05-30T14:31:41.000Z</time>
      </trkpt>
      <trkpt lat="43.42365" lon="6.50611">
        <ele>210.39999389648</ele>
        <time>2020-05-30T14:31:43.000Z</time>
      </trkpt>
      <trkpt lat="43.42371" lon="6.50608">
        <ele>210.80000305176</ele>
        <time>2020-05-30T14:31:45.000Z</time>
      </trkpt>
      <trkpt lat="43.42374" lon="6.50607">
        <ele>210.80000305176</ele>
        <time>2020-05-30T14:31:46.000Z</time>
      </trkpt>
      <trkpt lat="43.42382" lon="6.50603">
        <ele>211.19999694824</ele>
        <time>2020-05-30T14:31:48.000Z</time>
      </trkpt>
      <trkpt lat="43.42391" lon="6.50602">
        <ele>211</ele>
        <time>2020-05-30T14:31:50.000Z</time>
      </trkpt>
      <trkpt lat="43.42398" lon="6.50599">
        <ele>210.80000305176</ele>
        <time>2020-05-30T14:31:52.000Z</time>
      </trkpt>
      <trkpt lat="43.42403" lon="6.50599">
        <ele>210.80000305176</ele>
        <time>2020-05-30T14:31:53.000Z</time>
      </trkpt>
      <trkpt lat="43.42411" lon="6.50601">
        <ele>210.80000305176</ele>
        <time>2020-05-30T14:31:55.000Z</time>
      </trkpt>
      <trkpt lat="43.42426" lon="6.50595">
        <ele>210.80000305176</ele>
        <time>2020-05-30T14:31:59.000Z</time>
      </trkpt>
      <trkpt lat="43.42434" lon="6.50583">
        <ele>211</ele>
        <time>2020-05-30T14:32:02.000Z</time>
      </trkpt>
      <trkpt lat="43.4244" lon="6.50574">
        <ele>211.19999694824</ele>
        <time>2020-05-30T14:32:04.000Z</time>
      </trkpt>
      <trkpt lat="43.4244" lon="6.5057">
        <ele>211.39999389648</ele>
        <time>2020-05-30T14:32:05.000Z</time>
      </trkpt>
      <trkpt lat="43.42442" lon="6.50564">
        <ele>211.19999694824</ele>
        <time>2020-05-30T14:32:07.000Z</time>
      </trkpt>
      <trkpt lat="43.42445" lon="6.50557">
        <ele>211.19999694824</ele>
        <time>2020-05-30T14:32:09.000Z</time>
      </trkpt>
      <trkpt lat="43.42446" lon="6.50554">
        <ele>211.19999694824</ele>
        <time>2020-05-30T14:32:10.000Z</time>
      </trkpt>
      <trkpt lat="43.42447" lon="6.5055">
        <ele>211.19999694824</ele>
        <time>2020-05-30T14:32:11.000Z</time>
      </trkpt>
      <trkpt lat="43.42453" lon="6.50532">
        <ele>211.80000305176</ele>
        <time>2020-05-30T14:32:15.000Z</time>
      </trkpt>
      <trkpt lat="43.42455" lon="6.50529">
        <ele>212</ele>
        <time>2020-05-30T14:32:16.000Z</time>
      </trkpt>
      <trkpt lat="43.42467" lon="6.50523">
        <ele>211.80000305176</ele>
        <time>2020-05-30T14:32:19.000Z</time>
      </trkpt>
      <trkpt lat="43.42471" lon="6.50522">
        <ele>211.80000305176</ele>
        <time>2020-05-30T14:32:20.000Z</time>
      </trkpt>
      <trkpt lat="43.42483" lon="6.50511">
        <ele>211.60000610352</ele>
        <time>2020-05-30T14:32:24.000Z</time>
      </trkpt>
      <trkpt lat="43.42499" lon="6.50499">
        <ele>211.39999389648</ele>
        <time>2020-05-30T14:32:29.000Z</time>
      </trkpt>
      <trkpt lat="43.42508" lon="6.50498">
        <ele>211.39999389648</ele>
        <time>2020-05-30T14:32:31.000Z</time>
      </trkpt>
      <trkpt lat="43.4252" lon="6.50498">
        <ele>211.39999389648</ele>
        <time>2020-05-30T14:32:34.000Z</time>
      </trkpt>
      <trkpt lat="43.42523" lon="6.50495">
        <ele>211.39999389648</ele>
        <time>2020-05-30T14:32:35.000Z</time>
      </trkpt>
      <trkpt lat="43.42528" lon="6.50486">
        <ele>211.19999694824</ele>
        <time>2020-05-30T14:32:37.000Z</time>
      </trkpt>
      <trkpt lat="43.42536" lon="6.5047">
        <ele>211</ele>
        <time>2020-05-30T14:32:42.000Z</time>
      </trkpt>
      <trkpt lat="43.42536" lon="6.50469">
        <ele>211.39999389648</ele>
        <time>2020-05-30T14:32:48.000Z</time>
      </trkpt>
      <trkpt lat="43.42539" lon="6.50462">
        <ele>211.19999694824</ele>
        <time>2020-05-30T14:32:57.000Z</time>
      </trkpt>
      <trkpt lat="43.4254" lon="6.50459">
        <ele>211</ele>
        <time>2020-05-30T14:33:01.000Z</time>
      </trkpt>
      <trkpt lat="43.4254" lon="6.50458">
        <ele>211.19999694824</ele>
        <time>2020-05-30T14:33:20.000Z</time>
      </trkpt>
      <trkpt lat="43.42539" lon="6.50458">
        <ele>211.39999389648</ele>
        <time>2020-05-30T14:33:41.000Z</time>
      </trkpt>
      <trkpt lat="43.42539" lon="6.50458">
        <ele>211.39999389648</ele>
        <time>2020-05-30T14:34:05.000Z</time>
      </trkpt>
      <trkpt lat="43.42541" lon="6.50456">
        <ele>211.39999389648</ele>
        <time>2020-05-30T14:34:09.000Z</time>
      </trkpt>
      <trkpt lat="43.42541" lon="6.50456">
        <ele>211.39999389648</ele>
        <time>2020-05-30T14:34:11.000Z</time>
      </trkpt>
      <trkpt lat="43.42543" lon="6.50452">
        <ele>211.39999389648</ele>
        <time>2020-05-30T14:34:16.000Z</time>
      </trkpt>
      <trkpt lat="43.42543" lon="6.50452">
        <ele>211.19999694824</ele>
        <time>2020-05-30T14:34:23.000Z</time>
      </trkpt>
      <trkpt lat="43.42543" lon="6.50454">
        <ele>211.39999389648</ele>
        <time>2020-05-30T14:34:35.000Z</time>
      </trkpt>
      <trkpt lat="43.42543" lon="6.50454">
        <ele>211.39999389648</ele>
        <time>2020-05-30T14:34:36.000Z</time>
      </trkpt>
      <trkpt lat="43.42542" lon="6.50454">
        <ele>211.39999389648</ele>
        <time>2020-05-30T14:34:40.000Z</time>
      </trkpt>
      <trkpt lat="43.42539" lon="6.50457">
        <ele>211.39999389648</ele>
        <time>2020-05-30T14:34:50.000Z</time>
      </trkpt>
      <trkpt lat="43.42535" lon="6.50457">
        <ele>211.80000305176</ele>
        <time>2020-05-30T14:34:54.000Z</time>
      </trkpt>
      <trkpt lat="43.42534" lon="6.50457">
        <ele>213</ele>
        <time>2020-05-30T14:34:57.000Z</time>
      </trkpt>
      <trkpt lat="43.42532" lon="6.50458">
        <ele>213.80000305176</ele>
        <time>2020-05-30T14:35:00.000Z</time>
      </trkpt>
      <trkpt lat="43.4253" lon="6.50463">
        <ele>214.19999694824</ele>
        <time>2020-05-30T14:35:03.000Z</time>
      </trkpt>
      <trkpt lat="43.42527" lon="6.50467">
        <ele>214.19999694824</ele>
        <time>2020-05-30T14:35:05.000Z</time>
      </trkpt>
      <trkpt lat="43.42519" lon="6.50472">
        <ele>214.60000610352</ele>
        <time>2020-05-30T14:35:11.000Z</time>
      </trkpt>
      <trkpt lat="43.42516" lon="6.50474">
        <ele>215.19999694824</ele>
        <time>2020-05-30T14:35:13.000Z</time>
      </trkpt>
      <trkpt lat="43.42509" lon="6.50476">
        <ele>216.19999694824</ele>
        <time>2020-05-30T14:35:17.000Z</time>
      </trkpt>
      <trkpt lat="43.42505" lon="6.50477">
        <ele>216.39999389648</ele>
        <time>2020-05-30T14:35:19.000Z</time>
      </trkpt>
      <trkpt lat="43.42498" lon="6.50481">
        <ele>217.19999694824</ele>
        <time>2020-05-30T14:35:23.000Z</time>
      </trkpt>
      <trkpt lat="43.42494" lon="6.50485">
        <ele>217.39999389648</ele>
        <time>2020-05-30T14:35:25.000Z</time>
      </trkpt>
      <trkpt lat="43.42483" lon="6.5049">
        <ele>216.19999694824</ele>
        <time>2020-05-30T14:35:30.000Z</time>
      </trkpt>
      <trkpt lat="43.42481" lon="6.50491">
        <ele>216.19999694824</ele>
        <time>2020-05-30T14:35:31.000Z</time>
      </trkpt>
      <trkpt lat="43.4248" lon="6.50492">
        <ele>216.19999694824</ele>
        <time>2020-05-30T14:35:32.000Z</time>
      </trkpt>
      <trkpt lat="43.42477" lon="6.50497">
        <ele>216.80000305176</ele>
        <time>2020-05-30T14:35:34.000Z</time>
      </trkpt>
      <trkpt lat="43.42471" lon="6.505">
        <ele>217.19999694824</ele>
        <time>2020-05-30T14:35:37.000Z</time>
      </trkpt>
      <trkpt lat="43.42468" lon="6.505">
        <ele>217.39999389648</ele>
        <time>2020-05-30T14:35:39.000Z</time>
      </trkpt>
      <trkpt lat="43.42458" lon="6.50505">
        <ele>218</ele>
        <time>2020-05-30T14:35:43.000Z</time>
      </trkpt>
      <trkpt lat="43.42453" lon="6.50508">
        <ele>217.80000305176</ele>
        <time>2020-05-30T14:35:46.000Z</time>
      </trkpt>
      <trkpt lat="43.42451" lon="6.50509">
        <ele>217.80000305176</ele>
        <time>2020-05-30T14:35:48.000Z</time>
      </trkpt>
      <trkpt lat="43.42447" lon="6.5051">
        <ele>218.19999694824</ele>
        <time>2020-05-30T14:35:50.000Z</time>
      </trkpt>
      <trkpt lat="43.42446" lon="6.50511">
        <ele>218.39999389648</ele>
        <time>2020-05-30T14:35:51.000Z</time>
      </trkpt>
      <trkpt lat="43.42442" lon="6.50526">
        <ele>218.19999694824</ele>
        <time>2020-05-30T14:35:55.000Z</time>
      </trkpt>
      <trkpt lat="43.4244" lon="6.50528">
        <ele>218</ele>
        <time>2020-05-30T14:35:56.000Z</time>
      </trkpt>
      <trkpt lat="43.42437" lon="6.5053">
        <ele>218</ele>
        <time>2020-05-30T14:35:58.000Z</time>
      </trkpt>
      <trkpt lat="43.42437" lon="6.5053">
        <ele>217.80000305176</ele>
        <time>2020-05-30T14:36:02.000Z</time>
      </trkpt>
      <trkpt lat="43.42435" lon="6.50533">
        <ele>218.19999694824</ele>
        <time>2020-05-30T14:36:09.000Z</time>
      </trkpt>
      <trkpt lat="43.42435" lon="6.50533">
        <ele>218.19999694824</ele>
        <time>2020-05-30T14:36:10.000Z</time>
      </trkpt>
      <trkpt lat="43.4243" lon="6.50541">
        <ele>218.39999389648</ele>
        <time>2020-05-30T14:36:14.000Z</time>
      </trkpt>
      <trkpt lat="43.4243" lon="6.50543">
        <ele>218.60000610352</ele>
        <time>2020-05-30T14:36:15.000Z</time>
      </trkpt>
      <trkpt lat="43.42427" lon="6.5055">
        <ele>219.39999389648</ele>
        <time>2020-05-30T14:36:18.000Z</time>
      </trkpt>
      <trkpt lat="43.42422" lon="6.50554">
        <ele>220.19999694824</ele>
        <time>2020-05-30T14:36:21.000Z</time>
      </trkpt>
      <trkpt lat="43.42419" lon="6.50558">
        <ele>220.60000610352</ele>
        <time>2020-05-30T14:36:23.000Z</time>
      </trkpt>
      <trkpt lat="43.42413" lon="6.50561">
        <ele>221.19999694824</ele>
        <time>2020-05-30T14:36:26.000Z</time>
      </trkpt>
      <trkpt lat="43.42409" lon="6.5056">
        <ele>221.39999389648</ele>
        <time>2020-05-30T14:36:29.000Z</time>
      </trkpt>
      <trkpt lat="43.42406" lon="6.50558">
        <ele>221.60000610352</ele>
        <time>2020-05-30T14:36:31.000Z</time>
      </trkpt>
      <trkpt lat="43.42399" lon="6.50556">
        <ele>223</ele>
        <time>2020-05-30T14:36:36.000Z</time>
      </trkpt>
      <trkpt lat="43.42399" lon="6.50556">
        <ele>224.19999694824</ele>
        <time>2020-05-30T14:36:38.000Z</time>
      </trkpt>
      <trkpt lat="43.42399" lon="6.50555">
        <ele>224.80000305176</ele>
        <time>2020-05-30T14:36:40.000Z</time>
      </trkpt>
      <trkpt lat="43.42397" lon="6.50554">
        <ele>225.19999694824</ele>
        <time>2020-05-30T14:36:45.000Z</time>
      </trkpt>
      <trkpt lat="43.42397" lon="6.50554">
        <ele>225.39999389648</ele>
        <time>2020-05-30T14:36:48.000Z</time>
      </trkpt>
      <trkpt lat="43.42395" lon="6.50554">
        <ele>225.80000305176</ele>
        <time>2020-05-30T14:36:56.000Z</time>
      </trkpt>
      <trkpt lat="43.42394" lon="6.50554">
        <ele>226.19999694824</ele>
        <time>2020-05-30T14:37:02.000Z</time>
      </trkpt>
      <trkpt lat="43.42394" lon="6.50554">
        <ele>226.19999694824</ele>
        <time>2020-05-30T14:37:03.000Z</time>
      </trkpt>
      <trkpt lat="43.42392" lon="6.50554">
        <ele>226.80000305176</ele>
        <time>2020-05-30T14:37:09.000Z</time>
      </trkpt>
      <trkpt lat="43.42385" lon="6.5055">
        <ele>227.19999694824</ele>
        <time>2020-05-30T14:37:13.000Z</time>
      </trkpt>
      <trkpt lat="43.42377" lon="6.50549">
        <ele>228.39999389648</ele>
        <time>2020-05-30T14:37:17.000Z</time>
      </trkpt>
      <trkpt lat="43.42372" lon="6.50547">
        <ele>228.60000610352</ele>
        <time>2020-05-30T14:37:20.000Z</time>
      </trkpt>
      <trkpt lat="43.42371" lon="6.50546">
        <ele>229.19999694824</ele>
        <time>2020-05-30T14:37:24.000Z</time>
      </trkpt>
      <trkpt lat="43.42368" lon="6.50545">
        <ele>229.39999389648</ele>
        <time>2020-05-30T14:37:28.000Z</time>
      </trkpt>
      <trkpt lat="43.42367" lon="6.50545">
        <ele>229.60000610352</ele>
        <time>2020-05-30T14:37:29.000Z</time>
      </trkpt>
      <trkpt lat="43.42358" lon="6.50541">
        <ele>230.39999389648</ele>
        <time>2020-05-30T14:37:33.000Z</time>
      </trkpt>
      <trkpt lat="43.42352" lon="6.50534">
        <ele>230.19999694824</ele>
        <time>2020-05-30T14:37:38.000Z</time>
      </trkpt>
      <trkpt lat="43.4235" lon="6.50534">
        <ele>230.60000610352</ele>
        <time>2020-05-30T14:37:39.000Z</time>
      </trkpt>
      <trkpt lat="43.42346" lon="6.50534">
        <ele>231.60000610352</ele>
        <time>2020-05-30T14:37:43.000Z</time>
      </trkpt>
      <trkpt lat="43.42346" lon="6.50534">
        <ele>231.80000305176</ele>
        <time>2020-05-30T14:37:50.000Z</time>
      </trkpt>
      <trkpt lat="43.42346" lon="6.50534">
        <ele>231.60000610352</ele>
        <time>2020-05-30T14:38:07.000Z</time>
      </trkpt>
      <trkpt lat="43.42349" lon="6.50533">
        <ele>231.60000610352</ele>
        <time>2020-05-30T14:38:13.000Z</time>
      </trkpt>
      <trkpt lat="43.42351" lon="6.50532">
        <ele>231.39999389648</ele>
        <time>2020-05-30T14:38:17.000Z</time>
      </trkpt>
      <trkpt lat="43.42352" lon="6.5053">
        <ele>231.39999389648</ele>
        <time>2020-05-30T14:38:25.000Z</time>
      </trkpt>
      <trkpt lat="43.42352" lon="6.5053">
        <ele>231.19999694824</ele>
        <time>2020-05-30T14:38:51.000Z</time>
      </trkpt>
      <trkpt lat="43.4235" lon="6.50532">
        <ele>231.60000610352</ele>
        <time>2020-05-30T14:38:58.000Z</time>
      </trkpt>
      <trkpt lat="43.4235" lon="6.50532">
        <ele>231.19999694824</ele>
        <time>2020-05-30T14:39:06.000Z</time>
      </trkpt>
      <trkpt lat="43.4235" lon="6.50532">
        <ele>231.19999694824</ele>
        <time>2020-05-30T14:39:13.000Z</time>
      </trkpt>
      <trkpt lat="43.42349" lon="6.50533">
        <ele>231.39999389648</ele>
        <time>2020-05-30T14:39:19.000Z</time>
      </trkpt>
      <trkpt lat="43.42349" lon="6.50534">
        <ele>231.39999389648</ele>
        <time>2020-05-30T14:39:29.000Z</time>
      </trkpt>
      <trkpt lat="43.42349" lon="6.50534">
        <ele>230.80000305176</ele>
        <time>2020-05-30T14:39:38.000Z</time>
      </trkpt>
      <trkpt lat="43.42349" lon="6.50534">
        <ele>230.80000305176</ele>
        <time>2020-05-30T14:39:51.000Z</time>
      </trkpt>
      <trkpt lat="43.42349" lon="6.50535">
        <ele>231</ele>
        <time>2020-05-30T14:40:00.000Z</time>
      </trkpt>
      <trkpt lat="43.42349" lon="6.50535">
        <ele>231</ele>
        <time>2020-05-30T14:40:11.000Z</time>
      </trkpt>
      <trkpt lat="43.42348" lon="6.50535">
        <ele>231.19999694824</ele>
        <time>2020-05-30T14:40:16.000Z</time>
      </trkpt>
      <trkpt lat="43.42348" lon="6.50534">
        <ele>231.39999389648</ele>
        <time>2020-05-30T14:40:25.000Z</time>
      </trkpt>
      <trkpt lat="43.42347" lon="6.50535">
        <ele>231.39999389648</ele>
        <time>2020-05-30T14:40:31.000Z</time>
      </trkpt>
      <trkpt lat="43.4234" lon="6.50538">
        <ele>231.19999694824</ele>
        <time>2020-05-30T14:40:36.000Z</time>
      </trkpt>
      <trkpt lat="43.42324" lon="6.50546">
        <ele>231.80000305176</ele>
        <time>2020-05-30T14:40:46.000Z</time>
      </trkpt>
      <trkpt lat="43.42306" lon="6.50553">
        <ele>232.39999389648</ele>
        <time>2020-05-30T14:40:56.000Z</time>
      </trkpt>
      <trkpt lat="43.42302" lon="6.50554">
        <ele>232.60000610352</ele>
        <time>2020-05-30T14:40:58.000Z</time>
      </trkpt>
      <trkpt lat="43.42296" lon="6.50556">
        <ele>233.80000305176</ele>
        <time>2020-05-30T14:41:02.000Z</time>
      </trkpt>
      <trkpt lat="43.42293" lon="6.50558">
        <ele>234.39999389648</ele>
        <time>2020-05-30T14:41:04.000Z</time>
      </trkpt>
      <trkpt lat="43.4229" lon="6.5056">
        <ele>234.80000305176</ele>
        <time>2020-05-30T14:41:06.000Z</time>
      </trkpt>
      <trkpt lat="43.42283" lon="6.50565">
        <ele>236</ele>
        <time>2020-05-30T14:41:11.000Z</time>
      </trkpt>
      <trkpt lat="43.42281" lon="6.50566">
        <ele>236.19999694824</ele>
        <time>2020-05-30T14:41:12.000Z</time>
      </trkpt>
      <trkpt lat="43.42273" lon="6.50573">
        <ele>237</ele>
        <time>2020-05-30T14:41:18.000Z</time>
      </trkpt>
      <trkpt lat="43.42271" lon="6.50574">
        <ele>237.39999389648</ele>
        <time>2020-05-30T14:41:19.000Z</time>
      </trkpt>
      <trkpt lat="43.42264" lon="6.50581">
        <ele>238.19999694824</ele>
        <time>2020-05-30T14:41:24.000Z</time>
      </trkpt>
      <trkpt lat="43.42258" lon="6.50584">
        <ele>239</ele>
        <time>2020-05-30T14:41:28.000Z</time>
      </trkpt>
      <trkpt lat="43.42255" lon="6.50585">
        <ele>239.39999389648</ele>
        <time>2020-05-30T14:41:30.000Z</time>
      </trkpt>
      <trkpt lat="43.4225" lon="6.5059">
        <ele>240</ele>
        <time>2020-05-30T14:41:34.000Z</time>
      </trkpt>
      <trkpt lat="43.42248" lon="6.50592">
        <ele>240.60000610352</ele>
        <time>2020-05-30T14:41:36.000Z</time>
      </trkpt>
      <trkpt lat="43.42244" lon="6.50597">
        <ele>241.60000610352</ele>
        <time>2020-05-30T14:41:39.000Z</time>
      </trkpt>
      <trkpt lat="43.42243" lon="6.50598">
        <ele>242</ele>
        <time>2020-05-30T14:41:40.000Z</time>
      </trkpt>
      <trkpt lat="43.4224" lon="6.50596">
        <ele>242.80000305176</ele>
        <time>2020-05-30T14:41:42.000Z</time>
      </trkpt>
      <trkpt lat="43.42237" lon="6.50596">
        <ele>243.80000305176</ele>
        <time>2020-05-30T14:41:45.000Z</time>
      </trkpt>
      <trkpt lat="43.42238" lon="6.50596">
        <ele>243.80000305176</ele>
        <time>2020-05-30T14:41:47.000Z</time>
      </trkpt>
      <trkpt lat="43.42237" lon="6.50596">
        <ele>244</ele>
        <time>2020-05-30T14:41:51.000Z</time>
      </trkpt>
      <trkpt lat="43.42236" lon="6.50597">
        <ele>244.19999694824</ele>
        <time>2020-05-30T14:42:08.000Z</time>
      </trkpt>
      <trkpt lat="43.42235" lon="6.50598">
        <ele>244.19999694824</ele>
        <time>2020-05-30T14:42:16.000Z</time>
      </trkpt>
      <trkpt lat="43.42226" lon="6.50599">
        <ele>244.80000305176</ele>
        <time>2020-05-30T14:42:23.000Z</time>
      </trkpt>
      <trkpt lat="43.42225" lon="6.50599">
        <ele>245</ele>
        <time>2020-05-30T14:42:24.000Z</time>
      </trkpt>
      <trkpt lat="43.42215" lon="6.506">
        <ele>246</ele>
        <time>2020-05-30T14:42:31.000Z</time>
      </trkpt>
      <trkpt lat="43.42208" lon="6.50602">
        <ele>247</ele>
        <time>2020-05-30T14:42:37.000Z</time>
      </trkpt>
      <trkpt lat="43.42206" lon="6.50603">
        <ele>247.19999694824</ele>
        <time>2020-05-30T14:42:39.000Z</time>
      </trkpt>
      <trkpt lat="43.42199" lon="6.50605">
        <ele>248</ele>
        <time>2020-05-30T14:42:45.000Z</time>
      </trkpt>
      <trkpt lat="43.42196" lon="6.50605">
        <ele>248.19999694824</ele>
        <time>2020-05-30T14:42:47.000Z</time>
      </trkpt>
      <trkpt lat="43.42187" lon="6.50605">
        <ele>249</ele>
        <time>2020-05-30T14:42:52.000Z</time>
      </trkpt>
      <trkpt lat="43.42186" lon="6.50604">
        <ele>249.39999389648</ele>
        <time>2020-05-30T14:42:53.000Z</time>
      </trkpt>
      <trkpt lat="43.4218" lon="6.50603">
        <ele>250.80000305176</ele>
        <time>2020-05-30T14:42:56.000Z</time>
      </trkpt>
      <trkpt lat="43.42178" lon="6.50602">
        <ele>251.60000610352</ele>
        <time>2020-05-30T14:42:58.000Z</time>
      </trkpt>
      <trkpt lat="43.42175" lon="6.506">
        <ele>252.19999694824</ele>
        <time>2020-05-30T14:43:00.000Z</time>
      </trkpt>
      <trkpt lat="43.42172" lon="6.50598">
        <ele>252.80000305176</ele>
        <time>2020-05-30T14:43:03.000Z</time>
      </trkpt>
      <trkpt lat="43.42169" lon="6.50597">
        <ele>253.19999694824</ele>
        <time>2020-05-30T14:43:05.000Z</time>
      </trkpt>
      <trkpt lat="43.42165" lon="6.506">
        <ele>254.19999694824</ele>
        <time>2020-05-30T14:43:08.000Z</time>
      </trkpt>
      <trkpt lat="43.42163" lon="6.506">
        <ele>254.39999389648</ele>
        <time>2020-05-30T14:43:09.000Z</time>
      </trkpt>
      <trkpt lat="43.4216" lon="6.50599">
        <ele>255.60000610352</ele>
        <time>2020-05-30T14:43:12.000Z</time>
      </trkpt>
      <trkpt lat="43.42157" lon="6.50598">
        <ele>256.20001220703</ele>
        <time>2020-05-30T14:43:14.000Z</time>
      </trkpt>
      <trkpt lat="43.42152" lon="6.50597">
        <ele>256.60000610352</ele>
        <time>2020-05-30T14:43:17.000Z</time>
      </trkpt>
      <trkpt lat="43.42149" lon="6.50596">
        <ele>257</ele>
        <time>2020-05-30T14:43:20.000Z</time>
      </trkpt>
      <trkpt lat="43.42145" lon="6.50593">
        <ele>258</ele>
        <time>2020-05-30T14:43:23.000Z</time>
      </trkpt>
      <trkpt lat="43.4214" lon="6.50593">
        <ele>259</ele>
        <time>2020-05-30T14:43:27.000Z</time>
      </trkpt>
      <trkpt lat="43.42138" lon="6.50593">
        <ele>259.39999389648</ele>
        <time>2020-05-30T14:43:28.000Z</time>
      </trkpt>
      <trkpt lat="43.42135" lon="6.50592">
        <ele>260</ele>
        <time>2020-05-30T14:43:30.000Z</time>
      </trkpt>
      <trkpt lat="43.42131" lon="6.5059">
        <ele>261.20001220703</ele>
        <time>2020-05-30T14:43:33.000Z</time>
      </trkpt>
      <trkpt lat="43.42129" lon="6.50589">
        <ele>262.39999389648</ele>
        <time>2020-05-30T14:43:38.000Z</time>
      </trkpt>
      <trkpt lat="43.42129" lon="6.50589">
        <ele>263.60000610352</ele>
        <time>2020-05-30T14:43:43.000Z</time>
      </trkpt>
      <trkpt lat="43.42127" lon="6.5059">
        <ele>263.39999389648</ele>
        <time>2020-05-30T14:43:54.000Z</time>
      </trkpt>
      <trkpt lat="43.42126" lon="6.5059">
        <ele>264.20001220703</ele>
        <time>2020-05-30T14:44:02.000Z</time>
      </trkpt>
      <trkpt lat="43.42124" lon="6.5059">
        <ele>264.60000610352</ele>
        <time>2020-05-30T14:44:06.000Z</time>
      </trkpt>
      <trkpt lat="43.42123" lon="6.5059">
        <ele>264.60000610352</ele>
        <time>2020-05-30T14:44:10.000Z</time>
      </trkpt>
      <trkpt lat="43.42121" lon="6.5059">
        <ele>264.79998779297</ele>
        <time>2020-05-30T14:44:14.000Z</time>
      </trkpt>
      <trkpt lat="43.42122" lon="6.50589">
        <ele>265</ele>
        <time>2020-05-30T14:44:15.000Z</time>
      </trkpt>
      <trkpt lat="43.42122" lon="6.50589">
        <ele>265.20001220703</ele>
        <time>2020-05-30T14:44:18.000Z</time>
      </trkpt>
      <trkpt lat="43.42121" lon="6.50591">
        <ele>265.20001220703</ele>
        <time>2020-05-30T14:44:28.000Z</time>
      </trkpt>
      <trkpt lat="43.42117" lon="6.50595">
        <ele>265.60000610352</ele>
        <time>2020-05-30T14:44:34.000Z</time>
      </trkpt>
      <trkpt lat="43.42116" lon="6.50596">
        <ele>265.79998779297</ele>
        <time>2020-05-30T14:44:35.000Z</time>
      </trkpt>
      <trkpt lat="43.42113" lon="6.50599">
        <ele>266.79998779297</ele>
        <time>2020-05-30T14:44:38.000Z</time>
      </trkpt>
      <trkpt lat="43.42112" lon="6.506">
        <ele>267.79998779297</ele>
        <time>2020-05-30T14:44:40.000Z</time>
      </trkpt>
      <trkpt lat="43.42111" lon="6.506">
        <ele>268.20001220703</ele>
        <time>2020-05-30T14:44:41.000Z</time>
      </trkpt>
      <trkpt lat="43.42104" lon="6.50598">
        <ele>269.20001220703</ele>
        <time>2020-05-30T14:44:45.000Z</time>
      </trkpt>
      <trkpt lat="43.42102" lon="6.50598">
        <ele>269.39999389648</ele>
        <time>2020-05-30T14:44:46.000Z</time>
      </trkpt>
      <trkpt lat="43.42096" lon="6.506">
        <ele>269.79998779297</ele>
        <time>2020-05-30T14:44:50.000Z</time>
      </trkpt>
      <trkpt lat="43.42095" lon="6.50602">
        <ele>269.79998779297</ele>
        <time>2020-05-30T14:44:51.000Z</time>
      </trkpt>
      <trkpt lat="43.42091" lon="6.50611">
        <ele>270.39999389648</ele>
        <time>2020-05-30T14:44:55.000Z</time>
      </trkpt>
      <trkpt lat="43.42089" lon="6.50613">
        <ele>270.60000610352</ele>
        <time>2020-05-30T14:44:56.000Z</time>
      </trkpt>
      <trkpt lat="43.42087" lon="6.50618">
        <ele>271.20001220703</ele>
        <time>2020-05-30T14:44:59.000Z</time>
      </trkpt>
      <trkpt lat="43.42084" lon="6.50624">
        <ele>271.79998779297</ele>
        <time>2020-05-30T14:45:02.000Z</time>
      </trkpt>
      <trkpt lat="43.42083" lon="6.50628">
        <ele>272</ele>
        <time>2020-05-30T14:45:04.000Z</time>
      </trkpt>
      <trkpt lat="43.42078" lon="6.50631">
        <ele>272.79998779297</ele>
        <time>2020-05-30T14:45:09.000Z</time>
      </trkpt>
      <trkpt lat="43.42077" lon="6.50631">
        <ele>273</ele>
        <time>2020-05-30T14:45:10.000Z</time>
      </trkpt>
      <trkpt lat="43.42078" lon="6.50631">
        <ele>273.39999389648</ele>
        <time>2020-05-30T14:45:14.000Z</time>
      </trkpt>
      <trkpt lat="43.42078" lon="6.50632">
        <ele>273.20001220703</ele>
        <time>2020-05-30T14:45:25.000Z</time>
      </trkpt>
      <trkpt lat="43.42077" lon="6.50632">
        <ele>273.79998779297</ele>
        <time>2020-05-30T14:45:34.000Z</time>
      </trkpt>
      <trkpt lat="43.42077" lon="6.50632">
        <ele>274</ele>
        <time>2020-05-30T14:45:36.000Z</time>
      </trkpt>
      <trkpt lat="43.42077" lon="6.50631">
        <ele>273.79998779297</ele>
        <time>2020-05-30T14:45:44.000Z</time>
      </trkpt>
      <trkpt lat="43.42077" lon="6.50631">
        <ele>273.79998779297</ele>
        <time>2020-05-30T14:46:09.000Z</time>
      </trkpt>
      <trkpt lat="43.42073" lon="6.50627">
        <ele>273.60000610352</ele>
        <time>2020-05-30T14:46:16.000Z</time>
      </trkpt>
      <trkpt lat="43.42067" lon="6.50621">
        <ele>273</ele>
        <time>2020-05-30T14:46:22.000Z</time>
      </trkpt>
      <trkpt lat="43.42065" lon="6.50621">
        <ele>272.79998779297</ele>
        <time>2020-05-30T14:46:23.000Z</time>
      </trkpt>
      <trkpt lat="43.42059" lon="6.50623">
        <ele>272.20001220703</ele>
        <time>2020-05-30T14:46:27.000Z</time>
      </trkpt>
      <trkpt lat="43.42057" lon="6.50623">
        <ele>272.20001220703</ele>
        <time>2020-05-30T14:46:28.000Z</time>
      </trkpt>
      <trkpt lat="43.42046" lon="6.5062">
        <ele>272.60000610352</ele>
        <time>2020-05-30T14:46:34.000Z</time>
      </trkpt>
      <trkpt lat="43.42035" lon="6.50618">
        <ele>271.79998779297</ele>
        <time>2020-05-30T14:46:41.000Z</time>
      </trkpt>
      <trkpt lat="43.42035" lon="6.50618">
        <ele>271.79998779297</ele>
        <time>2020-05-30T14:46:49.000Z</time>
      </trkpt>
      <trkpt lat="43.42034" lon="6.50618">
        <ele>272.39999389648</ele>
        <time>2020-05-30T14:47:08.000Z</time>
      </trkpt>
      <trkpt lat="43.42034" lon="6.50619">
        <ele>272.39999389648</ele>
        <time>2020-05-30T14:47:22.000Z</time>
      </trkpt>
      <trkpt lat="43.42032" lon="6.50618">
        <ele>272.20001220703</ele>
        <time>2020-05-30T14:47:38.000Z</time>
      </trkpt>
      <trkpt lat="43.42025" lon="6.50611">
        <ele>272</ele>
        <time>2020-05-30T14:47:43.000Z</time>
      </trkpt>
      <trkpt lat="43.42017" lon="6.50612">
        <ele>271.20001220703</ele>
        <time>2020-05-30T14:47:46.000Z</time>
      </trkpt>
      <trkpt lat="43.4201" lon="6.50613">
        <ele>270.79998779297</ele>
        <time>2020-05-30T14:47:48.000Z</time>
      </trkpt>
      <trkpt lat="43.42003" lon="6.50614">
        <ele>269.20001220703</ele>
        <time>2020-05-30T14:47:51.000Z</time>
      </trkpt>
      <trkpt lat="43.41998" lon="6.50616">
        <ele>268</ele>
        <time>2020-05-30T14:47:53.000Z</time>
      </trkpt>
      <trkpt lat="43.41989" lon="6.50619">
        <ele>267</ele>
        <time>2020-05-30T14:47:57.000Z</time>
      </trkpt>
      <trkpt lat="43.41987" lon="6.50617">
        <ele>266.79998779297</ele>
        <time>2020-05-30T14:47:58.000Z</time>
      </trkpt>
      <trkpt lat="43.41985" lon="6.50615">
        <ele>266.79998779297</ele>
        <time>2020-05-30T14:47:59.000Z</time>
      </trkpt>
      <trkpt lat="43.41987" lon="6.50608">
        <ele>266.60000610352</ele>
        <time>2020-05-30T14:48:02.000Z</time>
      </trkpt>
      <trkpt lat="43.41991" lon="6.50605">
        <ele>266.39999389648</ele>
        <time>2020-05-30T14:48:07.000Z</time>
      </trkpt>
      <trkpt lat="43.41988" lon="6.50604">
        <ele>266.39999389648</ele>
        <time>2020-05-30T14:48:14.000Z</time>
      </trkpt>
      <trkpt lat="43.41985" lon="6.50609">
        <ele>266.20001220703</ele>
        <time>2020-05-30T14:48:19.000Z</time>
      </trkpt>
      <trkpt lat="43.41987" lon="6.50616">
        <ele>266</ele>
        <time>2020-05-30T14:48:24.000Z</time>
      </trkpt>
      <trkpt lat="43.41998" lon="6.50615">
        <ele>266.39999389648</ele>
        <time>2020-05-30T14:48:29.000Z</time>
      </trkpt>
      <trkpt lat="43.42002" lon="6.50612">
        <ele>266.60000610352</ele>
        <time>2020-05-30T14:48:31.000Z</time>
      </trkpt>
      <trkpt lat="43.42012" lon="6.50611">
        <ele>267</ele>
        <time>2020-05-30T14:48:35.000Z</time>
      </trkpt>
      <trkpt lat="43.42027" lon="6.50609">
        <ele>268</ele>
        <time>2020-05-30T14:48:41.000Z</time>
      </trkpt>
      <trkpt lat="43.42033" lon="6.50615">
        <ele>269.39999389648</ele>
        <time>2020-05-30T14:48:44.000Z</time>
      </trkpt>
      <trkpt lat="43.42034" lon="6.50616">
        <ele>270.20001220703</ele>
        <time>2020-05-30T14:48:45.000Z</time>
      </trkpt>
      <trkpt lat="43.42037" lon="6.50617">
        <ele>271</ele>
        <time>2020-05-30T14:48:46.000Z</time>
      </trkpt>
      <trkpt lat="43.42046" lon="6.50619">
        <ele>272.20001220703</ele>
        <time>2020-05-30T14:48:49.000Z</time>
      </trkpt>
      <trkpt lat="43.42049" lon="6.50619">
        <ele>272.20001220703</ele>
        <time>2020-05-30T14:48:50.000Z</time>
      </trkpt>
      <trkpt lat="43.42063" lon="6.5062">
        <ele>272.60000610352</ele>
        <time>2020-05-30T14:48:55.000Z</time>
      </trkpt>
      <trkpt lat="43.42079" lon="6.50616">
        <ele>273</ele>
        <time>2020-05-30T14:49:00.000Z</time>
      </trkpt>
      <trkpt lat="43.4209" lon="6.50611">
        <ele>272.60000610352</ele>
        <time>2020-05-30T14:49:04.000Z</time>
      </trkpt>
      <trkpt lat="43.42098" lon="6.50597">
        <ele>272.20001220703</ele>
        <time>2020-05-30T14:49:08.000Z</time>
      </trkpt>
      <trkpt lat="43.42101" lon="6.50596">
        <ele>272</ele>
        <time>2020-05-30T14:49:09.000Z</time>
      </trkpt>
      <trkpt lat="43.42108" lon="6.50598">
        <ele>271.39999389648</ele>
        <time>2020-05-30T14:49:11.000Z</time>
      </trkpt>
      <trkpt lat="43.42112" lon="6.50598">
        <ele>271</ele>
        <time>2020-05-30T14:49:13.000Z</time>
      </trkpt>
      <trkpt lat="43.42116" lon="6.50596">
        <ele>271</ele>
        <time>2020-05-30T14:49:15.000Z</time>
      </trkpt>
      <trkpt lat="43.42119" lon="6.50592">
        <ele>270.20001220703</ele>
        <time>2020-05-30T14:49:17.000Z</time>
      </trkpt>
      <trkpt lat="43.42121" lon="6.5059">
        <ele>270</ele>
        <time>2020-05-30T14:49:18.000Z</time>
      </trkpt>
      <trkpt lat="43.42126" lon="6.50589">
        <ele>268.39999389648</ele>
        <time>2020-05-30T14:49:20.000Z</time>
      </trkpt>
      <trkpt lat="43.4213" lon="6.50589">
        <ele>266.60000610352</ele>
        <time>2020-05-30T14:49:22.000Z</time>
      </trkpt>
      <trkpt lat="43.42137" lon="6.50592">
        <ele>265</ele>
        <time>2020-05-30T14:49:24.000Z</time>
      </trkpt>
      <trkpt lat="43.42143" lon="6.50592">
        <ele>263.60000610352</ele>
        <time>2020-05-30T14:49:26.000Z</time>
      </trkpt>
      <trkpt lat="43.42146" lon="6.50593">
        <ele>263.20001220703</ele>
        <time>2020-05-30T14:49:27.000Z</time>
      </trkpt>
      <trkpt lat="43.4215" lon="6.50595">
        <ele>262.39999389648</ele>
        <time>2020-05-30T14:49:28.000Z</time>
      </trkpt>
      <trkpt lat="43.42158" lon="6.50597">
        <ele>261.20001220703</ele>
        <time>2020-05-30T14:49:30.000Z</time>
      </trkpt>
      <trkpt lat="43.4217" lon="6.50597">
        <ele>259.60000610352</ele>
        <time>2020-05-30T14:49:33.000Z</time>
      </trkpt>
      <trkpt lat="43.42175" lon="6.50597">
        <ele>259.20001220703</ele>
        <time>2020-05-30T14:49:34.000Z</time>
      </trkpt>
      <trkpt lat="43.42178" lon="6.506">
        <ele>258.39999389648</ele>
        <time>2020-05-30T14:49:35.000Z</time>
      </trkpt>
      <trkpt lat="43.42186" lon="6.50604">
        <ele>256.79998779297</ele>
        <time>2020-05-30T14:49:37.000Z</time>
      </trkpt>
      <trkpt lat="43.42193" lon="6.50605">
        <ele>255.39999389648</ele>
        <time>2020-05-30T14:49:38.000Z</time>
      </trkpt>
      <trkpt lat="43.422" lon="6.50604">
        <ele>253.80000305176</ele>
        <time>2020-05-30T14:49:39.000Z</time>
      </trkpt>
      <trkpt lat="43.42206" lon="6.50602">
        <ele>252.19999694824</ele>
        <time>2020-05-30T14:49:40.000Z</time>
      </trkpt>
      <trkpt lat="43.42212" lon="6.506">
        <ele>251</ele>
        <time>2020-05-30T14:49:41.000Z</time>
      </trkpt>
      <trkpt lat="43.42221" lon="6.50597">
        <ele>249</ele>
        <time>2020-05-30T14:49:43.000Z</time>
      </trkpt>
      <trkpt lat="43.42225" lon="6.50597">
        <ele>248</ele>
        <time>2020-05-30T14:49:44.000Z</time>
      </trkpt>
      <trkpt lat="43.42243" lon="6.50595">
        <ele>246.80000305176</ele>
        <time>2020-05-30T14:49:48.000Z</time>
      </trkpt>
      <trkpt lat="43.42247" lon="6.50594">
        <ele>246.80000305176</ele>
        <time>2020-05-30T14:49:49.000Z</time>
      </trkpt>
      <trkpt lat="43.4226" lon="6.50582">
        <ele>246.39999389648</ele>
        <time>2020-05-30T14:49:52.000Z</time>
      </trkpt>
      <trkpt lat="43.42266" lon="6.50578">
        <ele>245.39999389648</ele>
        <time>2020-05-30T14:49:53.000Z</time>
      </trkpt>
      <trkpt lat="43.42272" lon="6.50574">
        <ele>244.60000610352</ele>
        <time>2020-05-30T14:49:54.000Z</time>
      </trkpt>
      <trkpt lat="43.42279" lon="6.50569">
        <ele>243</ele>
        <time>2020-05-30T14:49:55.000Z</time>
      </trkpt>
      <trkpt lat="43.42285" lon="6.50565">
        <ele>241.39999389648</ele>
        <time>2020-05-30T14:49:56.000Z</time>
      </trkpt>
      <trkpt lat="43.42292" lon="6.5056">
        <ele>239.80000305176</ele>
        <time>2020-05-30T14:49:57.000Z</time>
      </trkpt>
      <trkpt lat="43.42299" lon="6.50555">
        <ele>238.60000610352</ele>
        <time>2020-05-30T14:49:58.000Z</time>
      </trkpt>
      <trkpt lat="43.42307" lon="6.50553">
        <ele>237.39999389648</ele>
        <time>2020-05-30T14:49:59.000Z</time>
      </trkpt>
      <trkpt lat="43.42314" lon="6.50551">
        <ele>236.60000610352</ele>
        <time>2020-05-30T14:50:00.000Z</time>
      </trkpt>
      <trkpt lat="43.42322" lon="6.50547">
        <ele>236</ele>
        <time>2020-05-30T14:50:01.000Z</time>
      </trkpt>
      <trkpt lat="43.42328" lon="6.50544">
        <ele>234.80000305176</ele>
        <time>2020-05-30T14:50:02.000Z</time>
      </trkpt>
      <trkpt lat="43.42335" lon="6.5054">
        <ele>233.60000610352</ele>
        <time>2020-05-30T14:50:03.000Z</time>
      </trkpt>
      <trkpt lat="43.4234" lon="6.50538">
        <ele>233.19999694824</ele>
        <time>2020-05-30T14:50:04.000Z</time>
      </trkpt>
      <trkpt lat="43.42348" lon="6.50535">
        <ele>232.39999389648</ele>
        <time>2020-05-30T14:50:06.000Z</time>
      </trkpt>
      <trkpt lat="43.42349" lon="6.50535">
        <ele>232.19999694824</ele>
        <time>2020-05-30T14:50:07.000Z</time>
      </trkpt>
      <trkpt lat="43.42349" lon="6.50535">
        <ele>232.39999389648</ele>
        <time>2020-05-30T14:50:10.000Z</time>
      </trkpt>
      <trkpt lat="43.42351" lon="6.50536">
        <ele>232.19999694824</ele>
        <time>2020-05-30T14:50:12.000Z</time>
      </trkpt>
      <trkpt lat="43.42354" lon="6.50539">
        <ele>232.60000610352</ele>
        <time>2020-05-30T14:50:14.000Z</time>
      </trkpt>
      <trkpt lat="43.42367" lon="6.50546">
        <ele>231.39999389648</ele>
        <time>2020-05-30T14:50:19.000Z</time>
      </trkpt>
      <trkpt lat="43.42371" lon="6.50548">
        <ele>231</ele>
        <time>2020-05-30T14:50:20.000Z</time>
      </trkpt>
      <trkpt lat="43.42379" lon="6.50551">
        <ele>230.80000305176</ele>
        <time>2020-05-30T14:50:22.000Z</time>
      </trkpt>
      <trkpt lat="43.42384" lon="6.50551">
        <ele>230.60000610352</ele>
        <time>2020-05-30T14:50:23.000Z</time>
      </trkpt>
      <trkpt lat="43.42397" lon="6.50557">
        <ele>230</ele>
        <time>2020-05-30T14:50:27.000Z</time>
      </trkpt>
      <trkpt lat="43.42401" lon="6.50558">
        <ele>229.60000610352</ele>
        <time>2020-05-30T14:50:28.000Z</time>
      </trkpt>
      <trkpt lat="43.42406" lon="6.5056">
        <ele>228.60000610352</ele>
        <time>2020-05-30T14:50:29.000Z</time>
      </trkpt>
      <trkpt lat="43.42408" lon="6.50562">
        <ele>227.60000610352</ele>
        <time>2020-05-30T14:50:30.000Z</time>
      </trkpt>
      <trkpt lat="43.42411" lon="6.50563">
        <ele>227.19999694824</ele>
        <time>2020-05-30T14:50:31.000Z</time>
      </trkpt>
      <trkpt lat="43.42413" lon="6.50563">
        <ele>225.80000305176</ele>
        <time>2020-05-30T14:50:32.000Z</time>
      </trkpt>
      <trkpt lat="43.42415" lon="6.50561">
        <ele>224.80000305176</ele>
        <time>2020-05-30T14:50:33.000Z</time>
      </trkpt>
      <trkpt lat="43.42418" lon="6.50557">
        <ele>223.80000305176</ele>
        <time>2020-05-30T14:50:34.000Z</time>
      </trkpt>
      <trkpt lat="43.42421" lon="6.50555">
        <ele>223.39999389648</ele>
        <time>2020-05-30T14:50:35.000Z</time>
      </trkpt>
      <trkpt lat="43.42423" lon="6.50553">
        <ele>222.39999389648</ele>
        <time>2020-05-30T14:50:36.000Z</time>
      </trkpt>
      <trkpt lat="43.42425" lon="6.50549">
        <ele>222</ele>
        <time>2020-05-30T14:50:37.000Z</time>
      </trkpt>
      <trkpt lat="43.42427" lon="6.50545">
        <ele>221.60000610352</ele>
        <time>2020-05-30T14:50:38.000Z</time>
      </trkpt>
      <trkpt lat="43.42429" lon="6.50541">
        <ele>221.19999694824</ele>
        <time>2020-05-30T14:50:39.000Z</time>
      </trkpt>
      <trkpt lat="43.42432" lon="6.50536">
        <ele>221</ele>
        <time>2020-05-30T14:50:40.000Z</time>
      </trkpt>
      <trkpt lat="43.42437" lon="6.50532">
        <ele>220.80000305176</ele>
        <time>2020-05-30T14:50:41.000Z</time>
      </trkpt>
      <trkpt lat="43.42439" lon="6.50524">
        <ele>220.19999694824</ele>
        <time>2020-05-30T14:50:43.000Z</time>
      </trkpt>
      <trkpt lat="43.4244" lon="6.5052">
        <ele>219.80000305176</ele>
        <time>2020-05-30T14:50:44.000Z</time>
      </trkpt>
      <trkpt lat="43.42444" lon="6.50516">
        <ele>219</ele>
        <time>2020-05-30T14:50:46.000Z</time>
      </trkpt>
      <trkpt lat="43.42446" lon="6.50515">
        <ele>219</ele>
        <time>2020-05-30T14:50:47.000Z</time>
      </trkpt>
      <trkpt lat="43.42459" lon="6.50509">
        <ele>219.19999694824</ele>
        <time>2020-05-30T14:50:51.000Z</time>
      </trkpt>
      <trkpt lat="43.42471" lon="6.50502">
        <ele>219</ele>
        <time>2020-05-30T14:50:55.000Z</time>
      </trkpt>
      <trkpt lat="43.42479" lon="6.50495">
        <ele>218.60000610352</ele>
        <time>2020-05-30T14:50:58.000Z</time>
      </trkpt>
      <trkpt lat="43.42483" lon="6.50495">
        <ele>218.39999389648</ele>
        <time>2020-05-30T14:50:59.000Z</time>
      </trkpt>
      <trkpt lat="43.42489" lon="6.50489">
        <ele>217.80000305176</ele>
        <time>2020-05-30T14:51:02.000Z</time>
      </trkpt>
      <trkpt lat="43.42507" lon="6.50481">
        <ele>217.60000610352</ele>
        <time>2020-05-30T14:51:07.000Z</time>
      </trkpt>
      <trkpt lat="43.42521" lon="6.50472">
        <ele>217.60000610352</ele>
        <time>2020-05-30T14:51:11.000Z</time>
      </trkpt>
      <trkpt lat="43.4253" lon="6.50461">
        <ele>216.39999389648</ele>
        <time>2020-05-30T14:51:14.000Z</time>
      </trkpt>
      <trkpt lat="43.42534" lon="6.5046">
        <ele>215.39999389648</ele>
        <time>2020-05-30T14:51:16.000Z</time>
      </trkpt>
      <trkpt lat="43.42537" lon="6.50458">
        <ele>215.19999694824</ele>
        <time>2020-05-30T14:51:18.000Z</time>
      </trkpt>
      <trkpt lat="43.42539" lon="6.50457">
        <ele>214.60000610352</ele>
        <time>2020-05-30T14:51:20.000Z</time>
      </trkpt>
      <trkpt lat="43.4254" lon="6.50456">
        <ele>213.80000305176</ele>
        <time>2020-05-30T14:51:22.000Z</time>
      </trkpt>
      <trkpt lat="43.4254" lon="6.50455">
        <ele>212.60000610352</ele>
        <time>2020-05-30T14:51:25.000Z</time>
      </trkpt>
      <trkpt lat="43.4254" lon="6.50455">
        <ele>212.60000610352</ele>
        <time>2020-05-30T14:51:26.000Z</time>
      </trkpt>
      <trkpt lat="43.42541" lon="6.50453">
        <ele>212.60000610352</ele>
        <time>2020-05-30T14:51:41.000Z</time>
      </trkpt>
      <trkpt lat="43.42545" lon="6.50447">
        <ele>212.60000610352</ele>
        <time>2020-05-30T14:51:47.000Z</time>
      </trkpt>
      <trkpt lat="43.42549" lon="6.50448">
        <ele>212.39999389648</ele>
        <time>2020-05-30T14:51:49.000Z</time>
      </trkpt>
      <trkpt lat="43.42552" lon="6.5045">
        <ele>211.60000610352</ele>
        <time>2020-05-30T14:51:51.000Z</time>
      </trkpt>
      <trkpt lat="43.42557" lon="6.50453">
        <ele>210.19999694824</ele>
        <time>2020-05-30T14:51:54.000Z</time>
      </trkpt>
      <trkpt lat="43.42559" lon="6.50454">
        <ele>209.80000305176</ele>
        <time>2020-05-30T14:51:55.000Z</time>
      </trkpt>
      <trkpt lat="43.42561" lon="6.50459">
        <ele>208.80000305176</ele>
        <time>2020-05-30T14:51:57.000Z</time>
      </trkpt>
      <trkpt lat="43.42562" lon="6.50459">
        <ele>208.19999694824</ele>
        <time>2020-05-30T14:51:58.000Z</time>
      </trkpt>
      <trkpt lat="43.42565" lon="6.50457">
        <ele>207.19999694824</ele>
        <time>2020-05-30T14:51:59.000Z</time>
      </trkpt>
      <trkpt lat="43.42567" lon="6.50456">
        <ele>206</ele>
        <time>2020-05-30T14:52:00.000Z</time>
      </trkpt>
      <trkpt lat="43.42569" lon="6.50454">
        <ele>204.80000305176</ele>
        <time>2020-05-30T14:52:01.000Z</time>
      </trkpt>
      <trkpt lat="43.4257" lon="6.50453">
        <ele>203.39999389648</ele>
        <time>2020-05-30T14:52:02.000Z</time>
      </trkpt>
      <trkpt lat="43.42572" lon="6.5045">
        <ele>202.19999694824</ele>
        <time>2020-05-30T14:52:03.000Z</time>
      </trkpt>
      <trkpt lat="43.42574" lon="6.50449">
        <ele>201</ele>
        <time>2020-05-30T14:52:04.000Z</time>
      </trkpt>
      <trkpt lat="43.4258" lon="6.50451">
        <ele>200</ele>
        <time>2020-05-30T14:52:06.000Z</time>
      </trkpt>
      <trkpt lat="43.42586" lon="6.50451">
        <ele>199</ele>
        <time>2020-05-30T14:52:08.000Z</time>
      </trkpt>
      <trkpt lat="43.42587" lon="6.5045">
        <ele>198.60000610352</ele>
        <time>2020-05-30T14:52:09.000Z</time>
      </trkpt>
      <trkpt lat="43.42589" lon="6.50449">
        <ele>197.60000610352</ele>
        <time>2020-05-30T14:52:10.000Z</time>
      </trkpt>
      <trkpt lat="43.42589" lon="6.50447">
        <ele>196.80000305176</ele>
        <time>2020-05-30T14:52:11.000Z</time>
      </trkpt>
      <trkpt lat="43.4259" lon="6.50444">
        <ele>196.19999694824</ele>
        <time>2020-05-30T14:52:12.000Z</time>
      </trkpt>
      <trkpt lat="43.42593" lon="6.5044">
        <ele>195</ele>
        <time>2020-05-30T14:52:14.000Z</time>
      </trkpt>
      <trkpt lat="43.42594" lon="6.50441">
        <ele>194.39999389648</ele>
        <time>2020-05-30T14:52:15.000Z</time>
      </trkpt>
      <trkpt lat="43.42598" lon="6.50444">
        <ele>194</ele>
        <time>2020-05-30T14:52:17.000Z</time>
      </trkpt>
      <trkpt lat="43.42604" lon="6.50442">
        <ele>192.80000305176</ele>
        <time>2020-05-30T14:52:20.000Z</time>
      </trkpt>
      <trkpt lat="43.42609" lon="6.50441">
        <ele>191.19999694824</ele>
        <time>2020-05-30T14:52:22.000Z</time>
      </trkpt>
      <trkpt lat="43.42611" lon="6.5044">
        <ele>189.80000305176</ele>
        <time>2020-05-30T14:52:23.000Z</time>
      </trkpt>
      <trkpt lat="43.42612" lon="6.50437">
        <ele>188.80000305176</ele>
        <time>2020-05-30T14:52:24.000Z</time>
      </trkpt>
      <trkpt lat="43.42614" lon="6.50435">
        <ele>188</ele>
        <time>2020-05-30T14:52:25.000Z</time>
      </trkpt>
      <trkpt lat="43.42617" lon="6.50435">
        <ele>186.60000610352</ele>
        <time>2020-05-30T14:52:27.000Z</time>
      </trkpt>
      <trkpt lat="43.4262" lon="6.50429">
        <ele>185.19999694824</ele>
        <time>2020-05-30T14:52:30.000Z</time>
      </trkpt>
      <trkpt lat="43.42621" lon="6.50427">
        <ele>184.60000610352</ele>
        <time>2020-05-30T14:52:31.000Z</time>
      </trkpt>
      <trkpt lat="43.42624" lon="6.50426">
        <ele>183.80000305176</ele>
        <time>2020-05-30T14:52:32.000Z</time>
      </trkpt>
      <trkpt lat="43.42626" lon="6.50428">
        <ele>183.19999694824</ele>
        <time>2020-05-30T14:52:34.000Z</time>
      </trkpt>
      <trkpt lat="43.42628" lon="6.50431">
        <ele>182.19999694824</ele>
        <time>2020-05-30T14:52:35.000Z</time>
      </trkpt>
      <trkpt lat="43.42631" lon="6.5043">
        <ele>180.60000610352</ele>
        <time>2020-05-30T14:52:37.000Z</time>
      </trkpt>
      <trkpt lat="43.42633" lon="6.50432">
        <ele>180</ele>
        <time>2020-05-30T14:52:38.000Z</time>
      </trkpt>
      <trkpt lat="43.42635" lon="6.50436">
        <ele>179</ele>
        <time>2020-05-30T14:52:39.000Z</time>
      </trkpt>
      <trkpt lat="43.42635" lon="6.50438">
        <ele>178</ele>
        <time>2020-05-30T14:52:40.000Z</time>
      </trkpt>
      <trkpt lat="43.42636" lon="6.50439">
        <ele>177</ele>
        <time>2020-05-30T14:52:41.000Z</time>
      </trkpt>
      <trkpt lat="43.42638" lon="6.50442">
        <ele>175.39999389648</ele>
        <time>2020-05-30T14:52:43.000Z</time>
      </trkpt>
      <trkpt lat="43.42644" lon="6.50442">
        <ele>174.19999694824</ele>
        <time>2020-05-30T14:52:46.000Z</time>
      </trkpt>
      <trkpt lat="43.42649" lon="6.5045">
        <ele>172.39999389648</ele>
        <time>2020-05-30T14:52:49.000Z</time>
      </trkpt>
      <trkpt lat="43.4265" lon="6.50453">
        <ele>171.19999694824</ele>
        <time>2020-05-30T14:52:50.000Z</time>
      </trkpt>
      <trkpt lat="43.42651" lon="6.50457">
        <ele>169.80000305176</ele>
        <time>2020-05-30T14:52:51.000Z</time>
      </trkpt>
      <trkpt lat="43.42655" lon="6.50466">
        <ele>168.19999694824</ele>
        <time>2020-05-30T14:52:53.000Z</time>
      </trkpt>
      <trkpt lat="43.42657" lon="6.50474">
        <ele>166.39999389648</ele>
        <time>2020-05-30T14:52:55.000Z</time>
      </trkpt>
      <trkpt lat="43.42657" lon="6.50482">
        <ele>165.39999389648</ele>
        <time>2020-05-30T14:52:57.000Z</time>
      </trkpt>
      <trkpt lat="43.4266" lon="6.50492">
        <ele>164</ele>
        <time>2020-05-30T14:52:59.000Z</time>
      </trkpt>
      <trkpt lat="43.4266" lon="6.50495">
        <ele>163.19999694824</ele>
        <time>2020-05-30T14:53:00.000Z</time>
      </trkpt>
      <trkpt lat="43.42662" lon="6.50498">
        <ele>162.39999389648</ele>
        <time>2020-05-30T14:53:01.000Z</time>
      </trkpt>
      <trkpt lat="43.42668" lon="6.50503">
        <ele>161.80000305176</ele>
        <time>2020-05-30T14:53:03.000Z</time>
      </trkpt>
      <trkpt lat="43.42678" lon="6.50508">
        <ele>161.80000305176</ele>
        <time>2020-05-30T14:53:06.000Z</time>
      </trkpt>
      <trkpt lat="43.42681" lon="6.50508">
        <ele>161.80000305176</ele>
        <time>2020-05-30T14:53:07.000Z</time>
      </trkpt>
      <trkpt lat="43.42688" lon="6.50514">
        <ele>161.39999389648</ele>
        <time>2020-05-30T14:53:09.000Z</time>
      </trkpt>
      <trkpt lat="43.42691" lon="6.50517">
        <ele>161</ele>
        <time>2020-05-30T14:53:10.000Z</time>
      </trkpt>
      <trkpt lat="43.42692" lon="6.50521">
        <ele>160.39999389648</ele>
        <time>2020-05-30T14:53:11.000Z</time>
      </trkpt>
      <trkpt lat="43.42693" lon="6.50524">
        <ele>159.80000305176</ele>
        <time>2020-05-30T14:53:12.000Z</time>
      </trkpt>
      <trkpt lat="43.42696" lon="6.50528">
        <ele>159.19999694824</ele>
        <time>2020-05-30T14:53:13.000Z</time>
      </trkpt>
      <trkpt lat="43.42699" lon="6.50533">
        <ele>158.80000305176</ele>
        <time>2020-05-30T14:53:14.000Z</time>
      </trkpt>
      <trkpt lat="43.42704" lon="6.50537">
        <ele>157.39999389648</ele>
        <time>2020-05-30T14:53:16.000Z</time>
      </trkpt>
      <trkpt lat="43.42709" lon="6.50543">
        <ele>156.39999389648</ele>
        <time>2020-05-30T14:53:18.000Z</time>
      </trkpt>
      <trkpt lat="43.42712" lon="6.50545">
        <ele>156.19999694824</ele>
        <time>2020-05-30T14:53:19.000Z</time>
      </trkpt>
      <trkpt lat="43.4272" lon="6.50544">
        <ele>155.39999389648</ele>
        <time>2020-05-30T14:53:21.000Z</time>
      </trkpt>
      <trkpt lat="43.42724" lon="6.50543">
        <ele>155</ele>
        <time>2020-05-30T14:53:22.000Z</time>
      </trkpt>
      <trkpt lat="43.42733" lon="6.50545">
        <ele>154.39999389648</ele>
        <time>2020-05-30T14:53:24.000Z</time>
      </trkpt>
      <trkpt lat="43.42736" lon="6.50546">
        <ele>154</ele>
        <time>2020-05-30T14:53:25.000Z</time>
      </trkpt>
      <trkpt lat="43.42739" lon="6.50546">
        <ele>153.39999389648</ele>
        <time>2020-05-30T14:53:26.000Z</time>
      </trkpt>
      <trkpt lat="43.4274" lon="6.50545">
        <ele>153</ele>
        <time>2020-05-30T14:53:27.000Z</time>
      </trkpt>
      <trkpt lat="43.42741" lon="6.50545">
        <ele>152.19999694824</ele>
        <time>2020-05-30T14:53:29.000Z</time>
      </trkpt>
      <trkpt lat="43.42741" lon="6.50545">
        <ele>152</ele>
        <time>2020-05-30T14:53:30.000Z</time>
      </trkpt>
      <trkpt lat="43.42743" lon="6.50545">
        <ele>152.19999694824</ele>
        <time>2020-05-30T14:53:45.000Z</time>
      </trkpt>
      <trkpt lat="43.4275" lon="6.50537">
        <ele>152</ele>
        <time>2020-05-30T14:53:50.000Z</time>
      </trkpt>
      <trkpt lat="43.4276" lon="6.50531">
        <ele>151.80000305176</ele>
        <time>2020-05-30T14:53:54.000Z</time>
      </trkpt>
      <trkpt lat="43.42773" lon="6.50529">
        <ele>151</ele>
        <time>2020-05-30T14:54:00.000Z</time>
      </trkpt>
      <trkpt lat="43.42789" lon="6.50536">
        <ele>150.19999694824</ele>
        <time>2020-05-30T14:54:05.000Z</time>
      </trkpt>
      <trkpt lat="43.42793" lon="6.50539">
        <ele>149.80000305176</ele>
        <time>2020-05-30T14:54:07.000Z</time>
      </trkpt>
      <trkpt lat="43.42793" lon="6.5054">
        <ele>149.39999389648</ele>
        <time>2020-05-30T14:54:09.000Z</time>
      </trkpt>
      <trkpt lat="43.42794" lon="6.5054">
        <ele>148.80000305176</ele>
        <time>2020-05-30T14:54:15.000Z</time>
      </trkpt>
      <trkpt lat="43.42794" lon="6.5054">
        <ele>148.80000305176</ele>
        <time>2020-05-30T14:54:16.000Z</time>
      </trkpt>
      <trkpt lat="43.42792" lon="6.50536">
        <ele>148.39999389648</ele>
        <time>2020-05-30T14:54:22.000Z</time>
      </trkpt>
      <trkpt lat="43.42786" lon="6.50532">
        <ele>149</ele>
        <time>2020-05-30T14:54:27.000Z</time>
      </trkpt>
      <trkpt lat="43.42769" lon="6.50528">
        <ele>149.60000610352</ele>
        <time>2020-05-30T14:54:33.000Z</time>
      </trkpt>
      <trkpt lat="43.42765" lon="6.5053">
        <ele>149.80000305176</ele>
        <time>2020-05-30T14:54:35.000Z</time>
      </trkpt>
      <trkpt lat="43.42763" lon="6.50529">
        <ele>150</ele>
        <time>2020-05-30T14:54:36.000Z</time>
      </trkpt>
      <trkpt lat="43.42762" lon="6.50527">
        <ele>150.19999694824</ele>
        <time>2020-05-30T14:54:37.000Z</time>
      </trkpt>
      <trkpt lat="43.42766" lon="6.50518">
        <ele>151</ele>
        <time>2020-05-30T14:54:41.000Z</time>
      </trkpt>
      <trkpt lat="43.42779" lon="6.50518">
        <ele>149.80000305176</ele>
        <time>2020-05-30T14:54:44.000Z</time>
      </trkpt>
      <trkpt lat="43.42788" lon="6.50521">
        <ele>148.39999389648</ele>
        <time>2020-05-30T14:54:46.000Z</time>
      </trkpt>
      <trkpt lat="43.42795" lon="6.50525">
        <ele>147.80000305176</ele>
        <time>2020-05-30T14:54:48.000Z</time>
      </trkpt>
      <trkpt lat="43.42798" lon="6.50526">
        <ele>147.39999389648</ele>
        <time>2020-05-30T14:54:49.000Z</time>
      </trkpt>
      <trkpt lat="43.42812" lon="6.50532">
        <ele>146</ele>
        <time>2020-05-30T14:54:53.000Z</time>
      </trkpt>
      <trkpt lat="43.42821" lon="6.50535">
        <ele>144.80000305176</ele>
        <time>2020-05-30T14:54:56.000Z</time>
      </trkpt>
      <trkpt lat="43.42823" lon="6.50535">
        <ele>144</ele>
        <time>2020-05-30T14:54:57.000Z</time>
      </trkpt>
      <trkpt lat="43.42829" lon="6.50537">
        <ele>143.19999694824</ele>
        <time>2020-05-30T14:54:59.000Z</time>
      </trkpt>
      <trkpt lat="43.42833" lon="6.50537">
        <ele>142.19999694824</ele>
        <time>2020-05-30T14:55:00.000Z</time>
      </trkpt>
      <trkpt lat="43.4284" lon="6.50538">
        <ele>141.39999389648</ele>
        <time>2020-05-30T14:55:02.000Z</time>
      </trkpt>
      <trkpt lat="43.42845" lon="6.50541">
        <ele>140.39999389648</ele>
        <time>2020-05-30T14:55:03.000Z</time>
      </trkpt>
      <trkpt lat="43.42855" lon="6.50543">
        <ele>139.60000610352</ele>
        <time>2020-05-30T14:55:06.000Z</time>
      </trkpt>
      <trkpt lat="43.42858" lon="6.50544">
        <ele>139.19999694824</ele>
        <time>2020-05-30T14:55:07.000Z</time>
      </trkpt>
      <trkpt lat="43.42865" lon="6.50547">
        <ele>138</ele>
        <time>2020-05-30T14:55:09.000Z</time>
      </trkpt>
      <trkpt lat="43.42869" lon="6.50549">
        <ele>137.60000610352</ele>
        <time>2020-05-30T14:55:10.000Z</time>
      </trkpt>
      <trkpt lat="43.42874" lon="6.5055">
        <ele>137</ele>
        <time>2020-05-30T14:55:11.000Z</time>
      </trkpt>
      <trkpt lat="43.42878" lon="6.50551">
        <ele>136.60000610352</ele>
        <time>2020-05-30T14:55:12.000Z</time>
      </trkpt>
      <trkpt lat="43.42886" lon="6.50552">
        <ele>135.39999389648</ele>
        <time>2020-05-30T14:55:14.000Z</time>
      </trkpt>
      <trkpt lat="43.4289" lon="6.50549">
        <ele>134.80000305176</ele>
        <time>2020-05-30T14:55:15.000Z</time>
      </trkpt>
      <trkpt lat="43.42897" lon="6.50544">
        <ele>133.39999389648</ele>
        <time>2020-05-30T14:55:17.000Z</time>
      </trkpt>
      <trkpt lat="43.42907" lon="6.50541">
        <ele>132</ele>
        <time>2020-05-30T14:55:19.000Z</time>
      </trkpt>
      <trkpt lat="43.42919" lon="6.50537">
        <ele>130.60000610352</ele>
        <time>2020-05-30T14:55:21.000Z</time>
      </trkpt>
      <trkpt lat="43.42925" lon="6.50534">
        <ele>128.80000305176</ele>
        <time>2020-05-30T14:55:23.000Z</time>
      </trkpt>
      <trkpt lat="43.42937" lon="6.50533">
        <ele>127.40000152588</ele>
        <time>2020-05-30T14:55:26.000Z</time>
      </trkpt>
      <trkpt lat="43.42942" lon="6.50534">
        <ele>127.19999694824</ele>
        <time>2020-05-30T14:55:27.000Z</time>
      </trkpt>
      <trkpt lat="43.42953" lon="6.50538">
        <ele>125.19999694824</ele>
        <time>2020-05-30T14:55:29.000Z</time>
      </trkpt>
      <trkpt lat="43.42957" lon="6.5054">
        <ele>124.40000152588</ele>
        <time>2020-05-30T14:55:30.000Z</time>
      </trkpt>
      <trkpt lat="43.42961" lon="6.50542">
        <ele>123.80000305176</ele>
        <time>2020-05-30T14:55:31.000Z</time>
      </trkpt>
      <trkpt lat="43.42973" lon="6.50548">
        <ele>122.19999694824</ele>
        <time>2020-05-30T14:55:33.000Z</time>
      </trkpt>
      <trkpt lat="43.42981" lon="6.50549">
        <ele>120.80000305176</ele>
        <time>2020-05-30T14:55:35.000Z</time>
      </trkpt>
      <trkpt lat="43.42988" lon="6.50551">
        <ele>119</ele>
        <time>2020-05-30T14:55:37.000Z</time>
      </trkpt>
      <trkpt lat="43.42991" lon="6.50552">
        <ele>117.80000305176</ele>
        <time>2020-05-30T14:55:38.000Z</time>
      </trkpt>
      <trkpt lat="43.42995" lon="6.50554">
        <ele>117.40000152588</ele>
        <time>2020-05-30T14:55:39.000Z</time>
      </trkpt>
      <trkpt lat="43.43003" lon="6.50562">
        <ele>117.59999847412</ele>
        <time>2020-05-30T14:55:42.000Z</time>
      </trkpt>
      <trkpt lat="43.43013" lon="6.50575">
        <ele>117</ele>
        <time>2020-05-30T14:55:45.000Z</time>
      </trkpt>
      <trkpt lat="43.43017" lon="6.5058">
        <ele>115.59999847412</ele>
        <time>2020-05-30T14:55:46.000Z</time>
      </trkpt>
      <trkpt lat="43.4302" lon="6.50584">
        <ele>114.40000152588</ele>
        <time>2020-05-30T14:55:47.000Z</time>
      </trkpt>
      <trkpt lat="43.43023" lon="6.50589">
        <ele>113.19999694824</ele>
        <time>2020-05-30T14:55:48.000Z</time>
      </trkpt>
      <trkpt lat="43.43025" lon="6.50594">
        <ele>112.40000152588</ele>
        <time>2020-05-30T14:55:49.000Z</time>
      </trkpt>
      <trkpt lat="43.43028" lon="6.50599">
        <ele>111</ele>
        <time>2020-05-30T14:55:50.000Z</time>
      </trkpt>
      <trkpt lat="43.43029" lon="6.50604">
        <ele>111.40000152588</ele>
        <time>2020-05-30T14:55:51.000Z</time>
      </trkpt>
      <trkpt lat="43.43029" lon="6.50608">
        <ele>109.40000152588</ele>
        <time>2020-05-30T14:55:52.000Z</time>
      </trkpt>
      <trkpt lat="43.43031" lon="6.5062">
        <ele>108</ele>
        <time>2020-05-30T14:55:54.000Z</time>
      </trkpt>
      <trkpt lat="43.43033" lon="6.50627">
        <ele>107</ele>
        <time>2020-05-30T14:55:55.000Z</time>
      </trkpt>
      <trkpt lat="43.43035" lon="6.50633">
        <ele>106</ele>
        <time>2020-05-30T14:55:56.000Z</time>
      </trkpt>
      <trkpt lat="43.43041" lon="6.50652">
        <ele>105.19999694824</ele>
        <time>2020-05-30T14:55:59.000Z</time>
      </trkpt>
      <trkpt lat="43.43043" lon="6.50657">
        <ele>104.59999847412</ele>
        <time>2020-05-30T14:56:00.000Z</time>
      </trkpt>
      <trkpt lat="43.43049" lon="6.50666">
        <ele>103.19999694824</ele>
        <time>2020-05-30T14:56:02.000Z</time>
      </trkpt>
      <trkpt lat="43.43057" lon="6.50672">
        <ele>101.40000152588</ele>
        <time>2020-05-30T14:56:04.000Z</time>
      </trkpt>
      <trkpt lat="43.4306" lon="6.50675">
        <ele>100.80000305176</ele>
        <time>2020-05-30T14:56:05.000Z</time>
      </trkpt>
      <trkpt lat="43.43063" lon="6.50678">
        <ele>100.19999694824</ele>
        <time>2020-05-30T14:56:06.000Z</time>
      </trkpt>
      <trkpt lat="43.43068" lon="6.50682">
        <ele>98.800003051758</ele>
        <time>2020-05-30T14:56:08.000Z</time>
      </trkpt>
      <trkpt lat="43.43069" lon="6.50684">
        <ele>98</ele>
        <time>2020-05-30T14:56:09.000Z</time>
      </trkpt>
      <trkpt lat="43.4307" lon="6.50686">
        <ele>97.599998474121</ele>
        <time>2020-05-30T14:56:10.000Z</time>
      </trkpt>
      <trkpt lat="43.43075" lon="6.50697">
        <ele>96.199996948242</ele>
        <time>2020-05-30T14:56:13.000Z</time>
      </trkpt>
      <trkpt lat="43.43077" lon="6.50702">
        <ele>95.800003051758</ele>
        <time>2020-05-30T14:56:14.000Z</time>
      </trkpt>
      <trkpt lat="43.43079" lon="6.50707">
        <ele>95.599998474121</ele>
        <time>2020-05-30T14:56:15.000Z</time>
      </trkpt>
      <trkpt lat="43.43086" lon="6.50716">
        <ele>94.599998474121</ele>
        <time>2020-05-30T14:56:17.000Z</time>
      </trkpt>
      <trkpt lat="43.4309" lon="6.5072">
        <ele>93.800003051758</ele>
        <time>2020-05-30T14:56:18.000Z</time>
      </trkpt>
      <trkpt lat="43.43099" lon="6.50728">
        <ele>93</ele>
        <time>2020-05-30T14:56:20.000Z</time>
      </trkpt>
      <trkpt lat="43.43106" lon="6.50738">
        <ele>92</ele>
        <time>2020-05-30T14:56:22.000Z</time>
      </trkpt>
      <trkpt lat="43.43109" lon="6.50743">
        <ele>92</ele>
        <time>2020-05-30T14:56:23.000Z</time>
      </trkpt>
      <trkpt lat="43.43112" lon="6.50749">
        <ele>90.599998474121</ele>
        <time>2020-05-30T14:56:24.000Z</time>
      </trkpt>
      <trkpt lat="43.43117" lon="6.50761">
        <ele>89.599998474121</ele>
        <time>2020-05-30T14:56:26.000Z</time>
      </trkpt>
      <trkpt lat="43.43118" lon="6.50764">
        <ele>88.800003051758</ele>
        <time>2020-05-30T14:56:27.000Z</time>
      </trkpt>
      <trkpt lat="43.4312" lon="6.50768">
        <ele>87.599998474121</ele>
        <time>2020-05-30T14:56:28.000Z</time>
      </trkpt>
      <trkpt lat="43.43124" lon="6.50779">
        <ele>86</ele>
        <time>2020-05-30T14:56:30.000Z</time>
      </trkpt>
      <trkpt lat="43.43127" lon="6.5079">
        <ele>84</ele>
        <time>2020-05-30T14:56:32.000Z</time>
      </trkpt>
      <trkpt lat="43.43131" lon="6.50801">
        <ele>83</ele>
        <time>2020-05-30T14:56:34.000Z</time>
      </trkpt>
      <trkpt lat="43.43135" lon="6.50815">
        <ele>82.199996948242</ele>
        <time>2020-05-30T14:56:37.000Z</time>
      </trkpt>
      <trkpt lat="43.43135" lon="6.5082">
        <ele>81</ele>
        <time>2020-05-30T14:56:38.000Z</time>
      </trkpt>
      <trkpt lat="43.43133" lon="6.50829">
        <ele>80</ele>
        <time>2020-05-30T14:56:40.000Z</time>
      </trkpt>
      <trkpt lat="43.43133" lon="6.50839">
        <ele>78.199996948242</ele>
        <time>2020-05-30T14:56:42.000Z</time>
      </trkpt>
      <trkpt lat="43.43136" lon="6.50845">
        <ele>76.599998474121</ele>
        <time>2020-05-30T14:56:44.000Z</time>
      </trkpt>
      <trkpt lat="43.43142" lon="6.50851">
        <ele>75.800003051758</ele>
        <time>2020-05-30T14:56:46.000Z</time>
      </trkpt>
      <trkpt lat="43.43146" lon="6.50853">
        <ele>75.199996948242</ele>
        <time>2020-05-30T14:56:47.000Z</time>
      </trkpt>
      <trkpt lat="43.4315" lon="6.50856">
        <ele>74.599998474121</ele>
        <time>2020-05-30T14:56:48.000Z</time>
      </trkpt>
      <trkpt lat="43.43152" lon="6.50859">
        <ele>74.199996948242</ele>
        <time>2020-05-30T14:56:49.000Z</time>
      </trkpt>
      <trkpt lat="43.43156" lon="6.50868">
        <ele>73.400001525879</ele>
        <time>2020-05-30T14:56:51.000Z</time>
      </trkpt>
      <trkpt lat="43.43158" lon="6.50872">
        <ele>73</ele>
        <time>2020-05-30T14:56:52.000Z</time>
      </trkpt>
      <trkpt lat="43.43159" lon="6.50876">
        <ele>72.599998474121</ele>
        <time>2020-05-30T14:56:53.000Z</time>
      </trkpt>
      <trkpt lat="43.43164" lon="6.50887">
        <ele>71.599998474121</ele>
        <time>2020-05-30T14:56:55.000Z</time>
      </trkpt>
      <trkpt lat="43.43165" lon="6.50898">
        <ele>70.199996948242</ele>
        <time>2020-05-30T14:56:57.000Z</time>
      </trkpt>
      <trkpt lat="43.43163" lon="6.50918">
        <ele>69.599998474121</ele>
        <time>2020-05-30T14:57:01.000Z</time>
      </trkpt>
      <trkpt lat="43.43164" lon="6.50925">
        <ele>69.599998474121</ele>
        <time>2020-05-30T14:57:02.000Z</time>
      </trkpt>
      <trkpt lat="43.43165" lon="6.50937">
        <ele>68.599998474121</ele>
        <time>2020-05-30T14:57:04.000Z</time>
      </trkpt>
      <trkpt lat="43.43165" lon="6.50943">
        <ele>68.199996948242</ele>
        <time>2020-05-30T14:57:05.000Z</time>
      </trkpt>
      <trkpt lat="43.43165" lon="6.50951">
        <ele>67.400001525879</ele>
        <time>2020-05-30T14:57:06.000Z</time>
      </trkpt>
      <trkpt lat="43.43165" lon="6.50958">
        <ele>66</ele>
        <time>2020-05-30T14:57:07.000Z</time>
      </trkpt>
      <trkpt lat="43.43165" lon="6.50965">
        <ele>65</ele>
        <time>2020-05-30T14:57:08.000Z</time>
      </trkpt>
      <trkpt lat="43.43165" lon="6.50972">
        <ele>64.199996948242</ele>
        <time>2020-05-30T14:57:09.000Z</time>
      </trkpt>
      <trkpt lat="43.43166" lon="6.50986">
        <ele>62.599998474121</ele>
        <time>2020-05-30T14:57:11.000Z</time>
      </trkpt>
      <trkpt lat="43.43168" lon="6.51">
        <ele>62</ele>
        <time>2020-05-30T14:57:13.000Z</time>
      </trkpt>
      <trkpt lat="43.43169" lon="6.51006">
        <ele>61.200000762939</ele>
        <time>2020-05-30T14:57:14.000Z</time>
      </trkpt>
      <trkpt lat="43.4317" lon="6.51015">
        <ele>61.200000762939</ele>
        <time>2020-05-30T14:57:16.000Z</time>
      </trkpt>
      <trkpt lat="43.43173" lon="6.51025">
        <ele>59.200000762939</ele>
        <time>2020-05-30T14:57:18.000Z</time>
      </trkpt>
      <trkpt lat="43.43173" lon="6.51032">
        <ele>57.599998474121</ele>
        <time>2020-05-30T14:57:20.000Z</time>
      </trkpt>
      <trkpt lat="43.43176" lon="6.51036">
        <ele>56.799999237061</ele>
        <time>2020-05-30T14:57:22.000Z</time>
      </trkpt>
      <trkpt lat="43.43182" lon="6.51038">
        <ele>57.200000762939</ele>
        <time>2020-05-30T14:57:24.000Z</time>
      </trkpt>
      <trkpt lat="43.43215" lon="6.51042">
        <ele>56.799999237061</ele>
        <time>2020-05-30T14:57:33.000Z</time>
      </trkpt>
      <trkpt lat="43.43255" lon="6.51048">
        <ele>57</ele>
        <time>2020-05-30T14:57:43.000Z</time>
      </trkpt>
      <trkpt lat="43.43289" lon="6.51037">
        <ele>57.400001525879</ele>
        <time>2020-05-30T14:57:51.000Z</time>
      </trkpt>
      <trkpt lat="43.43301" lon="6.51032">
        <ele>57.599998474121</ele>
        <time>2020-05-30T14:57:54.000Z</time>
      </trkpt>
      <trkpt lat="43.43313" lon="6.51028">
        <ele>58</ele>
        <time>2020-05-30T14:57:57.000Z</time>
      </trkpt>
      <trkpt lat="43.43321" lon="6.51025">
        <ele>58</ele>
        <time>2020-05-30T14:57:59.000Z</time>
      </trkpt>
      <trkpt lat="43.43339" lon="6.51021">
        <ele>58.400001525879</ele>
        <time>2020-05-30T14:58:03.000Z</time>
      </trkpt>
      <trkpt lat="43.43347" lon="6.51021">
        <ele>58.599998474121</ele>
        <time>2020-05-30T14:58:05.000Z</time>
      </trkpt>
      <trkpt lat="43.43351" lon="6.51022">
        <ele>58.599998474121</ele>
        <time>2020-05-30T14:58:06.000Z</time>
      </trkpt>
      <trkpt lat="43.43369" lon="6.51029">
        <ele>58.799999237061</ele>
        <time>2020-05-30T14:58:10.000Z</time>
      </trkpt>
      <trkpt lat="43.43377" lon="6.51031">
        <ele>59</ele>
        <time>2020-05-30T14:58:12.000Z</time>
      </trkpt>
      <trkpt lat="43.43391" lon="6.51033">
        <ele>59.400001525879</ele>
        <time>2020-05-30T14:58:15.000Z</time>
      </trkpt>
      <trkpt lat="43.43399" lon="6.51037">
        <ele>59.599998474121</ele>
        <time>2020-05-30T14:58:17.000Z</time>
      </trkpt>
      <trkpt lat="43.43403" lon="6.5104">
        <ele>59.799999237061</ele>
        <time>2020-05-30T14:58:18.000Z</time>
      </trkpt>
      <trkpt lat="43.43415" lon="6.51048">
        <ele>60</ele>
        <time>2020-05-30T14:58:21.000Z</time>
      </trkpt>
      <trkpt lat="43.4342" lon="6.51049">
        <ele>60.200000762939</ele>
        <time>2020-05-30T14:58:22.000Z</time>
      </trkpt>
      <trkpt lat="43.43441" lon="6.51057">
        <ele>60.799999237061</ele>
        <time>2020-05-30T14:58:27.000Z</time>
      </trkpt>
      <trkpt lat="43.43444" lon="6.51059">
        <ele>60.799999237061</ele>
        <time>2020-05-30T14:58:28.000Z</time>
      </trkpt>
      <trkpt lat="43.43445" lon="6.51063">
        <ele>61</ele>
        <time>2020-05-30T14:58:30.000Z</time>
      </trkpt>
      <trkpt lat="43.43446" lon="6.51065">
        <ele>61.200000762939</ele>
        <time>2020-05-30T14:58:32.000Z</time>
      </trkpt>
      <trkpt lat="43.43452" lon="6.51067">
        <ele>61.400001525879</ele>
        <time>2020-05-30T14:58:35.000Z</time>
      </trkpt>
      <trkpt lat="43.43466" lon="6.51066">
        <ele>61.400001525879</ele>
        <time>2020-05-30T14:58:39.000Z</time>
      </trkpt>
      <trkpt lat="43.43483" lon="6.51076">
        <ele>61.599998474121</ele>
        <time>2020-05-30T14:58:44.000Z</time>
      </trkpt>
      <trkpt lat="43.43487" lon="6.51077">
        <ele>61.799999237061</ele>
        <time>2020-05-30T14:58:45.000Z</time>
      </trkpt>
      <trkpt lat="43.43509" lon="6.51077">
        <ele>61.200000762939</ele>
        <time>2020-05-30T14:58:49.000Z</time>
      </trkpt>
      <trkpt lat="43.43524" lon="6.51079">
        <ele>60.200000762939</ele>
        <time>2020-05-30T14:58:53.000Z</time>
      </trkpt>
      <trkpt lat="43.43527" lon="6.5108">
        <ele>59.599998474121</ele>
        <time>2020-05-30T14:58:55.000Z</time>
      </trkpt>
      <trkpt lat="43.43527" lon="6.5108">
        <ele>59.200000762939</ele>
        <time>2020-05-30T14:58:57.000Z</time>
      </trkpt>
      <trkpt lat="43.43524" lon="6.51082">
        <ele>59</ele>
        <time>2020-05-30T14:59:07.000Z</time>
      </trkpt>
      <trkpt lat="43.43524" lon="6.51082">
        <ele>59.400001525879</ele>
        <time>2020-05-30T14:59:14.000Z</time>
      </trkpt>
      <trkpt lat="43.43524" lon="6.51082">
        <ele>59.400001525879</ele>
        <time>2020-05-30T14:59:26.000Z</time>
      </trkpt>
      <trkpt lat="43.43524" lon="6.51082">
        <ele>59.200000762939</ele>
        <time>2020-05-30T14:59:31.000Z</time>
      </trkpt>
      <trkpt lat="43.43523" lon="6.51081">
        <ele>59.200000762939</ele>
        <time>2020-05-30T14:59:36.000Z</time>
      </trkpt>
      <trkpt lat="43.43523" lon="6.5108">
        <ele>59.400001525879</ele>
        <time>2020-05-30T14:59:46.000Z</time>
      </trkpt>
      <trkpt lat="43.43524" lon="6.51079">
        <ele>59.400001525879</ele>
        <time>2020-05-30T14:59:56.000Z</time>
      </trkpt>
      <trkpt lat="43.43523" lon="6.51079">
        <ele>59.200000762939</ele>
        <time>2020-05-30T15:00:20.000Z</time>
      </trkpt>
      <trkpt lat="43.43523" lon="6.5108">
        <ele>59.400001525879</ele>
        <time>2020-05-30T15:00:43.000Z</time>
      </trkpt>
      <trkpt lat="43.43522" lon="6.51083">
        <ele>59.400001525879</ele>
        <time>2020-05-30T15:01:07.000Z</time>
      </trkpt>
      <trkpt lat="43.43521" lon="6.51082">
        <ele>59.400001525879</ele>
        <time>2020-05-30T15:01:17.000Z</time>
      </trkpt>
      <trkpt lat="43.43521" lon="6.51082">
        <ele>59.400001525879</ele>
        <time>2020-05-30T15:01:19.000Z</time>
      </trkpt>
    </trkseg>
  </trk>
  <trk>
    <name><![CDATA[Les Arcs Cyclisme]]></name>
    <trkseg>
      <trkpt lat="43.44903" lon="6.48801">
        <ele>53.799999237061</ele>
        <time>2017-01-28T09:05:23.000Z</time>
      </trkpt>
      <trkpt lat="43.44901" lon="6.48799">
        <ele>53.400001525879</ele>
        <time>2017-01-28T09:05:32.000Z</time>
      </trkpt>
      <trkpt lat="43.44901" lon="6.48797">
        <ele>53.599998474121</ele>
        <time>2017-01-28T09:05:45.000Z</time>
      </trkpt>
      <trkpt lat="43.44901" lon="6.48796">
        <ele>53.400001525879</ele>
        <time>2017-01-28T09:05:53.000Z</time>
      </trkpt>
      <trkpt lat="43.44901" lon="6.48796">
        <ele>53.400001525879</ele>
        <time>2017-01-28T09:05:58.000Z</time>
      </trkpt>
      <trkpt lat="43.44901" lon="6.48795">
        <ele>53.799999237061</ele>
        <time>2017-01-28T09:06:09.000Z</time>
      </trkpt>
      <trkpt lat="43.44901" lon="6.48793">
        <ele>53.200000762939</ele>
        <time>2017-01-28T09:06:17.000Z</time>
      </trkpt>
      <trkpt lat="43.44902" lon="6.48789">
        <ele>53.799999237061</ele>
        <time>2017-01-28T09:06:24.000Z</time>
      </trkpt>
      <trkpt lat="43.44903" lon="6.48789">
        <ele>53.799999237061</ele>
        <time>2017-01-28T09:06:34.000Z</time>
      </trkpt>
      <trkpt lat="43.44903" lon="6.48787">
        <ele>54</ele>
        <time>2017-01-28T09:06:42.000Z</time>
      </trkpt>
      <trkpt lat="43.44903" lon="6.48785">
        <ele>54</ele>
        <time>2017-01-28T09:06:48.000Z</time>
      </trkpt>
      <trkpt lat="43.44903" lon="6.48783">
        <ele>53.400001525879</ele>
        <time>2017-01-28T09:06:53.000Z</time>
      </trkpt>
      <trkpt lat="43.44904" lon="6.48784">
        <ele>53.400001525879</ele>
        <time>2017-01-28T09:06:59.000Z</time>
      </trkpt>
      <trkpt lat="43.44903" lon="6.48787">
        <ele>53.799999237061</ele>
        <time>2017-01-28T09:07:01.000Z</time>
      </trkpt>
      <trkpt lat="43.44902" lon="6.4879">
        <ele>53.599998474121</ele>
        <time>2017-01-28T09:07:04.000Z</time>
      </trkpt>
      <trkpt lat="43.44902" lon="6.48794">
        <ele>53.599998474121</ele>
        <time>2017-01-28T09:07:07.000Z</time>
      </trkpt>
      <trkpt lat="43.44902" lon="6.48795">
        <ele>53.799999237061</ele>
        <time>2017-01-28T09:07:10.000Z</time>
      </trkpt>
      <trkpt lat="43.44902" lon="6.48796">
        <ele>53.400001525879</ele>
        <time>2017-01-28T09:07:15.000Z</time>
      </trkpt>
      <trkpt lat="43.44901" lon="6.48798">
        <ele>53.200000762939</ele>
        <time>2017-01-28T09:07:21.000Z</time>
      </trkpt>
      <trkpt lat="43.44901" lon="6.48799">
        <ele>53.400001525879</ele>
        <time>2017-01-28T09:07:26.000Z</time>
      </trkpt>
      <trkpt lat="43.44899" lon="6.48794">
        <ele>53.400001525879</ele>
        <time>2017-01-28T09:07:29.000Z</time>
      </trkpt>
      <trkpt lat="43.449" lon="6.4879">
        <ele>53.400001525879</ele>
        <time>2017-01-28T09:07:31.000Z</time>
      </trkpt>
      <trkpt lat="43.44901" lon="6.48787">
        <ele>53.400001525879</ele>
        <time>2017-01-28T09:07:33.000Z</time>
      </trkpt>
      <trkpt lat="43.44901" lon="6.48786">
        <ele>53.599998474121</ele>
        <time>2017-01-28T09:07:34.000Z</time>
      </trkpt>
      <trkpt lat="43.44901" lon="6.48779">
        <ele>53.599998474121</ele>
        <time>2017-01-28T09:07:38.000Z</time>
      </trkpt>
      <trkpt lat="43.44903" lon="6.48777">
        <ele>53.599998474121</ele>
        <time>2017-01-28T09:07:40.000Z</time>
      </trkpt>
      <trkpt lat="43.44905" lon="6.4878">
        <ele>53.799999237061</ele>
        <time>2017-01-28T09:07:44.000Z</time>
      </trkpt>
      <trkpt lat="43.44904" lon="6.48782">
        <ele>53.599998474121</ele>
        <time>2017-01-28T09:07:52.000Z</time>
      </trkpt>
      <trkpt lat="43.44905" lon="6.48783">
        <ele>53.799999237061</ele>
        <time>2017-01-28T09:08:16.000Z</time>
      </trkpt>
      <trkpt lat="43.44905" lon="6.48783">
        <ele>53.599998474121</ele>
        <time>2017-01-28T09:08:40.000Z</time>
      </trkpt>
      <trkpt lat="43.44906" lon="6.48784">
        <ele>53.599998474121</ele>
        <time>2017-01-28T09:08:57.000Z</time>
      </trkpt>
      <trkpt lat="43.44905" lon="6.48784">
        <ele>53.799999237061</ele>
        <time>2017-01-28T09:09:18.000Z</time>
      </trkpt>
      <trkpt lat="43.44906" lon="6.48785">
        <ele>53.599998474121</ele>
        <time>2017-01-28T09:09:34.000Z</time>
      </trkpt>
      <trkpt lat="43.44905" lon="6.48786">
        <ele>53.799999237061</ele>
        <time>2017-01-28T09:09:36.000Z</time>
      </trkpt>
      <trkpt lat="43.44903" lon="6.4879">
        <ele>53.599998474121</ele>
        <time>2017-01-28T09:09:39.000Z</time>
      </trkpt>
      <trkpt lat="43.44902" lon="6.48794">
        <ele>53.599998474121</ele>
        <time>2017-01-28T09:09:41.000Z</time>
      </trkpt>
      <trkpt lat="43.449" lon="6.48805">
        <ele>53.599998474121</ele>
        <time>2017-01-28T09:09:46.000Z</time>
      </trkpt>
      <trkpt lat="43.44895" lon="6.48828">
        <ele>53</ele>
        <time>2017-01-28T09:09:55.000Z</time>
      </trkpt>
      <trkpt lat="43.44892" lon="6.48846">
        <ele>52.799999237061</ele>
        <time>2017-01-28T09:10:00.000Z</time>
      </trkpt>
      <trkpt lat="43.44889" lon="6.48858">
        <ele>52.799999237061</ele>
        <time>2017-01-28T09:10:03.000Z</time>
      </trkpt>
      <trkpt lat="43.44879" lon="6.48899">
        <ele>52</ele>
        <time>2017-01-28T09:10:13.000Z</time>
      </trkpt>
      <trkpt lat="43.44867" lon="6.48933">
        <ele>52</ele>
        <time>2017-01-28T09:10:22.000Z</time>
      </trkpt>
      <trkpt lat="43.44856" lon="6.48959">
        <ele>51.799999237061</ele>
        <time>2017-01-28T09:10:29.000Z</time>
      </trkpt>
      <trkpt lat="43.44847" lon="6.48973">
        <ele>51.599998474121</ele>
        <time>2017-01-28T09:10:33.000Z</time>
      </trkpt>
      <trkpt lat="43.44828" lon="6.49">
        <ele>51.200000762939</ele>
        <time>2017-01-28T09:10:41.000Z</time>
      </trkpt>
      <trkpt lat="43.44805" lon="6.49029">
        <ele>50.799999237061</ele>
        <time>2017-01-28T09:10:50.000Z</time>
      </trkpt>
      <trkpt lat="43.44775" lon="6.49063">
        <ele>50.200000762939</ele>
        <time>2017-01-28T09:11:01.000Z</time>
      </trkpt>
      <trkpt lat="43.44747" lon="6.49095">
        <ele>50</ele>
        <time>2017-01-28T09:11:12.000Z</time>
      </trkpt>
      <trkpt lat="43.44732" lon="6.4912">
        <ele>49.799999237061</ele>
        <time>2017-01-28T09:11:19.000Z</time>
      </trkpt>
      <trkpt lat="43.44728" lon="6.49128">
        <ele>49.599998474121</ele>
        <time>2017-01-28T09:11:21.000Z</time>
      </trkpt>
      <trkpt lat="43.44716" lon="6.49156">
        <ele>49.599998474121</ele>
        <time>2017-01-28T09:11:28.000Z</time>
      </trkpt>
      <trkpt lat="43.44695" lon="6.49192">
        <ele>49.599998474121</ele>
        <time>2017-01-28T09:11:37.000Z</time>
      </trkpt>
      <trkpt lat="43.44677" lon="6.49217">
        <ele>49</ele>
        <time>2017-01-28T09:11:44.000Z</time>
      </trkpt>
      <trkpt lat="43.44669" lon="6.49228">
        <ele>48.599998474121</ele>
        <time>2017-01-28T09:11:47.000Z</time>
      </trkpt>
      <trkpt lat="43.44651" lon="6.49253">
        <ele>47.799999237061</ele>
        <time>2017-01-28T09:11:54.000Z</time>
      </trkpt>
      <trkpt lat="43.44636" lon="6.49275">
        <ele>48.400001525879</ele>
        <time>2017-01-28T09:12:00.000Z</time>
      </trkpt>
      <trkpt lat="43.44618" lon="6.49311">
        <ele>47.799999237061</ele>
        <time>2017-01-28T09:12:08.000Z</time>
      </trkpt>
      <trkpt lat="43.44613" lon="6.49321">
        <ele>47.599998474121</ele>
        <time>2017-01-28T09:12:10.000Z</time>
      </trkpt>
      <trkpt lat="43.44595" lon="6.49359">
        <ele>46.599998474121</ele>
        <time>2017-01-28T09:12:17.000Z</time>
      </trkpt>
      <trkpt lat="43.44592" lon="6.49366">
        <ele>46.400001525879</ele>
        <time>2017-01-28T09:12:18.000Z</time>
      </trkpt>
      <trkpt lat="43.44582" lon="6.49383">
        <ele>46.200000762939</ele>
        <time>2017-01-28T09:12:21.000Z</time>
      </trkpt>
      <trkpt lat="43.44571" lon="6.49405">
        <ele>45.400001525879</ele>
        <time>2017-01-28T09:12:25.000Z</time>
      </trkpt>
      <trkpt lat="43.44565" lon="6.49416">
        <ele>44.599998474121</ele>
        <time>2017-01-28T09:12:27.000Z</time>
      </trkpt>
      <trkpt lat="43.44559" lon="6.49425">
        <ele>44.400001525879</ele>
        <time>2017-01-28T09:12:29.000Z</time>
      </trkpt>
      <trkpt lat="43.44552" lon="6.49437">
        <ele>44.599998474121</ele>
        <time>2017-01-28T09:12:32.000Z</time>
      </trkpt>
      <trkpt lat="43.4454" lon="6.49454">
        <ele>44.799999237061</ele>
        <time>2017-01-28T09:12:36.000Z</time>
      </trkpt>
      <trkpt lat="43.44512" lon="6.49487">
        <ele>45.400001525879</ele>
        <time>2017-01-28T09:12:45.000Z</time>
      </trkpt>
      <trkpt lat="43.44487" lon="6.49509">
        <ele>45.799999237061</ele>
        <time>2017-01-28T09:12:53.000Z</time>
      </trkpt>
      <trkpt lat="43.44463" lon="6.49525">
        <ele>46.400001525879</ele>
        <time>2017-01-28T09:13:00.000Z</time>
      </trkpt>
      <trkpt lat="43.44459" lon="6.49528">
        <ele>46.400001525879</ele>
        <time>2017-01-28T09:13:01.000Z</time>
      </trkpt>
      <trkpt lat="43.4444" lon="6.49554">
        <ele>46.799999237061</ele>
        <time>2017-01-28T09:13:08.000Z</time>
      </trkpt>
      <trkpt lat="43.4443" lon="6.4958">
        <ele>47</ele>
        <time>2017-01-28T09:13:14.000Z</time>
      </trkpt>
      <trkpt lat="43.44424" lon="6.49615">
        <ele>46.599998474121</ele>
        <time>2017-01-28T09:13:21.000Z</time>
      </trkpt>
      <trkpt lat="43.44417" lon="6.49666">
        <ele>46.799999237061</ele>
        <time>2017-01-28T09:13:31.000Z</time>
      </trkpt>
      <trkpt lat="43.44409" lon="6.49696">
        <ele>47.599998474121</ele>
        <time>2017-01-28T09:13:38.000Z</time>
      </trkpt>
      <trkpt lat="43.44396" lon="6.49711">
        <ele>48.799999237061</ele>
        <time>2017-01-28T09:13:43.000Z</time>
      </trkpt>
      <trkpt lat="43.44391" lon="6.49717">
        <ele>49</ele>
        <time>2017-01-28T09:13:45.000Z</time>
      </trkpt>
      <trkpt lat="43.44376" lon="6.49735">
        <ele>49.799999237061</ele>
        <time>2017-01-28T09:13:51.000Z</time>
      </trkpt>
      <trkpt lat="43.44363" lon="6.49751">
        <ele>50</ele>
        <time>2017-01-28T09:13:56.000Z</time>
      </trkpt>
      <trkpt lat="43.44343" lon="6.49776">
        <ele>49.799999237061</ele>
        <time>2017-01-28T09:14:03.000Z</time>
      </trkpt>
      <trkpt lat="43.4433" lon="6.4979">
        <ele>49.400001525879</ele>
        <time>2017-01-28T09:14:07.000Z</time>
      </trkpt>
      <trkpt lat="43.4432" lon="6.49797">
        <ele>49.200000762939</ele>
        <time>2017-01-28T09:14:10.000Z</time>
      </trkpt>
      <trkpt lat="43.44298" lon="6.49811">
        <ele>49.400001525879</ele>
        <time>2017-01-28T09:14:16.000Z</time>
      </trkpt>
      <trkpt lat="43.44276" lon="6.49839">
        <ele>49.599998474121</ele>
        <time>2017-01-28T09:14:24.000Z</time>
      </trkpt>
      <trkpt lat="43.44251" lon="6.49869">
        <ele>50.400001525879</ele>
        <time>2017-01-28T09:14:33.000Z</time>
      </trkpt>
      <trkpt lat="43.44219" lon="6.49892">
        <ele>50.200000762939</ele>
        <time>2017-01-28T09:14:42.000Z</time>
      </trkpt>
      <trkpt lat="43.44187" lon="6.49905">
        <ele>49.400001525879</ele>
        <time>2017-01-28T09:14:50.000Z</time>
      </trkpt>
      <trkpt lat="43.44156" lon="6.49908">
        <ele>48.799999237061</ele>
        <time>2017-01-28T09:14:57.000Z</time>
      </trkpt>
      <trkpt lat="43.44152" lon="6.49908">
        <ele>48.799999237061</ele>
        <time>2017-01-28T09:14:58.000Z</time>
      </trkpt>
      <trkpt lat="43.44147" lon="6.49908">
        <ele>48.799999237061</ele>
        <time>2017-01-28T09:14:59.000Z</time>
      </trkpt>
      <trkpt lat="43.44134" lon="6.49907">
        <ele>48.799999237061</ele>
        <time>2017-01-28T09:15:02.000Z</time>
      </trkpt>
      <trkpt lat="43.44113" lon="6.499">
        <ele>48.599998474121</ele>
        <time>2017-01-28T09:15:07.000Z</time>
      </trkpt>
      <trkpt lat="43.44109" lon="6.49899">
        <ele>48.400001525879</ele>
        <time>2017-01-28T09:15:08.000Z</time>
      </trkpt>
      <trkpt lat="43.44096" lon="6.49896">
        <ele>48.400001525879</ele>
        <time>2017-01-28T09:15:11.000Z</time>
      </trkpt>
      <trkpt lat="43.44082" lon="6.49896">
        <ele>48.799999237061</ele>
        <time>2017-01-28T09:15:14.000Z</time>
      </trkpt>
      <trkpt lat="43.44069" lon="6.49896">
        <ele>48.599998474121</ele>
        <time>2017-01-28T09:15:17.000Z</time>
      </trkpt>
      <trkpt lat="43.4405" lon="6.499">
        <ele>48</ele>
        <time>2017-01-28T09:15:21.000Z</time>
      </trkpt>
      <trkpt lat="43.44046" lon="6.49902">
        <ele>48</ele>
        <time>2017-01-28T09:15:22.000Z</time>
      </trkpt>
      <trkpt lat="43.44029" lon="6.49912">
        <ele>48.200000762939</ele>
        <time>2017-01-28T09:15:26.000Z</time>
      </trkpt>
      <trkpt lat="43.44022" lon="6.4992">
        <ele>48.200000762939</ele>
        <time>2017-01-28T09:15:28.000Z</time>
      </trkpt>
      <trkpt lat="43.44015" lon="6.49928">
        <ele>48</ele>
        <time>2017-01-28T09:15:30.000Z</time>
      </trkpt>
      <trkpt lat="43.44009" lon="6.49938">
        <ele>48</ele>
        <time>2017-01-28T09:15:32.000Z</time>
      </trkpt>
      <trkpt lat="43.44004" lon="6.49948">
        <ele>48</ele>
        <time>2017-01-28T09:15:34.000Z</time>
      </trkpt>
      <trkpt lat="43.43998" lon="6.4997">
        <ele>48</ele>
        <time>2017-01-28T09:15:38.000Z</time>
      </trkpt>
      <trkpt lat="43.43988" lon="6.50018">
        <ele>48.200000762939</ele>
        <time>2017-01-28T09:15:47.000Z</time>
      </trkpt>
      <trkpt lat="43.43977" lon="6.50058">
        <ele>48.599998474121</ele>
        <time>2017-01-28T09:15:55.000Z</time>
      </trkpt>
      <trkpt lat="43.43972" lon="6.50093">
        <ele>49.200000762939</ele>
        <time>2017-01-28T09:16:02.000Z</time>
      </trkpt>
      <trkpt lat="43.43974" lon="6.50129">
        <ele>49.400001525879</ele>
        <time>2017-01-28T09:16:09.000Z</time>
      </trkpt>
      <trkpt lat="43.43978" lon="6.50158">
        <ele>49.799999237061</ele>
        <time>2017-01-28T09:16:15.000Z</time>
      </trkpt>
      <trkpt lat="43.4398" lon="6.50173">
        <ele>49.799999237061</ele>
        <time>2017-01-28T09:16:18.000Z</time>
      </trkpt>
      <trkpt lat="43.43987" lon="6.50204">
        <ele>50.799999237061</ele>
        <time>2017-01-28T09:16:25.000Z</time>
      </trkpt>
      <trkpt lat="43.43997" lon="6.5024">
        <ele>51.400001525879</ele>
        <time>2017-01-28T09:16:33.000Z</time>
      </trkpt>
      <trkpt lat="43.44009" lon="6.50286">
        <ele>51.400001525879</ele>
        <time>2017-01-28T09:16:42.000Z</time>
      </trkpt>
      <trkpt lat="43.44017" lon="6.50321">
        <ele>51</ele>
        <time>2017-01-28T09:16:49.000Z</time>
      </trkpt>
      <trkpt lat="43.44036" lon="6.50359">
        <ele>50.799999237061</ele>
        <time>2017-01-28T09:16:57.000Z</time>
      </trkpt>
      <trkpt lat="43.44047" lon="6.50386">
        <ele>50.400001525879</ele>
        <time>2017-01-28T09:17:02.000Z</time>
      </trkpt>
      <trkpt lat="43.44052" lon="6.50395">
        <ele>50.200000762939</ele>
        <time>2017-01-28T09:17:04.000Z</time>
      </trkpt>
      <trkpt lat="43.44062" lon="6.50409">
        <ele>49.799999237061</ele>
        <time>2017-01-28T09:17:07.000Z</time>
      </trkpt>
      <trkpt lat="43.44068" lon="6.50418">
        <ele>49.599998474121</ele>
        <time>2017-01-28T09:17:09.000Z</time>
      </trkpt>
      <trkpt lat="43.44073" lon="6.50427">
        <ele>49.400001525879</ele>
        <time>2017-01-28T09:17:11.000Z</time>
      </trkpt>
      <trkpt lat="43.44079" lon="6.50444">
        <ele>49.200000762939</ele>
        <time>2017-01-28T09:17:14.000Z</time>
      </trkpt>
      <trkpt lat="43.44085" lon="6.5046">
        <ele>49.200000762939</ele>
        <time>2017-01-28T09:17:17.000Z</time>
      </trkpt>
      <trkpt lat="43.441" lon="6.50499">
        <ele>48.799999237061</ele>
        <time>2017-01-28T09:17:24.000Z</time>
      </trkpt>
      <trkpt lat="43.441" lon="6.50505">
        <ele>48.799999237061</ele>
        <time>2017-01-28T09:17:25.000Z</time>
      </trkpt>
      <trkpt lat="43.44096" lon="6.50523">
        <ele>48.599998474121</ele>
        <time>2017-01-28T09:17:28.000Z</time>
      </trkpt>
      <trkpt lat="43.44089" lon="6.5054">
        <ele>48.599998474121</ele>
        <time>2017-01-28T09:17:31.000Z</time>
      </trkpt>
      <trkpt lat="43.44087" lon="6.50559">
        <ele>48.400001525879</ele>
        <time>2017-01-28T09:17:34.000Z</time>
      </trkpt>
      <trkpt lat="43.44088" lon="6.50565">
        <ele>48.400001525879</ele>
        <time>2017-01-28T09:17:35.000Z</time>
      </trkpt>
      <trkpt lat="43.44089" lon="6.50571">
        <ele>48.200000762939</ele>
        <time>2017-01-28T09:17:36.000Z</time>
      </trkpt>
      <trkpt lat="43.44095" lon="6.50588">
        <ele>47.799999237061</ele>
        <time>2017-01-28T09:17:39.000Z</time>
      </trkpt>
      <trkpt lat="43.44109" lon="6.50625">
        <ele>47.599998474121</ele>
        <time>2017-01-28T09:17:46.000Z</time>
      </trkpt>
      <trkpt lat="43.4411" lon="6.5063">
        <ele>47.599998474121</ele>
        <time>2017-01-28T09:17:47.000Z</time>
      </trkpt>
      <trkpt lat="43.44113" lon="6.50684">
        <ele>47.400001525879</ele>
        <time>2017-01-28T09:17:56.000Z</time>
      </trkpt>
      <trkpt lat="43.44111" lon="6.5074">
        <ele>47.400001525879</ele>
        <time>2017-01-28T09:18:05.000Z</time>
      </trkpt>
      <trkpt lat="43.44106" lon="6.50808">
        <ele>46.799999237061</ele>
        <time>2017-01-28T09:18:15.000Z</time>
      </trkpt>
      <trkpt lat="43.441" lon="6.50865">
        <ele>46.400001525879</ele>
        <time>2017-01-28T09:18:24.000Z</time>
      </trkpt>
      <trkpt lat="43.44095" lon="6.50889">
        <ele>46.599998474121</ele>
        <time>2017-01-28T09:18:28.000Z</time>
      </trkpt>
      <trkpt lat="43.4409" lon="6.50905">
        <ele>46.599998474121</ele>
        <time>2017-01-28T09:18:31.000Z</time>
      </trkpt>
      <trkpt lat="43.44078" lon="6.50928">
        <ele>46.799999237061</ele>
        <time>2017-01-28T09:18:36.000Z</time>
      </trkpt>
      <trkpt lat="43.44068" lon="6.50943">
        <ele>46.799999237061</ele>
        <time>2017-01-28T09:18:39.000Z</time>
      </trkpt>
      <trkpt lat="43.44046" lon="6.50983">
        <ele>46.599998474121</ele>
        <time>2017-01-28T09:18:47.000Z</time>
      </trkpt>
      <trkpt lat="43.4403" lon="6.5103">
        <ele>45.599998474121</ele>
        <time>2017-01-28T09:18:55.000Z</time>
      </trkpt>
      <trkpt lat="43.44011" lon="6.51082">
        <ele>45.599998474121</ele>
        <time>2017-01-28T09:19:04.000Z</time>
      </trkpt>
      <trkpt lat="43.43995" lon="6.51107">
        <ele>45.799999237061</ele>
        <time>2017-01-28T09:19:10.000Z</time>
      </trkpt>
      <trkpt lat="43.43974" lon="6.51137">
        <ele>46</ele>
        <time>2017-01-28T09:19:17.000Z</time>
      </trkpt>
      <trkpt lat="43.43972" lon="6.51142">
        <ele>46</ele>
        <time>2017-01-28T09:19:18.000Z</time>
      </trkpt>
      <trkpt lat="43.43967" lon="6.51159">
        <ele>46</ele>
        <time>2017-01-28T09:19:21.000Z</time>
      </trkpt>
      <trkpt lat="43.43966" lon="6.51177">
        <ele>46.400001525879</ele>
        <time>2017-01-28T09:19:24.000Z</time>
      </trkpt>
      <trkpt lat="43.43964" lon="6.51194">
        <ele>46.599998474121</ele>
        <time>2017-01-28T09:19:27.000Z</time>
      </trkpt>
      <trkpt lat="43.43957" lon="6.51218">
        <ele>47.599998474121</ele>
        <time>2017-01-28T09:19:32.000Z</time>
      </trkpt>
      <trkpt lat="43.43955" lon="6.51221">
        <ele>47.799999237061</ele>
        <time>2017-01-28T09:19:33.000Z</time>
      </trkpt>
      <trkpt lat="43.43941" lon="6.51237">
        <ele>48.400001525879</ele>
        <time>2017-01-28T09:19:38.000Z</time>
      </trkpt>
      <trkpt lat="43.43922" lon="6.51249">
        <ele>48.799999237061</ele>
        <time>2017-01-28T09:19:44.000Z</time>
      </trkpt>
      <trkpt lat="43.43919" lon="6.51251">
        <ele>49</ele>
        <time>2017-01-28T09:19:45.000Z</time>
      </trkpt>
      <trkpt lat="43.43895" lon="6.51264">
        <ele>49</ele>
        <time>2017-01-28T09:19:51.000Z</time>
      </trkpt>
      <trkpt lat="43.43864" lon="6.51279">
        <ele>48.200000762939</ele>
        <time>2017-01-28T09:19:58.000Z</time>
      </trkpt>
      <trkpt lat="43.4385" lon="6.51283">
        <ele>47.799999237061</ele>
        <time>2017-01-28T09:20:01.000Z</time>
      </trkpt>
      <trkpt lat="43.4384" lon="6.51284">
        <ele>47.400001525879</ele>
        <time>2017-01-28T09:20:03.000Z</time>
      </trkpt>
      <trkpt lat="43.43825" lon="6.51286">
        <ele>47</ele>
        <time>2017-01-28T09:20:06.000Z</time>
      </trkpt>
      <trkpt lat="43.43817" lon="6.51293">
        <ele>46.799999237061</ele>
        <time>2017-01-28T09:20:08.000Z</time>
      </trkpt>
      <trkpt lat="43.43813" lon="6.51297">
        <ele>46.799999237061</ele>
        <time>2017-01-28T09:20:09.000Z</time>
      </trkpt>
      <trkpt lat="43.43809" lon="6.51301">
        <ele>46.799999237061</ele>
        <time>2017-01-28T09:20:10.000Z</time>
      </trkpt>
      <trkpt lat="43.43805" lon="6.51305">
        <ele>46.599998474121</ele>
        <time>2017-01-28T09:20:11.000Z</time>
      </trkpt>
      <trkpt lat="43.43795" lon="6.51309">
        <ele>46.400001525879</ele>
        <time>2017-01-28T09:20:13.000Z</time>
      </trkpt>
      <trkpt lat="43.43783" lon="6.51303">
        <ele>46</ele>
        <time>2017-01-28T09:20:16.000Z</time>
      </trkpt>
      <trkpt lat="43.43779" lon="6.513">
        <ele>45.799999237061</ele>
        <time>2017-01-28T09:20:17.000Z</time>
      </trkpt>
      <trkpt lat="43.43775" lon="6.51296">
        <ele>45.799999237061</ele>
        <time>2017-01-28T09:20:18.000Z</time>
      </trkpt>
      <trkpt lat="43.43766" lon="6.51292">
        <ele>45.799999237061</ele>
        <time>2017-01-28T09:20:20.000Z</time>
      </trkpt>
      <trkpt lat="43.43757" lon="6.51289">
        <ele>45.799999237061</ele>
        <time>2017-01-28T09:20:22.000Z</time>
      </trkpt>
      <trkpt lat="43.43749" lon="6.51289">
        <ele>45.799999237061</ele>
        <time>2017-01-28T09:20:24.000Z</time>
      </trkpt>
      <trkpt lat="43.43738" lon="6.5129">
        <ele>46</ele>
        <time>2017-01-28T09:20:27.000Z</time>
      </trkpt>
      <trkpt lat="43.43722" lon="6.51287">
        <ele>46.400001525879</ele>
        <time>2017-01-28T09:20:31.000Z</time>
      </trkpt>
      <trkpt lat="43.43711" lon="6.51282">
        <ele>46.799999237061</ele>
        <time>2017-01-28T09:20:34.000Z</time>
      </trkpt>
      <trkpt lat="43.43696" lon="6.51273">
        <ele>47.599998474121</ele>
        <time>2017-01-28T09:20:38.000Z</time>
      </trkpt>
      <trkpt lat="43.4369" lon="6.51266">
        <ele>47.799999237061</ele>
        <time>2017-01-28T09:20:40.000Z</time>
      </trkpt>
      <trkpt lat="43.43675" lon="6.5125">
        <ele>47.799999237061</ele>
        <time>2017-01-28T09:20:44.000Z</time>
      </trkpt>
      <trkpt lat="43.43671" lon="6.51247">
        <ele>47.799999237061</ele>
        <time>2017-01-28T09:20:45.000Z</time>
      </trkpt>
      <trkpt lat="43.4365" lon="6.51237">
        <ele>47</ele>
        <time>2017-01-28T09:20:49.000Z</time>
      </trkpt>
      <trkpt lat="43.43622" lon="6.51225">
        <ele>45.799999237061</ele>
        <time>2017-01-28T09:20:54.000Z</time>
      </trkpt>
      <trkpt lat="43.43617" lon="6.51222">
        <ele>45.400001525879</ele>
        <time>2017-01-28T09:20:55.000Z</time>
      </trkpt>
      <trkpt lat="43.43605" lon="6.51214">
        <ele>44.599998474121</ele>
        <time>2017-01-28T09:20:57.000Z</time>
      </trkpt>
      <trkpt lat="43.4358" lon="6.51196">
        <ele>43.400001525879</ele>
        <time>2017-01-28T09:21:01.000Z</time>
      </trkpt>
      <trkpt lat="43.43574" lon="6.51191">
        <ele>43</ele>
        <time>2017-01-28T09:21:02.000Z</time>
      </trkpt>
      <trkpt lat="43.43562" lon="6.51179">
        <ele>42.200000762939</ele>
        <time>2017-01-28T09:21:04.000Z</time>
      </trkpt>
      <trkpt lat="43.43553" lon="6.51166">
        <ele>41.599998474121</ele>
        <time>2017-01-28T09:21:06.000Z</time>
      </trkpt>
      <trkpt lat="43.43547" lon="6.5115">
        <ele>41</ele>
        <time>2017-01-28T09:21:08.000Z</time>
      </trkpt>
      <trkpt lat="43.43546" lon="6.51141">
        <ele>40.599998474121</ele>
        <time>2017-01-28T09:21:09.000Z</time>
      </trkpt>
      <trkpt lat="43.4355" lon="6.51117">
        <ele>39.599998474121</ele>
        <time>2017-01-28T09:21:12.000Z</time>
      </trkpt>
      <trkpt lat="43.43551" lon="6.5111">
        <ele>39.400001525879</ele>
        <time>2017-01-28T09:21:13.000Z</time>
      </trkpt>
      <trkpt lat="43.43553" lon="6.51097">
        <ele>39.200000762939</ele>
        <time>2017-01-28T09:21:15.000Z</time>
      </trkpt>
      <trkpt lat="43.43551" lon="6.51086">
        <ele>39.400001525879</ele>
        <time>2017-01-28T09:21:17.000Z</time>
      </trkpt>
      <trkpt lat="43.43538" lon="6.51075">
        <ele>39.599998474121</ele>
        <time>2017-01-28T09:21:21.000Z</time>
      </trkpt>
      <trkpt lat="43.43531" lon="6.51074">
        <ele>40</ele>
        <time>2017-01-28T09:21:23.000Z</time>
      </trkpt>
      <trkpt lat="43.43517" lon="6.51072">
        <ele>40.599998474121</ele>
        <time>2017-01-28T09:21:27.000Z</time>
      </trkpt>
      <trkpt lat="43.43501" lon="6.51072">
        <ele>41.599998474121</ele>
        <time>2017-01-28T09:21:32.000Z</time>
      </trkpt>
      <trkpt lat="43.43495" lon="6.51072">
        <ele>42.200000762939</ele>
        <time>2017-01-28T09:21:34.000Z</time>
      </trkpt>
      <trkpt lat="43.43486" lon="6.51069">
        <ele>42.799999237061</ele>
        <time>2017-01-28T09:21:37.000Z</time>
      </trkpt>
      <trkpt lat="43.43477" lon="6.51064">
        <ele>43.400001525879</ele>
        <time>2017-01-28T09:21:40.000Z</time>
      </trkpt>
      <trkpt lat="43.43452" lon="6.51054">
        <ele>43.599998474121</ele>
        <time>2017-01-28T09:21:47.000Z</time>
      </trkpt>
      <trkpt lat="43.43424" lon="6.51045">
        <ele>42.799999237061</ele>
        <time>2017-01-28T09:21:54.000Z</time>
      </trkpt>
      <trkpt lat="43.43408" lon="6.51036">
        <ele>42.400001525879</ele>
        <time>2017-01-28T09:21:58.000Z</time>
      </trkpt>
      <trkpt lat="43.43396" lon="6.5103">
        <ele>42.400001525879</ele>
        <time>2017-01-28T09:22:01.000Z</time>
      </trkpt>
      <trkpt lat="43.43382" lon="6.51028">
        <ele>42.200000762939</ele>
        <time>2017-01-28T09:22:04.000Z</time>
      </trkpt>
      <trkpt lat="43.43373" lon="6.51026">
        <ele>42</ele>
        <time>2017-01-28T09:22:06.000Z</time>
      </trkpt>
      <trkpt lat="43.43368" lon="6.51024">
        <ele>41.799999237061</ele>
        <time>2017-01-28T09:22:07.000Z</time>
      </trkpt>
      <trkpt lat="43.43358" lon="6.51021">
        <ele>41.400001525879</ele>
        <time>2017-01-28T09:22:09.000Z</time>
      </trkpt>
      <trkpt lat="43.43349" lon="6.51019">
        <ele>41.200000762939</ele>
        <time>2017-01-28T09:22:11.000Z</time>
      </trkpt>
      <trkpt lat="43.43344" lon="6.51019">
        <ele>41.200000762939</ele>
        <time>2017-01-28T09:22:12.000Z</time>
      </trkpt>
      <trkpt lat="43.4333" lon="6.51022">
        <ele>41</ele>
        <time>2017-01-28T09:22:15.000Z</time>
      </trkpt>
      <trkpt lat="43.43321" lon="6.51025">
        <ele>40.799999237061</ele>
        <time>2017-01-28T09:22:17.000Z</time>
      </trkpt>
      <trkpt lat="43.43316" lon="6.51027">
        <ele>40.599998474121</ele>
        <time>2017-01-28T09:22:18.000Z</time>
      </trkpt>
      <trkpt lat="43.43284" lon="6.5104">
        <ele>40.200000762939</ele>
        <time>2017-01-28T09:22:25.000Z</time>
      </trkpt>
      <trkpt lat="43.43266" lon="6.51046">
        <ele>39.599998474121</ele>
        <time>2017-01-28T09:22:29.000Z</time>
      </trkpt>
      <trkpt lat="43.43257" lon="6.51047">
        <ele>39.599998474121</ele>
        <time>2017-01-28T09:22:31.000Z</time>
      </trkpt>
      <trkpt lat="43.43252" lon="6.51047">
        <ele>39.599998474121</ele>
        <time>2017-01-28T09:22:32.000Z</time>
      </trkpt>
      <trkpt lat="43.4322" lon="6.51042">
        <ele>39</ele>
        <time>2017-01-28T09:22:39.000Z</time>
      </trkpt>
      <trkpt lat="43.43186" lon="6.51038">
        <ele>39</ele>
        <time>2017-01-28T09:22:47.000Z</time>
      </trkpt>
      <trkpt lat="43.43178" lon="6.51038">
        <ele>39.400001525879</ele>
        <time>2017-01-28T09:22:49.000Z</time>
      </trkpt>
      <trkpt lat="43.43172" lon="6.51042">
        <ele>39.599998474121</ele>
        <time>2017-01-28T09:22:51.000Z</time>
      </trkpt>
      <trkpt lat="43.43168" lon="6.51056">
        <ele>40.400001525879</ele>
        <time>2017-01-28T09:22:55.000Z</time>
      </trkpt>
      <trkpt lat="43.43168" lon="6.5106">
        <ele>40.599998474121</ele>
        <time>2017-01-28T09:22:56.000Z</time>
      </trkpt>
      <trkpt lat="43.43167" lon="6.51063">
        <ele>40.799999237061</ele>
        <time>2017-01-28T09:22:57.000Z</time>
      </trkpt>
      <trkpt lat="43.43163" lon="6.51078">
        <ele>42</ele>
        <time>2017-01-28T09:23:02.000Z</time>
      </trkpt>
      <trkpt lat="43.43162" lon="6.51081">
        <ele>42.200000762939</ele>
        <time>2017-01-28T09:23:03.000Z</time>
      </trkpt>
      <trkpt lat="43.43154" lon="6.5109">
        <ele>43.200000762939</ele>
        <time>2017-01-28T09:23:07.000Z</time>
      </trkpt>
      <trkpt lat="43.43151" lon="6.51094">
        <ele>43.599998474121</ele>
        <time>2017-01-28T09:23:09.000Z</time>
      </trkpt>
      <trkpt lat="43.43147" lon="6.51098">
        <ele>44.200000762939</ele>
        <time>2017-01-28T09:23:11.000Z</time>
      </trkpt>
      <trkpt lat="43.43134" lon="6.51109">
        <ele>45.200000762939</ele>
        <time>2017-01-28T09:23:17.000Z</time>
      </trkpt>
      <trkpt lat="43.43132" lon="6.51111">
        <ele>45.400001525879</ele>
        <time>2017-01-28T09:23:18.000Z</time>
      </trkpt>
      <trkpt lat="43.43119" lon="6.51119">
        <ele>46.400001525879</ele>
        <time>2017-01-28T09:23:24.000Z</time>
      </trkpt>
      <trkpt lat="43.4311" lon="6.51123">
        <ele>47.400001525879</ele>
        <time>2017-01-28T09:23:28.000Z</time>
      </trkpt>
      <trkpt lat="43.43108" lon="6.51124">
        <ele>47.599998474121</ele>
        <time>2017-01-28T09:23:29.000Z</time>
      </trkpt>
      <trkpt lat="43.43098" lon="6.51128">
        <ele>48.599998474121</ele>
        <time>2017-01-28T09:23:33.000Z</time>
      </trkpt>
      <trkpt lat="43.4309" lon="6.5113">
        <ele>48.799999237061</ele>
        <time>2017-01-28T09:23:36.000Z</time>
      </trkpt>
      <trkpt lat="43.4307" lon="6.51127">
        <ele>48.400001525879</ele>
        <time>2017-01-28T09:23:42.000Z</time>
      </trkpt>
      <trkpt lat="43.43046" lon="6.51115">
        <ele>47.799999237061</ele>
        <time>2017-01-28T09:23:49.000Z</time>
      </trkpt>
      <trkpt lat="43.43033" lon="6.51101">
        <ele>48.200000762939</ele>
        <time>2017-01-28T09:23:54.000Z</time>
      </trkpt>
      <trkpt lat="43.43026" lon="6.51095">
        <ele>48.200000762939</ele>
        <time>2017-01-28T09:23:58.000Z</time>
      </trkpt>
      <trkpt lat="43.43024" lon="6.51095">
        <ele>48.200000762939</ele>
        <time>2017-01-28T09:23:59.000Z</time>
      </trkpt>
      <trkpt lat="43.43017" lon="6.511">
        <ele>48.200000762939</ele>
        <time>2017-01-28T09:24:02.000Z</time>
      </trkpt>
      <trkpt lat="43.43014" lon="6.51107">
        <ele>48</ele>
        <time>2017-01-28T09:24:04.000Z</time>
      </trkpt>
      <trkpt lat="43.4301" lon="6.51119">
        <ele>48</ele>
        <time>2017-01-28T09:24:07.000Z</time>
      </trkpt>
      <trkpt lat="43.43003" lon="6.51144">
        <ele>48.400001525879</ele>
        <time>2017-01-28T09:24:13.000Z</time>
      </trkpt>
      <trkpt lat="43.42998" lon="6.51157">
        <ele>48.599998474121</ele>
        <time>2017-01-28T09:24:17.000Z</time>
      </trkpt>
      <trkpt lat="43.42993" lon="6.51172">
        <ele>49.200000762939</ele>
        <time>2017-01-28T09:24:24.000Z</time>
      </trkpt>
      <trkpt lat="43.42988" lon="6.51181">
        <ele>49.599998474121</ele>
        <time>2017-01-28T09:24:29.000Z</time>
      </trkpt>
      <trkpt lat="43.42987" lon="6.51183">
        <ele>49.799999237061</ele>
        <time>2017-01-28T09:24:30.000Z</time>
      </trkpt>
      <trkpt lat="43.4298" lon="6.51193">
        <ele>50.799999237061</ele>
        <time>2017-01-28T09:24:35.000Z</time>
      </trkpt>
      <trkpt lat="43.42979" lon="6.51195">
        <ele>50.799999237061</ele>
        <time>2017-01-28T09:24:36.000Z</time>
      </trkpt>
      <trkpt lat="43.42974" lon="6.512">
        <ele>51.400001525879</ele>
        <time>2017-01-28T09:24:39.000Z</time>
      </trkpt>
      <trkpt lat="43.42973" lon="6.51202">
        <ele>51.799999237061</ele>
        <time>2017-01-28T09:24:40.000Z</time>
      </trkpt>
      <trkpt lat="43.4297" lon="6.51206">
        <ele>52.200000762939</ele>
        <time>2017-01-28T09:24:42.000Z</time>
      </trkpt>
      <trkpt lat="43.42964" lon="6.51214">
        <ele>52.799999237061</ele>
        <time>2017-01-28T09:24:46.000Z</time>
      </trkpt>
      <trkpt lat="43.42961" lon="6.51221">
        <ele>53</ele>
        <time>2017-01-28T09:24:49.000Z</time>
      </trkpt>
      <trkpt lat="43.42955" lon="6.51233">
        <ele>53.799999237061</ele>
        <time>2017-01-28T09:24:54.000Z</time>
      </trkpt>
      <trkpt lat="43.42953" lon="6.51241">
        <ele>54.200000762939</ele>
        <time>2017-01-28T09:24:57.000Z</time>
      </trkpt>
      <trkpt lat="43.42949" lon="6.51252">
        <ele>55</ele>
        <time>2017-01-28T09:25:01.000Z</time>
      </trkpt>
      <trkpt lat="43.42947" lon="6.51259">
        <ele>55.599998474121</ele>
        <time>2017-01-28T09:25:04.000Z</time>
      </trkpt>
      <trkpt lat="43.42945" lon="6.51264">
        <ele>56</ele>
        <time>2017-01-28T09:25:06.000Z</time>
      </trkpt>
      <trkpt lat="43.42938" lon="6.51282">
        <ele>57.200000762939</ele>
        <time>2017-01-28T09:25:13.000Z</time>
      </trkpt>
      <trkpt lat="43.42931" lon="6.51296">
        <ele>58.200000762939</ele>
        <time>2017-01-28T09:25:19.000Z</time>
      </trkpt>
      <trkpt lat="43.42929" lon="6.513">
        <ele>58.400001525879</ele>
        <time>2017-01-28T09:25:21.000Z</time>
      </trkpt>
      <trkpt lat="43.42924" lon="6.51309">
        <ele>59.200000762939</ele>
        <time>2017-01-28T09:25:25.000Z</time>
      </trkpt>
      <trkpt lat="43.42922" lon="6.51312">
        <ele>59.400001525879</ele>
        <time>2017-01-28T09:25:26.000Z</time>
      </trkpt>
      <trkpt lat="43.42917" lon="6.51326">
        <ele>60.200000762939</ele>
        <time>2017-01-28T09:25:32.000Z</time>
      </trkpt>
      <trkpt lat="43.42916" lon="6.51329">
        <ele>60.400001525879</ele>
        <time>2017-01-28T09:25:33.000Z</time>
      </trkpt>
      <trkpt lat="43.4291" lon="6.51344">
        <ele>61.200000762939</ele>
        <time>2017-01-28T09:25:39.000Z</time>
      </trkpt>
      <trkpt lat="43.42908" lon="6.51348">
        <ele>61.400001525879</ele>
        <time>2017-01-28T09:25:41.000Z</time>
      </trkpt>
      <trkpt lat="43.42902" lon="6.5136">
        <ele>62.400001525879</ele>
        <time>2017-01-28T09:25:46.000Z</time>
      </trkpt>
      <trkpt lat="43.42897" lon="6.51368">
        <ele>63.200000762939</ele>
        <time>2017-01-28T09:25:50.000Z</time>
      </trkpt>
      <trkpt lat="43.42895" lon="6.5137">
        <ele>63.400001525879</ele>
        <time>2017-01-28T09:25:51.000Z</time>
      </trkpt>
      <trkpt lat="43.4289" lon="6.51378">
        <ele>63.799999237061</ele>
        <time>2017-01-28T09:25:55.000Z</time>
      </trkpt>
      <trkpt lat="43.42885" lon="6.51386">
        <ele>64.400001525879</ele>
        <time>2017-01-28T09:25:59.000Z</time>
      </trkpt>
      <trkpt lat="43.42882" lon="6.51391">
        <ele>64.599998474121</ele>
        <time>2017-01-28T09:26:01.000Z</time>
      </trkpt>
      <trkpt lat="43.42874" lon="6.51405">
        <ele>65.199996948242</ele>
        <time>2017-01-28T09:26:07.000Z</time>
      </trkpt>
      <trkpt lat="43.42872" lon="6.51409">
        <ele>65.599998474121</ele>
        <time>2017-01-28T09:26:09.000Z</time>
      </trkpt>
      <trkpt lat="43.42864" lon="6.51421">
        <ele>66.400001525879</ele>
        <time>2017-01-28T09:26:15.000Z</time>
      </trkpt>
      <trkpt lat="43.42862" lon="6.51427">
        <ele>66.599998474121</ele>
        <time>2017-01-28T09:26:17.000Z</time>
      </trkpt>
      <trkpt lat="43.42862" lon="6.5144">
        <ele>67.199996948242</ele>
        <time>2017-01-28T09:26:21.000Z</time>
      </trkpt>
      <trkpt lat="43.42863" lon="6.51459">
        <ele>67.800003051758</ele>
        <time>2017-01-28T09:26:27.000Z</time>
      </trkpt>
      <trkpt lat="43.42862" lon="6.51465">
        <ele>68</ele>
        <time>2017-01-28T09:26:29.000Z</time>
      </trkpt>
      <trkpt lat="43.4286" lon="6.51471">
        <ele>68.400001525879</ele>
        <time>2017-01-28T09:26:31.000Z</time>
      </trkpt>
      <trkpt lat="43.42857" lon="6.51477">
        <ele>68.599998474121</ele>
        <time>2017-01-28T09:26:33.000Z</time>
      </trkpt>
      <trkpt lat="43.42855" lon="6.51482">
        <ele>69</ele>
        <time>2017-01-28T09:26:35.000Z</time>
      </trkpt>
      <trkpt lat="43.42848" lon="6.51496">
        <ele>70</ele>
        <time>2017-01-28T09:26:41.000Z</time>
      </trkpt>
      <trkpt lat="43.42846" lon="6.51499">
        <ele>70.199996948242</ele>
        <time>2017-01-28T09:26:42.000Z</time>
      </trkpt>
      <trkpt lat="43.42838" lon="6.51508">
        <ele>71.199996948242</ele>
        <time>2017-01-28T09:26:47.000Z</time>
      </trkpt>
      <trkpt lat="43.42832" lon="6.51511">
        <ele>71.599998474121</ele>
        <time>2017-01-28T09:26:50.000Z</time>
      </trkpt>
      <trkpt lat="43.42819" lon="6.51516">
        <ele>72.199996948242</ele>
        <time>2017-01-28T09:26:56.000Z</time>
      </trkpt>
      <trkpt lat="43.42813" lon="6.5152">
        <ele>72.800003051758</ele>
        <time>2017-01-28T09:26:59.000Z</time>
      </trkpt>
      <trkpt lat="43.42808" lon="6.51524">
        <ele>73.199996948242</ele>
        <time>2017-01-28T09:27:02.000Z</time>
      </trkpt>
      <trkpt lat="43.42805" lon="6.51529">
        <ele>73.599998474121</ele>
        <time>2017-01-28T09:27:04.000Z</time>
      </trkpt>
      <trkpt lat="43.42798" lon="6.5154">
        <ele>74.400001525879</ele>
        <time>2017-01-28T09:27:09.000Z</time>
      </trkpt>
      <trkpt lat="43.42797" lon="6.51543">
        <ele>74.400001525879</ele>
        <time>2017-01-28T09:27:10.000Z</time>
      </trkpt>
      <trkpt lat="43.42792" lon="6.51556">
        <ele>75.400001525879</ele>
        <time>2017-01-28T09:27:15.000Z</time>
      </trkpt>
      <trkpt lat="43.42791" lon="6.51559">
        <ele>75.599998474121</ele>
        <time>2017-01-28T09:27:16.000Z</time>
      </trkpt>
      <trkpt lat="43.4279" lon="6.51573">
        <ele>76.199996948242</ele>
        <time>2017-01-28T09:27:21.000Z</time>
      </trkpt>
      <trkpt lat="43.4279" lon="6.5158">
        <ele>76.599998474121</ele>
        <time>2017-01-28T09:27:23.000Z</time>
      </trkpt>
      <trkpt lat="43.42791" lon="6.51591">
        <ele>77.400001525879</ele>
        <time>2017-01-28T09:27:27.000Z</time>
      </trkpt>
      <trkpt lat="43.42792" lon="6.51597">
        <ele>77.599998474121</ele>
        <time>2017-01-28T09:27:29.000Z</time>
      </trkpt>
      <trkpt lat="43.42793" lon="6.51612">
        <ele>78.400001525879</ele>
        <time>2017-01-28T09:27:34.000Z</time>
      </trkpt>
      <trkpt lat="43.42791" lon="6.51618">
        <ele>78.800003051758</ele>
        <time>2017-01-28T09:27:36.000Z</time>
      </trkpt>
      <trkpt lat="43.42786" lon="6.51628">
        <ele>79.400001525879</ele>
        <time>2017-01-28T09:27:40.000Z</time>
      </trkpt>
      <trkpt lat="43.4278" lon="6.51634">
        <ele>79.800003051758</ele>
        <time>2017-01-28T09:27:43.000Z</time>
      </trkpt>
      <trkpt lat="43.42772" lon="6.51641">
        <ele>80.599998474121</ele>
        <time>2017-01-28T09:27:47.000Z</time>
      </trkpt>
      <trkpt lat="43.42766" lon="6.51646">
        <ele>81</ele>
        <time>2017-01-28T09:27:50.000Z</time>
      </trkpt>
      <trkpt lat="43.42753" lon="6.51656">
        <ele>82</ele>
        <time>2017-01-28T09:27:57.000Z</time>
      </trkpt>
      <trkpt lat="43.42741" lon="6.51663">
        <ele>83</ele>
        <time>2017-01-28T09:28:03.000Z</time>
      </trkpt>
      <trkpt lat="43.42739" lon="6.51664">
        <ele>83.199996948242</ele>
        <time>2017-01-28T09:28:04.000Z</time>
      </trkpt>
      <trkpt lat="43.42734" lon="6.51673">
        <ele>83.400001525879</ele>
        <time>2017-01-28T09:28:08.000Z</time>
      </trkpt>
      <trkpt lat="43.42733" lon="6.51689">
        <ele>84.199996948242</ele>
        <time>2017-01-28T09:28:13.000Z</time>
      </trkpt>
      <trkpt lat="43.42738" lon="6.51706">
        <ele>85.400001525879</ele>
        <time>2017-01-28T09:28:19.000Z</time>
      </trkpt>
      <trkpt lat="43.42739" lon="6.51709">
        <ele>85.400001525879</ele>
        <time>2017-01-28T09:28:20.000Z</time>
      </trkpt>
      <trkpt lat="43.42748" lon="6.51723">
        <ele>86.400001525879</ele>
        <time>2017-01-28T09:28:26.000Z</time>
      </trkpt>
      <trkpt lat="43.4275" lon="6.51728">
        <ele>86.800003051758</ele>
        <time>2017-01-28T09:28:28.000Z</time>
      </trkpt>
      <trkpt lat="43.42756" lon="6.51739">
        <ele>87.400001525879</ele>
        <time>2017-01-28T09:28:32.000Z</time>
      </trkpt>
      <trkpt lat="43.42762" lon="6.5175">
        <ele>88</ele>
        <time>2017-01-28T09:28:36.000Z</time>
      </trkpt>
      <trkpt lat="43.42767" lon="6.51757">
        <ele>88.599998474121</ele>
        <time>2017-01-28T09:28:39.000Z</time>
      </trkpt>
      <trkpt lat="43.42775" lon="6.5177">
        <ele>89.400001525879</ele>
        <time>2017-01-28T09:28:44.000Z</time>
      </trkpt>
      <trkpt lat="43.42778" lon="6.51774">
        <ele>89.599998474121</ele>
        <time>2017-01-28T09:28:46.000Z</time>
      </trkpt>
      <trkpt lat="43.4279" lon="6.51791">
        <ele>90.800003051758</ele>
        <time>2017-01-28T09:28:53.000Z</time>
      </trkpt>
      <trkpt lat="43.42792" lon="6.51793">
        <ele>91</ele>
        <time>2017-01-28T09:28:54.000Z</time>
      </trkpt>
      <trkpt lat="43.42799" lon="6.51805">
        <ele>92</ele>
        <time>2017-01-28T09:28:59.000Z</time>
      </trkpt>
      <trkpt lat="43.42802" lon="6.5181">
        <ele>92.400001525879</ele>
        <time>2017-01-28T09:29:01.000Z</time>
      </trkpt>
      <trkpt lat="43.42806" lon="6.51819">
        <ele>93</ele>
        <time>2017-01-28T09:29:04.000Z</time>
      </trkpt>
      <trkpt lat="43.4281" lon="6.51837">
        <ele>94.199996948242</ele>
        <time>2017-01-28T09:29:10.000Z</time>
      </trkpt>
      <trkpt lat="43.42811" lon="6.51853">
        <ele>95.199996948242</ele>
        <time>2017-01-28T09:29:15.000Z</time>
      </trkpt>
      <trkpt lat="43.42811" lon="6.51863">
        <ele>95.599998474121</ele>
        <time>2017-01-28T09:29:18.000Z</time>
      </trkpt>
      <trkpt lat="43.4281" lon="6.51873">
        <ele>96.400001525879</ele>
        <time>2017-01-28T09:29:21.000Z</time>
      </trkpt>
      <trkpt lat="43.42812" lon="6.51882">
        <ele>97</ele>
        <time>2017-01-28T09:29:24.000Z</time>
      </trkpt>
      <trkpt lat="43.42814" lon="6.51891">
        <ele>97.400001525879</ele>
        <time>2017-01-28T09:29:27.000Z</time>
      </trkpt>
      <trkpt lat="43.42818" lon="6.51903">
        <ele>98.199996948242</ele>
        <time>2017-01-28T09:29:31.000Z</time>
      </trkpt>
      <trkpt lat="43.42819" lon="6.51906">
        <ele>98.400001525879</ele>
        <time>2017-01-28T09:29:32.000Z</time>
      </trkpt>
      <trkpt lat="43.42822" lon="6.51922">
        <ele>99.400001525879</ele>
        <time>2017-01-28T09:29:37.000Z</time>
      </trkpt>
      <trkpt lat="43.42823" lon="6.51925">
        <ele>99.400001525879</ele>
        <time>2017-01-28T09:29:38.000Z</time>
      </trkpt>
      <trkpt lat="43.42822" lon="6.51944">
        <ele>100.19999694824</ele>
        <time>2017-01-28T09:29:44.000Z</time>
      </trkpt>
      <trkpt lat="43.42822" lon="6.51947">
        <ele>100.40000152588</ele>
        <time>2017-01-28T09:29:45.000Z</time>
      </trkpt>
      <trkpt lat="43.4282" lon="6.51961">
        <ele>101.59999847412</ele>
        <time>2017-01-28T09:29:50.000Z</time>
      </trkpt>
      <trkpt lat="43.42819" lon="6.51975">
        <ele>102.80000305176</ele>
        <time>2017-01-28T09:29:54.000Z</time>
      </trkpt>
      <trkpt lat="43.4282" lon="6.51984">
        <ele>103.40000152588</ele>
        <time>2017-01-28T09:29:57.000Z</time>
      </trkpt>
      <trkpt lat="43.42821" lon="6.5199">
        <ele>103.80000305176</ele>
        <time>2017-01-28T09:29:59.000Z</time>
      </trkpt>
      <trkpt lat="43.42826" lon="6.52001">
        <ele>104.80000305176</ele>
        <time>2017-01-28T09:30:03.000Z</time>
      </trkpt>
      <trkpt lat="43.42826" lon="6.52004">
        <ele>105</ele>
        <time>2017-01-28T09:30:04.000Z</time>
      </trkpt>
      <trkpt lat="43.4283" lon="6.52019">
        <ele>106.19999694824</ele>
        <time>2017-01-28T09:30:09.000Z</time>
      </trkpt>
      <trkpt lat="43.42831" lon="6.52025">
        <ele>106.59999847412</ele>
        <time>2017-01-28T09:30:11.000Z</time>
      </trkpt>
      <trkpt lat="43.42833" lon="6.52035">
        <ele>107.19999694824</ele>
        <time>2017-01-28T09:30:14.000Z</time>
      </trkpt>
      <trkpt lat="43.42839" lon="6.52057">
        <ele>108.19999694824</ele>
        <time>2017-01-28T09:30:21.000Z</time>
      </trkpt>
      <trkpt lat="43.4284" lon="6.5206">
        <ele>108.19999694824</ele>
        <time>2017-01-28T09:30:22.000Z</time>
      </trkpt>
      <trkpt lat="43.42848" lon="6.52086">
        <ele>109.19999694824</ele>
        <time>2017-01-28T09:30:30.000Z</time>
      </trkpt>
      <trkpt lat="43.4285" lon="6.52093">
        <ele>109.40000152588</ele>
        <time>2017-01-28T09:30:32.000Z</time>
      </trkpt>
      <trkpt lat="43.42853" lon="6.52121">
        <ele>110</ele>
        <time>2017-01-28T09:30:40.000Z</time>
      </trkpt>
      <trkpt lat="43.4285" lon="6.52132">
        <ele>110.40000152588</ele>
        <time>2017-01-28T09:30:43.000Z</time>
      </trkpt>
      <trkpt lat="43.42844" lon="6.5214">
        <ele>110.59999847412</ele>
        <time>2017-01-28T09:30:46.000Z</time>
      </trkpt>
      <trkpt lat="43.42834" lon="6.52145">
        <ele>111.59999847412</ele>
        <time>2017-01-28T09:30:51.000Z</time>
      </trkpt>
      <trkpt lat="43.42832" lon="6.52146">
        <ele>111.80000305176</ele>
        <time>2017-01-28T09:30:52.000Z</time>
      </trkpt>
      <trkpt lat="43.4282" lon="6.52153">
        <ele>112.59999847412</ele>
        <time>2017-01-28T09:30:57.000Z</time>
      </trkpt>
      <trkpt lat="43.42817" lon="6.52153">
        <ele>112.80000305176</ele>
        <time>2017-01-28T09:30:58.000Z</time>
      </trkpt>
      <trkpt lat="43.42801" lon="6.52159">
        <ele>113.59999847412</ele>
        <time>2017-01-28T09:31:05.000Z</time>
      </trkpt>
      <trkpt lat="43.42798" lon="6.52161">
        <ele>113.80000305176</ele>
        <time>2017-01-28T09:31:06.000Z</time>
      </trkpt>
      <trkpt lat="43.42781" lon="6.52165">
        <ele>114.80000305176</ele>
        <time>2017-01-28T09:31:13.000Z</time>
      </trkpt>
      <trkpt lat="43.42779" lon="6.52165">
        <ele>115</ele>
        <time>2017-01-28T09:31:14.000Z</time>
      </trkpt>
      <trkpt lat="43.42761" lon="6.52162">
        <ele>116</ele>
        <time>2017-01-28T09:31:21.000Z</time>
      </trkpt>
      <trkpt lat="43.42752" lon="6.52158">
        <ele>116.59999847412</ele>
        <time>2017-01-28T09:31:25.000Z</time>
      </trkpt>
      <trkpt lat="43.42745" lon="6.52153">
        <ele>117</ele>
        <time>2017-01-28T09:31:28.000Z</time>
      </trkpt>
      <trkpt lat="43.4274" lon="6.52151">
        <ele>117.59999847412</ele>
        <time>2017-01-28T09:31:30.000Z</time>
      </trkpt>
      <trkpt lat="43.42736" lon="6.5215">
        <ele>118</ele>
        <time>2017-01-28T09:31:32.000Z</time>
      </trkpt>
      <trkpt lat="43.42731" lon="6.52149">
        <ele>118.19999694824</ele>
        <time>2017-01-28T09:31:34.000Z</time>
      </trkpt>
      <trkpt lat="43.4272" lon="6.52152">
        <ele>119</ele>
        <time>2017-01-28T09:31:39.000Z</time>
      </trkpt>
      <trkpt lat="43.42717" lon="6.52153">
        <ele>119.19999694824</ele>
        <time>2017-01-28T09:31:40.000Z</time>
      </trkpt>
      <trkpt lat="43.42702" lon="6.52163">
        <ele>120.40000152588</ele>
        <time>2017-01-28T09:31:47.000Z</time>
      </trkpt>
      <trkpt lat="43.427" lon="6.52165">
        <ele>120.59999847412</ele>
        <time>2017-01-28T09:31:48.000Z</time>
      </trkpt>
      <trkpt lat="43.42688" lon="6.52179">
        <ele>121.40000152588</ele>
        <time>2017-01-28T09:31:54.000Z</time>
      </trkpt>
      <trkpt lat="43.42683" lon="6.52186">
        <ele>122</ele>
        <time>2017-01-28T09:31:57.000Z</time>
      </trkpt>
      <trkpt lat="43.42678" lon="6.52193">
        <ele>122.59999847412</ele>
        <time>2017-01-28T09:32:00.000Z</time>
      </trkpt>
      <trkpt lat="43.42671" lon="6.52201">
        <ele>123.59999847412</ele>
        <time>2017-01-28T09:32:04.000Z</time>
      </trkpt>
      <trkpt lat="43.42667" lon="6.52205">
        <ele>124.19999694824</ele>
        <time>2017-01-28T09:32:06.000Z</time>
      </trkpt>
      <trkpt lat="43.42662" lon="6.52208">
        <ele>124.59999847412</ele>
        <time>2017-01-28T09:32:08.000Z</time>
      </trkpt>
      <trkpt lat="43.4265" lon="6.52213">
        <ele>125.19999694824</ele>
        <time>2017-01-28T09:32:13.000Z</time>
      </trkpt>
      <trkpt lat="43.42641" lon="6.52213">
        <ele>125.80000305176</ele>
        <time>2017-01-28T09:32:17.000Z</time>
      </trkpt>
      <trkpt lat="43.42631" lon="6.52209">
        <ele>126.59999847412</ele>
        <time>2017-01-28T09:32:21.000Z</time>
      </trkpt>
      <trkpt lat="43.42629" lon="6.52208">
        <ele>126.80000305176</ele>
        <time>2017-01-28T09:32:22.000Z</time>
      </trkpt>
      <trkpt lat="43.42618" lon="6.52199">
        <ele>127.80000305176</ele>
        <time>2017-01-28T09:32:27.000Z</time>
      </trkpt>
      <trkpt lat="43.42613" lon="6.52193">
        <ele>128.19999694824</ele>
        <time>2017-01-28T09:32:30.000Z</time>
      </trkpt>
      <trkpt lat="43.42608" lon="6.52184">
        <ele>128.80000305176</ele>
        <time>2017-01-28T09:32:33.000Z</time>
      </trkpt>
      <trkpt lat="43.42602" lon="6.5217">
        <ele>130</ele>
        <time>2017-01-28T09:32:38.000Z</time>
      </trkpt>
      <trkpt lat="43.42597" lon="6.52155">
        <ele>131</ele>
        <time>2017-01-28T09:32:43.000Z</time>
      </trkpt>
      <trkpt lat="43.42595" lon="6.52145">
        <ele>131.60000610352</ele>
        <time>2017-01-28T09:32:46.000Z</time>
      </trkpt>
      <trkpt lat="43.42594" lon="6.52135">
        <ele>132.19999694824</ele>
        <time>2017-01-28T09:32:49.000Z</time>
      </trkpt>
      <trkpt lat="43.42593" lon="6.52119">
        <ele>133.19999694824</ele>
        <time>2017-01-28T09:32:54.000Z</time>
      </trkpt>
      <trkpt lat="43.42593" lon="6.52115">
        <ele>133.39999389648</ele>
        <time>2017-01-28T09:32:55.000Z</time>
      </trkpt>
      <trkpt lat="43.42593" lon="6.52099">
        <ele>134.19999694824</ele>
        <time>2017-01-28T09:33:00.000Z</time>
      </trkpt>
      <trkpt lat="43.42593" lon="6.52093">
        <ele>134.39999389648</ele>
        <time>2017-01-28T09:33:02.000Z</time>
      </trkpt>
      <trkpt lat="43.42593" lon="6.52074">
        <ele>135.39999389648</ele>
        <time>2017-01-28T09:33:08.000Z</time>
      </trkpt>
      <trkpt lat="43.42593" lon="6.52071">
        <ele>135.60000610352</ele>
        <time>2017-01-28T09:33:09.000Z</time>
      </trkpt>
      <trkpt lat="43.42594" lon="6.52049">
        <ele>136.60000610352</ele>
        <time>2017-01-28T09:33:16.000Z</time>
      </trkpt>
      <trkpt lat="43.42593" lon="6.52043">
        <ele>136.80000305176</ele>
        <time>2017-01-28T09:33:18.000Z</time>
      </trkpt>
      <trkpt lat="43.42592" lon="6.5203">
        <ele>137.80000305176</ele>
        <time>2017-01-28T09:33:22.000Z</time>
      </trkpt>
      <trkpt lat="43.42587" lon="6.52015">
        <ele>138.60000610352</ele>
        <time>2017-01-28T09:33:27.000Z</time>
      </trkpt>
      <trkpt lat="43.42585" lon="6.52009">
        <ele>138.80000305176</ele>
        <time>2017-01-28T09:33:29.000Z</time>
      </trkpt>
      <trkpt lat="43.42575" lon="6.51993">
        <ele>139.80000305176</ele>
        <time>2017-01-28T09:33:35.000Z</time>
      </trkpt>
      <trkpt lat="43.42561" lon="6.5198">
        <ele>141</ele>
        <time>2017-01-28T09:33:42.000Z</time>
      </trkpt>
      <trkpt lat="43.42544" lon="6.51973">
        <ele>142</ele>
        <time>2017-01-28T09:33:49.000Z</time>
      </trkpt>
      <trkpt lat="43.4254" lon="6.51971">
        <ele>142.19999694824</ele>
        <time>2017-01-28T09:33:51.000Z</time>
      </trkpt>
      <trkpt lat="43.42527" lon="6.51966">
        <ele>143.19999694824</ele>
        <time>2017-01-28T09:33:56.000Z</time>
      </trkpt>
      <trkpt lat="43.42517" lon="6.51965">
        <ele>144.39999389648</ele>
        <time>2017-01-28T09:34:00.000Z</time>
      </trkpt>
      <trkpt lat="43.42515" lon="6.51965">
        <ele>144.60000610352</ele>
        <time>2017-01-28T09:34:01.000Z</time>
      </trkpt>
      <trkpt lat="43.42506" lon="6.51965">
        <ele>145.39999389648</ele>
        <time>2017-01-28T09:34:05.000Z</time>
      </trkpt>
      <trkpt lat="43.42491" lon="6.51965">
        <ele>146.19999694824</ele>
        <time>2017-01-28T09:34:11.000Z</time>
      </trkpt>
      <trkpt lat="43.42488" lon="6.51966">
        <ele>146.60000610352</ele>
        <time>2017-01-28T09:34:12.000Z</time>
      </trkpt>
      <trkpt lat="43.42479" lon="6.51966">
        <ele>147.80000305176</ele>
        <time>2017-01-28T09:34:16.000Z</time>
      </trkpt>
      <trkpt lat="43.42467" lon="6.51964">
        <ele>148.60000610352</ele>
        <time>2017-01-28T09:34:21.000Z</time>
      </trkpt>
      <trkpt lat="43.42465" lon="6.51962">
        <ele>148.80000305176</ele>
        <time>2017-01-28T09:34:22.000Z</time>
      </trkpt>
      <trkpt lat="43.4245" lon="6.5195">
        <ele>149.80000305176</ele>
        <time>2017-01-28T09:34:29.000Z</time>
      </trkpt>
      <trkpt lat="43.42446" lon="6.5194">
        <ele>151.19999694824</ele>
        <time>2017-01-28T09:34:33.000Z</time>
      </trkpt>
      <trkpt lat="43.42445" lon="6.51938">
        <ele>151.60000610352</ele>
        <time>2017-01-28T09:34:34.000Z</time>
      </trkpt>
      <trkpt lat="43.42443" lon="6.51936">
        <ele>152.19999694824</ele>
        <time>2017-01-28T09:34:38.000Z</time>
      </trkpt>
      <trkpt lat="43.42443" lon="6.51936">
        <ele>152.39999389648</ele>
        <time>2017-01-28T09:34:40.000Z</time>
      </trkpt>
      <trkpt lat="43.4244" lon="6.51934">
        <ele>152.60000610352</ele>
        <time>2017-01-28T09:34:42.000Z</time>
      </trkpt>
      <trkpt lat="43.42441" lon="6.51933">
        <ele>152.80000305176</ele>
        <time>2017-01-28T09:34:43.000Z</time>
      </trkpt>
      <trkpt lat="43.42447" lon="6.5192">
        <ele>153</ele>
        <time>2017-01-28T09:34:52.000Z</time>
      </trkpt>
      <trkpt lat="43.42449" lon="6.51918">
        <ele>153</ele>
        <time>2017-01-28T09:34:54.000Z</time>
      </trkpt>
      <trkpt lat="43.42451" lon="6.51916">
        <ele>153.19999694824</ele>
        <time>2017-01-28T09:34:56.000Z</time>
      </trkpt>
      <trkpt lat="43.42456" lon="6.51911">
        <ele>153.39999389648</ele>
        <time>2017-01-28T09:35:00.000Z</time>
      </trkpt>
      <trkpt lat="43.42467" lon="6.51899">
        <ele>153.80000305176</ele>
        <time>2017-01-28T09:35:09.000Z</time>
      </trkpt>
      <trkpt lat="43.42479" lon="6.51886">
        <ele>154.39999389648</ele>
        <time>2017-01-28T09:35:18.000Z</time>
      </trkpt>
      <trkpt lat="43.42493" lon="6.51866">
        <ele>154.60000610352</ele>
        <time>2017-01-28T09:35:28.000Z</time>
      </trkpt>
      <trkpt lat="43.42503" lon="6.51848">
        <ele>155.39999389648</ele>
        <time>2017-01-28T09:35:35.000Z</time>
      </trkpt>
      <trkpt lat="43.42505" lon="6.51843">
        <ele>155.39999389648</ele>
        <time>2017-01-28T09:35:37.000Z</time>
      </trkpt>
      <trkpt lat="43.42514" lon="6.51823">
        <ele>155.80000305176</ele>
        <time>2017-01-28T09:35:44.000Z</time>
      </trkpt>
      <trkpt lat="43.42522" lon="6.51804">
        <ele>156.39999389648</ele>
        <time>2017-01-28T09:35:51.000Z</time>
      </trkpt>
      <trkpt lat="43.42525" lon="6.51795">
        <ele>156.80000305176</ele>
        <time>2017-01-28T09:35:54.000Z</time>
      </trkpt>
      <trkpt lat="43.42531" lon="6.51769">
        <ele>156.60000610352</ele>
        <time>2017-01-28T09:36:03.000Z</time>
      </trkpt>
      <trkpt lat="43.42531" lon="6.51746">
        <ele>157</ele>
        <time>2017-01-28T09:36:10.000Z</time>
      </trkpt>
      <trkpt lat="43.42521" lon="6.51727">
        <ele>157.60000610352</ele>
        <time>2017-01-28T09:36:17.000Z</time>
      </trkpt>
      <trkpt lat="43.42507" lon="6.51698">
        <ele>158.60000610352</ele>
        <time>2017-01-28T09:36:27.000Z</time>
      </trkpt>
      <trkpt lat="43.42506" lon="6.51695">
        <ele>158.60000610352</ele>
        <time>2017-01-28T09:36:28.000Z</time>
      </trkpt>
      <trkpt lat="43.42501" lon="6.5168">
        <ele>159.39999389648</ele>
        <time>2017-01-28T09:36:33.000Z</time>
      </trkpt>
      <trkpt lat="43.42499" lon="6.51675">
        <ele>159.60000610352</ele>
        <time>2017-01-28T09:36:35.000Z</time>
      </trkpt>
      <trkpt lat="43.42491" lon="6.5166">
        <ele>160.39999389648</ele>
        <time>2017-01-28T09:36:41.000Z</time>
      </trkpt>
      <trkpt lat="43.42487" lon="6.51654">
        <ele>160.80000305176</ele>
        <time>2017-01-28T09:36:43.000Z</time>
      </trkpt>
      <trkpt lat="43.42476" lon="6.5164">
        <ele>161.39999389648</ele>
        <time>2017-01-28T09:36:49.000Z</time>
      </trkpt>
      <trkpt lat="43.42472" lon="6.51636">
        <ele>161.80000305176</ele>
        <time>2017-01-28T09:36:51.000Z</time>
      </trkpt>
      <trkpt lat="43.42458" lon="6.51627">
        <ele>162.19999694824</ele>
        <time>2017-01-28T09:36:57.000Z</time>
      </trkpt>
      <trkpt lat="43.42451" lon="6.51627">
        <ele>162.80000305176</ele>
        <time>2017-01-28T09:37:00.000Z</time>
      </trkpt>
      <trkpt lat="43.42446" lon="6.5163">
        <ele>163</ele>
        <time>2017-01-28T09:37:02.000Z</time>
      </trkpt>
      <trkpt lat="43.42432" lon="6.51638">
        <ele>163.80000305176</ele>
        <time>2017-01-28T09:37:08.000Z</time>
      </trkpt>
      <trkpt lat="43.42425" lon="6.51641">
        <ele>164</ele>
        <time>2017-01-28T09:37:11.000Z</time>
      </trkpt>
      <trkpt lat="43.42411" lon="6.51642">
        <ele>164.80000305176</ele>
        <time>2017-01-28T09:37:17.000Z</time>
      </trkpt>
      <trkpt lat="43.42406" lon="6.51641">
        <ele>165.19999694824</ele>
        <time>2017-01-28T09:37:19.000Z</time>
      </trkpt>
      <trkpt lat="43.42392" lon="6.51638">
        <ele>166</ele>
        <time>2017-01-28T09:37:25.000Z</time>
      </trkpt>
      <trkpt lat="43.42383" lon="6.51637">
        <ele>167</ele>
        <time>2017-01-28T09:37:29.000Z</time>
      </trkpt>
      <trkpt lat="43.42371" lon="6.51639">
        <ele>168.19999694824</ele>
        <time>2017-01-28T09:37:34.000Z</time>
      </trkpt>
      <trkpt lat="43.42367" lon="6.5164">
        <ele>168.39999389648</ele>
        <time>2017-01-28T09:37:36.000Z</time>
      </trkpt>
      <trkpt lat="43.42355" lon="6.51636">
        <ele>168.39999389648</ele>
        <time>2017-01-28T09:37:41.000Z</time>
      </trkpt>
      <trkpt lat="43.42346" lon="6.5163">
        <ele>169.39999389648</ele>
        <time>2017-01-28T09:37:45.000Z</time>
      </trkpt>
      <trkpt lat="43.42339" lon="6.5162">
        <ele>170.60000610352</ele>
        <time>2017-01-28T09:37:49.000Z</time>
      </trkpt>
      <trkpt lat="43.4233" lon="6.51604">
        <ele>171.60000610352</ele>
        <time>2017-01-28T09:37:55.000Z</time>
      </trkpt>
      <trkpt lat="43.42322" lon="6.51593">
        <ele>171.80000305176</ele>
        <time>2017-01-28T09:37:59.000Z</time>
      </trkpt>
      <trkpt lat="43.42307" lon="6.51573">
        <ele>171.80000305176</ele>
        <time>2017-01-28T09:38:06.000Z</time>
      </trkpt>
      <trkpt lat="43.4229" lon="6.5154">
        <ele>172.19999694824</ele>
        <time>2017-01-28T09:38:16.000Z</time>
      </trkpt>
      <trkpt lat="43.42279" lon="6.51532">
        <ele>172.39999389648</ele>
        <time>2017-01-28T09:38:20.000Z</time>
      </trkpt>
      <trkpt lat="43.4226" lon="6.51528">
        <ele>172.80000305176</ele>
        <time>2017-01-28T09:38:26.000Z</time>
      </trkpt>
      <trkpt lat="43.42254" lon="6.51527">
        <ele>173</ele>
        <time>2017-01-28T09:38:28.000Z</time>
      </trkpt>
      <trkpt lat="43.4223" lon="6.5152">
        <ele>173.80000305176</ele>
        <time>2017-01-28T09:38:36.000Z</time>
      </trkpt>
      <trkpt lat="43.42227" lon="6.51518">
        <ele>173.80000305176</ele>
        <time>2017-01-28T09:38:37.000Z</time>
      </trkpt>
      <trkpt lat="43.42212" lon="6.51503">
        <ele>174.80000305176</ele>
        <time>2017-01-28T09:38:43.000Z</time>
      </trkpt>
      <trkpt lat="43.4221" lon="6.51499">
        <ele>175</ele>
        <time>2017-01-28T09:38:44.000Z</time>
      </trkpt>
      <trkpt lat="43.42199" lon="6.51471">
        <ele>175.19999694824</ele>
        <time>2017-01-28T09:38:50.000Z</time>
      </trkpt>
      <trkpt lat="43.42192" lon="6.5145">
        <ele>174</ele>
        <time>2017-01-28T09:38:54.000Z</time>
      </trkpt>
      <trkpt lat="43.42186" lon="6.5143">
        <ele>173.19999694824</ele>
        <time>2017-01-28T09:38:58.000Z</time>
      </trkpt>
      <trkpt lat="43.42177" lon="6.51405">
        <ele>173</ele>
        <time>2017-01-28T09:39:03.000Z</time>
      </trkpt>
      <trkpt lat="43.42174" lon="6.51395">
        <ele>172.80000305176</ele>
        <time>2017-01-28T09:39:05.000Z</time>
      </trkpt>
      <trkpt lat="43.42165" lon="6.51368">
        <ele>172.60000610352</ele>
        <time>2017-01-28T09:39:11.000Z</time>
      </trkpt>
      <trkpt lat="43.42145" lon="6.51332">
        <ele>172.60000610352</ele>
        <time>2017-01-28T09:39:21.000Z</time>
      </trkpt>
      <trkpt lat="43.42127" lon="6.51299">
        <ele>174</ele>
        <time>2017-01-28T09:39:30.000Z</time>
      </trkpt>
      <trkpt lat="43.42108" lon="6.5128">
        <ele>174.19999694824</ele>
        <time>2017-01-28T09:39:37.000Z</time>
      </trkpt>
      <trkpt lat="43.421" lon="6.51266">
        <ele>175.19999694824</ele>
        <time>2017-01-28T09:39:41.000Z</time>
      </trkpt>
      <trkpt lat="43.42093" lon="6.51249">
        <ele>175.80000305176</ele>
        <time>2017-01-28T09:39:45.000Z</time>
      </trkpt>
      <trkpt lat="43.42089" lon="6.51235">
        <ele>176.19999694824</ele>
        <time>2017-01-28T09:39:48.000Z</time>
      </trkpt>
      <trkpt lat="43.42081" lon="6.51208">
        <ele>176.80000305176</ele>
        <time>2017-01-28T09:39:54.000Z</time>
      </trkpt>
      <trkpt lat="43.42065" lon="6.51188">
        <ele>177</ele>
        <time>2017-01-28T09:40:00.000Z</time>
      </trkpt>
      <trkpt lat="43.42054" lon="6.51176">
        <ele>177.19999694824</ele>
        <time>2017-01-28T09:40:04.000Z</time>
      </trkpt>
      <trkpt lat="43.42042" lon="6.5116">
        <ele>177.80000305176</ele>
        <time>2017-01-28T09:40:09.000Z</time>
      </trkpt>
      <trkpt lat="43.42037" lon="6.51154">
        <ele>178.19999694824</ele>
        <time>2017-01-28T09:40:11.000Z</time>
      </trkpt>
      <trkpt lat="43.42027" lon="6.51135">
        <ele>179.19999694824</ele>
        <time>2017-01-28T09:40:16.000Z</time>
      </trkpt>
      <trkpt lat="43.42025" lon="6.51132">
        <ele>179.39999389648</ele>
        <time>2017-01-28T09:40:17.000Z</time>
      </trkpt>
      <trkpt lat="43.42015" lon="6.5111">
        <ele>180.39999389648</ele>
        <time>2017-01-28T09:40:23.000Z</time>
      </trkpt>
      <trkpt lat="43.4201" lon="6.51097">
        <ele>181</ele>
        <time>2017-01-28T09:40:26.000Z</time>
      </trkpt>
      <trkpt lat="43.42005" lon="6.51085">
        <ele>181.39999389648</ele>
        <time>2017-01-28T09:40:29.000Z</time>
      </trkpt>
      <trkpt lat="43.41996" lon="6.51069">
        <ele>181.80000305176</ele>
        <time>2017-01-28T09:40:33.000Z</time>
      </trkpt>
      <trkpt lat="43.41988" lon="6.51052">
        <ele>182.60000610352</ele>
        <time>2017-01-28T09:40:38.000Z</time>
      </trkpt>
      <trkpt lat="43.41986" lon="6.51049">
        <ele>182.80000305176</ele>
        <time>2017-01-28T09:40:39.000Z</time>
      </trkpt>
      <trkpt lat="43.41974" lon="6.51046">
        <ele>183</ele>
        <time>2017-01-28T09:40:43.000Z</time>
      </trkpt>
      <trkpt lat="43.41959" lon="6.51056">
        <ele>183.19999694824</ele>
        <time>2017-01-28T09:40:49.000Z</time>
      </trkpt>
      <trkpt lat="43.41955" lon="6.51059">
        <ele>183.60000610352</ele>
        <time>2017-01-28T09:40:53.000Z</time>
      </trkpt>
      <trkpt lat="43.41954" lon="6.51059">
        <ele>183.60000610352</ele>
        <time>2017-01-28T09:40:55.000Z</time>
      </trkpt>
      <trkpt lat="43.41955" lon="6.51059">
        <ele>183.60000610352</ele>
        <time>2017-01-28T09:41:02.000Z</time>
      </trkpt>
      <trkpt lat="43.41954" lon="6.5106">
        <ele>183.80000305176</ele>
        <time>2017-01-28T09:41:21.000Z</time>
      </trkpt>
      <trkpt lat="43.41953" lon="6.51063">
        <ele>184</ele>
        <time>2017-01-28T09:41:39.000Z</time>
      </trkpt>
      <trkpt lat="43.41953" lon="6.51063">
        <ele>183.80000305176</ele>
        <time>2017-01-28T09:41:56.000Z</time>
      </trkpt>
      <trkpt lat="43.41953" lon="6.51064">
        <ele>183.60000610352</ele>
        <time>2017-01-28T09:42:14.000Z</time>
      </trkpt>
      <trkpt lat="43.41952" lon="6.51064">
        <ele>183</ele>
        <time>2017-01-28T09:42:34.000Z</time>
      </trkpt>
      <trkpt lat="43.41953" lon="6.51064">
        <ele>183.19999694824</ele>
        <time>2017-01-28T09:42:43.000Z</time>
      </trkpt>
      <trkpt lat="43.41954" lon="6.51064">
        <ele>182.80000305176</ele>
        <time>2017-01-28T09:43:05.000Z</time>
      </trkpt>
      <trkpt lat="43.41955" lon="6.51065">
        <ele>183.19999694824</ele>
        <time>2017-01-28T09:43:25.000Z</time>
      </trkpt>
      <trkpt lat="43.41956" lon="6.51066">
        <ele>182.80000305176</ele>
        <time>2017-01-28T09:43:46.000Z</time>
      </trkpt>
      <trkpt lat="43.41956" lon="6.51066">
        <ele>183.19999694824</ele>
        <time>2017-01-28T09:44:08.000Z</time>
      </trkpt>
      <trkpt lat="43.41956" lon="6.51066">
        <ele>183</ele>
        <time>2017-01-28T09:44:31.000Z</time>
      </trkpt>
      <trkpt lat="43.41956" lon="6.51065">
        <ele>182.80000305176</ele>
        <time>2017-01-28T09:44:50.000Z</time>
      </trkpt>
      <trkpt lat="43.41956" lon="6.51065">
        <ele>183.60000610352</ele>
        <time>2017-01-28T09:45:06.000Z</time>
      </trkpt>
      <trkpt lat="43.41955" lon="6.51065">
        <ele>183.60000610352</ele>
        <time>2017-01-28T09:45:07.000Z</time>
      </trkpt>
      <trkpt lat="43.41953" lon="6.51066">
        <ele>183.80000305176</ele>
        <time>2017-01-28T09:45:11.000Z</time>
      </trkpt>
      <trkpt lat="43.41952" lon="6.5107">
        <ele>184</ele>
        <time>2017-01-28T09:45:14.000Z</time>
      </trkpt>
      <trkpt lat="43.41954" lon="6.5107">
        <ele>183.39999389648</ele>
        <time>2017-01-28T09:45:17.000Z</time>
      </trkpt>
      <trkpt lat="43.41954" lon="6.51066">
        <ele>182.60000610352</ele>
        <time>2017-01-28T09:45:20.000Z</time>
      </trkpt>
      <trkpt lat="43.41954" lon="6.51065">
        <ele>182.60000610352</ele>
        <time>2017-01-28T09:45:21.000Z</time>
      </trkpt>
      <trkpt lat="43.41954" lon="6.51064">
        <ele>182.60000610352</ele>
        <time>2017-01-28T09:45:22.000Z</time>
      </trkpt>
      <trkpt lat="43.41953" lon="6.51064">
        <ele>182.60000610352</ele>
        <time>2017-01-28T09:45:23.000Z</time>
      </trkpt>
      <trkpt lat="43.41948" lon="6.51061">
        <ele>182.80000305176</ele>
        <time>2017-01-28T09:45:26.000Z</time>
      </trkpt>
      <trkpt lat="43.41946" lon="6.5106">
        <ele>182.80000305176</ele>
        <time>2017-01-28T09:45:27.000Z</time>
      </trkpt>
      <trkpt lat="43.4194" lon="6.5106">
        <ele>183.80000305176</ele>
        <time>2017-01-28T09:45:31.000Z</time>
      </trkpt>
      <trkpt lat="43.41935" lon="6.51059">
        <ele>185</ele>
        <time>2017-01-28T09:45:34.000Z</time>
      </trkpt>
      <trkpt lat="43.41931" lon="6.51059">
        <ele>186.19999694824</ele>
        <time>2017-01-28T09:45:37.000Z</time>
      </trkpt>
      <trkpt lat="43.41926" lon="6.51058">
        <ele>187</ele>
        <time>2017-01-28T09:45:40.000Z</time>
      </trkpt>
      <trkpt lat="43.41925" lon="6.51058">
        <ele>187.19999694824</ele>
        <time>2017-01-28T09:45:41.000Z</time>
      </trkpt>
      <trkpt lat="43.41919" lon="6.51057">
        <ele>188.19999694824</ele>
        <time>2017-01-28T09:45:45.000Z</time>
      </trkpt>
      <trkpt lat="43.41915" lon="6.51056">
        <ele>189.19999694824</ele>
        <time>2017-01-28T09:45:48.000Z</time>
      </trkpt>
      <trkpt lat="43.41908" lon="6.51056">
        <ele>190.39999389648</ele>
        <time>2017-01-28T09:45:52.000Z</time>
      </trkpt>
      <trkpt lat="43.41902" lon="6.51056">
        <ele>192</ele>
        <time>2017-01-28T09:45:56.000Z</time>
      </trkpt>
      <trkpt lat="43.41898" lon="6.51057">
        <ele>193</ele>
        <time>2017-01-28T09:45:59.000Z</time>
      </trkpt>
      <trkpt lat="43.41892" lon="6.51058">
        <ele>194.19999694824</ele>
        <time>2017-01-28T09:46:03.000Z</time>
      </trkpt>
      <trkpt lat="43.41889" lon="6.51058">
        <ele>194.60000610352</ele>
        <time>2017-01-28T09:46:05.000Z</time>
      </trkpt>
      <trkpt lat="43.41883" lon="6.5106">
        <ele>195.19999694824</ele>
        <time>2017-01-28T09:46:08.000Z</time>
      </trkpt>
      <trkpt lat="43.41877" lon="6.5106">
        <ele>195.19999694824</ele>
        <time>2017-01-28T09:46:12.000Z</time>
      </trkpt>
      <trkpt lat="43.41876" lon="6.5106">
        <ele>195.60000610352</ele>
        <time>2017-01-28T09:46:13.000Z</time>
      </trkpt>
      <trkpt lat="43.41874" lon="6.5106">
        <ele>196.19999694824</ele>
        <time>2017-01-28T09:46:17.000Z</time>
      </trkpt>
      <trkpt lat="43.41873" lon="6.5106">
        <ele>196.39999389648</ele>
        <time>2017-01-28T09:46:18.000Z</time>
      </trkpt>
      <trkpt lat="43.41868" lon="6.51059">
        <ele>197.39999389648</ele>
        <time>2017-01-28T09:46:23.000Z</time>
      </trkpt>
      <trkpt lat="43.41868" lon="6.5106">
        <ele>197.60000610352</ele>
        <time>2017-01-28T09:46:24.000Z</time>
      </trkpt>
      <trkpt lat="43.41861" lon="6.5106">
        <ele>198.60000610352</ele>
        <time>2017-01-28T09:46:31.000Z</time>
      </trkpt>
      <trkpt lat="43.41857" lon="6.5106">
        <ele>199.80000305176</ele>
        <time>2017-01-28T09:46:37.000Z</time>
      </trkpt>
      <trkpt lat="43.41856" lon="6.5106">
        <ele>200</ele>
        <time>2017-01-28T09:46:38.000Z</time>
      </trkpt>
      <trkpt lat="43.41853" lon="6.5106">
        <ele>200.80000305176</ele>
        <time>2017-01-28T09:46:43.000Z</time>
      </trkpt>
      <trkpt lat="43.41851" lon="6.51061">
        <ele>201.39999389648</ele>
        <time>2017-01-28T09:46:47.000Z</time>
      </trkpt>
      <trkpt lat="43.41845" lon="6.51061">
        <ele>201.60000610352</ele>
        <time>2017-01-28T09:46:54.000Z</time>
      </trkpt>
      <trkpt lat="43.41843" lon="6.51061">
        <ele>201.80000305176</ele>
        <time>2017-01-28T09:46:57.000Z</time>
      </trkpt>
      <trkpt lat="43.41842" lon="6.51061">
        <ele>202.80000305176</ele>
        <time>2017-01-28T09:47:01.000Z</time>
      </trkpt>
      <trkpt lat="43.41842" lon="6.51061">
        <ele>203</ele>
        <time>2017-01-28T09:47:02.000Z</time>
      </trkpt>
      <trkpt lat="43.41841" lon="6.51062">
        <ele>203.19999694824</ele>
        <time>2017-01-28T09:47:06.000Z</time>
      </trkpt>
      <trkpt lat="43.41839" lon="6.51062">
        <ele>203.19999694824</ele>
        <time>2017-01-28T09:47:09.000Z</time>
      </trkpt>
      <trkpt lat="43.41838" lon="6.51063">
        <ele>203.39999389648</ele>
        <time>2017-01-28T09:47:11.000Z</time>
      </trkpt>
      <trkpt lat="43.41832" lon="6.51065">
        <ele>204</ele>
        <time>2017-01-28T09:47:19.000Z</time>
      </trkpt>
      <trkpt lat="43.41831" lon="6.51066">
        <ele>204.60000610352</ele>
        <time>2017-01-28T09:47:21.000Z</time>
      </trkpt>
      <trkpt lat="43.41829" lon="6.51067">
        <ele>205.19999694824</ele>
        <time>2017-01-28T09:47:24.000Z</time>
      </trkpt>
      <trkpt lat="43.41825" lon="6.51069">
        <ele>206</ele>
        <time>2017-01-28T09:47:29.000Z</time>
      </trkpt>
      <trkpt lat="43.41824" lon="6.51069">
        <ele>206.19999694824</ele>
        <time>2017-01-28T09:47:30.000Z</time>
      </trkpt>
      <trkpt lat="43.4182" lon="6.51071">
        <ele>207.19999694824</ele>
        <time>2017-01-28T09:47:35.000Z</time>
      </trkpt>
      <trkpt lat="43.41819" lon="6.51072">
        <ele>207.19999694824</ele>
        <time>2017-01-28T09:47:36.000Z</time>
      </trkpt>
      <trkpt lat="43.41812" lon="6.51076">
        <ele>208.19999694824</ele>
        <time>2017-01-28T09:47:45.000Z</time>
      </trkpt>
      <trkpt lat="43.41811" lon="6.51076">
        <ele>208.39999389648</ele>
        <time>2017-01-28T09:47:46.000Z</time>
      </trkpt>
      <trkpt lat="43.41809" lon="6.51071">
        <ele>209.19999694824</ele>
        <time>2017-01-28T09:47:51.000Z</time>
      </trkpt>
      <trkpt lat="43.41809" lon="6.51069">
        <ele>209.39999389648</ele>
        <time>2017-01-28T09:47:52.000Z</time>
      </trkpt>
      <trkpt lat="43.41809" lon="6.51068">
        <ele>209.60000610352</ele>
        <time>2017-01-28T09:47:53.000Z</time>
      </trkpt>
      <trkpt lat="43.4181" lon="6.51067">
        <ele>209.60000610352</ele>
        <time>2017-01-28T09:47:54.000Z</time>
      </trkpt>
      <trkpt lat="43.41811" lon="6.51066">
        <ele>210.19999694824</ele>
        <time>2017-01-28T09:47:57.000Z</time>
      </trkpt>
      <trkpt lat="43.41811" lon="6.51066">
        <ele>210.39999389648</ele>
        <time>2017-01-28T09:47:58.000Z</time>
      </trkpt>
      <trkpt lat="43.41811" lon="6.51066">
        <ele>210.39999389648</ele>
        <time>2017-01-28T09:48:00.000Z</time>
      </trkpt>
      <trkpt lat="43.41813" lon="6.51064">
        <ele>210.19999694824</ele>
        <time>2017-01-28T09:48:02.000Z</time>
      </trkpt>
      <trkpt lat="43.41817" lon="6.5106">
        <ele>210.60000610352</ele>
        <time>2017-01-28T09:48:05.000Z</time>
      </trkpt>
      <trkpt lat="43.41822" lon="6.51056">
        <ele>211</ele>
        <time>2017-01-28T09:48:08.000Z</time>
      </trkpt>
      <trkpt lat="43.41833" lon="6.51047">
        <ele>211.19999694824</ele>
        <time>2017-01-28T09:48:14.000Z</time>
      </trkpt>
      <trkpt lat="43.41848" lon="6.51036">
        <ele>211</ele>
        <time>2017-01-28T09:48:20.000Z</time>
      </trkpt>
      <trkpt lat="43.41862" lon="6.5103">
        <ele>211.39999389648</ele>
        <time>2017-01-28T09:48:26.000Z</time>
      </trkpt>
      <trkpt lat="43.41864" lon="6.51029">
        <ele>211.60000610352</ele>
        <time>2017-01-28T09:48:27.000Z</time>
      </trkpt>
      <trkpt lat="43.41879" lon="6.51021">
        <ele>212.60000610352</ele>
        <time>2017-01-28T09:48:33.000Z</time>
      </trkpt>
      <trkpt lat="43.41882" lon="6.5102">
        <ele>212.60000610352</ele>
        <time>2017-01-28T09:48:34.000Z</time>
      </trkpt>
      <trkpt lat="43.41895" lon="6.51009">
        <ele>213.19999694824</ele>
        <time>2017-01-28T09:48:40.000Z</time>
      </trkpt>
      <trkpt lat="43.41902" lon="6.51005">
        <ele>213.60000610352</ele>
        <time>2017-01-28T09:48:43.000Z</time>
      </trkpt>
      <trkpt lat="43.4191" lon="6.51002">
        <ele>214</ele>
        <time>2017-01-28T09:48:46.000Z</time>
      </trkpt>
      <trkpt lat="43.41916" lon="6.51">
        <ele>215</ele>
        <time>2017-01-28T09:48:49.000Z</time>
      </trkpt>
      <trkpt lat="43.41924" lon="6.50996">
        <ele>215.60000610352</ele>
        <time>2017-01-28T09:48:52.000Z</time>
      </trkpt>
      <trkpt lat="43.41931" lon="6.50989">
        <ele>216</ele>
        <time>2017-01-28T09:48:55.000Z</time>
      </trkpt>
      <trkpt lat="43.41941" lon="6.50978">
        <ele>216.80000305176</ele>
        <time>2017-01-28T09:49:00.000Z</time>
      </trkpt>
      <trkpt lat="43.41943" lon="6.50975">
        <ele>217</ele>
        <time>2017-01-28T09:49:01.000Z</time>
      </trkpt>
      <trkpt lat="43.41947" lon="6.50964">
        <ele>217.80000305176</ele>
        <time>2017-01-28T09:49:05.000Z</time>
      </trkpt>
      <trkpt lat="43.41948" lon="6.5096">
        <ele>218</ele>
        <time>2017-01-28T09:49:06.000Z</time>
      </trkpt>
      <trkpt lat="43.41951" lon="6.50949">
        <ele>219.19999694824</ele>
        <time>2017-01-28T09:49:10.000Z</time>
      </trkpt>
      <trkpt lat="43.41952" lon="6.50939">
        <ele>220.39999389648</ele>
        <time>2017-01-28T09:49:14.000Z</time>
      </trkpt>
      <trkpt lat="43.41953" lon="6.50935">
        <ele>220.80000305176</ele>
        <time>2017-01-28T09:49:16.000Z</time>
      </trkpt>
      <trkpt lat="43.41953" lon="6.50928">
        <ele>221.39999389648</ele>
        <time>2017-01-28T09:49:19.000Z</time>
      </trkpt>
      <trkpt lat="43.41953" lon="6.5092">
        <ele>222.19999694824</ele>
        <time>2017-01-28T09:49:22.000Z</time>
      </trkpt>
      <trkpt lat="43.41952" lon="6.50918">
        <ele>222.60000610352</ele>
        <time>2017-01-28T09:49:23.000Z</time>
      </trkpt>
      <trkpt lat="43.4195" lon="6.50905">
        <ele>223.60000610352</ele>
        <time>2017-01-28T09:49:28.000Z</time>
      </trkpt>
      <trkpt lat="43.41948" lon="6.50892">
        <ele>224.60000610352</ele>
        <time>2017-01-28T09:49:33.000Z</time>
      </trkpt>
      <trkpt lat="43.41946" lon="6.50881">
        <ele>225.39999389648</ele>
        <time>2017-01-28T09:49:37.000Z</time>
      </trkpt>
      <trkpt lat="43.41946" lon="6.50878">
        <ele>225.60000610352</ele>
        <time>2017-01-28T09:49:38.000Z</time>
      </trkpt>
      <trkpt lat="43.41945" lon="6.50865">
        <ele>226.39999389648</ele>
        <time>2017-01-28T09:49:43.000Z</time>
      </trkpt>
      <trkpt lat="43.41945" lon="6.5086">
        <ele>226.80000305176</ele>
        <time>2017-01-28T09:49:45.000Z</time>
      </trkpt>
      <trkpt lat="43.41945" lon="6.50849">
        <ele>227.39999389648</ele>
        <time>2017-01-28T09:49:49.000Z</time>
      </trkpt>
      <trkpt lat="43.41945" lon="6.50844">
        <ele>227.80000305176</ele>
        <time>2017-01-28T09:49:51.000Z</time>
      </trkpt>
      <trkpt lat="43.41945" lon="6.50835">
        <ele>228.80000305176</ele>
        <time>2017-01-28T09:49:55.000Z</time>
      </trkpt>
      <trkpt lat="43.41944" lon="6.50833">
        <ele>229.19999694824</ele>
        <time>2017-01-28T09:49:56.000Z</time>
      </trkpt>
      <trkpt lat="43.41944" lon="6.50827">
        <ele>229.80000305176</ele>
        <time>2017-01-28T09:49:59.000Z</time>
      </trkpt>
      <trkpt lat="43.41942" lon="6.50821">
        <ele>230.39999389648</ele>
        <time>2017-01-28T09:50:02.000Z</time>
      </trkpt>
      <trkpt lat="43.41936" lon="6.50812">
        <ele>231</ele>
        <time>2017-01-28T09:50:06.000Z</time>
      </trkpt>
      <trkpt lat="43.41932" lon="6.50809">
        <ele>231.19999694824</ele>
        <time>2017-01-28T09:50:08.000Z</time>
      </trkpt>
      <trkpt lat="43.41923" lon="6.50802">
        <ele>232</ele>
        <time>2017-01-28T09:50:13.000Z</time>
      </trkpt>
      <trkpt lat="43.41921" lon="6.508">
        <ele>232</ele>
        <time>2017-01-28T09:50:14.000Z</time>
      </trkpt>
      <trkpt lat="43.41912" lon="6.50794">
        <ele>232.39999389648</ele>
        <time>2017-01-28T09:50:20.000Z</time>
      </trkpt>
      <trkpt lat="43.41907" lon="6.5078">
        <ele>232.80000305176</ele>
        <time>2017-01-28T09:50:25.000Z</time>
      </trkpt>
      <trkpt lat="43.41907" lon="6.50776">
        <ele>233.19999694824</ele>
        <time>2017-01-28T09:50:27.000Z</time>
      </trkpt>
      <trkpt lat="43.41906" lon="6.50768">
        <ele>234.19999694824</ele>
        <time>2017-01-28T09:50:31.000Z</time>
      </trkpt>
      <trkpt lat="43.41909" lon="6.50754">
        <ele>234.60000610352</ele>
        <time>2017-01-28T09:50:36.000Z</time>
      </trkpt>
      <trkpt lat="43.41907" lon="6.50744">
        <ele>235.39999389648</ele>
        <time>2017-01-28T09:50:41.000Z</time>
      </trkpt>
      <trkpt lat="43.41906" lon="6.50736">
        <ele>236.80000305176</ele>
        <time>2017-01-28T09:50:45.000Z</time>
      </trkpt>
      <trkpt lat="43.41906" lon="6.50734">
        <ele>237.60000610352</ele>
        <time>2017-01-28T09:50:47.000Z</time>
      </trkpt>
      <trkpt lat="43.41905" lon="6.50733">
        <ele>238</ele>
        <time>2017-01-28T09:50:48.000Z</time>
      </trkpt>
      <trkpt lat="43.41903" lon="6.50725">
        <ele>239</ele>
        <time>2017-01-28T09:50:53.000Z</time>
      </trkpt>
      <trkpt lat="43.41903" lon="6.50721">
        <ele>239.39999389648</ele>
        <time>2017-01-28T09:50:55.000Z</time>
      </trkpt>
      <trkpt lat="43.41902" lon="6.50718">
        <ele>240</ele>
        <time>2017-01-28T09:50:57.000Z</time>
      </trkpt>
      <trkpt lat="43.41902" lon="6.50716">
        <ele>240.39999389648</ele>
        <time>2017-01-28T09:50:58.000Z</time>
      </trkpt>
      <trkpt lat="43.41902" lon="6.50713">
        <ele>241.19999694824</ele>
        <time>2017-01-28T09:51:00.000Z</time>
      </trkpt>
      <trkpt lat="43.41902" lon="6.50711">
        <ele>241.60000610352</ele>
        <time>2017-01-28T09:51:01.000Z</time>
      </trkpt>
      <trkpt lat="43.41901" lon="6.50703">
        <ele>242.39999389648</ele>
        <time>2017-01-28T09:51:06.000Z</time>
      </trkpt>
      <trkpt lat="43.419" lon="6.50702">
        <ele>242.60000610352</ele>
        <time>2017-01-28T09:51:07.000Z</time>
      </trkpt>
      <trkpt lat="43.419" lon="6.50698">
        <ele>243.39999389648</ele>
        <time>2017-01-28T09:51:10.000Z</time>
      </trkpt>
      <trkpt lat="43.41898" lon="6.50691">
        <ele>244.39999389648</ele>
        <time>2017-01-28T09:51:15.000Z</time>
      </trkpt>
      <trkpt lat="43.41898" lon="6.50689">
        <ele>244.80000305176</ele>
        <time>2017-01-28T09:51:16.000Z</time>
      </trkpt>
      <trkpt lat="43.41896" lon="6.50679">
        <ele>245.80000305176</ele>
        <time>2017-01-28T09:51:22.000Z</time>
      </trkpt>
      <trkpt lat="43.41895" lon="6.50675">
        <ele>246.39999389648</ele>
        <time>2017-01-28T09:51:24.000Z</time>
      </trkpt>
      <trkpt lat="43.41894" lon="6.50672">
        <ele>247</ele>
        <time>2017-01-28T09:51:26.000Z</time>
      </trkpt>
      <trkpt lat="43.41891" lon="6.50664">
        <ele>248</ele>
        <time>2017-01-28T09:51:31.000Z</time>
      </trkpt>
      <trkpt lat="43.41891" lon="6.50662">
        <ele>248.19999694824</ele>
        <time>2017-01-28T09:51:32.000Z</time>
      </trkpt>
      <trkpt lat="43.41891" lon="6.50661">
        <ele>248.39999389648</ele>
        <time>2017-01-28T09:51:33.000Z</time>
      </trkpt>
      <trkpt lat="43.41892" lon="6.50658">
        <ele>249.39999389648</ele>
        <time>2017-01-28T09:51:36.000Z</time>
      </trkpt>
      <trkpt lat="43.41893" lon="6.50653">
        <ele>250.39999389648</ele>
        <time>2017-01-28T09:51:40.000Z</time>
      </trkpt>
      <trkpt lat="43.41893" lon="6.50652">
        <ele>250.60000610352</ele>
        <time>2017-01-28T09:51:41.000Z</time>
      </trkpt>
      <trkpt lat="43.41896" lon="6.50647">
        <ele>251.60000610352</ele>
        <time>2017-01-28T09:51:45.000Z</time>
      </trkpt>
      <trkpt lat="43.41897" lon="6.50645">
        <ele>252.39999389648</ele>
        <time>2017-01-28T09:51:47.000Z</time>
      </trkpt>
      <trkpt lat="43.41898" lon="6.50644">
        <ele>252.80000305176</ele>
        <time>2017-01-28T09:51:48.000Z</time>
      </trkpt>
      <trkpt lat="43.41905" lon="6.50641">
        <ele>254</ele>
        <time>2017-01-28T09:51:54.000Z</time>
      </trkpt>
      <trkpt lat="43.41914" lon="6.50637">
        <ele>255</ele>
        <time>2017-01-28T09:52:01.000Z</time>
      </trkpt>
      <trkpt lat="43.41915" lon="6.50636">
        <ele>255.19999694824</ele>
        <time>2017-01-28T09:52:02.000Z</time>
      </trkpt>
      <trkpt lat="43.41922" lon="6.5063">
        <ele>256</ele>
        <time>2017-01-28T09:52:08.000Z</time>
      </trkpt>
      <trkpt lat="43.41923" lon="6.50629">
        <ele>256</ele>
        <time>2017-01-28T09:52:09.000Z</time>
      </trkpt>
      <trkpt lat="43.41924" lon="6.50627">
        <ele>256.20001220703</ele>
        <time>2017-01-28T09:52:10.000Z</time>
      </trkpt>
      <trkpt lat="43.41934" lon="6.50618">
        <ele>256.60000610352</ele>
        <time>2017-01-28T09:52:19.000Z</time>
      </trkpt>
      <trkpt lat="43.41934" lon="6.50615">
        <ele>256.60000610352</ele>
        <time>2017-01-28T09:52:21.000Z</time>
      </trkpt>
      <trkpt lat="43.41934" lon="6.5061">
        <ele>256.60000610352</ele>
        <time>2017-01-28T09:52:25.000Z</time>
      </trkpt>
      <trkpt lat="43.41933" lon="6.50608">
        <ele>256.79998779297</ele>
        <time>2017-01-28T09:52:28.000Z</time>
      </trkpt>
      <trkpt lat="43.41929" lon="6.50606">
        <ele>257</ele>
        <time>2017-01-28T09:52:32.000Z</time>
      </trkpt>
      <trkpt lat="43.41926" lon="6.50606">
        <ele>257.20001220703</ele>
        <time>2017-01-28T09:52:35.000Z</time>
      </trkpt>
      <trkpt lat="43.41925" lon="6.50605">
        <ele>257.20001220703</ele>
        <time>2017-01-28T09:52:36.000Z</time>
      </trkpt>
      <trkpt lat="43.41921" lon="6.50604">
        <ele>257.20001220703</ele>
        <time>2017-01-28T09:52:38.000Z</time>
      </trkpt>
      <trkpt lat="43.4191" lon="6.506">
        <ele>257.20001220703</ele>
        <time>2017-01-28T09:52:46.000Z</time>
      </trkpt>
      <trkpt lat="43.41894" lon="6.50593">
        <ele>257.79998779297</ele>
        <time>2017-01-28T09:52:56.000Z</time>
      </trkpt>
      <trkpt lat="43.4189" lon="6.50591">
        <ele>258.20001220703</ele>
        <time>2017-01-28T09:52:58.000Z</time>
      </trkpt>
      <trkpt lat="43.41878" lon="6.50584">
        <ele>259.20001220703</ele>
        <time>2017-01-28T09:53:06.000Z</time>
      </trkpt>
      <trkpt lat="43.41874" lon="6.50581">
        <ele>259.39999389648</ele>
        <time>2017-01-28T09:53:08.000Z</time>
      </trkpt>
      <trkpt lat="43.41863" lon="6.50575">
        <ele>260.39999389648</ele>
        <time>2017-01-28T09:53:14.000Z</time>
      </trkpt>
      <trkpt lat="43.41861" lon="6.50573">
        <ele>260.79998779297</ele>
        <time>2017-01-28T09:53:15.000Z</time>
      </trkpt>
      <trkpt lat="43.41854" lon="6.5057">
        <ele>261.60000610352</ele>
        <time>2017-01-28T09:53:19.000Z</time>
      </trkpt>
      <trkpt lat="43.41846" lon="6.50566">
        <ele>262.39999389648</ele>
        <time>2017-01-28T09:53:23.000Z</time>
      </trkpt>
      <trkpt lat="43.41842" lon="6.50564">
        <ele>262.79998779297</ele>
        <time>2017-01-28T09:53:25.000Z</time>
      </trkpt>
      <trkpt lat="43.41831" lon="6.50559">
        <ele>264</ele>
        <time>2017-01-28T09:53:30.000Z</time>
      </trkpt>
      <trkpt lat="43.41828" lon="6.50558">
        <ele>264.20001220703</ele>
        <time>2017-01-28T09:53:31.000Z</time>
      </trkpt>
      <trkpt lat="43.41809" lon="6.50554">
        <ele>265.20001220703</ele>
        <time>2017-01-28T09:53:39.000Z</time>
      </trkpt>
      <trkpt lat="43.41807" lon="6.50554">
        <ele>265.39999389648</ele>
        <time>2017-01-28T09:53:40.000Z</time>
      </trkpt>
      <trkpt lat="43.41795" lon="6.50555">
        <ele>266.39999389648</ele>
        <time>2017-01-28T09:53:46.000Z</time>
      </trkpt>
      <trkpt lat="43.4179" lon="6.50556">
        <ele>267</ele>
        <time>2017-01-28T09:53:48.000Z</time>
      </trkpt>
      <trkpt lat="43.41786" lon="6.50557">
        <ele>267.60000610352</ele>
        <time>2017-01-28T09:53:50.000Z</time>
      </trkpt>
      <trkpt lat="43.41773" lon="6.50563">
        <ele>268.39999389648</ele>
        <time>2017-01-28T09:53:57.000Z</time>
      </trkpt>
      <trkpt lat="43.4177" lon="6.50565">
        <ele>268.60000610352</ele>
        <time>2017-01-28T09:53:59.000Z</time>
      </trkpt>
      <trkpt lat="43.41757" lon="6.50572">
        <ele>269</ele>
        <time>2017-01-28T09:54:06.000Z</time>
      </trkpt>
      <trkpt lat="43.41744" lon="6.50582">
        <ele>269</ele>
        <time>2017-01-28T09:54:13.000Z</time>
      </trkpt>
      <trkpt lat="43.41728" lon="6.50594">
        <ele>269.39999389648</ele>
        <time>2017-01-28T09:54:22.000Z</time>
      </trkpt>
      <trkpt lat="43.41723" lon="6.50599">
        <ele>269.60000610352</ele>
        <time>2017-01-28T09:54:25.000Z</time>
      </trkpt>
      <trkpt lat="43.41715" lon="6.50605">
        <ele>270.39999389648</ele>
        <time>2017-01-28T09:54:30.000Z</time>
      </trkpt>
      <trkpt lat="43.41712" lon="6.50608">
        <ele>270.79998779297</ele>
        <time>2017-01-28T09:54:32.000Z</time>
      </trkpt>
      <trkpt lat="43.41705" lon="6.50614">
        <ele>271.39999389648</ele>
        <time>2017-01-28T09:54:38.000Z</time>
      </trkpt>
      <trkpt lat="43.41704" lon="6.50614">
        <ele>271.60000610352</ele>
        <time>2017-01-28T09:54:39.000Z</time>
      </trkpt>
      <trkpt lat="43.41702" lon="6.50614">
        <ele>272</ele>
        <time>2017-01-28T09:54:41.000Z</time>
      </trkpt>
      <trkpt lat="43.41701" lon="6.50615">
        <ele>272.39999389648</ele>
        <time>2017-01-28T09:54:42.000Z</time>
      </trkpt>
      <trkpt lat="43.41699" lon="6.50615">
        <ele>272.60000610352</ele>
        <time>2017-01-28T09:54:43.000Z</time>
      </trkpt>
      <trkpt lat="43.41696" lon="6.5062">
        <ele>272.79998779297</ele>
        <time>2017-01-28T09:54:46.000Z</time>
      </trkpt>
      <trkpt lat="43.41694" lon="6.50625">
        <ele>272.60000610352</ele>
        <time>2017-01-28T09:54:48.000Z</time>
      </trkpt>
      <trkpt lat="43.41693" lon="6.50626">
        <ele>272.79998779297</ele>
        <time>2017-01-28T09:54:49.000Z</time>
      </trkpt>
      <trkpt lat="43.41689" lon="6.50631">
        <ele>273</ele>
        <time>2017-01-28T09:54:52.000Z</time>
      </trkpt>
      <trkpt lat="43.41683" lon="6.50635">
        <ele>273.79998779297</ele>
        <time>2017-01-28T09:54:57.000Z</time>
      </trkpt>
      <trkpt lat="43.41681" lon="6.50636">
        <ele>274.20001220703</ele>
        <time>2017-01-28T09:54:59.000Z</time>
      </trkpt>
      <trkpt lat="43.41675" lon="6.5064">
        <ele>275.20001220703</ele>
        <time>2017-01-28T09:55:03.000Z</time>
      </trkpt>
      <trkpt lat="43.41674" lon="6.50642">
        <ele>275.39999389648</ele>
        <time>2017-01-28T09:55:04.000Z</time>
      </trkpt>
      <trkpt lat="43.4167" lon="6.50645">
        <ele>276.39999389648</ele>
        <time>2017-01-28T09:55:07.000Z</time>
      </trkpt>
      <trkpt lat="43.41666" lon="6.50649">
        <ele>277.60000610352</ele>
        <time>2017-01-28T09:55:11.000Z</time>
      </trkpt>
      <trkpt lat="43.41662" lon="6.50654">
        <ele>278.60000610352</ele>
        <time>2017-01-28T09:55:15.000Z</time>
      </trkpt>
      <trkpt lat="43.41661" lon="6.50656">
        <ele>278.79998779297</ele>
        <time>2017-01-28T09:55:16.000Z</time>
      </trkpt>
      <trkpt lat="43.41651" lon="6.50663">
        <ele>280</ele>
        <time>2017-01-28T09:55:23.000Z</time>
      </trkpt>
      <trkpt lat="43.41648" lon="6.50666">
        <ele>281</ele>
        <time>2017-01-28T09:55:26.000Z</time>
      </trkpt>
      <trkpt lat="43.41646" lon="6.50668">
        <ele>282.39999389648</ele>
        <time>2017-01-28T09:55:29.000Z</time>
      </trkpt>
      <trkpt lat="43.41644" lon="6.50669">
        <ele>283</ele>
        <time>2017-01-28T09:55:31.000Z</time>
      </trkpt>
      <trkpt lat="43.41643" lon="6.5067">
        <ele>283.60000610352</ele>
        <time>2017-01-28T09:55:32.000Z</time>
      </trkpt>
      <trkpt lat="43.41639" lon="6.50674">
        <ele>284.79998779297</ele>
        <time>2017-01-28T09:55:37.000Z</time>
      </trkpt>
      <trkpt lat="43.41638" lon="6.50675">
        <ele>285.20001220703</ele>
        <time>2017-01-28T09:55:39.000Z</time>
      </trkpt>
      <trkpt lat="43.41635" lon="6.50678">
        <ele>286</ele>
        <time>2017-01-28T09:55:43.000Z</time>
      </trkpt>
      <trkpt lat="43.41632" lon="6.5068">
        <ele>287</ele>
        <time>2017-01-28T09:55:46.000Z</time>
      </trkpt>
      <trkpt lat="43.41628" lon="6.50683">
        <ele>288.20001220703</ele>
        <time>2017-01-28T09:55:51.000Z</time>
      </trkpt>
      <trkpt lat="43.41625" lon="6.50687">
        <ele>289</ele>
        <time>2017-01-28T09:55:56.000Z</time>
      </trkpt>
      <trkpt lat="43.41623" lon="6.50688">
        <ele>289.20001220703</ele>
        <time>2017-01-28T09:55:58.000Z</time>
      </trkpt>
      <trkpt lat="43.41618" lon="6.5069">
        <ele>290.39999389648</ele>
        <time>2017-01-28T09:56:03.000Z</time>
      </trkpt>
      <trkpt lat="43.41618" lon="6.50691">
        <ele>290.60000610352</ele>
        <time>2017-01-28T09:56:04.000Z</time>
      </trkpt>
      <trkpt lat="43.4161" lon="6.50697">
        <ele>291.20001220703</ele>
        <time>2017-01-28T09:56:12.000Z</time>
      </trkpt>
      <trkpt lat="43.41607" lon="6.50699">
        <ele>291.39999389648</ele>
        <time>2017-01-28T09:56:15.000Z</time>
      </trkpt>
      <trkpt lat="43.41604" lon="6.50702">
        <ele>292.60000610352</ele>
        <time>2017-01-28T09:56:19.000Z</time>
      </trkpt>
      <trkpt lat="43.416" lon="6.50705">
        <ele>293.79998779297</ele>
        <time>2017-01-28T09:56:23.000Z</time>
      </trkpt>
      <trkpt lat="43.41596" lon="6.50709">
        <ele>295</ele>
        <time>2017-01-28T09:56:27.000Z</time>
      </trkpt>
      <trkpt lat="43.41596" lon="6.50709">
        <ele>295</ele>
        <time>2017-01-28T09:56:28.000Z</time>
      </trkpt>
      <trkpt lat="43.41591" lon="6.50714">
        <ele>295.60000610352</ele>
        <time>2017-01-28T09:56:34.000Z</time>
      </trkpt>
      <trkpt lat="43.41589" lon="6.50716">
        <ele>296</ele>
        <time>2017-01-28T09:56:37.000Z</time>
      </trkpt>
      <trkpt lat="43.41588" lon="6.50717">
        <ele>296.39999389648</ele>
        <time>2017-01-28T09:56:38.000Z</time>
      </trkpt>
      <trkpt lat="43.41588" lon="6.50717">
        <ele>296.60000610352</ele>
        <time>2017-01-28T09:56:39.000Z</time>
      </trkpt>
      <trkpt lat="43.41586" lon="6.50719">
        <ele>297.20001220703</ele>
        <time>2017-01-28T09:56:41.000Z</time>
      </trkpt>
      <trkpt lat="43.41582" lon="6.50722">
        <ele>298.20001220703</ele>
        <time>2017-01-28T09:56:45.000Z</time>
      </trkpt>
      <trkpt lat="43.41581" lon="6.50723">
        <ele>298.39999389648</ele>
        <time>2017-01-28T09:56:46.000Z</time>
      </trkpt>
      <trkpt lat="43.41577" lon="6.50726">
        <ele>299.39999389648</ele>
        <time>2017-01-28T09:56:50.000Z</time>
      </trkpt>
      <trkpt lat="43.41575" lon="6.50728">
        <ele>300</ele>
        <time>2017-01-28T09:56:52.000Z</time>
      </trkpt>
      <trkpt lat="43.41573" lon="6.50731">
        <ele>300.79998779297</ele>
        <time>2017-01-28T09:56:54.000Z</time>
      </trkpt>
      <trkpt lat="43.41567" lon="6.50737">
        <ele>301.20001220703</ele>
        <time>2017-01-28T09:57:00.000Z</time>
      </trkpt>
      <trkpt lat="43.41562" lon="6.5074">
        <ele>302</ele>
        <time>2017-01-28T09:57:04.000Z</time>
      </trkpt>
      <trkpt lat="43.41559" lon="6.50743">
        <ele>302.39999389648</ele>
        <time>2017-01-28T09:57:07.000Z</time>
      </trkpt>
      <trkpt lat="43.41552" lon="6.50749">
        <ele>302.79998779297</ele>
        <time>2017-01-28T09:57:14.000Z</time>
      </trkpt>
      <trkpt lat="43.41551" lon="6.5075">
        <ele>303.20001220703</ele>
        <time>2017-01-28T09:57:15.000Z</time>
      </trkpt>
      <trkpt lat="43.41542" lon="6.50756">
        <ele>304.20001220703</ele>
        <time>2017-01-28T09:57:22.000Z</time>
      </trkpt>
      <trkpt lat="43.41539" lon="6.50759">
        <ele>304.20001220703</ele>
        <time>2017-01-28T09:57:25.000Z</time>
      </trkpt>
      <trkpt lat="43.41534" lon="6.50763">
        <ele>305</ele>
        <time>2017-01-28T09:57:29.000Z</time>
      </trkpt>
      <trkpt lat="43.41533" lon="6.50764">
        <ele>305.20001220703</ele>
        <time>2017-01-28T09:57:30.000Z</time>
      </trkpt>
      <trkpt lat="43.41527" lon="6.50768">
        <ele>306.60000610352</ele>
        <time>2017-01-28T09:57:34.000Z</time>
      </trkpt>
      <trkpt lat="43.41521" lon="6.50773">
        <ele>307.79998779297</ele>
        <time>2017-01-28T09:57:38.000Z</time>
      </trkpt>
      <trkpt lat="43.4152" lon="6.50774">
        <ele>308</ele>
        <time>2017-01-28T09:57:39.000Z</time>
      </trkpt>
      <trkpt lat="43.41508" lon="6.50782">
        <ele>308.79998779297</ele>
        <time>2017-01-28T09:57:48.000Z</time>
      </trkpt>
      <trkpt lat="43.41506" lon="6.50783">
        <ele>308.79998779297</ele>
        <time>2017-01-28T09:57:49.000Z</time>
      </trkpt>
      <trkpt lat="43.41495" lon="6.5079">
        <ele>309.79998779297</ele>
        <time>2017-01-28T09:57:57.000Z</time>
      </trkpt>
      <trkpt lat="43.41492" lon="6.50792">
        <ele>310</ele>
        <time>2017-01-28T09:57:59.000Z</time>
      </trkpt>
      <trkpt lat="43.41481" lon="6.50801">
        <ele>310.79998779297</ele>
        <time>2017-01-28T09:58:07.000Z</time>
      </trkpt>
      <trkpt lat="43.41479" lon="6.50802">
        <ele>311</ele>
        <time>2017-01-28T09:58:08.000Z</time>
      </trkpt>
      <trkpt lat="43.41466" lon="6.50807">
        <ele>311.79998779297</ele>
        <time>2017-01-28T09:58:15.000Z</time>
      </trkpt>
      <trkpt lat="43.41465" lon="6.50808">
        <ele>312.20001220703</ele>
        <time>2017-01-28T09:58:16.000Z</time>
      </trkpt>
      <trkpt lat="43.41461" lon="6.50811">
        <ele>313</ele>
        <time>2017-01-28T09:58:19.000Z</time>
      </trkpt>
      <trkpt lat="43.41455" lon="6.50816">
        <ele>314</ele>
        <time>2017-01-28T09:58:24.000Z</time>
      </trkpt>
      <trkpt lat="43.41454" lon="6.50816">
        <ele>314.20001220703</ele>
        <time>2017-01-28T09:58:25.000Z</time>
      </trkpt>
      <trkpt lat="43.41449" lon="6.5082">
        <ele>315.20001220703</ele>
        <time>2017-01-28T09:58:29.000Z</time>
      </trkpt>
      <trkpt lat="43.41445" lon="6.50823">
        <ele>316.20001220703</ele>
        <time>2017-01-28T09:58:33.000Z</time>
      </trkpt>
      <trkpt lat="43.4144" lon="6.50826">
        <ele>317.20001220703</ele>
        <time>2017-01-28T09:58:37.000Z</time>
      </trkpt>
      <trkpt lat="43.41437" lon="6.50828">
        <ele>318.20001220703</ele>
        <time>2017-01-28T09:58:40.000Z</time>
      </trkpt>
      <trkpt lat="43.41435" lon="6.5083">
        <ele>318.60000610352</ele>
        <time>2017-01-28T09:58:42.000Z</time>
      </trkpt>
      <trkpt lat="43.41431" lon="6.50832">
        <ele>319.39999389648</ele>
        <time>2017-01-28T09:58:46.000Z</time>
      </trkpt>
      <trkpt lat="43.41429" lon="6.50833">
        <ele>319.79998779297</ele>
        <time>2017-01-28T09:58:48.000Z</time>
      </trkpt>
      <trkpt lat="43.41428" lon="6.50835">
        <ele>320.20001220703</ele>
        <time>2017-01-28T09:58:50.000Z</time>
      </trkpt>
      <trkpt lat="43.41427" lon="6.50836">
        <ele>320.60000610352</ele>
        <time>2017-01-28T09:58:51.000Z</time>
      </trkpt>
      <trkpt lat="43.41424" lon="6.50838">
        <ele>321.79998779297</ele>
        <time>2017-01-28T09:58:54.000Z</time>
      </trkpt>
      <trkpt lat="43.4142" lon="6.50842">
        <ele>322.79998779297</ele>
        <time>2017-01-28T09:58:58.000Z</time>
      </trkpt>
      <trkpt lat="43.41419" lon="6.50843">
        <ele>323</ele>
        <time>2017-01-28T09:58:59.000Z</time>
      </trkpt>
      <trkpt lat="43.4141" lon="6.50851">
        <ele>323.79998779297</ele>
        <time>2017-01-28T09:59:07.000Z</time>
      </trkpt>
      <trkpt lat="43.41409" lon="6.50853">
        <ele>324</ele>
        <time>2017-01-28T09:59:08.000Z</time>
      </trkpt>
      <trkpt lat="43.41404" lon="6.50857">
        <ele>325.20001220703</ele>
        <time>2017-01-28T09:59:13.000Z</time>
      </trkpt>
      <trkpt lat="43.41403" lon="6.50859">
        <ele>325.79998779297</ele>
        <time>2017-01-28T09:59:15.000Z</time>
      </trkpt>
      <trkpt lat="43.414" lon="6.50862">
        <ele>326.39999389648</ele>
        <time>2017-01-28T09:59:18.000Z</time>
      </trkpt>
      <trkpt lat="43.41395" lon="6.50869">
        <ele>327</ele>
        <time>2017-01-28T09:59:24.000Z</time>
      </trkpt>
      <trkpt lat="43.41394" lon="6.50871">
        <ele>327.39999389648</ele>
        <time>2017-01-28T09:59:26.000Z</time>
      </trkpt>
      <trkpt lat="43.4139" lon="6.50876">
        <ele>328</ele>
        <time>2017-01-28T09:59:31.000Z</time>
      </trkpt>
      <trkpt lat="43.41389" lon="6.50879">
        <ele>328.60000610352</ele>
        <time>2017-01-28T09:59:33.000Z</time>
      </trkpt>
      <trkpt lat="43.41385" lon="6.50884">
        <ele>329.20001220703</ele>
        <time>2017-01-28T09:59:38.000Z</time>
      </trkpt>
      <trkpt lat="43.41383" lon="6.50888">
        <ele>329.60000610352</ele>
        <time>2017-01-28T09:59:41.000Z</time>
      </trkpt>
      <trkpt lat="43.41381" lon="6.50891">
        <ele>330.20001220703</ele>
        <time>2017-01-28T09:59:45.000Z</time>
      </trkpt>
      <trkpt lat="43.41378" lon="6.50897">
        <ele>330.60000610352</ele>
        <time>2017-01-28T09:59:50.000Z</time>
      </trkpt>
      <trkpt lat="43.41377" lon="6.509">
        <ele>331</ele>
        <time>2017-01-28T09:59:52.000Z</time>
      </trkpt>
      <trkpt lat="43.41374" lon="6.50905">
        <ele>331.79998779297</ele>
        <time>2017-01-28T09:59:56.000Z</time>
      </trkpt>
      <trkpt lat="43.41372" lon="6.50909">
        <ele>332</ele>
        <time>2017-01-28T09:59:59.000Z</time>
      </trkpt>
      <trkpt lat="43.41368" lon="6.50921">
        <ele>332.20001220703</ele>
        <time>2017-01-28T10:00:06.000Z</time>
      </trkpt>
      <trkpt lat="43.41366" lon="6.50927">
        <ele>332.79998779297</ele>
        <time>2017-01-28T10:00:09.000Z</time>
      </trkpt>
      <trkpt lat="43.41365" lon="6.50933">
        <ele>334</ele>
        <time>2017-01-28T10:00:13.000Z</time>
      </trkpt>
      <trkpt lat="43.41365" lon="6.50935">
        <ele>334.20001220703</ele>
        <time>2017-01-28T10:00:14.000Z</time>
      </trkpt>
      <trkpt lat="43.41363" lon="6.50938">
        <ele>334.60000610352</ele>
        <time>2017-01-28T10:00:16.000Z</time>
      </trkpt>
      <trkpt lat="43.41363" lon="6.50943">
        <ele>335.20001220703</ele>
        <time>2017-01-28T10:00:19.000Z</time>
      </trkpt>
      <trkpt lat="43.41362" lon="6.50946">
        <ele>335.39999389648</ele>
        <time>2017-01-28T10:00:21.000Z</time>
      </trkpt>
      <trkpt lat="43.4136" lon="6.50952">
        <ele>335.79998779297</ele>
        <time>2017-01-28T10:00:25.000Z</time>
      </trkpt>
      <trkpt lat="43.41358" lon="6.50956">
        <ele>336.20001220703</ele>
        <time>2017-01-28T10:00:28.000Z</time>
      </trkpt>
      <trkpt lat="43.41354" lon="6.50962">
        <ele>336.60000610352</ele>
        <time>2017-01-28T10:00:31.000Z</time>
      </trkpt>
      <trkpt lat="43.41347" lon="6.50969">
        <ele>337</ele>
        <time>2017-01-28T10:00:38.000Z</time>
      </trkpt>
      <trkpt lat="43.4134" lon="6.50977">
        <ele>337.39999389648</ele>
        <time>2017-01-28T10:00:41.000Z</time>
      </trkpt>
      <trkpt lat="43.41332" lon="6.50986">
        <ele>338.39999389648</ele>
        <time>2017-01-28T10:00:46.000Z</time>
      </trkpt>
      <trkpt lat="43.41326" lon="6.5099">
        <ele>339.60000610352</ele>
        <time>2017-01-28T10:00:50.000Z</time>
      </trkpt>
      <trkpt lat="43.41318" lon="6.50997">
        <ele>340.79998779297</ele>
        <time>2017-01-28T10:00:55.000Z</time>
      </trkpt>
      <trkpt lat="43.41302" lon="6.51008">
        <ele>341.39999389648</ele>
        <time>2017-01-28T10:01:03.000Z</time>
      </trkpt>
      <trkpt lat="43.41274" lon="6.51021">
        <ele>341.79998779297</ele>
        <time>2017-01-28T10:01:15.000Z</time>
      </trkpt>
      <trkpt lat="43.4127" lon="6.51023">
        <ele>342</ele>
        <time>2017-01-28T10:01:17.000Z</time>
      </trkpt>
      <trkpt lat="43.41263" lon="6.51025">
        <ele>343</ele>
        <time>2017-01-28T10:01:21.000Z</time>
      </trkpt>
      <trkpt lat="43.41259" lon="6.51027">
        <ele>343.39999389648</ele>
        <time>2017-01-28T10:01:23.000Z</time>
      </trkpt>
      <trkpt lat="43.41248" lon="6.51029">
        <ele>344</ele>
        <time>2017-01-28T10:01:28.000Z</time>
      </trkpt>
      <trkpt lat="43.41242" lon="6.5103">
        <ele>344.39999389648</ele>
        <time>2017-01-28T10:01:31.000Z</time>
      </trkpt>
      <trkpt lat="43.41229" lon="6.51029">
        <ele>345.20001220703</ele>
        <time>2017-01-28T10:01:36.000Z</time>
      </trkpt>
      <trkpt lat="43.41219" lon="6.51026">
        <ele>345.39999389648</ele>
        <time>2017-01-28T10:01:39.000Z</time>
      </trkpt>
      <trkpt lat="43.41209" lon="6.51017">
        <ele>345.20001220703</ele>
        <time>2017-01-28T10:01:42.000Z</time>
      </trkpt>
      <trkpt lat="43.41208" lon="6.5101">
        <ele>345.20001220703</ele>
        <time>2017-01-28T10:01:43.000Z</time>
      </trkpt>
      <trkpt lat="43.41211" lon="6.50993">
        <ele>344.79998779297</ele>
        <time>2017-01-28T10:01:46.000Z</time>
      </trkpt>
      <trkpt lat="43.41219" lon="6.50978">
        <ele>344.79998779297</ele>
        <time>2017-01-28T10:01:49.000Z</time>
      </trkpt>
      <trkpt lat="43.41225" lon="6.5097">
        <ele>344.60000610352</ele>
        <time>2017-01-28T10:01:51.000Z</time>
      </trkpt>
      <trkpt lat="43.41237" lon="6.50949">
        <ele>345</ele>
        <time>2017-01-28T10:01:57.000Z</time>
      </trkpt>
      <trkpt lat="43.41241" lon="6.50933">
        <ele>345</ele>
        <time>2017-01-28T10:02:03.000Z</time>
      </trkpt>
      <trkpt lat="43.41242" lon="6.50933">
        <ele>344.79998779297</ele>
        <time>2017-01-28T10:02:05.000Z</time>
      </trkpt>
      <trkpt lat="43.41243" lon="6.50932">
        <ele>344.79998779297</ele>
        <time>2017-01-28T10:02:07.000Z</time>
      </trkpt>
      <trkpt lat="43.41244" lon="6.50933">
        <ele>344.79998779297</ele>
        <time>2017-01-28T10:02:11.000Z</time>
      </trkpt>
      <trkpt lat="43.41245" lon="6.50934">
        <ele>344.60000610352</ele>
        <time>2017-01-28T10:02:17.000Z</time>
      </trkpt>
      <trkpt lat="43.41245" lon="6.50931">
        <ele>344.79998779297</ele>
        <time>2017-01-28T10:02:35.000Z</time>
      </trkpt>
      <trkpt lat="43.41242" lon="6.50925">
        <ele>344.79998779297</ele>
        <time>2017-01-28T10:02:41.000Z</time>
      </trkpt>
      <trkpt lat="43.41242" lon="6.50918">
        <ele>344.60000610352</ele>
        <time>2017-01-28T10:02:46.000Z</time>
      </trkpt>
      <trkpt lat="43.41242" lon="6.50912">
        <ele>344</ele>
        <time>2017-01-28T10:02:51.000Z</time>
      </trkpt>
      <trkpt lat="43.41242" lon="6.5091">
        <ele>344.20001220703</ele>
        <time>2017-01-28T10:02:53.000Z</time>
      </trkpt>
      <trkpt lat="43.41242" lon="6.50915">
        <ele>344.39999389648</ele>
        <time>2017-01-28T10:02:56.000Z</time>
      </trkpt>
      <trkpt lat="43.41242" lon="6.50916">
        <ele>344.39999389648</ele>
        <time>2017-01-28T10:02:57.000Z</time>
      </trkpt>
      <trkpt lat="43.41242" lon="6.50927">
        <ele>345</ele>
        <time>2017-01-28T10:03:05.000Z</time>
      </trkpt>
      <trkpt lat="43.41242" lon="6.50926">
        <ele>345.20001220703</ele>
        <time>2017-01-28T10:03:08.000Z</time>
      </trkpt>
      <trkpt lat="43.41242" lon="6.50927">
        <ele>345.60000610352</ele>
        <time>2017-01-28T10:03:11.000Z</time>
      </trkpt>
      <trkpt lat="43.41241" lon="6.5093">
        <ele>345.60000610352</ele>
        <time>2017-01-28T10:03:17.000Z</time>
      </trkpt>
      <trkpt lat="43.4124" lon="6.50929">
        <ele>345.39999389648</ele>
        <time>2017-01-28T10:03:21.000Z</time>
      </trkpt>
      <trkpt lat="43.4124" lon="6.50929">
        <ele>345.20001220703</ele>
        <time>2017-01-28T10:03:27.000Z</time>
      </trkpt>
      <trkpt lat="43.41241" lon="6.50927">
        <ele>344.79998779297</ele>
        <time>2017-01-28T10:03:36.000Z</time>
      </trkpt>
      <trkpt lat="43.41241" lon="6.50919">
        <ele>344.79998779297</ele>
        <time>2017-01-28T10:03:42.000Z</time>
      </trkpt>
      <trkpt lat="43.4124" lon="6.50912">
        <ele>344.20001220703</ele>
        <time>2017-01-28T10:03:46.000Z</time>
      </trkpt>
      <trkpt lat="43.4124" lon="6.50909">
        <ele>344</ele>
        <time>2017-01-28T10:03:48.000Z</time>
      </trkpt>
      <trkpt lat="43.41241" lon="6.509">
        <ele>343.20001220703</ele>
        <time>2017-01-28T10:03:55.000Z</time>
      </trkpt>
      <trkpt lat="43.41242" lon="6.50899">
        <ele>343.20001220703</ele>
        <time>2017-01-28T10:03:56.000Z</time>
      </trkpt>
      <trkpt lat="43.41244" lon="6.50897">
        <ele>342.79998779297</ele>
        <time>2017-01-28T10:04:00.000Z</time>
      </trkpt>
      <trkpt lat="43.41246" lon="6.50898">
        <ele>342.60000610352</ele>
        <time>2017-01-28T10:04:02.000Z</time>
      </trkpt>
      <trkpt lat="43.41251" lon="6.50895">
        <ele>342.20001220703</ele>
        <time>2017-01-28T10:04:08.000Z</time>
      </trkpt>
      <trkpt lat="43.41252" lon="6.50894">
        <ele>342.20001220703</ele>
        <time>2017-01-28T10:04:09.000Z</time>
      </trkpt>
      <trkpt lat="43.41255" lon="6.50892">
        <ele>341.60000610352</ele>
        <time>2017-01-28T10:04:15.000Z</time>
      </trkpt>
      <trkpt lat="43.41255" lon="6.50891">
        <ele>341.39999389648</ele>
        <time>2017-01-28T10:04:16.000Z</time>
      </trkpt>
      <trkpt lat="43.41253" lon="6.50885">
        <ele>341</ele>
        <time>2017-01-28T10:04:19.000Z</time>
      </trkpt>
      <trkpt lat="43.41253" lon="6.50884">
        <ele>340.79998779297</ele>
        <time>2017-01-28T10:04:20.000Z</time>
      </trkpt>
      <trkpt lat="43.41252" lon="6.50881">
        <ele>340</ele>
        <time>2017-01-28T10:04:23.000Z</time>
      </trkpt>
      <trkpt lat="43.41252" lon="6.50879">
        <ele>340</ele>
        <time>2017-01-28T10:04:24.000Z</time>
      </trkpt>
      <trkpt lat="43.41253" lon="6.50879">
        <ele>339.79998779297</ele>
        <time>2017-01-28T10:04:25.000Z</time>
      </trkpt>
      <trkpt lat="43.41254" lon="6.50878">
        <ele>339.79998779297</ele>
        <time>2017-01-28T10:04:26.000Z</time>
      </trkpt>
      <trkpt lat="43.41255" lon="6.50879">
        <ele>339.39999389648</ele>
        <time>2017-01-28T10:04:30.000Z</time>
      </trkpt>
      <trkpt lat="43.41253" lon="6.5088">
        <ele>339.39999389648</ele>
        <time>2017-01-28T10:04:33.000Z</time>
      </trkpt>
      <trkpt lat="43.41251" lon="6.50883">
        <ele>339.20001220703</ele>
        <time>2017-01-28T10:04:36.000Z</time>
      </trkpt>
      <trkpt lat="43.41247" lon="6.50889">
        <ele>339.79998779297</ele>
        <time>2017-01-28T10:04:42.000Z</time>
      </trkpt>
      <trkpt lat="43.41247" lon="6.5089">
        <ele>340.20001220703</ele>
        <time>2017-01-28T10:04:43.000Z</time>
      </trkpt>
      <trkpt lat="43.41244" lon="6.50895">
        <ele>340.79998779297</ele>
        <time>2017-01-28T10:04:47.000Z</time>
      </trkpt>
      <trkpt lat="43.41243" lon="6.50896">
        <ele>341</ele>
        <time>2017-01-28T10:04:48.000Z</time>
      </trkpt>
      <trkpt lat="43.4124" lon="6.509">
        <ele>342.20001220703</ele>
        <time>2017-01-28T10:04:52.000Z</time>
      </trkpt>
      <trkpt lat="43.41239" lon="6.50901">
        <ele>342.39999389648</ele>
        <time>2017-01-28T10:04:53.000Z</time>
      </trkpt>
      <trkpt lat="43.41238" lon="6.50911">
        <ele>343.20001220703</ele>
        <time>2017-01-28T10:05:00.000Z</time>
      </trkpt>
      <trkpt lat="43.41238" lon="6.50913">
        <ele>343.39999389648</ele>
        <time>2017-01-28T10:05:01.000Z</time>
      </trkpt>
      <trkpt lat="43.41239" lon="6.50921">
        <ele>344.20001220703</ele>
        <time>2017-01-28T10:05:06.000Z</time>
      </trkpt>
      <trkpt lat="43.4124" lon="6.50927">
        <ele>344.60000610352</ele>
        <time>2017-01-28T10:05:10.000Z</time>
      </trkpt>
      <trkpt lat="43.4124" lon="6.50934">
        <ele>344.20001220703</ele>
        <time>2017-01-28T10:05:18.000Z</time>
      </trkpt>
      <trkpt lat="43.41239" lon="6.50935">
        <ele>344.60000610352</ele>
        <time>2017-01-28T10:05:29.000Z</time>
      </trkpt>
      <trkpt lat="43.41239" lon="6.50934">
        <ele>344.79998779297</ele>
        <time>2017-01-28T10:05:36.000Z</time>
      </trkpt>
      <trkpt lat="43.41239" lon="6.50935">
        <ele>344.79998779297</ele>
        <time>2017-01-28T10:05:49.000Z</time>
      </trkpt>
      <trkpt lat="43.41239" lon="6.50935">
        <ele>345.20001220703</ele>
        <time>2017-01-28T10:06:01.000Z</time>
      </trkpt>
      <trkpt lat="43.4124" lon="6.50934">
        <ele>344.79998779297</ele>
        <time>2017-01-28T10:06:11.000Z</time>
      </trkpt>
      <trkpt lat="43.4124" lon="6.50935">
        <ele>344.79998779297</ele>
        <time>2017-01-28T10:06:16.000Z</time>
      </trkpt>
      <trkpt lat="43.4124" lon="6.50934">
        <ele>345.20001220703</ele>
        <time>2017-01-28T10:06:24.000Z</time>
      </trkpt>
      <trkpt lat="43.4124" lon="6.50934">
        <ele>345</ele>
        <time>2017-01-28T10:06:37.000Z</time>
      </trkpt>
      <trkpt lat="43.4124" lon="6.50934">
        <ele>344.60000610352</ele>
        <time>2017-01-28T10:06:46.000Z</time>
      </trkpt>
      <trkpt lat="43.4124" lon="6.50934">
        <ele>344.39999389648</ele>
        <time>2017-01-28T10:06:55.000Z</time>
      </trkpt>
      <trkpt lat="43.4124" lon="6.50933">
        <ele>344.39999389648</ele>
        <time>2017-01-28T10:07:03.000Z</time>
      </trkpt>
      <trkpt lat="43.4124" lon="6.50934">
        <ele>345</ele>
        <time>2017-01-28T10:07:12.000Z</time>
      </trkpt>
      <trkpt lat="43.4124" lon="6.50933">
        <ele>344.79998779297</ele>
        <time>2017-01-28T10:07:17.000Z</time>
      </trkpt>
      <trkpt lat="43.4124" lon="6.50934">
        <ele>344.20001220703</ele>
        <time>2017-01-28T10:07:29.000Z</time>
      </trkpt>
      <trkpt lat="43.41242" lon="6.50935">
        <ele>344.39999389648</ele>
        <time>2017-01-28T10:07:35.000Z</time>
      </trkpt>
      <trkpt lat="43.41242" lon="6.50934">
        <ele>344.20001220703</ele>
        <time>2017-01-28T10:07:42.000Z</time>
      </trkpt>
      <trkpt lat="43.41242" lon="6.50931">
        <ele>344.39999389648</ele>
        <time>2017-01-28T10:07:52.000Z</time>
      </trkpt>
      <trkpt lat="43.41245" lon="6.50926">
        <ele>344.60000610352</ele>
        <time>2017-01-28T10:07:55.000Z</time>
      </trkpt>
      <trkpt lat="43.41246" lon="6.50926">
        <ele>344.79998779297</ele>
        <time>2017-01-28T10:07:56.000Z</time>
      </trkpt>
      <trkpt lat="43.41248" lon="6.50934">
        <ele>345</ele>
        <time>2017-01-28T10:07:59.000Z</time>
      </trkpt>
      <trkpt lat="43.41248" lon="6.50941">
        <ele>345</ele>
        <time>2017-01-28T10:08:01.000Z</time>
      </trkpt>
      <trkpt lat="43.41247" lon="6.50954">
        <ele>344.20001220703</ele>
        <time>2017-01-28T10:08:05.000Z</time>
      </trkpt>
      <trkpt lat="43.41249" lon="6.50963">
        <ele>343.60000610352</ele>
        <time>2017-01-28T10:08:10.000Z</time>
      </trkpt>
      <trkpt lat="43.41252" lon="6.50966">
        <ele>343.39999389648</ele>
        <time>2017-01-28T10:08:12.000Z</time>
      </trkpt>
      <trkpt lat="43.41259" lon="6.50971">
        <ele>343.39999389648</ele>
        <time>2017-01-28T10:08:15.000Z</time>
      </trkpt>
      <trkpt lat="43.41271" lon="6.5098">
        <ele>343.20001220703</ele>
        <time>2017-01-28T10:08:19.000Z</time>
      </trkpt>
      <trkpt lat="43.41275" lon="6.50982">
        <ele>343</ele>
        <time>2017-01-28T10:08:20.000Z</time>
      </trkpt>
      <trkpt lat="43.41285" lon="6.50978">
        <ele>342.39999389648</ele>
        <time>2017-01-28T10:08:23.000Z</time>
      </trkpt>
      <trkpt lat="43.41297" lon="6.50971">
        <ele>342.20001220703</ele>
        <time>2017-01-28T10:08:26.000Z</time>
      </trkpt>
      <trkpt lat="43.41306" lon="6.50965">
        <ele>341.39999389648</ele>
        <time>2017-01-28T10:08:28.000Z</time>
      </trkpt>
      <trkpt lat="43.41313" lon="6.50965">
        <ele>340.20001220703</ele>
        <time>2017-01-28T10:08:30.000Z</time>
      </trkpt>
      <trkpt lat="43.41326" lon="6.5097">
        <ele>340.39999389648</ele>
        <time>2017-01-28T10:08:34.000Z</time>
      </trkpt>
      <trkpt lat="43.41338" lon="6.50957">
        <ele>340.39999389648</ele>
        <time>2017-01-28T10:08:38.000Z</time>
      </trkpt>
      <trkpt lat="43.41346" lon="6.50951">
        <ele>339.79998779297</ele>
        <time>2017-01-28T10:08:42.000Z</time>
      </trkpt>
      <trkpt lat="43.41347" lon="6.50951">
        <ele>339.79998779297</ele>
        <time>2017-01-28T10:08:43.000Z</time>
      </trkpt>
      <trkpt lat="43.41352" lon="6.50947">
        <ele>340</ele>
        <time>2017-01-28T10:08:46.000Z</time>
      </trkpt>
      <trkpt lat="43.41353" lon="6.50945">
        <ele>339.60000610352</ele>
        <time>2017-01-28T10:08:47.000Z</time>
      </trkpt>
      <trkpt lat="43.41353" lon="6.5094">
        <ele>339.20001220703</ele>
        <time>2017-01-28T10:08:48.000Z</time>
      </trkpt>
      <trkpt lat="43.41351" lon="6.50929">
        <ele>338</ele>
        <time>2017-01-28T10:08:50.000Z</time>
      </trkpt>
      <trkpt lat="43.41346" lon="6.50919">
        <ele>336.79998779297</ele>
        <time>2017-01-28T10:08:52.000Z</time>
      </trkpt>
      <trkpt lat="43.41347" lon="6.50913">
        <ele>336.39999389648</ele>
        <time>2017-01-28T10:08:53.000Z</time>
      </trkpt>
      <trkpt lat="43.41351" lon="6.50901">
        <ele>336</ele>
        <time>2017-01-28T10:08:55.000Z</time>
      </trkpt>
      <trkpt lat="43.41354" lon="6.50894">
        <ele>336</ele>
        <time>2017-01-28T10:08:56.000Z</time>
      </trkpt>
      <trkpt lat="43.41358" lon="6.5089">
        <ele>335.60000610352</ele>
        <time>2017-01-28T10:08:57.000Z</time>
      </trkpt>
      <trkpt lat="43.4136" lon="6.50871">
        <ele>334.60000610352</ele>
        <time>2017-01-28T10:09:00.000Z</time>
      </trkpt>
      <trkpt lat="43.4136" lon="6.50866">
        <ele>333.60000610352</ele>
        <time>2017-01-28T10:09:01.000Z</time>
      </trkpt>
      <trkpt lat="43.41363" lon="6.50856">
        <ele>332</ele>
        <time>2017-01-28T10:09:03.000Z</time>
      </trkpt>
      <trkpt lat="43.41362" lon="6.5085">
        <ele>330.60000610352</ele>
        <time>2017-01-28T10:09:05.000Z</time>
      </trkpt>
      <trkpt lat="43.41363" lon="6.50845">
        <ele>330.20001220703</ele>
        <time>2017-01-28T10:09:06.000Z</time>
      </trkpt>
      <trkpt lat="43.41363" lon="6.5084">
        <ele>329.20001220703</ele>
        <time>2017-01-28T10:09:07.000Z</time>
      </trkpt>
      <trkpt lat="43.41365" lon="6.50834">
        <ele>328.79998779297</ele>
        <time>2017-01-28T10:09:08.000Z</time>
      </trkpt>
      <trkpt lat="43.41368" lon="6.5083">
        <ele>328</ele>
        <time>2017-01-28T10:09:09.000Z</time>
      </trkpt>
      <trkpt lat="43.41371" lon="6.50827">
        <ele>327.60000610352</ele>
        <time>2017-01-28T10:09:10.000Z</time>
      </trkpt>
      <trkpt lat="43.41383" lon="6.50819">
        <ele>327</ele>
        <time>2017-01-28T10:09:13.000Z</time>
      </trkpt>
      <trkpt lat="43.41392" lon="6.50813">
        <ele>326.60000610352</ele>
        <time>2017-01-28T10:09:16.000Z</time>
      </trkpt>
      <trkpt lat="43.41396" lon="6.50811">
        <ele>326.60000610352</ele>
        <time>2017-01-28T10:09:17.000Z</time>
      </trkpt>
      <trkpt lat="43.41408" lon="6.50797">
        <ele>325.60000610352</ele>
        <time>2017-01-28T10:09:20.000Z</time>
      </trkpt>
      <trkpt lat="43.41414" lon="6.50788">
        <ele>324</ele>
        <time>2017-01-28T10:09:22.000Z</time>
      </trkpt>
      <trkpt lat="43.41417" lon="6.50783">
        <ele>323.60000610352</ele>
        <time>2017-01-28T10:09:23.000Z</time>
      </trkpt>
      <trkpt lat="43.41421" lon="6.5078">
        <ele>322.39999389648</ele>
        <time>2017-01-28T10:09:24.000Z</time>
      </trkpt>
      <trkpt lat="43.41424" lon="6.5078">
        <ele>321.20001220703</ele>
        <time>2017-01-28T10:09:25.000Z</time>
      </trkpt>
      <trkpt lat="43.41429" lon="6.5078">
        <ele>320</ele>
        <time>2017-01-28T10:09:26.000Z</time>
      </trkpt>
      <trkpt lat="43.41434" lon="6.50779">
        <ele>319.20001220703</ele>
        <time>2017-01-28T10:09:27.000Z</time>
      </trkpt>
      <trkpt lat="43.41439" lon="6.50777">
        <ele>318</ele>
        <time>2017-01-28T10:09:28.000Z</time>
      </trkpt>
      <trkpt lat="43.41454" lon="6.50777">
        <ele>316.60000610352</ele>
        <time>2017-01-28T10:09:31.000Z</time>
      </trkpt>
      <trkpt lat="43.41458" lon="6.50778">
        <ele>316.20001220703</ele>
        <time>2017-01-28T10:09:32.000Z</time>
      </trkpt>
      <trkpt lat="43.41462" lon="6.50781">
        <ele>315.79998779297</ele>
        <time>2017-01-28T10:09:33.000Z</time>
      </trkpt>
      <trkpt lat="43.41467" lon="6.50784">
        <ele>315.20001220703</ele>
        <time>2017-01-28T10:09:34.000Z</time>
      </trkpt>
      <trkpt lat="43.41471" lon="6.50787">
        <ele>314.60000610352</ele>
        <time>2017-01-28T10:09:35.000Z</time>
      </trkpt>
      <trkpt lat="43.41476" lon="6.50786">
        <ele>314</ele>
        <time>2017-01-28T10:09:36.000Z</time>
      </trkpt>
      <trkpt lat="43.41481" lon="6.50782">
        <ele>313.39999389648</ele>
        <time>2017-01-28T10:09:37.000Z</time>
      </trkpt>
      <trkpt lat="43.41486" lon="6.50779">
        <ele>312.79998779297</ele>
        <time>2017-01-28T10:09:38.000Z</time>
      </trkpt>
      <trkpt lat="43.4149" lon="6.50777">
        <ele>311.79998779297</ele>
        <time>2017-01-28T10:09:39.000Z</time>
      </trkpt>
      <trkpt lat="43.41498" lon="6.5077">
        <ele>311</ele>
        <time>2017-01-28T10:09:41.000Z</time>
      </trkpt>
      <trkpt lat="43.41502" lon="6.50767">
        <ele>310.20001220703</ele>
        <time>2017-01-28T10:09:42.000Z</time>
      </trkpt>
      <trkpt lat="43.41512" lon="6.50762">
        <ele>309.39999389648</ele>
        <time>2017-01-28T10:09:44.000Z</time>
      </trkpt>
      <trkpt lat="43.41516" lon="6.50762">
        <ele>309.20001220703</ele>
        <time>2017-01-28T10:09:45.000Z</time>
      </trkpt>
      <trkpt lat="43.41523" lon="6.50758">
        <ele>308.60000610352</ele>
        <time>2017-01-28T10:09:46.000Z</time>
      </trkpt>
      <trkpt lat="43.41533" lon="6.5075">
        <ele>307.79998779297</ele>
        <time>2017-01-28T10:09:48.000Z</time>
      </trkpt>
      <trkpt lat="43.41542" lon="6.50743">
        <ele>306.79998779297</ele>
        <time>2017-01-28T10:09:50.000Z</time>
      </trkpt>
      <trkpt lat="43.41561" lon="6.50733">
        <ele>305.39999389648</ele>
        <time>2017-01-28T10:09:54.000Z</time>
      </trkpt>
      <trkpt lat="43.4157" lon="6.50728">
        <ele>305.20001220703</ele>
        <time>2017-01-28T10:09:56.000Z</time>
      </trkpt>
      <trkpt lat="43.41574" lon="6.50726">
        <ele>305.20001220703</ele>
        <time>2017-01-28T10:09:57.000Z</time>
      </trkpt>
      <trkpt lat="43.41578" lon="6.50724">
        <ele>304.79998779297</ele>
        <time>2017-01-28T10:09:58.000Z</time>
      </trkpt>
      <trkpt lat="43.4158" lon="6.50721">
        <ele>304</ele>
        <time>2017-01-28T10:09:59.000Z</time>
      </trkpt>
      <trkpt lat="43.41583" lon="6.50717">
        <ele>302</ele>
        <time>2017-01-28T10:10:01.000Z</time>
      </trkpt>
      <trkpt lat="43.41584" lon="6.50714">
        <ele>300.60000610352</ele>
        <time>2017-01-28T10:10:02.000Z</time>
      </trkpt>
      <trkpt lat="43.41585" lon="6.5071">
        <ele>299.39999389648</ele>
        <time>2017-01-28T10:10:03.000Z</time>
      </trkpt>
      <trkpt lat="43.41587" lon="6.50701">
        <ele>298.39999389648</ele>
        <time>2017-01-28T10:10:05.000Z</time>
      </trkpt>
      <trkpt lat="43.41589" lon="6.50695">
        <ele>297.79998779297</ele>
        <time>2017-01-28T10:10:06.000Z</time>
      </trkpt>
      <trkpt lat="43.41595" lon="6.50689">
        <ele>297.20001220703</ele>
        <time>2017-01-28T10:10:08.000Z</time>
      </trkpt>
      <trkpt lat="43.41599" lon="6.50687">
        <ele>296.79998779297</ele>
        <time>2017-01-28T10:10:09.000Z</time>
      </trkpt>
      <trkpt lat="43.41603" lon="6.50685">
        <ele>296.39999389648</ele>
        <time>2017-01-28T10:10:10.000Z</time>
      </trkpt>
      <trkpt lat="43.41607" lon="6.50684">
        <ele>295.79998779297</ele>
        <time>2017-01-28T10:10:11.000Z</time>
      </trkpt>
      <trkpt lat="43.41614" lon="6.50681">
        <ele>294.79998779297</ele>
        <time>2017-01-28T10:10:13.000Z</time>
      </trkpt>
      <trkpt lat="43.41619" lon="6.50678">
        <ele>293.60000610352</ele>
        <time>2017-01-28T10:10:15.000Z</time>
      </trkpt>
      <trkpt lat="43.41623" lon="6.50675">
        <ele>292</ele>
        <time>2017-01-28T10:10:17.000Z</time>
      </trkpt>
      <trkpt lat="43.41628" lon="6.50666">
        <ele>290.79998779297</ele>
        <time>2017-01-28T10:10:19.000Z</time>
      </trkpt>
      <trkpt lat="43.41632" lon="6.50657">
        <ele>289.60000610352</ele>
        <time>2017-01-28T10:10:21.000Z</time>
      </trkpt>
      <trkpt lat="43.41636" lon="6.50656">
        <ele>289.20001220703</ele>
        <time>2017-01-28T10:10:22.000Z</time>
      </trkpt>
      <trkpt lat="43.41641" lon="6.50656">
        <ele>288.39999389648</ele>
        <time>2017-01-28T10:10:23.000Z</time>
      </trkpt>
      <trkpt lat="43.41645" lon="6.50654">
        <ele>287.39999389648</ele>
        <time>2017-01-28T10:10:24.000Z</time>
      </trkpt>
      <trkpt lat="43.41649" lon="6.50645">
        <ele>285.60000610352</ele>
        <time>2017-01-28T10:10:26.000Z</time>
      </trkpt>
      <trkpt lat="43.41656" lon="6.50639">
        <ele>283.60000610352</ele>
        <time>2017-01-28T10:10:28.000Z</time>
      </trkpt>
      <trkpt lat="43.41658" lon="6.50637">
        <ele>283.20001220703</ele>
        <time>2017-01-28T10:10:29.000Z</time>
      </trkpt>
      <trkpt lat="43.41664" lon="6.50631">
        <ele>282.20001220703</ele>
        <time>2017-01-28T10:10:31.000Z</time>
      </trkpt>
      <trkpt lat="43.4167" lon="6.50628">
        <ele>281.79998779297</ele>
        <time>2017-01-28T10:10:33.000Z</time>
      </trkpt>
      <trkpt lat="43.41675" lon="6.50625">
        <ele>280.39999389648</ele>
        <time>2017-01-28T10:10:34.000Z</time>
      </trkpt>
      <trkpt lat="43.41682" lon="6.50621">
        <ele>279.20001220703</ele>
        <time>2017-01-28T10:10:36.000Z</time>
      </trkpt>
      <trkpt lat="43.41685" lon="6.50616">
        <ele>278.20001220703</ele>
        <time>2017-01-28T10:10:37.000Z</time>
      </trkpt>
      <trkpt lat="43.41689" lon="6.50612">
        <ele>277.39999389648</ele>
        <time>2017-01-28T10:10:38.000Z</time>
      </trkpt>
      <trkpt lat="43.41696" lon="6.50611">
        <ele>276</ele>
        <time>2017-01-28T10:10:40.000Z</time>
      </trkpt>
      <trkpt lat="43.41702" lon="6.50608">
        <ele>274.60000610352</ele>
        <time>2017-01-28T10:10:42.000Z</time>
      </trkpt>
      <trkpt lat="43.41709" lon="6.50606">
        <ele>273.79998779297</ele>
        <time>2017-01-28T10:10:44.000Z</time>
      </trkpt>
      <trkpt lat="43.41714" lon="6.50603">
        <ele>273.60000610352</ele>
        <time>2017-01-28T10:10:45.000Z</time>
      </trkpt>
      <trkpt lat="43.4172" lon="6.506">
        <ele>273.39999389648</ele>
        <time>2017-01-28T10:10:46.000Z</time>
      </trkpt>
      <trkpt lat="43.41725" lon="6.50599">
        <ele>273.39999389648</ele>
        <time>2017-01-28T10:10:47.000Z</time>
      </trkpt>
      <trkpt lat="43.41731" lon="6.50598">
        <ele>272.79998779297</ele>
        <time>2017-01-28T10:10:48.000Z</time>
      </trkpt>
      <trkpt lat="43.41737" lon="6.50596">
        <ele>272.39999389648</ele>
        <time>2017-01-28T10:10:49.000Z</time>
      </trkpt>
      <trkpt lat="43.41742" lon="6.50595">
        <ele>272</ele>
        <time>2017-01-28T10:10:50.000Z</time>
      </trkpt>
      <trkpt lat="43.4176" lon="6.50592">
        <ele>271.39999389648</ele>
        <time>2017-01-28T10:10:53.000Z</time>
      </trkpt>
      <trkpt lat="43.41767" lon="6.50591">
        <ele>271.20001220703</ele>
        <time>2017-01-28T10:10:54.000Z</time>
      </trkpt>
      <trkpt lat="43.41787" lon="6.50589">
        <ele>270</ele>
        <time>2017-01-28T10:10:57.000Z</time>
      </trkpt>
      <trkpt lat="43.41792" lon="6.5059">
        <ele>268.79998779297</ele>
        <time>2017-01-28T10:10:58.000Z</time>
      </trkpt>
      <trkpt lat="43.41797" lon="6.50589">
        <ele>268</ele>
        <time>2017-01-28T10:10:59.000Z</time>
      </trkpt>
      <trkpt lat="43.41803" lon="6.50589">
        <ele>267.60000610352</ele>
        <time>2017-01-28T10:11:00.000Z</time>
      </trkpt>
      <trkpt lat="43.41808" lon="6.50591">
        <ele>267</ele>
        <time>2017-01-28T10:11:01.000Z</time>
      </trkpt>
      <trkpt lat="43.41812" lon="6.50592">
        <ele>266.39999389648</ele>
        <time>2017-01-28T10:11:02.000Z</time>
      </trkpt>
      <trkpt lat="43.41817" lon="6.50591">
        <ele>266</ele>
        <time>2017-01-28T10:11:03.000Z</time>
      </trkpt>
      <trkpt lat="43.41821" lon="6.50589">
        <ele>265.39999389648</ele>
        <time>2017-01-28T10:11:04.000Z</time>
      </trkpt>
      <trkpt lat="43.41825" lon="6.50587">
        <ele>265</ele>
        <time>2017-01-28T10:11:05.000Z</time>
      </trkpt>
      <trkpt lat="43.4183" lon="6.50587">
        <ele>264.20001220703</ele>
        <time>2017-01-28T10:11:06.000Z</time>
      </trkpt>
      <trkpt lat="43.41834" lon="6.5059">
        <ele>263.79998779297</ele>
        <time>2017-01-28T10:11:07.000Z</time>
      </trkpt>
      <trkpt lat="43.41854" lon="6.50596">
        <ele>263.20001220703</ele>
        <time>2017-01-28T10:11:11.000Z</time>
      </trkpt>
      <trkpt lat="43.41859" lon="6.50598">
        <ele>263</ele>
        <time>2017-01-28T10:11:12.000Z</time>
      </trkpt>
      <trkpt lat="43.41869" lon="6.50602">
        <ele>262.39999389648</ele>
        <time>2017-01-28T10:11:14.000Z</time>
      </trkpt>
      <trkpt lat="43.41874" lon="6.50604">
        <ele>262</ele>
        <time>2017-01-28T10:11:15.000Z</time>
      </trkpt>
      <trkpt lat="43.41886" lon="6.50607">
        <ele>261</ele>
        <time>2017-01-28T10:11:17.000Z</time>
      </trkpt>
      <trkpt lat="43.41896" lon="6.50609">
        <ele>259.60000610352</ele>
        <time>2017-01-28T10:11:19.000Z</time>
      </trkpt>
      <trkpt lat="43.41901" lon="6.5061">
        <ele>259.39999389648</ele>
        <time>2017-01-28T10:11:20.000Z</time>
      </trkpt>
      <trkpt lat="43.41911" lon="6.50615">
        <ele>258.79998779297</ele>
        <time>2017-01-28T10:11:22.000Z</time>
      </trkpt>
      <trkpt lat="43.41932" lon="6.50623">
        <ele>258</ele>
        <time>2017-01-28T10:11:26.000Z</time>
      </trkpt>
      <trkpt lat="43.41942" lon="6.50622">
        <ele>257.60000610352</ele>
        <time>2017-01-28T10:11:28.000Z</time>
      </trkpt>
      <trkpt lat="43.41946" lon="6.50623">
        <ele>257.39999389648</ele>
        <time>2017-01-28T10:11:29.000Z</time>
      </trkpt>
      <trkpt lat="43.4196" lon="6.50621">
        <ele>257</ele>
        <time>2017-01-28T10:11:32.000Z</time>
      </trkpt>
      <trkpt lat="43.41965" lon="6.50621">
        <ele>257</ele>
        <time>2017-01-28T10:11:33.000Z</time>
      </trkpt>
      <trkpt lat="43.41975" lon="6.50628">
        <ele>257</ele>
        <time>2017-01-28T10:11:36.000Z</time>
      </trkpt>
      <trkpt lat="43.41979" lon="6.50628">
        <ele>257.20001220703</ele>
        <time>2017-01-28T10:11:37.000Z</time>
      </trkpt>
      <trkpt lat="43.41985" lon="6.50625">
        <ele>257.39999389648</ele>
        <time>2017-01-28T10:11:39.000Z</time>
      </trkpt>
      <trkpt lat="43.41988" lon="6.50623">
        <ele>257.60000610352</ele>
        <time>2017-01-28T10:11:41.000Z</time>
      </trkpt>
      <trkpt lat="43.41991" lon="6.50624">
        <ele>258</ele>
        <time>2017-01-28T10:11:44.000Z</time>
      </trkpt>
      <trkpt lat="43.41991" lon="6.50625">
        <ele>258</ele>
        <time>2017-01-28T10:11:45.000Z</time>
      </trkpt>
      <trkpt lat="43.41993" lon="6.50626">
        <ele>258.20001220703</ele>
        <time>2017-01-28T10:11:49.000Z</time>
      </trkpt>
      <trkpt lat="43.41994" lon="6.50624">
        <ele>258.39999389648</ele>
        <time>2017-01-28T10:11:55.000Z</time>
      </trkpt>
      <trkpt lat="43.41994" lon="6.50624">
        <ele>258.79998779297</ele>
        <time>2017-01-28T10:12:14.000Z</time>
      </trkpt>
      <trkpt lat="43.41993" lon="6.50623">
        <ele>258.79998779297</ele>
        <time>2017-01-28T10:12:28.000Z</time>
      </trkpt>
      <trkpt lat="43.41993" lon="6.50622">
        <ele>259</ele>
        <time>2017-01-28T10:12:39.000Z</time>
      </trkpt>
      <trkpt lat="43.41993" lon="6.50621">
        <ele>259</ele>
        <time>2017-01-28T10:12:40.000Z</time>
      </trkpt>
      <trkpt lat="43.41995" lon="6.50618">
        <ele>259</ele>
        <time>2017-01-28T10:12:42.000Z</time>
      </trkpt>
      <trkpt lat="43.42002" lon="6.50614">
        <ele>258.79998779297</ele>
        <time>2017-01-28T10:12:45.000Z</time>
      </trkpt>
      <trkpt lat="43.42004" lon="6.50612">
        <ele>258.79998779297</ele>
        <time>2017-01-28T10:12:46.000Z</time>
      </trkpt>
      <trkpt lat="43.42015" lon="6.50612">
        <ele>259.20001220703</ele>
        <time>2017-01-28T10:12:51.000Z</time>
      </trkpt>
      <trkpt lat="43.42023" lon="6.5061">
        <ele>260.39999389648</ele>
        <time>2017-01-28T10:12:55.000Z</time>
      </trkpt>
      <trkpt lat="43.42026" lon="6.5061">
        <ele>261.39999389648</ele>
        <time>2017-01-28T10:12:57.000Z</time>
      </trkpt>
      <trkpt lat="43.42028" lon="6.5061">
        <ele>261.79998779297</ele>
        <time>2017-01-28T10:12:58.000Z</time>
      </trkpt>
      <trkpt lat="43.42031" lon="6.50612">
        <ele>262.39999389648</ele>
        <time>2017-01-28T10:13:00.000Z</time>
      </trkpt>
      <trkpt lat="43.42034" lon="6.50615">
        <ele>263</ele>
        <time>2017-01-28T10:13:02.000Z</time>
      </trkpt>
      <trkpt lat="43.4204" lon="6.50617">
        <ele>264.20001220703</ele>
        <time>2017-01-28T10:13:06.000Z</time>
      </trkpt>
      <trkpt lat="43.42043" lon="6.50618">
        <ele>264.39999389648</ele>
        <time>2017-01-28T10:13:07.000Z</time>
      </trkpt>
      <trkpt lat="43.42055" lon="6.50622">
        <ele>264.79998779297</ele>
        <time>2017-01-28T10:13:13.000Z</time>
      </trkpt>
      <trkpt lat="43.42058" lon="6.50622">
        <ele>265.20001220703</ele>
        <time>2017-01-28T10:13:15.000Z</time>
      </trkpt>
      <trkpt lat="43.42066" lon="6.5062">
        <ele>265.60000610352</ele>
        <time>2017-01-28T10:13:18.000Z</time>
      </trkpt>
      <trkpt lat="43.42082" lon="6.50616">
        <ele>265.60000610352</ele>
        <time>2017-01-28T10:13:24.000Z</time>
      </trkpt>
      <trkpt lat="43.42093" lon="6.50606">
        <ele>265</ele>
        <time>2017-01-28T10:13:28.000Z</time>
      </trkpt>
      <trkpt lat="43.42101" lon="6.50597">
        <ele>264</ele>
        <time>2017-01-28T10:13:31.000Z</time>
      </trkpt>
      <trkpt lat="43.42105" lon="6.50597">
        <ele>263.39999389648</ele>
        <time>2017-01-28T10:13:32.000Z</time>
      </trkpt>
      <trkpt lat="43.42109" lon="6.50599">
        <ele>263</ele>
        <time>2017-01-28T10:13:33.000Z</time>
      </trkpt>
      <trkpt lat="43.42118" lon="6.50595">
        <ele>262.20001220703</ele>
        <time>2017-01-28T10:13:36.000Z</time>
      </trkpt>
      <trkpt lat="43.4212" lon="6.50593">
        <ele>261.79998779297</ele>
        <time>2017-01-28T10:13:37.000Z</time>
      </trkpt>
      <trkpt lat="43.42126" lon="6.5059">
        <ele>260.39999389648</ele>
        <time>2017-01-28T10:13:39.000Z</time>
      </trkpt>
      <trkpt lat="43.42132" lon="6.50591">
        <ele>259.39999389648</ele>
        <time>2017-01-28T10:13:41.000Z</time>
      </trkpt>
      <trkpt lat="43.42136" lon="6.50592">
        <ele>258.39999389648</ele>
        <time>2017-01-28T10:13:42.000Z</time>
      </trkpt>
      <trkpt lat="43.42142" lon="6.50595">
        <ele>256.60000610352</ele>
        <time>2017-01-28T10:13:44.000Z</time>
      </trkpt>
      <trkpt lat="43.42144" lon="6.50593">
        <ele>256</ele>
        <time>2017-01-28T10:13:45.000Z</time>
      </trkpt>
      <trkpt lat="43.42148" lon="6.50594">
        <ele>255</ele>
        <time>2017-01-28T10:13:46.000Z</time>
      </trkpt>
      <trkpt lat="43.42155" lon="6.50599">
        <ele>253.60000610352</ele>
        <time>2017-01-28T10:13:48.000Z</time>
      </trkpt>
      <trkpt lat="43.42163" lon="6.50599">
        <ele>252.39999389648</ele>
        <time>2017-01-28T10:13:50.000Z</time>
      </trkpt>
      <trkpt lat="43.42172" lon="6.50598">
        <ele>251</ele>
        <time>2017-01-28T10:13:53.000Z</time>
      </trkpt>
      <trkpt lat="43.4218" lon="6.50602">
        <ele>249.39999389648</ele>
        <time>2017-01-28T10:13:55.000Z</time>
      </trkpt>
      <trkpt lat="43.42184" lon="6.50604">
        <ele>248.19999694824</ele>
        <time>2017-01-28T10:13:56.000Z</time>
      </trkpt>
      <trkpt lat="43.42189" lon="6.50605">
        <ele>247</ele>
        <time>2017-01-28T10:13:57.000Z</time>
      </trkpt>
      <trkpt lat="43.42194" lon="6.50606">
        <ele>246</ele>
        <time>2017-01-28T10:13:58.000Z</time>
      </trkpt>
      <trkpt lat="43.42198" lon="6.50606">
        <ele>244.80000305176</ele>
        <time>2017-01-28T10:13:59.000Z</time>
      </trkpt>
      <trkpt lat="43.42204" lon="6.50605">
        <ele>243.60000610352</ele>
        <time>2017-01-28T10:14:00.000Z</time>
      </trkpt>
      <trkpt lat="43.42214" lon="6.50601">
        <ele>242</ele>
        <time>2017-01-28T10:14:02.000Z</time>
      </trkpt>
      <trkpt lat="43.42222" lon="6.50599">
        <ele>240.80000305176</ele>
        <time>2017-01-28T10:14:04.000Z</time>
      </trkpt>
      <trkpt lat="43.42226" lon="6.50599">
        <ele>240.19999694824</ele>
        <time>2017-01-28T10:14:05.000Z</time>
      </trkpt>
      <trkpt lat="43.4223" lon="6.50598">
        <ele>239.60000610352</ele>
        <time>2017-01-28T10:14:06.000Z</time>
      </trkpt>
      <trkpt lat="43.42245" lon="6.50596">
        <ele>238.19999694824</ele>
        <time>2017-01-28T10:14:10.000Z</time>
      </trkpt>
      <trkpt lat="43.42249" lon="6.50594">
        <ele>237.39999389648</ele>
        <time>2017-01-28T10:14:11.000Z</time>
      </trkpt>
      <trkpt lat="43.42254" lon="6.5059">
        <ele>236.80000305176</ele>
        <time>2017-01-28T10:14:12.000Z</time>
      </trkpt>
      <trkpt lat="43.42264" lon="6.50583">
        <ele>235.19999694824</ele>
        <time>2017-01-28T10:14:14.000Z</time>
      </trkpt>
      <trkpt lat="43.42269" lon="6.5058">
        <ele>234.19999694824</ele>
        <time>2017-01-28T10:14:15.000Z</time>
      </trkpt>
      <trkpt lat="43.42275" lon="6.50576">
        <ele>233.19999694824</ele>
        <time>2017-01-28T10:14:16.000Z</time>
      </trkpt>
      <trkpt lat="43.4228" lon="6.50572">
        <ele>232.19999694824</ele>
        <time>2017-01-28T10:14:17.000Z</time>
      </trkpt>
      <trkpt lat="43.42291" lon="6.50564">
        <ele>230.60000610352</ele>
        <time>2017-01-28T10:14:19.000Z</time>
      </trkpt>
      <trkpt lat="43.42296" lon="6.5056">
        <ele>230</ele>
        <time>2017-01-28T10:14:20.000Z</time>
      </trkpt>
      <trkpt lat="43.42302" lon="6.50556">
        <ele>229.39999389648</ele>
        <time>2017-01-28T10:14:21.000Z</time>
      </trkpt>
      <trkpt lat="43.42316" lon="6.50552">
        <ele>227.60000610352</ele>
        <time>2017-01-28T10:14:23.000Z</time>
      </trkpt>
      <trkpt lat="43.42329" lon="6.50545">
        <ele>226.19999694824</ele>
        <time>2017-01-28T10:14:25.000Z</time>
      </trkpt>
      <trkpt lat="43.4234" lon="6.50539">
        <ele>225</ele>
        <time>2017-01-28T10:14:27.000Z</time>
      </trkpt>
      <trkpt lat="43.42345" lon="6.50536">
        <ele>224.80000305176</ele>
        <time>2017-01-28T10:14:28.000Z</time>
      </trkpt>
      <trkpt lat="43.42351" lon="6.50534">
        <ele>223.60000610352</ele>
        <time>2017-01-28T10:14:30.000Z</time>
      </trkpt>
      <trkpt lat="43.42352" lon="6.50534">
        <ele>223.39999389648</ele>
        <time>2017-01-28T10:14:31.000Z</time>
      </trkpt>
      <trkpt lat="43.42352" lon="6.50534">
        <ele>222.60000610352</ele>
        <time>2017-01-28T10:14:35.000Z</time>
      </trkpt>
      <trkpt lat="43.42352" lon="6.50534">
        <ele>222.60000610352</ele>
        <time>2017-01-28T10:14:37.000Z</time>
      </trkpt>
      <trkpt lat="43.42352" lon="6.50534">
        <ele>222.80000305176</ele>
        <time>2017-01-28T10:14:50.000Z</time>
      </trkpt>
      <trkpt lat="43.42353" lon="6.50534">
        <ele>222.80000305176</ele>
        <time>2017-01-28T10:15:04.000Z</time>
      </trkpt>
      <trkpt lat="43.42353" lon="6.50534">
        <ele>222.60000610352</ele>
        <time>2017-01-28T10:15:28.000Z</time>
      </trkpt>
      <trkpt lat="43.42352" lon="6.50533">
        <ele>222.60000610352</ele>
        <time>2017-01-28T10:15:29.000Z</time>
      </trkpt>
      <trkpt lat="43.42351" lon="6.50535">
        <ele>222.60000610352</ele>
        <time>2017-01-28T10:15:32.000Z</time>
      </trkpt>
      <trkpt lat="43.42351" lon="6.50535">
        <ele>222.60000610352</ele>
        <time>2017-01-28T10:15:43.000Z</time>
      </trkpt>
      <trkpt lat="43.42352" lon="6.50533">
        <ele>222.60000610352</ele>
        <time>2017-01-28T10:15:55.000Z</time>
      </trkpt>
      <trkpt lat="43.42352" lon="6.50534">
        <ele>222.60000610352</ele>
        <time>2017-01-28T10:15:56.000Z</time>
      </trkpt>
      <trkpt lat="43.42352" lon="6.50534">
        <ele>222.39999389648</ele>
        <time>2017-01-28T10:15:59.000Z</time>
      </trkpt>
      <trkpt lat="43.42351" lon="6.50534">
        <ele>222.60000610352</ele>
        <time>2017-01-28T10:16:13.000Z</time>
      </trkpt>
      <trkpt lat="43.42352" lon="6.50535">
        <ele>222.60000610352</ele>
        <time>2017-01-28T10:16:23.000Z</time>
      </trkpt>
      <trkpt lat="43.42352" lon="6.50537">
        <ele>222.60000610352</ele>
        <time>2017-01-28T10:16:24.000Z</time>
      </trkpt>
      <trkpt lat="43.4236" lon="6.50545">
        <ele>222.60000610352</ele>
        <time>2017-01-28T10:16:28.000Z</time>
      </trkpt>
      <trkpt lat="43.42368" lon="6.50547">
        <ele>221.60000610352</ele>
        <time>2017-01-28T10:16:31.000Z</time>
      </trkpt>
      <trkpt lat="43.42371" lon="6.50549">
        <ele>221.19999694824</ele>
        <time>2017-01-28T10:16:32.000Z</time>
      </trkpt>
      <trkpt lat="43.42382" lon="6.50552">
        <ele>220.19999694824</ele>
        <time>2017-01-28T10:16:35.000Z</time>
      </trkpt>
      <trkpt lat="43.42387" lon="6.50553">
        <ele>220</ele>
        <time>2017-01-28T10:16:36.000Z</time>
      </trkpt>
      <trkpt lat="43.42391" lon="6.50556">
        <ele>219</ele>
        <time>2017-01-28T10:16:38.000Z</time>
      </trkpt>
      <trkpt lat="43.42397" lon="6.50558">
        <ele>218.19999694824</ele>
        <time>2017-01-28T10:16:40.000Z</time>
      </trkpt>
      <trkpt lat="43.424" lon="6.50559">
        <ele>217.60000610352</ele>
        <time>2017-01-28T10:16:41.000Z</time>
      </trkpt>
      <trkpt lat="43.42404" lon="6.50561">
        <ele>217</ele>
        <time>2017-01-28T10:16:42.000Z</time>
      </trkpt>
      <trkpt lat="43.42405" lon="6.50562">
        <ele>216.39999389648</ele>
        <time>2017-01-28T10:16:43.000Z</time>
      </trkpt>
      <trkpt lat="43.42408" lon="6.50563">
        <ele>215.19999694824</ele>
        <time>2017-01-28T10:16:44.000Z</time>
      </trkpt>
      <trkpt lat="43.42414" lon="6.50559">
        <ele>213.60000610352</ele>
        <time>2017-01-28T10:16:46.000Z</time>
      </trkpt>
      <trkpt lat="43.42416" lon="6.50557">
        <ele>212.60000610352</ele>
        <time>2017-01-28T10:16:47.000Z</time>
      </trkpt>
      <trkpt lat="43.4242" lon="6.50554">
        <ele>211.80000305176</ele>
        <time>2017-01-28T10:16:48.000Z</time>
      </trkpt>
      <trkpt lat="43.42423" lon="6.50548">
        <ele>211</ele>
        <time>2017-01-28T10:16:50.000Z</time>
      </trkpt>
      <trkpt lat="43.42424" lon="6.50544">
        <ele>210.39999389648</ele>
        <time>2017-01-28T10:16:51.000Z</time>
      </trkpt>
      <trkpt lat="43.42429" lon="6.50536">
        <ele>209.80000305176</ele>
        <time>2017-01-28T10:16:53.000Z</time>
      </trkpt>
      <trkpt lat="43.42433" lon="6.50532">
        <ele>209.39999389648</ele>
        <time>2017-01-28T10:16:54.000Z</time>
      </trkpt>
      <trkpt lat="43.42435" lon="6.50528">
        <ele>209.19999694824</ele>
        <time>2017-01-28T10:16:55.000Z</time>
      </trkpt>
      <trkpt lat="43.42437" lon="6.5052">
        <ele>208.39999389648</ele>
        <time>2017-01-28T10:16:57.000Z</time>
      </trkpt>
      <trkpt lat="43.42439" lon="6.50516">
        <ele>208</ele>
        <time>2017-01-28T10:16:58.000Z</time>
      </trkpt>
      <trkpt lat="43.42447" lon="6.5051">
        <ele>207.19999694824</ele>
        <time>2017-01-28T10:17:01.000Z</time>
      </trkpt>
      <trkpt lat="43.4245" lon="6.50508">
        <ele>207.39999389648</ele>
        <time>2017-01-28T10:17:02.000Z</time>
      </trkpt>
      <trkpt lat="43.42463" lon="6.50502">
        <ele>207.60000610352</ele>
        <time>2017-01-28T10:17:06.000Z</time>
      </trkpt>
      <trkpt lat="43.42473" lon="6.50494">
        <ele>206.60000610352</ele>
        <time>2017-01-28T10:17:10.000Z</time>
      </trkpt>
      <trkpt lat="43.42476" lon="6.50492">
        <ele>206.19999694824</ele>
        <time>2017-01-28T10:17:11.000Z</time>
      </trkpt>
      <trkpt lat="43.42482" lon="6.50491">
        <ele>206.19999694824</ele>
        <time>2017-01-28T10:17:13.000Z</time>
      </trkpt>
      <trkpt lat="43.42488" lon="6.50485">
        <ele>205.60000610352</ele>
        <time>2017-01-28T10:17:16.000Z</time>
      </trkpt>
      <trkpt lat="43.42491" lon="6.50484">
        <ele>205.60000610352</ele>
        <time>2017-01-28T10:17:17.000Z</time>
      </trkpt>
      <trkpt lat="43.42499" lon="6.5048">
        <ele>206.39999389648</ele>
        <time>2017-01-28T10:17:20.000Z</time>
      </trkpt>
      <trkpt lat="43.42504" lon="6.50479">
        <ele>206.80000305176</ele>
        <time>2017-01-28T10:17:21.000Z</time>
      </trkpt>
      <trkpt lat="43.42517" lon="6.5047">
        <ele>206.39999389648</ele>
        <time>2017-01-28T10:17:25.000Z</time>
      </trkpt>
      <trkpt lat="43.42524" lon="6.50463">
        <ele>205.39999389648</ele>
        <time>2017-01-28T10:17:27.000Z</time>
      </trkpt>
      <trkpt lat="43.42529" lon="6.50458">
        <ele>204.60000610352</ele>
        <time>2017-01-28T10:17:29.000Z</time>
      </trkpt>
      <trkpt lat="43.42531" lon="6.50457">
        <ele>204.19999694824</ele>
        <time>2017-01-28T10:17:30.000Z</time>
      </trkpt>
      <trkpt lat="43.42537" lon="6.50454">
        <ele>203.60000610352</ele>
        <time>2017-01-28T10:17:32.000Z</time>
      </trkpt>
      <trkpt lat="43.42538" lon="6.50452">
        <ele>203</ele>
        <time>2017-01-28T10:17:33.000Z</time>
      </trkpt>
      <trkpt lat="43.42539" lon="6.50452">
        <ele>202</ele>
        <time>2017-01-28T10:17:35.000Z</time>
      </trkpt>
      <trkpt lat="43.42539" lon="6.50452">
        <ele>201.39999389648</ele>
        <time>2017-01-28T10:17:36.000Z</time>
      </trkpt>
      <trkpt lat="43.42539" lon="6.50451">
        <ele>200.80000305176</ele>
        <time>2017-01-28T10:17:37.000Z</time>
      </trkpt>
      <trkpt lat="43.42546" lon="6.50447">
        <ele>200.39999389648</ele>
        <time>2017-01-28T10:17:45.000Z</time>
      </trkpt>
      <trkpt lat="43.42552" lon="6.50449">
        <ele>199.80000305176</ele>
        <time>2017-01-28T10:17:48.000Z</time>
      </trkpt>
      <trkpt lat="43.42553" lon="6.5045">
        <ele>199</ele>
        <time>2017-01-28T10:17:49.000Z</time>
      </trkpt>
      <trkpt lat="43.42554" lon="6.5045">
        <ele>197.80000305176</ele>
        <time>2017-01-28T10:17:50.000Z</time>
      </trkpt>
      <trkpt lat="43.42556" lon="6.50451">
        <ele>197</ele>
        <time>2017-01-28T10:17:51.000Z</time>
      </trkpt>
      <trkpt lat="43.42557" lon="6.50453">
        <ele>196</ele>
        <time>2017-01-28T10:17:52.000Z</time>
      </trkpt>
      <trkpt lat="43.4256" lon="6.50457">
        <ele>194.19999694824</ele>
        <time>2017-01-28T10:17:54.000Z</time>
      </trkpt>
      <trkpt lat="43.42565" lon="6.50454">
        <ele>193.19999694824</ele>
        <time>2017-01-28T10:17:56.000Z</time>
      </trkpt>
      <trkpt lat="43.42568" lon="6.50454">
        <ele>192.19999694824</ele>
        <time>2017-01-28T10:17:57.000Z</time>
      </trkpt>
      <trkpt lat="43.42569" lon="6.50452">
        <ele>191.39999389648</ele>
        <time>2017-01-28T10:17:58.000Z</time>
      </trkpt>
      <trkpt lat="43.42572" lon="6.50448">
        <ele>189.80000305176</ele>
        <time>2017-01-28T10:18:00.000Z</time>
      </trkpt>
      <trkpt lat="43.42575" lon="6.50446">
        <ele>189</ele>
        <time>2017-01-28T10:18:01.000Z</time>
      </trkpt>
      <trkpt lat="43.42577" lon="6.50446">
        <ele>188.60000610352</ele>
        <time>2017-01-28T10:18:02.000Z</time>
      </trkpt>
      <trkpt lat="43.4258" lon="6.50447">
        <ele>188</ele>
        <time>2017-01-28T10:18:03.000Z</time>
      </trkpt>
      <trkpt lat="43.42582" lon="6.50447">
        <ele>187.60000610352</ele>
        <time>2017-01-28T10:18:04.000Z</time>
      </trkpt>
      <trkpt lat="43.42588" lon="6.50445">
        <ele>186.19999694824</ele>
        <time>2017-01-28T10:18:06.000Z</time>
      </trkpt>
      <trkpt lat="43.42589" lon="6.50442">
        <ele>185.19999694824</ele>
        <time>2017-01-28T10:18:07.000Z</time>
      </trkpt>
      <trkpt lat="43.4259" lon="6.50438">
        <ele>184</ele>
        <time>2017-01-28T10:18:08.000Z</time>
      </trkpt>
      <trkpt lat="43.42593" lon="6.50436">
        <ele>182.39999389648</ele>
        <time>2017-01-28T10:18:10.000Z</time>
      </trkpt>
      <trkpt lat="43.42598" lon="6.5044">
        <ele>181.19999694824</ele>
        <time>2017-01-28T10:18:13.000Z</time>
      </trkpt>
      <trkpt lat="43.42606" lon="6.50438">
        <ele>179.60000610352</ele>
        <time>2017-01-28T10:18:16.000Z</time>
      </trkpt>
      <trkpt lat="43.42609" lon="6.50437">
        <ele>179</ele>
        <time>2017-01-28T10:18:17.000Z</time>
      </trkpt>
      <trkpt lat="43.42611" lon="6.50434">
        <ele>178</ele>
        <time>2017-01-28T10:18:18.000Z</time>
      </trkpt>
      <trkpt lat="43.42615" lon="6.50431">
        <ele>176.80000305176</ele>
        <time>2017-01-28T10:18:20.000Z</time>
      </trkpt>
      <trkpt lat="43.42617" lon="6.50431">
        <ele>176</ele>
        <time>2017-01-28T10:18:21.000Z</time>
      </trkpt>
      <trkpt lat="43.42618" lon="6.50429">
        <ele>175</ele>
        <time>2017-01-28T10:18:22.000Z</time>
      </trkpt>
      <trkpt lat="43.42619" lon="6.50427">
        <ele>174</ele>
        <time>2017-01-28T10:18:23.000Z</time>
      </trkpt>
      <trkpt lat="43.42621" lon="6.50425">
        <ele>172.80000305176</ele>
        <time>2017-01-28T10:18:24.000Z</time>
      </trkpt>
      <trkpt lat="43.42623" lon="6.50424">
        <ele>171.60000610352</ele>
        <time>2017-01-28T10:18:25.000Z</time>
      </trkpt>
      <trkpt lat="43.42625" lon="6.50424">
        <ele>170</ele>
        <time>2017-01-28T10:18:26.000Z</time>
      </trkpt>
      <trkpt lat="43.42627" lon="6.50425">
        <ele>169</ele>
        <time>2017-01-28T10:18:27.000Z</time>
      </trkpt>
      <trkpt lat="43.42629" lon="6.50425">
        <ele>167.80000305176</ele>
        <time>2017-01-28T10:18:28.000Z</time>
      </trkpt>
      <trkpt lat="43.42635" lon="6.5043">
        <ele>166</ele>
        <time>2017-01-28T10:18:30.000Z</time>
      </trkpt>
      <trkpt lat="43.42636" lon="6.50433">
        <ele>165</ele>
        <time>2017-01-28T10:18:31.000Z</time>
      </trkpt>
      <trkpt lat="43.42637" lon="6.50435">
        <ele>164</ele>
        <time>2017-01-28T10:18:32.000Z</time>
      </trkpt>
      <trkpt lat="43.42637" lon="6.50435">
        <ele>163</ele>
        <time>2017-01-28T10:18:33.000Z</time>
      </trkpt>
      <trkpt lat="43.42637" lon="6.50436">
        <ele>161.80000305176</ele>
        <time>2017-01-28T10:18:35.000Z</time>
      </trkpt>
      <trkpt lat="43.42637" lon="6.50436">
        <ele>161.19999694824</ele>
        <time>2017-01-28T10:18:36.000Z</time>
      </trkpt>
      <trkpt lat="43.42638" lon="6.50436">
        <ele>160.80000305176</ele>
        <time>2017-01-28T10:18:39.000Z</time>
      </trkpt>
      <trkpt lat="43.42641" lon="6.50436">
        <ele>160.39999389648</ele>
        <time>2017-01-28T10:18:45.000Z</time>
      </trkpt>
      <trkpt lat="43.42642" lon="6.50436">
        <ele>160.19999694824</ele>
        <time>2017-01-28T10:18:46.000Z</time>
      </trkpt>
      <trkpt lat="43.42647" lon="6.50439">
        <ele>159.19999694824</ele>
        <time>2017-01-28T10:18:48.000Z</time>
      </trkpt>
      <trkpt lat="43.4265" lon="6.50446">
        <ele>157.60000610352</ele>
        <time>2017-01-28T10:18:50.000Z</time>
      </trkpt>
      <trkpt lat="43.42653" lon="6.50456">
        <ele>155.80000305176</ele>
        <time>2017-01-28T10:18:52.000Z</time>
      </trkpt>
      <trkpt lat="43.42656" lon="6.50465">
        <ele>153.60000610352</ele>
        <time>2017-01-28T10:18:54.000Z</time>
      </trkpt>
      <trkpt lat="43.42657" lon="6.50471">
        <ele>152.19999694824</ele>
        <time>2017-01-28T10:18:56.000Z</time>
      </trkpt>
      <trkpt lat="43.42658" lon="6.50474">
        <ele>151.19999694824</ele>
        <time>2017-01-28T10:18:58.000Z</time>
      </trkpt>
      <trkpt lat="43.42659" lon="6.50479">
        <ele>150</ele>
        <time>2017-01-28T10:19:00.000Z</time>
      </trkpt>
      <trkpt lat="43.42661" lon="6.50487">
        <ele>148.80000305176</ele>
        <time>2017-01-28T10:19:02.000Z</time>
      </trkpt>
      <trkpt lat="43.42662" lon="6.50491">
        <ele>147.80000305176</ele>
        <time>2017-01-28T10:19:04.000Z</time>
      </trkpt>
      <trkpt lat="43.42663" lon="6.50492">
        <ele>147.60000610352</ele>
        <time>2017-01-28T10:19:05.000Z</time>
      </trkpt>
      <trkpt lat="43.42668" lon="6.50498">
        <ele>147.80000305176</ele>
        <time>2017-01-28T10:19:07.000Z</time>
      </trkpt>
      <trkpt lat="43.42673" lon="6.50502">
        <ele>147.60000610352</ele>
        <time>2017-01-28T10:19:09.000Z</time>
      </trkpt>
      <trkpt lat="43.4268" lon="6.50503">
        <ele>146.80000305176</ele>
        <time>2017-01-28T10:19:11.000Z</time>
      </trkpt>
      <trkpt lat="43.42682" lon="6.50505">
        <ele>146.39999389648</ele>
        <time>2017-01-28T10:19:12.000Z</time>
      </trkpt>
      <trkpt lat="43.42688" lon="6.50513">
        <ele>145.60000610352</ele>
        <time>2017-01-28T10:19:15.000Z</time>
      </trkpt>
      <trkpt lat="43.42689" lon="6.50516">
        <ele>145.39999389648</ele>
        <time>2017-01-28T10:19:16.000Z</time>
      </trkpt>
      <trkpt lat="43.42694" lon="6.50523">
        <ele>144.39999389648</ele>
        <time>2017-01-28T10:19:18.000Z</time>
      </trkpt>
      <trkpt lat="43.42697" lon="6.50527">
        <ele>144.19999694824</ele>
        <time>2017-01-28T10:19:19.000Z</time>
      </trkpt>
      <trkpt lat="43.42699" lon="6.50529">
        <ele>143.80000305176</ele>
        <time>2017-01-28T10:19:20.000Z</time>
      </trkpt>
      <trkpt lat="43.42705" lon="6.50535">
        <ele>142.80000305176</ele>
        <time>2017-01-28T10:19:22.000Z</time>
      </trkpt>
      <trkpt lat="43.42712" lon="6.50538">
        <ele>141.60000610352</ele>
        <time>2017-01-28T10:19:24.000Z</time>
      </trkpt>
      <trkpt lat="43.42716" lon="6.50538">
        <ele>141</ele>
        <time>2017-01-28T10:19:25.000Z</time>
      </trkpt>
      <trkpt lat="43.42721" lon="6.50538">
        <ele>140.60000610352</ele>
        <time>2017-01-28T10:19:26.000Z</time>
      </trkpt>
      <trkpt lat="43.42731" lon="6.50536">
        <ele>139.60000610352</ele>
        <time>2017-01-28T10:19:28.000Z</time>
      </trkpt>
      <trkpt lat="43.42735" lon="6.50535">
        <ele>139.19999694824</ele>
        <time>2017-01-28T10:19:29.000Z</time>
      </trkpt>
      <trkpt lat="43.4274" lon="6.50533">
        <ele>139</ele>
        <time>2017-01-28T10:19:30.000Z</time>
      </trkpt>
      <trkpt lat="43.42749" lon="6.50529">
        <ele>138.19999694824</ele>
        <time>2017-01-28T10:19:32.000Z</time>
      </trkpt>
      <trkpt lat="43.42755" lon="6.50527">
        <ele>137.80000305176</ele>
        <time>2017-01-28T10:19:34.000Z</time>
      </trkpt>
      <trkpt lat="43.42756" lon="6.50527">
        <ele>137</ele>
        <time>2017-01-28T10:19:37.000Z</time>
      </trkpt>
      <trkpt lat="43.42756" lon="6.50527">
        <ele>136.80000305176</ele>
        <time>2017-01-28T10:19:38.000Z</time>
      </trkpt>
      <trkpt lat="43.42757" lon="6.50527">
        <ele>136.19999694824</ele>
        <time>2017-01-28T10:19:44.000Z</time>
      </trkpt>
      <trkpt lat="43.42757" lon="6.50526">
        <ele>136.60000610352</ele>
        <time>2017-01-28T10:19:53.000Z</time>
      </trkpt>
      <trkpt lat="43.42758" lon="6.50525">
        <ele>136</ele>
        <time>2017-01-28T10:20:01.000Z</time>
      </trkpt>
      <trkpt lat="43.4276" lon="6.50518">
        <ele>136</ele>
        <time>2017-01-28T10:20:09.000Z</time>
      </trkpt>
      <trkpt lat="43.42765" lon="6.50513">
        <ele>136</ele>
        <time>2017-01-28T10:20:12.000Z</time>
      </trkpt>
      <trkpt lat="43.42769" lon="6.50513">
        <ele>135.80000305176</ele>
        <time>2017-01-28T10:20:13.000Z</time>
      </trkpt>
      <trkpt lat="43.42779" lon="6.50514">
        <ele>135.60000610352</ele>
        <time>2017-01-28T10:20:15.000Z</time>
      </trkpt>
      <trkpt lat="43.42789" lon="6.50518">
        <ele>134.39999389648</ele>
        <time>2017-01-28T10:20:17.000Z</time>
      </trkpt>
      <trkpt lat="43.42796" lon="6.50522">
        <ele>133.19999694824</ele>
        <time>2017-01-28T10:20:19.000Z</time>
      </trkpt>
      <trkpt lat="43.42805" lon="6.50526">
        <ele>131.60000610352</ele>
        <time>2017-01-28T10:20:21.000Z</time>
      </trkpt>
      <trkpt lat="43.42814" lon="6.5053">
        <ele>130.19999694824</ele>
        <time>2017-01-28T10:20:23.000Z</time>
      </trkpt>
      <trkpt lat="43.42818" lon="6.50531">
        <ele>129.60000610352</ele>
        <time>2017-01-28T10:20:24.000Z</time>
      </trkpt>
      <trkpt lat="43.42823" lon="6.50533">
        <ele>129.19999694824</ele>
        <time>2017-01-28T10:20:25.000Z</time>
      </trkpt>
      <trkpt lat="43.42833" lon="6.50534">
        <ele>128</ele>
        <time>2017-01-28T10:20:27.000Z</time>
      </trkpt>
      <trkpt lat="43.42838" lon="6.50535">
        <ele>127.59999847412</ele>
        <time>2017-01-28T10:20:28.000Z</time>
      </trkpt>
      <trkpt lat="43.42846" lon="6.50538">
        <ele>126.80000305176</ele>
        <time>2017-01-28T10:20:30.000Z</time>
      </trkpt>
      <trkpt lat="43.42849" lon="6.5054">
        <ele>125.80000305176</ele>
        <time>2017-01-28T10:20:31.000Z</time>
      </trkpt>
      <trkpt lat="43.42856" lon="6.50543">
        <ele>124.40000152588</ele>
        <time>2017-01-28T10:20:33.000Z</time>
      </trkpt>
      <trkpt lat="43.4286" lon="6.50544">
        <ele>123.59999847412</ele>
        <time>2017-01-28T10:20:34.000Z</time>
      </trkpt>
      <trkpt lat="43.42868" lon="6.50546">
        <ele>123</ele>
        <time>2017-01-28T10:20:36.000Z</time>
      </trkpt>
      <trkpt lat="43.42883" lon="6.5055">
        <ele>121.80000305176</ele>
        <time>2017-01-28T10:20:39.000Z</time>
      </trkpt>
      <trkpt lat="43.4289" lon="6.50546">
        <ele>120.19999694824</ele>
        <time>2017-01-28T10:20:41.000Z</time>
      </trkpt>
      <trkpt lat="43.42894" lon="6.50542">
        <ele>119.59999847412</ele>
        <time>2017-01-28T10:20:42.000Z</time>
      </trkpt>
      <trkpt lat="43.42897" lon="6.5054">
        <ele>118.80000305176</ele>
        <time>2017-01-28T10:20:43.000Z</time>
      </trkpt>
      <trkpt lat="43.42902" lon="6.50539">
        <ele>118</ele>
        <time>2017-01-28T10:20:44.000Z</time>
      </trkpt>
      <trkpt lat="43.42908" lon="6.50537">
        <ele>117.59999847412</ele>
        <time>2017-01-28T10:20:45.000Z</time>
      </trkpt>
      <trkpt lat="43.42919" lon="6.50533">
        <ele>116.59999847412</ele>
        <time>2017-01-28T10:20:47.000Z</time>
      </trkpt>
      <trkpt lat="43.42923" lon="6.50531">
        <ele>116.19999694824</ele>
        <time>2017-01-28T10:20:48.000Z</time>
      </trkpt>
      <trkpt lat="43.42926" lon="6.50529">
        <ele>115.59999847412</ele>
        <time>2017-01-28T10:20:49.000Z</time>
      </trkpt>
      <trkpt lat="43.42929" lon="6.50528">
        <ele>115</ele>
        <time>2017-01-28T10:20:50.000Z</time>
      </trkpt>
      <trkpt lat="43.42933" lon="6.50528">
        <ele>114.19999694824</ele>
        <time>2017-01-28T10:20:51.000Z</time>
      </trkpt>
      <trkpt lat="43.42938" lon="6.50529">
        <ele>113.19999694824</ele>
        <time>2017-01-28T10:20:52.000Z</time>
      </trkpt>
      <trkpt lat="43.42944" lon="6.5053">
        <ele>112.40000152588</ele>
        <time>2017-01-28T10:20:53.000Z</time>
      </trkpt>
      <trkpt lat="43.4295" lon="6.50531">
        <ele>111.59999847412</ele>
        <time>2017-01-28T10:20:54.000Z</time>
      </trkpt>
      <trkpt lat="43.42954" lon="6.50533">
        <ele>110.40000152588</ele>
        <time>2017-01-28T10:20:55.000Z</time>
      </trkpt>
      <trkpt lat="43.42959" lon="6.50536">
        <ele>109.59999847412</ele>
        <time>2017-01-28T10:20:56.000Z</time>
      </trkpt>
      <trkpt lat="43.42964" lon="6.50539">
        <ele>109.19999694824</ele>
        <time>2017-01-28T10:20:57.000Z</time>
      </trkpt>
      <trkpt lat="43.42969" lon="6.50541">
        <ele>107.80000305176</ele>
        <time>2017-01-28T10:20:58.000Z</time>
      </trkpt>
      <trkpt lat="43.42977" lon="6.50544">
        <ele>105.80000305176</ele>
        <time>2017-01-28T10:21:00.000Z</time>
      </trkpt>
      <trkpt lat="43.42981" lon="6.50546">
        <ele>105</ele>
        <time>2017-01-28T10:21:01.000Z</time>
      </trkpt>
      <trkpt lat="43.42985" lon="6.50547">
        <ele>103.80000305176</ele>
        <time>2017-01-28T10:21:02.000Z</time>
      </trkpt>
      <trkpt lat="43.42989" lon="6.50548">
        <ele>103</ele>
        <time>2017-01-28T10:21:03.000Z</time>
      </trkpt>
      <trkpt lat="43.42993" lon="6.50549">
        <ele>102.40000152588</ele>
        <time>2017-01-28T10:21:04.000Z</time>
      </trkpt>
      <trkpt lat="43.42996" lon="6.50551">
        <ele>101.59999847412</ele>
        <time>2017-01-28T10:21:05.000Z</time>
      </trkpt>
      <trkpt lat="43.43" lon="6.50554">
        <ele>101</ele>
        <time>2017-01-28T10:21:06.000Z</time>
      </trkpt>
      <trkpt lat="43.43007" lon="6.50564">
        <ele>99.800003051758</ele>
        <time>2017-01-28T10:21:09.000Z</time>
      </trkpt>
      <trkpt lat="43.43017" lon="6.50577">
        <ele>98.199996948242</ele>
        <time>2017-01-28T10:21:12.000Z</time>
      </trkpt>
      <trkpt lat="43.4302" lon="6.50581">
        <ele>97.199996948242</ele>
        <time>2017-01-28T10:21:13.000Z</time>
      </trkpt>
      <trkpt lat="43.43028" lon="6.50597">
        <ele>96.199996948242</ele>
        <time>2017-01-28T10:21:16.000Z</time>
      </trkpt>
      <trkpt lat="43.4303" lon="6.50607">
        <ele>94.400001525879</ele>
        <time>2017-01-28T10:21:18.000Z</time>
      </trkpt>
      <trkpt lat="43.43031" lon="6.50614">
        <ele>93</ele>
        <time>2017-01-28T10:21:19.000Z</time>
      </trkpt>
      <trkpt lat="43.43033" lon="6.50619">
        <ele>92</ele>
        <time>2017-01-28T10:21:20.000Z</time>
      </trkpt>
      <trkpt lat="43.43034" lon="6.50624">
        <ele>91.400001525879</ele>
        <time>2017-01-28T10:21:21.000Z</time>
      </trkpt>
      <trkpt lat="43.43036" lon="6.50635">
        <ele>89.800003051758</ele>
        <time>2017-01-28T10:21:23.000Z</time>
      </trkpt>
      <trkpt lat="43.43039" lon="6.50648">
        <ele>88.599998474121</ele>
        <time>2017-01-28T10:21:25.000Z</time>
      </trkpt>
      <trkpt lat="43.43045" lon="6.50658">
        <ele>86.800003051758</ele>
        <time>2017-01-28T10:21:27.000Z</time>
      </trkpt>
      <trkpt lat="43.43051" lon="6.50664">
        <ele>85.199996948242</ele>
        <time>2017-01-28T10:21:29.000Z</time>
      </trkpt>
      <trkpt lat="43.43058" lon="6.5067">
        <ele>83.400001525879</ele>
        <time>2017-01-28T10:21:31.000Z</time>
      </trkpt>
      <trkpt lat="43.43061" lon="6.50673">
        <ele>83</ele>
        <time>2017-01-28T10:21:32.000Z</time>
      </trkpt>
      <trkpt lat="43.43064" lon="6.50676">
        <ele>82.400001525879</ele>
        <time>2017-01-28T10:21:33.000Z</time>
      </trkpt>
      <trkpt lat="43.43072" lon="6.5069">
        <ele>80.599998474121</ele>
        <time>2017-01-28T10:21:36.000Z</time>
      </trkpt>
      <trkpt lat="43.43077" lon="6.50703">
        <ele>79.599998474121</ele>
        <time>2017-01-28T10:21:38.000Z</time>
      </trkpt>
      <trkpt lat="43.43081" lon="6.50708">
        <ele>79</ele>
        <time>2017-01-28T10:21:39.000Z</time>
      </trkpt>
      <trkpt lat="43.43085" lon="6.50713">
        <ele>78.199996948242</ele>
        <time>2017-01-28T10:21:40.000Z</time>
      </trkpt>
      <trkpt lat="43.43094" lon="6.50721">
        <ele>76.599998474121</ele>
        <time>2017-01-28T10:21:42.000Z</time>
      </trkpt>
      <trkpt lat="43.43102" lon="6.5073">
        <ele>75.199996948242</ele>
        <time>2017-01-28T10:21:44.000Z</time>
      </trkpt>
      <trkpt lat="43.43106" lon="6.50735">
        <ele>74.599998474121</ele>
        <time>2017-01-28T10:21:45.000Z</time>
      </trkpt>
      <trkpt lat="43.43109" lon="6.50741">
        <ele>74.599998474121</ele>
        <time>2017-01-28T10:21:46.000Z</time>
      </trkpt>
      <trkpt lat="43.43111" lon="6.50746">
        <ele>74</ele>
        <time>2017-01-28T10:21:47.000Z</time>
      </trkpt>
      <trkpt lat="43.43115" lon="6.50759">
        <ele>72.800003051758</ele>
        <time>2017-01-28T10:21:49.000Z</time>
      </trkpt>
      <trkpt lat="43.43117" lon="6.50767">
        <ele>70</ele>
        <time>2017-01-28T10:21:51.000Z</time>
      </trkpt>
      <trkpt lat="43.43118" lon="6.50772">
        <ele>69.199996948242</ele>
        <time>2017-01-28T10:21:52.000Z</time>
      </trkpt>
      <trkpt lat="43.43119" lon="6.50777">
        <ele>67.800003051758</ele>
        <time>2017-01-28T10:21:53.000Z</time>
      </trkpt>
      <trkpt lat="43.43122" lon="6.50787">
        <ele>66.400001525879</ele>
        <time>2017-01-28T10:21:55.000Z</time>
      </trkpt>
      <trkpt lat="43.43123" lon="6.50793">
        <ele>66.199996948242</ele>
        <time>2017-01-28T10:21:56.000Z</time>
      </trkpt>
      <trkpt lat="43.43124" lon="6.50798">
        <ele>65.599998474121</ele>
        <time>2017-01-28T10:21:57.000Z</time>
      </trkpt>
      <trkpt lat="43.43126" lon="6.50803">
        <ele>65.199996948242</ele>
        <time>2017-01-28T10:21:58.000Z</time>
      </trkpt>
      <trkpt lat="43.43129" lon="6.50813">
        <ele>64</ele>
        <time>2017-01-28T10:22:00.000Z</time>
      </trkpt>
      <trkpt lat="43.43129" lon="6.50824">
        <ele>63</ele>
        <time>2017-01-28T10:22:02.000Z</time>
      </trkpt>
      <trkpt lat="43.43127" lon="6.50829">
        <ele>62.400001525879</ele>
        <time>2017-01-28T10:22:03.000Z</time>
      </trkpt>
      <trkpt lat="43.43127" lon="6.50835">
        <ele>61.599998474121</ele>
        <time>2017-01-28T10:22:04.000Z</time>
      </trkpt>
      <trkpt lat="43.43129" lon="6.50843">
        <ele>60.400001525879</ele>
        <time>2017-01-28T10:22:06.000Z</time>
      </trkpt>
      <trkpt lat="43.43135" lon="6.50849">
        <ele>59</ele>
        <time>2017-01-28T10:22:08.000Z</time>
      </trkpt>
      <trkpt lat="43.43138" lon="6.50853">
        <ele>58.400001525879</ele>
        <time>2017-01-28T10:22:09.000Z</time>
      </trkpt>
      <trkpt lat="43.43142" lon="6.50855">
        <ele>58</ele>
        <time>2017-01-28T10:22:10.000Z</time>
      </trkpt>
      <trkpt lat="43.43148" lon="6.50863">
        <ele>56.400001525879</ele>
        <time>2017-01-28T10:22:12.000Z</time>
      </trkpt>
      <trkpt lat="43.43152" lon="6.50873">
        <ele>55</ele>
        <time>2017-01-28T10:22:14.000Z</time>
      </trkpt>
      <trkpt lat="43.43155" lon="6.50878">
        <ele>54.799999237061</ele>
        <time>2017-01-28T10:22:15.000Z</time>
      </trkpt>
      <trkpt lat="43.43159" lon="6.50888">
        <ele>54.200000762939</ele>
        <time>2017-01-28T10:22:17.000Z</time>
      </trkpt>
      <trkpt lat="43.4316" lon="6.50894">
        <ele>53.599998474121</ele>
        <time>2017-01-28T10:22:18.000Z</time>
      </trkpt>
      <trkpt lat="43.4316" lon="6.50898">
        <ele>53.200000762939</ele>
        <time>2017-01-28T10:22:19.000Z</time>
      </trkpt>
      <trkpt lat="43.4316" lon="6.50903">
        <ele>52.599998474121</ele>
        <time>2017-01-28T10:22:20.000Z</time>
      </trkpt>
      <trkpt lat="43.43159" lon="6.50909">
        <ele>52</ele>
        <time>2017-01-28T10:22:21.000Z</time>
      </trkpt>
      <trkpt lat="43.43158" lon="6.50923">
        <ele>52</ele>
        <time>2017-01-28T10:22:23.000Z</time>
      </trkpt>
      <trkpt lat="43.43159" lon="6.50934">
        <ele>51.200000762939</ele>
        <time>2017-01-28T10:22:25.000Z</time>
      </trkpt>
      <trkpt lat="43.43159" lon="6.50947">
        <ele>50</ele>
        <time>2017-01-28T10:22:27.000Z</time>
      </trkpt>
      <trkpt lat="43.43159" lon="6.50954">
        <ele>49.200000762939</ele>
        <time>2017-01-28T10:22:28.000Z</time>
      </trkpt>
      <trkpt lat="43.43159" lon="6.50962">
        <ele>48.599998474121</ele>
        <time>2017-01-28T10:22:29.000Z</time>
      </trkpt>
      <trkpt lat="43.43159" lon="6.50968">
        <ele>47.400001525879</ele>
        <time>2017-01-28T10:22:30.000Z</time>
      </trkpt>
      <trkpt lat="43.43159" lon="6.50983">
        <ele>45.599998474121</ele>
        <time>2017-01-28T10:22:32.000Z</time>
      </trkpt>
      <trkpt lat="43.4316" lon="6.50989">
        <ele>44.799999237061</ele>
        <time>2017-01-28T10:22:33.000Z</time>
      </trkpt>
      <trkpt lat="43.43161" lon="6.50995">
        <ele>44.400001525879</ele>
        <time>2017-01-28T10:22:34.000Z</time>
      </trkpt>
      <trkpt lat="43.43162" lon="6.51006">
        <ele>43</ele>
        <time>2017-01-28T10:22:36.000Z</time>
      </trkpt>
      <trkpt lat="43.43163" lon="6.51011">
        <ele>42.799999237061</ele>
        <time>2017-01-28T10:22:37.000Z</time>
      </trkpt>
      <trkpt lat="43.43166" lon="6.51018">
        <ele>40.799999237061</ele>
        <time>2017-01-28T10:22:39.000Z</time>
      </trkpt>
      <trkpt lat="43.43167" lon="6.51026">
        <ele>40</ele>
        <time>2017-01-28T10:22:41.000Z</time>
      </trkpt>
      <trkpt lat="43.43167" lon="6.5103">
        <ele>39</ele>
        <time>2017-01-28T10:22:42.000Z</time>
      </trkpt>
      <trkpt lat="43.43169" lon="6.51033">
        <ele>39</ele>
        <time>2017-01-28T10:22:44.000Z</time>
      </trkpt>
      <trkpt lat="43.43171" lon="6.51035">
        <ele>38.799999237061</ele>
        <time>2017-01-28T10:22:45.000Z</time>
      </trkpt>
      <trkpt lat="43.43174" lon="6.51036">
        <ele>38.799999237061</ele>
        <time>2017-01-28T10:22:49.000Z</time>
      </trkpt>
      <trkpt lat="43.43175" lon="6.51037">
        <ele>38.799999237061</ele>
        <time>2017-01-28T10:22:54.000Z</time>
      </trkpt>
      <trkpt lat="43.43176" lon="6.51036">
        <ele>38.799999237061</ele>
        <time>2017-01-28T10:23:01.000Z</time>
      </trkpt>
      <trkpt lat="43.43178" lon="6.51036">
        <ele>38.799999237061</ele>
        <time>2017-01-28T10:23:10.000Z</time>
      </trkpt>
      <trkpt lat="43.43179" lon="6.51036">
        <ele>38.799999237061</ele>
        <time>2017-01-28T10:23:23.000Z</time>
      </trkpt>
      <trkpt lat="43.4318" lon="6.51036">
        <ele>38.400001525879</ele>
        <time>2017-01-28T10:23:38.000Z</time>
      </trkpt>
      <trkpt lat="43.43181" lon="6.51035">
        <ele>38.400001525879</ele>
        <time>2017-01-28T10:23:53.000Z</time>
      </trkpt>
      <trkpt lat="43.43182" lon="6.51033">
        <ele>38.200000762939</ele>
        <time>2017-01-28T10:24:07.000Z</time>
      </trkpt>
      <trkpt lat="43.43182" lon="6.51033">
        <ele>38.599998474121</ele>
        <time>2017-01-28T10:24:20.000Z</time>
      </trkpt>
      <trkpt lat="43.43183" lon="6.51033">
        <ele>38.599998474121</ele>
        <time>2017-01-28T10:24:30.000Z</time>
      </trkpt>
      <trkpt lat="43.43184" lon="6.51033">
        <ele>38.400001525879</ele>
        <time>2017-01-28T10:24:36.000Z</time>
      </trkpt>
      <trkpt lat="43.43188" lon="6.51031">
        <ele>38.799999237061</ele>
        <time>2017-01-28T10:24:43.000Z</time>
      </trkpt>
      <trkpt lat="43.43188" lon="6.51032">
        <ele>38.599998474121</ele>
        <time>2017-01-28T10:24:48.000Z</time>
      </trkpt>
      <trkpt lat="43.43188" lon="6.51033">
        <ele>38.599998474121</ele>
        <time>2017-01-28T10:24:55.000Z</time>
      </trkpt>
      <trkpt lat="43.43187" lon="6.51035">
        <ele>38.799999237061</ele>
        <time>2017-01-28T10:25:21.000Z</time>
      </trkpt>
      <trkpt lat="43.43185" lon="6.51036">
        <ele>38.599998474121</ele>
        <time>2017-01-28T10:25:31.000Z</time>
      </trkpt>
      <trkpt lat="43.43179" lon="6.51035">
        <ele>38.400001525879</ele>
        <time>2017-01-28T10:25:38.000Z</time>
      </trkpt>
      <trkpt lat="43.43173" lon="6.51036">
        <ele>38.400001525879</ele>
        <time>2017-01-28T10:25:42.000Z</time>
      </trkpt>
      <trkpt lat="43.43171" lon="6.51038">
        <ele>38.799999237061</ele>
        <time>2017-01-28T10:25:44.000Z</time>
      </trkpt>
      <trkpt lat="43.43169" lon="6.51044">
        <ele>39.200000762939</ele>
        <time>2017-01-28T10:25:49.000Z</time>
      </trkpt>
      <trkpt lat="43.43167" lon="6.51052">
        <ele>39.799999237061</ele>
        <time>2017-01-28T10:25:54.000Z</time>
      </trkpt>
      <trkpt lat="43.43166" lon="6.51055">
        <ele>40</ele>
        <time>2017-01-28T10:25:56.000Z</time>
      </trkpt>
      <trkpt lat="43.43165" lon="6.51065">
        <ele>40.799999237061</ele>
        <time>2017-01-28T10:26:01.000Z</time>
      </trkpt>
      <trkpt lat="43.43163" lon="6.51068">
        <ele>41</ele>
        <time>2017-01-28T10:26:03.000Z</time>
      </trkpt>
      <trkpt lat="43.43162" lon="6.51071">
        <ele>41.400001525879</ele>
        <time>2017-01-28T10:26:05.000Z</time>
      </trkpt>
      <trkpt lat="43.4316" lon="6.51074">
        <ele>41.599998474121</ele>
        <time>2017-01-28T10:26:07.000Z</time>
      </trkpt>
      <trkpt lat="43.43157" lon="6.51076">
        <ele>42.200000762939</ele>
        <time>2017-01-28T10:26:10.000Z</time>
      </trkpt>
      <trkpt lat="43.43152" lon="6.51081">
        <ele>42.799999237061</ele>
        <time>2017-01-28T10:26:14.000Z</time>
      </trkpt>
      <trkpt lat="43.4315" lon="6.51083">
        <ele>43.200000762939</ele>
        <time>2017-01-28T10:26:16.000Z</time>
      </trkpt>
      <trkpt lat="43.43144" lon="6.51088">
        <ele>43.799999237061</ele>
        <time>2017-01-28T10:26:21.000Z</time>
      </trkpt>
      <trkpt lat="43.4314" lon="6.51093">
        <ele>44.200000762939</ele>
        <time>2017-01-28T10:26:24.000Z</time>
      </trkpt>
      <trkpt lat="43.43137" lon="6.51096">
        <ele>44.599998474121</ele>
        <time>2017-01-28T10:26:27.000Z</time>
      </trkpt>
      <trkpt lat="43.43131" lon="6.51099">
        <ele>45.200000762939</ele>
        <time>2017-01-28T10:26:31.000Z</time>
      </trkpt>
      <trkpt lat="43.43129" lon="6.511">
        <ele>45.400001525879</ele>
        <time>2017-01-28T10:26:32.000Z</time>
      </trkpt>
      <trkpt lat="43.43128" lon="6.51101">
        <ele>45.400001525879</ele>
        <time>2017-01-28T10:26:33.000Z</time>
      </trkpt>
      <trkpt lat="43.43119" lon="6.51107">
        <ele>46.200000762939</ele>
        <time>2017-01-28T10:26:39.000Z</time>
      </trkpt>
      <trkpt lat="43.43117" lon="6.51108">
        <ele>46.400001525879</ele>
        <time>2017-01-28T10:26:40.000Z</time>
      </trkpt>
      <trkpt lat="43.43107" lon="6.51115">
        <ele>47.200000762939</ele>
        <time>2017-01-28T10:26:46.000Z</time>
      </trkpt>
      <trkpt lat="43.43106" lon="6.51117">
        <ele>47.400001525879</ele>
        <time>2017-01-28T10:26:47.000Z</time>
      </trkpt>
      <trkpt lat="43.43098" lon="6.51121">
        <ele>48.200000762939</ele>
        <time>2017-01-28T10:26:52.000Z</time>
      </trkpt>
      <trkpt lat="43.43084" lon="6.51123">
        <ele>48.400001525879</ele>
        <time>2017-01-28T10:26:58.000Z</time>
      </trkpt>
      <trkpt lat="43.43062" lon="6.5112">
        <ele>47.799999237061</ele>
        <time>2017-01-28T10:27:05.000Z</time>
      </trkpt>
      <trkpt lat="43.43046" lon="6.51112">
        <ele>47.200000762939</ele>
        <time>2017-01-28T10:27:11.000Z</time>
      </trkpt>
      <trkpt lat="43.43034" lon="6.511">
        <ele>47</ele>
        <time>2017-01-28T10:27:16.000Z</time>
      </trkpt>
      <trkpt lat="43.4302" lon="6.51094">
        <ele>46.799999237061</ele>
        <time>2017-01-28T10:27:21.000Z</time>
      </trkpt>
      <trkpt lat="43.43011" lon="6.51106">
        <ele>46.599998474121</ele>
        <time>2017-01-28T10:27:26.000Z</time>
      </trkpt>
      <trkpt lat="43.43006" lon="6.51126">
        <ele>47.200000762939</ele>
        <time>2017-01-28T10:27:32.000Z</time>
      </trkpt>
      <trkpt lat="43.43" lon="6.51145">
        <ele>47.599998474121</ele>
        <time>2017-01-28T10:27:38.000Z</time>
      </trkpt>
      <trkpt lat="43.42996" lon="6.51164">
        <ele>48</ele>
        <time>2017-01-28T10:27:44.000Z</time>
      </trkpt>
      <trkpt lat="43.42992" lon="6.5118">
        <ele>48.599998474121</ele>
        <time>2017-01-28T10:27:50.000Z</time>
      </trkpt>
      <trkpt lat="43.42991" lon="6.51182">
        <ele>48.599998474121</ele>
        <time>2017-01-28T10:27:51.000Z</time>
      </trkpt>
      <trkpt lat="43.42987" lon="6.51191">
        <ele>48.799999237061</ele>
        <time>2017-01-28T10:27:57.000Z</time>
      </trkpt>
      <trkpt lat="43.4298" lon="6.51202">
        <ele>49</ele>
        <time>2017-01-28T10:28:02.000Z</time>
      </trkpt>
      <trkpt lat="43.42969" lon="6.51226">
        <ele>49</ele>
        <time>2017-01-28T10:28:10.000Z</time>
      </trkpt>
      <trkpt lat="43.42963" lon="6.51248">
        <ele>49.200000762939</ele>
        <time>2017-01-28T10:28:16.000Z</time>
      </trkpt>
      <trkpt lat="43.42959" lon="6.51273">
        <ele>49</ele>
        <time>2017-01-28T10:28:22.000Z</time>
      </trkpt>
      <trkpt lat="43.42951" lon="6.51289">
        <ele>48.799999237061</ele>
        <time>2017-01-28T10:28:27.000Z</time>
      </trkpt>
      <trkpt lat="43.42943" lon="6.5131">
        <ele>48.400001525879</ele>
        <time>2017-01-28T10:28:33.000Z</time>
      </trkpt>
      <trkpt lat="43.42935" lon="6.5133">
        <ele>48.200000762939</ele>
        <time>2017-01-28T10:28:38.000Z</time>
      </trkpt>
      <trkpt lat="43.42925" lon="6.51354">
        <ele>47.599998474121</ele>
        <time>2017-01-28T10:28:44.000Z</time>
      </trkpt>
      <trkpt lat="43.42924" lon="6.51358">
        <ele>47.400001525879</ele>
        <time>2017-01-28T10:28:45.000Z</time>
      </trkpt>
      <trkpt lat="43.42921" lon="6.51366">
        <ele>47.400001525879</ele>
        <time>2017-01-28T10:28:48.000Z</time>
      </trkpt>
      <trkpt lat="43.42919" lon="6.51375">
        <ele>47.599998474121</ele>
        <time>2017-01-28T10:28:50.000Z</time>
      </trkpt>
      <trkpt lat="43.42911" lon="6.51389">
        <ele>47.599998474121</ele>
        <time>2017-01-28T10:28:54.000Z</time>
      </trkpt>
      <trkpt lat="43.4291" lon="6.51392">
        <ele>47.599998474121</ele>
        <time>2017-01-28T10:28:55.000Z</time>
      </trkpt>
      <trkpt lat="43.42905" lon="6.51412">
        <ele>47.599998474121</ele>
        <time>2017-01-28T10:29:01.000Z</time>
      </trkpt>
      <trkpt lat="43.42911" lon="6.5144">
        <ele>47.200000762939</ele>
        <time>2017-01-28T10:29:07.000Z</time>
      </trkpt>
      <trkpt lat="43.42916" lon="6.51468">
        <ele>46.400001525879</ele>
        <time>2017-01-28T10:29:12.000Z</time>
      </trkpt>
      <trkpt lat="43.42917" lon="6.51474">
        <ele>46.400001525879</ele>
        <time>2017-01-28T10:29:13.000Z</time>
      </trkpt>
      <trkpt lat="43.42918" lon="6.51481">
        <ele>46.200000762939</ele>
        <time>2017-01-28T10:29:14.000Z</time>
      </trkpt>
      <trkpt lat="43.42919" lon="6.51499">
        <ele>45.599998474121</ele>
        <time>2017-01-28T10:29:17.000Z</time>
      </trkpt>
      <trkpt lat="43.42918" lon="6.51507">
        <ele>45.400001525879</ele>
        <time>2017-01-28T10:29:18.000Z</time>
      </trkpt>
      <trkpt lat="43.42914" lon="6.5152">
        <ele>45.200000762939</ele>
        <time>2017-01-28T10:29:20.000Z</time>
      </trkpt>
      <trkpt lat="43.42903" lon="6.51543">
        <ele>44.200000762939</ele>
        <time>2017-01-28T10:29:24.000Z</time>
      </trkpt>
      <trkpt lat="43.42899" lon="6.51548">
        <ele>44</ele>
        <time>2017-01-28T10:29:25.000Z</time>
      </trkpt>
      <trkpt lat="43.42891" lon="6.51567">
        <ele>43.200000762939</ele>
        <time>2017-01-28T10:29:28.000Z</time>
      </trkpt>
      <trkpt lat="43.42888" lon="6.51573">
        <ele>42.799999237061</ele>
        <time>2017-01-28T10:29:29.000Z</time>
      </trkpt>
      <trkpt lat="43.42885" lon="6.51579">
        <ele>42.599998474121</ele>
        <time>2017-01-28T10:29:30.000Z</time>
      </trkpt>
      <trkpt lat="43.42878" lon="6.5159">
        <ele>42</ele>
        <time>2017-01-28T10:29:32.000Z</time>
      </trkpt>
      <trkpt lat="43.42872" lon="6.51601">
        <ele>41.599998474121</ele>
        <time>2017-01-28T10:29:34.000Z</time>
      </trkpt>
      <trkpt lat="43.42868" lon="6.51605">
        <ele>41.400001525879</ele>
        <time>2017-01-28T10:29:35.000Z</time>
      </trkpt>
      <trkpt lat="43.42859" lon="6.51619">
        <ele>41</ele>
        <time>2017-01-28T10:29:38.000Z</time>
      </trkpt>
      <trkpt lat="43.42857" lon="6.51624">
        <ele>40.799999237061</ele>
        <time>2017-01-28T10:29:39.000Z</time>
      </trkpt>
      <trkpt lat="43.42855" lon="6.51642">
        <ele>40.400001525879</ele>
        <time>2017-01-28T10:29:42.000Z</time>
      </trkpt>
      <trkpt lat="43.42855" lon="6.51647">
        <ele>40.200000762939</ele>
        <time>2017-01-28T10:29:43.000Z</time>
      </trkpt>
      <trkpt lat="43.42857" lon="6.51673">
        <ele>40</ele>
        <time>2017-01-28T10:29:49.000Z</time>
      </trkpt>
      <trkpt lat="43.42864" lon="6.51686">
        <ele>40</ele>
        <time>2017-01-28T10:29:53.000Z</time>
      </trkpt>
      <trkpt lat="43.42868" lon="6.51694">
        <ele>40</ele>
        <time>2017-01-28T10:29:55.000Z</time>
      </trkpt>
      <trkpt lat="43.42872" lon="6.517">
        <ele>39.799999237061</ele>
        <time>2017-01-28T10:29:57.000Z</time>
      </trkpt>
      <trkpt lat="43.42877" lon="6.51712">
        <ele>39.200000762939</ele>
        <time>2017-01-28T10:30:00.000Z</time>
      </trkpt>
      <trkpt lat="43.42883" lon="6.51735">
        <ele>38.799999237061</ele>
        <time>2017-01-28T10:30:05.000Z</time>
      </trkpt>
      <trkpt lat="43.42884" lon="6.5174">
        <ele>38.799999237061</ele>
        <time>2017-01-28T10:30:06.000Z</time>
      </trkpt>
      <trkpt lat="43.42886" lon="6.51764">
        <ele>38.400001525879</ele>
        <time>2017-01-28T10:30:11.000Z</time>
      </trkpt>
      <trkpt lat="43.4289" lon="6.51803">
        <ele>38.400001525879</ele>
        <time>2017-01-28T10:30:19.000Z</time>
      </trkpt>
      <trkpt lat="43.42891" lon="6.51834">
        <ele>39.200000762939</ele>
        <time>2017-01-28T10:30:26.000Z</time>
      </trkpt>
      <trkpt lat="43.42895" lon="6.51874">
        <ele>38.599998474121</ele>
        <time>2017-01-28T10:30:34.000Z</time>
      </trkpt>
      <trkpt lat="43.42901" lon="6.51909">
        <ele>37.599998474121</ele>
        <time>2017-01-28T10:30:40.000Z</time>
      </trkpt>
      <trkpt lat="43.42903" lon="6.51921">
        <ele>37</ele>
        <time>2017-01-28T10:30:42.000Z</time>
      </trkpt>
      <trkpt lat="43.42906" lon="6.51933">
        <ele>36.400001525879</ele>
        <time>2017-01-28T10:30:44.000Z</time>
      </trkpt>
      <trkpt lat="43.42913" lon="6.5196">
        <ele>35.200000762939</ele>
        <time>2017-01-28T10:30:48.000Z</time>
      </trkpt>
      <trkpt lat="43.42916" lon="6.51967">
        <ele>35</ele>
        <time>2017-01-28T10:30:49.000Z</time>
      </trkpt>
      <trkpt lat="43.42924" lon="6.5199">
        <ele>34.200000762939</ele>
        <time>2017-01-28T10:30:52.000Z</time>
      </trkpt>
      <trkpt lat="43.42928" lon="6.52007">
        <ele>33</ele>
        <time>2017-01-28T10:30:54.000Z</time>
      </trkpt>
      <trkpt lat="43.4293" lon="6.52015">
        <ele>32.799999237061</ele>
        <time>2017-01-28T10:30:55.000Z</time>
      </trkpt>
      <trkpt lat="43.42936" lon="6.52042">
        <ele>31.799999237061</ele>
        <time>2017-01-28T10:30:58.000Z</time>
      </trkpt>
      <trkpt lat="43.42939" lon="6.52058">
        <ele>31.60000038147</ele>
        <time>2017-01-28T10:31:00.000Z</time>
      </trkpt>
      <trkpt lat="43.42941" lon="6.52066">
        <ele>31.39999961853</ele>
        <time>2017-01-28T10:31:01.000Z</time>
      </trkpt>
      <trkpt lat="43.42947" lon="6.52094">
        <ele>31.200000762939</ele>
        <time>2017-01-28T10:31:05.000Z</time>
      </trkpt>
      <trkpt lat="43.42949" lon="6.52101">
        <ele>31.200000762939</ele>
        <time>2017-01-28T10:31:06.000Z</time>
      </trkpt>
      <trkpt lat="43.42954" lon="6.52118">
        <ele>31.200000762939</ele>
        <time>2017-01-28T10:31:09.000Z</time>
      </trkpt>
      <trkpt lat="43.42958" lon="6.52129">
        <ele>31.200000762939</ele>
        <time>2017-01-28T10:31:11.000Z</time>
      </trkpt>
      <trkpt lat="43.42969" lon="6.52174">
        <ele>31</ele>
        <time>2017-01-28T10:31:19.000Z</time>
      </trkpt>
      <trkpt lat="43.42974" lon="6.52198">
        <ele>30.799999237061</ele>
        <time>2017-01-28T10:31:24.000Z</time>
      </trkpt>
      <trkpt lat="43.42975" lon="6.52202">
        <ele>30.799999237061</ele>
        <time>2017-01-28T10:31:25.000Z</time>
      </trkpt>
      <trkpt lat="43.42979" lon="6.52217">
        <ele>30.799999237061</ele>
        <time>2017-01-28T10:31:29.000Z</time>
      </trkpt>
      <trkpt lat="43.42979" lon="6.52233">
        <ele>31</ele>
        <time>2017-01-28T10:31:33.000Z</time>
      </trkpt>
      <trkpt lat="43.42976" lon="6.52249">
        <ele>31</ele>
        <time>2017-01-28T10:31:37.000Z</time>
      </trkpt>
      <trkpt lat="43.42968" lon="6.52267">
        <ele>31.200000762939</ele>
        <time>2017-01-28T10:31:42.000Z</time>
      </trkpt>
      <trkpt lat="43.42957" lon="6.52284">
        <ele>31</ele>
        <time>2017-01-28T10:31:48.000Z</time>
      </trkpt>
      <trkpt lat="43.42946" lon="6.52302">
        <ele>31</ele>
        <time>2017-01-28T10:31:54.000Z</time>
      </trkpt>
      <trkpt lat="43.42929" lon="6.52312">
        <ele>31</ele>
        <time>2017-01-28T10:32:00.000Z</time>
      </trkpt>
      <trkpt lat="43.42911" lon="6.5231">
        <ele>30.799999237061</ele>
        <time>2017-01-28T10:32:05.000Z</time>
      </trkpt>
      <trkpt lat="43.42896" lon="6.52314">
        <ele>30.60000038147</ele>
        <time>2017-01-28T10:32:09.000Z</time>
      </trkpt>
      <trkpt lat="43.42882" lon="6.52331">
        <ele>30.200000762939</ele>
        <time>2017-01-28T10:32:14.000Z</time>
      </trkpt>
      <trkpt lat="43.42869" lon="6.52335">
        <ele>30.200000762939</ele>
        <time>2017-01-28T10:32:18.000Z</time>
      </trkpt>
      <trkpt lat="43.42858" lon="6.52346">
        <ele>30</ele>
        <time>2017-01-28T10:32:23.000Z</time>
      </trkpt>
      <trkpt lat="43.42857" lon="6.52356">
        <ele>30</ele>
        <time>2017-01-28T10:32:28.000Z</time>
      </trkpt>
      <trkpt lat="43.42858" lon="6.52359">
        <ele>30</ele>
        <time>2017-01-28T10:32:33.000Z</time>
      </trkpt>
      <trkpt lat="43.42858" lon="6.52359">
        <ele>29.799999237061</ele>
        <time>2017-01-28T10:32:34.000Z</time>
      </trkpt>
      <trkpt lat="43.42858" lon="6.52363">
        <ele>29.799999237061</ele>
        <time>2017-01-28T10:32:43.000Z</time>
      </trkpt>
      <trkpt lat="43.42857" lon="6.52366">
        <ele>30.39999961853</ele>
        <time>2017-01-28T10:32:52.000Z</time>
      </trkpt>
      <trkpt lat="43.42855" lon="6.52367">
        <ele>30.39999961853</ele>
        <time>2017-01-28T10:33:08.000Z</time>
      </trkpt>
      <trkpt lat="43.42853" lon="6.5237">
        <ele>30.39999961853</ele>
        <time>2017-01-28T10:33:29.000Z</time>
      </trkpt>
      <trkpt lat="43.42851" lon="6.52372">
        <ele>30.60000038147</ele>
        <time>2017-01-28T10:33:45.000Z</time>
      </trkpt>
      <trkpt lat="43.42848" lon="6.52376">
        <ele>30.39999961853</ele>
        <time>2017-01-28T10:34:04.000Z</time>
      </trkpt>
      <trkpt lat="43.42847" lon="6.52378">
        <ele>30.60000038147</ele>
        <time>2017-01-28T10:34:19.000Z</time>
      </trkpt>
      <trkpt lat="43.42846" lon="6.52378">
        <ele>30.799999237061</ele>
        <time>2017-01-28T10:34:20.000Z</time>
      </trkpt>
      <trkpt lat="43.42847" lon="6.52379">
        <ele>30.39999961853</ele>
        <time>2017-01-28T10:34:26.000Z</time>
      </trkpt>
      <trkpt lat="43.42848" lon="6.52381">
        <ele>30.39999961853</ele>
        <time>2017-01-28T10:34:34.000Z</time>
      </trkpt>
      <trkpt lat="43.42855" lon="6.52386">
        <ele>30.39999961853</ele>
        <time>2017-01-28T10:34:38.000Z</time>
      </trkpt>
      <trkpt lat="43.4286" lon="6.5239">
        <ele>30.200000762939</ele>
        <time>2017-01-28T10:34:41.000Z</time>
      </trkpt>
      <trkpt lat="43.42862" lon="6.5239">
        <ele>30.200000762939</ele>
        <time>2017-01-28T10:34:42.000Z</time>
      </trkpt>
      <trkpt lat="43.4287" lon="6.52393">
        <ele>30.39999961853</ele>
        <time>2017-01-28T10:34:46.000Z</time>
      </trkpt>
      <trkpt lat="43.42872" lon="6.52393">
        <ele>30.39999961853</ele>
        <time>2017-01-28T10:34:47.000Z</time>
      </trkpt>
      <trkpt lat="43.42877" lon="6.52395">
        <ele>30.39999961853</ele>
        <time>2017-01-28T10:34:50.000Z</time>
      </trkpt>
      <trkpt lat="43.42879" lon="6.52395">
        <ele>30.39999961853</ele>
        <time>2017-01-28T10:34:51.000Z</time>
      </trkpt>
      <trkpt lat="43.42887" lon="6.52398">
        <ele>30.60000038147</ele>
        <time>2017-01-28T10:34:54.000Z</time>
      </trkpt>
      <trkpt lat="43.42894" lon="6.524">
        <ele>30.799999237061</ele>
        <time>2017-01-28T10:34:57.000Z</time>
      </trkpt>
      <trkpt lat="43.42907" lon="6.52406">
        <ele>31</ele>
        <time>2017-01-28T10:35:02.000Z</time>
      </trkpt>
      <trkpt lat="43.42921" lon="6.52405">
        <ele>31.200000762939</ele>
        <time>2017-01-28T10:35:07.000Z</time>
      </trkpt>
      <trkpt lat="43.42932" lon="6.52398">
        <ele>31.799999237061</ele>
        <time>2017-01-28T10:35:11.000Z</time>
      </trkpt>
      <trkpt lat="43.42935" lon="6.52396">
        <ele>31.799999237061</ele>
        <time>2017-01-28T10:35:12.000Z</time>
      </trkpt>
      <trkpt lat="43.42958" lon="6.52376">
        <ele>32</ele>
        <time>2017-01-28T10:35:20.000Z</time>
      </trkpt>
      <trkpt lat="43.42973" lon="6.52372">
        <ele>32.400001525879</ele>
        <time>2017-01-28T10:35:25.000Z</time>
      </trkpt>
      <trkpt lat="43.4298" lon="6.52378">
        <ele>33</ele>
        <time>2017-01-28T10:35:28.000Z</time>
      </trkpt>
      <trkpt lat="43.42983" lon="6.52383">
        <ele>33.200000762939</ele>
        <time>2017-01-28T10:35:30.000Z</time>
      </trkpt>
      <trkpt lat="43.42988" lon="6.52401">
        <ele>33.400001525879</ele>
        <time>2017-01-28T10:35:35.000Z</time>
      </trkpt>
      <trkpt lat="43.42991" lon="6.5242">
        <ele>34</ele>
        <time>2017-01-28T10:35:41.000Z</time>
      </trkpt>
      <trkpt lat="43.42994" lon="6.52434">
        <ele>35.200000762939</ele>
        <time>2017-01-28T10:35:46.000Z</time>
      </trkpt>
      <trkpt lat="43.42995" lon="6.52437">
        <ele>35.400001525879</ele>
        <time>2017-01-28T10:35:47.000Z</time>
      </trkpt>
      <trkpt lat="43.42996" lon="6.52445">
        <ele>36.400001525879</ele>
        <time>2017-01-28T10:35:50.000Z</time>
      </trkpt>
      <trkpt lat="43.42995" lon="6.52454">
        <ele>37.200000762939</ele>
        <time>2017-01-28T10:35:54.000Z</time>
      </trkpt>
      <trkpt lat="43.42994" lon="6.52457">
        <ele>37.400001525879</ele>
        <time>2017-01-28T10:35:55.000Z</time>
      </trkpt>
      <trkpt lat="43.42991" lon="6.52467">
        <ele>38.400001525879</ele>
        <time>2017-01-28T10:36:00.000Z</time>
      </trkpt>
      <trkpt lat="43.4299" lon="6.52471">
        <ele>39</ele>
        <time>2017-01-28T10:36:02.000Z</time>
      </trkpt>
      <trkpt lat="43.42987" lon="6.52479">
        <ele>39.599998474121</ele>
        <time>2017-01-28T10:36:06.000Z</time>
      </trkpt>
      <trkpt lat="43.42985" lon="6.52485">
        <ele>40</ele>
        <time>2017-01-28T10:36:09.000Z</time>
      </trkpt>
      <trkpt lat="43.42983" lon="6.52493">
        <ele>40.599998474121</ele>
        <time>2017-01-28T10:36:13.000Z</time>
      </trkpt>
      <trkpt lat="43.42981" lon="6.52496">
        <ele>41.200000762939</ele>
        <time>2017-01-28T10:36:15.000Z</time>
      </trkpt>
      <trkpt lat="43.4298" lon="6.52502">
        <ele>41.799999237061</ele>
        <time>2017-01-28T10:36:18.000Z</time>
      </trkpt>
      <trkpt lat="43.42978" lon="6.52507">
        <ele>42.400001525879</ele>
        <time>2017-01-28T10:36:21.000Z</time>
      </trkpt>
      <trkpt lat="43.42977" lon="6.5251">
        <ele>43</ele>
        <time>2017-01-28T10:36:23.000Z</time>
      </trkpt>
      <trkpt lat="43.42974" lon="6.52512">
        <ele>43.599998474121</ele>
        <time>2017-01-28T10:36:26.000Z</time>
      </trkpt>
      <trkpt lat="43.42973" lon="6.52511">
        <ele>43.799999237061</ele>
        <time>2017-01-28T10:36:27.000Z</time>
      </trkpt>
      <trkpt lat="43.42972" lon="6.5251">
        <ele>44</ele>
        <time>2017-01-28T10:36:28.000Z</time>
      </trkpt>
      <trkpt lat="43.42971" lon="6.52509">
        <ele>44.200000762939</ele>
        <time>2017-01-28T10:36:29.000Z</time>
      </trkpt>
      <trkpt lat="43.4297" lon="6.52503">
        <ele>44.799999237061</ele>
        <time>2017-01-28T10:36:32.000Z</time>
      </trkpt>
      <trkpt lat="43.4297" lon="6.52502">
        <ele>45</ele>
        <time>2017-01-28T10:36:33.000Z</time>
      </trkpt>
      <trkpt lat="43.42972" lon="6.52492">
        <ele>46.200000762939</ele>
        <time>2017-01-28T10:36:39.000Z</time>
      </trkpt>
      <trkpt lat="43.42971" lon="6.52487">
        <ele>46.599998474121</ele>
        <time>2017-01-28T10:36:42.000Z</time>
      </trkpt>
      <trkpt lat="43.42969" lon="6.52479">
        <ele>47</ele>
        <time>2017-01-28T10:36:46.000Z</time>
      </trkpt>
      <trkpt lat="43.42968" lon="6.52475">
        <ele>47.200000762939</ele>
        <time>2017-01-28T10:36:48.000Z</time>
      </trkpt>
      <trkpt lat="43.42967" lon="6.5247">
        <ele>47.799999237061</ele>
        <time>2017-01-28T10:36:51.000Z</time>
      </trkpt>
      <trkpt lat="43.42966" lon="6.52466">
        <ele>48.400001525879</ele>
        <time>2017-01-28T10:36:53.000Z</time>
      </trkpt>
      <trkpt lat="43.42963" lon="6.5246">
        <ele>49.400001525879</ele>
        <time>2017-01-28T10:36:57.000Z</time>
      </trkpt>
      <trkpt lat="43.42961" lon="6.52459">
        <ele>49.599998474121</ele>
        <time>2017-01-28T10:36:58.000Z</time>
      </trkpt>
      <trkpt lat="43.42956" lon="6.52462">
        <ele>50</ele>
        <time>2017-01-28T10:37:02.000Z</time>
      </trkpt>
      <trkpt lat="43.42953" lon="6.52466">
        <ele>50.599998474121</ele>
        <time>2017-01-28T10:37:05.000Z</time>
      </trkpt>
      <trkpt lat="43.42951" lon="6.52473">
        <ele>51</ele>
        <time>2017-01-28T10:37:08.000Z</time>
      </trkpt>
      <trkpt lat="43.42948" lon="6.52478">
        <ele>51.599998474121</ele>
        <time>2017-01-28T10:37:11.000Z</time>
      </trkpt>
      <trkpt lat="43.42945" lon="6.52484">
        <ele>52.400001525879</ele>
        <time>2017-01-28T10:37:15.000Z</time>
      </trkpt>
      <trkpt lat="43.42944" lon="6.52487">
        <ele>52.799999237061</ele>
        <time>2017-01-28T10:37:17.000Z</time>
      </trkpt>
      <trkpt lat="43.42939" lon="6.52492">
        <ele>53.799999237061</ele>
        <time>2017-01-28T10:37:21.000Z</time>
      </trkpt>
      <trkpt lat="43.42937" lon="6.52493">
        <ele>54.200000762939</ele>
        <time>2017-01-28T10:37:22.000Z</time>
      </trkpt>
      <trkpt lat="43.42935" lon="6.52496">
        <ele>55.200000762939</ele>
        <time>2017-01-28T10:37:25.000Z</time>
      </trkpt>
      <trkpt lat="43.42931" lon="6.525">
        <ele>55.599998474121</ele>
        <time>2017-01-28T10:37:28.000Z</time>
      </trkpt>
      <trkpt lat="43.42925" lon="6.52506">
        <ele>56.200000762939</ele>
        <time>2017-01-28T10:37:33.000Z</time>
      </trkpt>
      <trkpt lat="43.42922" lon="6.52507">
        <ele>56.799999237061</ele>
        <time>2017-01-28T10:37:35.000Z</time>
      </trkpt>
      <trkpt lat="43.4292" lon="6.5251">
        <ele>57.400001525879</ele>
        <time>2017-01-28T10:37:37.000Z</time>
      </trkpt>
      <trkpt lat="43.42912" lon="6.52514">
        <ele>58.200000762939</ele>
        <time>2017-01-28T10:37:43.000Z</time>
      </trkpt>
      <trkpt lat="43.42911" lon="6.52515">
        <ele>58.400001525879</ele>
        <time>2017-01-28T10:37:44.000Z</time>
      </trkpt>
      <trkpt lat="43.42902" lon="6.52515">
        <ele>59.400001525879</ele>
        <time>2017-01-28T10:37:50.000Z</time>
      </trkpt>
      <trkpt lat="43.42896" lon="6.5252">
        <ele>60.400001525879</ele>
        <time>2017-01-28T10:37:55.000Z</time>
      </trkpt>
      <trkpt lat="43.42895" lon="6.52522">
        <ele>60.799999237061</ele>
        <time>2017-01-28T10:37:56.000Z</time>
      </trkpt>
      <trkpt lat="43.42895" lon="6.52523">
        <ele>61.200000762939</ele>
        <time>2017-01-28T10:37:57.000Z</time>
      </trkpt>
      <trkpt lat="43.42898" lon="6.52527">
        <ele>61.799999237061</ele>
        <time>2017-01-28T10:38:00.000Z</time>
      </trkpt>
      <trkpt lat="43.42902" lon="6.52529">
        <ele>62.200000762939</ele>
        <time>2017-01-28T10:38:03.000Z</time>
      </trkpt>
      <trkpt lat="43.42906" lon="6.52531">
        <ele>63</ele>
        <time>2017-01-28T10:38:06.000Z</time>
      </trkpt>
      <trkpt lat="43.42907" lon="6.52531">
        <ele>63.200000762939</ele>
        <time>2017-01-28T10:38:07.000Z</time>
      </trkpt>
      <trkpt lat="43.42912" lon="6.52533">
        <ele>64</ele>
        <time>2017-01-28T10:38:11.000Z</time>
      </trkpt>
      <trkpt lat="43.42917" lon="6.52535">
        <ele>64.800003051758</ele>
        <time>2017-01-28T10:38:15.000Z</time>
      </trkpt>
      <trkpt lat="43.4292" lon="6.52537">
        <ele>65.199996948242</ele>
        <time>2017-01-28T10:38:17.000Z</time>
      </trkpt>
      <trkpt lat="43.42925" lon="6.52542">
        <ele>66.199996948242</ele>
        <time>2017-01-28T10:38:22.000Z</time>
      </trkpt>
      <trkpt lat="43.42928" lon="6.5255">
        <ele>66.800003051758</ele>
        <time>2017-01-28T10:38:26.000Z</time>
      </trkpt>
      <trkpt lat="43.42929" lon="6.52552">
        <ele>67</ele>
        <time>2017-01-28T10:38:27.000Z</time>
      </trkpt>
      <trkpt lat="43.42929" lon="6.52556">
        <ele>67.199996948242</ele>
        <time>2017-01-28T10:38:29.000Z</time>
      </trkpt>
      <trkpt lat="43.42931" lon="6.52565">
        <ele>68.400001525879</ele>
        <time>2017-01-28T10:38:34.000Z</time>
      </trkpt>
      <trkpt lat="43.42932" lon="6.52567">
        <ele>68.599998474121</ele>
        <time>2017-01-28T10:38:35.000Z</time>
      </trkpt>
      <trkpt lat="43.42933" lon="6.52576">
        <ele>69.400001525879</ele>
        <time>2017-01-28T10:38:40.000Z</time>
      </trkpt>
      <trkpt lat="43.42933" lon="6.52582">
        <ele>70</ele>
        <time>2017-01-28T10:38:43.000Z</time>
      </trkpt>
      <trkpt lat="43.42934" lon="6.52589">
        <ele>70.599998474121</ele>
        <time>2017-01-28T10:38:46.000Z</time>
      </trkpt>
      <trkpt lat="43.42934" lon="6.52597">
        <ele>71.199996948242</ele>
        <time>2017-01-28T10:38:50.000Z</time>
      </trkpt>
      <trkpt lat="43.42935" lon="6.52601">
        <ele>71.599998474121</ele>
        <time>2017-01-28T10:38:52.000Z</time>
      </trkpt>
      <trkpt lat="43.42936" lon="6.52612">
        <ele>72.400001525879</ele>
        <time>2017-01-28T10:38:57.000Z</time>
      </trkpt>
      <trkpt lat="43.42937" lon="6.52617">
        <ele>72.800003051758</ele>
        <time>2017-01-28T10:39:00.000Z</time>
      </trkpt>
      <trkpt lat="43.4294" lon="6.52623">
        <ele>73.800003051758</ele>
        <time>2017-01-28T10:39:04.000Z</time>
      </trkpt>
      <trkpt lat="43.42941" lon="6.52625">
        <ele>74</ele>
        <time>2017-01-28T10:39:05.000Z</time>
      </trkpt>
      <trkpt lat="43.42945" lon="6.52633">
        <ele>74.800003051758</ele>
        <time>2017-01-28T10:39:10.000Z</time>
      </trkpt>
      <trkpt lat="43.42947" lon="6.52636">
        <ele>75.199996948242</ele>
        <time>2017-01-28T10:39:12.000Z</time>
      </trkpt>
      <trkpt lat="43.42951" lon="6.52641">
        <ele>75.800003051758</ele>
        <time>2017-01-28T10:39:15.000Z</time>
      </trkpt>
      <trkpt lat="43.42954" lon="6.52648">
        <ele>76.400001525879</ele>
        <time>2017-01-28T10:39:19.000Z</time>
      </trkpt>
      <trkpt lat="43.42958" lon="6.52653">
        <ele>77.199996948242</ele>
        <time>2017-01-28T10:39:22.000Z</time>
      </trkpt>
      <trkpt lat="43.42964" lon="6.52662">
        <ele>78.199996948242</ele>
        <time>2017-01-28T10:39:28.000Z</time>
      </trkpt>
      <trkpt lat="43.42966" lon="6.52665">
        <ele>78.599998474121</ele>
        <time>2017-01-28T10:39:30.000Z</time>
      </trkpt>
      <trkpt lat="43.42971" lon="6.52671">
        <ele>79.400001525879</ele>
        <time>2017-01-28T10:39:35.000Z</time>
      </trkpt>
      <trkpt lat="43.42973" lon="6.52674">
        <ele>79.800003051758</ele>
        <time>2017-01-28T10:39:37.000Z</time>
      </trkpt>
      <trkpt lat="43.42976" lon="6.52679">
        <ele>80.599998474121</ele>
        <time>2017-01-28T10:39:40.000Z</time>
      </trkpt>
      <trkpt lat="43.42981" lon="6.52687">
        <ele>81.199996948242</ele>
        <time>2017-01-28T10:39:45.000Z</time>
      </trkpt>
      <trkpt lat="43.42984" lon="6.52691">
        <ele>81.800003051758</ele>
        <time>2017-01-28T10:39:48.000Z</time>
      </trkpt>
      <trkpt lat="43.42988" lon="6.52698">
        <ele>83</ele>
        <time>2017-01-28T10:39:53.000Z</time>
      </trkpt>
      <trkpt lat="43.42992" lon="6.52708">
        <ele>84</ele>
        <time>2017-01-28T10:39:59.000Z</time>
      </trkpt>
      <trkpt lat="43.42993" lon="6.52712">
        <ele>84.400001525879</ele>
        <time>2017-01-28T10:40:01.000Z</time>
      </trkpt>
      <trkpt lat="43.42996" lon="6.5272">
        <ele>85.199996948242</ele>
        <time>2017-01-28T10:40:05.000Z</time>
      </trkpt>
      <trkpt lat="43.42997" lon="6.52725">
        <ele>85.800003051758</ele>
        <time>2017-01-28T10:40:08.000Z</time>
      </trkpt>
      <trkpt lat="43.42997" lon="6.52729">
        <ele>86.199996948242</ele>
        <time>2017-01-28T10:40:10.000Z</time>
      </trkpt>
      <trkpt lat="43.43" lon="6.52738">
        <ele>87.199996948242</ele>
        <time>2017-01-28T10:40:15.000Z</time>
      </trkpt>
      <trkpt lat="43.43" lon="6.5274">
        <ele>87.400001525879</ele>
        <time>2017-01-28T10:40:16.000Z</time>
      </trkpt>
      <trkpt lat="43.43003" lon="6.52749">
        <ele>88.400001525879</ele>
        <time>2017-01-28T10:40:21.000Z</time>
      </trkpt>
      <trkpt lat="43.43003" lon="6.52751">
        <ele>88.599998474121</ele>
        <time>2017-01-28T10:40:22.000Z</time>
      </trkpt>
      <trkpt lat="43.43005" lon="6.52758">
        <ele>89.599998474121</ele>
        <time>2017-01-28T10:40:26.000Z</time>
      </trkpt>
      <trkpt lat="43.43006" lon="6.52763">
        <ele>90.199996948242</ele>
        <time>2017-01-28T10:40:29.000Z</time>
      </trkpt>
      <trkpt lat="43.43008" lon="6.52767">
        <ele>90.599998474121</ele>
        <time>2017-01-28T10:40:31.000Z</time>
      </trkpt>
      <trkpt lat="43.43011" lon="6.52777">
        <ele>91.599998474121</ele>
        <time>2017-01-28T10:40:36.000Z</time>
      </trkpt>
      <trkpt lat="43.43012" lon="6.52779">
        <ele>91.599998474121</ele>
        <time>2017-01-28T10:40:37.000Z</time>
      </trkpt>
      <trkpt lat="43.43015" lon="6.5279">
        <ele>92.599998474121</ele>
        <time>2017-01-28T10:40:42.000Z</time>
      </trkpt>
      <trkpt lat="43.43016" lon="6.52794">
        <ele>93.199996948242</ele>
        <time>2017-01-28T10:40:44.000Z</time>
      </trkpt>
      <trkpt lat="43.43017" lon="6.52798">
        <ele>93.599998474121</ele>
        <time>2017-01-28T10:40:46.000Z</time>
      </trkpt>
      <trkpt lat="43.4302" lon="6.52807">
        <ele>94.800003051758</ele>
        <time>2017-01-28T10:40:50.000Z</time>
      </trkpt>
      <trkpt lat="43.43021" lon="6.52809">
        <ele>95</ele>
        <time>2017-01-28T10:40:51.000Z</time>
      </trkpt>
      <trkpt lat="43.43024" lon="6.52817">
        <ele>95.800003051758</ele>
        <time>2017-01-28T10:40:55.000Z</time>
      </trkpt>
      <trkpt lat="43.43026" lon="6.52823">
        <ele>96.400001525879</ele>
        <time>2017-01-28T10:40:58.000Z</time>
      </trkpt>
      <trkpt lat="43.43031" lon="6.52828">
        <ele>97</ele>
        <time>2017-01-28T10:41:01.000Z</time>
      </trkpt>
      <trkpt lat="43.43038" lon="6.52827">
        <ele>97.400001525879</ele>
        <time>2017-01-28T10:41:04.000Z</time>
      </trkpt>
      <trkpt lat="43.43047" lon="6.52816">
        <ele>97.599998474121</ele>
        <time>2017-01-28T10:41:10.000Z</time>
      </trkpt>
      <trkpt lat="43.43053" lon="6.52809">
        <ele>98.199996948242</ele>
        <time>2017-01-28T10:41:14.000Z</time>
      </trkpt>
      <trkpt lat="43.43056" lon="6.52806">
        <ele>98.400001525879</ele>
        <time>2017-01-28T10:41:16.000Z</time>
      </trkpt>
      <trkpt lat="43.43063" lon="6.52802">
        <ele>99.199996948242</ele>
        <time>2017-01-28T10:41:20.000Z</time>
      </trkpt>
      <trkpt lat="43.43067" lon="6.52802">
        <ele>99.599998474121</ele>
        <time>2017-01-28T10:41:22.000Z</time>
      </trkpt>
      <trkpt lat="43.43073" lon="6.52803">
        <ele>100.40000152588</ele>
        <time>2017-01-28T10:41:26.000Z</time>
      </trkpt>
      <trkpt lat="43.43076" lon="6.52805">
        <ele>100.80000305176</ele>
        <time>2017-01-28T10:41:28.000Z</time>
      </trkpt>
      <trkpt lat="43.43081" lon="6.52807">
        <ele>101.40000152588</ele>
        <time>2017-01-28T10:41:31.000Z</time>
      </trkpt>
      <trkpt lat="43.43086" lon="6.5281">
        <ele>102</ele>
        <time>2017-01-28T10:41:35.000Z</time>
      </trkpt>
      <trkpt lat="43.43092" lon="6.52814">
        <ele>102.59999847412</ele>
        <time>2017-01-28T10:41:39.000Z</time>
      </trkpt>
      <trkpt lat="43.43095" lon="6.52816">
        <ele>102.80000305176</ele>
        <time>2017-01-28T10:41:41.000Z</time>
      </trkpt>
      <trkpt lat="43.43103" lon="6.5282">
        <ele>103.59999847412</ele>
        <time>2017-01-28T10:41:46.000Z</time>
      </trkpt>
      <trkpt lat="43.43106" lon="6.52822">
        <ele>104</ele>
        <time>2017-01-28T10:41:48.000Z</time>
      </trkpt>
      <trkpt lat="43.43112" lon="6.52825">
        <ele>105</ele>
        <time>2017-01-28T10:41:53.000Z</time>
      </trkpt>
      <trkpt lat="43.43117" lon="6.52826">
        <ele>105.59999847412</ele>
        <time>2017-01-28T10:41:56.000Z</time>
      </trkpt>
      <trkpt lat="43.43121" lon="6.52828">
        <ele>106</ele>
        <time>2017-01-28T10:41:59.000Z</time>
      </trkpt>
      <trkpt lat="43.4313" lon="6.5283">
        <ele>106.59999847412</ele>
        <time>2017-01-28T10:42:04.000Z</time>
      </trkpt>
      <trkpt lat="43.43135" lon="6.52831">
        <ele>107</ele>
        <time>2017-01-28T10:42:07.000Z</time>
      </trkpt>
      <trkpt lat="43.4314" lon="6.52829">
        <ele>108</ele>
        <time>2017-01-28T10:42:10.000Z</time>
      </trkpt>
      <trkpt lat="43.43142" lon="6.52828">
        <ele>108.40000152588</ele>
        <time>2017-01-28T10:42:11.000Z</time>
      </trkpt>
      <trkpt lat="43.43152" lon="6.52822">
        <ele>109.40000152588</ele>
        <time>2017-01-28T10:42:17.000Z</time>
      </trkpt>
      <trkpt lat="43.43155" lon="6.5282">
        <ele>109.59999847412</ele>
        <time>2017-01-28T10:42:19.000Z</time>
      </trkpt>
      <trkpt lat="43.43162" lon="6.52815">
        <ele>110.40000152588</ele>
        <time>2017-01-28T10:42:24.000Z</time>
      </trkpt>
      <trkpt lat="43.43165" lon="6.52812">
        <ele>110.59999847412</ele>
        <time>2017-01-28T10:42:26.000Z</time>
      </trkpt>
      <trkpt lat="43.4317" lon="6.52806">
        <ele>111.59999847412</ele>
        <time>2017-01-28T10:42:31.000Z</time>
      </trkpt>
      <trkpt lat="43.43173" lon="6.52802">
        <ele>112</ele>
        <time>2017-01-28T10:42:34.000Z</time>
      </trkpt>
      <trkpt lat="43.43176" lon="6.52795">
        <ele>112.80000305176</ele>
        <time>2017-01-28T10:42:38.000Z</time>
      </trkpt>
      <trkpt lat="43.43179" lon="6.52787">
        <ele>113.59999847412</ele>
        <time>2017-01-28T10:42:42.000Z</time>
      </trkpt>
      <trkpt lat="43.43179" lon="6.52784">
        <ele>113.80000305176</ele>
        <time>2017-01-28T10:42:43.000Z</time>
      </trkpt>
      <trkpt lat="43.43182" lon="6.52774">
        <ele>114.80000305176</ele>
        <time>2017-01-28T10:42:48.000Z</time>
      </trkpt>
      <trkpt lat="43.43182" lon="6.52772">
        <ele>115</ele>
        <time>2017-01-28T10:42:49.000Z</time>
      </trkpt>
      <trkpt lat="43.43184" lon="6.5276">
        <ele>115.80000305176</ele>
        <time>2017-01-28T10:42:55.000Z</time>
      </trkpt>
      <trkpt lat="43.43184" lon="6.52757">
        <ele>116.19999694824</ele>
        <time>2017-01-28T10:42:56.000Z</time>
      </trkpt>
      <trkpt lat="43.43183" lon="6.52741">
        <ele>117</ele>
        <time>2017-01-28T10:43:03.000Z</time>
      </trkpt>
      <trkpt lat="43.43182" lon="6.52737">
        <ele>117.19999694824</ele>
        <time>2017-01-28T10:43:05.000Z</time>
      </trkpt>
      <trkpt lat="43.43183" lon="6.52726">
        <ele>118.40000152588</ele>
        <time>2017-01-28T10:43:10.000Z</time>
      </trkpt>
      <trkpt lat="43.43184" lon="6.52725">
        <ele>118.59999847412</ele>
        <time>2017-01-28T10:43:11.000Z</time>
      </trkpt>
      <trkpt lat="43.43188" lon="6.52725">
        <ele>119.59999847412</ele>
        <time>2017-01-28T10:43:14.000Z</time>
      </trkpt>
      <trkpt lat="43.43191" lon="6.52734">
        <ele>120.59999847412</ele>
        <time>2017-01-28T10:43:18.000Z</time>
      </trkpt>
      <trkpt lat="43.43191" lon="6.52736">
        <ele>120.59999847412</ele>
        <time>2017-01-28T10:43:19.000Z</time>
      </trkpt>
      <trkpt lat="43.43194" lon="6.52753">
        <ele>121.19999694824</ele>
        <time>2017-01-28T10:43:26.000Z</time>
      </trkpt>
      <trkpt lat="43.43196" lon="6.52774">
        <ele>121.59999847412</ele>
        <time>2017-01-28T10:43:34.000Z</time>
      </trkpt>
      <trkpt lat="43.43197" lon="6.52776">
        <ele>121.59999847412</ele>
        <time>2017-01-28T10:43:35.000Z</time>
      </trkpt>
      <trkpt lat="43.43198" lon="6.52797">
        <ele>122.59999847412</ele>
        <time>2017-01-28T10:43:43.000Z</time>
      </trkpt>
      <trkpt lat="43.43198" lon="6.52799">
        <ele>122.59999847412</ele>
        <time>2017-01-28T10:43:44.000Z</time>
      </trkpt>
      <trkpt lat="43.43198" lon="6.52818">
        <ele>123</ele>
        <time>2017-01-28T10:43:53.000Z</time>
      </trkpt>
      <trkpt lat="43.43197" lon="6.52818">
        <ele>123.40000152588</ele>
        <time>2017-01-28T10:43:58.000Z</time>
      </trkpt>
      <trkpt lat="43.43196" lon="6.52818">
        <ele>123.59999847412</ele>
        <time>2017-01-28T10:44:01.000Z</time>
      </trkpt>
      <trkpt lat="43.43196" lon="6.52818">
        <ele>123.80000305176</ele>
        <time>2017-01-28T10:44:04.000Z</time>
      </trkpt>
      <trkpt lat="43.43196" lon="6.52818">
        <ele>123.59999847412</ele>
        <time>2017-01-28T10:44:19.000Z</time>
      </trkpt>
      <trkpt lat="43.43196" lon="6.52818">
        <ele>123</ele>
        <time>2017-01-28T10:44:35.000Z</time>
      </trkpt>
      <trkpt lat="43.43196" lon="6.52818">
        <ele>123.40000152588</ele>
        <time>2017-01-28T10:44:46.000Z</time>
      </trkpt>
      <trkpt lat="43.43194" lon="6.52815">
        <ele>123.59999847412</ele>
        <time>2017-01-28T10:44:50.000Z</time>
      </trkpt>
      <trkpt lat="43.43195" lon="6.52812">
        <ele>123.59999847412</ele>
        <time>2017-01-28T10:44:52.000Z</time>
      </trkpt>
      <trkpt lat="43.43196" lon="6.5281">
        <ele>123.40000152588</ele>
        <time>2017-01-28T10:44:54.000Z</time>
      </trkpt>
      <trkpt lat="43.432" lon="6.52813">
        <ele>123.40000152588</ele>
        <time>2017-01-28T10:44:57.000Z</time>
      </trkpt>
      <trkpt lat="43.43198" lon="6.5282">
        <ele>123</ele>
        <time>2017-01-28T10:45:00.000Z</time>
      </trkpt>
      <trkpt lat="43.43198" lon="6.52822">
        <ele>123.19999694824</ele>
        <time>2017-01-28T10:45:01.000Z</time>
      </trkpt>
      <trkpt lat="43.43196" lon="6.52837">
        <ele>124.80000305176</ele>
        <time>2017-01-28T10:45:07.000Z</time>
      </trkpt>
      <trkpt lat="43.43195" lon="6.52846">
        <ele>126</ele>
        <time>2017-01-28T10:45:11.000Z</time>
      </trkpt>
      <trkpt lat="43.43194" lon="6.52855">
        <ele>127</ele>
        <time>2017-01-28T10:45:15.000Z</time>
      </trkpt>
      <trkpt lat="43.43193" lon="6.52861">
        <ele>128</ele>
        <time>2017-01-28T10:45:18.000Z</time>
      </trkpt>
      <trkpt lat="43.43192" lon="6.52865">
        <ele>128.60000610352</ele>
        <time>2017-01-28T10:45:20.000Z</time>
      </trkpt>
      <trkpt lat="43.43191" lon="6.52868">
        <ele>129.19999694824</ele>
        <time>2017-01-28T10:45:22.000Z</time>
      </trkpt>
      <trkpt lat="43.43187" lon="6.52876">
        <ele>129.80000305176</ele>
        <time>2017-01-28T10:45:26.000Z</time>
      </trkpt>
      <trkpt lat="43.43186" lon="6.52879">
        <ele>130.39999389648</ele>
        <time>2017-01-28T10:45:28.000Z</time>
      </trkpt>
      <trkpt lat="43.43182" lon="6.52885">
        <ele>131.39999389648</ele>
        <time>2017-01-28T10:45:32.000Z</time>
      </trkpt>
      <trkpt lat="43.43179" lon="6.52888">
        <ele>131.80000305176</ele>
        <time>2017-01-28T10:45:34.000Z</time>
      </trkpt>
      <trkpt lat="43.43175" lon="6.52892">
        <ele>132.60000610352</ele>
        <time>2017-01-28T10:45:37.000Z</time>
      </trkpt>
      <trkpt lat="43.43169" lon="6.52898">
        <ele>133.39999389648</ele>
        <time>2017-01-28T10:45:42.000Z</time>
      </trkpt>
      <trkpt lat="43.43168" lon="6.52899">
        <ele>133.60000610352</ele>
        <time>2017-01-28T10:45:43.000Z</time>
      </trkpt>
      <trkpt lat="43.43161" lon="6.52904">
        <ele>134.60000610352</ele>
        <time>2017-01-28T10:45:48.000Z</time>
      </trkpt>
      <trkpt lat="43.43158" lon="6.52906">
        <ele>134.80000305176</ele>
        <time>2017-01-28T10:45:50.000Z</time>
      </trkpt>
      <trkpt lat="43.43153" lon="6.52911">
        <ele>135.60000610352</ele>
        <time>2017-01-28T10:45:54.000Z</time>
      </trkpt>
      <trkpt lat="43.43146" lon="6.52913">
        <ele>136.19999694824</ele>
        <time>2017-01-28T10:45:58.000Z</time>
      </trkpt>
      <trkpt lat="43.43143" lon="6.52914">
        <ele>136.60000610352</ele>
        <time>2017-01-28T10:46:00.000Z</time>
      </trkpt>
      <trkpt lat="43.43135" lon="6.52916">
        <ele>137.60000610352</ele>
        <time>2017-01-28T10:46:05.000Z</time>
      </trkpt>
      <trkpt lat="43.43133" lon="6.52916">
        <ele>137.80000305176</ele>
        <time>2017-01-28T10:46:06.000Z</time>
      </trkpt>
      <trkpt lat="43.43123" lon="6.52917">
        <ele>138.80000305176</ele>
        <time>2017-01-28T10:46:12.000Z</time>
      </trkpt>
      <trkpt lat="43.43121" lon="6.52918">
        <ele>138.80000305176</ele>
        <time>2017-01-28T10:46:13.000Z</time>
      </trkpt>
      <trkpt lat="43.43108" lon="6.52923">
        <ele>139.60000610352</ele>
        <time>2017-01-28T10:46:20.000Z</time>
      </trkpt>
      <trkpt lat="43.43105" lon="6.52926">
        <ele>139.80000305176</ele>
        <time>2017-01-28T10:46:22.000Z</time>
      </trkpt>
      <trkpt lat="43.431" lon="6.52932">
        <ele>140</ele>
        <time>2017-01-28T10:46:26.000Z</time>
      </trkpt>
      <trkpt lat="43.43095" lon="6.52939">
        <ele>140.80000305176</ele>
        <time>2017-01-28T10:46:30.000Z</time>
      </trkpt>
      <trkpt lat="43.43089" lon="6.52949">
        <ele>142</ele>
        <time>2017-01-28T10:46:35.000Z</time>
      </trkpt>
      <trkpt lat="43.43084" lon="6.52959">
        <ele>143</ele>
        <time>2017-01-28T10:46:40.000Z</time>
      </trkpt>
      <trkpt lat="43.43082" lon="6.52966">
        <ele>143.80000305176</ele>
        <time>2017-01-28T10:46:43.000Z</time>
      </trkpt>
      <trkpt lat="43.43079" lon="6.52976">
        <ele>144.19999694824</ele>
        <time>2017-01-28T10:46:47.000Z</time>
      </trkpt>
      <trkpt lat="43.43074" lon="6.52986">
        <ele>144.80000305176</ele>
        <time>2017-01-28T10:46:51.000Z</time>
      </trkpt>
      <trkpt lat="43.43068" lon="6.52989">
        <ele>145.19999694824</ele>
        <time>2017-01-28T10:46:54.000Z</time>
      </trkpt>
      <trkpt lat="43.43064" lon="6.52988">
        <ele>145.39999389648</ele>
        <time>2017-01-28T10:46:56.000Z</time>
      </trkpt>
      <trkpt lat="43.43053" lon="6.52985">
        <ele>146.39999389648</ele>
        <time>2017-01-28T10:47:02.000Z</time>
      </trkpt>
      <trkpt lat="43.43052" lon="6.52985">
        <ele>146.60000610352</ele>
        <time>2017-01-28T10:47:03.000Z</time>
      </trkpt>
      <trkpt lat="43.4304" lon="6.52987">
        <ele>147.60000610352</ele>
        <time>2017-01-28T10:47:10.000Z</time>
      </trkpt>
      <trkpt lat="43.43033" lon="6.52996">
        <ele>148.19999694824</ele>
        <time>2017-01-28T10:47:16.000Z</time>
      </trkpt>
      <trkpt lat="43.43033" lon="6.53004">
        <ele>148.60000610352</ele>
        <time>2017-01-28T10:47:19.000Z</time>
      </trkpt>
      <trkpt lat="43.43035" lon="6.53011">
        <ele>149</ele>
        <time>2017-01-28T10:47:22.000Z</time>
      </trkpt>
      <trkpt lat="43.43036" lon="6.53019">
        <ele>149.80000305176</ele>
        <time>2017-01-28T10:47:25.000Z</time>
      </trkpt>
      <trkpt lat="43.43034" lon="6.53028">
        <ele>150.80000305176</ele>
        <time>2017-01-28T10:47:28.000Z</time>
      </trkpt>
      <trkpt lat="43.43033" lon="6.5303">
        <ele>151</ele>
        <time>2017-01-28T10:47:29.000Z</time>
      </trkpt>
      <trkpt lat="43.43029" lon="6.53041">
        <ele>152.19999694824</ele>
        <time>2017-01-28T10:47:33.000Z</time>
      </trkpt>
      <trkpt lat="43.43027" lon="6.53045">
        <ele>152.60000610352</ele>
        <time>2017-01-28T10:47:35.000Z</time>
      </trkpt>
      <trkpt lat="43.43023" lon="6.53052">
        <ele>153.19999694824</ele>
        <time>2017-01-28T10:47:38.000Z</time>
      </trkpt>
      <trkpt lat="43.43018" lon="6.53064">
        <ele>154</ele>
        <time>2017-01-28T10:47:43.000Z</time>
      </trkpt>
      <trkpt lat="43.43016" lon="6.53069">
        <ele>154.19999694824</ele>
        <time>2017-01-28T10:47:45.000Z</time>
      </trkpt>
      <trkpt lat="43.43013" lon="6.53081">
        <ele>155.60000610352</ele>
        <time>2017-01-28T10:47:50.000Z</time>
      </trkpt>
      <trkpt lat="43.43012" lon="6.53087">
        <ele>156</ele>
        <time>2017-01-28T10:47:52.000Z</time>
      </trkpt>
      <trkpt lat="43.4301" lon="6.53095">
        <ele>156.60000610352</ele>
        <time>2017-01-28T10:47:55.000Z</time>
      </trkpt>
      <trkpt lat="43.43008" lon="6.53108">
        <ele>157</ele>
        <time>2017-01-28T10:48:00.000Z</time>
      </trkpt>
      <trkpt lat="43.43003" lon="6.53118">
        <ele>157.60000610352</ele>
        <time>2017-01-28T10:48:05.000Z</time>
      </trkpt>
      <trkpt lat="43.43001" lon="6.5312">
        <ele>157.80000305176</ele>
        <time>2017-01-28T10:48:06.000Z</time>
      </trkpt>
      <trkpt lat="43.42995" lon="6.53128">
        <ele>158.60000610352</ele>
        <time>2017-01-28T10:48:11.000Z</time>
      </trkpt>
      <trkpt lat="43.42992" lon="6.53135">
        <ele>159.19999694824</ele>
        <time>2017-01-28T10:48:14.000Z</time>
      </trkpt>
      <trkpt lat="43.42988" lon="6.53143">
        <ele>159.80000305176</ele>
        <time>2017-01-28T10:48:18.000Z</time>
      </trkpt>
      <trkpt lat="43.42986" lon="6.53151">
        <ele>160.19999694824</ele>
        <time>2017-01-28T10:48:21.000Z</time>
      </trkpt>
      <trkpt lat="43.42984" lon="6.53162">
        <ele>160.80000305176</ele>
        <time>2017-01-28T10:48:25.000Z</time>
      </trkpt>
      <trkpt lat="43.42984" lon="6.53168">
        <ele>161.19999694824</ele>
        <time>2017-01-28T10:48:27.000Z</time>
      </trkpt>
      <trkpt lat="43.42986" lon="6.53182">
        <ele>162</ele>
        <time>2017-01-28T10:48:32.000Z</time>
      </trkpt>
      <trkpt lat="43.42988" lon="6.53187">
        <ele>162.60000610352</ele>
        <time>2017-01-28T10:48:34.000Z</time>
      </trkpt>
      <trkpt lat="43.4299" lon="6.53196">
        <ele>163</ele>
        <time>2017-01-28T10:48:37.000Z</time>
      </trkpt>
      <trkpt lat="43.42995" lon="6.53211">
        <ele>164</ele>
        <time>2017-01-28T10:48:42.000Z</time>
      </trkpt>
      <trkpt lat="43.42996" lon="6.53214">
        <ele>164.19999694824</ele>
        <time>2017-01-28T10:48:43.000Z</time>
      </trkpt>
      <trkpt lat="43.42998" lon="6.53225">
        <ele>165.39999389648</ele>
        <time>2017-01-28T10:48:47.000Z</time>
      </trkpt>
      <trkpt lat="43.42998" lon="6.53228">
        <ele>165.60000610352</ele>
        <time>2017-01-28T10:48:48.000Z</time>
      </trkpt>
      <trkpt lat="43.43001" lon="6.53239">
        <ele>166.80000305176</ele>
        <time>2017-01-28T10:48:52.000Z</time>
      </trkpt>
      <trkpt lat="43.43004" lon="6.5325">
        <ele>168</ele>
        <time>2017-01-28T10:48:56.000Z</time>
      </trkpt>
      <trkpt lat="43.43006" lon="6.53263">
        <ele>169</ele>
        <time>2017-01-28T10:49:01.000Z</time>
      </trkpt>
      <trkpt lat="43.43007" lon="6.53269">
        <ele>169.39999389648</ele>
        <time>2017-01-28T10:49:03.000Z</time>
      </trkpt>
      <trkpt lat="43.43009" lon="6.53279">
        <ele>170.19999694824</ele>
        <time>2017-01-28T10:49:07.000Z</time>
      </trkpt>
      <trkpt lat="43.43011" lon="6.53288">
        <ele>171.19999694824</ele>
        <time>2017-01-28T10:49:11.000Z</time>
      </trkpt>
      <trkpt lat="43.43011" lon="6.53291">
        <ele>171.39999389648</ele>
        <time>2017-01-28T10:49:12.000Z</time>
      </trkpt>
      <trkpt lat="43.4301" lon="6.53307">
        <ele>172.19999694824</ele>
        <time>2017-01-28T10:49:18.000Z</time>
      </trkpt>
      <trkpt lat="43.43008" lon="6.53315">
        <ele>172.39999389648</ele>
        <time>2017-01-28T10:49:21.000Z</time>
      </trkpt>
      <trkpt lat="43.43004" lon="6.53324">
        <ele>173.39999389648</ele>
        <time>2017-01-28T10:49:25.000Z</time>
      </trkpt>
      <trkpt lat="43.43003" lon="6.53326">
        <ele>173.60000610352</ele>
        <time>2017-01-28T10:49:26.000Z</time>
      </trkpt>
      <trkpt lat="43.42999" lon="6.53335">
        <ele>174</ele>
        <time>2017-01-28T10:49:30.000Z</time>
      </trkpt>
      <trkpt lat="43.42996" lon="6.53342">
        <ele>174.60000610352</ele>
        <time>2017-01-28T10:49:33.000Z</time>
      </trkpt>
      <trkpt lat="43.42993" lon="6.53351">
        <ele>175.39999389648</ele>
        <time>2017-01-28T10:49:37.000Z</time>
      </trkpt>
      <trkpt lat="43.42993" lon="6.53352">
        <ele>175.60000610352</ele>
        <time>2017-01-28T10:49:38.000Z</time>
      </trkpt>
      <trkpt lat="43.4299" lon="6.53364">
        <ele>176.60000610352</ele>
        <time>2017-01-28T10:49:43.000Z</time>
      </trkpt>
      <trkpt lat="43.42987" lon="6.5338">
        <ele>177.80000305176</ele>
        <time>2017-01-28T10:49:49.000Z</time>
      </trkpt>
      <trkpt lat="43.42986" lon="6.53385">
        <ele>178</ele>
        <time>2017-01-28T10:49:51.000Z</time>
      </trkpt>
      <trkpt lat="43.42985" lon="6.53398">
        <ele>178.80000305176</ele>
        <time>2017-01-28T10:49:56.000Z</time>
      </trkpt>
      <trkpt lat="43.42984" lon="6.53409">
        <ele>179.60000610352</ele>
        <time>2017-01-28T10:50:00.000Z</time>
      </trkpt>
      <trkpt lat="43.42984" lon="6.53415">
        <ele>180</ele>
        <time>2017-01-28T10:50:02.000Z</time>
      </trkpt>
      <trkpt lat="43.42985" lon="6.53425">
        <ele>180.80000305176</ele>
        <time>2017-01-28T10:50:06.000Z</time>
      </trkpt>
      <trkpt lat="43.42985" lon="6.53427">
        <ele>181.19999694824</ele>
        <time>2017-01-28T10:50:07.000Z</time>
      </trkpt>
      <trkpt lat="43.42985" lon="6.53436">
        <ele>182.19999694824</ele>
        <time>2017-01-28T10:50:11.000Z</time>
      </trkpt>
      <trkpt lat="43.42983" lon="6.53445">
        <ele>182.60000610352</ele>
        <time>2017-01-28T10:50:14.000Z</time>
      </trkpt>
      <trkpt lat="43.42974" lon="6.53452">
        <ele>183.39999389648</ele>
        <time>2017-01-28T10:50:19.000Z</time>
      </trkpt>
      <trkpt lat="43.42967" lon="6.53454">
        <ele>184.39999389648</ele>
        <time>2017-01-28T10:50:23.000Z</time>
      </trkpt>
      <trkpt lat="43.42963" lon="6.53454">
        <ele>184.80000305176</ele>
        <time>2017-01-28T10:50:25.000Z</time>
      </trkpt>
      <trkpt lat="43.42948" lon="6.53449">
        <ele>185.39999389648</ele>
        <time>2017-01-28T10:50:32.000Z</time>
      </trkpt>
      <trkpt lat="43.42947" lon="6.53448">
        <ele>185.60000610352</ele>
        <time>2017-01-28T10:50:33.000Z</time>
      </trkpt>
      <trkpt lat="43.42937" lon="6.53444">
        <ele>186.60000610352</ele>
        <time>2017-01-28T10:50:38.000Z</time>
      </trkpt>
      <trkpt lat="43.42936" lon="6.53443">
        <ele>186.80000305176</ele>
        <time>2017-01-28T10:50:39.000Z</time>
      </trkpt>
      <trkpt lat="43.42925" lon="6.53441">
        <ele>187.80000305176</ele>
        <time>2017-01-28T10:50:45.000Z</time>
      </trkpt>
      <trkpt lat="43.42911" lon="6.53439">
        <ele>188.80000305176</ele>
        <time>2017-01-28T10:50:52.000Z</time>
      </trkpt>
      <trkpt lat="43.42909" lon="6.53439">
        <ele>189</ele>
        <time>2017-01-28T10:50:53.000Z</time>
      </trkpt>
      <trkpt lat="43.429" lon="6.53435">
        <ele>190</ele>
        <time>2017-01-28T10:50:58.000Z</time>
      </trkpt>
      <trkpt lat="43.42897" lon="6.53432">
        <ele>190</ele>
        <time>2017-01-28T10:51:00.000Z</time>
      </trkpt>
      <trkpt lat="43.42888" lon="6.53418">
        <ele>191.19999694824</ele>
        <time>2017-01-28T10:51:07.000Z</time>
      </trkpt>
      <trkpt lat="43.42887" lon="6.53416">
        <ele>191.39999389648</ele>
        <time>2017-01-28T10:51:08.000Z</time>
      </trkpt>
      <trkpt lat="43.42882" lon="6.53408">
        <ele>192.19999694824</ele>
        <time>2017-01-28T10:51:12.000Z</time>
      </trkpt>
      <trkpt lat="43.42875" lon="6.534">
        <ele>192.80000305176</ele>
        <time>2017-01-28T10:51:17.000Z</time>
      </trkpt>
      <trkpt lat="43.42872" lon="6.53396">
        <ele>193.19999694824</ele>
        <time>2017-01-28T10:51:19.000Z</time>
      </trkpt>
      <trkpt lat="43.42866" lon="6.5339">
        <ele>193.60000610352</ele>
        <time>2017-01-28T10:51:23.000Z</time>
      </trkpt>
      <trkpt lat="43.42858" lon="6.53385">
        <ele>194.39999389648</ele>
        <time>2017-01-28T10:51:27.000Z</time>
      </trkpt>
      <trkpt lat="43.42852" lon="6.5338">
        <ele>195.60000610352</ele>
        <time>2017-01-28T10:51:31.000Z</time>
      </trkpt>
      <trkpt lat="43.4285" lon="6.53379">
        <ele>195.80000305176</ele>
        <time>2017-01-28T10:51:32.000Z</time>
      </trkpt>
      <trkpt lat="43.42838" lon="6.53364">
        <ele>196.39999389648</ele>
        <time>2017-01-28T10:51:40.000Z</time>
      </trkpt>
      <trkpt lat="43.42836" lon="6.5336">
        <ele>196.60000610352</ele>
        <time>2017-01-28T10:51:42.000Z</time>
      </trkpt>
      <trkpt lat="43.42832" lon="6.53352">
        <ele>197.60000610352</ele>
        <time>2017-01-28T10:51:46.000Z</time>
      </trkpt>
      <trkpt lat="43.42831" lon="6.5335">
        <ele>197.80000305176</ele>
        <time>2017-01-28T10:51:47.000Z</time>
      </trkpt>
      <trkpt lat="43.42824" lon="6.53342">
        <ele>199</ele>
        <time>2017-01-28T10:51:52.000Z</time>
      </trkpt>
      <trkpt lat="43.42813" lon="6.53341">
        <ele>200.19999694824</ele>
        <time>2017-01-28T10:51:58.000Z</time>
      </trkpt>
      <trkpt lat="43.42801" lon="6.53348">
        <ele>201.39999389648</ele>
        <time>2017-01-28T10:52:05.000Z</time>
      </trkpt>
      <trkpt lat="43.42793" lon="6.5335">
        <ele>202.39999389648</ele>
        <time>2017-01-28T10:52:10.000Z</time>
      </trkpt>
      <trkpt lat="43.42786" lon="6.5335">
        <ele>202.60000610352</ele>
        <time>2017-01-28T10:52:14.000Z</time>
      </trkpt>
      <trkpt lat="43.42776" lon="6.53348">
        <ele>203.60000610352</ele>
        <time>2017-01-28T10:52:20.000Z</time>
      </trkpt>
      <trkpt lat="43.42771" lon="6.53347">
        <ele>204.19999694824</ele>
        <time>2017-01-28T10:52:23.000Z</time>
      </trkpt>
      <trkpt lat="43.42766" lon="6.53346">
        <ele>204.60000610352</ele>
        <time>2017-01-28T10:52:26.000Z</time>
      </trkpt>
      <trkpt lat="43.42758" lon="6.53342">
        <ele>205.60000610352</ele>
        <time>2017-01-28T10:52:31.000Z</time>
      </trkpt>
      <trkpt lat="43.42757" lon="6.53341">
        <ele>205.80000305176</ele>
        <time>2017-01-28T10:52:32.000Z</time>
      </trkpt>
      <trkpt lat="43.42747" lon="6.53337">
        <ele>206.80000305176</ele>
        <time>2017-01-28T10:52:38.000Z</time>
      </trkpt>
      <trkpt lat="43.42743" lon="6.53335">
        <ele>207.19999694824</ele>
        <time>2017-01-28T10:52:41.000Z</time>
      </trkpt>
      <trkpt lat="43.4273" lon="6.53333">
        <ele>207.80000305176</ele>
        <time>2017-01-28T10:52:48.000Z</time>
      </trkpt>
      <trkpt lat="43.42729" lon="6.53333">
        <ele>208</ele>
        <time>2017-01-28T10:52:49.000Z</time>
      </trkpt>
      <trkpt lat="43.42716" lon="6.53333">
        <ele>209</ele>
        <time>2017-01-28T10:52:57.000Z</time>
      </trkpt>
      <trkpt lat="43.42708" lon="6.53336">
        <ele>210</ele>
        <time>2017-01-28T10:53:02.000Z</time>
      </trkpt>
      <trkpt lat="43.42705" lon="6.53336">
        <ele>210.39999389648</ele>
        <time>2017-01-28T10:53:04.000Z</time>
      </trkpt>
      <trkpt lat="43.42698" lon="6.53338">
        <ele>211.19999694824</ele>
        <time>2017-01-28T10:53:08.000Z</time>
      </trkpt>
      <trkpt lat="43.42694" lon="6.53339">
        <ele>211.80000305176</ele>
        <time>2017-01-28T10:53:11.000Z</time>
      </trkpt>
      <trkpt lat="43.4269" lon="6.53341">
        <ele>212.39999389648</ele>
        <time>2017-01-28T10:53:14.000Z</time>
      </trkpt>
      <trkpt lat="43.42683" lon="6.53343">
        <ele>213</ele>
        <time>2017-01-28T10:53:18.000Z</time>
      </trkpt>
      <trkpt lat="43.4268" lon="6.53344">
        <ele>213.39999389648</ele>
        <time>2017-01-28T10:53:20.000Z</time>
      </trkpt>
      <trkpt lat="43.42669" lon="6.5334">
        <ele>214.19999694824</ele>
        <time>2017-01-28T10:53:26.000Z</time>
      </trkpt>
      <trkpt lat="43.42661" lon="6.53336">
        <ele>214.39999389648</ele>
        <time>2017-01-28T10:53:30.000Z</time>
      </trkpt>
      <trkpt lat="43.42658" lon="6.53333">
        <ele>214.80000305176</ele>
        <time>2017-01-28T10:53:32.000Z</time>
      </trkpt>
      <trkpt lat="43.42652" lon="6.53329">
        <ele>215.60000610352</ele>
        <time>2017-01-28T10:53:36.000Z</time>
      </trkpt>
      <trkpt lat="43.42643" lon="6.53325">
        <ele>216.39999389648</ele>
        <time>2017-01-28T10:53:41.000Z</time>
      </trkpt>
      <trkpt lat="43.42639" lon="6.53324">
        <ele>216.60000610352</ele>
        <time>2017-01-28T10:53:43.000Z</time>
      </trkpt>
      <trkpt lat="43.4263" lon="6.53322">
        <ele>217.60000610352</ele>
        <time>2017-01-28T10:53:48.000Z</time>
      </trkpt>
      <trkpt lat="43.42629" lon="6.53322">
        <ele>217.80000305176</ele>
        <time>2017-01-28T10:53:49.000Z</time>
      </trkpt>
      <trkpt lat="43.42618" lon="6.53321">
        <ele>218.80000305176</ele>
        <time>2017-01-28T10:53:55.000Z</time>
      </trkpt>
      <trkpt lat="43.42614" lon="6.53321">
        <ele>219</ele>
        <time>2017-01-28T10:53:57.000Z</time>
      </trkpt>
      <trkpt lat="43.42607" lon="6.53322">
        <ele>219.80000305176</ele>
        <time>2017-01-28T10:54:01.000Z</time>
      </trkpt>
      <trkpt lat="43.42605" lon="6.53322">
        <ele>220</ele>
        <time>2017-01-28T10:54:02.000Z</time>
      </trkpt>
      <trkpt lat="43.42594" lon="6.53323">
        <ele>221.19999694824</ele>
        <time>2017-01-28T10:54:08.000Z</time>
      </trkpt>
      <trkpt lat="43.42593" lon="6.53323">
        <ele>221.39999389648</ele>
        <time>2017-01-28T10:54:09.000Z</time>
      </trkpt>
      <trkpt lat="43.42585" lon="6.53324">
        <ele>222.19999694824</ele>
        <time>2017-01-28T10:54:13.000Z</time>
      </trkpt>
      <trkpt lat="43.42584" lon="6.53324">
        <ele>222.39999389648</ele>
        <time>2017-01-28T10:54:14.000Z</time>
      </trkpt>
      <trkpt lat="43.4258" lon="6.53324">
        <ele>222.60000610352</ele>
        <time>2017-01-28T10:54:16.000Z</time>
      </trkpt>
      <trkpt lat="43.42574" lon="6.53325">
        <ele>223.19999694824</ele>
        <time>2017-01-28T10:54:19.000Z</time>
      </trkpt>
      <trkpt lat="43.42567" lon="6.53325">
        <ele>223.39999389648</ele>
        <time>2017-01-28T10:54:23.000Z</time>
      </trkpt>
      <trkpt lat="43.42558" lon="6.53328">
        <ele>224.19999694824</ele>
        <time>2017-01-28T10:54:28.000Z</time>
      </trkpt>
      <trkpt lat="43.42556" lon="6.53329">
        <ele>224.39999389648</ele>
        <time>2017-01-28T10:54:29.000Z</time>
      </trkpt>
      <trkpt lat="43.42545" lon="6.53338">
        <ele>225.39999389648</ele>
        <time>2017-01-28T10:54:38.000Z</time>
      </trkpt>
      <trkpt lat="43.42538" lon="6.53345">
        <ele>226.39999389648</ele>
        <time>2017-01-28T10:54:43.000Z</time>
      </trkpt>
      <trkpt lat="43.42531" lon="6.53351">
        <ele>227.19999694824</ele>
        <time>2017-01-28T10:54:47.000Z</time>
      </trkpt>
      <trkpt lat="43.42528" lon="6.53354">
        <ele>227.60000610352</ele>
        <time>2017-01-28T10:54:49.000Z</time>
      </trkpt>
      <trkpt lat="43.42522" lon="6.5336">
        <ele>228.39999389648</ele>
        <time>2017-01-28T10:54:53.000Z</time>
      </trkpt>
      <trkpt lat="43.42519" lon="6.53363">
        <ele>228.60000610352</ele>
        <time>2017-01-28T10:54:55.000Z</time>
      </trkpt>
      <trkpt lat="43.42512" lon="6.53369">
        <ele>229.60000610352</ele>
        <time>2017-01-28T10:55:00.000Z</time>
      </trkpt>
      <trkpt lat="43.42503" lon="6.53377">
        <ele>230.60000610352</ele>
        <time>2017-01-28T10:55:07.000Z</time>
      </trkpt>
      <trkpt lat="43.425" lon="6.5338">
        <ele>231</ele>
        <time>2017-01-28T10:55:09.000Z</time>
      </trkpt>
      <trkpt lat="43.42494" lon="6.53385">
        <ele>231.80000305176</ele>
        <time>2017-01-28T10:55:13.000Z</time>
      </trkpt>
      <trkpt lat="43.42489" lon="6.53391">
        <ele>232.19999694824</ele>
        <time>2017-01-28T10:55:17.000Z</time>
      </trkpt>
      <trkpt lat="43.42485" lon="6.53397">
        <ele>232.80000305176</ele>
        <time>2017-01-28T10:55:20.000Z</time>
      </trkpt>
      <trkpt lat="43.42478" lon="6.53408">
        <ele>233.80000305176</ele>
        <time>2017-01-28T10:55:26.000Z</time>
      </trkpt>
      <trkpt lat="43.42477" lon="6.5341">
        <ele>234.19999694824</ele>
        <time>2017-01-28T10:55:27.000Z</time>
      </trkpt>
      <trkpt lat="43.42471" lon="6.53424">
        <ele>234.80000305176</ele>
        <time>2017-01-28T10:55:33.000Z</time>
      </trkpt>
      <trkpt lat="43.42465" lon="6.53434">
        <ele>235.19999694824</ele>
        <time>2017-01-28T10:55:38.000Z</time>
      </trkpt>
      <trkpt lat="43.42461" lon="6.53439">
        <ele>235.60000610352</ele>
        <time>2017-01-28T10:55:41.000Z</time>
      </trkpt>
      <trkpt lat="43.42447" lon="6.5345">
        <ele>235.60000610352</ele>
        <time>2017-01-28T10:55:48.000Z</time>
      </trkpt>
      <trkpt lat="43.42432" lon="6.53469">
        <ele>235.80000305176</ele>
        <time>2017-01-28T10:55:56.000Z</time>
      </trkpt>
      <trkpt lat="43.42427" lon="6.53485">
        <ele>235.80000305176</ele>
        <time>2017-01-28T10:56:02.000Z</time>
      </trkpt>
      <trkpt lat="43.42425" lon="6.53487">
        <ele>236.19999694824</ele>
        <time>2017-01-28T10:56:06.000Z</time>
      </trkpt>
      <trkpt lat="43.42425" lon="6.53487">
        <ele>236</ele>
        <time>2017-01-28T10:56:07.000Z</time>
      </trkpt>
      <trkpt lat="43.42425" lon="6.53488">
        <ele>236</ele>
        <time>2017-01-28T10:56:13.000Z</time>
      </trkpt>
      <trkpt lat="43.42423" lon="6.5349">
        <ele>235.80000305176</ele>
        <time>2017-01-28T10:56:35.000Z</time>
      </trkpt>
      <trkpt lat="43.42423" lon="6.53492">
        <ele>236</ele>
        <time>2017-01-28T10:57:08.000Z</time>
      </trkpt>
      <trkpt lat="43.42422" lon="6.53495">
        <ele>236.19999694824</ele>
        <time>2017-01-28T10:57:41.000Z</time>
      </trkpt>
      <trkpt lat="43.42422" lon="6.53495">
        <ele>236.39999389648</ele>
        <time>2017-01-28T10:58:05.000Z</time>
      </trkpt>
      <trkpt lat="43.42423" lon="6.53495">
        <ele>236.19999694824</ele>
        <time>2017-01-28T10:58:27.000Z</time>
      </trkpt>
      <trkpt lat="43.42423" lon="6.53496">
        <ele>236.60000610352</ele>
        <time>2017-01-28T10:58:55.000Z</time>
      </trkpt>
      <trkpt lat="43.42423" lon="6.53496">
        <ele>236.19999694824</ele>
        <time>2017-01-28T10:59:20.000Z</time>
      </trkpt>
      <trkpt lat="43.42423" lon="6.53496">
        <ele>236.80000305176</ele>
        <time>2017-01-28T10:59:39.000Z</time>
      </trkpt>
      <trkpt lat="43.42423" lon="6.53495">
        <ele>237.19999694824</ele>
        <time>2017-01-28T10:59:54.000Z</time>
      </trkpt>
      <trkpt lat="43.42423" lon="6.53495">
        <ele>236.60000610352</ele>
        <time>2017-01-28T11:00:03.000Z</time>
      </trkpt>
      <trkpt lat="43.42422" lon="6.53494">
        <ele>236.60000610352</ele>
        <time>2017-01-28T11:00:21.000Z</time>
      </trkpt>
      <trkpt lat="43.42422" lon="6.53495">
        <ele>236.80000305176</ele>
        <time>2017-01-28T11:00:22.000Z</time>
      </trkpt>
      <trkpt lat="43.42418" lon="6.53498">
        <ele>236.80000305176</ele>
        <time>2017-01-28T11:00:26.000Z</time>
      </trkpt>
      <trkpt lat="43.42411" lon="6.53501">
        <ele>236.19999694824</ele>
        <time>2017-01-28T11:00:31.000Z</time>
      </trkpt>
      <trkpt lat="43.4241" lon="6.53502">
        <ele>236</ele>
        <time>2017-01-28T11:00:32.000Z</time>
      </trkpt>
      <trkpt lat="43.42403" lon="6.53504">
        <ele>236.39999389648</ele>
        <time>2017-01-28T11:00:36.000Z</time>
      </trkpt>
      <trkpt lat="43.42401" lon="6.53504">
        <ele>236.39999389648</ele>
        <time>2017-01-28T11:00:37.000Z</time>
      </trkpt>
      <trkpt lat="43.42396" lon="6.53506">
        <ele>237</ele>
        <time>2017-01-28T11:00:40.000Z</time>
      </trkpt>
      <trkpt lat="43.42395" lon="6.53506">
        <ele>237.19999694824</ele>
        <time>2017-01-28T11:00:41.000Z</time>
      </trkpt>
      <trkpt lat="43.42392" lon="6.53507">
        <ele>237.80000305176</ele>
        <time>2017-01-28T11:00:43.000Z</time>
      </trkpt>
      <trkpt lat="43.42387" lon="6.53509">
        <ele>238.39999389648</ele>
        <time>2017-01-28T11:00:46.000Z</time>
      </trkpt>
      <trkpt lat="43.42377" lon="6.53511">
        <ele>238.60000610352</ele>
        <time>2017-01-28T11:00:51.000Z</time>
      </trkpt>
      <trkpt lat="43.42355" lon="6.53514">
        <ele>239</ele>
        <time>2017-01-28T11:01:01.000Z</time>
      </trkpt>
      <trkpt lat="43.42348" lon="6.53515">
        <ele>239.39999389648</ele>
        <time>2017-01-28T11:01:05.000Z</time>
      </trkpt>
      <trkpt lat="43.42344" lon="6.53516">
        <ele>239.60000610352</ele>
        <time>2017-01-28T11:01:07.000Z</time>
      </trkpt>
      <trkpt lat="43.42332" lon="6.53519">
        <ele>240</ele>
        <time>2017-01-28T11:01:14.000Z</time>
      </trkpt>
      <trkpt lat="43.42327" lon="6.53521">
        <ele>240.39999389648</ele>
        <time>2017-01-28T11:01:17.000Z</time>
      </trkpt>
      <trkpt lat="43.42319" lon="6.53524">
        <ele>241.60000610352</ele>
        <time>2017-01-28T11:01:22.000Z</time>
      </trkpt>
      <trkpt lat="43.42311" lon="6.53527">
        <ele>242.60000610352</ele>
        <time>2017-01-28T11:01:27.000Z</time>
      </trkpt>
      <trkpt lat="43.42309" lon="6.53528">
        <ele>242.80000305176</ele>
        <time>2017-01-28T11:01:28.000Z</time>
      </trkpt>
      <trkpt lat="43.42308" lon="6.53529">
        <ele>243</ele>
        <time>2017-01-28T11:01:29.000Z</time>
      </trkpt>
      <trkpt lat="43.42302" lon="6.53531">
        <ele>243.60000610352</ele>
        <time>2017-01-28T11:01:32.000Z</time>
      </trkpt>
      <trkpt lat="43.42297" lon="6.53532">
        <ele>244.39999389648</ele>
        <time>2017-01-28T11:01:36.000Z</time>
      </trkpt>
      <trkpt lat="43.42295" lon="6.53533">
        <ele>244.39999389648</ele>
        <time>2017-01-28T11:01:37.000Z</time>
      </trkpt>
      <trkpt lat="43.4229" lon="6.53536">
        <ele>244.60000610352</ele>
        <time>2017-01-28T11:01:40.000Z</time>
      </trkpt>
      <trkpt lat="43.42288" lon="6.53536">
        <ele>245</ele>
        <time>2017-01-28T11:01:41.000Z</time>
      </trkpt>
      <trkpt lat="43.42283" lon="6.53538">
        <ele>246.19999694824</ele>
        <time>2017-01-28T11:01:44.000Z</time>
      </trkpt>
      <trkpt lat="43.4228" lon="6.53539">
        <ele>246.80000305176</ele>
        <time>2017-01-28T11:01:46.000Z</time>
      </trkpt>
      <trkpt lat="43.42276" lon="6.53541">
        <ele>247.19999694824</ele>
        <time>2017-01-28T11:01:48.000Z</time>
      </trkpt>
      <trkpt lat="43.4227" lon="6.53544">
        <ele>248</ele>
        <time>2017-01-28T11:01:51.000Z</time>
      </trkpt>
      <trkpt lat="43.42267" lon="6.53546">
        <ele>248.39999389648</ele>
        <time>2017-01-28T11:01:53.000Z</time>
      </trkpt>
      <trkpt lat="43.42255" lon="6.53547">
        <ele>249.39999389648</ele>
        <time>2017-01-28T11:01:59.000Z</time>
      </trkpt>
      <trkpt lat="43.42252" lon="6.53548">
        <ele>249.60000610352</ele>
        <time>2017-01-28T11:02:00.000Z</time>
      </trkpt>
      <trkpt lat="43.42242" lon="6.5355">
        <ele>250.60000610352</ele>
        <time>2017-01-28T11:02:05.000Z</time>
      </trkpt>
      <trkpt lat="43.42234" lon="6.53551">
        <ele>251.60000610352</ele>
        <time>2017-01-28T11:02:09.000Z</time>
      </trkpt>
      <trkpt lat="43.42213" lon="6.53545">
        <ele>252.60000610352</ele>
        <time>2017-01-28T11:02:19.000Z</time>
      </trkpt>
      <trkpt lat="43.42211" lon="6.53544">
        <ele>252.80000305176</ele>
        <time>2017-01-28T11:02:20.000Z</time>
      </trkpt>
      <trkpt lat="43.4219" lon="6.5353">
        <ele>253.80000305176</ele>
        <time>2017-01-28T11:02:30.000Z</time>
      </trkpt>
      <trkpt lat="43.42187" lon="6.53527">
        <ele>253.80000305176</ele>
        <time>2017-01-28T11:02:31.000Z</time>
      </trkpt>
      <trkpt lat="43.4217" lon="6.53513">
        <ele>253.39999389648</ele>
        <time>2017-01-28T11:02:38.000Z</time>
      </trkpt>
      <trkpt lat="43.42161" lon="6.53509">
        <ele>253.39999389648</ele>
        <time>2017-01-28T11:02:42.000Z</time>
      </trkpt>
      <trkpt lat="43.42159" lon="6.53506">
        <ele>253.39999389648</ele>
        <time>2017-01-28T11:02:43.000Z</time>
      </trkpt>
      <trkpt lat="43.42146" lon="6.53499">
        <ele>253.19999694824</ele>
        <time>2017-01-28T11:02:48.000Z</time>
      </trkpt>
      <trkpt lat="43.4213" lon="6.53497">
        <ele>253.39999389648</ele>
        <time>2017-01-28T11:02:54.000Z</time>
      </trkpt>
      <trkpt lat="43.42108" lon="6.53508">
        <ele>253.80000305176</ele>
        <time>2017-01-28T11:03:02.000Z</time>
      </trkpt>
      <trkpt lat="43.42091" lon="6.53511">
        <ele>254.39999389648</ele>
        <time>2017-01-28T11:03:08.000Z</time>
      </trkpt>
      <trkpt lat="43.42073" lon="6.53509">
        <ele>255</ele>
        <time>2017-01-28T11:03:14.000Z</time>
      </trkpt>
      <trkpt lat="43.42049" lon="6.53507">
        <ele>255.80000305176</ele>
        <time>2017-01-28T11:03:22.000Z</time>
      </trkpt>
      <trkpt lat="43.4202" lon="6.5351">
        <ele>256.20001220703</ele>
        <time>2017-01-28T11:03:31.000Z</time>
      </trkpt>
      <trkpt lat="43.42004" lon="6.53503">
        <ele>256.79998779297</ele>
        <time>2017-01-28T11:03:37.000Z</time>
      </trkpt>
      <trkpt lat="43.41993" lon="6.5349">
        <ele>257.39999389648</ele>
        <time>2017-01-28T11:03:42.000Z</time>
      </trkpt>
      <trkpt lat="43.41991" lon="6.53487">
        <ele>257.39999389648</ele>
        <time>2017-01-28T11:03:43.000Z</time>
      </trkpt>
      <trkpt lat="43.41976" lon="6.53462">
        <ele>258.39999389648</ele>
        <time>2017-01-28T11:03:51.000Z</time>
      </trkpt>
      <trkpt lat="43.41971" lon="6.53453">
        <ele>258.60000610352</ele>
        <time>2017-01-28T11:03:54.000Z</time>
      </trkpt>
      <trkpt lat="43.41964" lon="6.5344">
        <ele>259</ele>
        <time>2017-01-28T11:03:59.000Z</time>
      </trkpt>
      <trkpt lat="43.41954" lon="6.53419">
        <ele>259</ele>
        <time>2017-01-28T11:04:04.000Z</time>
      </trkpt>
      <trkpt lat="43.41945" lon="6.53402">
        <ele>258.20001220703</ele>
        <time>2017-01-28T11:04:08.000Z</time>
      </trkpt>
      <trkpt lat="43.41941" lon="6.53392">
        <ele>258</ele>
        <time>2017-01-28T11:04:10.000Z</time>
      </trkpt>
      <trkpt lat="43.41938" lon="6.53389">
        <ele>257.79998779297</ele>
        <time>2017-01-28T11:04:11.000Z</time>
      </trkpt>
      <trkpt lat="43.41929" lon="6.53381">
        <ele>257.39999389648</ele>
        <time>2017-01-28T11:04:13.000Z</time>
      </trkpt>
      <trkpt lat="43.41924" lon="6.53377">
        <ele>257</ele>
        <time>2017-01-28T11:04:14.000Z</time>
      </trkpt>
      <trkpt lat="43.41913" lon="6.53369">
        <ele>255.60000610352</ele>
        <time>2017-01-28T11:04:16.000Z</time>
      </trkpt>
      <trkpt lat="43.41903" lon="6.53362">
        <ele>254.39999389648</ele>
        <time>2017-01-28T11:04:18.000Z</time>
      </trkpt>
      <trkpt lat="43.41893" lon="6.53354">
        <ele>253.80000305176</ele>
        <time>2017-01-28T11:04:20.000Z</time>
      </trkpt>
      <trkpt lat="43.41888" lon="6.53349">
        <ele>253.60000610352</ele>
        <time>2017-01-28T11:04:21.000Z</time>
      </trkpt>
      <trkpt lat="43.41883" lon="6.53344">
        <ele>253.39999389648</ele>
        <time>2017-01-28T11:04:22.000Z</time>
      </trkpt>
      <trkpt lat="43.41873" lon="6.53334">
        <ele>252.60000610352</ele>
        <time>2017-01-28T11:04:24.000Z</time>
      </trkpt>
      <trkpt lat="43.41869" lon="6.53328">
        <ele>252.39999389648</ele>
        <time>2017-01-28T11:04:25.000Z</time>
      </trkpt>
      <trkpt lat="43.41865" lon="6.53322">
        <ele>251.80000305176</ele>
        <time>2017-01-28T11:04:26.000Z</time>
      </trkpt>
      <trkpt lat="43.41861" lon="6.53317">
        <ele>251.19999694824</ele>
        <time>2017-01-28T11:04:27.000Z</time>
      </trkpt>
      <trkpt lat="43.41852" lon="6.53309">
        <ele>250.60000610352</ele>
        <time>2017-01-28T11:04:29.000Z</time>
      </trkpt>
      <trkpt lat="43.41847" lon="6.53305">
        <ele>250.39999389648</ele>
        <time>2017-01-28T11:04:30.000Z</time>
      </trkpt>
      <trkpt lat="43.41843" lon="6.53304">
        <ele>250.19999694824</ele>
        <time>2017-01-28T11:04:31.000Z</time>
      </trkpt>
      <trkpt lat="43.41829" lon="6.53301">
        <ele>250</ele>
        <time>2017-01-28T11:04:34.000Z</time>
      </trkpt>
      <trkpt lat="43.41799" lon="6.53299">
        <ele>252</ele>
        <time>2017-01-28T11:04:42.000Z</time>
      </trkpt>
      <trkpt lat="43.41785" lon="6.53295">
        <ele>253.19999694824</ele>
        <time>2017-01-28T11:04:46.000Z</time>
      </trkpt>
      <trkpt lat="43.41771" lon="6.53291">
        <ele>254</ele>
        <time>2017-01-28T11:04:50.000Z</time>
      </trkpt>
      <trkpt lat="43.41768" lon="6.53292">
        <ele>254.39999389648</ele>
        <time>2017-01-28T11:04:51.000Z</time>
      </trkpt>
      <trkpt lat="43.41752" lon="6.53289">
        <ele>254.80000305176</ele>
        <time>2017-01-28T11:04:56.000Z</time>
      </trkpt>
      <trkpt lat="43.41737" lon="6.53283">
        <ele>254.80000305176</ele>
        <time>2017-01-28T11:05:01.000Z</time>
      </trkpt>
      <trkpt lat="43.41722" lon="6.53279">
        <ele>254.60000610352</ele>
        <time>2017-01-28T11:05:06.000Z</time>
      </trkpt>
      <trkpt lat="43.41699" lon="6.53271">
        <ele>255</ele>
        <time>2017-01-28T11:05:13.000Z</time>
      </trkpt>
      <trkpt lat="43.4169" lon="6.53267">
        <ele>255.60000610352</ele>
        <time>2017-01-28T11:05:16.000Z</time>
      </trkpt>
      <trkpt lat="43.41677" lon="6.53266">
        <ele>256</ele>
        <time>2017-01-28T11:05:20.000Z</time>
      </trkpt>
      <trkpt lat="43.41659" lon="6.53266">
        <ele>256.60000610352</ele>
        <time>2017-01-28T11:05:26.000Z</time>
      </trkpt>
      <trkpt lat="43.41646" lon="6.5327">
        <ele>257.60000610352</ele>
        <time>2017-01-28T11:05:31.000Z</time>
      </trkpt>
      <trkpt lat="43.41644" lon="6.5327">
        <ele>257.79998779297</ele>
        <time>2017-01-28T11:05:32.000Z</time>
      </trkpt>
      <trkpt lat="43.41629" lon="6.53275">
        <ele>258.60000610352</ele>
        <time>2017-01-28T11:05:38.000Z</time>
      </trkpt>
      <trkpt lat="43.41625" lon="6.53277">
        <ele>258.79998779297</ele>
        <time>2017-01-28T11:05:40.000Z</time>
      </trkpt>
      <trkpt lat="43.41617" lon="6.53283">
        <ele>260</ele>
        <time>2017-01-28T11:05:44.000Z</time>
      </trkpt>
      <trkpt lat="43.41604" lon="6.53293">
        <ele>261</ele>
        <time>2017-01-28T11:05:50.000Z</time>
      </trkpt>
      <trkpt lat="43.41602" lon="6.53294">
        <ele>261.20001220703</ele>
        <time>2017-01-28T11:05:51.000Z</time>
      </trkpt>
      <trkpt lat="43.41593" lon="6.53302">
        <ele>262.20001220703</ele>
        <time>2017-01-28T11:05:57.000Z</time>
      </trkpt>
      <trkpt lat="43.41588" lon="6.53305">
        <ele>263</ele>
        <time>2017-01-28T11:06:03.000Z</time>
      </trkpt>
      <trkpt lat="43.41588" lon="6.53304">
        <ele>263.20001220703</ele>
        <time>2017-01-28T11:06:05.000Z</time>
      </trkpt>
      <trkpt lat="43.41587" lon="6.53305">
        <ele>263</ele>
        <time>2017-01-28T11:06:15.000Z</time>
      </trkpt>
      <trkpt lat="43.41586" lon="6.53306">
        <ele>263</ele>
        <time>2017-01-28T11:06:19.000Z</time>
      </trkpt>
      <trkpt lat="43.41584" lon="6.53308">
        <ele>263.20001220703</ele>
        <time>2017-01-28T11:06:22.000Z</time>
      </trkpt>
      <trkpt lat="43.41576" lon="6.53317">
        <ele>263.60000610352</ele>
        <time>2017-01-28T11:06:29.000Z</time>
      </trkpt>
      <trkpt lat="43.41573" lon="6.53322">
        <ele>264.20001220703</ele>
        <time>2017-01-28T11:06:32.000Z</time>
      </trkpt>
      <trkpt lat="43.41569" lon="6.5333">
        <ele>265.20001220703</ele>
        <time>2017-01-28T11:06:36.000Z</time>
      </trkpt>
      <trkpt lat="43.41567" lon="6.53332">
        <ele>265.60000610352</ele>
        <time>2017-01-28T11:06:37.000Z</time>
      </trkpt>
      <trkpt lat="43.41564" lon="6.53338">
        <ele>266.60000610352</ele>
        <time>2017-01-28T11:06:40.000Z</time>
      </trkpt>
      <trkpt lat="43.4156" lon="6.53343">
        <ele>268</ele>
        <time>2017-01-28T11:06:43.000Z</time>
      </trkpt>
      <trkpt lat="43.41557" lon="6.53349">
        <ele>269.20001220703</ele>
        <time>2017-01-28T11:06:46.000Z</time>
      </trkpt>
      <trkpt lat="43.41554" lon="6.53354">
        <ele>270.39999389648</ele>
        <time>2017-01-28T11:06:49.000Z</time>
      </trkpt>
      <trkpt lat="43.41553" lon="6.53355">
        <ele>270.60000610352</ele>
        <time>2017-01-28T11:06:50.000Z</time>
      </trkpt>
      <trkpt lat="43.41552" lon="6.53359">
        <ele>271.39999389648</ele>
        <time>2017-01-28T11:06:52.000Z</time>
      </trkpt>
      <trkpt lat="43.41549" lon="6.53365">
        <ele>272.60000610352</ele>
        <time>2017-01-28T11:06:56.000Z</time>
      </trkpt>
      <trkpt lat="43.41548" lon="6.53367">
        <ele>272.79998779297</ele>
        <time>2017-01-28T11:06:57.000Z</time>
      </trkpt>
      <trkpt lat="43.41542" lon="6.53379">
        <ele>273.60000610352</ele>
        <time>2017-01-28T11:07:04.000Z</time>
      </trkpt>
      <trkpt lat="43.41542" lon="6.5338">
        <ele>273.60000610352</ele>
        <time>2017-01-28T11:07:05.000Z</time>
      </trkpt>
      <trkpt lat="43.41534" lon="6.53394">
        <ele>273.20001220703</ele>
        <time>2017-01-28T11:07:10.000Z</time>
      </trkpt>
      <trkpt lat="43.41521" lon="6.53414">
        <ele>272.39999389648</ele>
        <time>2017-01-28T11:07:14.000Z</time>
      </trkpt>
      <trkpt lat="43.41517" lon="6.53418">
        <ele>271.79998779297</ele>
        <time>2017-01-28T11:07:15.000Z</time>
      </trkpt>
      <trkpt lat="43.4151" lon="6.53429">
        <ele>270.79998779297</ele>
        <time>2017-01-28T11:07:17.000Z</time>
      </trkpt>
      <trkpt lat="43.41503" lon="6.53442">
        <ele>269.79998779297</ele>
        <time>2017-01-28T11:07:19.000Z</time>
      </trkpt>
      <trkpt lat="43.41491" lon="6.53465">
        <ele>269.39999389648</ele>
        <time>2017-01-28T11:07:24.000Z</time>
      </trkpt>
      <trkpt lat="43.41475" lon="6.53487">
        <ele>270.39999389648</ele>
        <time>2017-01-28T11:07:30.000Z</time>
      </trkpt>
      <trkpt lat="43.41473" lon="6.5349">
        <ele>270.79998779297</ele>
        <time>2017-01-28T11:07:31.000Z</time>
      </trkpt>
      <trkpt lat="43.41467" lon="6.53498">
        <ele>271.79998779297</ele>
        <time>2017-01-28T11:07:34.000Z</time>
      </trkpt>
      <trkpt lat="43.41463" lon="6.53503">
        <ele>272.60000610352</ele>
        <time>2017-01-28T11:07:36.000Z</time>
      </trkpt>
      <trkpt lat="43.4146" lon="6.53508">
        <ele>273.20001220703</ele>
        <time>2017-01-28T11:07:38.000Z</time>
      </trkpt>
      <trkpt lat="43.41453" lon="6.53518">
        <ele>274.20001220703</ele>
        <time>2017-01-28T11:07:42.000Z</time>
      </trkpt>
      <trkpt lat="43.41446" lon="6.5353">
        <ele>275.20001220703</ele>
        <time>2017-01-28T11:07:48.000Z</time>
      </trkpt>
      <trkpt lat="43.41441" lon="6.53545">
        <ele>274.39999389648</ele>
        <time>2017-01-28T11:07:55.000Z</time>
      </trkpt>
      <trkpt lat="43.41438" lon="6.53555">
        <ele>274.20001220703</ele>
        <time>2017-01-28T11:07:57.000Z</time>
      </trkpt>
      <trkpt lat="43.41432" lon="6.53565">
        <ele>273.39999389648</ele>
        <time>2017-01-28T11:07:59.000Z</time>
      </trkpt>
      <trkpt lat="43.41428" lon="6.53571">
        <ele>272.79998779297</ele>
        <time>2017-01-28T11:08:00.000Z</time>
      </trkpt>
      <trkpt lat="43.41424" lon="6.53578">
        <ele>272.39999389648</ele>
        <time>2017-01-28T11:08:01.000Z</time>
      </trkpt>
      <trkpt lat="43.41418" lon="6.53584">
        <ele>271.79998779297</ele>
        <time>2017-01-28T11:08:02.000Z</time>
      </trkpt>
      <trkpt lat="43.41412" lon="6.53589">
        <ele>271.39999389648</ele>
        <time>2017-01-28T11:08:03.000Z</time>
      </trkpt>
      <trkpt lat="43.41406" lon="6.53593">
        <ele>270.39999389648</ele>
        <time>2017-01-28T11:08:04.000Z</time>
      </trkpt>
      <trkpt lat="43.41395" lon="6.53603">
        <ele>268.79998779297</ele>
        <time>2017-01-28T11:08:06.000Z</time>
      </trkpt>
      <trkpt lat="43.4139" lon="6.53609">
        <ele>267.60000610352</ele>
        <time>2017-01-28T11:08:07.000Z</time>
      </trkpt>
      <trkpt lat="43.41385" lon="6.53616">
        <ele>266.20001220703</ele>
        <time>2017-01-28T11:08:08.000Z</time>
      </trkpt>
      <trkpt lat="43.4138" lon="6.53621">
        <ele>264.39999389648</ele>
        <time>2017-01-28T11:08:09.000Z</time>
      </trkpt>
      <trkpt lat="43.4137" lon="6.53629">
        <ele>263</ele>
        <time>2017-01-28T11:08:11.000Z</time>
      </trkpt>
      <trkpt lat="43.41365" lon="6.53631">
        <ele>262</ele>
        <time>2017-01-28T11:08:12.000Z</time>
      </trkpt>
      <trkpt lat="43.4135" lon="6.53636">
        <ele>262.20001220703</ele>
        <time>2017-01-28T11:08:15.000Z</time>
      </trkpt>
      <trkpt lat="43.41337" lon="6.53639">
        <ele>263.20001220703</ele>
        <time>2017-01-28T11:08:18.000Z</time>
      </trkpt>
      <trkpt lat="43.41319" lon="6.53643">
        <ele>263.79998779297</ele>
        <time>2017-01-28T11:08:22.000Z</time>
      </trkpt>
      <trkpt lat="43.41305" lon="6.53646">
        <ele>264.39999389648</ele>
        <time>2017-01-28T11:08:26.000Z</time>
      </trkpt>
      <trkpt lat="43.41299" lon="6.53646">
        <ele>265</ele>
        <time>2017-01-28T11:08:28.000Z</time>
      </trkpt>
      <trkpt lat="43.41294" lon="6.53646">
        <ele>265.39999389648</ele>
        <time>2017-01-28T11:08:30.000Z</time>
      </trkpt>
      <trkpt lat="43.41286" lon="6.53646">
        <ele>266.79998779297</ele>
        <time>2017-01-28T11:08:33.000Z</time>
      </trkpt>
      <trkpt lat="43.41281" lon="6.53646">
        <ele>267.20001220703</ele>
        <time>2017-01-28T11:08:35.000Z</time>
      </trkpt>
      <trkpt lat="43.41274" lon="6.53647">
        <ele>267.79998779297</ele>
        <time>2017-01-28T11:08:38.000Z</time>
      </trkpt>
      <trkpt lat="43.41264" lon="6.5365">
        <ele>268</ele>
        <time>2017-01-28T11:08:42.000Z</time>
      </trkpt>
      <trkpt lat="43.41252" lon="6.53652">
        <ele>268.39999389648</ele>
        <time>2017-01-28T11:08:47.000Z</time>
      </trkpt>
      <trkpt lat="43.41247" lon="6.53653">
        <ele>269</ele>
        <time>2017-01-28T11:08:49.000Z</time>
      </trkpt>
      <trkpt lat="43.41236" lon="6.53655">
        <ele>270</ele>
        <time>2017-01-28T11:08:54.000Z</time>
      </trkpt>
      <trkpt lat="43.41233" lon="6.53656">
        <ele>270.20001220703</ele>
        <time>2017-01-28T11:08:55.000Z</time>
      </trkpt>
      <trkpt lat="43.41207" lon="6.53662">
        <ele>270.39999389648</ele>
        <time>2017-01-28T11:09:04.000Z</time>
      </trkpt>
      <trkpt lat="43.41191" lon="6.53667">
        <ele>270.60000610352</ele>
        <time>2017-01-28T11:09:11.000Z</time>
      </trkpt>
      <trkpt lat="43.41187" lon="6.53669">
        <ele>271.20001220703</ele>
        <time>2017-01-28T11:09:13.000Z</time>
      </trkpt>
      <trkpt lat="43.41177" lon="6.53673">
        <ele>272.20001220703</ele>
        <time>2017-01-28T11:09:18.000Z</time>
      </trkpt>
      <trkpt lat="43.41172" lon="6.53675">
        <ele>273.39999389648</ele>
        <time>2017-01-28T11:09:21.000Z</time>
      </trkpt>
      <trkpt lat="43.41168" lon="6.53676">
        <ele>274.79998779297</ele>
        <time>2017-01-28T11:09:24.000Z</time>
      </trkpt>
      <trkpt lat="43.4116" lon="6.53677">
        <ele>275.79998779297</ele>
        <time>2017-01-28T11:09:29.000Z</time>
      </trkpt>
      <trkpt lat="43.41159" lon="6.53678">
        <ele>276.20001220703</ele>
        <time>2017-01-28T11:09:30.000Z</time>
      </trkpt>
      <trkpt lat="43.41155" lon="6.53679">
        <ele>276.79998779297</ele>
        <time>2017-01-28T11:09:33.000Z</time>
      </trkpt>
      <trkpt lat="43.41149" lon="6.5368">
        <ele>278</ele>
        <time>2017-01-28T11:09:37.000Z</time>
      </trkpt>
      <trkpt lat="43.41144" lon="6.53681">
        <ele>279</ele>
        <time>2017-01-28T11:09:41.000Z</time>
      </trkpt>
      <trkpt lat="43.41139" lon="6.53681">
        <ele>280.20001220703</ele>
        <time>2017-01-28T11:09:45.000Z</time>
      </trkpt>
      <trkpt lat="43.41138" lon="6.53681">
        <ele>280.60000610352</ele>
        <time>2017-01-28T11:09:46.000Z</time>
      </trkpt>
      <trkpt lat="43.41133" lon="6.53682">
        <ele>281.60000610352</ele>
        <time>2017-01-28T11:09:50.000Z</time>
      </trkpt>
      <trkpt lat="43.4113" lon="6.53682">
        <ele>282</ele>
        <time>2017-01-28T11:09:52.000Z</time>
      </trkpt>
      <trkpt lat="43.41128" lon="6.53682">
        <ele>282.79998779297</ele>
        <time>2017-01-28T11:09:54.000Z</time>
      </trkpt>
      <trkpt lat="43.41123" lon="6.53682">
        <ele>283.60000610352</ele>
        <time>2017-01-28T11:09:57.000Z</time>
      </trkpt>
      <trkpt lat="43.41122" lon="6.53682">
        <ele>283.79998779297</ele>
        <time>2017-01-28T11:09:58.000Z</time>
      </trkpt>
      <trkpt lat="43.41116" lon="6.53683">
        <ele>284.79998779297</ele>
        <time>2017-01-28T11:10:03.000Z</time>
      </trkpt>
      <trkpt lat="43.41112" lon="6.53683">
        <ele>286.39999389648</ele>
        <time>2017-01-28T11:10:06.000Z</time>
      </trkpt>
      <trkpt lat="43.41105" lon="6.53685">
        <ele>287.39999389648</ele>
        <time>2017-01-28T11:10:12.000Z</time>
      </trkpt>
      <trkpt lat="43.41104" lon="6.53685">
        <ele>287.60000610352</ele>
        <time>2017-01-28T11:10:13.000Z</time>
      </trkpt>
      <trkpt lat="43.41099" lon="6.53685">
        <ele>288.39999389648</ele>
        <time>2017-01-28T11:10:17.000Z</time>
      </trkpt>
      <trkpt lat="43.41096" lon="6.53685">
        <ele>288.79998779297</ele>
        <time>2017-01-28T11:10:20.000Z</time>
      </trkpt>
      <trkpt lat="43.41091" lon="6.53686">
        <ele>289.39999389648</ele>
        <time>2017-01-28T11:10:25.000Z</time>
      </trkpt>
      <trkpt lat="43.41089" lon="6.53685">
        <ele>289.60000610352</ele>
        <time>2017-01-28T11:10:26.000Z</time>
      </trkpt>
      <trkpt lat="43.41081" lon="6.53685">
        <ele>290.39999389648</ele>
        <time>2017-01-28T11:10:32.000Z</time>
      </trkpt>
      <trkpt lat="43.41063" lon="6.53694">
        <ele>290.39999389648</ele>
        <time>2017-01-28T11:10:42.000Z</time>
      </trkpt>
      <trkpt lat="43.41061" lon="6.53694">
        <ele>290.79998779297</ele>
        <time>2017-01-28T11:10:43.000Z</time>
      </trkpt>
      <trkpt lat="43.41056" lon="6.53698">
        <ele>291.60000610352</ele>
        <time>2017-01-28T11:10:47.000Z</time>
      </trkpt>
      <trkpt lat="43.41053" lon="6.53701">
        <ele>291.79998779297</ele>
        <time>2017-01-28T11:10:49.000Z</time>
      </trkpt>
      <trkpt lat="43.41045" lon="6.53707">
        <ele>292.60000610352</ele>
        <time>2017-01-28T11:10:54.000Z</time>
      </trkpt>
      <trkpt lat="43.41038" lon="6.53712">
        <ele>292.79998779297</ele>
        <time>2017-01-28T11:10:58.000Z</time>
      </trkpt>
      <trkpt lat="43.4103" lon="6.53719">
        <ele>293.79998779297</ele>
        <time>2017-01-28T11:11:03.000Z</time>
      </trkpt>
      <trkpt lat="43.41025" lon="6.53724">
        <ele>294.20001220703</ele>
        <time>2017-01-28T11:11:06.000Z</time>
      </trkpt>
      <trkpt lat="43.41014" lon="6.53731">
        <ele>295</ele>
        <time>2017-01-28T11:11:13.000Z</time>
      </trkpt>
      <trkpt lat="43.41013" lon="6.53732">
        <ele>295.20001220703</ele>
        <time>2017-01-28T11:11:14.000Z</time>
      </trkpt>
      <trkpt lat="43.41004" lon="6.53737">
        <ele>296</ele>
        <time>2017-01-28T11:11:20.000Z</time>
      </trkpt>
      <trkpt lat="43.40998" lon="6.53741">
        <ele>297.20001220703</ele>
        <time>2017-01-28T11:11:24.000Z</time>
      </trkpt>
      <trkpt lat="43.40995" lon="6.53743">
        <ele>297.60000610352</ele>
        <time>2017-01-28T11:11:26.000Z</time>
      </trkpt>
      <trkpt lat="43.40986" lon="6.53749">
        <ele>298.39999389648</ele>
        <time>2017-01-28T11:11:31.000Z</time>
      </trkpt>
      <trkpt lat="43.40983" lon="6.53751">
        <ele>299</ele>
        <time>2017-01-28T11:11:33.000Z</time>
      </trkpt>
      <trkpt lat="43.40982" lon="6.53752">
        <ele>299.60000610352</ele>
        <time>2017-01-28T11:11:34.000Z</time>
      </trkpt>
      <trkpt lat="43.40978" lon="6.53754">
        <ele>300.60000610352</ele>
        <time>2017-01-28T11:11:37.000Z</time>
      </trkpt>
      <trkpt lat="43.40971" lon="6.53757">
        <ele>301.79998779297</ele>
        <time>2017-01-28T11:11:42.000Z</time>
      </trkpt>
      <trkpt lat="43.40957" lon="6.53759">
        <ele>302.60000610352</ele>
        <time>2017-01-28T11:11:50.000Z</time>
      </trkpt>
      <trkpt lat="43.40955" lon="6.53758">
        <ele>303</ele>
        <time>2017-01-28T11:11:51.000Z</time>
      </trkpt>
      <trkpt lat="43.40946" lon="6.53754">
        <ele>303.39999389648</ele>
        <time>2017-01-28T11:11:56.000Z</time>
      </trkpt>
      <trkpt lat="43.40928" lon="6.53742">
        <ele>303.20001220703</ele>
        <time>2017-01-28T11:12:01.000Z</time>
      </trkpt>
      <trkpt lat="43.40906" lon="6.53727">
        <ele>301.79998779297</ele>
        <time>2017-01-28T11:12:05.000Z</time>
      </trkpt>
      <trkpt lat="43.40896" lon="6.5372">
        <ele>300.79998779297</ele>
        <time>2017-01-28T11:12:07.000Z</time>
      </trkpt>
      <trkpt lat="43.40876" lon="6.53707">
        <ele>300.20001220703</ele>
        <time>2017-01-28T11:12:12.000Z</time>
      </trkpt>
      <trkpt lat="43.40857" lon="6.53697">
        <ele>300.79998779297</ele>
        <time>2017-01-28T11:12:19.000Z</time>
      </trkpt>
      <trkpt lat="43.40846" lon="6.53692">
        <ele>302</ele>
        <time>2017-01-28T11:12:24.000Z</time>
      </trkpt>
      <trkpt lat="43.40842" lon="6.5369">
        <ele>302.39999389648</ele>
        <time>2017-01-28T11:12:26.000Z</time>
      </trkpt>
      <trkpt lat="43.40839" lon="6.53688">
        <ele>303</ele>
        <time>2017-01-28T11:12:28.000Z</time>
      </trkpt>
      <trkpt lat="43.4083" lon="6.53684">
        <ele>304</ele>
        <time>2017-01-28T11:12:33.000Z</time>
      </trkpt>
      <trkpt lat="43.40829" lon="6.53683">
        <ele>304.20001220703</ele>
        <time>2017-01-28T11:12:34.000Z</time>
      </trkpt>
      <trkpt lat="43.40822" lon="6.53681">
        <ele>305</ele>
        <time>2017-01-28T11:12:38.000Z</time>
      </trkpt>
      <trkpt lat="43.40816" lon="6.53678">
        <ele>306.39999389648</ele>
        <time>2017-01-28T11:12:42.000Z</time>
      </trkpt>
      <trkpt lat="43.40812" lon="6.53676">
        <ele>307.39999389648</ele>
        <time>2017-01-28T11:12:45.000Z</time>
      </trkpt>
      <trkpt lat="43.40807" lon="6.53673">
        <ele>308.60000610352</ele>
        <time>2017-01-28T11:12:48.000Z</time>
      </trkpt>
      <trkpt lat="43.40806" lon="6.53673">
        <ele>308.79998779297</ele>
        <time>2017-01-28T11:12:49.000Z</time>
      </trkpt>
      <trkpt lat="43.40803" lon="6.53671">
        <ele>309.79998779297</ele>
        <time>2017-01-28T11:12:52.000Z</time>
      </trkpt>
      <trkpt lat="43.40799" lon="6.53669">
        <ele>311</ele>
        <time>2017-01-28T11:12:56.000Z</time>
      </trkpt>
      <trkpt lat="43.40795" lon="6.53668">
        <ele>312</ele>
        <time>2017-01-28T11:13:00.000Z</time>
      </trkpt>
      <trkpt lat="43.40791" lon="6.53668">
        <ele>312.79998779297</ele>
        <time>2017-01-28T11:13:03.000Z</time>
      </trkpt>
      <trkpt lat="43.40789" lon="6.53667">
        <ele>313.20001220703</ele>
        <time>2017-01-28T11:13:05.000Z</time>
      </trkpt>
      <trkpt lat="43.40784" lon="6.53666">
        <ele>314.39999389648</ele>
        <time>2017-01-28T11:13:10.000Z</time>
      </trkpt>
      <trkpt lat="43.40779" lon="6.53666">
        <ele>315.20001220703</ele>
        <time>2017-01-28T11:13:15.000Z</time>
      </trkpt>
      <trkpt lat="43.40777" lon="6.53666">
        <ele>315.39999389648</ele>
        <time>2017-01-28T11:13:16.000Z</time>
      </trkpt>
      <trkpt lat="43.40771" lon="6.53666">
        <ele>316</ele>
        <time>2017-01-28T11:13:22.000Z</time>
      </trkpt>
      <trkpt lat="43.40767" lon="6.53666">
        <ele>316.39999389648</ele>
        <time>2017-01-28T11:13:25.000Z</time>
      </trkpt>
      <trkpt lat="43.40763" lon="6.53665">
        <ele>316.79998779297</ele>
        <time>2017-01-28T11:13:29.000Z</time>
      </trkpt>
      <trkpt lat="43.4076" lon="6.53664">
        <ele>317.60000610352</ele>
        <time>2017-01-28T11:13:32.000Z</time>
      </trkpt>
      <trkpt lat="43.40756" lon="6.53664">
        <ele>318</ele>
        <time>2017-01-28T11:13:35.000Z</time>
      </trkpt>
      <trkpt lat="43.40751" lon="6.53664">
        <ele>318.60000610352</ele>
        <time>2017-01-28T11:13:38.000Z</time>
      </trkpt>
      <trkpt lat="43.40747" lon="6.53665">
        <ele>320</ele>
        <time>2017-01-28T11:13:42.000Z</time>
      </trkpt>
      <trkpt lat="43.40744" lon="6.53666">
        <ele>320.39999389648</ele>
        <time>2017-01-28T11:13:45.000Z</time>
      </trkpt>
      <trkpt lat="43.40744" lon="6.53666">
        <ele>320.60000610352</ele>
        <time>2017-01-28T11:13:46.000Z</time>
      </trkpt>
      <trkpt lat="43.40742" lon="6.53667">
        <ele>321</ele>
        <time>2017-01-28T11:13:48.000Z</time>
      </trkpt>
      <trkpt lat="43.40739" lon="6.53667">
        <ele>321.79998779297</ele>
        <time>2017-01-28T11:13:51.000Z</time>
      </trkpt>
      <trkpt lat="43.40738" lon="6.53668">
        <ele>322.20001220703</ele>
        <time>2017-01-28T11:13:52.000Z</time>
      </trkpt>
      <trkpt lat="43.40731" lon="6.53669">
        <ele>323.20001220703</ele>
        <time>2017-01-28T11:13:58.000Z</time>
      </trkpt>
      <trkpt lat="43.4073" lon="6.53669">
        <ele>323.20001220703</ele>
        <time>2017-01-28T11:13:59.000Z</time>
      </trkpt>
      <trkpt lat="43.40722" lon="6.53672">
        <ele>324</ele>
        <time>2017-01-28T11:14:06.000Z</time>
      </trkpt>
      <trkpt lat="43.4072" lon="6.53673">
        <ele>324.20001220703</ele>
        <time>2017-01-28T11:14:08.000Z</time>
      </trkpt>
      <trkpt lat="43.4071" lon="6.53676">
        <ele>325</ele>
        <time>2017-01-28T11:14:15.000Z</time>
      </trkpt>
      <trkpt lat="43.40696" lon="6.5368">
        <ele>325.20001220703</ele>
        <time>2017-01-28T11:14:23.000Z</time>
      </trkpt>
      <trkpt lat="43.4068" lon="6.53684">
        <ele>324.60000610352</ele>
        <time>2017-01-28T11:14:28.000Z</time>
      </trkpt>
      <trkpt lat="43.40668" lon="6.53687">
        <ele>325</ele>
        <time>2017-01-28T11:14:34.000Z</time>
      </trkpt>
      <trkpt lat="43.40664" lon="6.53687">
        <ele>325.20001220703</ele>
        <time>2017-01-28T11:14:36.000Z</time>
      </trkpt>
      <trkpt lat="43.40658" lon="6.53688">
        <ele>326.20001220703</ele>
        <time>2017-01-28T11:14:41.000Z</time>
      </trkpt>
      <trkpt lat="43.40656" lon="6.53688">
        <ele>326.39999389648</ele>
        <time>2017-01-28T11:14:42.000Z</time>
      </trkpt>
      <trkpt lat="43.40649" lon="6.53689">
        <ele>327.39999389648</ele>
        <time>2017-01-28T11:14:48.000Z</time>
      </trkpt>
      <trkpt lat="43.4064" lon="6.53689">
        <ele>328.20001220703</ele>
        <time>2017-01-28T11:14:55.000Z</time>
      </trkpt>
      <trkpt lat="43.40638" lon="6.53689">
        <ele>328.39999389648</ele>
        <time>2017-01-28T11:14:56.000Z</time>
      </trkpt>
      <trkpt lat="43.40632" lon="6.53689">
        <ele>329.60000610352</ele>
        <time>2017-01-28T11:15:01.000Z</time>
      </trkpt>
      <trkpt lat="43.4063" lon="6.53689">
        <ele>329.79998779297</ele>
        <time>2017-01-28T11:15:02.000Z</time>
      </trkpt>
      <trkpt lat="43.40624" lon="6.53689">
        <ele>330.79998779297</ele>
        <time>2017-01-28T11:15:07.000Z</time>
      </trkpt>
      <trkpt lat="43.4062" lon="6.53689">
        <ele>331.79998779297</ele>
        <time>2017-01-28T11:15:10.000Z</time>
      </trkpt>
      <trkpt lat="43.40619" lon="6.53689">
        <ele>332.20001220703</ele>
        <time>2017-01-28T11:15:11.000Z</time>
      </trkpt>
      <trkpt lat="43.40615" lon="6.53689">
        <ele>333.20001220703</ele>
        <time>2017-01-28T11:15:14.000Z</time>
      </trkpt>
      <trkpt lat="43.40611" lon="6.53689">
        <ele>334</ele>
        <time>2017-01-28T11:15:17.000Z</time>
      </trkpt>
      <trkpt lat="43.4061" lon="6.53688">
        <ele>334.39999389648</ele>
        <time>2017-01-28T11:15:18.000Z</time>
      </trkpt>
      <trkpt lat="43.40605" lon="6.53688">
        <ele>335.39999389648</ele>
        <time>2017-01-28T11:15:23.000Z</time>
      </trkpt>
      <trkpt lat="43.40601" lon="6.53688">
        <ele>336.60000610352</ele>
        <time>2017-01-28T11:15:26.000Z</time>
      </trkpt>
      <trkpt lat="43.40599" lon="6.53688">
        <ele>337.20001220703</ele>
        <time>2017-01-28T11:15:29.000Z</time>
      </trkpt>
      <trkpt lat="43.40596" lon="6.53688">
        <ele>338</ele>
        <time>2017-01-28T11:15:32.000Z</time>
      </trkpt>
      <trkpt lat="43.40593" lon="6.53689">
        <ele>339.20001220703</ele>
        <time>2017-01-28T11:15:36.000Z</time>
      </trkpt>
      <trkpt lat="43.40593" lon="6.53689">
        <ele>339.39999389648</ele>
        <time>2017-01-28T11:15:37.000Z</time>
      </trkpt>
      <trkpt lat="43.40589" lon="6.5369">
        <ele>340</ele>
        <time>2017-01-28T11:15:45.000Z</time>
      </trkpt>
      <trkpt lat="43.40589" lon="6.5369">
        <ele>340.39999389648</ele>
        <time>2017-01-28T11:15:46.000Z</time>
      </trkpt>
      <trkpt lat="43.40583" lon="6.53689">
        <ele>341.20001220703</ele>
        <time>2017-01-28T11:15:54.000Z</time>
      </trkpt>
      <trkpt lat="43.40582" lon="6.53689">
        <ele>341.39999389648</ele>
        <time>2017-01-28T11:15:55.000Z</time>
      </trkpt>
      <trkpt lat="43.40579" lon="6.53689">
        <ele>342.79998779297</ele>
        <time>2017-01-28T11:16:00.000Z</time>
      </trkpt>
      <trkpt lat="43.40577" lon="6.53688">
        <ele>343.60000610352</ele>
        <time>2017-01-28T11:16:02.000Z</time>
      </trkpt>
      <trkpt lat="43.40573" lon="6.53688">
        <ele>343.79998779297</ele>
        <time>2017-01-28T11:16:08.000Z</time>
      </trkpt>
      <trkpt lat="43.40572" lon="6.53688">
        <ele>344.60000610352</ele>
        <time>2017-01-28T11:16:11.000Z</time>
      </trkpt>
      <trkpt lat="43.4057" lon="6.53688">
        <ele>345</ele>
        <time>2017-01-28T11:16:13.000Z</time>
      </trkpt>
      <trkpt lat="43.40567" lon="6.53688">
        <ele>345.20001220703</ele>
        <time>2017-01-28T11:16:18.000Z</time>
      </trkpt>
      <trkpt lat="43.40565" lon="6.53688">
        <ele>346.20001220703</ele>
        <time>2017-01-28T11:16:22.000Z</time>
      </trkpt>
      <trkpt lat="43.40562" lon="6.53689">
        <ele>347</ele>
        <time>2017-01-28T11:16:26.000Z</time>
      </trkpt>
      <trkpt lat="43.4056" lon="6.53689">
        <ele>347.39999389648</ele>
        <time>2017-01-28T11:16:29.000Z</time>
      </trkpt>
      <trkpt lat="43.40556" lon="6.53689">
        <ele>348</ele>
        <time>2017-01-28T11:16:34.000Z</time>
      </trkpt>
      <trkpt lat="43.40555" lon="6.53688">
        <ele>348.39999389648</ele>
        <time>2017-01-28T11:16:36.000Z</time>
      </trkpt>
      <trkpt lat="43.40551" lon="6.53688">
        <ele>349.60000610352</ele>
        <time>2017-01-28T11:16:42.000Z</time>
      </trkpt>
      <trkpt lat="43.40549" lon="6.53688">
        <ele>350</ele>
        <time>2017-01-28T11:16:45.000Z</time>
      </trkpt>
      <trkpt lat="43.40547" lon="6.53689">
        <ele>350.60000610352</ele>
        <time>2017-01-28T11:16:48.000Z</time>
      </trkpt>
      <trkpt lat="43.40544" lon="6.53689">
        <ele>351.79998779297</ele>
        <time>2017-01-28T11:16:53.000Z</time>
      </trkpt>
      <trkpt lat="43.40543" lon="6.53689">
        <ele>352</ele>
        <time>2017-01-28T11:16:54.000Z</time>
      </trkpt>
      <trkpt lat="43.40536" lon="6.5369">
        <ele>352.79998779297</ele>
        <time>2017-01-28T11:17:02.000Z</time>
      </trkpt>
      <trkpt lat="43.40534" lon="6.53691">
        <ele>353.39999389648</ele>
        <time>2017-01-28T11:17:05.000Z</time>
      </trkpt>
      <trkpt lat="43.40532" lon="6.53691">
        <ele>353.79998779297</ele>
        <time>2017-01-28T11:17:07.000Z</time>
      </trkpt>
      <trkpt lat="43.40528" lon="6.53693">
        <ele>355</ele>
        <time>2017-01-28T11:17:15.000Z</time>
      </trkpt>
      <trkpt lat="43.40526" lon="6.53693">
        <ele>355.20001220703</ele>
        <time>2017-01-28T11:17:16.000Z</time>
      </trkpt>
      <trkpt lat="43.40523" lon="6.53695">
        <ele>356.39999389648</ele>
        <time>2017-01-28T11:17:21.000Z</time>
      </trkpt>
      <trkpt lat="43.40521" lon="6.53697">
        <ele>357.39999389648</ele>
        <time>2017-01-28T11:17:25.000Z</time>
      </trkpt>
      <trkpt lat="43.40519" lon="6.53697">
        <ele>357.79998779297</ele>
        <time>2017-01-28T11:17:27.000Z</time>
      </trkpt>
      <trkpt lat="43.40516" lon="6.53699">
        <ele>358.39999389648</ele>
        <time>2017-01-28T11:17:31.000Z</time>
      </trkpt>
      <trkpt lat="43.40513" lon="6.537">
        <ele>359</ele>
        <time>2017-01-28T11:17:35.000Z</time>
      </trkpt>
      <trkpt lat="43.40511" lon="6.53701">
        <ele>359.39999389648</ele>
        <time>2017-01-28T11:17:37.000Z</time>
      </trkpt>
      <trkpt lat="43.40507" lon="6.53703">
        <ele>360.20001220703</ele>
        <time>2017-01-28T11:17:44.000Z</time>
      </trkpt>
      <trkpt lat="43.40506" lon="6.53703">
        <ele>360.39999389648</ele>
        <time>2017-01-28T11:17:45.000Z</time>
      </trkpt>
      <trkpt lat="43.40503" lon="6.53705">
        <ele>361.39999389648</ele>
        <time>2017-01-28T11:17:50.000Z</time>
      </trkpt>
      <trkpt lat="43.40501" lon="6.53706">
        <ele>362</ele>
        <time>2017-01-28T11:17:53.000Z</time>
      </trkpt>
      <trkpt lat="43.40499" lon="6.53709">
        <ele>362.60000610352</ele>
        <time>2017-01-28T11:17:57.000Z</time>
      </trkpt>
      <trkpt lat="43.40495" lon="6.53713">
        <ele>363.60000610352</ele>
        <time>2017-01-28T11:18:02.000Z</time>
      </trkpt>
      <trkpt lat="43.40495" lon="6.53714">
        <ele>363.60000610352</ele>
        <time>2017-01-28T11:18:03.000Z</time>
      </trkpt>
      <trkpt lat="43.4049" lon="6.53717">
        <ele>364.39999389648</ele>
        <time>2017-01-28T11:18:09.000Z</time>
      </trkpt>
      <trkpt lat="43.40488" lon="6.53717">
        <ele>364.79998779297</ele>
        <time>2017-01-28T11:18:13.000Z</time>
      </trkpt>
      <trkpt lat="43.40488" lon="6.53717">
        <ele>364.79998779297</ele>
        <time>2017-01-28T11:18:16.000Z</time>
      </trkpt>
      <trkpt lat="43.40488" lon="6.53719">
        <ele>365.39999389648</ele>
        <time>2017-01-28T11:18:27.000Z</time>
      </trkpt>
      <trkpt lat="43.40487" lon="6.53719">
        <ele>364.79998779297</ele>
        <time>2017-01-28T11:18:32.000Z</time>
      </trkpt>
      <trkpt lat="43.40487" lon="6.53718">
        <ele>364.79998779297</ele>
        <time>2017-01-28T11:18:39.000Z</time>
      </trkpt>
      <trkpt lat="43.40487" lon="6.53717">
        <ele>365</ele>
        <time>2017-01-28T11:18:46.000Z</time>
      </trkpt>
      <trkpt lat="43.40487" lon="6.53717">
        <ele>365.79998779297</ele>
        <time>2017-01-28T11:18:53.000Z</time>
      </trkpt>
      <trkpt lat="43.40487" lon="6.53717">
        <ele>365.79998779297</ele>
        <time>2017-01-28T11:18:55.000Z</time>
      </trkpt>
      <trkpt lat="43.40487" lon="6.53717">
        <ele>364.79998779297</ele>
        <time>2017-01-28T11:19:02.000Z</time>
      </trkpt>
      <trkpt lat="43.40487" lon="6.53718">
        <ele>365</ele>
        <time>2017-01-28T11:19:05.000Z</time>
      </trkpt>
      <trkpt lat="43.40487" lon="6.53718">
        <ele>365.39999389648</ele>
        <time>2017-01-28T11:19:14.000Z</time>
      </trkpt>
      <trkpt lat="43.40487" lon="6.53718">
        <ele>365.39999389648</ele>
        <time>2017-01-28T11:19:27.000Z</time>
      </trkpt>
      <trkpt lat="43.40487" lon="6.53718">
        <ele>365.79998779297</ele>
        <time>2017-01-28T11:19:42.000Z</time>
      </trkpt>
      <trkpt lat="43.40488" lon="6.53719">
        <ele>366</ele>
        <time>2017-01-28T11:19:50.000Z</time>
      </trkpt>
      <trkpt lat="43.40488" lon="6.5372">
        <ele>366.39999389648</ele>
        <time>2017-01-28T11:19:57.000Z</time>
      </trkpt>
      <trkpt lat="43.40488" lon="6.5372">
        <ele>365.79998779297</ele>
        <time>2017-01-28T11:20:11.000Z</time>
      </trkpt>
      <trkpt lat="43.40488" lon="6.53718">
        <ele>365.60000610352</ele>
        <time>2017-01-28T11:20:17.000Z</time>
      </trkpt>
      <trkpt lat="43.40488" lon="6.53718">
        <ele>365.79998779297</ele>
        <time>2017-01-28T11:20:23.000Z</time>
      </trkpt>
      <trkpt lat="43.40488" lon="6.53717">
        <ele>365.60000610352</ele>
        <time>2017-01-28T11:20:39.000Z</time>
      </trkpt>
      <trkpt lat="43.40488" lon="6.53717">
        <ele>366.20001220703</ele>
        <time>2017-01-28T11:20:46.000Z</time>
      </trkpt>
      <trkpt lat="43.40488" lon="6.53717">
        <ele>365.60000610352</ele>
        <time>2017-01-28T11:20:56.000Z</time>
      </trkpt>
      <trkpt lat="43.40488" lon="6.53716">
        <ele>366</ele>
        <time>2017-01-28T11:21:07.000Z</time>
      </trkpt>
      <trkpt lat="43.40489" lon="6.53715">
        <ele>366.20001220703</ele>
        <time>2017-01-28T11:21:26.000Z</time>
      </trkpt>
      <trkpt lat="43.40491" lon="6.53712">
        <ele>366</ele>
        <time>2017-01-28T11:21:28.000Z</time>
      </trkpt>
      <trkpt lat="43.40495" lon="6.53711">
        <ele>365.79998779297</ele>
        <time>2017-01-28T11:21:31.000Z</time>
      </trkpt>
      <trkpt lat="43.40502" lon="6.53704">
        <ele>364.79998779297</ele>
        <time>2017-01-28T11:21:35.000Z</time>
      </trkpt>
      <trkpt lat="43.40503" lon="6.53701">
        <ele>364.60000610352</ele>
        <time>2017-01-28T11:21:36.000Z</time>
      </trkpt>
      <trkpt lat="43.40506" lon="6.53688">
        <ele>363</ele>
        <time>2017-01-28T11:21:41.000Z</time>
      </trkpt>
      <trkpt lat="43.40506" lon="6.53683">
        <ele>361.39999389648</ele>
        <time>2017-01-28T11:21:43.000Z</time>
      </trkpt>
      <trkpt lat="43.40507" lon="6.53679">
        <ele>359.79998779297</ele>
        <time>2017-01-28T11:21:45.000Z</time>
      </trkpt>
      <trkpt lat="43.40507" lon="6.53677">
        <ele>359.20001220703</ele>
        <time>2017-01-28T11:21:46.000Z</time>
      </trkpt>
      <trkpt lat="43.40507" lon="6.53676">
        <ele>358.60000610352</ele>
        <time>2017-01-28T11:21:47.000Z</time>
      </trkpt>
      <trkpt lat="43.40508" lon="6.53671">
        <ele>356.79998779297</ele>
        <time>2017-01-28T11:21:49.000Z</time>
      </trkpt>
      <trkpt lat="43.40509" lon="6.53669">
        <ele>356.39999389648</ele>
        <time>2017-01-28T11:21:50.000Z</time>
      </trkpt>
      <trkpt lat="43.40509" lon="6.53668">
        <ele>355.79998779297</ele>
        <time>2017-01-28T11:21:51.000Z</time>
      </trkpt>
      <trkpt lat="43.40508" lon="6.53664">
        <ele>354.39999389648</ele>
        <time>2017-01-28T11:21:53.000Z</time>
      </trkpt>
      <trkpt lat="43.40509" lon="6.53662">
        <ele>353.20001220703</ele>
        <time>2017-01-28T11:21:55.000Z</time>
      </trkpt>
      <trkpt lat="43.40509" lon="6.53662">
        <ele>351.79998779297</ele>
        <time>2017-01-28T11:21:58.000Z</time>
      </trkpt>
      <trkpt lat="43.40509" lon="6.53662">
        <ele>350.60000610352</ele>
        <time>2017-01-28T11:22:00.000Z</time>
      </trkpt>
      <trkpt lat="43.40509" lon="6.53662">
        <ele>350</ele>
        <time>2017-01-28T11:22:01.000Z</time>
      </trkpt>
      <trkpt lat="43.40509" lon="6.53662">
        <ele>349.60000610352</ele>
        <time>2017-01-28T11:22:06.000Z</time>
      </trkpt>
      <trkpt lat="43.40509" lon="6.53662">
        <ele>349.60000610352</ele>
        <time>2017-01-28T11:22:18.000Z</time>
      </trkpt>
      <trkpt lat="43.40509" lon="6.53663">
        <ele>349.79998779297</ele>
        <time>2017-01-28T11:22:27.000Z</time>
      </trkpt>
      <trkpt lat="43.4051" lon="6.53666">
        <ele>350.39999389648</ele>
        <time>2017-01-28T11:22:36.000Z</time>
      </trkpt>
      <trkpt lat="43.40509" lon="6.53668">
        <ele>350.60000610352</ele>
        <time>2017-01-28T11:22:40.000Z</time>
      </trkpt>
      <trkpt lat="43.40509" lon="6.53671">
        <ele>351.79998779297</ele>
        <time>2017-01-28T11:22:44.000Z</time>
      </trkpt>
      <trkpt lat="43.40509" lon="6.5367">
        <ele>352</ele>
        <time>2017-01-28T11:22:45.000Z</time>
      </trkpt>
      <trkpt lat="43.40508" lon="6.53674">
        <ele>352.79998779297</ele>
        <time>2017-01-28T11:22:53.000Z</time>
      </trkpt>
      <trkpt lat="43.40508" lon="6.53675">
        <ele>352.79998779297</ele>
        <time>2017-01-28T11:22:54.000Z</time>
      </trkpt>
      <trkpt lat="43.40507" lon="6.53676">
        <ele>353.79998779297</ele>
        <time>2017-01-28T11:22:59.000Z</time>
      </trkpt>
      <trkpt lat="43.40507" lon="6.53679">
        <ele>355</ele>
        <time>2017-01-28T11:23:04.000Z</time>
      </trkpt>
      <trkpt lat="43.40507" lon="6.53683">
        <ele>356.20001220703</ele>
        <time>2017-01-28T11:23:10.000Z</time>
      </trkpt>
      <trkpt lat="43.40507" lon="6.53683">
        <ele>356.20001220703</ele>
        <time>2017-01-28T11:23:11.000Z</time>
      </trkpt>
      <trkpt lat="43.40507" lon="6.53688">
        <ele>357.39999389648</ele>
        <time>2017-01-28T11:23:18.000Z</time>
      </trkpt>
      <trkpt lat="43.40507" lon="6.53688">
        <ele>357.60000610352</ele>
        <time>2017-01-28T11:23:19.000Z</time>
      </trkpt>
      <trkpt lat="43.40507" lon="6.53691">
        <ele>358.39999389648</ele>
        <time>2017-01-28T11:23:23.000Z</time>
      </trkpt>
      <trkpt lat="43.40506" lon="6.53692">
        <ele>358.79998779297</ele>
        <time>2017-01-28T11:23:25.000Z</time>
      </trkpt>
      <trkpt lat="43.40506" lon="6.53695">
        <ele>359.60000610352</ele>
        <time>2017-01-28T11:23:29.000Z</time>
      </trkpt>
      <trkpt lat="43.40504" lon="6.537">
        <ele>360.39999389648</ele>
        <time>2017-01-28T11:23:33.000Z</time>
      </trkpt>
      <trkpt lat="43.40504" lon="6.53701">
        <ele>360.79998779297</ele>
        <time>2017-01-28T11:23:35.000Z</time>
      </trkpt>
      <trkpt lat="43.40503" lon="6.53705">
        <ele>361.79998779297</ele>
        <time>2017-01-28T11:23:41.000Z</time>
      </trkpt>
      <trkpt lat="43.40503" lon="6.53705">
        <ele>362.79998779297</ele>
        <time>2017-01-28T11:23:50.000Z</time>
      </trkpt>
      <trkpt lat="43.40502" lon="6.53707">
        <ele>362.79998779297</ele>
        <time>2017-01-28T11:23:52.000Z</time>
      </trkpt>
      <trkpt lat="43.405" lon="6.53709">
        <ele>362.60000610352</ele>
        <time>2017-01-28T11:23:55.000Z</time>
      </trkpt>
      <trkpt lat="43.40497" lon="6.53711">
        <ele>363</ele>
        <time>2017-01-28T11:23:58.000Z</time>
      </trkpt>
      <trkpt lat="43.40495" lon="6.53714">
        <ele>363.79998779297</ele>
        <time>2017-01-28T11:24:02.000Z</time>
      </trkpt>
      <trkpt lat="43.40493" lon="6.53717">
        <ele>363.79998779297</ele>
        <time>2017-01-28T11:24:05.000Z</time>
      </trkpt>
      <trkpt lat="43.40492" lon="6.53718">
        <ele>364.39999389648</ele>
        <time>2017-01-28T11:24:07.000Z</time>
      </trkpt>
      <trkpt lat="43.40493" lon="6.53718">
        <ele>364.60000610352</ele>
        <time>2017-01-28T11:24:08.000Z</time>
      </trkpt>
      <trkpt lat="43.40494" lon="6.53722">
        <ele>364.79998779297</ele>
        <time>2017-01-28T11:24:13.000Z</time>
      </trkpt>
      <trkpt lat="43.405" lon="6.53726">
        <ele>365.20001220703</ele>
        <time>2017-01-28T11:24:17.000Z</time>
      </trkpt>
      <trkpt lat="43.40505" lon="6.53729">
        <ele>365</ele>
        <time>2017-01-28T11:24:19.000Z</time>
      </trkpt>
      <trkpt lat="43.40511" lon="6.53727">
        <ele>364</ele>
        <time>2017-01-28T11:24:21.000Z</time>
      </trkpt>
      <trkpt lat="43.40513" lon="6.53724">
        <ele>362.60000610352</ele>
        <time>2017-01-28T11:24:22.000Z</time>
      </trkpt>
      <trkpt lat="43.40517" lon="6.53716">
        <ele>361</ele>
        <time>2017-01-28T11:24:24.000Z</time>
      </trkpt>
      <trkpt lat="43.40523" lon="6.53708">
        <ele>359.79998779297</ele>
        <time>2017-01-28T11:24:26.000Z</time>
      </trkpt>
      <trkpt lat="43.40525" lon="6.53707">
        <ele>359.39999389648</ele>
        <time>2017-01-28T11:24:27.000Z</time>
      </trkpt>
      <trkpt lat="43.40531" lon="6.53706">
        <ele>358.79998779297</ele>
        <time>2017-01-28T11:24:29.000Z</time>
      </trkpt>
      <trkpt lat="43.40533" lon="6.53709">
        <ele>358.60000610352</ele>
        <time>2017-01-28T11:24:30.000Z</time>
      </trkpt>
      <trkpt lat="43.40539" lon="6.53704">
        <ele>357.20001220703</ele>
        <time>2017-01-28T11:24:32.000Z</time>
      </trkpt>
      <trkpt lat="43.40546" lon="6.53697">
        <ele>355</ele>
        <time>2017-01-28T11:24:34.000Z</time>
      </trkpt>
      <trkpt lat="43.40553" lon="6.53698">
        <ele>353</ele>
        <time>2017-01-28T11:24:36.000Z</time>
      </trkpt>
      <trkpt lat="43.4056" lon="6.53697">
        <ele>351.39999389648</ele>
        <time>2017-01-28T11:24:38.000Z</time>
      </trkpt>
      <trkpt lat="43.40564" lon="6.53697">
        <ele>350.79998779297</ele>
        <time>2017-01-28T11:24:39.000Z</time>
      </trkpt>
      <trkpt lat="43.40568" lon="6.53698">
        <ele>350.60000610352</ele>
        <time>2017-01-28T11:24:40.000Z</time>
      </trkpt>
      <trkpt lat="43.40571" lon="6.53695">
        <ele>350</ele>
        <time>2017-01-28T11:24:41.000Z</time>
      </trkpt>
      <trkpt lat="43.40575" lon="6.537">
        <ele>348.60000610352</ele>
        <time>2017-01-28T11:24:43.000Z</time>
      </trkpt>
      <trkpt lat="43.40582" lon="6.537">
        <ele>347.20001220703</ele>
        <time>2017-01-28T11:24:45.000Z</time>
      </trkpt>
      <trkpt lat="43.40586" lon="6.53701">
        <ele>345.60000610352</ele>
        <time>2017-01-28T11:24:46.000Z</time>
      </trkpt>
      <trkpt lat="43.4059" lon="6.53701">
        <ele>345</ele>
        <time>2017-01-28T11:24:47.000Z</time>
      </trkpt>
      <trkpt lat="43.40594" lon="6.53699">
        <ele>343.39999389648</ele>
        <time>2017-01-28T11:24:48.000Z</time>
      </trkpt>
      <trkpt lat="43.40598" lon="6.537">
        <ele>342.39999389648</ele>
        <time>2017-01-28T11:24:49.000Z</time>
      </trkpt>
      <trkpt lat="43.406" lon="6.53702">
        <ele>341.79998779297</ele>
        <time>2017-01-28T11:24:50.000Z</time>
      </trkpt>
      <trkpt lat="43.40602" lon="6.53705">
        <ele>340.79998779297</ele>
        <time>2017-01-28T11:24:51.000Z</time>
      </trkpt>
      <trkpt lat="43.40604" lon="6.53705">
        <ele>340</ele>
        <time>2017-01-28T11:24:52.000Z</time>
      </trkpt>
      <trkpt lat="43.40607" lon="6.53704">
        <ele>339.39999389648</ele>
        <time>2017-01-28T11:24:53.000Z</time>
      </trkpt>
      <trkpt lat="43.40611" lon="6.53703">
        <ele>337.79998779297</ele>
        <time>2017-01-28T11:24:54.000Z</time>
      </trkpt>
      <trkpt lat="43.40617" lon="6.53702">
        <ele>336.20001220703</ele>
        <time>2017-01-28T11:24:56.000Z</time>
      </trkpt>
      <trkpt lat="43.4062" lon="6.53701">
        <ele>335.20001220703</ele>
        <time>2017-01-28T11:24:57.000Z</time>
      </trkpt>
      <trkpt lat="43.40623" lon="6.53702">
        <ele>334.39999389648</ele>
        <time>2017-01-28T11:24:58.000Z</time>
      </trkpt>
      <trkpt lat="43.40639" lon="6.53707">
        <ele>333</ele>
        <time>2017-01-28T11:25:01.000Z</time>
      </trkpt>
      <trkpt lat="43.40652" lon="6.53708">
        <ele>331.60000610352</ele>
        <time>2017-01-28T11:25:03.000Z</time>
      </trkpt>
      <trkpt lat="43.40661" lon="6.53707">
        <ele>330.39999389648</ele>
        <time>2017-01-28T11:25:05.000Z</time>
      </trkpt>
      <trkpt lat="43.40667" lon="6.53707">
        <ele>329.79998779297</ele>
        <time>2017-01-28T11:25:06.000Z</time>
      </trkpt>
      <trkpt lat="43.40672" lon="6.5371">
        <ele>329.20001220703</ele>
        <time>2017-01-28T11:25:07.000Z</time>
      </trkpt>
      <trkpt lat="43.40677" lon="6.53712">
        <ele>328.60000610352</ele>
        <time>2017-01-28T11:25:08.000Z</time>
      </trkpt>
      <trkpt lat="43.40681" lon="6.53712">
        <ele>327.79998779297</ele>
        <time>2017-01-28T11:25:09.000Z</time>
      </trkpt>
      <trkpt lat="43.40686" lon="6.53718">
        <ele>326.60000610352</ele>
        <time>2017-01-28T11:25:11.000Z</time>
      </trkpt>
      <trkpt lat="43.40685" lon="6.53724">
        <ele>325.39999389648</ele>
        <time>2017-01-28T11:25:12.000Z</time>
      </trkpt>
      <trkpt lat="43.40689" lon="6.5373">
        <ele>324</ele>
        <time>2017-01-28T11:25:14.000Z</time>
      </trkpt>
      <trkpt lat="43.40693" lon="6.53732">
        <ele>323.60000610352</ele>
        <time>2017-01-28T11:25:15.000Z</time>
      </trkpt>
      <trkpt lat="43.40698" lon="6.53733">
        <ele>322.79998779297</ele>
        <time>2017-01-28T11:25:16.000Z</time>
      </trkpt>
      <trkpt lat="43.4071" lon="6.53736">
        <ele>321.20001220703</ele>
        <time>2017-01-28T11:25:18.000Z</time>
      </trkpt>
      <trkpt lat="43.40716" lon="6.53737">
        <ele>320.20001220703</ele>
        <time>2017-01-28T11:25:19.000Z</time>
      </trkpt>
      <trkpt lat="43.40728" lon="6.53737">
        <ele>318.39999389648</ele>
        <time>2017-01-28T11:25:21.000Z</time>
      </trkpt>
      <trkpt lat="43.40735" lon="6.53735">
        <ele>316.79998779297</ele>
        <time>2017-01-28T11:25:22.000Z</time>
      </trkpt>
      <trkpt lat="43.40748" lon="6.53729">
        <ele>314.79998779297</ele>
        <time>2017-01-28T11:25:24.000Z</time>
      </trkpt>
      <trkpt lat="43.4076" lon="6.53725">
        <ele>313.20001220703</ele>
        <time>2017-01-28T11:25:26.000Z</time>
      </trkpt>
      <trkpt lat="43.40771" lon="6.53723">
        <ele>312.60000610352</ele>
        <time>2017-01-28T11:25:28.000Z</time>
      </trkpt>
      <trkpt lat="43.40781" lon="6.53719">
        <ele>312.39999389648</ele>
        <time>2017-01-28T11:25:30.000Z</time>
      </trkpt>
      <trkpt lat="43.40785" lon="6.53715">
        <ele>312</ele>
        <time>2017-01-28T11:25:31.000Z</time>
      </trkpt>
      <trkpt lat="43.4079" lon="6.53712">
        <ele>311.79998779297</ele>
        <time>2017-01-28T11:25:32.000Z</time>
      </trkpt>
      <trkpt lat="43.40811" lon="6.53715">
        <ele>311</ele>
        <time>2017-01-28T11:25:35.000Z</time>
      </trkpt>
      <trkpt lat="43.40827" lon="6.5372">
        <ele>309.79998779297</ele>
        <time>2017-01-28T11:25:37.000Z</time>
      </trkpt>
      <trkpt lat="43.40833" lon="6.53723">
        <ele>308.79998779297</ele>
        <time>2017-01-28T11:25:38.000Z</time>
      </trkpt>
      <trkpt lat="43.4084" lon="6.53726">
        <ele>307.20001220703</ele>
        <time>2017-01-28T11:25:39.000Z</time>
      </trkpt>
      <trkpt lat="43.40846" lon="6.53728">
        <ele>306.60000610352</ele>
        <time>2017-01-28T11:25:40.000Z</time>
      </trkpt>
      <trkpt lat="43.40852" lon="6.53728">
        <ele>305.60000610352</ele>
        <time>2017-01-28T11:25:41.000Z</time>
      </trkpt>
      <trkpt lat="43.40859" lon="6.53728">
        <ele>303.60000610352</ele>
        <time>2017-01-28T11:25:42.000Z</time>
      </trkpt>
      <trkpt lat="43.40865" lon="6.53728">
        <ele>302.39999389648</ele>
        <time>2017-01-28T11:25:43.000Z</time>
      </trkpt>
      <trkpt lat="43.40875" lon="6.53724">
        <ele>301.20001220703</ele>
        <time>2017-01-28T11:25:45.000Z</time>
      </trkpt>
      <trkpt lat="43.40878" lon="6.5372">
        <ele>300.60000610352</ele>
        <time>2017-01-28T11:25:46.000Z</time>
      </trkpt>
      <trkpt lat="43.40888" lon="6.5371">
        <ele>301</ele>
        <time>2017-01-28T11:25:49.000Z</time>
      </trkpt>
      <trkpt lat="43.40893" lon="6.53713">
        <ele>301</ele>
        <time>2017-01-28T11:25:51.000Z</time>
      </trkpt>
      <trkpt lat="43.40899" lon="6.53715">
        <ele>301</ele>
        <time>2017-01-28T11:25:54.000Z</time>
      </trkpt>
      <trkpt lat="43.40903" lon="6.53715">
        <ele>301</ele>
        <time>2017-01-28T11:25:55.000Z</time>
      </trkpt>
      <trkpt lat="43.40916" lon="6.53719">
        <ele>300.60000610352</ele>
        <time>2017-01-28T11:25:58.000Z</time>
      </trkpt>
      <trkpt lat="43.40921" lon="6.53719">
        <ele>300.20001220703</ele>
        <time>2017-01-28T11:25:59.000Z</time>
      </trkpt>
      <trkpt lat="43.40926" lon="6.5372">
        <ele>300</ele>
        <time>2017-01-28T11:26:00.000Z</time>
      </trkpt>
      <trkpt lat="43.40937" lon="6.53718">
        <ele>299.60000610352</ele>
        <time>2017-01-28T11:26:02.000Z</time>
      </trkpt>
      <trkpt lat="43.40942" lon="6.53717">
        <ele>299.39999389648</ele>
        <time>2017-01-28T11:26:03.000Z</time>
      </trkpt>
      <trkpt lat="43.40958" lon="6.53716">
        <ele>298.20001220703</ele>
        <time>2017-01-28T11:26:06.000Z</time>
      </trkpt>
      <trkpt lat="43.40964" lon="6.53716">
        <ele>297.39999389648</ele>
        <time>2017-01-28T11:26:07.000Z</time>
      </trkpt>
      <trkpt lat="43.4097" lon="6.53716">
        <ele>296.60000610352</ele>
        <time>2017-01-28T11:26:08.000Z</time>
      </trkpt>
      <trkpt lat="43.40981" lon="6.53713">
        <ele>295.39999389648</ele>
        <time>2017-01-28T11:26:10.000Z</time>
      </trkpt>
      <trkpt lat="43.40986" lon="6.53714">
        <ele>295.20001220703</ele>
        <time>2017-01-28T11:26:11.000Z</time>
      </trkpt>
      <trkpt lat="43.40996" lon="6.53711">
        <ele>294.39999389648</ele>
        <time>2017-01-28T11:26:13.000Z</time>
      </trkpt>
      <trkpt lat="43.41002" lon="6.53709">
        <ele>294</ele>
        <time>2017-01-28T11:26:14.000Z</time>
      </trkpt>
      <trkpt lat="43.41012" lon="6.53706">
        <ele>293.60000610352</ele>
        <time>2017-01-28T11:26:16.000Z</time>
      </trkpt>
      <trkpt lat="43.4102" lon="6.537">
        <ele>293.20001220703</ele>
        <time>2017-01-28T11:26:18.000Z</time>
      </trkpt>
      <trkpt lat="43.41024" lon="6.53697">
        <ele>293</ele>
        <time>2017-01-28T11:26:19.000Z</time>
      </trkpt>
      <trkpt lat="43.41039" lon="6.53689">
        <ele>292.20001220703</ele>
        <time>2017-01-28T11:26:22.000Z</time>
      </trkpt>
      <trkpt lat="43.4105" lon="6.53684">
        <ele>292.20001220703</ele>
        <time>2017-01-28T11:26:24.000Z</time>
      </trkpt>
      <trkpt lat="43.41059" lon="6.53675">
        <ele>292</ele>
        <time>2017-01-28T11:26:26.000Z</time>
      </trkpt>
      <trkpt lat="43.41068" lon="6.53664">
        <ele>291.79998779297</ele>
        <time>2017-01-28T11:26:28.000Z</time>
      </trkpt>
      <trkpt lat="43.41076" lon="6.53659">
        <ele>290.79998779297</ele>
        <time>2017-01-28T11:26:30.000Z</time>
      </trkpt>
      <trkpt lat="43.41083" lon="6.53661">
        <ele>290.20001220703</ele>
        <time>2017-01-28T11:26:32.000Z</time>
      </trkpt>
      <trkpt lat="43.41097" lon="6.53666">
        <ele>290.39999389648</ele>
        <time>2017-01-28T11:26:35.000Z</time>
      </trkpt>
      <trkpt lat="43.41102" lon="6.5367">
        <ele>290.39999389648</ele>
        <time>2017-01-28T11:26:36.000Z</time>
      </trkpt>
      <trkpt lat="43.41113" lon="6.53672">
        <ele>290.20001220703</ele>
        <time>2017-01-28T11:26:38.000Z</time>
      </trkpt>
      <trkpt lat="43.41119" lon="6.53671">
        <ele>289.79998779297</ele>
        <time>2017-01-28T11:26:39.000Z</time>
      </trkpt>
      <trkpt lat="43.41125" lon="6.5367">
        <ele>289.39999389648</ele>
        <time>2017-01-28T11:26:40.000Z</time>
      </trkpt>
      <trkpt lat="43.41129" lon="6.53672">
        <ele>289</ele>
        <time>2017-01-28T11:26:41.000Z</time>
      </trkpt>
      <trkpt lat="43.41134" lon="6.53669">
        <ele>287.79998779297</ele>
        <time>2017-01-28T11:26:42.000Z</time>
      </trkpt>
      <trkpt lat="43.41139" lon="6.53667">
        <ele>286.79998779297</ele>
        <time>2017-01-28T11:26:43.000Z</time>
      </trkpt>
      <trkpt lat="43.41143" lon="6.53664">
        <ele>285.60000610352</ele>
        <time>2017-01-28T11:26:44.000Z</time>
      </trkpt>
      <trkpt lat="43.4115" lon="6.53657">
        <ele>283.60000610352</ele>
        <time>2017-01-28T11:26:46.000Z</time>
      </trkpt>
      <trkpt lat="43.41157" lon="6.53658">
        <ele>282.20001220703</ele>
        <time>2017-01-28T11:26:48.000Z</time>
      </trkpt>
      <trkpt lat="43.41165" lon="6.53655">
        <ele>280.79998779297</ele>
        <time>2017-01-28T11:26:50.000Z</time>
      </trkpt>
      <trkpt lat="43.41172" lon="6.53655">
        <ele>279.79998779297</ele>
        <time>2017-01-28T11:26:51.000Z</time>
      </trkpt>
      <trkpt lat="43.41178" lon="6.53656">
        <ele>279</ele>
        <time>2017-01-28T11:26:52.000Z</time>
      </trkpt>
      <trkpt lat="43.41192" lon="6.53659">
        <ele>277.20001220703</ele>
        <time>2017-01-28T11:26:54.000Z</time>
      </trkpt>
      <trkpt lat="43.41206" lon="6.53657">
        <ele>275.20001220703</ele>
        <time>2017-01-28T11:26:56.000Z</time>
      </trkpt>
      <trkpt lat="43.41213" lon="6.53656">
        <ele>274.60000610352</ele>
        <time>2017-01-28T11:26:57.000Z</time>
      </trkpt>
      <trkpt lat="43.41219" lon="6.53655">
        <ele>273.60000610352</ele>
        <time>2017-01-28T11:26:58.000Z</time>
      </trkpt>
      <trkpt lat="43.41228" lon="6.53651">
        <ele>272.39999389648</ele>
        <time>2017-01-28T11:27:00.000Z</time>
      </trkpt>
      <trkpt lat="43.41235" lon="6.53647">
        <ele>272</ele>
        <time>2017-01-28T11:27:01.000Z</time>
      </trkpt>
      <trkpt lat="43.4124" lon="6.53646">
        <ele>271.79998779297</ele>
        <time>2017-01-28T11:27:02.000Z</time>
      </trkpt>
      <trkpt lat="43.41257" lon="6.53644">
        <ele>271.39999389648</ele>
        <time>2017-01-28T11:27:05.000Z</time>
      </trkpt>
      <trkpt lat="43.41264" lon="6.53641">
        <ele>270.79998779297</ele>
        <time>2017-01-28T11:27:06.000Z</time>
      </trkpt>
      <trkpt lat="43.41269" lon="6.5364">
        <ele>270.20001220703</ele>
        <time>2017-01-28T11:27:07.000Z</time>
      </trkpt>
      <trkpt lat="43.41279" lon="6.53642">
        <ele>269.20001220703</ele>
        <time>2017-01-28T11:27:09.000Z</time>
      </trkpt>
      <trkpt lat="43.41284" lon="6.53642">
        <ele>268.79998779297</ele>
        <time>2017-01-28T11:27:10.000Z</time>
      </trkpt>
      <trkpt lat="43.41289" lon="6.5364">
        <ele>268.60000610352</ele>
        <time>2017-01-28T11:27:11.000Z</time>
      </trkpt>
      <trkpt lat="43.413" lon="6.5364">
        <ele>268</ele>
        <time>2017-01-28T11:27:13.000Z</time>
      </trkpt>
      <trkpt lat="43.4131" lon="6.53635">
        <ele>268</ele>
        <time>2017-01-28T11:27:15.000Z</time>
      </trkpt>
      <trkpt lat="43.41314" lon="6.53635">
        <ele>267.79998779297</ele>
        <time>2017-01-28T11:27:16.000Z</time>
      </trkpt>
      <trkpt lat="43.41332" lon="6.53633">
        <ele>266.79998779297</ele>
        <time>2017-01-28T11:27:19.000Z</time>
      </trkpt>
      <trkpt lat="43.41338" lon="6.53633">
        <ele>266.39999389648</ele>
        <time>2017-01-28T11:27:20.000Z</time>
      </trkpt>
      <trkpt lat="43.41344" lon="6.53631">
        <ele>265.79998779297</ele>
        <time>2017-01-28T11:27:21.000Z</time>
      </trkpt>
      <trkpt lat="43.41362" lon="6.53625">
        <ele>264.39999389648</ele>
        <time>2017-01-28T11:27:24.000Z</time>
      </trkpt>
      <trkpt lat="43.41367" lon="6.53622">
        <ele>264.39999389648</ele>
        <time>2017-01-28T11:27:25.000Z</time>
      </trkpt>
      <trkpt lat="43.41371" lon="6.53616">
        <ele>263.79998779297</ele>
        <time>2017-01-28T11:27:26.000Z</time>
      </trkpt>
      <trkpt lat="43.41373" lon="6.53612">
        <ele>263.20001220703</ele>
        <time>2017-01-28T11:27:27.000Z</time>
      </trkpt>
      <trkpt lat="43.41376" lon="6.53607">
        <ele>262.20001220703</ele>
        <time>2017-01-28T11:27:30.000Z</time>
      </trkpt>
      <trkpt lat="43.41376" lon="6.53607">
        <ele>261.79998779297</ele>
        <time>2017-01-28T11:27:37.000Z</time>
      </trkpt>
      <trkpt lat="43.41378" lon="6.53606">
        <ele>262.20001220703</ele>
        <time>2017-01-28T11:28:02.000Z</time>
      </trkpt>
      <trkpt lat="43.41378" lon="6.53604">
        <ele>262.39999389648</ele>
        <time>2017-01-28T11:28:03.000Z</time>
      </trkpt>
      <trkpt lat="43.41379" lon="6.53595">
        <ele>262.60000610352</ele>
        <time>2017-01-28T11:28:06.000Z</time>
      </trkpt>
      <trkpt lat="43.41379" lon="6.5359">
        <ele>262.60000610352</ele>
        <time>2017-01-28T11:28:07.000Z</time>
      </trkpt>
      <trkpt lat="43.4138" lon="6.53572">
        <ele>262.39999389648</ele>
        <time>2017-01-28T11:28:10.000Z</time>
      </trkpt>
      <trkpt lat="43.41383" lon="6.53569">
        <ele>262</ele>
        <time>2017-01-28T11:28:11.000Z</time>
      </trkpt>
      <trkpt lat="43.41383" lon="6.53567">
        <ele>260.60000610352</ele>
        <time>2017-01-28T11:28:13.000Z</time>
      </trkpt>
      <trkpt lat="43.41383" lon="6.53564">
        <ele>260</ele>
        <time>2017-01-28T11:28:14.000Z</time>
      </trkpt>
      <trkpt lat="43.41383" lon="6.5356">
        <ele>259.60000610352</ele>
        <time>2017-01-28T11:28:15.000Z</time>
      </trkpt>
      <trkpt lat="43.41385" lon="6.5355">
        <ele>258.39999389648</ele>
        <time>2017-01-28T11:28:17.000Z</time>
      </trkpt>
      <trkpt lat="43.41386" lon="6.53541">
        <ele>256.60000610352</ele>
        <time>2017-01-28T11:28:19.000Z</time>
      </trkpt>
      <trkpt lat="43.41384" lon="6.53532">
        <ele>255.19999694824</ele>
        <time>2017-01-28T11:28:21.000Z</time>
      </trkpt>
      <trkpt lat="43.41379" lon="6.53507">
        <ele>255.39999389648</ele>
        <time>2017-01-28T11:28:26.000Z</time>
      </trkpt>
      <trkpt lat="43.41377" lon="6.5348">
        <ele>254.80000305176</ele>
        <time>2017-01-28T11:28:30.000Z</time>
      </trkpt>
      <trkpt lat="43.41382" lon="6.53472">
        <ele>253.60000610352</ele>
        <time>2017-01-28T11:28:32.000Z</time>
      </trkpt>
      <trkpt lat="43.41386" lon="6.53469">
        <ele>252.39999389648</ele>
        <time>2017-01-28T11:28:33.000Z</time>
      </trkpt>
      <trkpt lat="43.41393" lon="6.53462">
        <ele>251</ele>
        <time>2017-01-28T11:28:35.000Z</time>
      </trkpt>
      <trkpt lat="43.41397" lon="6.53457">
        <ele>250.39999389648</ele>
        <time>2017-01-28T11:28:36.000Z</time>
      </trkpt>
      <trkpt lat="43.41405" lon="6.53447">
        <ele>250.19999694824</ele>
        <time>2017-01-28T11:28:38.000Z</time>
      </trkpt>
      <trkpt lat="43.41409" lon="6.53442">
        <ele>250</ele>
        <time>2017-01-28T11:28:39.000Z</time>
      </trkpt>
      <trkpt lat="43.41417" lon="6.53433">
        <ele>249</ele>
        <time>2017-01-28T11:28:41.000Z</time>
      </trkpt>
      <trkpt lat="43.41426" lon="6.53422">
        <ele>247.39999389648</ele>
        <time>2017-01-28T11:28:43.000Z</time>
      </trkpt>
      <trkpt lat="43.4143" lon="6.53417">
        <ele>246.80000305176</ele>
        <time>2017-01-28T11:28:44.000Z</time>
      </trkpt>
      <trkpt lat="43.41434" lon="6.53411">
        <ele>246</ele>
        <time>2017-01-28T11:28:45.000Z</time>
      </trkpt>
      <trkpt lat="43.41439" lon="6.53405">
        <ele>245.39999389648</ele>
        <time>2017-01-28T11:28:46.000Z</time>
      </trkpt>
      <trkpt lat="43.41443" lon="6.534">
        <ele>244.80000305176</ele>
        <time>2017-01-28T11:28:47.000Z</time>
      </trkpt>
      <trkpt lat="43.41447" lon="6.53394">
        <ele>244.19999694824</ele>
        <time>2017-01-28T11:28:48.000Z</time>
      </trkpt>
      <trkpt lat="43.4145" lon="6.53388">
        <ele>243.39999389648</ele>
        <time>2017-01-28T11:28:49.000Z</time>
      </trkpt>
      <trkpt lat="43.41454" lon="6.53376">
        <ele>242</ele>
        <time>2017-01-28T11:28:51.000Z</time>
      </trkpt>
      <trkpt lat="43.41456" lon="6.53371">
        <ele>241.60000610352</ele>
        <time>2017-01-28T11:28:52.000Z</time>
      </trkpt>
      <trkpt lat="43.41459" lon="6.53358">
        <ele>240.80000305176</ele>
        <time>2017-01-28T11:28:54.000Z</time>
      </trkpt>
      <trkpt lat="43.4146" lon="6.53347">
        <ele>240.39999389648</ele>
        <time>2017-01-28T11:28:56.000Z</time>
      </trkpt>
      <trkpt lat="43.41459" lon="6.53341">
        <ele>239.60000610352</ele>
        <time>2017-01-28T11:28:57.000Z</time>
      </trkpt>
      <trkpt lat="43.41456" lon="6.53328">
        <ele>238.80000305176</ele>
        <time>2017-01-28T11:28:59.000Z</time>
      </trkpt>
      <trkpt lat="43.41453" lon="6.53322">
        <ele>238.39999389648</ele>
        <time>2017-01-28T11:29:00.000Z</time>
      </trkpt>
      <trkpt lat="43.4145" lon="6.53309">
        <ele>237.80000305176</ele>
        <time>2017-01-28T11:29:02.000Z</time>
      </trkpt>
      <trkpt lat="43.4145" lon="6.53305">
        <ele>237.39999389648</ele>
        <time>2017-01-28T11:29:03.000Z</time>
      </trkpt>
      <trkpt lat="43.4145" lon="6.533">
        <ele>237.39999389648</ele>
        <time>2017-01-28T11:29:04.000Z</time>
      </trkpt>
      <trkpt lat="43.41449" lon="6.53288">
        <ele>238.39999389648</ele>
        <time>2017-01-28T11:29:08.000Z</time>
      </trkpt>
      <trkpt lat="43.4145" lon="6.53286">
        <ele>239</ele>
        <time>2017-01-28T11:29:09.000Z</time>
      </trkpt>
      <trkpt lat="43.41452" lon="6.53282">
        <ele>240.19999694824</ele>
        <time>2017-01-28T11:29:12.000Z</time>
      </trkpt>
      <trkpt lat="43.41456" lon="6.53278">
        <ele>241</ele>
        <time>2017-01-28T11:29:15.000Z</time>
      </trkpt>
      <trkpt lat="43.41457" lon="6.53277">
        <ele>241.39999389648</ele>
        <time>2017-01-28T11:29:16.000Z</time>
      </trkpt>
      <trkpt lat="43.41461" lon="6.5327">
        <ele>242.60000610352</ele>
        <time>2017-01-28T11:29:20.000Z</time>
      </trkpt>
      <trkpt lat="43.41464" lon="6.53265">
        <ele>243.39999389648</ele>
        <time>2017-01-28T11:29:22.000Z</time>
      </trkpt>
      <trkpt lat="43.41468" lon="6.53257">
        <ele>243.80000305176</ele>
        <time>2017-01-28T11:29:24.000Z</time>
      </trkpt>
      <trkpt lat="43.41473" lon="6.53247">
        <ele>243.39999389648</ele>
        <time>2017-01-28T11:29:26.000Z</time>
      </trkpt>
      <trkpt lat="43.41477" lon="6.53243">
        <ele>243</ele>
        <time>2017-01-28T11:29:27.000Z</time>
      </trkpt>
      <trkpt lat="43.41484" lon="6.53236">
        <ele>242.39999389648</ele>
        <time>2017-01-28T11:29:29.000Z</time>
      </trkpt>
      <trkpt lat="43.41491" lon="6.53232">
        <ele>242</ele>
        <time>2017-01-28T11:29:31.000Z</time>
      </trkpt>
      <trkpt lat="43.41495" lon="6.53231">
        <ele>241.39999389648</ele>
        <time>2017-01-28T11:29:32.000Z</time>
      </trkpt>
      <trkpt lat="43.41507" lon="6.53229">
        <ele>240.39999389648</ele>
        <time>2017-01-28T11:29:35.000Z</time>
      </trkpt>
      <trkpt lat="43.41512" lon="6.53229">
        <ele>240</ele>
        <time>2017-01-28T11:29:36.000Z</time>
      </trkpt>
      <trkpt lat="43.41516" lon="6.53227">
        <ele>239.80000305176</ele>
        <time>2017-01-28T11:29:37.000Z</time>
      </trkpt>
      <trkpt lat="43.41523" lon="6.53228">
        <ele>239</ele>
        <time>2017-01-28T11:29:39.000Z</time>
      </trkpt>
      <trkpt lat="43.41527" lon="6.53228">
        <ele>237.80000305176</ele>
        <time>2017-01-28T11:29:41.000Z</time>
      </trkpt>
      <trkpt lat="43.4153" lon="6.53227">
        <ele>237.39999389648</ele>
        <time>2017-01-28T11:29:42.000Z</time>
      </trkpt>
      <trkpt lat="43.41537" lon="6.53217">
        <ele>237</ele>
        <time>2017-01-28T11:29:45.000Z</time>
      </trkpt>
      <trkpt lat="43.41539" lon="6.53213">
        <ele>237</ele>
        <time>2017-01-28T11:29:47.000Z</time>
      </trkpt>
      <trkpt lat="43.41541" lon="6.53202">
        <ele>238</ele>
        <time>2017-01-28T11:29:51.000Z</time>
      </trkpt>
      <trkpt lat="43.41549" lon="6.5319">
        <ele>238.39999389648</ele>
        <time>2017-01-28T11:29:55.000Z</time>
      </trkpt>
      <trkpt lat="43.41557" lon="6.53178">
        <ele>238.19999694824</ele>
        <time>2017-01-28T11:29:58.000Z</time>
      </trkpt>
      <trkpt lat="43.41561" lon="6.53174">
        <ele>238</ele>
        <time>2017-01-28T11:29:59.000Z</time>
      </trkpt>
      <trkpt lat="43.41574" lon="6.53169">
        <ele>236.60000610352</ele>
        <time>2017-01-28T11:30:02.000Z</time>
      </trkpt>
      <trkpt lat="43.41584" lon="6.53166">
        <ele>235.80000305176</ele>
        <time>2017-01-28T11:30:05.000Z</time>
      </trkpt>
      <trkpt lat="43.41588" lon="6.53164">
        <ele>235.80000305176</ele>
        <time>2017-01-28T11:30:06.000Z</time>
      </trkpt>
      <trkpt lat="43.41592" lon="6.53162">
        <ele>236</ele>
        <time>2017-01-28T11:30:07.000Z</time>
      </trkpt>
      <trkpt lat="43.41605" lon="6.53157">
        <ele>236</ele>
        <time>2017-01-28T11:30:10.000Z</time>
      </trkpt>
      <trkpt lat="43.4161" lon="6.53156">
        <ele>235.80000305176</ele>
        <time>2017-01-28T11:30:11.000Z</time>
      </trkpt>
      <trkpt lat="43.41615" lon="6.53156">
        <ele>235.39999389648</ele>
        <time>2017-01-28T11:30:12.000Z</time>
      </trkpt>
      <trkpt lat="43.41629" lon="6.53159">
        <ele>234</ele>
        <time>2017-01-28T11:30:15.000Z</time>
      </trkpt>
      <trkpt lat="43.41638" lon="6.53162">
        <ele>232.80000305176</ele>
        <time>2017-01-28T11:30:17.000Z</time>
      </trkpt>
      <trkpt lat="43.41646" lon="6.53163">
        <ele>232</ele>
        <time>2017-01-28T11:30:19.000Z</time>
      </trkpt>
      <trkpt lat="43.41651" lon="6.53162">
        <ele>231.80000305176</ele>
        <time>2017-01-28T11:30:20.000Z</time>
      </trkpt>
      <trkpt lat="43.41668" lon="6.53159">
        <ele>231.39999389648</ele>
        <time>2017-01-28T11:30:24.000Z</time>
      </trkpt>
      <trkpt lat="43.41672" lon="6.53157">
        <ele>231.19999694824</ele>
        <time>2017-01-28T11:30:25.000Z</time>
      </trkpt>
      <trkpt lat="43.41685" lon="6.53151">
        <ele>231.39999389648</ele>
        <time>2017-01-28T11:30:28.000Z</time>
      </trkpt>
      <trkpt lat="43.41691" lon="6.53146">
        <ele>231.39999389648</ele>
        <time>2017-01-28T11:30:30.000Z</time>
      </trkpt>
      <trkpt lat="43.41693" lon="6.53142">
        <ele>231.19999694824</ele>
        <time>2017-01-28T11:30:31.000Z</time>
      </trkpt>
      <trkpt lat="43.417" lon="6.53138">
        <ele>230.39999389648</ele>
        <time>2017-01-28T11:30:33.000Z</time>
      </trkpt>
      <trkpt lat="43.41704" lon="6.53136">
        <ele>229.80000305176</ele>
        <time>2017-01-28T11:30:34.000Z</time>
      </trkpt>
      <trkpt lat="43.41708" lon="6.53134">
        <ele>229.60000610352</ele>
        <time>2017-01-28T11:30:35.000Z</time>
      </trkpt>
      <trkpt lat="43.41712" lon="6.5313">
        <ele>229</ele>
        <time>2017-01-28T11:30:36.000Z</time>
      </trkpt>
      <trkpt lat="43.41714" lon="6.53127">
        <ele>228.60000610352</ele>
        <time>2017-01-28T11:30:37.000Z</time>
      </trkpt>
      <trkpt lat="43.41717" lon="6.53123">
        <ele>227.80000305176</ele>
        <time>2017-01-28T11:30:38.000Z</time>
      </trkpt>
      <trkpt lat="43.41724" lon="6.53121">
        <ele>226.39999389648</ele>
        <time>2017-01-28T11:30:40.000Z</time>
      </trkpt>
      <trkpt lat="43.41729" lon="6.53121">
        <ele>225.60000610352</ele>
        <time>2017-01-28T11:30:41.000Z</time>
      </trkpt>
      <trkpt lat="43.41733" lon="6.53123">
        <ele>224.60000610352</ele>
        <time>2017-01-28T11:30:42.000Z</time>
      </trkpt>
      <trkpt lat="43.41735" lon="6.53127">
        <ele>224</ele>
        <time>2017-01-28T11:30:43.000Z</time>
      </trkpt>
      <trkpt lat="43.41737" lon="6.5313">
        <ele>223.39999389648</ele>
        <time>2017-01-28T11:30:44.000Z</time>
      </trkpt>
      <trkpt lat="43.41744" lon="6.53134">
        <ele>222.19999694824</ele>
        <time>2017-01-28T11:30:46.000Z</time>
      </trkpt>
      <trkpt lat="43.41754" lon="6.53136">
        <ele>221</ele>
        <time>2017-01-28T11:30:48.000Z</time>
      </trkpt>
      <trkpt lat="43.41762" lon="6.53137">
        <ele>219.60000610352</ele>
        <time>2017-01-28T11:30:50.000Z</time>
      </trkpt>
      <trkpt lat="43.41771" lon="6.53137">
        <ele>218.39999389648</ele>
        <time>2017-01-28T11:30:52.000Z</time>
      </trkpt>
      <trkpt lat="43.41784" lon="6.5314">
        <ele>218.39999389648</ele>
        <time>2017-01-28T11:30:55.000Z</time>
      </trkpt>
      <trkpt lat="43.41798" lon="6.53141">
        <ele>217.60000610352</ele>
        <time>2017-01-28T11:30:58.000Z</time>
      </trkpt>
      <trkpt lat="43.41802" lon="6.5314">
        <ele>217.19999694824</ele>
        <time>2017-01-28T11:30:59.000Z</time>
      </trkpt>
      <trkpt lat="43.41816" lon="6.53135">
        <ele>216.19999694824</ele>
        <time>2017-01-28T11:31:02.000Z</time>
      </trkpt>
      <trkpt lat="43.41821" lon="6.53132">
        <ele>215.39999389648</ele>
        <time>2017-01-28T11:31:03.000Z</time>
      </trkpt>
      <trkpt lat="43.41826" lon="6.5313">
        <ele>214.80000305176</ele>
        <time>2017-01-28T11:31:04.000Z</time>
      </trkpt>
      <trkpt lat="43.41835" lon="6.53126">
        <ele>213.39999389648</ele>
        <time>2017-01-28T11:31:06.000Z</time>
      </trkpt>
      <trkpt lat="43.41843" lon="6.53122">
        <ele>212.19999694824</ele>
        <time>2017-01-28T11:31:08.000Z</time>
      </trkpt>
      <trkpt lat="43.41854" lon="6.53116">
        <ele>210.60000610352</ele>
        <time>2017-01-28T11:31:11.000Z</time>
      </trkpt>
      <trkpt lat="43.41866" lon="6.53117">
        <ele>209.39999389648</ele>
        <time>2017-01-28T11:31:14.000Z</time>
      </trkpt>
      <trkpt lat="43.41872" lon="6.53114">
        <ele>208.19999694824</ele>
        <time>2017-01-28T11:31:16.000Z</time>
      </trkpt>
      <trkpt lat="43.41874" lon="6.53112">
        <ele>207.19999694824</ele>
        <time>2017-01-28T11:31:17.000Z</time>
      </trkpt>
      <trkpt lat="43.41877" lon="6.5311">
        <ele>206.19999694824</ele>
        <time>2017-01-28T11:31:18.000Z</time>
      </trkpt>
      <trkpt lat="43.41881" lon="6.53107">
        <ele>205.19999694824</ele>
        <time>2017-01-28T11:31:19.000Z</time>
      </trkpt>
      <trkpt lat="43.41886" lon="6.53104">
        <ele>204</ele>
        <time>2017-01-28T11:31:20.000Z</time>
      </trkpt>
      <trkpt lat="43.41892" lon="6.531">
        <ele>202.60000610352</ele>
        <time>2017-01-28T11:31:21.000Z</time>
      </trkpt>
      <trkpt lat="43.41898" lon="6.53096">
        <ele>201.19999694824</ele>
        <time>2017-01-28T11:31:22.000Z</time>
      </trkpt>
      <trkpt lat="43.41903" lon="6.53093">
        <ele>200</ele>
        <time>2017-01-28T11:31:23.000Z</time>
      </trkpt>
      <trkpt lat="43.41908" lon="6.5309">
        <ele>199</ele>
        <time>2017-01-28T11:31:24.000Z</time>
      </trkpt>
      <trkpt lat="43.41917" lon="6.53084">
        <ele>197.60000610352</ele>
        <time>2017-01-28T11:31:26.000Z</time>
      </trkpt>
      <trkpt lat="43.41932" lon="6.53074">
        <ele>197.39999389648</ele>
        <time>2017-01-28T11:31:30.000Z</time>
      </trkpt>
      <trkpt lat="43.41948" lon="6.53068">
        <ele>197.39999389648</ele>
        <time>2017-01-28T11:31:36.000Z</time>
      </trkpt>
      <trkpt lat="43.41952" lon="6.53069">
        <ele>197.80000305176</ele>
        <time>2017-01-28T11:31:41.000Z</time>
      </trkpt>
      <trkpt lat="43.41954" lon="6.53068">
        <ele>198</ele>
        <time>2017-01-28T11:31:51.000Z</time>
      </trkpt>
      <trkpt lat="43.41963" lon="6.53057">
        <ele>198</ele>
        <time>2017-01-28T11:31:56.000Z</time>
      </trkpt>
      <trkpt lat="43.41971" lon="6.53047">
        <ele>196.39999389648</ele>
        <time>2017-01-28T11:31:59.000Z</time>
      </trkpt>
      <trkpt lat="43.41972" lon="6.53043">
        <ele>195.39999389648</ele>
        <time>2017-01-28T11:32:00.000Z</time>
      </trkpt>
      <trkpt lat="43.41974" lon="6.53039">
        <ele>195</ele>
        <time>2017-01-28T11:32:01.000Z</time>
      </trkpt>
      <trkpt lat="43.41977" lon="6.53035">
        <ele>193.80000305176</ele>
        <time>2017-01-28T11:32:02.000Z</time>
      </trkpt>
      <trkpt lat="43.41982" lon="6.53024">
        <ele>191.60000610352</ele>
        <time>2017-01-28T11:32:04.000Z</time>
      </trkpt>
      <trkpt lat="43.41984" lon="6.53018">
        <ele>190.39999389648</ele>
        <time>2017-01-28T11:32:05.000Z</time>
      </trkpt>
      <trkpt lat="43.41987" lon="6.53015">
        <ele>188</ele>
        <time>2017-01-28T11:32:06.000Z</time>
      </trkpt>
      <trkpt lat="43.41988" lon="6.53011">
        <ele>186.60000610352</ele>
        <time>2017-01-28T11:32:07.000Z</time>
      </trkpt>
      <trkpt lat="43.41989" lon="6.53006">
        <ele>185.19999694824</ele>
        <time>2017-01-28T11:32:08.000Z</time>
      </trkpt>
      <trkpt lat="43.41989" lon="6.53001">
        <ele>184.19999694824</ele>
        <time>2017-01-28T11:32:09.000Z</time>
      </trkpt>
      <trkpt lat="43.41991" lon="6.52997">
        <ele>183.19999694824</ele>
        <time>2017-01-28T11:32:10.000Z</time>
      </trkpt>
      <trkpt lat="43.41995" lon="6.52994">
        <ele>182.39999389648</ele>
        <time>2017-01-28T11:32:11.000Z</time>
      </trkpt>
      <trkpt lat="43.41999" lon="6.5299">
        <ele>181.19999694824</ele>
        <time>2017-01-28T11:32:12.000Z</time>
      </trkpt>
      <trkpt lat="43.42004" lon="6.52987">
        <ele>180.19999694824</ele>
        <time>2017-01-28T11:32:13.000Z</time>
      </trkpt>
      <trkpt lat="43.42012" lon="6.5298">
        <ele>178.80000305176</ele>
        <time>2017-01-28T11:32:15.000Z</time>
      </trkpt>
      <trkpt lat="43.42013" lon="6.52977">
        <ele>178</ele>
        <time>2017-01-28T11:32:16.000Z</time>
      </trkpt>
      <trkpt lat="43.42016" lon="6.52973">
        <ele>177.39999389648</ele>
        <time>2017-01-28T11:32:17.000Z</time>
      </trkpt>
      <trkpt lat="43.4202" lon="6.5297">
        <ele>176.60000610352</ele>
        <time>2017-01-28T11:32:18.000Z</time>
      </trkpt>
      <trkpt lat="43.42024" lon="6.52967">
        <ele>175.39999389648</ele>
        <time>2017-01-28T11:32:19.000Z</time>
      </trkpt>
      <trkpt lat="43.42029" lon="6.52964">
        <ele>174.19999694824</ele>
        <time>2017-01-28T11:32:20.000Z</time>
      </trkpt>
      <trkpt lat="43.42034" lon="6.52964">
        <ele>172.80000305176</ele>
        <time>2017-01-28T11:32:21.000Z</time>
      </trkpt>
      <trkpt lat="43.42041" lon="6.5297">
        <ele>171.60000610352</ele>
        <time>2017-01-28T11:32:23.000Z</time>
      </trkpt>
      <trkpt lat="43.42046" lon="6.52979">
        <ele>170.19999694824</ele>
        <time>2017-01-28T11:32:25.000Z</time>
      </trkpt>
      <trkpt lat="43.42048" lon="6.52984">
        <ele>169.19999694824</ele>
        <time>2017-01-28T11:32:26.000Z</time>
      </trkpt>
      <trkpt lat="43.4205" lon="6.52989">
        <ele>168.39999389648</ele>
        <time>2017-01-28T11:32:27.000Z</time>
      </trkpt>
      <trkpt lat="43.42058" lon="6.53006">
        <ele>168.80000305176</ele>
        <time>2017-01-28T11:32:31.000Z</time>
      </trkpt>
      <trkpt lat="43.4207" lon="6.53007">
        <ele>167.60000610352</ele>
        <time>2017-01-28T11:32:34.000Z</time>
      </trkpt>
      <trkpt lat="43.42075" lon="6.5301">
        <ele>167.19999694824</ele>
        <time>2017-01-28T11:32:35.000Z</time>
      </trkpt>
      <trkpt lat="43.4208" lon="6.53012">
        <ele>166.39999389648</ele>
        <time>2017-01-28T11:32:36.000Z</time>
      </trkpt>
      <trkpt lat="43.42084" lon="6.53016">
        <ele>165.80000305176</ele>
        <time>2017-01-28T11:32:37.000Z</time>
      </trkpt>
      <trkpt lat="43.42089" lon="6.5302">
        <ele>165.19999694824</ele>
        <time>2017-01-28T11:32:38.000Z</time>
      </trkpt>
      <trkpt lat="43.42094" lon="6.53025">
        <ele>164.80000305176</ele>
        <time>2017-01-28T11:32:39.000Z</time>
      </trkpt>
      <trkpt lat="43.42106" lon="6.53041">
        <ele>164.60000610352</ele>
        <time>2017-01-28T11:32:42.000Z</time>
      </trkpt>
      <trkpt lat="43.4211" lon="6.53048">
        <ele>164.60000610352</ele>
        <time>2017-01-28T11:32:43.000Z</time>
      </trkpt>
      <trkpt lat="43.42113" lon="6.53054">
        <ele>164.80000305176</ele>
        <time>2017-01-28T11:32:44.000Z</time>
      </trkpt>
      <trkpt lat="43.42116" lon="6.5306">
        <ele>165</ele>
        <time>2017-01-28T11:32:45.000Z</time>
      </trkpt>
      <trkpt lat="43.42124" lon="6.53062">
        <ele>165.19999694824</ele>
        <time>2017-01-28T11:32:47.000Z</time>
      </trkpt>
      <trkpt lat="43.42131" lon="6.53059">
        <ele>165.19999694824</ele>
        <time>2017-01-28T11:32:49.000Z</time>
      </trkpt>
      <trkpt lat="43.42135" lon="6.53055">
        <ele>165</ele>
        <time>2017-01-28T11:32:51.000Z</time>
      </trkpt>
      <trkpt lat="43.42147" lon="6.53043">
        <ele>165.39999389648</ele>
        <time>2017-01-28T11:32:56.000Z</time>
      </trkpt>
      <trkpt lat="43.42149" lon="6.53039">
        <ele>165.39999389648</ele>
        <time>2017-01-28T11:32:57.000Z</time>
      </trkpt>
      <trkpt lat="43.42153" lon="6.53021">
        <ele>165.60000610352</ele>
        <time>2017-01-28T11:33:00.000Z</time>
      </trkpt>
      <trkpt lat="43.42155" lon="6.53014">
        <ele>165.60000610352</ele>
        <time>2017-01-28T11:33:01.000Z</time>
      </trkpt>
      <trkpt lat="43.42169" lon="6.52976">
        <ele>165.39999389648</ele>
        <time>2017-01-28T11:33:07.000Z</time>
      </trkpt>
      <trkpt lat="43.42184" lon="6.52958">
        <ele>165.80000305176</ele>
        <time>2017-01-28T11:33:11.000Z</time>
      </trkpt>
      <trkpt lat="43.42208" lon="6.52943">
        <ele>165.80000305176</ele>
        <time>2017-01-28T11:33:16.000Z</time>
      </trkpt>
      <trkpt lat="43.42221" lon="6.52935">
        <ele>165.60000610352</ele>
        <time>2017-01-28T11:33:20.000Z</time>
      </trkpt>
      <trkpt lat="43.42227" lon="6.52922">
        <ele>165.19999694824</ele>
        <time>2017-01-28T11:33:23.000Z</time>
      </trkpt>
      <trkpt lat="43.42231" lon="6.52918">
        <ele>164.19999694824</ele>
        <time>2017-01-28T11:33:24.000Z</time>
      </trkpt>
      <trkpt lat="43.42235" lon="6.52915">
        <ele>163.80000305176</ele>
        <time>2017-01-28T11:33:25.000Z</time>
      </trkpt>
      <trkpt lat="43.42239" lon="6.5291">
        <ele>162.80000305176</ele>
        <time>2017-01-28T11:33:26.000Z</time>
      </trkpt>
      <trkpt lat="43.42243" lon="6.52906">
        <ele>162</ele>
        <time>2017-01-28T11:33:27.000Z</time>
      </trkpt>
      <trkpt lat="43.42248" lon="6.52899">
        <ele>160.60000610352</ele>
        <time>2017-01-28T11:33:29.000Z</time>
      </trkpt>
      <trkpt lat="43.42249" lon="6.52894">
        <ele>159.60000610352</ele>
        <time>2017-01-28T11:33:30.000Z</time>
      </trkpt>
      <trkpt lat="43.42251" lon="6.52891">
        <ele>158.60000610352</ele>
        <time>2017-01-28T11:33:31.000Z</time>
      </trkpt>
      <trkpt lat="43.42254" lon="6.52889">
        <ele>157.80000305176</ele>
        <time>2017-01-28T11:33:32.000Z</time>
      </trkpt>
      <trkpt lat="43.42255" lon="6.52886">
        <ele>156.60000610352</ele>
        <time>2017-01-28T11:33:33.000Z</time>
      </trkpt>
      <trkpt lat="43.42257" lon="6.52882">
        <ele>155.39999389648</ele>
        <time>2017-01-28T11:33:34.000Z</time>
      </trkpt>
      <trkpt lat="43.42258" lon="6.52878">
        <ele>154.80000305176</ele>
        <time>2017-01-28T11:33:35.000Z</time>
      </trkpt>
      <trkpt lat="43.4226" lon="6.52875">
        <ele>153.60000610352</ele>
        <time>2017-01-28T11:33:36.000Z</time>
      </trkpt>
      <trkpt lat="43.42262" lon="6.52872">
        <ele>152.39999389648</ele>
        <time>2017-01-28T11:33:37.000Z</time>
      </trkpt>
      <trkpt lat="43.42267" lon="6.52866">
        <ele>150.60000610352</ele>
        <time>2017-01-28T11:33:39.000Z</time>
      </trkpt>
      <trkpt lat="43.4227" lon="6.52863">
        <ele>149.39999389648</ele>
        <time>2017-01-28T11:33:40.000Z</time>
      </trkpt>
      <trkpt lat="43.42273" lon="6.52862">
        <ele>148.19999694824</ele>
        <time>2017-01-28T11:33:41.000Z</time>
      </trkpt>
      <trkpt lat="43.42276" lon="6.52862">
        <ele>147</ele>
        <time>2017-01-28T11:33:42.000Z</time>
      </trkpt>
      <trkpt lat="43.42279" lon="6.52862">
        <ele>145.60000610352</ele>
        <time>2017-01-28T11:33:43.000Z</time>
      </trkpt>
      <trkpt lat="43.42283" lon="6.52858">
        <ele>143.60000610352</ele>
        <time>2017-01-28T11:33:45.000Z</time>
      </trkpt>
      <trkpt lat="43.42284" lon="6.52855">
        <ele>142.39999389648</ele>
        <time>2017-01-28T11:33:46.000Z</time>
      </trkpt>
      <trkpt lat="43.42284" lon="6.52848">
        <ele>141</ele>
        <time>2017-01-28T11:33:48.000Z</time>
      </trkpt>
      <trkpt lat="43.42285" lon="6.52845">
        <ele>139.80000305176</ele>
        <time>2017-01-28T11:33:49.000Z</time>
      </trkpt>
      <trkpt lat="43.42286" lon="6.52843">
        <ele>139</ele>
        <time>2017-01-28T11:33:50.000Z</time>
      </trkpt>
      <trkpt lat="43.42288" lon="6.52841">
        <ele>138</ele>
        <time>2017-01-28T11:33:51.000Z</time>
      </trkpt>
      <trkpt lat="43.4229" lon="6.52838">
        <ele>136.80000305176</ele>
        <time>2017-01-28T11:33:52.000Z</time>
      </trkpt>
      <trkpt lat="43.4229" lon="6.52835">
        <ele>135.39999389648</ele>
        <time>2017-01-28T11:33:53.000Z</time>
      </trkpt>
      <trkpt lat="43.4229" lon="6.52831">
        <ele>134.39999389648</ele>
        <time>2017-01-28T11:33:54.000Z</time>
      </trkpt>
      <trkpt lat="43.42291" lon="6.52829">
        <ele>133</ele>
        <time>2017-01-28T11:33:55.000Z</time>
      </trkpt>
      <trkpt lat="43.42294" lon="6.52829">
        <ele>132</ele>
        <time>2017-01-28T11:33:56.000Z</time>
      </trkpt>
      <trkpt lat="43.42296" lon="6.52829">
        <ele>130.80000305176</ele>
        <time>2017-01-28T11:33:57.000Z</time>
      </trkpt>
      <trkpt lat="43.423" lon="6.52829">
        <ele>129</ele>
        <time>2017-01-28T11:33:59.000Z</time>
      </trkpt>
      <trkpt lat="43.42304" lon="6.52827">
        <ele>128.39999389648</ele>
        <time>2017-01-28T11:34:00.000Z</time>
      </trkpt>
      <trkpt lat="43.42308" lon="6.52825">
        <ele>127.40000152588</ele>
        <time>2017-01-28T11:34:01.000Z</time>
      </trkpt>
      <trkpt lat="43.42314" lon="6.52818">
        <ele>125.59999847412</ele>
        <time>2017-01-28T11:34:03.000Z</time>
      </trkpt>
      <trkpt lat="43.42317" lon="6.52815">
        <ele>124.40000152588</ele>
        <time>2017-01-28T11:34:04.000Z</time>
      </trkpt>
      <trkpt lat="43.4232" lon="6.52812">
        <ele>123.59999847412</ele>
        <time>2017-01-28T11:34:05.000Z</time>
      </trkpt>
      <trkpt lat="43.42324" lon="6.52809">
        <ele>121.59999847412</ele>
        <time>2017-01-28T11:34:06.000Z</time>
      </trkpt>
      <trkpt lat="43.42328" lon="6.52807">
        <ele>120.19999694824</ele>
        <time>2017-01-28T11:34:07.000Z</time>
      </trkpt>
      <trkpt lat="43.42332" lon="6.52806">
        <ele>119</ele>
        <time>2017-01-28T11:34:08.000Z</time>
      </trkpt>
      <trkpt lat="43.42337" lon="6.52806">
        <ele>117.59999847412</ele>
        <time>2017-01-28T11:34:09.000Z</time>
      </trkpt>
      <trkpt lat="43.42341" lon="6.52805">
        <ele>116.40000152588</ele>
        <time>2017-01-28T11:34:10.000Z</time>
      </trkpt>
      <trkpt lat="43.42343" lon="6.52803">
        <ele>115</ele>
        <time>2017-01-28T11:34:11.000Z</time>
      </trkpt>
      <trkpt lat="43.42344" lon="6.528">
        <ele>113.59999847412</ele>
        <time>2017-01-28T11:34:12.000Z</time>
      </trkpt>
      <trkpt lat="43.42346" lon="6.52797">
        <ele>112.19999694824</ele>
        <time>2017-01-28T11:34:13.000Z</time>
      </trkpt>
      <trkpt lat="43.42348" lon="6.52795">
        <ele>111</ele>
        <time>2017-01-28T11:34:14.000Z</time>
      </trkpt>
      <trkpt lat="43.42351" lon="6.52794">
        <ele>110</ele>
        <time>2017-01-28T11:34:15.000Z</time>
      </trkpt>
      <trkpt lat="43.42354" lon="6.52794">
        <ele>109</ele>
        <time>2017-01-28T11:34:16.000Z</time>
      </trkpt>
      <trkpt lat="43.42357" lon="6.52789">
        <ele>107.19999694824</ele>
        <time>2017-01-28T11:34:18.000Z</time>
      </trkpt>
      <trkpt lat="43.42363" lon="6.52785">
        <ele>105.59999847412</ele>
        <time>2017-01-28T11:34:20.000Z</time>
      </trkpt>
      <trkpt lat="43.42367" lon="6.52785">
        <ele>105</ele>
        <time>2017-01-28T11:34:21.000Z</time>
      </trkpt>
      <trkpt lat="43.4237" lon="6.52785">
        <ele>104.40000152588</ele>
        <time>2017-01-28T11:34:22.000Z</time>
      </trkpt>
      <trkpt lat="43.42375" lon="6.52784">
        <ele>102.80000305176</ele>
        <time>2017-01-28T11:34:24.000Z</time>
      </trkpt>
      <trkpt lat="43.42378" lon="6.52782">
        <ele>102.40000152588</ele>
        <time>2017-01-28T11:34:25.000Z</time>
      </trkpt>
      <trkpt lat="43.4238" lon="6.52775">
        <ele>102</ele>
        <time>2017-01-28T11:34:27.000Z</time>
      </trkpt>
      <trkpt lat="43.4238" lon="6.52771">
        <ele>102</ele>
        <time>2017-01-28T11:34:28.000Z</time>
      </trkpt>
      <trkpt lat="43.42382" lon="6.52767">
        <ele>101.59999847412</ele>
        <time>2017-01-28T11:34:29.000Z</time>
      </trkpt>
      <trkpt lat="43.42388" lon="6.52764">
        <ele>99.800003051758</ele>
        <time>2017-01-28T11:34:31.000Z</time>
      </trkpt>
      <trkpt lat="43.42391" lon="6.52762">
        <ele>98.800003051758</ele>
        <time>2017-01-28T11:34:32.000Z</time>
      </trkpt>
      <trkpt lat="43.42392" lon="6.52759">
        <ele>97.400001525879</ele>
        <time>2017-01-28T11:34:33.000Z</time>
      </trkpt>
      <trkpt lat="43.42392" lon="6.52755">
        <ele>96.400001525879</ele>
        <time>2017-01-28T11:34:34.000Z</time>
      </trkpt>
      <trkpt lat="43.42397" lon="6.52749">
        <ele>94.400001525879</ele>
        <time>2017-01-28T11:34:36.000Z</time>
      </trkpt>
      <trkpt lat="43.424" lon="6.52747">
        <ele>93.400001525879</ele>
        <time>2017-01-28T11:34:37.000Z</time>
      </trkpt>
      <trkpt lat="43.42403" lon="6.52746">
        <ele>92.199996948242</ele>
        <time>2017-01-28T11:34:38.000Z</time>
      </trkpt>
      <trkpt lat="43.42406" lon="6.52747">
        <ele>90.800003051758</ele>
        <time>2017-01-28T11:34:39.000Z</time>
      </trkpt>
      <trkpt lat="43.42412" lon="6.52746">
        <ele>89.599998474121</ele>
        <time>2017-01-28T11:34:41.000Z</time>
      </trkpt>
      <trkpt lat="43.42421" lon="6.52736">
        <ele>89.800003051758</ele>
        <time>2017-01-28T11:34:44.000Z</time>
      </trkpt>
      <trkpt lat="43.42424" lon="6.52734">
        <ele>89.400001525879</ele>
        <time>2017-01-28T11:34:45.000Z</time>
      </trkpt>
      <trkpt lat="43.42429" lon="6.52728">
        <ele>88</ele>
        <time>2017-01-28T11:34:47.000Z</time>
      </trkpt>
      <trkpt lat="43.42432" lon="6.52721">
        <ele>86</ele>
        <time>2017-01-28T11:34:49.000Z</time>
      </trkpt>
      <trkpt lat="43.42433" lon="6.52718">
        <ele>85</ele>
        <time>2017-01-28T11:34:50.000Z</time>
      </trkpt>
      <trkpt lat="43.42434" lon="6.52714">
        <ele>83.800003051758</ele>
        <time>2017-01-28T11:34:51.000Z</time>
      </trkpt>
      <trkpt lat="43.42436" lon="6.52711">
        <ele>82.599998474121</ele>
        <time>2017-01-28T11:34:52.000Z</time>
      </trkpt>
      <trkpt lat="43.42438" lon="6.52708">
        <ele>81.199996948242</ele>
        <time>2017-01-28T11:34:53.000Z</time>
      </trkpt>
      <trkpt lat="43.42439" lon="6.52706">
        <ele>79.800003051758</ele>
        <time>2017-01-28T11:34:54.000Z</time>
      </trkpt>
      <trkpt lat="43.4244" lon="6.52703">
        <ele>78.599998474121</ele>
        <time>2017-01-28T11:34:55.000Z</time>
      </trkpt>
      <trkpt lat="43.42441" lon="6.527">
        <ele>77.599998474121</ele>
        <time>2017-01-28T11:34:56.000Z</time>
      </trkpt>
      <trkpt lat="43.42443" lon="6.52695">
        <ele>75.800003051758</ele>
        <time>2017-01-28T11:34:58.000Z</time>
      </trkpt>
      <trkpt lat="43.42444" lon="6.52689">
        <ele>74.199996948242</ele>
        <time>2017-01-28T11:35:00.000Z</time>
      </trkpt>
      <trkpt lat="43.42444" lon="6.52682">
        <ele>72.800003051758</ele>
        <time>2017-01-28T11:35:02.000Z</time>
      </trkpt>
      <trkpt lat="43.42444" lon="6.5268">
        <ele>71.400001525879</ele>
        <time>2017-01-28T11:35:03.000Z</time>
      </trkpt>
      <trkpt lat="43.42445" lon="6.52676">
        <ele>70.199996948242</ele>
        <time>2017-01-28T11:35:04.000Z</time>
      </trkpt>
      <trkpt lat="43.42448" lon="6.5267">
        <ele>68.400001525879</ele>
        <time>2017-01-28T11:35:06.000Z</time>
      </trkpt>
      <trkpt lat="43.42453" lon="6.52664">
        <ele>66.599998474121</ele>
        <time>2017-01-28T11:35:08.000Z</time>
      </trkpt>
      <trkpt lat="43.42456" lon="6.52662">
        <ele>65.599998474121</ele>
        <time>2017-01-28T11:35:09.000Z</time>
      </trkpt>
      <trkpt lat="43.42457" lon="6.52661">
        <ele>64.199996948242</ele>
        <time>2017-01-28T11:35:10.000Z</time>
      </trkpt>
      <trkpt lat="43.42458" lon="6.52659">
        <ele>63</ele>
        <time>2017-01-28T11:35:11.000Z</time>
      </trkpt>
      <trkpt lat="43.42457" lon="6.52657">
        <ele>62</ele>
        <time>2017-01-28T11:35:12.000Z</time>
      </trkpt>
      <trkpt lat="43.42458" lon="6.52655">
        <ele>60</ele>
        <time>2017-01-28T11:35:14.000Z</time>
      </trkpt>
      <trkpt lat="43.42459" lon="6.52653">
        <ele>59</ele>
        <time>2017-01-28T11:35:16.000Z</time>
      </trkpt>
      <trkpt lat="43.4246" lon="6.52648">
        <ele>57.799999237061</ele>
        <time>2017-01-28T11:35:18.000Z</time>
      </trkpt>
      <trkpt lat="43.42462" lon="6.52641">
        <ele>56.599998474121</ele>
        <time>2017-01-28T11:35:20.000Z</time>
      </trkpt>
      <trkpt lat="43.42464" lon="6.52636">
        <ele>55</ele>
        <time>2017-01-28T11:35:22.000Z</time>
      </trkpt>
      <trkpt lat="43.42463" lon="6.52635">
        <ele>54</ele>
        <time>2017-01-28T11:35:23.000Z</time>
      </trkpt>
      <trkpt lat="43.42461" lon="6.52628">
        <ele>52.200000762939</ele>
        <time>2017-01-28T11:35:25.000Z</time>
      </trkpt>
      <trkpt lat="43.42463" lon="6.52625">
        <ele>51.599998474121</ele>
        <time>2017-01-28T11:35:26.000Z</time>
      </trkpt>
      <trkpt lat="43.42464" lon="6.52623">
        <ele>50.799999237061</ele>
        <time>2017-01-28T11:35:27.000Z</time>
      </trkpt>
      <trkpt lat="43.42467" lon="6.52617">
        <ele>49.400001525879</ele>
        <time>2017-01-28T11:35:30.000Z</time>
      </trkpt>
      <trkpt lat="43.42468" lon="6.5261">
        <ele>48.200000762939</ele>
        <time>2017-01-28T11:35:32.000Z</time>
      </trkpt>
      <trkpt lat="43.42469" lon="6.52603">
        <ele>47.200000762939</ele>
        <time>2017-01-28T11:35:34.000Z</time>
      </trkpt>
      <trkpt lat="43.4247" lon="6.52601">
        <ele>47</ele>
        <time>2017-01-28T11:35:35.000Z</time>
      </trkpt>
      <trkpt lat="43.42469" lon="6.52592">
        <ele>46.599998474121</ele>
        <time>2017-01-28T11:35:38.000Z</time>
      </trkpt>
      <trkpt lat="43.42467" lon="6.52587">
        <ele>46.200000762939</ele>
        <time>2017-01-28T11:35:42.000Z</time>
      </trkpt>
      <trkpt lat="43.42466" lon="6.52584">
        <ele>45.599998474121</ele>
        <time>2017-01-28T11:35:45.000Z</time>
      </trkpt>
      <trkpt lat="43.42465" lon="6.52581">
        <ele>45.599998474121</ele>
        <time>2017-01-28T11:35:47.000Z</time>
      </trkpt>
      <trkpt lat="43.42461" lon="6.52574">
        <ele>46.400001525879</ele>
        <time>2017-01-28T11:35:53.000Z</time>
      </trkpt>
      <trkpt lat="43.42461" lon="6.52574">
        <ele>46.599998474121</ele>
        <time>2017-01-28T11:35:55.000Z</time>
      </trkpt>
      <trkpt lat="43.42462" lon="6.52574">
        <ele>46.200000762939</ele>
        <time>2017-01-28T11:35:57.000Z</time>
      </trkpt>
      <trkpt lat="43.42462" lon="6.52574">
        <ele>46.200000762939</ele>
        <time>2017-01-28T11:36:04.000Z</time>
      </trkpt>
      <trkpt lat="43.42461" lon="6.52574">
        <ele>46.599998474121</ele>
        <time>2017-01-28T11:36:10.000Z</time>
      </trkpt>
      <trkpt lat="43.42461" lon="6.52574">
        <ele>46.599998474121</ele>
        <time>2017-01-28T11:36:11.000Z</time>
      </trkpt>
      <trkpt lat="43.42459" lon="6.52573">
        <ele>46.799999237061</ele>
        <time>2017-01-28T11:36:17.000Z</time>
      </trkpt>
      <trkpt lat="43.4246" lon="6.52571">
        <ele>47.200000762939</ele>
        <time>2017-01-28T11:36:23.000Z</time>
      </trkpt>
      <trkpt lat="43.4246" lon="6.52572">
        <ele>46.799999237061</ele>
        <time>2017-01-28T11:36:28.000Z</time>
      </trkpt>
      <trkpt lat="43.4246" lon="6.52573">
        <ele>47</ele>
        <time>2017-01-28T11:36:36.000Z</time>
      </trkpt>
      <trkpt lat="43.42459" lon="6.52573">
        <ele>47.400001525879</ele>
        <time>2017-01-28T11:36:42.000Z</time>
      </trkpt>
      <trkpt lat="43.42459" lon="6.52573">
        <ele>47</ele>
        <time>2017-01-28T11:36:50.000Z</time>
      </trkpt>
      <trkpt lat="43.42459" lon="6.52572">
        <ele>47.200000762939</ele>
        <time>2017-01-28T11:36:56.000Z</time>
      </trkpt>
      <trkpt lat="43.42458" lon="6.52571">
        <ele>47.200000762939</ele>
        <time>2017-01-28T11:37:03.000Z</time>
      </trkpt>
      <trkpt lat="43.42458" lon="6.5257">
        <ele>47.200000762939</ele>
        <time>2017-01-28T11:37:14.000Z</time>
      </trkpt>
      <trkpt lat="43.42458" lon="6.52569">
        <ele>47.400001525879</ele>
        <time>2017-01-28T11:37:22.000Z</time>
      </trkpt>
      <trkpt lat="43.42458" lon="6.5257">
        <ele>46.799999237061</ele>
        <time>2017-01-28T11:37:31.000Z</time>
      </trkpt>
      <trkpt lat="43.42458" lon="6.5257">
        <ele>47.599998474121</ele>
        <time>2017-01-28T11:37:42.000Z</time>
      </trkpt>
      <trkpt lat="43.42458" lon="6.52568">
        <ele>47.200000762939</ele>
        <time>2017-01-28T11:37:51.000Z</time>
      </trkpt>
      <trkpt lat="43.42458" lon="6.52566">
        <ele>47.599998474121</ele>
        <time>2017-01-28T11:37:57.000Z</time>
      </trkpt>
      <trkpt lat="43.42457" lon="6.52563">
        <ele>47.400001525879</ele>
        <time>2017-01-28T11:38:03.000Z</time>
      </trkpt>
      <trkpt lat="43.42457" lon="6.52563">
        <ele>47.200000762939</ele>
        <time>2017-01-28T11:38:09.000Z</time>
      </trkpt>
      <trkpt lat="43.42457" lon="6.52564">
        <ele>47.200000762939</ele>
        <time>2017-01-28T11:38:16.000Z</time>
      </trkpt>
      <trkpt lat="43.42456" lon="6.52563">
        <ele>47.200000762939</ele>
        <time>2017-01-28T11:38:25.000Z</time>
      </trkpt>
      <trkpt lat="43.42456" lon="6.52562">
        <ele>47.400001525879</ele>
        <time>2017-01-28T11:38:30.000Z</time>
      </trkpt>
      <trkpt lat="43.42456" lon="6.52563">
        <ele>47.200000762939</ele>
        <time>2017-01-28T11:38:34.000Z</time>
      </trkpt>
      <trkpt lat="43.42456" lon="6.52563">
        <ele>46.599998474121</ele>
        <time>2017-01-28T11:38:42.000Z</time>
      </trkpt>
      <trkpt lat="43.42456" lon="6.52564">
        <ele>47</ele>
        <time>2017-01-28T11:38:49.000Z</time>
      </trkpt>
      <trkpt lat="43.42456" lon="6.52565">
        <ele>46.799999237061</ele>
        <time>2017-01-28T11:38:58.000Z</time>
      </trkpt>
      <trkpt lat="43.42455" lon="6.52566">
        <ele>47</ele>
        <time>2017-01-28T11:39:08.000Z</time>
      </trkpt>
      <trkpt lat="43.42454" lon="6.52566">
        <ele>46.599998474121</ele>
        <time>2017-01-28T11:39:23.000Z</time>
      </trkpt>
      <trkpt lat="43.42454" lon="6.52565">
        <ele>47.200000762939</ele>
        <time>2017-01-28T11:39:37.000Z</time>
      </trkpt>
      <trkpt lat="43.42454" lon="6.52565">
        <ele>47.200000762939</ele>
        <time>2017-01-28T11:39:55.000Z</time>
      </trkpt>
      <trkpt lat="43.42454" lon="6.52565">
        <ele>47.200000762939</ele>
        <time>2017-01-28T11:40:08.000Z</time>
      </trkpt>
      <trkpt lat="43.42455" lon="6.52565">
        <ele>47.200000762939</ele>
        <time>2017-01-28T11:40:15.000Z</time>
      </trkpt>
      <trkpt lat="43.42456" lon="6.52564">
        <ele>46.799999237061</ele>
        <time>2017-01-28T11:40:29.000Z</time>
      </trkpt>
      <trkpt lat="43.42457" lon="6.52563">
        <ele>46.799999237061</ele>
        <time>2017-01-28T11:40:38.000Z</time>
      </trkpt>
      <trkpt lat="43.42456" lon="6.52563">
        <ele>46.799999237061</ele>
        <time>2017-01-28T11:40:47.000Z</time>
      </trkpt>
      <trkpt lat="43.42456" lon="6.52562">
        <ele>47</ele>
        <time>2017-01-28T11:41:03.000Z</time>
      </trkpt>
      <trkpt lat="43.42457" lon="6.52563">
        <ele>46.799999237061</ele>
        <time>2017-01-28T11:41:15.000Z</time>
      </trkpt>
      <trkpt lat="43.42455" lon="6.52565">
        <ele>46.599998474121</ele>
        <time>2017-01-28T11:41:33.000Z</time>
      </trkpt>
      <trkpt lat="43.42454" lon="6.52566">
        <ele>46.599998474121</ele>
        <time>2017-01-28T11:41:43.000Z</time>
      </trkpt>
      <trkpt lat="43.42454" lon="6.52567">
        <ele>46.799999237061</ele>
        <time>2017-01-28T11:42:00.000Z</time>
      </trkpt>
      <trkpt lat="43.42455" lon="6.52566">
        <ele>47.400001525879</ele>
        <time>2017-01-28T11:42:16.000Z</time>
      </trkpt>
      <trkpt lat="43.42455" lon="6.52566">
        <ele>47.599998474121</ele>
        <time>2017-01-28T11:42:29.000Z</time>
      </trkpt>
      <trkpt lat="43.42456" lon="6.52565">
        <ele>47.400001525879</ele>
        <time>2017-01-28T11:42:40.000Z</time>
      </trkpt>
      <trkpt lat="43.42457" lon="6.52564">
        <ele>47.400001525879</ele>
        <time>2017-01-28T11:42:44.000Z</time>
      </trkpt>
      <trkpt lat="43.42458" lon="6.52563">
        <ele>47.400001525879</ele>
        <time>2017-01-28T11:42:58.000Z</time>
      </trkpt>
      <trkpt lat="43.42457" lon="6.52563">
        <ele>47.200000762939</ele>
        <time>2017-01-28T11:43:11.000Z</time>
      </trkpt>
      <trkpt lat="43.42459" lon="6.52565">
        <ele>47</ele>
        <time>2017-01-28T11:43:24.000Z</time>
      </trkpt>
      <trkpt lat="43.42459" lon="6.52564">
        <ele>46.799999237061</ele>
        <time>2017-01-28T11:43:33.000Z</time>
      </trkpt>
      <trkpt lat="43.42464" lon="6.52565">
        <ele>46.799999237061</ele>
        <time>2017-01-28T11:43:49.000Z</time>
      </trkpt>
      <trkpt lat="43.42466" lon="6.52564">
        <ele>46.799999237061</ele>
        <time>2017-01-28T11:43:54.000Z</time>
      </trkpt>
      <trkpt lat="43.4247" lon="6.52561">
        <ele>46.799999237061</ele>
        <time>2017-01-28T11:44:00.000Z</time>
      </trkpt>
      <trkpt lat="43.42467" lon="6.52561">
        <ele>47.400001525879</ele>
        <time>2017-01-28T11:44:18.000Z</time>
      </trkpt>
      <trkpt lat="43.42464" lon="6.52562">
        <ele>47</ele>
        <time>2017-01-28T11:44:36.000Z</time>
      </trkpt>
      <trkpt lat="43.42463" lon="6.52563">
        <ele>47.599998474121</ele>
        <time>2017-01-28T11:44:52.000Z</time>
      </trkpt>
      <trkpt lat="43.4246" lon="6.52562">
        <ele>47.599998474121</ele>
        <time>2017-01-28T11:44:55.000Z</time>
      </trkpt>
      <trkpt lat="43.4246" lon="6.52562">
        <ele>47.799999237061</ele>
        <time>2017-01-28T11:44:56.000Z</time>
      </trkpt>
      <trkpt lat="43.42458" lon="6.52562">
        <ele>48.400001525879</ele>
        <time>2017-01-28T11:45:13.000Z</time>
      </trkpt>
      <trkpt lat="43.42458" lon="6.52563">
        <ele>48.400001525879</ele>
        <time>2017-01-28T11:45:33.000Z</time>
      </trkpt>
      <trkpt lat="43.4246" lon="6.52563">
        <ele>48.200000762939</ele>
        <time>2017-01-28T11:45:45.000Z</time>
      </trkpt>
      <trkpt lat="43.42459" lon="6.52563">
        <ele>47.799999237061</ele>
        <time>2017-01-28T11:46:03.000Z</time>
      </trkpt>
      <trkpt lat="43.42459" lon="6.52564">
        <ele>47.799999237061</ele>
        <time>2017-01-28T11:46:24.000Z</time>
      </trkpt>
      <trkpt lat="43.42459" lon="6.52565">
        <ele>48.200000762939</ele>
        <time>2017-01-28T11:46:35.000Z</time>
      </trkpt>
      <trkpt lat="43.4246" lon="6.52566">
        <ele>48</ele>
        <time>2017-01-28T11:46:51.000Z</time>
      </trkpt>
      <trkpt lat="43.42459" lon="6.52566">
        <ele>47.599998474121</ele>
        <time>2017-01-28T11:47:00.000Z</time>
      </trkpt>
      <trkpt lat="43.42459" lon="6.52566">
        <ele>47.400001525879</ele>
        <time>2017-01-28T11:47:10.000Z</time>
      </trkpt>
      <trkpt lat="43.4246" lon="6.52567">
        <ele>47.400001525879</ele>
        <time>2017-01-28T11:47:26.000Z</time>
      </trkpt>
      <trkpt lat="43.42461" lon="6.52567">
        <ele>47.400001525879</ele>
        <time>2017-01-28T11:47:37.000Z</time>
      </trkpt>
      <trkpt lat="43.42461" lon="6.52567">
        <ele>47.400001525879</ele>
        <time>2017-01-28T11:47:55.000Z</time>
      </trkpt>
      <trkpt lat="43.42461" lon="6.52568">
        <ele>47.599998474121</ele>
        <time>2017-01-28T11:48:06.000Z</time>
      </trkpt>
      <trkpt lat="43.42461" lon="6.52568">
        <ele>47.599998474121</ele>
        <time>2017-01-28T11:48:23.000Z</time>
      </trkpt>
      <trkpt lat="43.42461" lon="6.52568">
        <ele>47.599998474121</ele>
        <time>2017-01-28T11:48:44.000Z</time>
      </trkpt>
      <trkpt lat="43.42462" lon="6.52569">
        <ele>47.799999237061</ele>
        <time>2017-01-28T11:49:00.000Z</time>
      </trkpt>
      <trkpt lat="43.42462" lon="6.52569">
        <ele>48.200000762939</ele>
        <time>2017-01-28T11:49:18.000Z</time>
      </trkpt>
      <trkpt lat="43.42463" lon="6.52568">
        <ele>48</ele>
        <time>2017-01-28T11:49:30.000Z</time>
      </trkpt>
      <trkpt lat="43.42464" lon="6.52569">
        <ele>48</ele>
        <time>2017-01-28T11:49:47.000Z</time>
      </trkpt>
      <trkpt lat="43.42464" lon="6.5257">
        <ele>48</ele>
        <time>2017-01-28T11:50:05.000Z</time>
      </trkpt>
      <trkpt lat="43.42463" lon="6.5257">
        <ele>48</ele>
        <time>2017-01-28T11:50:17.000Z</time>
      </trkpt>
      <trkpt lat="43.42464" lon="6.52571">
        <ele>48.200000762939</ele>
        <time>2017-01-28T11:50:34.000Z</time>
      </trkpt>
      <trkpt lat="43.42465" lon="6.52571">
        <ele>48.599998474121</ele>
        <time>2017-01-28T11:50:50.000Z</time>
      </trkpt>
      <trkpt lat="43.42465" lon="6.52571">
        <ele>48.599998474121</ele>
        <time>2017-01-28T11:51:00.000Z</time>
      </trkpt>
      <trkpt lat="43.42466" lon="6.52572">
        <ele>48.200000762939</ele>
        <time>2017-01-28T11:51:20.000Z</time>
      </trkpt>
      <trkpt lat="43.42467" lon="6.52573">
        <ele>47.599998474121</ele>
        <time>2017-01-28T11:51:36.000Z</time>
      </trkpt>
      <trkpt lat="43.42466" lon="6.52572">
        <ele>47.400001525879</ele>
        <time>2017-01-28T11:51:51.000Z</time>
      </trkpt>
      <trkpt lat="43.42466" lon="6.52573">
        <ele>47.799999237061</ele>
        <time>2017-01-28T11:52:08.000Z</time>
      </trkpt>
      <trkpt lat="43.42465" lon="6.5257">
        <ele>47.799999237061</ele>
        <time>2017-01-28T11:52:25.000Z</time>
      </trkpt>
      <trkpt lat="43.42464" lon="6.52567">
        <ele>48.400001525879</ele>
        <time>2017-01-28T11:52:39.000Z</time>
      </trkpt>
      <trkpt lat="43.42463" lon="6.52565">
        <ele>48.400001525879</ele>
        <time>2017-01-28T11:52:48.000Z</time>
      </trkpt>
      <trkpt lat="43.42463" lon="6.52565">
        <ele>48</ele>
        <time>2017-01-28T11:52:58.000Z</time>
      </trkpt>
      <trkpt lat="43.42461" lon="6.52565">
        <ele>48.599998474121</ele>
        <time>2017-01-28T11:53:10.000Z</time>
      </trkpt>
      <trkpt lat="43.42462" lon="6.52566">
        <ele>48.599998474121</ele>
        <time>2017-01-28T11:53:21.000Z</time>
      </trkpt>
      <trkpt lat="43.42462" lon="6.52566">
        <ele>48.400001525879</ele>
        <time>2017-01-28T11:53:37.000Z</time>
      </trkpt>
      <trkpt lat="43.42461" lon="6.52566">
        <ele>48.599998474121</ele>
        <time>2017-01-28T11:53:48.000Z</time>
      </trkpt>
      <trkpt lat="43.42461" lon="6.52566">
        <ele>48.799999237061</ele>
        <time>2017-01-28T11:53:53.000Z</time>
      </trkpt>
      <trkpt lat="43.4246" lon="6.52567">
        <ele>48.799999237061</ele>
        <time>2017-01-28T11:53:58.000Z</time>
      </trkpt>
      <trkpt lat="43.4246" lon="6.52567">
        <ele>48.599998474121</ele>
        <time>2017-01-28T11:54:07.000Z</time>
      </trkpt>
      <trkpt lat="43.42459" lon="6.52568">
        <ele>48.599998474121</ele>
        <time>2017-01-28T11:54:24.000Z</time>
      </trkpt>
      <trkpt lat="43.42459" lon="6.52568">
        <ele>48.599998474121</ele>
        <time>2017-01-28T11:54:37.000Z</time>
      </trkpt>
      <trkpt lat="43.42459" lon="6.52567">
        <ele>48.400001525879</ele>
        <time>2017-01-28T11:54:56.000Z</time>
      </trkpt>
      <trkpt lat="43.42458" lon="6.52567">
        <ele>48.599998474121</ele>
        <time>2017-01-28T11:55:14.000Z</time>
      </trkpt>
      <trkpt lat="43.42459" lon="6.52568">
        <ele>49</ele>
        <time>2017-01-28T11:55:31.000Z</time>
      </trkpt>
      <trkpt lat="43.4246" lon="6.52569">
        <ele>48.799999237061</ele>
        <time>2017-01-28T11:55:48.000Z</time>
      </trkpt>
      <trkpt lat="43.42461" lon="6.52569">
        <ele>48.799999237061</ele>
        <time>2017-01-28T11:56:03.000Z</time>
      </trkpt>
      <trkpt lat="43.42462" lon="6.52569">
        <ele>48.599998474121</ele>
        <time>2017-01-28T11:56:23.000Z</time>
      </trkpt>
      <trkpt lat="43.42463" lon="6.52569">
        <ele>48.400001525879</ele>
        <time>2017-01-28T11:56:42.000Z</time>
      </trkpt>
      <trkpt lat="43.42463" lon="6.52568">
        <ele>48.400001525879</ele>
        <time>2017-01-28T11:57:00.000Z</time>
      </trkpt>
      <trkpt lat="43.42462" lon="6.52568">
        <ele>48</ele>
        <time>2017-01-28T11:57:18.000Z</time>
      </trkpt>
      <trkpt lat="43.42461" lon="6.52568">
        <ele>48.799999237061</ele>
        <time>2017-01-28T11:57:32.000Z</time>
      </trkpt>
      <trkpt lat="43.4246" lon="6.52571">
        <ele>49.400001525879</ele>
        <time>2017-01-28T11:57:39.000Z</time>
      </trkpt>
      <trkpt lat="43.42459" lon="6.52573">
        <ele>49.599998474121</ele>
        <time>2017-01-28T11:57:41.000Z</time>
      </trkpt>
      <trkpt lat="43.4246" lon="6.52576">
        <ele>49.400001525879</ele>
        <time>2017-01-28T11:57:43.000Z</time>
      </trkpt>
      <trkpt lat="43.42462" lon="6.52582">
        <ele>49.599998474121</ele>
        <time>2017-01-28T11:57:49.000Z</time>
      </trkpt>
      <trkpt lat="43.42466" lon="6.52581">
        <ele>49.400001525879</ele>
        <time>2017-01-28T11:57:54.000Z</time>
      </trkpt>
      <trkpt lat="43.42467" lon="6.52582">
        <ele>49.400001525879</ele>
        <time>2017-01-28T11:57:55.000Z</time>
      </trkpt>
      <trkpt lat="43.42468" lon="6.52584">
        <ele>48.799999237061</ele>
        <time>2017-01-28T11:57:58.000Z</time>
      </trkpt>
      <trkpt lat="43.42468" lon="6.52588">
        <ele>48.200000762939</ele>
        <time>2017-01-28T11:58:02.000Z</time>
      </trkpt>
      <trkpt lat="43.42467" lon="6.52588">
        <ele>48</ele>
        <time>2017-01-28T11:58:04.000Z</time>
      </trkpt>
      <trkpt lat="43.42466" lon="6.52585">
        <ele>47.599998474121</ele>
        <time>2017-01-28T11:58:06.000Z</time>
      </trkpt>
      <trkpt lat="43.42465" lon="6.52584">
        <ele>47.799999237061</ele>
        <time>2017-01-28T11:58:08.000Z</time>
      </trkpt>
      <trkpt lat="43.42464" lon="6.52583">
        <ele>48</ele>
        <time>2017-01-28T11:58:09.000Z</time>
      </trkpt>
      <trkpt lat="43.42464" lon="6.52582">
        <ele>48.400001525879</ele>
        <time>2017-01-28T11:58:10.000Z</time>
      </trkpt>
      <trkpt lat="43.42463" lon="6.5258">
        <ele>48.599998474121</ele>
        <time>2017-01-28T11:58:11.000Z</time>
      </trkpt>
      <trkpt lat="43.42462" lon="6.52577">
        <ele>49.200000762939</ele>
        <time>2017-01-28T11:58:14.000Z</time>
      </trkpt>
      <trkpt lat="43.42457" lon="6.52571">
        <ele>49.400001525879</ele>
        <time>2017-01-28T11:58:20.000Z</time>
      </trkpt>
      <trkpt lat="43.42457" lon="6.5257">
        <ele>49.200000762939</ele>
        <time>2017-01-28T11:58:26.000Z</time>
      </trkpt>
      <trkpt lat="43.42456" lon="6.52569">
        <ele>49.799999237061</ele>
        <time>2017-01-28T11:58:30.000Z</time>
      </trkpt>
      <trkpt lat="43.42456" lon="6.52569">
        <ele>49.599998474121</ele>
        <time>2017-01-28T11:58:32.000Z</time>
      </trkpt>
      <trkpt lat="43.42455" lon="6.52568">
        <ele>49.200000762939</ele>
        <time>2017-01-28T11:58:38.000Z</time>
      </trkpt>
      <trkpt lat="43.42455" lon="6.52568">
        <ele>49.400001525879</ele>
        <time>2017-01-28T11:58:43.000Z</time>
      </trkpt>
      <trkpt lat="43.42455" lon="6.52566">
        <ele>49.400001525879</ele>
        <time>2017-01-28T11:58:52.000Z</time>
      </trkpt>
      <trkpt lat="43.42455" lon="6.52565">
        <ele>49.200000762939</ele>
        <time>2017-01-28T11:59:04.000Z</time>
      </trkpt>
      <trkpt lat="43.42455" lon="6.52565">
        <ele>49</ele>
        <time>2017-01-28T11:59:15.000Z</time>
      </trkpt>
      <trkpt lat="43.42455" lon="6.52565">
        <ele>49.200000762939</ele>
        <time>2017-01-28T11:59:25.000Z</time>
      </trkpt>
      <trkpt lat="43.42455" lon="6.52563">
        <ele>49</ele>
        <time>2017-01-28T11:59:34.000Z</time>
      </trkpt>
      <trkpt lat="43.42454" lon="6.52562">
        <ele>48.799999237061</ele>
        <time>2017-01-28T11:59:47.000Z</time>
      </trkpt>
      <trkpt lat="43.42454" lon="6.52562">
        <ele>49</ele>
        <time>2017-01-28T11:59:55.000Z</time>
      </trkpt>
      <trkpt lat="43.42454" lon="6.52562">
        <ele>48.799999237061</ele>
        <time>2017-01-28T12:00:01.000Z</time>
      </trkpt>
      <trkpt lat="43.42454" lon="6.52562">
        <ele>49.200000762939</ele>
        <time>2017-01-28T12:00:12.000Z</time>
      </trkpt>
      <trkpt lat="43.42453" lon="6.52562">
        <ele>49</ele>
        <time>2017-01-28T12:00:22.000Z</time>
      </trkpt>
      <trkpt lat="43.42453" lon="6.52563">
        <ele>49</ele>
        <time>2017-01-28T12:00:30.000Z</time>
      </trkpt>
      <trkpt lat="43.42453" lon="6.52562">
        <ele>49</ele>
        <time>2017-01-28T12:00:34.000Z</time>
      </trkpt>
      <trkpt lat="43.42454" lon="6.52564">
        <ele>49.200000762939</ele>
        <time>2017-01-28T12:00:44.000Z</time>
      </trkpt>
      <trkpt lat="43.42454" lon="6.52564">
        <ele>48.799999237061</ele>
        <time>2017-01-28T12:01:01.000Z</time>
      </trkpt>
      <trkpt lat="43.42454" lon="6.52564">
        <ele>48.400001525879</ele>
        <time>2017-01-28T12:01:18.000Z</time>
      </trkpt>
      <trkpt lat="43.42455" lon="6.52564">
        <ele>49.200000762939</ele>
        <time>2017-01-28T12:01:34.000Z</time>
      </trkpt>
      <trkpt lat="43.42455" lon="6.52564">
        <ele>49</ele>
        <time>2017-01-28T12:01:45.000Z</time>
      </trkpt>
      <trkpt lat="43.42455" lon="6.52564">
        <ele>49</ele>
        <time>2017-01-28T12:01:53.000Z</time>
      </trkpt>
      <trkpt lat="43.42455" lon="6.52564">
        <ele>49.200000762939</ele>
        <time>2017-01-28T12:02:01.000Z</time>
      </trkpt>
      <trkpt lat="43.42456" lon="6.52565">
        <ele>48.799999237061</ele>
        <time>2017-01-28T12:02:07.000Z</time>
      </trkpt>
      <trkpt lat="43.42456" lon="6.52565">
        <ele>48.799999237061</ele>
        <time>2017-01-28T12:02:22.000Z</time>
      </trkpt>
      <trkpt lat="43.42455" lon="6.52565">
        <ele>48.799999237061</ele>
        <time>2017-01-28T12:02:29.000Z</time>
      </trkpt>
      <trkpt lat="43.42456" lon="6.52564">
        <ele>48.400001525879</ele>
        <time>2017-01-28T12:02:36.000Z</time>
      </trkpt>
      <trkpt lat="43.42457" lon="6.52567">
        <ele>48.799999237061</ele>
        <time>2017-01-28T12:02:44.000Z</time>
      </trkpt>
      <trkpt lat="43.42458" lon="6.52566">
        <ele>48.799999237061</ele>
        <time>2017-01-28T12:02:54.000Z</time>
      </trkpt>
      <trkpt lat="43.42458" lon="6.52565">
        <ele>49</ele>
        <time>2017-01-28T12:03:09.000Z</time>
      </trkpt>
      <trkpt lat="43.42457" lon="6.52564">
        <ele>49.200000762939</ele>
        <time>2017-01-28T12:03:18.000Z</time>
      </trkpt>
      <trkpt lat="43.42456" lon="6.52564">
        <ele>49</ele>
        <time>2017-01-28T12:03:28.000Z</time>
      </trkpt>
      <trkpt lat="43.42457" lon="6.52564">
        <ele>48.599998474121</ele>
        <time>2017-01-28T12:03:38.000Z</time>
      </trkpt>
      <trkpt lat="43.42456" lon="6.52564">
        <ele>48.599998474121</ele>
        <time>2017-01-28T12:03:49.000Z</time>
      </trkpt>
      <trkpt lat="43.42455" lon="6.52565">
        <ele>48.799999237061</ele>
        <time>2017-01-28T12:03:58.000Z</time>
      </trkpt>
      <trkpt lat="43.42455" lon="6.52564">
        <ele>49.200000762939</ele>
        <time>2017-01-28T12:04:05.000Z</time>
      </trkpt>
      <trkpt lat="43.42455" lon="6.52564">
        <ele>49</ele>
        <time>2017-01-28T12:04:11.000Z</time>
      </trkpt>
      <trkpt lat="43.42454" lon="6.52564">
        <ele>49</ele>
        <time>2017-01-28T12:04:19.000Z</time>
      </trkpt>
      <trkpt lat="43.42456" lon="6.52566">
        <ele>48.400001525879</ele>
        <time>2017-01-28T12:04:27.000Z</time>
      </trkpt>
      <trkpt lat="43.42455" lon="6.52568">
        <ele>48.400001525879</ele>
        <time>2017-01-28T12:04:38.000Z</time>
      </trkpt>
      <trkpt lat="43.42455" lon="6.52567">
        <ele>48.599998474121</ele>
        <time>2017-01-28T12:04:51.000Z</time>
      </trkpt>
      <trkpt lat="43.42456" lon="6.52567">
        <ele>48.799999237061</ele>
        <time>2017-01-28T12:05:06.000Z</time>
      </trkpt>
      <trkpt lat="43.42456" lon="6.52566">
        <ele>49.200000762939</ele>
        <time>2017-01-28T12:05:27.000Z</time>
      </trkpt>
      <trkpt lat="43.42456" lon="6.52566">
        <ele>48.599998474121</ele>
        <time>2017-01-28T12:05:45.000Z</time>
      </trkpt>
      <trkpt lat="43.42456" lon="6.52567">
        <ele>48.400001525879</ele>
        <time>2017-01-28T12:05:55.000Z</time>
      </trkpt>
      <trkpt lat="43.42457" lon="6.52567">
        <ele>48.400001525879</ele>
        <time>2017-01-28T12:05:57.000Z</time>
      </trkpt>
      <trkpt lat="43.42459" lon="6.52567">
        <ele>48.400001525879</ele>
        <time>2017-01-28T12:06:00.000Z</time>
      </trkpt>
      <trkpt lat="43.42459" lon="6.52566">
        <ele>48.200000762939</ele>
        <time>2017-01-28T12:06:04.000Z</time>
      </trkpt>
      <trkpt lat="43.42459" lon="6.52566">
        <ele>48.799999237061</ele>
        <time>2017-01-28T12:06:16.000Z</time>
      </trkpt>
      <trkpt lat="43.42458" lon="6.52567">
        <ele>49.200000762939</ele>
        <time>2017-01-28T12:06:24.000Z</time>
      </trkpt>
      <trkpt lat="43.42457" lon="6.52568">
        <ele>49</ele>
        <time>2017-01-28T12:06:30.000Z</time>
      </trkpt>
      <trkpt lat="43.42457" lon="6.52568">
        <ele>49</ele>
        <time>2017-01-28T12:06:42.000Z</time>
      </trkpt>
      <trkpt lat="43.42456" lon="6.5257">
        <ele>48.799999237061</ele>
        <time>2017-01-28T12:06:56.000Z</time>
      </trkpt>
      <trkpt lat="43.42456" lon="6.52569">
        <ele>49.400001525879</ele>
        <time>2017-01-28T12:07:00.000Z</time>
      </trkpt>
      <trkpt lat="43.42457" lon="6.52569">
        <ele>49.799999237061</ele>
        <time>2017-01-28T12:07:02.000Z</time>
      </trkpt>
      <trkpt lat="43.42456" lon="6.52568">
        <ele>49.599998474121</ele>
        <time>2017-01-28T12:07:07.000Z</time>
      </trkpt>
      <trkpt lat="43.42456" lon="6.52568">
        <ele>49</ele>
        <time>2017-01-28T12:07:13.000Z</time>
      </trkpt>
      <trkpt lat="43.42455" lon="6.52567">
        <ele>48.799999237061</ele>
        <time>2017-01-28T12:07:36.000Z</time>
      </trkpt>
      <trkpt lat="43.42455" lon="6.52567">
        <ele>49</ele>
        <time>2017-01-28T12:07:46.000Z</time>
      </trkpt>
      <trkpt lat="43.42457" lon="6.52564">
        <ele>48.799999237061</ele>
        <time>2017-01-28T12:07:56.000Z</time>
      </trkpt>
      <trkpt lat="43.42457" lon="6.52563">
        <ele>49</ele>
        <time>2017-01-28T12:07:57.000Z</time>
      </trkpt>
      <trkpt lat="43.42463" lon="6.52562">
        <ele>48.799999237061</ele>
        <time>2017-01-28T12:08:01.000Z</time>
      </trkpt>
      <trkpt lat="43.42465" lon="6.52561">
        <ele>48.599998474121</ele>
        <time>2017-01-28T12:08:02.000Z</time>
      </trkpt>
      <trkpt lat="43.42474" lon="6.52555">
        <ele>48.599998474121</ele>
        <time>2017-01-28T12:08:09.000Z</time>
      </trkpt>
      <trkpt lat="43.42475" lon="6.52556">
        <ele>47.799999237061</ele>
        <time>2017-01-28T12:08:14.000Z</time>
      </trkpt>
      <trkpt lat="43.42475" lon="6.52556">
        <ele>47.799999237061</ele>
        <time>2017-01-28T12:08:16.000Z</time>
      </trkpt>
      <trkpt lat="43.42477" lon="6.52552">
        <ele>48.400001525879</ele>
        <time>2017-01-28T12:08:31.000Z</time>
      </trkpt>
      <trkpt lat="43.42489" lon="6.52544">
        <ele>48.599998474121</ele>
        <time>2017-01-28T12:08:36.000Z</time>
      </trkpt>
      <trkpt lat="43.42504" lon="6.52535">
        <ele>48.200000762939</ele>
        <time>2017-01-28T12:08:43.000Z</time>
      </trkpt>
      <trkpt lat="43.42522" lon="6.52529">
        <ele>48</ele>
        <time>2017-01-28T12:08:51.000Z</time>
      </trkpt>
      <trkpt lat="43.42538" lon="6.52534">
        <ele>47.799999237061</ele>
        <time>2017-01-28T12:08:58.000Z</time>
      </trkpt>
      <trkpt lat="43.42558" lon="6.52544">
        <ele>46.799999237061</ele>
        <time>2017-01-28T12:09:05.000Z</time>
      </trkpt>
      <trkpt lat="43.42576" lon="6.52551">
        <ele>46.599998474121</ele>
        <time>2017-01-28T12:09:11.000Z</time>
      </trkpt>
      <trkpt lat="43.426" lon="6.5256">
        <ele>46.799999237061</ele>
        <time>2017-01-28T12:09:20.000Z</time>
      </trkpt>
      <trkpt lat="43.42617" lon="6.52558">
        <ele>46.400001525879</ele>
        <time>2017-01-28T12:09:26.000Z</time>
      </trkpt>
      <trkpt lat="43.42639" lon="6.52545">
        <ele>46</ele>
        <time>2017-01-28T12:09:34.000Z</time>
      </trkpt>
      <trkpt lat="43.42646" lon="6.52541">
        <ele>45.599998474121</ele>
        <time>2017-01-28T12:09:36.000Z</time>
      </trkpt>
      <trkpt lat="43.4266" lon="6.52525">
        <ele>45</ele>
        <time>2017-01-28T12:09:41.000Z</time>
      </trkpt>
      <trkpt lat="43.42665" lon="6.52518">
        <ele>44.599998474121</ele>
        <time>2017-01-28T12:09:43.000Z</time>
      </trkpt>
      <trkpt lat="43.42673" lon="6.52499">
        <ele>43.599998474121</ele>
        <time>2017-01-28T12:09:47.000Z</time>
      </trkpt>
      <trkpt lat="43.42675" lon="6.52494">
        <ele>43.400001525879</ele>
        <time>2017-01-28T12:09:48.000Z</time>
      </trkpt>
      <trkpt lat="43.4268" lon="6.52467">
        <ele>42.200000762939</ele>
        <time>2017-01-28T12:09:53.000Z</time>
      </trkpt>
      <trkpt lat="43.42682" lon="6.52461">
        <ele>42</ele>
        <time>2017-01-28T12:09:54.000Z</time>
      </trkpt>
      <trkpt lat="43.4269" lon="6.52452">
        <ele>41</ele>
        <time>2017-01-28T12:09:57.000Z</time>
      </trkpt>
      <trkpt lat="43.42712" lon="6.52436">
        <ele>40.400001525879</ele>
        <time>2017-01-28T12:10:04.000Z</time>
      </trkpt>
      <trkpt lat="43.42719" lon="6.52435">
        <ele>40</ele>
        <time>2017-01-28T12:10:06.000Z</time>
      </trkpt>
      <trkpt lat="43.42733" lon="6.52438">
        <ele>39.599998474121</ele>
        <time>2017-01-28T12:10:10.000Z</time>
      </trkpt>
      <trkpt lat="43.42751" lon="6.52435">
        <ele>39</ele>
        <time>2017-01-28T12:10:15.000Z</time>
      </trkpt>
      <trkpt lat="43.42755" lon="6.52433">
        <ele>38.799999237061</ele>
        <time>2017-01-28T12:10:16.000Z</time>
      </trkpt>
      <trkpt lat="43.42776" lon="6.52429">
        <ele>38.599998474121</ele>
        <time>2017-01-28T12:10:22.000Z</time>
      </trkpt>
      <trkpt lat="43.42792" lon="6.52417">
        <ele>38</ele>
        <time>2017-01-28T12:10:27.000Z</time>
      </trkpt>
      <trkpt lat="43.42796" lon="6.52409">
        <ele>37.799999237061</ele>
        <time>2017-01-28T12:10:29.000Z</time>
      </trkpt>
      <trkpt lat="43.42798" lon="6.52398">
        <ele>37.799999237061</ele>
        <time>2017-01-28T12:10:31.000Z</time>
      </trkpt>
      <trkpt lat="43.42808" lon="6.52378">
        <ele>37.200000762939</ele>
        <time>2017-01-28T12:10:36.000Z</time>
      </trkpt>
      <trkpt lat="43.42817" lon="6.52371">
        <ele>36.799999237061</ele>
        <time>2017-01-28T12:10:39.000Z</time>
      </trkpt>
      <trkpt lat="43.42825" lon="6.5237">
        <ele>36.799999237061</ele>
        <time>2017-01-28T12:10:42.000Z</time>
      </trkpt>
      <trkpt lat="43.4284" lon="6.52369">
        <ele>37</ele>
        <time>2017-01-28T12:10:48.000Z</time>
      </trkpt>
      <trkpt lat="43.42851" lon="6.52369">
        <ele>36.799999237061</ele>
        <time>2017-01-28T12:10:54.000Z</time>
      </trkpt>
      <trkpt lat="43.42857" lon="6.52374">
        <ele>37</ele>
        <time>2017-01-28T12:10:57.000Z</time>
      </trkpt>
      <trkpt lat="43.42859" lon="6.52378">
        <ele>37</ele>
        <time>2017-01-28T12:10:59.000Z</time>
      </trkpt>
      <trkpt lat="43.42869" lon="6.52385">
        <ele>36.799999237061</ele>
        <time>2017-01-28T12:11:04.000Z</time>
      </trkpt>
      <trkpt lat="43.42876" lon="6.52387">
        <ele>36.799999237061</ele>
        <time>2017-01-28T12:11:07.000Z</time>
      </trkpt>
      <trkpt lat="43.42881" lon="6.52389">
        <ele>37</ele>
        <time>2017-01-28T12:11:09.000Z</time>
      </trkpt>
      <trkpt lat="43.42893" lon="6.52393">
        <ele>37</ele>
        <time>2017-01-28T12:11:14.000Z</time>
      </trkpt>
      <trkpt lat="43.42906" lon="6.52399">
        <ele>37.400001525879</ele>
        <time>2017-01-28T12:11:20.000Z</time>
      </trkpt>
      <trkpt lat="43.42919" lon="6.52407">
        <ele>37.799999237061</ele>
        <time>2017-01-28T12:11:26.000Z</time>
      </trkpt>
      <trkpt lat="43.42932" lon="6.52405">
        <ele>38.400001525879</ele>
        <time>2017-01-28T12:11:31.000Z</time>
      </trkpt>
      <trkpt lat="43.42945" lon="6.524">
        <ele>38.799999237061</ele>
        <time>2017-01-28T12:11:37.000Z</time>
      </trkpt>
      <trkpt lat="43.42961" lon="6.52388">
        <ele>38.799999237061</ele>
        <time>2017-01-28T12:11:44.000Z</time>
      </trkpt>
      <trkpt lat="43.42963" lon="6.52387">
        <ele>38.799999237061</ele>
        <time>2017-01-28T12:11:45.000Z</time>
      </trkpt>
      <trkpt lat="43.42973" lon="6.52379">
        <ele>39</ele>
        <time>2017-01-28T12:11:50.000Z</time>
      </trkpt>
      <trkpt lat="43.42983" lon="6.5238">
        <ele>39.400001525879</ele>
        <time>2017-01-28T12:11:54.000Z</time>
      </trkpt>
      <trkpt lat="43.42985" lon="6.52382">
        <ele>39.599998474121</ele>
        <time>2017-01-28T12:11:55.000Z</time>
      </trkpt>
      <trkpt lat="43.4299" lon="6.52388">
        <ele>40</ele>
        <time>2017-01-28T12:11:58.000Z</time>
      </trkpt>
      <trkpt lat="43.42992" lon="6.52394">
        <ele>40.200000762939</ele>
        <time>2017-01-28T12:12:00.000Z</time>
      </trkpt>
      <trkpt lat="43.42991" lon="6.52398">
        <ele>40.200000762939</ele>
        <time>2017-01-28T12:12:01.000Z</time>
      </trkpt>
      <trkpt lat="43.42994" lon="6.52412">
        <ele>40.400001525879</ele>
        <time>2017-01-28T12:12:06.000Z</time>
      </trkpt>
      <trkpt lat="43.42998" lon="6.52428">
        <ele>41</ele>
        <time>2017-01-28T12:12:12.000Z</time>
      </trkpt>
      <trkpt lat="43.42998" lon="6.5243">
        <ele>41.200000762939</ele>
        <time>2017-01-28T12:12:13.000Z</time>
      </trkpt>
      <trkpt lat="43.42998" lon="6.52433">
        <ele>41.400001525879</ele>
        <time>2017-01-28T12:12:14.000Z</time>
      </trkpt>
      <trkpt lat="43.43" lon="6.52439">
        <ele>42.200000762939</ele>
        <time>2017-01-28T12:12:17.000Z</time>
      </trkpt>
      <trkpt lat="43.43001" lon="6.52442">
        <ele>42.200000762939</ele>
        <time>2017-01-28T12:12:18.000Z</time>
      </trkpt>
      <trkpt lat="43.43" lon="6.52455">
        <ele>43.200000762939</ele>
        <time>2017-01-28T12:12:24.000Z</time>
      </trkpt>
      <trkpt lat="43.42999" lon="6.52459">
        <ele>43.599998474121</ele>
        <time>2017-01-28T12:12:26.000Z</time>
      </trkpt>
      <trkpt lat="43.42997" lon="6.52466">
        <ele>44.200000762939</ele>
        <time>2017-01-28T12:12:30.000Z</time>
      </trkpt>
      <trkpt lat="43.42994" lon="6.52472">
        <ele>45</ele>
        <time>2017-01-28T12:12:33.000Z</time>
      </trkpt>
      <trkpt lat="43.42993" lon="6.52475">
        <ele>45.599998474121</ele>
        <time>2017-01-28T12:12:35.000Z</time>
      </trkpt>
      <trkpt lat="43.42989" lon="6.52485">
        <ele>46.599998474121</ele>
        <time>2017-01-28T12:12:40.000Z</time>
      </trkpt>
      <trkpt lat="43.42983" lon="6.52498">
        <ele>47.400001525879</ele>
        <time>2017-01-28T12:12:47.000Z</time>
      </trkpt>
      <trkpt lat="43.42982" lon="6.525">
        <ele>47.799999237061</ele>
        <time>2017-01-28T12:12:48.000Z</time>
      </trkpt>
      <trkpt lat="43.42979" lon="6.52508">
        <ele>48.799999237061</ele>
        <time>2017-01-28T12:12:53.000Z</time>
      </trkpt>
      <trkpt lat="43.42979" lon="6.52509">
        <ele>49</ele>
        <time>2017-01-28T12:12:54.000Z</time>
      </trkpt>
      <trkpt lat="43.42974" lon="6.52515">
        <ele>49.799999237061</ele>
        <time>2017-01-28T12:12:59.000Z</time>
      </trkpt>
      <trkpt lat="43.42973" lon="6.52515">
        <ele>49.799999237061</ele>
        <time>2017-01-28T12:13:00.000Z</time>
      </trkpt>
      <trkpt lat="43.42972" lon="6.52514">
        <ele>50</ele>
        <time>2017-01-28T12:13:01.000Z</time>
      </trkpt>
      <trkpt lat="43.42972" lon="6.52508">
        <ele>51</ele>
        <time>2017-01-28T12:13:05.000Z</time>
      </trkpt>
      <trkpt lat="43.42972" lon="6.52506">
        <ele>51.200000762939</ele>
        <time>2017-01-28T12:13:06.000Z</time>
      </trkpt>
      <trkpt lat="43.42973" lon="6.52501">
        <ele>51.799999237061</ele>
        <time>2017-01-28T12:13:09.000Z</time>
      </trkpt>
      <trkpt lat="43.42973" lon="6.52499">
        <ele>52</ele>
        <time>2017-01-28T12:13:10.000Z</time>
      </trkpt>
      <trkpt lat="43.42973" lon="6.52495">
        <ele>52.400001525879</ele>
        <time>2017-01-28T12:13:12.000Z</time>
      </trkpt>
      <trkpt lat="43.42969" lon="6.52479">
        <ele>53.200000762939</ele>
        <time>2017-01-28T12:13:20.000Z</time>
      </trkpt>
      <trkpt lat="43.42966" lon="6.52468">
        <ele>54.200000762939</ele>
        <time>2017-01-28T12:13:26.000Z</time>
      </trkpt>
      <trkpt lat="43.42964" lon="6.52465">
        <ele>54.799999237061</ele>
        <time>2017-01-28T12:13:28.000Z</time>
      </trkpt>
      <trkpt lat="43.42962" lon="6.52463">
        <ele>55.200000762939</ele>
        <time>2017-01-28T12:13:30.000Z</time>
      </trkpt>
      <trkpt lat="43.4296" lon="6.52463">
        <ele>55.400001525879</ele>
        <time>2017-01-28T12:13:31.000Z</time>
      </trkpt>
      <trkpt lat="43.42958" lon="6.52464">
        <ele>55.799999237061</ele>
        <time>2017-01-28T12:13:33.000Z</time>
      </trkpt>
      <trkpt lat="43.42952" lon="6.52471">
        <ele>56.400001525879</ele>
        <time>2017-01-28T12:13:38.000Z</time>
      </trkpt>
      <trkpt lat="43.42951" lon="6.52473">
        <ele>56.599998474121</ele>
        <time>2017-01-28T12:13:39.000Z</time>
      </trkpt>
      <trkpt lat="43.42948" lon="6.52482">
        <ele>57.599998474121</ele>
        <time>2017-01-28T12:13:44.000Z</time>
      </trkpt>
      <trkpt lat="43.42946" lon="6.52487">
        <ele>58.400001525879</ele>
        <time>2017-01-28T12:13:47.000Z</time>
      </trkpt>
      <trkpt lat="43.42945" lon="6.52489">
        <ele>58.799999237061</ele>
        <time>2017-01-28T12:13:48.000Z</time>
      </trkpt>
      <trkpt lat="43.4294" lon="6.52494">
        <ele>59.799999237061</ele>
        <time>2017-01-28T12:13:52.000Z</time>
      </trkpt>
      <trkpt lat="43.42939" lon="6.52495">
        <ele>60.200000762939</ele>
        <time>2017-01-28T12:13:53.000Z</time>
      </trkpt>
      <trkpt lat="43.42935" lon="6.52498">
        <ele>61.200000762939</ele>
        <time>2017-01-28T12:13:56.000Z</time>
      </trkpt>
      <trkpt lat="43.42931" lon="6.52503">
        <ele>62.200000762939</ele>
        <time>2017-01-28T12:13:59.000Z</time>
      </trkpt>
      <trkpt lat="43.4293" lon="6.52504">
        <ele>62.200000762939</ele>
        <time>2017-01-28T12:14:00.000Z</time>
      </trkpt>
      <trkpt lat="43.42924" lon="6.5251">
        <ele>63.400001525879</ele>
        <time>2017-01-28T12:14:05.000Z</time>
      </trkpt>
      <trkpt lat="43.42916" lon="6.52517">
        <ele>64.400001525879</ele>
        <time>2017-01-28T12:14:11.000Z</time>
      </trkpt>
      <trkpt lat="43.42906" lon="6.5252">
        <ele>65.400001525879</ele>
        <time>2017-01-28T12:14:17.000Z</time>
      </trkpt>
      <trkpt lat="43.42904" lon="6.5252">
        <ele>65.599998474121</ele>
        <time>2017-01-28T12:14:18.000Z</time>
      </trkpt>
      <trkpt lat="43.42896" lon="6.52522">
        <ele>66.599998474121</ele>
        <time>2017-01-28T12:14:23.000Z</time>
      </trkpt>
      <trkpt lat="43.42895" lon="6.52523">
        <ele>66.800003051758</ele>
        <time>2017-01-28T12:14:24.000Z</time>
      </trkpt>
      <trkpt lat="43.42894" lon="6.52526">
        <ele>67.400001525879</ele>
        <time>2017-01-28T12:14:26.000Z</time>
      </trkpt>
      <trkpt lat="43.42894" lon="6.5253">
        <ele>67.800003051758</ele>
        <time>2017-01-28T12:14:28.000Z</time>
      </trkpt>
      <trkpt lat="43.42896" lon="6.52532">
        <ele>68.199996948242</ele>
        <time>2017-01-28T12:14:30.000Z</time>
      </trkpt>
      <trkpt lat="43.42897" lon="6.52533">
        <ele>68.400001525879</ele>
        <time>2017-01-28T12:14:31.000Z</time>
      </trkpt>
      <trkpt lat="43.42899" lon="6.52534">
        <ele>68.800003051758</ele>
        <time>2017-01-28T12:14:33.000Z</time>
      </trkpt>
      <trkpt lat="43.42906" lon="6.52536">
        <ele>70</ele>
        <time>2017-01-28T12:14:38.000Z</time>
      </trkpt>
      <trkpt lat="43.42907" lon="6.52537">
        <ele>70.199996948242</ele>
        <time>2017-01-28T12:14:39.000Z</time>
      </trkpt>
      <trkpt lat="43.42912" lon="6.52539">
        <ele>71</ele>
        <time>2017-01-28T12:14:43.000Z</time>
      </trkpt>
      <trkpt lat="43.42917" lon="6.52541">
        <ele>71.800003051758</ele>
        <time>2017-01-28T12:14:47.000Z</time>
      </trkpt>
      <trkpt lat="43.42919" lon="6.52543">
        <ele>72.199996948242</ele>
        <time>2017-01-28T12:14:49.000Z</time>
      </trkpt>
      <trkpt lat="43.42924" lon="6.52554">
        <ele>73.199996948242</ele>
        <time>2017-01-28T12:14:55.000Z</time>
      </trkpt>
      <trkpt lat="43.42926" lon="6.52558">
        <ele>73.599998474121</ele>
        <time>2017-01-28T12:14:57.000Z</time>
      </trkpt>
      <trkpt lat="43.42926" lon="6.52564">
        <ele>74.199996948242</ele>
        <time>2017-01-28T12:15:00.000Z</time>
      </trkpt>
      <trkpt lat="43.42927" lon="6.52566">
        <ele>74.400001525879</ele>
        <time>2017-01-28T12:15:01.000Z</time>
      </trkpt>
      <trkpt lat="43.42929" lon="6.52576">
        <ele>75.400001525879</ele>
        <time>2017-01-28T12:15:06.000Z</time>
      </trkpt>
      <trkpt lat="43.42929" lon="6.52578">
        <ele>75.599998474121</ele>
        <time>2017-01-28T12:15:07.000Z</time>
      </trkpt>
      <trkpt lat="43.4293" lon="6.5259">
        <ele>76.599998474121</ele>
        <time>2017-01-28T12:15:13.000Z</time>
      </trkpt>
      <trkpt lat="43.42931" lon="6.52597">
        <ele>77.199996948242</ele>
        <time>2017-01-28T12:15:16.000Z</time>
      </trkpt>
      <trkpt lat="43.42932" lon="6.52603">
        <ele>77.599998474121</ele>
        <time>2017-01-28T12:15:19.000Z</time>
      </trkpt>
      <trkpt lat="43.42934" lon="6.52613">
        <ele>78.800003051758</ele>
        <time>2017-01-28T12:15:23.000Z</time>
      </trkpt>
      <trkpt lat="43.42939" lon="6.52626">
        <ele>79.599998474121</ele>
        <time>2017-01-28T12:15:30.000Z</time>
      </trkpt>
      <trkpt lat="43.4294" lon="6.52627">
        <ele>80</ele>
        <time>2017-01-28T12:15:31.000Z</time>
      </trkpt>
      <trkpt lat="43.42945" lon="6.52637">
        <ele>81</ele>
        <time>2017-01-28T12:15:37.000Z</time>
      </trkpt>
      <trkpt lat="43.42946" lon="6.52638">
        <ele>81.400001525879</ele>
        <time>2017-01-28T12:15:38.000Z</time>
      </trkpt>
      <trkpt lat="43.42949" lon="6.52643">
        <ele>82.199996948242</ele>
        <time>2017-01-28T12:15:42.000Z</time>
      </trkpt>
      <trkpt lat="43.42951" lon="6.52646">
        <ele>82.400001525879</ele>
        <time>2017-01-28T12:15:44.000Z</time>
      </trkpt>
      <trkpt lat="43.42956" lon="6.52655">
        <ele>83.400001525879</ele>
        <time>2017-01-28T12:15:50.000Z</time>
      </trkpt>
      <trkpt lat="43.42957" lon="6.52656">
        <ele>83.599998474121</ele>
        <time>2017-01-28T12:15:51.000Z</time>
      </trkpt>
      <trkpt lat="43.42961" lon="6.52662">
        <ele>84.400001525879</ele>
        <time>2017-01-28T12:15:55.000Z</time>
      </trkpt>
      <trkpt lat="43.42966" lon="6.52668">
        <ele>85</ele>
        <time>2017-01-28T12:15:59.000Z</time>
      </trkpt>
      <trkpt lat="43.42969" lon="6.52671">
        <ele>85.400001525879</ele>
        <time>2017-01-28T12:16:01.000Z</time>
      </trkpt>
      <trkpt lat="43.42973" lon="6.52677">
        <ele>86.599998474121</ele>
        <time>2017-01-28T12:16:05.000Z</time>
      </trkpt>
      <trkpt lat="43.42977" lon="6.52683">
        <ele>87.599998474121</ele>
        <time>2017-01-28T12:16:09.000Z</time>
      </trkpt>
      <trkpt lat="43.4298" lon="6.52688">
        <ele>88.199996948242</ele>
        <time>2017-01-28T12:16:12.000Z</time>
      </trkpt>
      <trkpt lat="43.42984" lon="6.52695">
        <ele>88.800003051758</ele>
        <time>2017-01-28T12:16:16.000Z</time>
      </trkpt>
      <trkpt lat="43.42988" lon="6.52701">
        <ele>89.800003051758</ele>
        <time>2017-01-28T12:16:20.000Z</time>
      </trkpt>
      <trkpt lat="43.42991" lon="6.5271">
        <ele>90.800003051758</ele>
        <time>2017-01-28T12:16:25.000Z</time>
      </trkpt>
      <trkpt lat="43.42992" lon="6.52712">
        <ele>91</ele>
        <time>2017-01-28T12:16:26.000Z</time>
      </trkpt>
      <trkpt lat="43.42995" lon="6.52724">
        <ele>91.800003051758</ele>
        <time>2017-01-28T12:16:32.000Z</time>
      </trkpt>
      <trkpt lat="43.42997" lon="6.5273">
        <ele>92.400001525879</ele>
        <time>2017-01-28T12:16:35.000Z</time>
      </trkpt>
      <trkpt lat="43.42998" lon="6.52736">
        <ele>93</ele>
        <time>2017-01-28T12:16:38.000Z</time>
      </trkpt>
      <trkpt lat="43.43001" lon="6.52746">
        <ele>94</ele>
        <time>2017-01-28T12:16:43.000Z</time>
      </trkpt>
      <trkpt lat="43.43003" lon="6.52754">
        <ele>95.199996948242</ele>
        <time>2017-01-28T12:16:47.000Z</time>
      </trkpt>
      <trkpt lat="43.43004" lon="6.52759">
        <ele>95.800003051758</ele>
        <time>2017-01-28T12:16:50.000Z</time>
      </trkpt>
      <trkpt lat="43.43005" lon="6.52763">
        <ele>96.400001525879</ele>
        <time>2017-01-28T12:16:52.000Z</time>
      </trkpt>
      <trkpt lat="43.43007" lon="6.52771">
        <ele>97.400001525879</ele>
        <time>2017-01-28T12:16:56.000Z</time>
      </trkpt>
      <trkpt lat="43.43009" lon="6.52775">
        <ele>97.800003051758</ele>
        <time>2017-01-28T12:16:58.000Z</time>
      </trkpt>
      <trkpt lat="43.43014" lon="6.52791">
        <ele>98.599998474121</ele>
        <time>2017-01-28T12:17:06.000Z</time>
      </trkpt>
      <trkpt lat="43.43015" lon="6.52795">
        <ele>98.800003051758</ele>
        <time>2017-01-28T12:17:08.000Z</time>
      </trkpt>
      <trkpt lat="43.43018" lon="6.52802">
        <ele>99.599998474121</ele>
        <time>2017-01-28T12:17:12.000Z</time>
      </trkpt>
      <trkpt lat="43.4302" lon="6.5281">
        <ele>100.19999694824</ele>
        <time>2017-01-28T12:17:16.000Z</time>
      </trkpt>
      <trkpt lat="43.43022" lon="6.52813">
        <ele>100.59999847412</ele>
        <time>2017-01-28T12:17:18.000Z</time>
      </trkpt>
      <trkpt lat="43.43026" lon="6.52822">
        <ele>101.59999847412</ele>
        <time>2017-01-28T12:17:23.000Z</time>
      </trkpt>
      <trkpt lat="43.43026" lon="6.52824">
        <ele>101.80000305176</ele>
        <time>2017-01-28T12:17:24.000Z</time>
      </trkpt>
      <trkpt lat="43.4303" lon="6.52828">
        <ele>102.40000152588</ele>
        <time>2017-01-28T12:17:27.000Z</time>
      </trkpt>
      <trkpt lat="43.43033" lon="6.52829">
        <ele>102.80000305176</ele>
        <time>2017-01-28T12:17:29.000Z</time>
      </trkpt>
      <trkpt lat="43.43036" lon="6.52829">
        <ele>103</ele>
        <time>2017-01-28T12:17:30.000Z</time>
      </trkpt>
      <trkpt lat="43.43041" lon="6.52827">
        <ele>103.19999694824</ele>
        <time>2017-01-28T12:17:33.000Z</time>
      </trkpt>
      <trkpt lat="43.43044" lon="6.52824">
        <ele>103.40000152588</ele>
        <time>2017-01-28T12:17:35.000Z</time>
      </trkpt>
      <trkpt lat="43.43047" lon="6.52819">
        <ele>103.80000305176</ele>
        <time>2017-01-28T12:17:37.000Z</time>
      </trkpt>
      <trkpt lat="43.43056" lon="6.5281">
        <ele>104.80000305176</ele>
        <time>2017-01-28T12:17:43.000Z</time>
      </trkpt>
      <trkpt lat="43.43058" lon="6.52809">
        <ele>105</ele>
        <time>2017-01-28T12:17:44.000Z</time>
      </trkpt>
      <trkpt lat="43.43069" lon="6.52805">
        <ele>106</ele>
        <time>2017-01-28T12:17:50.000Z</time>
      </trkpt>
      <trkpt lat="43.43071" lon="6.52805">
        <ele>106.19999694824</ele>
        <time>2017-01-28T12:17:51.000Z</time>
      </trkpt>
      <trkpt lat="43.43083" lon="6.52811">
        <ele>107</ele>
        <time>2017-01-28T12:17:58.000Z</time>
      </trkpt>
      <trkpt lat="43.43086" lon="6.52813">
        <ele>107.19999694824</ele>
        <time>2017-01-28T12:18:00.000Z</time>
      </trkpt>
      <trkpt lat="43.43097" lon="6.5282">
        <ele>108.19999694824</ele>
        <time>2017-01-28T12:18:07.000Z</time>
      </trkpt>
      <trkpt lat="43.43098" lon="6.52821">
        <ele>108.40000152588</ele>
        <time>2017-01-28T12:18:08.000Z</time>
      </trkpt>
      <trkpt lat="43.43106" lon="6.52825">
        <ele>109.40000152588</ele>
        <time>2017-01-28T12:18:13.000Z</time>
      </trkpt>
      <trkpt lat="43.43109" lon="6.52827">
        <ele>109.80000305176</ele>
        <time>2017-01-28T12:18:15.000Z</time>
      </trkpt>
      <trkpt lat="43.43115" lon="6.52829">
        <ele>110.59999847412</ele>
        <time>2017-01-28T12:18:19.000Z</time>
      </trkpt>
      <trkpt lat="43.4312" lon="6.5283">
        <ele>111.19999694824</ele>
        <time>2017-01-28T12:18:22.000Z</time>
      </trkpt>
      <trkpt lat="43.43124" lon="6.52831">
        <ele>111.80000305176</ele>
        <time>2017-01-28T12:18:25.000Z</time>
      </trkpt>
      <trkpt lat="43.43132" lon="6.52832">
        <ele>112.19999694824</ele>
        <time>2017-01-28T12:18:29.000Z</time>
      </trkpt>
      <trkpt lat="43.43137" lon="6.52833">
        <ele>112.80000305176</ele>
        <time>2017-01-28T12:18:32.000Z</time>
      </trkpt>
      <trkpt lat="43.43141" lon="6.52831">
        <ele>113.59999847412</ele>
        <time>2017-01-28T12:18:35.000Z</time>
      </trkpt>
      <trkpt lat="43.43143" lon="6.5283">
        <ele>113.80000305176</ele>
        <time>2017-01-28T12:18:36.000Z</time>
      </trkpt>
      <trkpt lat="43.43151" lon="6.52826">
        <ele>114.80000305176</ele>
        <time>2017-01-28T12:18:42.000Z</time>
      </trkpt>
      <trkpt lat="43.43152" lon="6.52826">
        <ele>115</ele>
        <time>2017-01-28T12:18:43.000Z</time>
      </trkpt>
      <trkpt lat="43.43159" lon="6.52822">
        <ele>116</ele>
        <time>2017-01-28T12:18:48.000Z</time>
      </trkpt>
      <trkpt lat="43.43162" lon="6.5282">
        <ele>116.19999694824</ele>
        <time>2017-01-28T12:18:50.000Z</time>
      </trkpt>
      <trkpt lat="43.43168" lon="6.52812">
        <ele>117</ele>
        <time>2017-01-28T12:18:56.000Z</time>
      </trkpt>
      <trkpt lat="43.43171" lon="6.52809">
        <ele>117.19999694824</ele>
        <time>2017-01-28T12:18:58.000Z</time>
      </trkpt>
      <trkpt lat="43.43175" lon="6.52803">
        <ele>118</ele>
        <time>2017-01-28T12:19:02.000Z</time>
      </trkpt>
      <trkpt lat="43.43178" lon="6.52795">
        <ele>119</ele>
        <time>2017-01-28T12:19:06.000Z</time>
      </trkpt>
      <trkpt lat="43.43178" lon="6.52793">
        <ele>119.19999694824</ele>
        <time>2017-01-28T12:19:07.000Z</time>
      </trkpt>
      <trkpt lat="43.43181" lon="6.52783">
        <ele>120</ele>
        <time>2017-01-28T12:19:12.000Z</time>
      </trkpt>
      <trkpt lat="43.43181" lon="6.52781">
        <ele>120.19999694824</ele>
        <time>2017-01-28T12:19:13.000Z</time>
      </trkpt>
      <trkpt lat="43.43183" lon="6.52771">
        <ele>121.40000152588</ele>
        <time>2017-01-28T12:19:18.000Z</time>
      </trkpt>
      <trkpt lat="43.43183" lon="6.52767">
        <ele>121.80000305176</ele>
        <time>2017-01-28T12:19:20.000Z</time>
      </trkpt>
      <trkpt lat="43.43183" lon="6.52757">
        <ele>122.40000152588</ele>
        <time>2017-01-28T12:19:24.000Z</time>
      </trkpt>
      <trkpt lat="43.43182" lon="6.52746">
        <ele>122.80000305176</ele>
        <time>2017-01-28T12:19:28.000Z</time>
      </trkpt>
      <trkpt lat="43.43182" lon="6.52737">
        <ele>123.59999847412</ele>
        <time>2017-01-28T12:19:32.000Z</time>
      </trkpt>
      <trkpt lat="43.43183" lon="6.52729">
        <ele>124.40000152588</ele>
        <time>2017-01-28T12:19:36.000Z</time>
      </trkpt>
      <trkpt lat="43.43184" lon="6.52727">
        <ele>124.59999847412</ele>
        <time>2017-01-28T12:19:37.000Z</time>
      </trkpt>
      <trkpt lat="43.43185" lon="6.52726">
        <ele>125</ele>
        <time>2017-01-28T12:19:38.000Z</time>
      </trkpt>
      <trkpt lat="43.43188" lon="6.52727">
        <ele>125.40000152588</ele>
        <time>2017-01-28T12:19:40.000Z</time>
      </trkpt>
      <trkpt lat="43.43189" lon="6.52729">
        <ele>125.80000305176</ele>
        <time>2017-01-28T12:19:41.000Z</time>
      </trkpt>
      <trkpt lat="43.43192" lon="6.52739">
        <ele>126.59999847412</ele>
        <time>2017-01-28T12:19:45.000Z</time>
      </trkpt>
      <trkpt lat="43.43194" lon="6.52747">
        <ele>126.80000305176</ele>
        <time>2017-01-28T12:19:48.000Z</time>
      </trkpt>
      <trkpt lat="43.43196" lon="6.52758">
        <ele>127.19999694824</ele>
        <time>2017-01-28T12:19:52.000Z</time>
      </trkpt>
      <trkpt lat="43.432" lon="6.52787">
        <ele>127.59999847412</ele>
        <time>2017-01-28T12:20:02.000Z</time>
      </trkpt>
      <trkpt lat="43.43201" lon="6.52793">
        <ele>128</ele>
        <time>2017-01-28T12:20:04.000Z</time>
      </trkpt>
      <trkpt lat="43.43201" lon="6.5281">
        <ele>128.80000305176</ele>
        <time>2017-01-28T12:20:10.000Z</time>
      </trkpt>
      <trkpt lat="43.43201" lon="6.52823">
        <ele>129</ele>
        <time>2017-01-28T12:20:15.000Z</time>
      </trkpt>
      <trkpt lat="43.43201" lon="6.52825">
        <ele>129.19999694824</ele>
        <time>2017-01-28T12:20:16.000Z</time>
      </trkpt>
      <trkpt lat="43.43199" lon="6.52835">
        <ele>130.19999694824</ele>
        <time>2017-01-28T12:20:21.000Z</time>
      </trkpt>
      <trkpt lat="43.43198" lon="6.52843">
        <ele>131</ele>
        <time>2017-01-28T12:20:26.000Z</time>
      </trkpt>
      <trkpt lat="43.43198" lon="6.52848">
        <ele>131.39999389648</ele>
        <time>2017-01-28T12:20:28.000Z</time>
      </trkpt>
      <trkpt lat="43.43198" lon="6.52851">
        <ele>132.19999694824</ele>
        <time>2017-01-28T12:20:30.000Z</time>
      </trkpt>
      <trkpt lat="43.43198" lon="6.52852">
        <ele>132.39999389648</ele>
        <time>2017-01-28T12:20:31.000Z</time>
      </trkpt>
      <trkpt lat="43.43198" lon="6.52854">
        <ele>133.60000610352</ele>
        <time>2017-01-28T12:20:34.000Z</time>
      </trkpt>
      <trkpt lat="43.43198" lon="6.52859">
        <ele>134.19999694824</ele>
        <time>2017-01-28T12:20:37.000Z</time>
      </trkpt>
      <trkpt lat="43.43196" lon="6.52866">
        <ele>134.60000610352</ele>
        <time>2017-01-28T12:20:41.000Z</time>
      </trkpt>
      <trkpt lat="43.43194" lon="6.52871">
        <ele>135</ele>
        <time>2017-01-28T12:20:44.000Z</time>
      </trkpt>
      <trkpt lat="43.43192" lon="6.52875">
        <ele>135.60000610352</ele>
        <time>2017-01-28T12:20:47.000Z</time>
      </trkpt>
      <trkpt lat="43.43189" lon="6.52882">
        <ele>136.80000305176</ele>
        <time>2017-01-28T12:20:52.000Z</time>
      </trkpt>
      <trkpt lat="43.43182" lon="6.5289">
        <ele>137.80000305176</ele>
        <time>2017-01-28T12:20:59.000Z</time>
      </trkpt>
      <trkpt lat="43.4318" lon="6.52891">
        <ele>138</ele>
        <time>2017-01-28T12:21:00.000Z</time>
      </trkpt>
      <trkpt lat="43.43172" lon="6.52899">
        <ele>138.80000305176</ele>
        <time>2017-01-28T12:21:07.000Z</time>
      </trkpt>
      <trkpt lat="43.4317" lon="6.529">
        <ele>139.19999694824</ele>
        <time>2017-01-28T12:21:09.000Z</time>
      </trkpt>
      <trkpt lat="43.43166" lon="6.52904">
        <ele>140</ele>
        <time>2017-01-28T12:21:13.000Z</time>
      </trkpt>
      <trkpt lat="43.43163" lon="6.52907">
        <ele>140.19999694824</ele>
        <time>2017-01-28T12:21:16.000Z</time>
      </trkpt>
      <trkpt lat="43.43158" lon="6.52911">
        <ele>141</ele>
        <time>2017-01-28T12:21:20.000Z</time>
      </trkpt>
      <trkpt lat="43.43156" lon="6.52913">
        <ele>141.39999389648</ele>
        <time>2017-01-28T12:21:22.000Z</time>
      </trkpt>
      <trkpt lat="43.43149" lon="6.52916">
        <ele>142.19999694824</ele>
        <time>2017-01-28T12:21:26.000Z</time>
      </trkpt>
      <trkpt lat="43.43146" lon="6.52916">
        <ele>142.60000610352</ele>
        <time>2017-01-28T12:21:28.000Z</time>
      </trkpt>
      <trkpt lat="43.43141" lon="6.52918">
        <ele>143.19999694824</ele>
        <time>2017-01-28T12:21:31.000Z</time>
      </trkpt>
      <trkpt lat="43.43135" lon="6.52919">
        <ele>144.19999694824</ele>
        <time>2017-01-28T12:21:35.000Z</time>
      </trkpt>
      <trkpt lat="43.43133" lon="6.52919">
        <ele>144.39999389648</ele>
        <time>2017-01-28T12:21:36.000Z</time>
      </trkpt>
      <trkpt lat="43.43123" lon="6.52921">
        <ele>145</ele>
        <time>2017-01-28T12:21:42.000Z</time>
      </trkpt>
      <trkpt lat="43.43116" lon="6.52924">
        <ele>145.39999389648</ele>
        <time>2017-01-28T12:21:46.000Z</time>
      </trkpt>
      <trkpt lat="43.43112" lon="6.52926">
        <ele>145.80000305176</ele>
        <time>2017-01-28T12:21:49.000Z</time>
      </trkpt>
      <trkpt lat="43.43102" lon="6.52936">
        <ele>146.60000610352</ele>
        <time>2017-01-28T12:21:57.000Z</time>
      </trkpt>
      <trkpt lat="43.43094" lon="6.52947">
        <ele>147.60000610352</ele>
        <time>2017-01-28T12:22:05.000Z</time>
      </trkpt>
      <trkpt lat="43.43092" lon="6.52951">
        <ele>148</ele>
        <time>2017-01-28T12:22:07.000Z</time>
      </trkpt>
      <trkpt lat="43.43087" lon="6.5296">
        <ele>148.80000305176</ele>
        <time>2017-01-28T12:22:12.000Z</time>
      </trkpt>
      <trkpt lat="43.43085" lon="6.52966">
        <ele>149.19999694824</ele>
        <time>2017-01-28T12:22:15.000Z</time>
      </trkpt>
      <trkpt lat="43.43084" lon="6.52971">
        <ele>149.80000305176</ele>
        <time>2017-01-28T12:22:17.000Z</time>
      </trkpt>
      <trkpt lat="43.43081" lon="6.52982">
        <ele>150.60000610352</ele>
        <time>2017-01-28T12:22:23.000Z</time>
      </trkpt>
      <trkpt lat="43.43079" lon="6.52984">
        <ele>150.80000305176</ele>
        <time>2017-01-28T12:22:24.000Z</time>
      </trkpt>
      <trkpt lat="43.4307" lon="6.5299">
        <ele>151.19999694824</ele>
        <time>2017-01-28T12:22:30.000Z</time>
      </trkpt>
      <trkpt lat="43.43063" lon="6.52989">
        <ele>151.80000305176</ele>
        <time>2017-01-28T12:22:34.000Z</time>
      </trkpt>
      <trkpt lat="43.43057" lon="6.52988">
        <ele>152.39999389648</ele>
        <time>2017-01-28T12:22:37.000Z</time>
      </trkpt>
      <trkpt lat="43.43053" lon="6.52987">
        <ele>153</ele>
        <time>2017-01-28T12:22:40.000Z</time>
      </trkpt>
      <trkpt lat="43.43048" lon="6.52987">
        <ele>153.39999389648</ele>
        <time>2017-01-28T12:22:43.000Z</time>
      </trkpt>
      <trkpt lat="43.43039" lon="6.52992">
        <ele>154</ele>
        <time>2017-01-28T12:22:49.000Z</time>
      </trkpt>
      <trkpt lat="43.43037" lon="6.52995">
        <ele>154.19999694824</ele>
        <time>2017-01-28T12:22:51.000Z</time>
      </trkpt>
      <trkpt lat="43.43036" lon="6.53005">
        <ele>154.80000305176</ele>
        <time>2017-01-28T12:22:56.000Z</time>
      </trkpt>
      <trkpt lat="43.43036" lon="6.53007">
        <ele>155</ele>
        <time>2017-01-28T12:22:57.000Z</time>
      </trkpt>
      <trkpt lat="43.43038" lon="6.53016">
        <ele>156</ele>
        <time>2017-01-28T12:23:01.000Z</time>
      </trkpt>
      <trkpt lat="43.43039" lon="6.53023">
        <ele>156.60000610352</ele>
        <time>2017-01-28T12:23:04.000Z</time>
      </trkpt>
      <trkpt lat="43.43037" lon="6.53031">
        <ele>157.39999389648</ele>
        <time>2017-01-28T12:23:08.000Z</time>
      </trkpt>
      <trkpt lat="43.43034" lon="6.53037">
        <ele>157.80000305176</ele>
        <time>2017-01-28T12:23:11.000Z</time>
      </trkpt>
      <trkpt lat="43.43031" lon="6.53044">
        <ele>158.39999389648</ele>
        <time>2017-01-28T12:23:15.000Z</time>
      </trkpt>
      <trkpt lat="43.43029" lon="6.53048">
        <ele>159</ele>
        <time>2017-01-28T12:23:17.000Z</time>
      </trkpt>
      <trkpt lat="43.43025" lon="6.53056">
        <ele>159.60000610352</ele>
        <time>2017-01-28T12:23:21.000Z</time>
      </trkpt>
      <trkpt lat="43.43023" lon="6.53061">
        <ele>160</ele>
        <time>2017-01-28T12:23:24.000Z</time>
      </trkpt>
      <trkpt lat="43.4302" lon="6.5307">
        <ele>160.60000610352</ele>
        <time>2017-01-28T12:23:29.000Z</time>
      </trkpt>
      <trkpt lat="43.43018" lon="6.53075">
        <ele>161</ele>
        <time>2017-01-28T12:23:32.000Z</time>
      </trkpt>
      <trkpt lat="43.43016" lon="6.53082">
        <ele>161.60000610352</ele>
        <time>2017-01-28T12:23:37.000Z</time>
      </trkpt>
      <trkpt lat="43.43015" lon="6.53088">
        <ele>162</ele>
        <time>2017-01-28T12:23:40.000Z</time>
      </trkpt>
      <trkpt lat="43.43013" lon="6.53096">
        <ele>162.80000305176</ele>
        <time>2017-01-28T12:23:44.000Z</time>
      </trkpt>
      <trkpt lat="43.43011" lon="6.53105">
        <ele>163</ele>
        <time>2017-01-28T12:23:48.000Z</time>
      </trkpt>
      <trkpt lat="43.43006" lon="6.53118">
        <ele>163.80000305176</ele>
        <time>2017-01-28T12:23:55.000Z</time>
      </trkpt>
      <trkpt lat="43.42999" lon="6.53127">
        <ele>164.80000305176</ele>
        <time>2017-01-28T12:24:01.000Z</time>
      </trkpt>
      <trkpt lat="43.42998" lon="6.53129">
        <ele>165</ele>
        <time>2017-01-28T12:24:02.000Z</time>
      </trkpt>
      <trkpt lat="43.42991" lon="6.53145">
        <ele>166.19999694824</ele>
        <time>2017-01-28T12:24:10.000Z</time>
      </trkpt>
      <trkpt lat="43.42988" lon="6.53161">
        <ele>167.19999694824</ele>
        <time>2017-01-28T12:24:17.000Z</time>
      </trkpt>
      <trkpt lat="43.4299" lon="6.53178">
        <ele>168.19999694824</ele>
        <time>2017-01-28T12:24:24.000Z</time>
      </trkpt>
      <trkpt lat="43.42991" lon="6.5318">
        <ele>168.39999389648</ele>
        <time>2017-01-28T12:24:25.000Z</time>
      </trkpt>
      <trkpt lat="43.42994" lon="6.53193">
        <ele>169.39999389648</ele>
        <time>2017-01-28T12:24:31.000Z</time>
      </trkpt>
      <trkpt lat="43.42995" lon="6.53197">
        <ele>169.60000610352</ele>
        <time>2017-01-28T12:24:33.000Z</time>
      </trkpt>
      <trkpt lat="43.42998" lon="6.53208">
        <ele>170.60000610352</ele>
        <time>2017-01-28T12:24:38.000Z</time>
      </trkpt>
      <trkpt lat="43.42999" lon="6.53213">
        <ele>171</ele>
        <time>2017-01-28T12:24:40.000Z</time>
      </trkpt>
      <trkpt lat="43.43" lon="6.5322">
        <ele>171.60000610352</ele>
        <time>2017-01-28T12:24:43.000Z</time>
      </trkpt>
      <trkpt lat="43.43001" lon="6.53231">
        <ele>172.60000610352</ele>
        <time>2017-01-28T12:24:48.000Z</time>
      </trkpt>
      <trkpt lat="43.43002" lon="6.53233">
        <ele>173</ele>
        <time>2017-01-28T12:24:49.000Z</time>
      </trkpt>
      <trkpt lat="43.43003" lon="6.5324">
        <ele>173.80000305176</ele>
        <time>2017-01-28T12:24:52.000Z</time>
      </trkpt>
      <trkpt lat="43.43005" lon="6.53246">
        <ele>174.39999389648</ele>
        <time>2017-01-28T12:24:55.000Z</time>
      </trkpt>
      <trkpt lat="43.43006" lon="6.5325">
        <ele>174.80000305176</ele>
        <time>2017-01-28T12:24:57.000Z</time>
      </trkpt>
      <trkpt lat="43.4301" lon="6.53266">
        <ele>175.80000305176</ele>
        <time>2017-01-28T12:25:04.000Z</time>
      </trkpt>
      <trkpt lat="43.43013" lon="6.53282">
        <ele>176.80000305176</ele>
        <time>2017-01-28T12:25:11.000Z</time>
      </trkpt>
      <trkpt lat="43.43013" lon="6.53286">
        <ele>177.39999389648</ele>
        <time>2017-01-28T12:25:13.000Z</time>
      </trkpt>
      <trkpt lat="43.43015" lon="6.53293">
        <ele>178</ele>
        <time>2017-01-28T12:25:16.000Z</time>
      </trkpt>
      <trkpt lat="43.43015" lon="6.53304">
        <ele>178.39999389648</ele>
        <time>2017-01-28T12:25:20.000Z</time>
      </trkpt>
      <trkpt lat="43.43011" lon="6.53317">
        <ele>179</ele>
        <time>2017-01-28T12:25:26.000Z</time>
      </trkpt>
      <trkpt lat="43.4301" lon="6.53321">
        <ele>179.60000610352</ele>
        <time>2017-01-28T12:25:28.000Z</time>
      </trkpt>
      <trkpt lat="43.43007" lon="6.53326">
        <ele>180.19999694824</ele>
        <time>2017-01-28T12:25:31.000Z</time>
      </trkpt>
      <trkpt lat="43.43002" lon="6.53337">
        <ele>181</ele>
        <time>2017-01-28T12:25:36.000Z</time>
      </trkpt>
      <trkpt lat="43.43001" lon="6.53341">
        <ele>181.39999389648</ele>
        <time>2017-01-28T12:25:38.000Z</time>
      </trkpt>
      <trkpt lat="43.42997" lon="6.53351">
        <ele>182.39999389648</ele>
        <time>2017-01-28T12:25:43.000Z</time>
      </trkpt>
      <trkpt lat="43.42994" lon="6.53361">
        <ele>183.39999389648</ele>
        <time>2017-01-28T12:25:47.000Z</time>
      </trkpt>
      <trkpt lat="43.42992" lon="6.53371">
        <ele>184.19999694824</ele>
        <time>2017-01-28T12:25:51.000Z</time>
      </trkpt>
      <trkpt lat="43.42992" lon="6.53373">
        <ele>184.39999389648</ele>
        <time>2017-01-28T12:25:52.000Z</time>
      </trkpt>
      <trkpt lat="43.4299" lon="6.53388">
        <ele>185.39999389648</ele>
        <time>2017-01-28T12:25:58.000Z</time>
      </trkpt>
      <trkpt lat="43.4299" lon="6.5339">
        <ele>185.60000610352</ele>
        <time>2017-01-28T12:25:59.000Z</time>
      </trkpt>
      <trkpt lat="43.42988" lon="6.53405">
        <ele>186.39999389648</ele>
        <time>2017-01-28T12:26:05.000Z</time>
      </trkpt>
      <trkpt lat="43.42988" lon="6.53413">
        <ele>186.80000305176</ele>
        <time>2017-01-28T12:26:08.000Z</time>
      </trkpt>
      <trkpt lat="43.42988" lon="6.53425">
        <ele>187.60000610352</ele>
        <time>2017-01-28T12:26:13.000Z</time>
      </trkpt>
      <trkpt lat="43.42989" lon="6.5343">
        <ele>188</ele>
        <time>2017-01-28T12:26:15.000Z</time>
      </trkpt>
      <trkpt lat="43.42989" lon="6.53437">
        <ele>188.80000305176</ele>
        <time>2017-01-28T12:26:18.000Z</time>
      </trkpt>
      <trkpt lat="43.42987" lon="6.53448">
        <ele>189.19999694824</ele>
        <time>2017-01-28T12:26:22.000Z</time>
      </trkpt>
      <trkpt lat="43.4298" lon="6.53453">
        <ele>189.80000305176</ele>
        <time>2017-01-28T12:26:26.000Z</time>
      </trkpt>
      <trkpt lat="43.42976" lon="6.53455">
        <ele>190.19999694824</ele>
        <time>2017-01-28T12:26:28.000Z</time>
      </trkpt>
      <trkpt lat="43.42971" lon="6.53456">
        <ele>190.80000305176</ele>
        <time>2017-01-28T12:26:31.000Z</time>
      </trkpt>
      <trkpt lat="43.42961" lon="6.53456">
        <ele>191.39999389648</ele>
        <time>2017-01-28T12:26:35.000Z</time>
      </trkpt>
      <trkpt lat="43.42953" lon="6.53454">
        <ele>192</ele>
        <time>2017-01-28T12:26:39.000Z</time>
      </trkpt>
      <trkpt lat="43.42947" lon="6.53452">
        <ele>192.80000305176</ele>
        <time>2017-01-28T12:26:42.000Z</time>
      </trkpt>
      <trkpt lat="43.42943" lon="6.5345">
        <ele>193</ele>
        <time>2017-01-28T12:26:44.000Z</time>
      </trkpt>
      <trkpt lat="43.42934" lon="6.53446">
        <ele>193.80000305176</ele>
        <time>2017-01-28T12:26:49.000Z</time>
      </trkpt>
      <trkpt lat="43.42931" lon="6.53446">
        <ele>194.19999694824</ele>
        <time>2017-01-28T12:26:51.000Z</time>
      </trkpt>
      <trkpt lat="43.42922" lon="6.53446">
        <ele>195</ele>
        <time>2017-01-28T12:26:56.000Z</time>
      </trkpt>
      <trkpt lat="43.4292" lon="6.53446">
        <ele>195.19999694824</ele>
        <time>2017-01-28T12:26:57.000Z</time>
      </trkpt>
      <trkpt lat="43.42911" lon="6.53446">
        <ele>195.60000610352</ele>
        <time>2017-01-28T12:27:02.000Z</time>
      </trkpt>
      <trkpt lat="43.42905" lon="6.53444">
        <ele>196.19999694824</ele>
        <time>2017-01-28T12:27:06.000Z</time>
      </trkpt>
      <trkpt lat="43.42899" lon="6.5344">
        <ele>196.80000305176</ele>
        <time>2017-01-28T12:27:10.000Z</time>
      </trkpt>
      <trkpt lat="43.42893" lon="6.53434">
        <ele>197.39999389648</ele>
        <time>2017-01-28T12:27:14.000Z</time>
      </trkpt>
      <trkpt lat="43.4289" lon="6.53429">
        <ele>197.60000610352</ele>
        <time>2017-01-28T12:27:17.000Z</time>
      </trkpt>
      <trkpt lat="43.42884" lon="6.53418">
        <ele>198.39999389648</ele>
        <time>2017-01-28T12:27:23.000Z</time>
      </trkpt>
      <trkpt lat="43.42877" lon="6.53407">
        <ele>199.39999389648</ele>
        <time>2017-01-28T12:27:30.000Z</time>
      </trkpt>
      <trkpt lat="43.42875" lon="6.53406">
        <ele>199.60000610352</ele>
        <time>2017-01-28T12:27:31.000Z</time>
      </trkpt>
      <trkpt lat="43.42866" lon="6.53396">
        <ele>200.60000610352</ele>
        <time>2017-01-28T12:27:38.000Z</time>
      </trkpt>
      <trkpt lat="43.42864" lon="6.53395">
        <ele>200.60000610352</ele>
        <time>2017-01-28T12:27:39.000Z</time>
      </trkpt>
      <trkpt lat="43.42857" lon="6.5339">
        <ele>201.60000610352</ele>
        <time>2017-01-28T12:27:44.000Z</time>
      </trkpt>
      <trkpt lat="43.42853" lon="6.53387">
        <ele>202.39999389648</ele>
        <time>2017-01-28T12:27:47.000Z</time>
      </trkpt>
      <trkpt lat="43.42848" lon="6.53382">
        <ele>202.60000610352</ele>
        <time>2017-01-28T12:27:50.000Z</time>
      </trkpt>
      <trkpt lat="43.42845" lon="6.53379">
        <ele>202.80000305176</ele>
        <time>2017-01-28T12:27:52.000Z</time>
      </trkpt>
      <trkpt lat="43.42836" lon="6.53364">
        <ele>203.80000305176</ele>
        <time>2017-01-28T12:28:00.000Z</time>
      </trkpt>
      <trkpt lat="43.4283" lon="6.53355">
        <ele>204.80000305176</ele>
        <time>2017-01-28T12:28:05.000Z</time>
      </trkpt>
      <trkpt lat="43.42828" lon="6.53352">
        <ele>205.19999694824</ele>
        <time>2017-01-28T12:28:07.000Z</time>
      </trkpt>
      <trkpt lat="43.42824" lon="6.53349">
        <ele>206</ele>
        <time>2017-01-28T12:28:10.000Z</time>
      </trkpt>
      <trkpt lat="43.42818" lon="6.53347">
        <ele>206.60000610352</ele>
        <time>2017-01-28T12:28:14.000Z</time>
      </trkpt>
      <trkpt lat="43.42812" lon="6.53348">
        <ele>207</ele>
        <time>2017-01-28T12:28:18.000Z</time>
      </trkpt>
      <trkpt lat="43.42806" lon="6.53351">
        <ele>207.60000610352</ele>
        <time>2017-01-28T12:28:22.000Z</time>
      </trkpt>
      <trkpt lat="43.42804" lon="6.53352">
        <ele>208.19999694824</ele>
        <time>2017-01-28T12:28:24.000Z</time>
      </trkpt>
      <trkpt lat="43.42796" lon="6.53355">
        <ele>208.80000305176</ele>
        <time>2017-01-28T12:28:29.000Z</time>
      </trkpt>
      <trkpt lat="43.42789" lon="6.53356">
        <ele>209.19999694824</ele>
        <time>2017-01-28T12:28:33.000Z</time>
      </trkpt>
      <trkpt lat="43.42783" lon="6.53355">
        <ele>209.80000305176</ele>
        <time>2017-01-28T12:28:36.000Z</time>
      </trkpt>
      <trkpt lat="43.42774" lon="6.53353">
        <ele>210.39999389648</ele>
        <time>2017-01-28T12:28:41.000Z</time>
      </trkpt>
      <trkpt lat="43.42771" lon="6.53352">
        <ele>210.80000305176</ele>
        <time>2017-01-28T12:28:43.000Z</time>
      </trkpt>
      <trkpt lat="43.42762" lon="6.53349">
        <ele>211.60000610352</ele>
        <time>2017-01-28T12:28:48.000Z</time>
      </trkpt>
      <trkpt lat="43.42757" lon="6.53346">
        <ele>212</ele>
        <time>2017-01-28T12:28:51.000Z</time>
      </trkpt>
      <trkpt lat="43.42749" lon="6.53342">
        <ele>212.60000610352</ele>
        <time>2017-01-28T12:28:56.000Z</time>
      </trkpt>
      <trkpt lat="43.42746" lon="6.53341">
        <ele>212.80000305176</ele>
        <time>2017-01-28T12:28:58.000Z</time>
      </trkpt>
      <trkpt lat="43.42739" lon="6.5334">
        <ele>213.60000610352</ele>
        <time>2017-01-28T12:29:02.000Z</time>
      </trkpt>
      <trkpt lat="43.4273" lon="6.53338">
        <ele>214.60000610352</ele>
        <time>2017-01-28T12:29:07.000Z</time>
      </trkpt>
      <trkpt lat="43.42714" lon="6.5334">
        <ele>215.80000305176</ele>
        <time>2017-01-28T12:29:17.000Z</time>
      </trkpt>
      <trkpt lat="43.42706" lon="6.53341">
        <ele>216.80000305176</ele>
        <time>2017-01-28T12:29:22.000Z</time>
      </trkpt>
      <trkpt lat="43.42704" lon="6.53342">
        <ele>217</ele>
        <time>2017-01-28T12:29:23.000Z</time>
      </trkpt>
      <trkpt lat="43.42698" lon="6.53343">
        <ele>217.80000305176</ele>
        <time>2017-01-28T12:29:27.000Z</time>
      </trkpt>
      <trkpt lat="43.42694" lon="6.53344">
        <ele>218.39999389648</ele>
        <time>2017-01-28T12:29:30.000Z</time>
      </trkpt>
      <trkpt lat="43.42691" lon="6.53346">
        <ele>218.80000305176</ele>
        <time>2017-01-28T12:29:32.000Z</time>
      </trkpt>
      <trkpt lat="43.42687" lon="6.53347">
        <ele>219.19999694824</ele>
        <time>2017-01-28T12:29:35.000Z</time>
      </trkpt>
      <trkpt lat="43.4268" lon="6.53347">
        <ele>220</ele>
        <time>2017-01-28T12:29:39.000Z</time>
      </trkpt>
      <trkpt lat="43.42675" lon="6.53346">
        <ele>220.39999389648</ele>
        <time>2017-01-28T12:29:42.000Z</time>
      </trkpt>
      <trkpt lat="43.42665" lon="6.53341">
        <ele>221</ele>
        <time>2017-01-28T12:29:47.000Z</time>
      </trkpt>
      <trkpt lat="43.42662" lon="6.53339">
        <ele>221.19999694824</ele>
        <time>2017-01-28T12:29:49.000Z</time>
      </trkpt>
      <trkpt lat="43.42653" lon="6.53332">
        <ele>222</ele>
        <time>2017-01-28T12:29:55.000Z</time>
      </trkpt>
      <trkpt lat="43.42649" lon="6.5333">
        <ele>222.19999694824</ele>
        <time>2017-01-28T12:29:57.000Z</time>
      </trkpt>
      <trkpt lat="43.4264" lon="6.53328">
        <ele>222.80000305176</ele>
        <time>2017-01-28T12:30:02.000Z</time>
      </trkpt>
      <trkpt lat="43.42639" lon="6.53328">
        <ele>223</ele>
        <time>2017-01-28T12:30:03.000Z</time>
      </trkpt>
      <trkpt lat="43.42629" lon="6.53326">
        <ele>224.19999694824</ele>
        <time>2017-01-28T12:30:08.000Z</time>
      </trkpt>
      <trkpt lat="43.42628" lon="6.53327">
        <ele>224.39999389648</ele>
        <time>2017-01-28T12:30:09.000Z</time>
      </trkpt>
      <trkpt lat="43.42615" lon="6.53327">
        <ele>225.19999694824</ele>
        <time>2017-01-28T12:30:16.000Z</time>
      </trkpt>
      <trkpt lat="43.42614" lon="6.53326">
        <ele>225.39999389648</ele>
        <time>2017-01-28T12:30:17.000Z</time>
      </trkpt>
      <trkpt lat="43.42606" lon="6.53326">
        <ele>226.60000610352</ele>
        <time>2017-01-28T12:30:22.000Z</time>
      </trkpt>
      <trkpt lat="43.42601" lon="6.53325">
        <ele>227.39999389648</ele>
        <time>2017-01-28T12:30:25.000Z</time>
      </trkpt>
      <trkpt lat="43.42598" lon="6.53325">
        <ele>227.60000610352</ele>
        <time>2017-01-28T12:30:27.000Z</time>
      </trkpt>
      <trkpt lat="43.42591" lon="6.53326">
        <ele>228</ele>
        <time>2017-01-28T12:30:32.000Z</time>
      </trkpt>
      <trkpt lat="43.42579" lon="6.53327">
        <ele>228.80000305176</ele>
        <time>2017-01-28T12:30:38.000Z</time>
      </trkpt>
      <trkpt lat="43.42575" lon="6.53327">
        <ele>229.39999389648</ele>
        <time>2017-01-28T12:30:40.000Z</time>
      </trkpt>
      <trkpt lat="43.42569" lon="6.53328">
        <ele>230</ele>
        <time>2017-01-28T12:30:43.000Z</time>
      </trkpt>
      <trkpt lat="43.42564" lon="6.5333">
        <ele>230.60000610352</ele>
        <time>2017-01-28T12:30:46.000Z</time>
      </trkpt>
      <trkpt lat="43.4256" lon="6.53332">
        <ele>231</ele>
        <time>2017-01-28T12:30:48.000Z</time>
      </trkpt>
      <trkpt lat="43.42551" lon="6.53339">
        <ele>231.80000305176</ele>
        <time>2017-01-28T12:30:54.000Z</time>
      </trkpt>
      <trkpt lat="43.4255" lon="6.5334">
        <ele>232</ele>
        <time>2017-01-28T12:30:55.000Z</time>
      </trkpt>
      <trkpt lat="43.42541" lon="6.53347">
        <ele>233</ele>
        <time>2017-01-28T12:31:01.000Z</time>
      </trkpt>
      <trkpt lat="43.4254" lon="6.53349">
        <ele>233.19999694824</ele>
        <time>2017-01-28T12:31:02.000Z</time>
      </trkpt>
      <trkpt lat="43.42531" lon="6.53358">
        <ele>234.19999694824</ele>
        <time>2017-01-28T12:31:08.000Z</time>
      </trkpt>
      <trkpt lat="43.42529" lon="6.53359">
        <ele>234.19999694824</ele>
        <time>2017-01-28T12:31:09.000Z</time>
      </trkpt>
      <trkpt lat="43.4252" lon="6.53367">
        <ele>235.19999694824</ele>
        <time>2017-01-28T12:31:15.000Z</time>
      </trkpt>
      <trkpt lat="43.42517" lon="6.53369">
        <ele>235.60000610352</ele>
        <time>2017-01-28T12:31:17.000Z</time>
      </trkpt>
      <trkpt lat="43.42508" lon="6.53376">
        <ele>236.39999389648</ele>
        <time>2017-01-28T12:31:23.000Z</time>
      </trkpt>
      <trkpt lat="43.42505" lon="6.53379">
        <ele>236.60000610352</ele>
        <time>2017-01-28T12:31:25.000Z</time>
      </trkpt>
      <trkpt lat="43.42498" lon="6.53386">
        <ele>237.39999389648</ele>
        <time>2017-01-28T12:31:30.000Z</time>
      </trkpt>
      <trkpt lat="43.42491" lon="6.53393">
        <ele>238.19999694824</ele>
        <time>2017-01-28T12:31:35.000Z</time>
      </trkpt>
      <trkpt lat="43.4249" lon="6.53394">
        <ele>238.39999389648</ele>
        <time>2017-01-28T12:31:36.000Z</time>
      </trkpt>
      <trkpt lat="43.42483" lon="6.53405">
        <ele>239.60000610352</ele>
        <time>2017-01-28T12:31:42.000Z</time>
      </trkpt>
      <trkpt lat="43.42481" lon="6.53409">
        <ele>239.60000610352</ele>
        <time>2017-01-28T12:31:44.000Z</time>
      </trkpt>
      <trkpt lat="43.42474" lon="6.53423">
        <ele>240.60000610352</ele>
        <time>2017-01-28T12:31:50.000Z</time>
      </trkpt>
      <trkpt lat="43.42471" lon="6.53429">
        <ele>240.80000305176</ele>
        <time>2017-01-28T12:31:53.000Z</time>
      </trkpt>
      <trkpt lat="43.42461" lon="6.53444">
        <ele>241.60000610352</ele>
        <time>2017-01-28T12:32:00.000Z</time>
      </trkpt>
      <trkpt lat="43.42459" lon="6.53446">
        <ele>241.60000610352</ele>
        <time>2017-01-28T12:32:01.000Z</time>
      </trkpt>
      <trkpt lat="43.42446" lon="6.53456">
        <ele>241.80000305176</ele>
        <time>2017-01-28T12:32:07.000Z</time>
      </trkpt>
      <trkpt lat="43.42433" lon="6.53471">
        <ele>241.39999389648</ele>
        <time>2017-01-28T12:32:14.000Z</time>
      </trkpt>
      <trkpt lat="43.42427" lon="6.53483">
        <ele>241.39999389648</ele>
        <time>2017-01-28T12:32:21.000Z</time>
      </trkpt>
      <trkpt lat="43.42426" lon="6.53484">
        <ele>241.39999389648</ele>
        <time>2017-01-28T12:32:30.000Z</time>
      </trkpt>
      <trkpt lat="43.42424" lon="6.53485">
        <ele>242</ele>
        <time>2017-01-28T12:32:41.000Z</time>
      </trkpt>
      <trkpt lat="43.42424" lon="6.53485">
        <ele>241.60000610352</ele>
        <time>2017-01-28T12:32:49.000Z</time>
      </trkpt>
      <trkpt lat="43.42423" lon="6.53485">
        <ele>242</ele>
        <time>2017-01-28T12:32:58.000Z</time>
      </trkpt>
      <trkpt lat="43.42422" lon="6.53485">
        <ele>241.80000305176</ele>
        <time>2017-01-28T12:33:20.000Z</time>
      </trkpt>
      <trkpt lat="43.42421" lon="6.53485">
        <ele>241.60000610352</ele>
        <time>2017-01-28T12:33:47.000Z</time>
      </trkpt>
      <trkpt lat="43.42421" lon="6.53485">
        <ele>241.39999389648</ele>
        <time>2017-01-28T12:34:03.000Z</time>
      </trkpt>
      <trkpt lat="43.42421" lon="6.53485">
        <ele>242.19999694824</ele>
        <time>2017-01-28T12:34:31.000Z</time>
      </trkpt>
      <trkpt lat="43.42422" lon="6.53485">
        <ele>242.19999694824</ele>
        <time>2017-01-28T12:34:59.000Z</time>
      </trkpt>
      <trkpt lat="43.42423" lon="6.53485">
        <ele>242.39999389648</ele>
        <time>2017-01-28T12:35:22.000Z</time>
      </trkpt>
      <trkpt lat="43.42423" lon="6.53486">
        <ele>242</ele>
        <time>2017-01-28T12:35:52.000Z</time>
      </trkpt>
      <trkpt lat="43.42422" lon="6.53485">
        <ele>242.19999694824</ele>
        <time>2017-01-28T12:36:17.000Z</time>
      </trkpt>
      <trkpt lat="43.42421" lon="6.53484">
        <ele>242.39999389648</ele>
        <time>2017-01-28T12:36:46.000Z</time>
      </trkpt>
      <trkpt lat="43.42421" lon="6.53484">
        <ele>242.80000305176</ele>
        <time>2017-01-28T12:37:01.000Z</time>
      </trkpt>
      <trkpt lat="43.42421" lon="6.53484">
        <ele>243</ele>
        <time>2017-01-28T12:37:07.000Z</time>
      </trkpt>
      <trkpt lat="43.4242" lon="6.53485">
        <ele>242.60000610352</ele>
        <time>2017-01-28T12:37:38.000Z</time>
      </trkpt>
      <trkpt lat="43.4242" lon="6.53485">
        <ele>242.39999389648</ele>
        <time>2017-01-28T12:37:51.000Z</time>
      </trkpt>
      <trkpt lat="43.4242" lon="6.53486">
        <ele>242.39999389648</ele>
        <time>2017-01-28T12:38:04.000Z</time>
      </trkpt>
      <trkpt lat="43.42419" lon="6.53487">
        <ele>242.19999694824</ele>
        <time>2017-01-28T12:38:21.000Z</time>
      </trkpt>
      <trkpt lat="43.42415" lon="6.5349">
        <ele>242</ele>
        <time>2017-01-28T12:38:27.000Z</time>
      </trkpt>
      <trkpt lat="43.42417" lon="6.53495">
        <ele>242.39999389648</ele>
        <time>2017-01-28T12:38:32.000Z</time>
      </trkpt>
      <trkpt lat="43.42419" lon="6.53495">
        <ele>242.39999389648</ele>
        <time>2017-01-28T12:38:33.000Z</time>
      </trkpt>
      <trkpt lat="43.42425" lon="6.53491">
        <ele>242.60000610352</ele>
        <time>2017-01-28T12:38:37.000Z</time>
      </trkpt>
      <trkpt lat="43.42438" lon="6.53486">
        <ele>243.80000305176</ele>
        <time>2017-01-28T12:38:43.000Z</time>
      </trkpt>
      <trkpt lat="43.42441" lon="6.53486">
        <ele>244</ele>
        <time>2017-01-28T12:38:44.000Z</time>
      </trkpt>
      <trkpt lat="43.42445" lon="6.53486">
        <ele>244.80000305176</ele>
        <time>2017-01-28T12:38:46.000Z</time>
      </trkpt>
      <trkpt lat="43.42455" lon="6.53489">
        <ele>245.60000610352</ele>
        <time>2017-01-28T12:38:51.000Z</time>
      </trkpt>
      <trkpt lat="43.42457" lon="6.5349">
        <ele>245.80000305176</ele>
        <time>2017-01-28T12:38:52.000Z</time>
      </trkpt>
      <trkpt lat="43.4247" lon="6.53498">
        <ele>246.60000610352</ele>
        <time>2017-01-28T12:38:58.000Z</time>
      </trkpt>
      <trkpt lat="43.42474" lon="6.535">
        <ele>247</ele>
        <time>2017-01-28T12:39:00.000Z</time>
      </trkpt>
      <trkpt lat="43.42487" lon="6.53505">
        <ele>247.19999694824</ele>
        <time>2017-01-28T12:39:06.000Z</time>
      </trkpt>
      <trkpt lat="43.4251" lon="6.53506">
        <ele>246</ele>
        <time>2017-01-28T12:39:15.000Z</time>
      </trkpt>
      <trkpt lat="43.42522" lon="6.53503">
        <ele>245.80000305176</ele>
        <time>2017-01-28T12:39:19.000Z</time>
      </trkpt>
      <trkpt lat="43.42525" lon="6.53502">
        <ele>245.80000305176</ele>
        <time>2017-01-28T12:39:20.000Z</time>
      </trkpt>
      <trkpt lat="43.42538" lon="6.53497">
        <ele>244.60000610352</ele>
        <time>2017-01-28T12:39:23.000Z</time>
      </trkpt>
      <trkpt lat="43.42552" lon="6.53488">
        <ele>244.19999694824</ele>
        <time>2017-01-28T12:39:26.000Z</time>
      </trkpt>
      <trkpt lat="43.42564" lon="6.5348">
        <ele>243.60000610352</ele>
        <time>2017-01-28T12:39:29.000Z</time>
      </trkpt>
      <trkpt lat="43.42575" lon="6.53475">
        <ele>243.39999389648</ele>
        <time>2017-01-28T12:39:32.000Z</time>
      </trkpt>
      <trkpt lat="43.42594" lon="6.53471">
        <ele>242.80000305176</ele>
        <time>2017-01-28T12:39:38.000Z</time>
      </trkpt>
      <trkpt lat="43.42608" lon="6.53473">
        <ele>243.39999389648</ele>
        <time>2017-01-28T12:39:43.000Z</time>
      </trkpt>
      <trkpt lat="43.42625" lon="6.53477">
        <ele>244</ele>
        <time>2017-01-28T12:39:50.000Z</time>
      </trkpt>
      <trkpt lat="43.42631" lon="6.5348">
        <ele>244.80000305176</ele>
        <time>2017-01-28T12:39:53.000Z</time>
      </trkpt>
      <trkpt lat="43.42639" lon="6.53485">
        <ele>245.19999694824</ele>
        <time>2017-01-28T12:39:57.000Z</time>
      </trkpt>
      <trkpt lat="43.42644" lon="6.53491">
        <ele>245.80000305176</ele>
        <time>2017-01-28T12:40:01.000Z</time>
      </trkpt>
      <trkpt lat="43.42647" lon="6.53493">
        <ele>246.19999694824</ele>
        <time>2017-01-28T12:40:03.000Z</time>
      </trkpt>
      <trkpt lat="43.42653" lon="6.535">
        <ele>247</ele>
        <time>2017-01-28T12:40:07.000Z</time>
      </trkpt>
      <trkpt lat="43.42658" lon="6.53503">
        <ele>248</ele>
        <time>2017-01-28T12:40:11.000Z</time>
      </trkpt>
      <trkpt lat="43.42661" lon="6.53504">
        <ele>248.39999389648</ele>
        <time>2017-01-28T12:40:16.000Z</time>
      </trkpt>
      <trkpt lat="43.42662" lon="6.53504">
        <ele>248.80000305176</ele>
        <time>2017-01-28T12:40:24.000Z</time>
      </trkpt>
      <trkpt lat="43.42663" lon="6.53505">
        <ele>249</ele>
        <time>2017-01-28T12:40:29.000Z</time>
      </trkpt>
      <trkpt lat="43.42663" lon="6.53505">
        <ele>249.19999694824</ele>
        <time>2017-01-28T12:40:30.000Z</time>
      </trkpt>
      <trkpt lat="43.42664" lon="6.53506">
        <ele>249.19999694824</ele>
        <time>2017-01-28T12:40:33.000Z</time>
      </trkpt>
      <trkpt lat="43.42668" lon="6.53512">
        <ele>249.39999389648</ele>
        <time>2017-01-28T12:40:37.000Z</time>
      </trkpt>
      <trkpt lat="43.42672" lon="6.53519">
        <ele>250.19999694824</ele>
        <time>2017-01-28T12:40:42.000Z</time>
      </trkpt>
      <trkpt lat="43.42672" lon="6.5352">
        <ele>250.39999389648</ele>
        <time>2017-01-28T12:40:43.000Z</time>
      </trkpt>
      <trkpt lat="43.42673" lon="6.53523">
        <ele>251</ele>
        <time>2017-01-28T12:40:49.000Z</time>
      </trkpt>
      <trkpt lat="43.42674" lon="6.53522">
        <ele>251.19999694824</ele>
        <time>2017-01-28T12:40:55.000Z</time>
      </trkpt>
      <trkpt lat="43.42676" lon="6.5352">
        <ele>251.80000305176</ele>
        <time>2017-01-28T12:41:01.000Z</time>
      </trkpt>
      <trkpt lat="43.42677" lon="6.5352">
        <ele>252.39999389648</ele>
        <time>2017-01-28T12:41:05.000Z</time>
      </trkpt>
      <trkpt lat="43.42678" lon="6.53521">
        <ele>252.80000305176</ele>
        <time>2017-01-28T12:41:09.000Z</time>
      </trkpt>
      <trkpt lat="43.42678" lon="6.53521">
        <ele>253.39999389648</ele>
        <time>2017-01-28T12:41:14.000Z</time>
      </trkpt>
      <trkpt lat="43.42678" lon="6.53521">
        <ele>253.39999389648</ele>
        <time>2017-01-28T12:41:15.000Z</time>
      </trkpt>
      <trkpt lat="43.42679" lon="6.53521">
        <ele>253.60000610352</ele>
        <time>2017-01-28T12:41:16.000Z</time>
      </trkpt>
      <trkpt lat="43.42681" lon="6.53522">
        <ele>253.60000610352</ele>
        <time>2017-01-28T12:41:18.000Z</time>
      </trkpt>
      <trkpt lat="43.42683" lon="6.53521">
        <ele>253.39999389648</ele>
        <time>2017-01-28T12:41:20.000Z</time>
      </trkpt>
      <trkpt lat="43.42687" lon="6.53519">
        <ele>253.39999389648</ele>
        <time>2017-01-28T12:41:24.000Z</time>
      </trkpt>
      <trkpt lat="43.42688" lon="6.53519">
        <ele>253.60000610352</ele>
        <time>2017-01-28T12:41:25.000Z</time>
      </trkpt>
      <trkpt lat="43.42691" lon="6.53522">
        <ele>254.60000610352</ele>
        <time>2017-01-28T12:41:28.000Z</time>
      </trkpt>
      <trkpt lat="43.42693" lon="6.53524">
        <ele>255.19999694824</ele>
        <time>2017-01-28T12:41:30.000Z</time>
      </trkpt>
      <trkpt lat="43.42694" lon="6.53526">
        <ele>255.80000305176</ele>
        <time>2017-01-28T12:41:32.000Z</time>
      </trkpt>
      <trkpt lat="43.42698" lon="6.53531">
        <ele>257</ele>
        <time>2017-01-28T12:41:36.000Z</time>
      </trkpt>
      <trkpt lat="43.42701" lon="6.53534">
        <ele>258.20001220703</ele>
        <time>2017-01-28T12:41:39.000Z</time>
      </trkpt>
      <trkpt lat="43.42702" lon="6.53536">
        <ele>259</ele>
        <time>2017-01-28T12:41:41.000Z</time>
      </trkpt>
      <trkpt lat="43.42703" lon="6.53538">
        <ele>259.39999389648</ele>
        <time>2017-01-28T12:41:43.000Z</time>
      </trkpt>
      <trkpt lat="43.42707" lon="6.53544">
        <ele>260.39999389648</ele>
        <time>2017-01-28T12:41:48.000Z</time>
      </trkpt>
      <trkpt lat="43.42709" lon="6.53545">
        <ele>260.60000610352</ele>
        <time>2017-01-28T12:41:49.000Z</time>
      </trkpt>
      <trkpt lat="43.42711" lon="6.53547">
        <ele>261.39999389648</ele>
        <time>2017-01-28T12:41:51.000Z</time>
      </trkpt>
      <trkpt lat="43.42711" lon="6.53547">
        <ele>261.79998779297</ele>
        <time>2017-01-28T12:41:52.000Z</time>
      </trkpt>
      <trkpt lat="43.42711" lon="6.53548">
        <ele>263</ele>
        <time>2017-01-28T12:41:57.000Z</time>
      </trkpt>
      <trkpt lat="43.42712" lon="6.53552">
        <ele>263.39999389648</ele>
        <time>2017-01-28T12:42:03.000Z</time>
      </trkpt>
      <trkpt lat="43.42713" lon="6.53555">
        <ele>264</ele>
        <time>2017-01-28T12:42:08.000Z</time>
      </trkpt>
      <trkpt lat="43.42714" lon="6.53558">
        <ele>264.39999389648</ele>
        <time>2017-01-28T12:42:12.000Z</time>
      </trkpt>
      <trkpt lat="43.42715" lon="6.5356">
        <ele>265</ele>
        <time>2017-01-28T12:42:15.000Z</time>
      </trkpt>
      <trkpt lat="43.42715" lon="6.53562">
        <ele>266</ele>
        <time>2017-01-28T12:42:21.000Z</time>
      </trkpt>
      <trkpt lat="43.42716" lon="6.53563">
        <ele>266.20001220703</ele>
        <time>2017-01-28T12:42:22.000Z</time>
      </trkpt>
      <trkpt lat="43.42718" lon="6.53567">
        <ele>266.39999389648</ele>
        <time>2017-01-28T12:42:29.000Z</time>
      </trkpt>
      <trkpt lat="43.4272" lon="6.5357">
        <ele>267.20001220703</ele>
        <time>2017-01-28T12:42:33.000Z</time>
      </trkpt>
      <trkpt lat="43.4272" lon="6.53575">
        <ele>268.39999389648</ele>
        <time>2017-01-28T12:42:39.000Z</time>
      </trkpt>
      <trkpt lat="43.42722" lon="6.53579">
        <ele>269.39999389648</ele>
        <time>2017-01-28T12:42:47.000Z</time>
      </trkpt>
      <trkpt lat="43.42723" lon="6.5358">
        <ele>269.60000610352</ele>
        <time>2017-01-28T12:42:48.000Z</time>
      </trkpt>
      <trkpt lat="43.42724" lon="6.53582">
        <ele>270.39999389648</ele>
        <time>2017-01-28T12:42:51.000Z</time>
      </trkpt>
      <trkpt lat="43.42726" lon="6.53584">
        <ele>271.39999389648</ele>
        <time>2017-01-28T12:42:56.000Z</time>
      </trkpt>
      <trkpt lat="43.42726" lon="6.53585">
        <ele>271.60000610352</ele>
        <time>2017-01-28T12:42:57.000Z</time>
      </trkpt>
      <trkpt lat="43.42729" lon="6.53589">
        <ele>272.60000610352</ele>
        <time>2017-01-28T12:43:03.000Z</time>
      </trkpt>
      <trkpt lat="43.4273" lon="6.53591">
        <ele>272.79998779297</ele>
        <time>2017-01-28T12:43:05.000Z</time>
      </trkpt>
      <trkpt lat="43.42731" lon="6.53591">
        <ele>273.39999389648</ele>
        <time>2017-01-28T12:43:12.000Z</time>
      </trkpt>
      <trkpt lat="43.42733" lon="6.53593">
        <ele>273.79998779297</ele>
        <time>2017-01-28T12:43:20.000Z</time>
      </trkpt>
      <trkpt lat="43.42734" lon="6.53594">
        <ele>273.79998779297</ele>
        <time>2017-01-28T12:43:21.000Z</time>
      </trkpt>
      <trkpt lat="43.42741" lon="6.53598">
        <ele>274.39999389648</ele>
        <time>2017-01-28T12:43:27.000Z</time>
      </trkpt>
      <trkpt lat="43.42742" lon="6.53599">
        <ele>274.79998779297</ele>
        <time>2017-01-28T12:43:28.000Z</time>
      </trkpt>
      <trkpt lat="43.42747" lon="6.53603">
        <ele>276</ele>
        <time>2017-01-28T12:43:33.000Z</time>
      </trkpt>
      <trkpt lat="43.42747" lon="6.53604">
        <ele>276.20001220703</ele>
        <time>2017-01-28T12:43:34.000Z</time>
      </trkpt>
      <trkpt lat="43.4275" lon="6.53607">
        <ele>277</ele>
        <time>2017-01-28T12:43:37.000Z</time>
      </trkpt>
      <trkpt lat="43.42754" lon="6.53612">
        <ele>277.79998779297</ele>
        <time>2017-01-28T12:43:42.000Z</time>
      </trkpt>
      <trkpt lat="43.42756" lon="6.53613">
        <ele>278</ele>
        <time>2017-01-28T12:43:44.000Z</time>
      </trkpt>
      <trkpt lat="43.42759" lon="6.53616">
        <ele>278.79998779297</ele>
        <time>2017-01-28T12:43:48.000Z</time>
      </trkpt>
      <trkpt lat="43.4276" lon="6.53616">
        <ele>279.20001220703</ele>
        <time>2017-01-28T12:43:49.000Z</time>
      </trkpt>
      <trkpt lat="43.42766" lon="6.53619">
        <ele>280</ele>
        <time>2017-01-28T12:43:54.000Z</time>
      </trkpt>
      <trkpt lat="43.42767" lon="6.53621">
        <ele>280.20001220703</ele>
        <time>2017-01-28T12:43:55.000Z</time>
      </trkpt>
      <trkpt lat="43.42771" lon="6.53625">
        <ele>281.20001220703</ele>
        <time>2017-01-28T12:43:59.000Z</time>
      </trkpt>
      <trkpt lat="43.42774" lon="6.53628">
        <ele>282.39999389648</ele>
        <time>2017-01-28T12:44:02.000Z</time>
      </trkpt>
      <trkpt lat="43.42777" lon="6.53631">
        <ele>283.39999389648</ele>
        <time>2017-01-28T12:44:06.000Z</time>
      </trkpt>
      <trkpt lat="43.42778" lon="6.53632">
        <ele>283.79998779297</ele>
        <time>2017-01-28T12:44:08.000Z</time>
      </trkpt>
      <trkpt lat="43.4278" lon="6.53634">
        <ele>284.79998779297</ele>
        <time>2017-01-28T12:44:11.000Z</time>
      </trkpt>
      <trkpt lat="43.42783" lon="6.53636">
        <ele>285.39999389648</ele>
        <time>2017-01-28T12:44:14.000Z</time>
      </trkpt>
      <trkpt lat="43.42786" lon="6.53638">
        <ele>285.79998779297</ele>
        <time>2017-01-28T12:44:17.000Z</time>
      </trkpt>
      <trkpt lat="43.42787" lon="6.53638">
        <ele>286</ele>
        <time>2017-01-28T12:44:18.000Z</time>
      </trkpt>
      <trkpt lat="43.42795" lon="6.53642">
        <ele>287</ele>
        <time>2017-01-28T12:44:26.000Z</time>
      </trkpt>
      <trkpt lat="43.42796" lon="6.53642">
        <ele>287.20001220703</ele>
        <time>2017-01-28T12:44:27.000Z</time>
      </trkpt>
      <trkpt lat="43.42801" lon="6.53644">
        <ele>288</ele>
        <time>2017-01-28T12:44:33.000Z</time>
      </trkpt>
      <trkpt lat="43.42803" lon="6.53645">
        <ele>288.39999389648</ele>
        <time>2017-01-28T12:44:35.000Z</time>
      </trkpt>
      <trkpt lat="43.42809" lon="6.53651">
        <ele>288.79998779297</ele>
        <time>2017-01-28T12:44:41.000Z</time>
      </trkpt>
      <trkpt lat="43.42815" lon="6.53657">
        <ele>289</ele>
        <time>2017-01-28T12:44:47.000Z</time>
      </trkpt>
      <trkpt lat="43.42816" lon="6.53659">
        <ele>289.20001220703</ele>
        <time>2017-01-28T12:44:48.000Z</time>
      </trkpt>
      <trkpt lat="43.42819" lon="6.53663">
        <ele>290.20001220703</ele>
        <time>2017-01-28T12:44:51.000Z</time>
      </trkpt>
      <trkpt lat="43.42823" lon="6.53667">
        <ele>291</ele>
        <time>2017-01-28T12:44:54.000Z</time>
      </trkpt>
      <trkpt lat="43.42832" lon="6.53674">
        <ele>291.20001220703</ele>
        <time>2017-01-28T12:45:01.000Z</time>
      </trkpt>
      <trkpt lat="43.42833" lon="6.53676">
        <ele>291.39999389648</ele>
        <time>2017-01-28T12:45:02.000Z</time>
      </trkpt>
      <trkpt lat="43.4284" lon="6.53683">
        <ele>292.60000610352</ele>
        <time>2017-01-28T12:45:08.000Z</time>
      </trkpt>
      <trkpt lat="43.42847" lon="6.53689">
        <ele>293.60000610352</ele>
        <time>2017-01-28T12:45:14.000Z</time>
      </trkpt>
      <trkpt lat="43.42848" lon="6.5369">
        <ele>293.79998779297</ele>
        <time>2017-01-28T12:45:15.000Z</time>
      </trkpt>
      <trkpt lat="43.42852" lon="6.53695">
        <ele>294.79998779297</ele>
        <time>2017-01-28T12:45:19.000Z</time>
      </trkpt>
      <trkpt lat="43.42855" lon="6.53699">
        <ele>295.39999389648</ele>
        <time>2017-01-28T12:45:22.000Z</time>
      </trkpt>
      <trkpt lat="43.42858" lon="6.53703">
        <ele>296</ele>
        <time>2017-01-28T12:45:25.000Z</time>
      </trkpt>
      <trkpt lat="43.42862" lon="6.53708">
        <ele>297</ele>
        <time>2017-01-28T12:45:29.000Z</time>
      </trkpt>
      <trkpt lat="43.42864" lon="6.5371">
        <ele>297.39999389648</ele>
        <time>2017-01-28T12:45:31.000Z</time>
      </trkpt>
      <trkpt lat="43.42872" lon="6.5372">
        <ele>298</ele>
        <time>2017-01-28T12:45:39.000Z</time>
      </trkpt>
      <trkpt lat="43.42873" lon="6.53721">
        <ele>298.20001220703</ele>
        <time>2017-01-28T12:45:40.000Z</time>
      </trkpt>
      <trkpt lat="43.42879" lon="6.53728">
        <ele>299.20001220703</ele>
        <time>2017-01-28T12:45:46.000Z</time>
      </trkpt>
      <trkpt lat="43.42881" lon="6.5373">
        <ele>299.60000610352</ele>
        <time>2017-01-28T12:45:48.000Z</time>
      </trkpt>
      <trkpt lat="43.42889" lon="6.53739">
        <ele>300.20001220703</ele>
        <time>2017-01-28T12:45:55.000Z</time>
      </trkpt>
      <trkpt lat="43.4289" lon="6.5374">
        <ele>300.39999389648</ele>
        <time>2017-01-28T12:45:56.000Z</time>
      </trkpt>
      <trkpt lat="43.42894" lon="6.53745">
        <ele>301.39999389648</ele>
        <time>2017-01-28T12:46:01.000Z</time>
      </trkpt>
      <trkpt lat="43.42895" lon="6.53746">
        <ele>301.60000610352</ele>
        <time>2017-01-28T12:46:02.000Z</time>
      </trkpt>
      <trkpt lat="43.42899" lon="6.53751">
        <ele>302.60000610352</ele>
        <time>2017-01-28T12:46:06.000Z</time>
      </trkpt>
      <trkpt lat="43.42904" lon="6.53755">
        <ele>303.60000610352</ele>
        <time>2017-01-28T12:46:10.000Z</time>
      </trkpt>
      <trkpt lat="43.42907" lon="6.53758">
        <ele>304.20001220703</ele>
        <time>2017-01-28T12:46:12.000Z</time>
      </trkpt>
      <trkpt lat="43.42909" lon="6.53761">
        <ele>305</ele>
        <time>2017-01-28T12:46:14.000Z</time>
      </trkpt>
      <trkpt lat="43.42913" lon="6.53765">
        <ele>306.20001220703</ele>
        <time>2017-01-28T12:46:18.000Z</time>
      </trkpt>
      <trkpt lat="43.42915" lon="6.53767">
        <ele>306.79998779297</ele>
        <time>2017-01-28T12:46:20.000Z</time>
      </trkpt>
      <trkpt lat="43.42918" lon="6.5377">
        <ele>307.39999389648</ele>
        <time>2017-01-28T12:46:23.000Z</time>
      </trkpt>
      <trkpt lat="43.42922" lon="6.53774">
        <ele>308.79998779297</ele>
        <time>2017-01-28T12:46:27.000Z</time>
      </trkpt>
      <trkpt lat="43.42928" lon="6.53778">
        <ele>310</ele>
        <time>2017-01-28T12:46:33.000Z</time>
      </trkpt>
      <trkpt lat="43.4293" lon="6.53778">
        <ele>310.39999389648</ele>
        <time>2017-01-28T12:46:35.000Z</time>
      </trkpt>
      <trkpt lat="43.42935" lon="6.5378">
        <ele>311.20001220703</ele>
        <time>2017-01-28T12:46:40.000Z</time>
      </trkpt>
      <trkpt lat="43.42936" lon="6.53781">
        <ele>311.60000610352</ele>
        <time>2017-01-28T12:46:41.000Z</time>
      </trkpt>
      <trkpt lat="43.42937" lon="6.53781">
        <ele>311.79998779297</ele>
        <time>2017-01-28T12:46:42.000Z</time>
      </trkpt>
      <trkpt lat="43.42939" lon="6.53782">
        <ele>312.39999389648</ele>
        <time>2017-01-28T12:46:44.000Z</time>
      </trkpt>
      <trkpt lat="43.42946" lon="6.53785">
        <ele>313.20001220703</ele>
        <time>2017-01-28T12:46:50.000Z</time>
      </trkpt>
      <trkpt lat="43.42947" lon="6.53785">
        <ele>313.79998779297</ele>
        <time>2017-01-28T12:46:51.000Z</time>
      </trkpt>
      <trkpt lat="43.42954" lon="6.53787">
        <ele>314.39999389648</ele>
        <time>2017-01-28T12:46:57.000Z</time>
      </trkpt>
      <trkpt lat="43.42957" lon="6.53789">
        <ele>314.79998779297</ele>
        <time>2017-01-28T12:47:00.000Z</time>
      </trkpt>
      <trkpt lat="43.42962" lon="6.53792">
        <ele>316</ele>
        <time>2017-01-28T12:47:05.000Z</time>
      </trkpt>
      <trkpt lat="43.42969" lon="6.53795">
        <ele>316.79998779297</ele>
        <time>2017-01-28T12:47:11.000Z</time>
      </trkpt>
      <trkpt lat="43.42977" lon="6.53797">
        <ele>317</ele>
        <time>2017-01-28T12:47:17.000Z</time>
      </trkpt>
      <trkpt lat="43.42979" lon="6.53797">
        <ele>317.20001220703</ele>
        <time>2017-01-28T12:47:19.000Z</time>
      </trkpt>
      <trkpt lat="43.42988" lon="6.53796">
        <ele>318</ele>
        <time>2017-01-28T12:47:26.000Z</time>
      </trkpt>
      <trkpt lat="43.4299" lon="6.53795">
        <ele>318.20001220703</ele>
        <time>2017-01-28T12:47:28.000Z</time>
      </trkpt>
      <trkpt lat="43.4299" lon="6.53797">
        <ele>318.60000610352</ele>
        <time>2017-01-28T12:47:35.000Z</time>
      </trkpt>
      <trkpt lat="43.42991" lon="6.53796">
        <ele>317.60000610352</ele>
        <time>2017-01-28T12:47:40.000Z</time>
      </trkpt>
      <trkpt lat="43.42991" lon="6.53795">
        <ele>317</ele>
        <time>2017-01-28T12:47:42.000Z</time>
      </trkpt>
      <trkpt lat="43.42992" lon="6.53796">
        <ele>317.39999389648</ele>
        <time>2017-01-28T12:47:46.000Z</time>
      </trkpt>
      <trkpt lat="43.42992" lon="6.53797">
        <ele>317.39999389648</ele>
        <time>2017-01-28T12:47:59.000Z</time>
      </trkpt>
      <trkpt lat="43.42992" lon="6.53797">
        <ele>317.39999389648</ele>
        <time>2017-01-28T12:48:06.000Z</time>
      </trkpt>
      <trkpt lat="43.42992" lon="6.53797">
        <ele>318</ele>
        <time>2017-01-28T12:48:14.000Z</time>
      </trkpt>
      <trkpt lat="43.42993" lon="6.53797">
        <ele>317.20001220703</ele>
        <time>2017-01-28T12:48:20.000Z</time>
      </trkpt>
      <trkpt lat="43.42993" lon="6.53797">
        <ele>317</ele>
        <time>2017-01-28T12:48:26.000Z</time>
      </trkpt>
      <trkpt lat="43.42993" lon="6.53799">
        <ele>317.60000610352</ele>
        <time>2017-01-28T12:48:32.000Z</time>
      </trkpt>
      <trkpt lat="43.42993" lon="6.53798">
        <ele>317.79998779297</ele>
        <time>2017-01-28T12:48:40.000Z</time>
      </trkpt>
      <trkpt lat="43.42994" lon="6.53799">
        <ele>317.20001220703</ele>
        <time>2017-01-28T12:48:54.000Z</time>
      </trkpt>
      <trkpt lat="43.42995" lon="6.53799">
        <ele>317.20001220703</ele>
        <time>2017-01-28T12:49:01.000Z</time>
      </trkpt>
      <trkpt lat="43.42995" lon="6.53799">
        <ele>318</ele>
        <time>2017-01-28T12:49:05.000Z</time>
      </trkpt>
      <trkpt lat="43.42995" lon="6.53799">
        <ele>318.79998779297</ele>
        <time>2017-01-28T12:49:09.000Z</time>
      </trkpt>
      <trkpt lat="43.42994" lon="6.53799">
        <ele>317.60000610352</ele>
        <time>2017-01-28T12:49:18.000Z</time>
      </trkpt>
      <trkpt lat="43.42994" lon="6.53799">
        <ele>317.79998779297</ele>
        <time>2017-01-28T12:49:29.000Z</time>
      </trkpt>
      <trkpt lat="43.42994" lon="6.53799">
        <ele>318.39999389648</ele>
        <time>2017-01-28T12:49:34.000Z</time>
      </trkpt>
      <trkpt lat="43.42994" lon="6.53798">
        <ele>317.79998779297</ele>
        <time>2017-01-28T12:49:44.000Z</time>
      </trkpt>
      <trkpt lat="43.42994" lon="6.53799">
        <ele>318.60000610352</ele>
        <time>2017-01-28T12:49:55.000Z</time>
      </trkpt>
      <trkpt lat="43.42994" lon="6.53799">
        <ele>317.79998779297</ele>
        <time>2017-01-28T12:50:08.000Z</time>
      </trkpt>
      <trkpt lat="43.42994" lon="6.53799">
        <ele>318.39999389648</ele>
        <time>2017-01-28T12:50:15.000Z</time>
      </trkpt>
      <trkpt lat="43.42994" lon="6.538">
        <ele>318.20001220703</ele>
        <time>2017-01-28T12:50:25.000Z</time>
      </trkpt>
      <trkpt lat="43.42994" lon="6.53799">
        <ele>318</ele>
        <time>2017-01-28T12:50:32.000Z</time>
      </trkpt>
      <trkpt lat="43.42994" lon="6.53799">
        <ele>318.20001220703</ele>
        <time>2017-01-28T12:50:42.000Z</time>
      </trkpt>
      <trkpt lat="43.42993" lon="6.53799">
        <ele>318.60000610352</ele>
        <time>2017-01-28T12:50:46.000Z</time>
      </trkpt>
      <trkpt lat="43.42992" lon="6.53798">
        <ele>319</ele>
        <time>2017-01-28T12:50:50.000Z</time>
      </trkpt>
      <trkpt lat="43.42992" lon="6.53797">
        <ele>318</ele>
        <time>2017-01-28T12:50:56.000Z</time>
      </trkpt>
      <trkpt lat="43.42991" lon="6.53797">
        <ele>318</ele>
        <time>2017-01-28T12:51:09.000Z</time>
      </trkpt>
      <trkpt lat="43.42988" lon="6.53799">
        <ele>318.20001220703</ele>
        <time>2017-01-28T12:51:15.000Z</time>
      </trkpt>
      <trkpt lat="43.42986" lon="6.53801">
        <ele>318</ele>
        <time>2017-01-28T12:51:18.000Z</time>
      </trkpt>
      <trkpt lat="43.42985" lon="6.53801">
        <ele>318.20001220703</ele>
        <time>2017-01-28T12:51:19.000Z</time>
      </trkpt>
      <trkpt lat="43.42978" lon="6.53798">
        <ele>318</ele>
        <time>2017-01-28T12:51:24.000Z</time>
      </trkpt>
      <trkpt lat="43.42978" lon="6.53797">
        <ele>318</ele>
        <time>2017-01-28T12:51:25.000Z</time>
      </trkpt>
      <trkpt lat="43.42977" lon="6.53796">
        <ele>318</ele>
        <time>2017-01-28T12:51:26.000Z</time>
      </trkpt>
      <trkpt lat="43.42977" lon="6.53795">
        <ele>318.20001220703</ele>
        <time>2017-01-28T12:51:29.000Z</time>
      </trkpt>
      <trkpt lat="43.42975" lon="6.53789">
        <ele>318.20001220703</ele>
        <time>2017-01-28T12:51:37.000Z</time>
      </trkpt>
      <trkpt lat="43.42964" lon="6.53775">
        <ele>317.60000610352</ele>
        <time>2017-01-28T12:51:41.000Z</time>
      </trkpt>
      <trkpt lat="43.42954" lon="6.53764">
        <ele>316.79998779297</ele>
        <time>2017-01-28T12:51:44.000Z</time>
      </trkpt>
      <trkpt lat="43.42951" lon="6.53762">
        <ele>316.79998779297</ele>
        <time>2017-01-28T12:51:45.000Z</time>
      </trkpt>
      <trkpt lat="43.4294" lon="6.53759">
        <ele>315.79998779297</ele>
        <time>2017-01-28T12:51:47.000Z</time>
      </trkpt>
      <trkpt lat="43.42931" lon="6.53759">
        <ele>313.60000610352</ele>
        <time>2017-01-28T12:51:49.000Z</time>
      </trkpt>
      <trkpt lat="43.42925" lon="6.53759">
        <ele>312.60000610352</ele>
        <time>2017-01-28T12:51:50.000Z</time>
      </trkpt>
      <trkpt lat="43.42919" lon="6.53756">
        <ele>311.20001220703</ele>
        <time>2017-01-28T12:51:51.000Z</time>
      </trkpt>
      <trkpt lat="43.42913" lon="6.53754">
        <ele>310</ele>
        <time>2017-01-28T12:51:52.000Z</time>
      </trkpt>
      <trkpt lat="43.42909" lon="6.53751">
        <ele>309</ele>
        <time>2017-01-28T12:51:53.000Z</time>
      </trkpt>
      <trkpt lat="43.42904" lon="6.53746">
        <ele>307.60000610352</ele>
        <time>2017-01-28T12:51:54.000Z</time>
      </trkpt>
      <trkpt lat="43.42901" lon="6.5374">
        <ele>306.60000610352</ele>
        <time>2017-01-28T12:51:55.000Z</time>
      </trkpt>
      <trkpt lat="43.42898" lon="6.53734">
        <ele>305.20001220703</ele>
        <time>2017-01-28T12:51:56.000Z</time>
      </trkpt>
      <trkpt lat="43.42896" lon="6.53729">
        <ele>303.79998779297</ele>
        <time>2017-01-28T12:51:57.000Z</time>
      </trkpt>
      <trkpt lat="43.42895" lon="6.53726">
        <ele>302</ele>
        <time>2017-01-28T12:51:59.000Z</time>
      </trkpt>
      <trkpt lat="43.42895" lon="6.53726">
        <ele>301</ele>
        <time>2017-01-28T12:52:00.000Z</time>
      </trkpt>
      <trkpt lat="43.42894" lon="6.53725">
        <ele>299.60000610352</ele>
        <time>2017-01-28T12:52:02.000Z</time>
      </trkpt>
      <trkpt lat="43.42893" lon="6.53723">
        <ele>299.20001220703</ele>
        <time>2017-01-28T12:52:08.000Z</time>
      </trkpt>
      <trkpt lat="43.42893" lon="6.53721">
        <ele>299.20001220703</ele>
        <time>2017-01-28T12:52:09.000Z</time>
      </trkpt>
      <trkpt lat="43.429" lon="6.53715">
        <ele>298.79998779297</ele>
        <time>2017-01-28T12:52:13.000Z</time>
      </trkpt>
      <trkpt lat="43.42903" lon="6.53714">
        <ele>298.39999389648</ele>
        <time>2017-01-28T12:52:14.000Z</time>
      </trkpt>
      <trkpt lat="43.42907" lon="6.53713">
        <ele>297.79998779297</ele>
        <time>2017-01-28T12:52:15.000Z</time>
      </trkpt>
      <trkpt lat="43.42911" lon="6.53712">
        <ele>297.20001220703</ele>
        <time>2017-01-28T12:52:16.000Z</time>
      </trkpt>
      <trkpt lat="43.42916" lon="6.53711">
        <ele>296.79998779297</ele>
        <time>2017-01-28T12:52:17.000Z</time>
      </trkpt>
      <trkpt lat="43.4292" lon="6.53712">
        <ele>296.20001220703</ele>
        <time>2017-01-28T12:52:18.000Z</time>
      </trkpt>
      <trkpt lat="43.42923" lon="6.53713">
        <ele>295.60000610352</ele>
        <time>2017-01-28T12:52:19.000Z</time>
      </trkpt>
      <trkpt lat="43.42942" lon="6.53713">
        <ele>295</ele>
        <time>2017-01-28T12:52:24.000Z</time>
      </trkpt>
      <trkpt lat="43.42962" lon="6.5371">
        <ele>296</ele>
        <time>2017-01-28T12:52:30.000Z</time>
      </trkpt>
      <trkpt lat="43.42978" lon="6.53706">
        <ele>295.20001220703</ele>
        <time>2017-01-28T12:52:35.000Z</time>
      </trkpt>
      <trkpt lat="43.4298" lon="6.53707">
        <ele>294.60000610352</ele>
        <time>2017-01-28T12:52:36.000Z</time>
      </trkpt>
      <trkpt lat="43.42989" lon="6.53701">
        <ele>294</ele>
        <time>2017-01-28T12:52:39.000Z</time>
      </trkpt>
      <trkpt lat="43.42996" lon="6.53699">
        <ele>293.39999389648</ele>
        <time>2017-01-28T12:52:41.000Z</time>
      </trkpt>
      <trkpt lat="43.43" lon="6.53699">
        <ele>293</ele>
        <time>2017-01-28T12:52:42.000Z</time>
      </trkpt>
      <trkpt lat="43.43003" lon="6.53698">
        <ele>292.20001220703</ele>
        <time>2017-01-28T12:52:43.000Z</time>
      </trkpt>
      <trkpt lat="43.4301" lon="6.53696">
        <ele>291</ele>
        <time>2017-01-28T12:52:45.000Z</time>
      </trkpt>
      <trkpt lat="43.43013" lon="6.53696">
        <ele>290.39999389648</ele>
        <time>2017-01-28T12:52:46.000Z</time>
      </trkpt>
      <trkpt lat="43.43017" lon="6.53697">
        <ele>289.60000610352</ele>
        <time>2017-01-28T12:52:47.000Z</time>
      </trkpt>
      <trkpt lat="43.43024" lon="6.53698">
        <ele>288.60000610352</ele>
        <time>2017-01-28T12:52:49.000Z</time>
      </trkpt>
      <trkpt lat="43.43027" lon="6.53699">
        <ele>288.39999389648</ele>
        <time>2017-01-28T12:52:50.000Z</time>
      </trkpt>
      <trkpt lat="43.43041" lon="6.53699">
        <ele>289.20001220703</ele>
        <time>2017-01-28T12:52:55.000Z</time>
      </trkpt>
      <trkpt lat="43.43049" lon="6.537">
        <ele>289.79998779297</ele>
        <time>2017-01-28T12:52:57.000Z</time>
      </trkpt>
      <trkpt lat="43.4306" lon="6.53701">
        <ele>290</ele>
        <time>2017-01-28T12:53:00.000Z</time>
      </trkpt>
      <trkpt lat="43.43064" lon="6.53699">
        <ele>289.79998779297</ele>
        <time>2017-01-28T12:53:01.000Z</time>
      </trkpt>
      <trkpt lat="43.43074" lon="6.53689">
        <ele>289.79998779297</ele>
        <time>2017-01-28T12:53:03.000Z</time>
      </trkpt>
      <trkpt lat="43.43085" lon="6.53672">
        <ele>289.39999389648</ele>
        <time>2017-01-28T12:53:05.000Z</time>
      </trkpt>
      <trkpt lat="43.43091" lon="6.53662">
        <ele>288.60000610352</ele>
        <time>2017-01-28T12:53:06.000Z</time>
      </trkpt>
      <trkpt lat="43.43095" lon="6.53656">
        <ele>286.79998779297</ele>
        <time>2017-01-28T12:53:07.000Z</time>
      </trkpt>
      <trkpt lat="43.431" lon="6.5365">
        <ele>285.39999389648</ele>
        <time>2017-01-28T12:53:08.000Z</time>
      </trkpt>
      <trkpt lat="43.43104" lon="6.53645">
        <ele>284</ele>
        <time>2017-01-28T12:53:09.000Z</time>
      </trkpt>
      <trkpt lat="43.43108" lon="6.53644">
        <ele>282.60000610352</ele>
        <time>2017-01-28T12:53:10.000Z</time>
      </trkpt>
      <trkpt lat="43.43113" lon="6.53644">
        <ele>282.39999389648</ele>
        <time>2017-01-28T12:53:12.000Z</time>
      </trkpt>
      <trkpt lat="43.43121" lon="6.53643">
        <ele>282.60000610352</ele>
        <time>2017-01-28T12:53:15.000Z</time>
      </trkpt>
      <trkpt lat="43.43123" lon="6.53642">
        <ele>282.60000610352</ele>
        <time>2017-01-28T12:53:16.000Z</time>
      </trkpt>
      <trkpt lat="43.43136" lon="6.5364">
        <ele>282.39999389648</ele>
        <time>2017-01-28T12:53:23.000Z</time>
      </trkpt>
      <trkpt lat="43.4315" lon="6.5364">
        <ele>283.20001220703</ele>
        <time>2017-01-28T12:53:29.000Z</time>
      </trkpt>
      <trkpt lat="43.43162" lon="6.53639">
        <ele>282</ele>
        <time>2017-01-28T12:53:36.000Z</time>
      </trkpt>
      <trkpt lat="43.43166" lon="6.53634">
        <ele>281.79998779297</ele>
        <time>2017-01-28T12:53:42.000Z</time>
      </trkpt>
      <trkpt lat="43.43168" lon="6.53631">
        <ele>283.79998779297</ele>
        <time>2017-01-28T12:53:47.000Z</time>
      </trkpt>
      <trkpt lat="43.43169" lon="6.53629">
        <ele>285</ele>
        <time>2017-01-28T12:53:50.000Z</time>
      </trkpt>
      <trkpt lat="43.43169" lon="6.53628">
        <ele>285.39999389648</ele>
        <time>2017-01-28T12:53:51.000Z</time>
      </trkpt>
      <trkpt lat="43.4317" lon="6.53626">
        <ele>286.60000610352</ele>
        <time>2017-01-28T12:53:54.000Z</time>
      </trkpt>
      <trkpt lat="43.43172" lon="6.53623">
        <ele>287.60000610352</ele>
        <time>2017-01-28T12:53:58.000Z</time>
      </trkpt>
      <trkpt lat="43.43174" lon="6.53622">
        <ele>288.20001220703</ele>
        <time>2017-01-28T12:54:00.000Z</time>
      </trkpt>
      <trkpt lat="43.43175" lon="6.53619">
        <ele>288.60000610352</ele>
        <time>2017-01-28T12:54:03.000Z</time>
      </trkpt>
      <trkpt lat="43.43175" lon="6.53618">
        <ele>288.79998779297</ele>
        <time>2017-01-28T12:54:04.000Z</time>
      </trkpt>
      <trkpt lat="43.43177" lon="6.53616">
        <ele>289.79998779297</ele>
        <time>2017-01-28T12:54:07.000Z</time>
      </trkpt>
      <trkpt lat="43.43178" lon="6.53616">
        <ele>290.79998779297</ele>
        <time>2017-01-28T12:54:09.000Z</time>
      </trkpt>
      <trkpt lat="43.43179" lon="6.53616">
        <ele>291</ele>
        <time>2017-01-28T12:54:10.000Z</time>
      </trkpt>
      <trkpt lat="43.43186" lon="6.53612">
        <ele>291.39999389648</ele>
        <time>2017-01-28T12:54:15.000Z</time>
      </trkpt>
      <trkpt lat="43.43189" lon="6.53604">
        <ele>291.60000610352</ele>
        <time>2017-01-28T12:54:21.000Z</time>
      </trkpt>
      <trkpt lat="43.43189" lon="6.53593">
        <ele>291.60000610352</ele>
        <time>2017-01-28T12:54:27.000Z</time>
      </trkpt>
      <trkpt lat="43.43189" lon="6.53577">
        <ele>290.79998779297</ele>
        <time>2017-01-28T12:54:31.000Z</time>
      </trkpt>
      <trkpt lat="43.4319" lon="6.53574">
        <ele>290.79998779297</ele>
        <time>2017-01-28T12:54:32.000Z</time>
      </trkpt>
      <trkpt lat="43.43195" lon="6.53572">
        <ele>289.79998779297</ele>
        <time>2017-01-28T12:54:34.000Z</time>
      </trkpt>
      <trkpt lat="43.43201" lon="6.53576">
        <ele>288.60000610352</ele>
        <time>2017-01-28T12:54:36.000Z</time>
      </trkpt>
      <trkpt lat="43.43205" lon="6.5358">
        <ele>287.60000610352</ele>
        <time>2017-01-28T12:54:37.000Z</time>
      </trkpt>
      <trkpt lat="43.43208" lon="6.53584">
        <ele>286.60000610352</ele>
        <time>2017-01-28T12:54:38.000Z</time>
      </trkpt>
      <trkpt lat="43.43212" lon="6.53588">
        <ele>285.60000610352</ele>
        <time>2017-01-28T12:54:39.000Z</time>
      </trkpt>
      <trkpt lat="43.43216" lon="6.53592">
        <ele>285.20001220703</ele>
        <time>2017-01-28T12:54:40.000Z</time>
      </trkpt>
      <trkpt lat="43.43224" lon="6.536">
        <ele>283.60000610352</ele>
        <time>2017-01-28T12:54:42.000Z</time>
      </trkpt>
      <trkpt lat="43.43232" lon="6.53607">
        <ele>282.39999389648</ele>
        <time>2017-01-28T12:54:44.000Z</time>
      </trkpt>
      <trkpt lat="43.4324" lon="6.53614">
        <ele>281</ele>
        <time>2017-01-28T12:54:46.000Z</time>
      </trkpt>
      <trkpt lat="43.43243" lon="6.53616">
        <ele>280.60000610352</ele>
        <time>2017-01-28T12:54:47.000Z</time>
      </trkpt>
      <trkpt lat="43.43247" lon="6.53616">
        <ele>279.60000610352</ele>
        <time>2017-01-28T12:54:48.000Z</time>
      </trkpt>
      <trkpt lat="43.43255" lon="6.53619">
        <ele>278.20001220703</ele>
        <time>2017-01-28T12:54:50.000Z</time>
      </trkpt>
      <trkpt lat="43.43264" lon="6.53625">
        <ele>276.79998779297</ele>
        <time>2017-01-28T12:54:52.000Z</time>
      </trkpt>
      <trkpt lat="43.43271" lon="6.53627">
        <ele>275.39999389648</ele>
        <time>2017-01-28T12:54:54.000Z</time>
      </trkpt>
      <trkpt lat="43.43274" lon="6.53626">
        <ele>274.39999389648</ele>
        <time>2017-01-28T12:54:56.000Z</time>
      </trkpt>
      <trkpt lat="43.4328" lon="6.53623">
        <ele>273.39999389648</ele>
        <time>2017-01-28T12:54:58.000Z</time>
      </trkpt>
      <trkpt lat="43.43281" lon="6.53616">
        <ele>272</ele>
        <time>2017-01-28T12:55:00.000Z</time>
      </trkpt>
      <trkpt lat="43.43281" lon="6.53611">
        <ele>271</ele>
        <time>2017-01-28T12:55:01.000Z</time>
      </trkpt>
      <trkpt lat="43.4328" lon="6.53605">
        <ele>269.79998779297</ele>
        <time>2017-01-28T12:55:02.000Z</time>
      </trkpt>
      <trkpt lat="43.43278" lon="6.53599">
        <ele>268.60000610352</ele>
        <time>2017-01-28T12:55:03.000Z</time>
      </trkpt>
      <trkpt lat="43.43276" lon="6.53594">
        <ele>267.39999389648</ele>
        <time>2017-01-28T12:55:04.000Z</time>
      </trkpt>
      <trkpt lat="43.43275" lon="6.53589">
        <ele>266.20001220703</ele>
        <time>2017-01-28T12:55:05.000Z</time>
      </trkpt>
      <trkpt lat="43.43273" lon="6.53584">
        <ele>264.79998779297</ele>
        <time>2017-01-28T12:55:06.000Z</time>
      </trkpt>
      <trkpt lat="43.43271" lon="6.53581">
        <ele>263</ele>
        <time>2017-01-28T12:55:07.000Z</time>
      </trkpt>
      <trkpt lat="43.43269" lon="6.53578">
        <ele>261.20001220703</ele>
        <time>2017-01-28T12:55:08.000Z</time>
      </trkpt>
      <trkpt lat="43.43267" lon="6.53576">
        <ele>259.60000610352</ele>
        <time>2017-01-28T12:55:09.000Z</time>
      </trkpt>
      <trkpt lat="43.43265" lon="6.53573">
        <ele>258.60000610352</ele>
        <time>2017-01-28T12:55:10.000Z</time>
      </trkpt>
      <trkpt lat="43.43262" lon="6.53565">
        <ele>257.39999389648</ele>
        <time>2017-01-28T12:55:12.000Z</time>
      </trkpt>
      <trkpt lat="43.43261" lon="6.53559">
        <ele>256.20001220703</ele>
        <time>2017-01-28T12:55:14.000Z</time>
      </trkpt>
      <trkpt lat="43.43262" lon="6.53553">
        <ele>255.19999694824</ele>
        <time>2017-01-28T12:55:16.000Z</time>
      </trkpt>
      <trkpt lat="43.43266" lon="6.53549">
        <ele>253.80000305176</ele>
        <time>2017-01-28T12:55:18.000Z</time>
      </trkpt>
      <trkpt lat="43.4327" lon="6.53549">
        <ele>252</ele>
        <time>2017-01-28T12:55:20.000Z</time>
      </trkpt>
      <trkpt lat="43.43274" lon="6.53548">
        <ele>251</ele>
        <time>2017-01-28T12:55:21.000Z</time>
      </trkpt>
      <trkpt lat="43.43277" lon="6.53548">
        <ele>249.80000305176</ele>
        <time>2017-01-28T12:55:22.000Z</time>
      </trkpt>
      <trkpt lat="43.4328" lon="6.5355">
        <ele>248.39999389648</ele>
        <time>2017-01-28T12:55:23.000Z</time>
      </trkpt>
      <trkpt lat="43.43284" lon="6.53552">
        <ele>247.19999694824</ele>
        <time>2017-01-28T12:55:24.000Z</time>
      </trkpt>
      <trkpt lat="43.43288" lon="6.53554">
        <ele>245.60000610352</ele>
        <time>2017-01-28T12:55:25.000Z</time>
      </trkpt>
      <trkpt lat="43.43291" lon="6.53555">
        <ele>244.39999389648</ele>
        <time>2017-01-28T12:55:26.000Z</time>
      </trkpt>
      <trkpt lat="43.43295" lon="6.53556">
        <ele>242.60000610352</ele>
        <time>2017-01-28T12:55:27.000Z</time>
      </trkpt>
      <trkpt lat="43.43297" lon="6.53558">
        <ele>241.80000305176</ele>
        <time>2017-01-28T12:55:28.000Z</time>
      </trkpt>
      <trkpt lat="43.43298" lon="6.5356">
        <ele>241</ele>
        <time>2017-01-28T12:55:29.000Z</time>
      </trkpt>
      <trkpt lat="43.43299" lon="6.53563">
        <ele>240.60000610352</ele>
        <time>2017-01-28T12:55:30.000Z</time>
      </trkpt>
      <trkpt lat="43.43307" lon="6.53563">
        <ele>241</ele>
        <time>2017-01-28T12:55:34.000Z</time>
      </trkpt>
      <trkpt lat="43.43313" lon="6.53556">
        <ele>241</ele>
        <time>2017-01-28T12:55:36.000Z</time>
      </trkpt>
      <trkpt lat="43.43319" lon="6.53554">
        <ele>239.80000305176</ele>
        <time>2017-01-28T12:55:38.000Z</time>
      </trkpt>
      <trkpt lat="43.43322" lon="6.53553">
        <ele>238.60000610352</ele>
        <time>2017-01-28T12:55:39.000Z</time>
      </trkpt>
      <trkpt lat="43.43328" lon="6.53553">
        <ele>236.80000305176</ele>
        <time>2017-01-28T12:55:41.000Z</time>
      </trkpt>
      <trkpt lat="43.43335" lon="6.53552">
        <ele>236</ele>
        <time>2017-01-28T12:55:43.000Z</time>
      </trkpt>
      <trkpt lat="43.43345" lon="6.53553">
        <ele>236.60000610352</ele>
        <time>2017-01-28T12:55:47.000Z</time>
      </trkpt>
      <trkpt lat="43.4335" lon="6.53551">
        <ele>237</ele>
        <time>2017-01-28T12:55:49.000Z</time>
      </trkpt>
      <trkpt lat="43.43353" lon="6.53549">
        <ele>237.19999694824</ele>
        <time>2017-01-28T12:55:50.000Z</time>
      </trkpt>
      <trkpt lat="43.43361" lon="6.53546">
        <ele>237</ele>
        <time>2017-01-28T12:55:52.000Z</time>
      </trkpt>
      <trkpt lat="43.43369" lon="6.53545">
        <ele>236</ele>
        <time>2017-01-28T12:55:54.000Z</time>
      </trkpt>
      <trkpt lat="43.43372" lon="6.53543">
        <ele>235.39999389648</ele>
        <time>2017-01-28T12:55:55.000Z</time>
      </trkpt>
      <trkpt lat="43.43378" lon="6.53538">
        <ele>234.80000305176</ele>
        <time>2017-01-28T12:55:57.000Z</time>
      </trkpt>
      <trkpt lat="43.43383" lon="6.53533">
        <ele>234.19999694824</ele>
        <time>2017-01-28T12:55:59.000Z</time>
      </trkpt>
      <trkpt lat="43.4339" lon="6.53531">
        <ele>232.80000305176</ele>
        <time>2017-01-28T12:56:01.000Z</time>
      </trkpt>
      <trkpt lat="43.43398" lon="6.53532">
        <ele>230.80000305176</ele>
        <time>2017-01-28T12:56:03.000Z</time>
      </trkpt>
      <trkpt lat="43.43402" lon="6.53531">
        <ele>230</ele>
        <time>2017-01-28T12:56:04.000Z</time>
      </trkpt>
      <trkpt lat="43.43405" lon="6.5353">
        <ele>229.39999389648</ele>
        <time>2017-01-28T12:56:05.000Z</time>
      </trkpt>
      <trkpt lat="43.4341" lon="6.53529">
        <ele>228.60000610352</ele>
        <time>2017-01-28T12:56:06.000Z</time>
      </trkpt>
      <trkpt lat="43.43415" lon="6.53527">
        <ele>227.80000305176</ele>
        <time>2017-01-28T12:56:07.000Z</time>
      </trkpt>
      <trkpt lat="43.43419" lon="6.53525">
        <ele>227.19999694824</ele>
        <time>2017-01-28T12:56:08.000Z</time>
      </trkpt>
      <trkpt lat="43.43423" lon="6.53522">
        <ele>226.19999694824</ele>
        <time>2017-01-28T12:56:09.000Z</time>
      </trkpt>
      <trkpt lat="43.43425" lon="6.53518">
        <ele>225.19999694824</ele>
        <time>2017-01-28T12:56:10.000Z</time>
      </trkpt>
      <trkpt lat="43.43431" lon="6.53509">
        <ele>223.39999389648</ele>
        <time>2017-01-28T12:56:12.000Z</time>
      </trkpt>
      <trkpt lat="43.43434" lon="6.53508">
        <ele>222.19999694824</ele>
        <time>2017-01-28T12:56:13.000Z</time>
      </trkpt>
      <trkpt lat="43.43436" lon="6.53508">
        <ele>221</ele>
        <time>2017-01-28T12:56:14.000Z</time>
      </trkpt>
      <trkpt lat="43.43441" lon="6.53502">
        <ele>219.19999694824</ele>
        <time>2017-01-28T12:56:16.000Z</time>
      </trkpt>
      <trkpt lat="43.43443" lon="6.53498">
        <ele>218.80000305176</ele>
        <time>2017-01-28T12:56:17.000Z</time>
      </trkpt>
      <trkpt lat="43.43446" lon="6.53494">
        <ele>218.39999389648</ele>
        <time>2017-01-28T12:56:18.000Z</time>
      </trkpt>
      <trkpt lat="43.43449" lon="6.5349">
        <ele>217.80000305176</ele>
        <time>2017-01-28T12:56:19.000Z</time>
      </trkpt>
      <trkpt lat="43.43451" lon="6.53484">
        <ele>217.19999694824</ele>
        <time>2017-01-28T12:56:20.000Z</time>
      </trkpt>
      <trkpt lat="43.43453" lon="6.53479">
        <ele>216.80000305176</ele>
        <time>2017-01-28T12:56:21.000Z</time>
      </trkpt>
      <trkpt lat="43.43455" lon="6.53474">
        <ele>215.80000305176</ele>
        <time>2017-01-28T12:56:22.000Z</time>
      </trkpt>
      <trkpt lat="43.43458" lon="6.53471">
        <ele>214.60000610352</ele>
        <time>2017-01-28T12:56:23.000Z</time>
      </trkpt>
      <trkpt lat="43.4346" lon="6.53471">
        <ele>214</ele>
        <time>2017-01-28T12:56:24.000Z</time>
      </trkpt>
      <trkpt lat="43.43462" lon="6.53471">
        <ele>212.39999389648</ele>
        <time>2017-01-28T12:56:25.000Z</time>
      </trkpt>
      <trkpt lat="43.43464" lon="6.53472">
        <ele>211</ele>
        <time>2017-01-28T12:56:26.000Z</time>
      </trkpt>
      <trkpt lat="43.43466" lon="6.53472">
        <ele>210.60000610352</ele>
        <time>2017-01-28T12:56:27.000Z</time>
      </trkpt>
      <trkpt lat="43.4347" lon="6.5347">
        <ele>209.80000305176</ele>
        <time>2017-01-28T12:56:29.000Z</time>
      </trkpt>
      <trkpt lat="43.43483" lon="6.53458">
        <ele>209.19999694824</ele>
        <time>2017-01-28T12:56:33.000Z</time>
      </trkpt>
      <trkpt lat="43.43487" lon="6.53456">
        <ele>208.19999694824</ele>
        <time>2017-01-28T12:56:34.000Z</time>
      </trkpt>
      <trkpt lat="43.43491" lon="6.53456">
        <ele>207.19999694824</ele>
        <time>2017-01-28T12:56:35.000Z</time>
      </trkpt>
      <trkpt lat="43.43495" lon="6.53457">
        <ele>206.19999694824</ele>
        <time>2017-01-28T12:56:36.000Z</time>
      </trkpt>
      <trkpt lat="43.43499" lon="6.53458">
        <ele>205.60000610352</ele>
        <time>2017-01-28T12:56:37.000Z</time>
      </trkpt>
      <trkpt lat="43.43502" lon="6.53456">
        <ele>204.80000305176</ele>
        <time>2017-01-28T12:56:38.000Z</time>
      </trkpt>
      <trkpt lat="43.43508" lon="6.53447">
        <ele>203.60000610352</ele>
        <time>2017-01-28T12:56:40.000Z</time>
      </trkpt>
      <trkpt lat="43.43513" lon="6.53431">
        <ele>201.80000305176</ele>
        <time>2017-01-28T12:56:42.000Z</time>
      </trkpt>
      <trkpt lat="43.43515" lon="6.53423">
        <ele>200.60000610352</ele>
        <time>2017-01-28T12:56:43.000Z</time>
      </trkpt>
      <trkpt lat="43.43518" lon="6.53415">
        <ele>199.19999694824</ele>
        <time>2017-01-28T12:56:44.000Z</time>
      </trkpt>
      <trkpt lat="43.43521" lon="6.53408">
        <ele>197.39999389648</ele>
        <time>2017-01-28T12:56:45.000Z</time>
      </trkpt>
      <trkpt lat="43.43526" lon="6.53402">
        <ele>195.80000305176</ele>
        <time>2017-01-28T12:56:46.000Z</time>
      </trkpt>
      <trkpt lat="43.43531" lon="6.53396">
        <ele>194.19999694824</ele>
        <time>2017-01-28T12:56:47.000Z</time>
      </trkpt>
      <trkpt lat="43.43535" lon="6.53388">
        <ele>192.60000610352</ele>
        <time>2017-01-28T12:56:48.000Z</time>
      </trkpt>
      <trkpt lat="43.43543" lon="6.53374">
        <ele>190.39999389648</ele>
        <time>2017-01-28T12:56:50.000Z</time>
      </trkpt>
      <trkpt lat="43.43547" lon="6.53368">
        <ele>189.19999694824</ele>
        <time>2017-01-28T12:56:51.000Z</time>
      </trkpt>
      <trkpt lat="43.4355" lon="6.53364">
        <ele>188.60000610352</ele>
        <time>2017-01-28T12:56:52.000Z</time>
      </trkpt>
      <trkpt lat="43.43552" lon="6.53361">
        <ele>188.19999694824</ele>
        <time>2017-01-28T12:56:53.000Z</time>
      </trkpt>
      <trkpt lat="43.43553" lon="6.53357">
        <ele>188.80000305176</ele>
        <time>2017-01-28T12:56:56.000Z</time>
      </trkpt>
      <trkpt lat="43.43554" lon="6.53356">
        <ele>189.19999694824</ele>
        <time>2017-01-28T12:56:57.000Z</time>
      </trkpt>
      <trkpt lat="43.43554" lon="6.53356">
        <ele>190.19999694824</ele>
        <time>2017-01-28T12:56:59.000Z</time>
      </trkpt>
      <trkpt lat="43.43554" lon="6.53355">
        <ele>190.80000305176</ele>
        <time>2017-01-28T12:57:06.000Z</time>
      </trkpt>
      <trkpt lat="43.43554" lon="6.53349">
        <ele>191.19999694824</ele>
        <time>2017-01-28T12:57:12.000Z</time>
      </trkpt>
      <trkpt lat="43.43554" lon="6.53348">
        <ele>191.39999389648</ele>
        <time>2017-01-28T12:57:13.000Z</time>
      </trkpt>
      <trkpt lat="43.43549" lon="6.53339">
        <ele>191.80000305176</ele>
        <time>2017-01-28T12:57:18.000Z</time>
      </trkpt>
      <trkpt lat="43.43547" lon="6.53337">
        <ele>191.60000610352</ele>
        <time>2017-01-28T12:57:19.000Z</time>
      </trkpt>
      <trkpt lat="43.43541" lon="6.53327">
        <ele>191.19999694824</ele>
        <time>2017-01-28T12:57:21.000Z</time>
      </trkpt>
      <trkpt lat="43.43537" lon="6.53313">
        <ele>190</ele>
        <time>2017-01-28T12:57:24.000Z</time>
      </trkpt>
      <trkpt lat="43.43531" lon="6.53296">
        <ele>188.39999389648</ele>
        <time>2017-01-28T12:57:27.000Z</time>
      </trkpt>
      <trkpt lat="43.43529" lon="6.53291">
        <ele>187.80000305176</ele>
        <time>2017-01-28T12:57:28.000Z</time>
      </trkpt>
      <trkpt lat="43.43526" lon="6.53286">
        <ele>187.19999694824</ele>
        <time>2017-01-28T12:57:29.000Z</time>
      </trkpt>
      <trkpt lat="43.43522" lon="6.53273">
        <ele>186</ele>
        <time>2017-01-28T12:57:31.000Z</time>
      </trkpt>
      <trkpt lat="43.43521" lon="6.53268">
        <ele>185.39999389648</ele>
        <time>2017-01-28T12:57:32.000Z</time>
      </trkpt>
      <trkpt lat="43.4352" lon="6.53262">
        <ele>184.80000305176</ele>
        <time>2017-01-28T12:57:33.000Z</time>
      </trkpt>
      <trkpt lat="43.43519" lon="6.53246">
        <ele>183.60000610352</ele>
        <time>2017-01-28T12:57:36.000Z</time>
      </trkpt>
      <trkpt lat="43.43519" lon="6.53237">
        <ele>183.80000305176</ele>
        <time>2017-01-28T12:57:38.000Z</time>
      </trkpt>
      <trkpt lat="43.43512" lon="6.53218">
        <ele>184</ele>
        <time>2017-01-28T12:57:42.000Z</time>
      </trkpt>
      <trkpt lat="43.4351" lon="6.532">
        <ele>182.60000610352</ele>
        <time>2017-01-28T12:57:45.000Z</time>
      </trkpt>
      <trkpt lat="43.43509" lon="6.53197">
        <ele>182</ele>
        <time>2017-01-28T12:57:46.000Z</time>
      </trkpt>
      <trkpt lat="43.43506" lon="6.53197">
        <ele>181.39999389648</ele>
        <time>2017-01-28T12:57:47.000Z</time>
      </trkpt>
      <trkpt lat="43.43502" lon="6.53191">
        <ele>180.19999694824</ele>
        <time>2017-01-28T12:57:49.000Z</time>
      </trkpt>
      <trkpt lat="43.435" lon="6.53184">
        <ele>178.60000610352</ele>
        <time>2017-01-28T12:57:51.000Z</time>
      </trkpt>
      <trkpt lat="43.43501" lon="6.53177">
        <ele>177</ele>
        <time>2017-01-28T12:57:53.000Z</time>
      </trkpt>
      <trkpt lat="43.43501" lon="6.53168">
        <ele>175.60000610352</ele>
        <time>2017-01-28T12:57:56.000Z</time>
      </trkpt>
      <trkpt lat="43.435" lon="6.53165">
        <ele>175.60000610352</ele>
        <time>2017-01-28T12:57:57.000Z</time>
      </trkpt>
      <trkpt lat="43.43499" lon="6.5315">
        <ele>175</ele>
        <time>2017-01-28T12:58:01.000Z</time>
      </trkpt>
      <trkpt lat="43.43499" lon="6.53147">
        <ele>174.60000610352</ele>
        <time>2017-01-28T12:58:02.000Z</time>
      </trkpt>
      <trkpt lat="43.435" lon="6.53136">
        <ele>173.39999389648</ele>
        <time>2017-01-28T12:58:06.000Z</time>
      </trkpt>
      <trkpt lat="43.43499" lon="6.53134">
        <ele>173.39999389648</ele>
        <time>2017-01-28T12:58:07.000Z</time>
      </trkpt>
      <trkpt lat="43.43494" lon="6.53126">
        <ele>172.80000305176</ele>
        <time>2017-01-28T12:58:10.000Z</time>
      </trkpt>
      <trkpt lat="43.43491" lon="6.53122">
        <ele>172.19999694824</ele>
        <time>2017-01-28T12:58:11.000Z</time>
      </trkpt>
      <trkpt lat="43.43488" lon="6.53116">
        <ele>171.60000610352</ele>
        <time>2017-01-28T12:58:12.000Z</time>
      </trkpt>
      <trkpt lat="43.43487" lon="6.53112">
        <ele>170.60000610352</ele>
        <time>2017-01-28T12:58:13.000Z</time>
      </trkpt>
      <trkpt lat="43.43486" lon="6.53109">
        <ele>169.80000305176</ele>
        <time>2017-01-28T12:58:14.000Z</time>
      </trkpt>
      <trkpt lat="43.43485" lon="6.53106">
        <ele>169</ele>
        <time>2017-01-28T12:58:15.000Z</time>
      </trkpt>
      <trkpt lat="43.43483" lon="6.53102">
        <ele>168.39999389648</ele>
        <time>2017-01-28T12:58:16.000Z</time>
      </trkpt>
      <trkpt lat="43.43481" lon="6.53095">
        <ele>167.80000305176</ele>
        <time>2017-01-28T12:58:18.000Z</time>
      </trkpt>
      <trkpt lat="43.43478" lon="6.5309">
        <ele>168</ele>
        <time>2017-01-28T12:58:20.000Z</time>
      </trkpt>
      <trkpt lat="43.4347" lon="6.53075">
        <ele>166.39999389648</ele>
        <time>2017-01-28T12:58:24.000Z</time>
      </trkpt>
      <trkpt lat="43.43466" lon="6.53067">
        <ele>165.39999389648</ele>
        <time>2017-01-28T12:58:26.000Z</time>
      </trkpt>
      <trkpt lat="43.43459" lon="6.53052">
        <ele>164.60000610352</ele>
        <time>2017-01-28T12:58:29.000Z</time>
      </trkpt>
      <trkpt lat="43.43458" lon="6.53047">
        <ele>164.19999694824</ele>
        <time>2017-01-28T12:58:30.000Z</time>
      </trkpt>
      <trkpt lat="43.43453" lon="6.53041">
        <ele>163.19999694824</ele>
        <time>2017-01-28T12:58:32.000Z</time>
      </trkpt>
      <trkpt lat="43.43447" lon="6.53028">
        <ele>162</ele>
        <time>2017-01-28T12:58:35.000Z</time>
      </trkpt>
      <trkpt lat="43.43446" lon="6.53023">
        <ele>161.39999389648</ele>
        <time>2017-01-28T12:58:36.000Z</time>
      </trkpt>
      <trkpt lat="43.43445" lon="6.53019">
        <ele>160.80000305176</ele>
        <time>2017-01-28T12:58:37.000Z</time>
      </trkpt>
      <trkpt lat="43.4344" lon="6.53011">
        <ele>159.80000305176</ele>
        <time>2017-01-28T12:58:39.000Z</time>
      </trkpt>
      <trkpt lat="43.43435" lon="6.53">
        <ele>158.39999389648</ele>
        <time>2017-01-28T12:58:42.000Z</time>
      </trkpt>
      <trkpt lat="43.43433" lon="6.52998">
        <ele>157.80000305176</ele>
        <time>2017-01-28T12:58:43.000Z</time>
      </trkpt>
      <trkpt lat="43.43432" lon="6.52996">
        <ele>157.39999389648</ele>
        <time>2017-01-28T12:58:44.000Z</time>
      </trkpt>
      <trkpt lat="43.43428" lon="6.52993">
        <ele>156.60000610352</ele>
        <time>2017-01-28T12:58:46.000Z</time>
      </trkpt>
      <trkpt lat="43.43427" lon="6.5299">
        <ele>156.39999389648</ele>
        <time>2017-01-28T12:58:47.000Z</time>
      </trkpt>
      <trkpt lat="43.43423" lon="6.52984">
        <ele>155.39999389648</ele>
        <time>2017-01-28T12:58:49.000Z</time>
      </trkpt>
      <trkpt lat="43.43419" lon="6.52979">
        <ele>154.39999389648</ele>
        <time>2017-01-28T12:58:51.000Z</time>
      </trkpt>
      <trkpt lat="43.43416" lon="6.52975">
        <ele>153.39999389648</ele>
        <time>2017-01-28T12:58:52.000Z</time>
      </trkpt>
      <trkpt lat="43.43415" lon="6.52972">
        <ele>152.60000610352</ele>
        <time>2017-01-28T12:58:53.000Z</time>
      </trkpt>
      <trkpt lat="43.43414" lon="6.52968">
        <ele>151.60000610352</ele>
        <time>2017-01-28T12:58:54.000Z</time>
      </trkpt>
      <trkpt lat="43.43413" lon="6.52964">
        <ele>150.80000305176</ele>
        <time>2017-01-28T12:58:55.000Z</time>
      </trkpt>
      <trkpt lat="43.43411" lon="6.52961">
        <ele>150.19999694824</ele>
        <time>2017-01-28T12:58:56.000Z</time>
      </trkpt>
      <trkpt lat="43.43408" lon="6.5295">
        <ele>149</ele>
        <time>2017-01-28T12:58:59.000Z</time>
      </trkpt>
      <trkpt lat="43.43408" lon="6.52947">
        <ele>148.39999389648</ele>
        <time>2017-01-28T12:59:00.000Z</time>
      </trkpt>
      <trkpt lat="43.4341" lon="6.52939">
        <ele>147.60000610352</ele>
        <time>2017-01-28T12:59:02.000Z</time>
      </trkpt>
      <trkpt lat="43.43412" lon="6.52936">
        <ele>147</ele>
        <time>2017-01-28T12:59:03.000Z</time>
      </trkpt>
      <trkpt lat="43.43413" lon="6.52932">
        <ele>146.60000610352</ele>
        <time>2017-01-28T12:59:04.000Z</time>
      </trkpt>
      <trkpt lat="43.43415" lon="6.52925">
        <ele>146</ele>
        <time>2017-01-28T12:59:06.000Z</time>
      </trkpt>
      <trkpt lat="43.43416" lon="6.5292">
        <ele>145.60000610352</ele>
        <time>2017-01-28T12:59:07.000Z</time>
      </trkpt>
      <trkpt lat="43.43417" lon="6.52917">
        <ele>145.19999694824</ele>
        <time>2017-01-28T12:59:08.000Z</time>
      </trkpt>
      <trkpt lat="43.43421" lon="6.5291">
        <ele>144.19999694824</ele>
        <time>2017-01-28T12:59:10.000Z</time>
      </trkpt>
      <trkpt lat="43.43426" lon="6.52902">
        <ele>142.80000305176</ele>
        <time>2017-01-28T12:59:12.000Z</time>
      </trkpt>
      <trkpt lat="43.43428" lon="6.52899">
        <ele>142.19999694824</ele>
        <time>2017-01-28T12:59:13.000Z</time>
      </trkpt>
      <trkpt lat="43.43428" lon="6.52895">
        <ele>141.19999694824</ele>
        <time>2017-01-28T12:59:14.000Z</time>
      </trkpt>
      <trkpt lat="43.43435" lon="6.52888">
        <ele>139.60000610352</ele>
        <time>2017-01-28T12:59:17.000Z</time>
      </trkpt>
      <trkpt lat="43.43439" lon="6.52883">
        <ele>138.19999694824</ele>
        <time>2017-01-28T12:59:19.000Z</time>
      </trkpt>
      <trkpt lat="43.43443" lon="6.5288">
        <ele>137.19999694824</ele>
        <time>2017-01-28T12:59:21.000Z</time>
      </trkpt>
      <trkpt lat="43.43449" lon="6.52869">
        <ele>136.19999694824</ele>
        <time>2017-01-28T12:59:24.000Z</time>
      </trkpt>
      <trkpt lat="43.43451" lon="6.52865">
        <ele>135.60000610352</ele>
        <time>2017-01-28T12:59:25.000Z</time>
      </trkpt>
      <trkpt lat="43.43453" lon="6.52857">
        <ele>134</ele>
        <time>2017-01-28T12:59:27.000Z</time>
      </trkpt>
      <trkpt lat="43.43454" lon="6.52852">
        <ele>132.80000305176</ele>
        <time>2017-01-28T12:59:28.000Z</time>
      </trkpt>
      <trkpt lat="43.43454" lon="6.52847">
        <ele>131.39999389648</ele>
        <time>2017-01-28T12:59:29.000Z</time>
      </trkpt>
      <trkpt lat="43.43455" lon="6.52838">
        <ele>129.39999389648</ele>
        <time>2017-01-28T12:59:31.000Z</time>
      </trkpt>
      <trkpt lat="43.43453" lon="6.52835">
        <ele>128</ele>
        <time>2017-01-28T12:59:32.000Z</time>
      </trkpt>
      <trkpt lat="43.43451" lon="6.52833">
        <ele>126.80000305176</ele>
        <time>2017-01-28T12:59:33.000Z</time>
      </trkpt>
      <trkpt lat="43.4345" lon="6.52832">
        <ele>125.59999847412</ele>
        <time>2017-01-28T12:59:34.000Z</time>
      </trkpt>
      <trkpt lat="43.4345" lon="6.52833">
        <ele>124.19999694824</ele>
        <time>2017-01-28T12:59:35.000Z</time>
      </trkpt>
      <trkpt lat="43.43448" lon="6.52835">
        <ele>123</ele>
        <time>2017-01-28T12:59:36.000Z</time>
      </trkpt>
      <trkpt lat="43.43445" lon="6.52837">
        <ele>121.80000305176</ele>
        <time>2017-01-28T12:59:37.000Z</time>
      </trkpt>
      <trkpt lat="43.43441" lon="6.52839">
        <ele>120.80000305176</ele>
        <time>2017-01-28T12:59:38.000Z</time>
      </trkpt>
      <trkpt lat="43.43436" lon="6.5284">
        <ele>120.19999694824</ele>
        <time>2017-01-28T12:59:39.000Z</time>
      </trkpt>
      <trkpt lat="43.43427" lon="6.52841">
        <ele>119.59999847412</ele>
        <time>2017-01-28T12:59:41.000Z</time>
      </trkpt>
      <trkpt lat="43.43412" lon="6.52841">
        <ele>118.59999847412</ele>
        <time>2017-01-28T12:59:44.000Z</time>
      </trkpt>
      <trkpt lat="43.43408" lon="6.52841">
        <ele>118</ele>
        <time>2017-01-28T12:59:45.000Z</time>
      </trkpt>
      <trkpt lat="43.43395" lon="6.52843">
        <ele>117</ele>
        <time>2017-01-28T12:59:48.000Z</time>
      </trkpt>
      <trkpt lat="43.4338" lon="6.52859">
        <ele>115.80000305176</ele>
        <time>2017-01-28T12:59:52.000Z</time>
      </trkpt>
      <trkpt lat="43.43376" lon="6.52863">
        <ele>115.59999847412</ele>
        <time>2017-01-28T12:59:53.000Z</time>
      </trkpt>
      <trkpt lat="43.43367" lon="6.52871">
        <ele>115.40000152588</ele>
        <time>2017-01-28T12:59:55.000Z</time>
      </trkpt>
      <trkpt lat="43.43363" lon="6.52871">
        <ele>115</ele>
        <time>2017-01-28T12:59:56.000Z</time>
      </trkpt>
      <trkpt lat="43.43359" lon="6.52872">
        <ele>114.40000152588</ele>
        <time>2017-01-28T12:59:57.000Z</time>
      </trkpt>
      <trkpt lat="43.43352" lon="6.52875">
        <ele>113.80000305176</ele>
        <time>2017-01-28T12:59:59.000Z</time>
      </trkpt>
      <trkpt lat="43.43348" lon="6.52878">
        <ele>113.59999847412</ele>
        <time>2017-01-28T13:00:00.000Z</time>
      </trkpt>
      <trkpt lat="43.43344" lon="6.52882">
        <ele>113.19999694824</ele>
        <time>2017-01-28T13:00:01.000Z</time>
      </trkpt>
      <trkpt lat="43.43342" lon="6.52887">
        <ele>113</ele>
        <time>2017-01-28T13:00:02.000Z</time>
      </trkpt>
      <trkpt lat="43.4334" lon="6.52901">
        <ele>112.19999694824</ele>
        <time>2017-01-28T13:00:05.000Z</time>
      </trkpt>
      <trkpt lat="43.4334" lon="6.52907">
        <ele>111.80000305176</ele>
        <time>2017-01-28T13:00:06.000Z</time>
      </trkpt>
      <trkpt lat="43.43342" lon="6.52935">
        <ele>111.19999694824</ele>
        <time>2017-01-28T13:00:11.000Z</time>
      </trkpt>
      <trkpt lat="43.43344" lon="6.52964">
        <ele>112.59999847412</ele>
        <time>2017-01-28T13:00:16.000Z</time>
      </trkpt>
      <trkpt lat="43.43345" lon="6.5297">
        <ele>112.59999847412</ele>
        <time>2017-01-28T13:00:17.000Z</time>
      </trkpt>
      <trkpt lat="43.4335" lon="6.5299">
        <ele>112.59999847412</ele>
        <time>2017-01-28T13:00:21.000Z</time>
      </trkpt>
      <trkpt lat="43.43357" lon="6.53015">
        <ele>112.80000305176</ele>
        <time>2017-01-28T13:00:26.000Z</time>
      </trkpt>
      <trkpt lat="43.43356" lon="6.53033">
        <ele>112.80000305176</ele>
        <time>2017-01-28T13:00:30.000Z</time>
      </trkpt>
      <trkpt lat="43.43358" lon="6.53048">
        <ele>112.80000305176</ele>
        <time>2017-01-28T13:00:34.000Z</time>
      </trkpt>
      <trkpt lat="43.43356" lon="6.53051">
        <ele>112.80000305176</ele>
        <time>2017-01-28T13:00:35.000Z</time>
      </trkpt>
      <trkpt lat="43.43352" lon="6.5305">
        <ele>112.59999847412</ele>
        <time>2017-01-28T13:00:37.000Z</time>
      </trkpt>
      <trkpt lat="43.4335" lon="6.53048">
        <ele>112.40000152588</ele>
        <time>2017-01-28T13:00:38.000Z</time>
      </trkpt>
      <trkpt lat="43.43344" lon="6.53037">
        <ele>112.59999847412</ele>
        <time>2017-01-28T13:00:42.000Z</time>
      </trkpt>
      <trkpt lat="43.43338" lon="6.5302">
        <ele>112.40000152588</ele>
        <time>2017-01-28T13:00:47.000Z</time>
      </trkpt>
      <trkpt lat="43.43336" lon="6.53016">
        <ele>112.40000152588</ele>
        <time>2017-01-28T13:00:48.000Z</time>
      </trkpt>
      <trkpt lat="43.43326" lon="6.53001">
        <ele>111.80000305176</ele>
        <time>2017-01-28T13:00:51.000Z</time>
      </trkpt>
      <trkpt lat="43.4332" lon="6.52989">
        <ele>110.80000305176</ele>
        <time>2017-01-28T13:00:53.000Z</time>
      </trkpt>
      <trkpt lat="43.43316" lon="6.52984">
        <ele>110.40000152588</ele>
        <time>2017-01-28T13:00:54.000Z</time>
      </trkpt>
      <trkpt lat="43.43312" lon="6.5298">
        <ele>109.80000305176</ele>
        <time>2017-01-28T13:00:55.000Z</time>
      </trkpt>
      <trkpt lat="43.43309" lon="6.52976">
        <ele>109.40000152588</ele>
        <time>2017-01-28T13:00:56.000Z</time>
      </trkpt>
      <trkpt lat="43.43306" lon="6.52969">
        <ele>108</ele>
        <time>2017-01-28T13:00:58.000Z</time>
      </trkpt>
      <trkpt lat="43.43304" lon="6.52964">
        <ele>107.80000305176</ele>
        <time>2017-01-28T13:00:59.000Z</time>
      </trkpt>
      <trkpt lat="43.43303" lon="6.52958">
        <ele>106.80000305176</ele>
        <time>2017-01-28T13:01:01.000Z</time>
      </trkpt>
      <trkpt lat="43.43301" lon="6.52952">
        <ele>106</ele>
        <time>2017-01-28T13:01:03.000Z</time>
      </trkpt>
      <trkpt lat="43.43291" lon="6.52929">
        <ele>105.80000305176</ele>
        <time>2017-01-28T13:01:07.000Z</time>
      </trkpt>
      <trkpt lat="43.43287" lon="6.52925">
        <ele>105.59999847412</ele>
        <time>2017-01-28T13:01:08.000Z</time>
      </trkpt>
      <trkpt lat="43.43277" lon="6.52912">
        <ele>104.59999847412</ele>
        <time>2017-01-28T13:01:11.000Z</time>
      </trkpt>
      <trkpt lat="43.43274" lon="6.52906">
        <ele>104.19999694824</ele>
        <time>2017-01-28T13:01:12.000Z</time>
      </trkpt>
      <trkpt lat="43.43267" lon="6.52895">
        <ele>103.40000152588</ele>
        <time>2017-01-28T13:01:14.000Z</time>
      </trkpt>
      <trkpt lat="43.43267" lon="6.52889">
        <ele>103.19999694824</ele>
        <time>2017-01-28T13:01:15.000Z</time>
      </trkpt>
      <trkpt lat="43.43269" lon="6.52861">
        <ele>102.19999694824</ele>
        <time>2017-01-28T13:01:19.000Z</time>
      </trkpt>
      <trkpt lat="43.4327" lon="6.52853">
        <ele>101.59999847412</ele>
        <time>2017-01-28T13:01:20.000Z</time>
      </trkpt>
      <trkpt lat="43.4327" lon="6.52844">
        <ele>101.19999694824</ele>
        <time>2017-01-28T13:01:21.000Z</time>
      </trkpt>
      <trkpt lat="43.43272" lon="6.52835">
        <ele>101</ele>
        <time>2017-01-28T13:01:22.000Z</time>
      </trkpt>
      <trkpt lat="43.43276" lon="6.52809">
        <ele>99.800003051758</ele>
        <time>2017-01-28T13:01:25.000Z</time>
      </trkpt>
      <trkpt lat="43.43279" lon="6.52791">
        <ele>98.599998474121</ele>
        <time>2017-01-28T13:01:27.000Z</time>
      </trkpt>
      <trkpt lat="43.43284" lon="6.52786">
        <ele>97.800003051758</ele>
        <time>2017-01-28T13:01:28.000Z</time>
      </trkpt>
      <trkpt lat="43.43288" lon="6.5278">
        <ele>97.400001525879</ele>
        <time>2017-01-28T13:01:29.000Z</time>
      </trkpt>
      <trkpt lat="43.43302" lon="6.5276">
        <ele>96</ele>
        <time>2017-01-28T13:01:32.000Z</time>
      </trkpt>
      <trkpt lat="43.43307" lon="6.52753">
        <ele>95.400001525879</ele>
        <time>2017-01-28T13:01:33.000Z</time>
      </trkpt>
      <trkpt lat="43.43311" lon="6.52746">
        <ele>95</ele>
        <time>2017-01-28T13:01:34.000Z</time>
      </trkpt>
      <trkpt lat="43.43321" lon="6.52731">
        <ele>94</ele>
        <time>2017-01-28T13:01:36.000Z</time>
      </trkpt>
      <trkpt lat="43.43335" lon="6.52713">
        <ele>92.599998474121</ele>
        <time>2017-01-28T13:01:39.000Z</time>
      </trkpt>
      <trkpt lat="43.43342" lon="6.52699">
        <ele>91.599998474121</ele>
        <time>2017-01-28T13:01:41.000Z</time>
      </trkpt>
      <trkpt lat="43.43343" lon="6.52684">
        <ele>90.400001525879</ele>
        <time>2017-01-28T13:01:43.000Z</time>
      </trkpt>
      <trkpt lat="43.43338" lon="6.5267">
        <ele>89.599998474121</ele>
        <time>2017-01-28T13:01:45.000Z</time>
      </trkpt>
      <trkpt lat="43.43336" lon="6.52662">
        <ele>89</ele>
        <time>2017-01-28T13:01:46.000Z</time>
      </trkpt>
      <trkpt lat="43.4333" lon="6.52646">
        <ele>87.800003051758</ele>
        <time>2017-01-28T13:01:48.000Z</time>
      </trkpt>
      <trkpt lat="43.43328" lon="6.5263">
        <ele>86.599998474121</ele>
        <time>2017-01-28T13:01:50.000Z</time>
      </trkpt>
      <trkpt lat="43.43326" lon="6.52605">
        <ele>85</ele>
        <time>2017-01-28T13:01:53.000Z</time>
      </trkpt>
      <trkpt lat="43.43323" lon="6.52599">
        <ele>84.599998474121</ele>
        <time>2017-01-28T13:01:54.000Z</time>
      </trkpt>
      <trkpt lat="43.43315" lon="6.52591">
        <ele>83.599998474121</ele>
        <time>2017-01-28T13:01:56.000Z</time>
      </trkpt>
      <trkpt lat="43.4331" lon="6.52588">
        <ele>83</ele>
        <time>2017-01-28T13:01:57.000Z</time>
      </trkpt>
      <trkpt lat="43.43306" lon="6.52585">
        <ele>83</ele>
        <time>2017-01-28T13:01:58.000Z</time>
      </trkpt>
      <trkpt lat="43.43294" lon="6.52579">
        <ele>82.400001525879</ele>
        <time>2017-01-28T13:02:00.000Z</time>
      </trkpt>
      <trkpt lat="43.43287" lon="6.52577">
        <ele>82.199996948242</ele>
        <time>2017-01-28T13:02:01.000Z</time>
      </trkpt>
      <trkpt lat="43.43273" lon="6.52574">
        <ele>81.199996948242</ele>
        <time>2017-01-28T13:02:03.000Z</time>
      </trkpt>
      <trkpt lat="43.43259" lon="6.52571">
        <ele>80</ele>
        <time>2017-01-28T13:02:05.000Z</time>
      </trkpt>
      <trkpt lat="43.43242" lon="6.52568">
        <ele>79</ele>
        <time>2017-01-28T13:02:07.000Z</time>
      </trkpt>
      <trkpt lat="43.4323" lon="6.52569">
        <ele>78</ele>
        <time>2017-01-28T13:02:09.000Z</time>
      </trkpt>
      <trkpt lat="43.43224" lon="6.52569">
        <ele>77.800003051758</ele>
        <time>2017-01-28T13:02:10.000Z</time>
      </trkpt>
      <trkpt lat="43.43218" lon="6.5257">
        <ele>77.400001525879</ele>
        <time>2017-01-28T13:02:11.000Z</time>
      </trkpt>
      <trkpt lat="43.43212" lon="6.52569">
        <ele>77.199996948242</ele>
        <time>2017-01-28T13:02:12.000Z</time>
      </trkpt>
      <trkpt lat="43.43208" lon="6.52565">
        <ele>76.800003051758</ele>
        <time>2017-01-28T13:02:13.000Z</time>
      </trkpt>
      <trkpt lat="43.432" lon="6.52562">
        <ele>75.800003051758</ele>
        <time>2017-01-28T13:02:15.000Z</time>
      </trkpt>
      <trkpt lat="43.43195" lon="6.5256">
        <ele>75.199996948242</ele>
        <time>2017-01-28T13:02:16.000Z</time>
      </trkpt>
      <trkpt lat="43.4319" lon="6.52559">
        <ele>74.800003051758</ele>
        <time>2017-01-28T13:02:17.000Z</time>
      </trkpt>
      <trkpt lat="43.43184" lon="6.52556">
        <ele>74.400001525879</ele>
        <time>2017-01-28T13:02:18.000Z</time>
      </trkpt>
      <trkpt lat="43.43167" lon="6.5255">
        <ele>73.800003051758</ele>
        <time>2017-01-28T13:02:21.000Z</time>
      </trkpt>
      <trkpt lat="43.43161" lon="6.52548">
        <ele>73.199996948242</ele>
        <time>2017-01-28T13:02:22.000Z</time>
      </trkpt>
      <trkpt lat="43.43152" lon="6.52544">
        <ele>72.400001525879</ele>
        <time>2017-01-28T13:02:24.000Z</time>
      </trkpt>
      <trkpt lat="43.43147" lon="6.5254">
        <ele>72</ele>
        <time>2017-01-28T13:02:25.000Z</time>
      </trkpt>
      <trkpt lat="43.43142" lon="6.52539">
        <ele>71.199996948242</ele>
        <time>2017-01-28T13:02:26.000Z</time>
      </trkpt>
      <trkpt lat="43.43134" lon="6.52534">
        <ele>70.599998474121</ele>
        <time>2017-01-28T13:02:28.000Z</time>
      </trkpt>
      <trkpt lat="43.4313" lon="6.52528">
        <ele>70</ele>
        <time>2017-01-28T13:02:29.000Z</time>
      </trkpt>
      <trkpt lat="43.43115" lon="6.52512">
        <ele>69.400001525879</ele>
        <time>2017-01-28T13:02:32.000Z</time>
      </trkpt>
      <trkpt lat="43.4311" lon="6.52506">
        <ele>69.400001525879</ele>
        <time>2017-01-28T13:02:33.000Z</time>
      </trkpt>
      <trkpt lat="43.43106" lon="6.52501">
        <ele>69</ele>
        <time>2017-01-28T13:02:34.000Z</time>
      </trkpt>
      <trkpt lat="43.43096" lon="6.52495">
        <ele>68</ele>
        <time>2017-01-28T13:02:36.000Z</time>
      </trkpt>
      <trkpt lat="43.43086" lon="6.52488">
        <ele>66.599998474121</ele>
        <time>2017-01-28T13:02:38.000Z</time>
      </trkpt>
      <trkpt lat="43.43078" lon="6.52481">
        <ele>65.599998474121</ele>
        <time>2017-01-28T13:02:40.000Z</time>
      </trkpt>
      <trkpt lat="43.43074" lon="6.52477">
        <ele>65.400001525879</ele>
        <time>2017-01-28T13:02:41.000Z</time>
      </trkpt>
      <trkpt lat="43.43071" lon="6.52472">
        <ele>65.199996948242</ele>
        <time>2017-01-28T13:02:42.000Z</time>
      </trkpt>
      <trkpt lat="43.43065" lon="6.52463">
        <ele>65</ele>
        <time>2017-01-28T13:02:44.000Z</time>
      </trkpt>
      <trkpt lat="43.43056" lon="6.52459">
        <ele>64.199996948242</ele>
        <time>2017-01-28T13:02:47.000Z</time>
      </trkpt>
      <trkpt lat="43.43055" lon="6.5246">
        <ele>63</ele>
        <time>2017-01-28T13:02:50.000Z</time>
      </trkpt>
      <trkpt lat="43.43055" lon="6.5246">
        <ele>62.799999237061</ele>
        <time>2017-01-28T13:02:54.000Z</time>
      </trkpt>
      <trkpt lat="43.43053" lon="6.5246">
        <ele>62.599998474121</ele>
        <time>2017-01-28T13:03:10.000Z</time>
      </trkpt>
      <trkpt lat="43.43053" lon="6.5246">
        <ele>62.799999237061</ele>
        <time>2017-01-28T13:03:27.000Z</time>
      </trkpt>
      <trkpt lat="43.43053" lon="6.5246">
        <ele>62.799999237061</ele>
        <time>2017-01-28T13:03:37.000Z</time>
      </trkpt>
      <trkpt lat="43.43053" lon="6.52461">
        <ele>63</ele>
        <time>2017-01-28T13:03:55.000Z</time>
      </trkpt>
      <trkpt lat="43.43052" lon="6.52461">
        <ele>63</ele>
        <time>2017-01-28T13:04:14.000Z</time>
      </trkpt>
      <trkpt lat="43.43052" lon="6.52461">
        <ele>63.200000762939</ele>
        <time>2017-01-28T13:04:37.000Z</time>
      </trkpt>
      <trkpt lat="43.43051" lon="6.52461">
        <ele>63</ele>
        <time>2017-01-28T13:04:49.000Z</time>
      </trkpt>
      <trkpt lat="43.43048" lon="6.52463">
        <ele>62.799999237061</ele>
        <time>2017-01-28T13:04:57.000Z</time>
      </trkpt>
      <trkpt lat="43.43047" lon="6.52462">
        <ele>62.799999237061</ele>
        <time>2017-01-28T13:04:58.000Z</time>
      </trkpt>
      <trkpt lat="43.43043" lon="6.52452">
        <ele>62.599998474121</ele>
        <time>2017-01-28T13:05:02.000Z</time>
      </trkpt>
      <trkpt lat="43.43044" lon="6.52441">
        <ele>62.200000762939</ele>
        <time>2017-01-28T13:05:04.000Z</time>
      </trkpt>
      <trkpt lat="43.43045" lon="6.52439">
        <ele>61.400001525879</ele>
        <time>2017-01-28T13:05:05.000Z</time>
      </trkpt>
      <trkpt lat="43.43045" lon="6.52436">
        <ele>60.599998474121</ele>
        <time>2017-01-28T13:05:06.000Z</time>
      </trkpt>
      <trkpt lat="43.43044" lon="6.52435">
        <ele>59.400001525879</ele>
        <time>2017-01-28T13:05:07.000Z</time>
      </trkpt>
      <trkpt lat="43.43041" lon="6.52435">
        <ele>58.400001525879</ele>
        <time>2017-01-28T13:05:08.000Z</time>
      </trkpt>
      <trkpt lat="43.43039" lon="6.52432">
        <ele>57.400001525879</ele>
        <time>2017-01-28T13:05:09.000Z</time>
      </trkpt>
      <trkpt lat="43.43037" lon="6.52423">
        <ele>56</ele>
        <time>2017-01-28T13:05:11.000Z</time>
      </trkpt>
      <trkpt lat="43.43035" lon="6.52418">
        <ele>54.599998474121</ele>
        <time>2017-01-28T13:05:13.000Z</time>
      </trkpt>
      <trkpt lat="43.43033" lon="6.52419">
        <ele>54</ele>
        <time>2017-01-28T13:05:14.000Z</time>
      </trkpt>
      <trkpt lat="43.43031" lon="6.52418">
        <ele>53.200000762939</ele>
        <time>2017-01-28T13:05:15.000Z</time>
      </trkpt>
      <trkpt lat="43.43027" lon="6.52415">
        <ele>51</ele>
        <time>2017-01-28T13:05:17.000Z</time>
      </trkpt>
      <trkpt lat="43.43027" lon="6.52412">
        <ele>50.599998474121</ele>
        <time>2017-01-28T13:05:18.000Z</time>
      </trkpt>
      <trkpt lat="43.43027" lon="6.52409">
        <ele>50</ele>
        <time>2017-01-28T13:05:19.000Z</time>
      </trkpt>
      <trkpt lat="43.43027" lon="6.52407">
        <ele>49.400001525879</ele>
        <time>2017-01-28T13:05:20.000Z</time>
      </trkpt>
      <trkpt lat="43.43025" lon="6.52406">
        <ele>49</ele>
        <time>2017-01-28T13:05:21.000Z</time>
      </trkpt>
      <trkpt lat="43.43024" lon="6.52405">
        <ele>48.799999237061</ele>
        <time>2017-01-28T13:05:22.000Z</time>
      </trkpt>
      <trkpt lat="43.43018" lon="6.52402">
        <ele>47.799999237061</ele>
        <time>2017-01-28T13:05:26.000Z</time>
      </trkpt>
      <trkpt lat="43.43012" lon="6.52401">
        <ele>46.799999237061</ele>
        <time>2017-01-28T13:05:28.000Z</time>
      </trkpt>
      <trkpt lat="43.43008" lon="6.524">
        <ele>46</ele>
        <time>2017-01-28T13:05:29.000Z</time>
      </trkpt>
      <trkpt lat="43.43003" lon="6.52399">
        <ele>44.599998474121</ele>
        <time>2017-01-28T13:05:31.000Z</time>
      </trkpt>
      <trkpt lat="43.43001" lon="6.52398">
        <ele>44.200000762939</ele>
        <time>2017-01-28T13:05:32.000Z</time>
      </trkpt>
      <trkpt lat="43.42998" lon="6.52394">
        <ele>44.400001525879</ele>
        <time>2017-01-28T13:05:37.000Z</time>
      </trkpt>
      <trkpt lat="43.42998" lon="6.52391">
        <ele>44.400001525879</ele>
        <time>2017-01-28T13:05:40.000Z</time>
      </trkpt>
      <trkpt lat="43.42996" lon="6.52389">
        <ele>44.400001525879</ele>
        <time>2017-01-28T13:05:42.000Z</time>
      </trkpt>
      <trkpt lat="43.42995" lon="6.52391">
        <ele>44.400001525879</ele>
        <time>2017-01-28T13:05:45.000Z</time>
      </trkpt>
      <trkpt lat="43.42996" lon="6.52395">
        <ele>44.400001525879</ele>
        <time>2017-01-28T13:05:49.000Z</time>
      </trkpt>
      <trkpt lat="43.42996" lon="6.52394">
        <ele>44</ele>
        <time>2017-01-28T13:05:55.000Z</time>
      </trkpt>
      <trkpt lat="43.42997" lon="6.52395">
        <ele>43.599998474121</ele>
        <time>2017-01-28T13:06:01.000Z</time>
      </trkpt>
      <trkpt lat="43.42997" lon="6.52395">
        <ele>43.599998474121</ele>
        <time>2017-01-28T13:06:03.000Z</time>
      </trkpt>
      <trkpt lat="43.42998" lon="6.52395">
        <ele>44.599998474121</ele>
        <time>2017-01-28T13:06:11.000Z</time>
      </trkpt>
      <trkpt lat="43.42998" lon="6.52394">
        <ele>44.599998474121</ele>
        <time>2017-01-28T13:06:24.000Z</time>
      </trkpt>
      <trkpt lat="43.42999" lon="6.52397">
        <ele>44.400001525879</ele>
        <time>2017-01-28T13:06:36.000Z</time>
      </trkpt>
      <trkpt lat="43.42999" lon="6.52398">
        <ele>44.400001525879</ele>
        <time>2017-01-28T13:06:37.000Z</time>
      </trkpt>
      <trkpt lat="43.43" lon="6.52402">
        <ele>44.400001525879</ele>
        <time>2017-01-28T13:06:42.000Z</time>
      </trkpt>
      <trkpt lat="43.43" lon="6.52402">
        <ele>44.599998474121</ele>
        <time>2017-01-28T13:06:48.000Z</time>
      </trkpt>
      <trkpt lat="43.43" lon="6.52402">
        <ele>44.599998474121</ele>
        <time>2017-01-28T13:06:49.000Z</time>
      </trkpt>
      <trkpt lat="43.43" lon="6.52402">
        <ele>44.400001525879</ele>
        <time>2017-01-28T13:06:57.000Z</time>
      </trkpt>
      <trkpt lat="43.43" lon="6.52402">
        <ele>44.200000762939</ele>
        <time>2017-01-28T13:07:19.000Z</time>
      </trkpt>
      <trkpt lat="43.43001" lon="6.52402">
        <ele>44.200000762939</ele>
        <time>2017-01-28T13:07:39.000Z</time>
      </trkpt>
      <trkpt lat="43.43001" lon="6.52402">
        <ele>44.400001525879</ele>
        <time>2017-01-28T13:07:57.000Z</time>
      </trkpt>
      <trkpt lat="43.43002" lon="6.52402">
        <ele>44.200000762939</ele>
        <time>2017-01-28T13:08:08.000Z</time>
      </trkpt>
      <trkpt lat="43.43002" lon="6.52403">
        <ele>44</ele>
        <time>2017-01-28T13:08:23.000Z</time>
      </trkpt>
      <trkpt lat="43.43002" lon="6.52403">
        <ele>44.400001525879</ele>
        <time>2017-01-28T13:08:43.000Z</time>
      </trkpt>
      <trkpt lat="43.43002" lon="6.52403">
        <ele>44.400001525879</ele>
        <time>2017-01-28T13:09:06.000Z</time>
      </trkpt>
      <trkpt lat="43.43001" lon="6.52403">
        <ele>44.400001525879</ele>
        <time>2017-01-28T13:09:24.000Z</time>
      </trkpt>
      <trkpt lat="43.43" lon="6.52403">
        <ele>44.599998474121</ele>
        <time>2017-01-28T13:09:37.000Z</time>
      </trkpt>
      <trkpt lat="43.43" lon="6.52403">
        <ele>44.200000762939</ele>
        <time>2017-01-28T13:09:51.000Z</time>
      </trkpt>
      <trkpt lat="43.43" lon="6.52403">
        <ele>44</ele>
        <time>2017-01-28T13:10:09.000Z</time>
      </trkpt>
      <trkpt lat="43.43" lon="6.52403">
        <ele>44</ele>
        <time>2017-01-28T13:10:23.000Z</time>
      </trkpt>
      <trkpt lat="43.43" lon="6.52404">
        <ele>44.400001525879</ele>
        <time>2017-01-28T13:10:43.000Z</time>
      </trkpt>
      <trkpt lat="43.42999" lon="6.52404">
        <ele>43.599998474121</ele>
        <time>2017-01-28T13:10:58.000Z</time>
      </trkpt>
      <trkpt lat="43.42999" lon="6.52404">
        <ele>44</ele>
        <time>2017-01-28T13:11:17.000Z</time>
      </trkpt>
      <trkpt lat="43.42998" lon="6.52404">
        <ele>44</ele>
        <time>2017-01-28T13:11:30.000Z</time>
      </trkpt>
      <trkpt lat="43.42998" lon="6.52403">
        <ele>43.799999237061</ele>
        <time>2017-01-28T13:11:41.000Z</time>
      </trkpt>
      <trkpt lat="43.42998" lon="6.52402">
        <ele>44</ele>
        <time>2017-01-28T13:11:50.000Z</time>
      </trkpt>
      <trkpt lat="43.42998" lon="6.52398">
        <ele>44.200000762939</ele>
        <time>2017-01-28T13:11:55.000Z</time>
      </trkpt>
      <trkpt lat="43.42997" lon="6.52395">
        <ele>44.400001525879</ele>
        <time>2017-01-28T13:11:57.000Z</time>
      </trkpt>
      <trkpt lat="43.42995" lon="6.52392">
        <ele>44.400001525879</ele>
        <time>2017-01-28T13:11:59.000Z</time>
      </trkpt>
      <trkpt lat="43.42991" lon="6.52386">
        <ele>44.400001525879</ele>
        <time>2017-01-28T13:12:03.000Z</time>
      </trkpt>
      <trkpt lat="43.4298" lon="6.52378">
        <ele>44.200000762939</ele>
        <time>2017-01-28T13:12:09.000Z</time>
      </trkpt>
      <trkpt lat="43.42968" lon="6.52386">
        <ele>43.599998474121</ele>
        <time>2017-01-28T13:12:13.000Z</time>
      </trkpt>
      <trkpt lat="43.42954" lon="6.52401">
        <ele>43</ele>
        <time>2017-01-28T13:12:18.000Z</time>
      </trkpt>
      <trkpt lat="43.42943" lon="6.52407">
        <ele>43</ele>
        <time>2017-01-28T13:12:22.000Z</time>
      </trkpt>
      <trkpt lat="43.42929" lon="6.52409">
        <ele>43</ele>
        <time>2017-01-28T13:12:27.000Z</time>
      </trkpt>
      <trkpt lat="43.42916" lon="6.52402">
        <ele>42.599998474121</ele>
        <time>2017-01-28T13:12:31.000Z</time>
      </trkpt>
      <trkpt lat="43.4291" lon="6.52397">
        <ele>42.200000762939</ele>
        <time>2017-01-28T13:12:33.000Z</time>
      </trkpt>
      <trkpt lat="43.42899" lon="6.52391">
        <ele>41.599998474121</ele>
        <time>2017-01-28T13:12:37.000Z</time>
      </trkpt>
      <trkpt lat="43.42893" lon="6.52389">
        <ele>41.599998474121</ele>
        <time>2017-01-28T13:12:39.000Z</time>
      </trkpt>
      <trkpt lat="43.42881" lon="6.52384">
        <ele>41.200000762939</ele>
        <time>2017-01-28T13:12:44.000Z</time>
      </trkpt>
      <trkpt lat="43.42869" lon="6.52372">
        <ele>40.599998474121</ele>
        <time>2017-01-28T13:12:50.000Z</time>
      </trkpt>
      <trkpt lat="43.42864" lon="6.52357">
        <ele>40.599998474121</ele>
        <time>2017-01-28T13:12:55.000Z</time>
      </trkpt>
      <trkpt lat="43.42864" lon="6.52355">
        <ele>40.599998474121</ele>
        <time>2017-01-28T13:12:56.000Z</time>
      </trkpt>
      <trkpt lat="43.42869" lon="6.52347">
        <ele>40.599998474121</ele>
        <time>2017-01-28T13:12:59.000Z</time>
      </trkpt>
      <trkpt lat="43.42871" lon="6.52345">
        <ele>40.400001525879</ele>
        <time>2017-01-28T13:13:00.000Z</time>
      </trkpt>
      <trkpt lat="43.4288" lon="6.52339">
        <ele>40.200000762939</ele>
        <time>2017-01-28T13:13:04.000Z</time>
      </trkpt>
      <trkpt lat="43.42883" lon="6.52338">
        <ele>40</ele>
        <time>2017-01-28T13:13:05.000Z</time>
      </trkpt>
      <trkpt lat="43.42895" lon="6.52329">
        <ele>39.799999237061</ele>
        <time>2017-01-28T13:13:11.000Z</time>
      </trkpt>
      <trkpt lat="43.42908" lon="6.52319">
        <ele>40</ele>
        <time>2017-01-28T13:13:17.000Z</time>
      </trkpt>
      <trkpt lat="43.42917" lon="6.52323">
        <ele>40.200000762939</ele>
        <time>2017-01-28T13:13:21.000Z</time>
      </trkpt>
      <trkpt lat="43.42928" lon="6.52327">
        <ele>40.400001525879</ele>
        <time>2017-01-28T13:13:25.000Z</time>
      </trkpt>
      <trkpt lat="43.42934" lon="6.52325">
        <ele>40.599998474121</ele>
        <time>2017-01-28T13:13:28.000Z</time>
      </trkpt>
      <trkpt lat="43.42941" lon="6.52318">
        <ele>41</ele>
        <time>2017-01-28T13:13:31.000Z</time>
      </trkpt>
      <trkpt lat="43.42945" lon="6.52313">
        <ele>41.200000762939</ele>
        <time>2017-01-28T13:13:33.000Z</time>
      </trkpt>
      <trkpt lat="43.42951" lon="6.52304">
        <ele>41.599998474121</ele>
        <time>2017-01-28T13:13:36.000Z</time>
      </trkpt>
      <trkpt lat="43.42956" lon="6.52297">
        <ele>41.599998474121</ele>
        <time>2017-01-28T13:13:38.000Z</time>
      </trkpt>
      <trkpt lat="43.4297" lon="6.52272">
        <ele>41.799999237061</ele>
        <time>2017-01-28T13:13:45.000Z</time>
      </trkpt>
      <trkpt lat="43.4298" lon="6.52233">
        <ele>41.599998474121</ele>
        <time>2017-01-28T13:13:54.000Z</time>
      </trkpt>
      <trkpt lat="43.42976" lon="6.52211">
        <ele>41.400001525879</ele>
        <time>2017-01-28T13:13:59.000Z</time>
      </trkpt>
      <trkpt lat="43.42971" lon="6.52188">
        <ele>41.400001525879</ele>
        <time>2017-01-28T13:14:04.000Z</time>
      </trkpt>
      <trkpt lat="43.42965" lon="6.52161">
        <ele>41.400001525879</ele>
        <time>2017-01-28T13:14:10.000Z</time>
      </trkpt>
      <trkpt lat="43.42963" lon="6.52149">
        <ele>41.400001525879</ele>
        <time>2017-01-28T13:14:13.000Z</time>
      </trkpt>
      <trkpt lat="43.42958" lon="6.52129">
        <ele>41.599998474121</ele>
        <time>2017-01-28T13:14:18.000Z</time>
      </trkpt>
      <trkpt lat="43.42948" lon="6.52096">
        <ele>41.799999237061</ele>
        <time>2017-01-28T13:14:25.000Z</time>
      </trkpt>
      <trkpt lat="43.42947" lon="6.52092">
        <ele>41.799999237061</ele>
        <time>2017-01-28T13:14:26.000Z</time>
      </trkpt>
      <trkpt lat="43.42945" lon="6.52077">
        <ele>41.799999237061</ele>
        <time>2017-01-28T13:14:29.000Z</time>
      </trkpt>
      <trkpt lat="43.42944" lon="6.52067">
        <ele>41.799999237061</ele>
        <time>2017-01-28T13:14:31.000Z</time>
      </trkpt>
      <trkpt lat="43.4294" lon="6.5204">
        <ele>41.799999237061</ele>
        <time>2017-01-28T13:14:37.000Z</time>
      </trkpt>
      <trkpt lat="43.42935" lon="6.5202">
        <ele>42</ele>
        <time>2017-01-28T13:14:42.000Z</time>
      </trkpt>
      <trkpt lat="43.42931" lon="6.52006">
        <ele>42.599998474121</ele>
        <time>2017-01-28T13:14:46.000Z</time>
      </trkpt>
      <trkpt lat="43.42928" lon="6.51995">
        <ele>43</ele>
        <time>2017-01-28T13:14:49.000Z</time>
      </trkpt>
      <trkpt lat="43.42922" lon="6.51977">
        <ele>43.599998474121</ele>
        <time>2017-01-28T13:14:55.000Z</time>
      </trkpt>
      <trkpt lat="43.42914" lon="6.51955">
        <ele>44.599998474121</ele>
        <time>2017-01-28T13:15:02.000Z</time>
      </trkpt>
      <trkpt lat="43.42913" lon="6.51952">
        <ele>44.799999237061</ele>
        <time>2017-01-28T13:15:03.000Z</time>
      </trkpt>
      <trkpt lat="43.42908" lon="6.51934">
        <ele>45.799999237061</ele>
        <time>2017-01-28T13:15:09.000Z</time>
      </trkpt>
      <trkpt lat="43.42906" lon="6.51928">
        <ele>46.400001525879</ele>
        <time>2017-01-28T13:15:11.000Z</time>
      </trkpt>
      <trkpt lat="43.42902" lon="6.51908">
        <ele>46.799999237061</ele>
        <time>2017-01-28T13:15:17.000Z</time>
      </trkpt>
      <trkpt lat="43.42901" lon="6.51905">
        <ele>47</ele>
        <time>2017-01-28T13:15:18.000Z</time>
      </trkpt>
      <trkpt lat="43.42897" lon="6.51884">
        <ele>48</ele>
        <time>2017-01-28T13:15:24.000Z</time>
      </trkpt>
      <trkpt lat="43.42897" lon="6.5188">
        <ele>48.200000762939</ele>
        <time>2017-01-28T13:15:25.000Z</time>
      </trkpt>
      <trkpt lat="43.42893" lon="6.51856">
        <ele>49</ele>
        <time>2017-01-28T13:15:32.000Z</time>
      </trkpt>
      <trkpt lat="43.42892" lon="6.51849">
        <ele>49.200000762939</ele>
        <time>2017-01-28T13:15:34.000Z</time>
      </trkpt>
      <trkpt lat="43.4289" lon="6.5182">
        <ele>49.799999237061</ele>
        <time>2017-01-28T13:15:42.000Z</time>
      </trkpt>
      <trkpt lat="43.42888" lon="6.51786">
        <ele>49.400001525879</ele>
        <time>2017-01-28T13:15:49.000Z</time>
      </trkpt>
      <trkpt lat="43.42883" lon="6.51748">
        <ele>48.799999237061</ele>
        <time>2017-01-28T13:15:57.000Z</time>
      </trkpt>
      <trkpt lat="43.42876" lon="6.51723">
        <ele>49</ele>
        <time>2017-01-28T13:16:03.000Z</time>
      </trkpt>
      <trkpt lat="43.42866" lon="6.51701">
        <ele>49.599998474121</ele>
        <time>2017-01-28T13:16:09.000Z</time>
      </trkpt>
      <trkpt lat="43.42859" lon="6.51688">
        <ele>50.200000762939</ele>
        <time>2017-01-28T13:16:14.000Z</time>
      </trkpt>
      <trkpt lat="43.42858" lon="6.51686">
        <ele>50.200000762939</ele>
        <time>2017-01-28T13:16:15.000Z</time>
      </trkpt>
      <trkpt lat="43.42855" lon="6.51666">
        <ele>50.599998474121</ele>
        <time>2017-01-28T13:16:21.000Z</time>
      </trkpt>
      <trkpt lat="43.42856" lon="6.51643">
        <ele>50.799999237061</ele>
        <time>2017-01-28T13:16:27.000Z</time>
      </trkpt>
      <trkpt lat="43.42861" lon="6.51626">
        <ele>51.200000762939</ele>
        <time>2017-01-28T13:16:32.000Z</time>
      </trkpt>
      <trkpt lat="43.42865" lon="6.5162">
        <ele>51.400001525879</ele>
        <time>2017-01-28T13:16:34.000Z</time>
      </trkpt>
      <trkpt lat="43.4288" lon="6.51599">
        <ele>51.599998474121</ele>
        <time>2017-01-28T13:16:42.000Z</time>
      </trkpt>
      <trkpt lat="43.4289" lon="6.51582">
        <ele>52</ele>
        <time>2017-01-28T13:16:48.000Z</time>
      </trkpt>
      <trkpt lat="43.42894" lon="6.51574">
        <ele>52.200000762939</ele>
        <time>2017-01-28T13:16:51.000Z</time>
      </trkpt>
      <trkpt lat="43.42898" lon="6.51568">
        <ele>52.400001525879</ele>
        <time>2017-01-28T13:16:53.000Z</time>
      </trkpt>
      <trkpt lat="43.42909" lon="6.51552">
        <ele>52.799999237061</ele>
        <time>2017-01-28T13:16:59.000Z</time>
      </trkpt>
      <trkpt lat="43.42913" lon="6.51543">
        <ele>53.200000762939</ele>
        <time>2017-01-28T13:17:02.000Z</time>
      </trkpt>
      <trkpt lat="43.42916" lon="6.51534">
        <ele>53.599998474121</ele>
        <time>2017-01-28T13:17:05.000Z</time>
      </trkpt>
      <trkpt lat="43.42918" lon="6.51508">
        <ele>54.400001525879</ele>
        <time>2017-01-28T13:17:12.000Z</time>
      </trkpt>
      <trkpt lat="43.42913" lon="6.51483">
        <ele>55.200000762939</ele>
        <time>2017-01-28T13:17:19.000Z</time>
      </trkpt>
      <trkpt lat="43.42912" lon="6.5148">
        <ele>55.400001525879</ele>
        <time>2017-01-28T13:17:20.000Z</time>
      </trkpt>
      <trkpt lat="43.4291" lon="6.51466">
        <ele>56.200000762939</ele>
        <time>2017-01-28T13:17:24.000Z</time>
      </trkpt>
      <trkpt lat="43.42908" lon="6.51456">
        <ele>56.400001525879</ele>
        <time>2017-01-28T13:17:27.000Z</time>
      </trkpt>
      <trkpt lat="43.42903" lon="6.51441">
        <ele>57</ele>
        <time>2017-01-28T13:17:31.000Z</time>
      </trkpt>
      <trkpt lat="43.42902" lon="6.51431">
        <ele>57.599998474121</ele>
        <time>2017-01-28T13:17:34.000Z</time>
      </trkpt>
      <trkpt lat="43.42904" lon="6.51422">
        <ele>57.799999237061</ele>
        <time>2017-01-28T13:17:37.000Z</time>
      </trkpt>
      <trkpt lat="43.42914" lon="6.51407">
        <ele>57.799999237061</ele>
        <time>2017-01-28T13:17:43.000Z</time>
      </trkpt>
      <trkpt lat="43.42923" lon="6.51387">
        <ele>57.400001525879</ele>
        <time>2017-01-28T13:17:49.000Z</time>
      </trkpt>
      <trkpt lat="43.42928" lon="6.51365">
        <ele>57.400001525879</ele>
        <time>2017-01-28T13:17:54.000Z</time>
      </trkpt>
      <trkpt lat="43.42939" lon="6.51341">
        <ele>57.200000762939</ele>
        <time>2017-01-28T13:18:01.000Z</time>
      </trkpt>
      <trkpt lat="43.42946" lon="6.51323">
        <ele>57.599998474121</ele>
        <time>2017-01-28T13:18:06.000Z</time>
      </trkpt>
      <trkpt lat="43.42958" lon="6.51289">
        <ele>57.799999237061</ele>
        <time>2017-01-28T13:18:14.000Z</time>
      </trkpt>
      <trkpt lat="43.42962" lon="6.51262">
        <ele>58.200000762939</ele>
        <time>2017-01-28T13:18:20.000Z</time>
      </trkpt>
      <trkpt lat="43.42968" lon="6.51236">
        <ele>58.200000762939</ele>
        <time>2017-01-28T13:18:26.000Z</time>
      </trkpt>
      <trkpt lat="43.42978" lon="6.51217">
        <ele>58.599998474121</ele>
        <time>2017-01-28T13:18:31.000Z</time>
      </trkpt>
      <trkpt lat="43.42982" lon="6.5121">
        <ele>58.599998474121</ele>
        <time>2017-01-28T13:18:33.000Z</time>
      </trkpt>
      <trkpt lat="43.4299" lon="6.51196">
        <ele>58.599998474121</ele>
        <time>2017-01-28T13:18:38.000Z</time>
      </trkpt>
      <trkpt lat="43.42994" lon="6.51184">
        <ele>58.599998474121</ele>
        <time>2017-01-28T13:18:42.000Z</time>
      </trkpt>
      <trkpt lat="43.42993" lon="6.51182">
        <ele>58.400001525879</ele>
        <time>2017-01-28T13:18:43.000Z</time>
      </trkpt>
      <trkpt lat="43.42989" lon="6.51184">
        <ele>58.200000762939</ele>
        <time>2017-01-28T13:18:47.000Z</time>
      </trkpt>
      <trkpt lat="43.42989" lon="6.51184">
        <ele>59</ele>
        <time>2017-01-28T13:18:52.000Z</time>
      </trkpt>
      <trkpt lat="43.42989" lon="6.51184">
        <ele>59.400001525879</ele>
        <time>2017-01-28T13:19:01.000Z</time>
      </trkpt>
      <trkpt lat="43.42989" lon="6.51184">
        <ele>59.599998474121</ele>
        <time>2017-01-28T13:19:04.000Z</time>
      </trkpt>
      <trkpt lat="43.42988" lon="6.51183">
        <ele>59.799999237061</ele>
        <time>2017-01-28T13:19:14.000Z</time>
      </trkpt>
      <trkpt lat="43.42987" lon="6.51187">
        <ele>59.799999237061</ele>
        <time>2017-01-28T13:19:29.000Z</time>
      </trkpt>
      <trkpt lat="43.42983" lon="6.51193">
        <ele>59.799999237061</ele>
        <time>2017-01-28T13:19:34.000Z</time>
      </trkpt>
      <trkpt lat="43.42974" lon="6.51204">
        <ele>60.599998474121</ele>
        <time>2017-01-28T13:19:42.000Z</time>
      </trkpt>
      <trkpt lat="43.42967" lon="6.51213">
        <ele>61.799999237061</ele>
        <time>2017-01-28T13:19:47.000Z</time>
      </trkpt>
      <trkpt lat="43.42964" lon="6.51217">
        <ele>62.400001525879</ele>
        <time>2017-01-28T13:19:49.000Z</time>
      </trkpt>
      <trkpt lat="43.42961" lon="6.51223">
        <ele>62.799999237061</ele>
        <time>2017-01-28T13:19:52.000Z</time>
      </trkpt>
      <trkpt lat="43.42955" lon="6.51237">
        <ele>62.599998474121</ele>
        <time>2017-01-28T13:19:58.000Z</time>
      </trkpt>
      <trkpt lat="43.4295" lon="6.51249">
        <ele>64</ele>
        <time>2017-01-28T13:20:04.000Z</time>
      </trkpt>
      <trkpt lat="43.42946" lon="6.51263">
        <ele>65</ele>
        <time>2017-01-28T13:20:10.000Z</time>
      </trkpt>
      <trkpt lat="43.4294" lon="6.51277">
        <ele>66.199996948242</ele>
        <time>2017-01-28T13:20:17.000Z</time>
      </trkpt>
      <trkpt lat="43.4294" lon="6.51279">
        <ele>66.199996948242</ele>
        <time>2017-01-28T13:20:18.000Z</time>
      </trkpt>
      <trkpt lat="43.42933" lon="6.51294">
        <ele>67</ele>
        <time>2017-01-28T13:20:25.000Z</time>
      </trkpt>
      <trkpt lat="43.42931" lon="6.51295">
        <ele>67.199996948242</ele>
        <time>2017-01-28T13:20:26.000Z</time>
      </trkpt>
      <trkpt lat="43.42926" lon="6.51306">
        <ele>68.400001525879</ele>
        <time>2017-01-28T13:20:31.000Z</time>
      </trkpt>
      <trkpt lat="43.42923" lon="6.51312">
        <ele>68.599998474121</ele>
        <time>2017-01-28T13:20:34.000Z</time>
      </trkpt>
      <trkpt lat="43.42919" lon="6.51323">
        <ele>69.400001525879</ele>
        <time>2017-01-28T13:20:39.000Z</time>
      </trkpt>
      <trkpt lat="43.42916" lon="6.51329">
        <ele>69.800003051758</ele>
        <time>2017-01-28T13:20:42.000Z</time>
      </trkpt>
      <trkpt lat="43.42912" lon="6.51341">
        <ele>70.599998474121</ele>
        <time>2017-01-28T13:20:47.000Z</time>
      </trkpt>
      <trkpt lat="43.42909" lon="6.51347">
        <ele>71</ele>
        <time>2017-01-28T13:20:50.000Z</time>
      </trkpt>
      <trkpt lat="43.42902" lon="6.51362">
        <ele>71.599998474121</ele>
        <time>2017-01-28T13:20:57.000Z</time>
      </trkpt>
      <trkpt lat="43.4289" lon="6.51381">
        <ele>72.400001525879</ele>
        <time>2017-01-28T13:21:06.000Z</time>
      </trkpt>
      <trkpt lat="43.42888" lon="6.51385">
        <ele>72.599998474121</ele>
        <time>2017-01-28T13:21:08.000Z</time>
      </trkpt>
      <trkpt lat="43.42878" lon="6.51399">
        <ele>73.199996948242</ele>
        <time>2017-01-28T13:21:15.000Z</time>
      </trkpt>
      <trkpt lat="43.42874" lon="6.51405">
        <ele>73.800003051758</ele>
        <time>2017-01-28T13:21:18.000Z</time>
      </trkpt>
      <trkpt lat="43.42867" lon="6.51415">
        <ele>74.599998474121</ele>
        <time>2017-01-28T13:21:23.000Z</time>
      </trkpt>
      <trkpt lat="43.42866" lon="6.51418">
        <ele>74.800003051758</ele>
        <time>2017-01-28T13:21:24.000Z</time>
      </trkpt>
      <trkpt lat="43.4286" lon="6.51429">
        <ele>76</ele>
        <time>2017-01-28T13:21:29.000Z</time>
      </trkpt>
      <trkpt lat="43.4286" lon="6.51435">
        <ele>76.199996948242</ele>
        <time>2017-01-28T13:21:31.000Z</time>
      </trkpt>
      <trkpt lat="43.42861" lon="6.51455">
        <ele>76.599998474121</ele>
        <time>2017-01-28T13:21:38.000Z</time>
      </trkpt>
      <trkpt lat="43.4286" lon="6.51463">
        <ele>77</ele>
        <time>2017-01-28T13:21:41.000Z</time>
      </trkpt>
      <trkpt lat="43.42856" lon="6.51479">
        <ele>77.800003051758</ele>
        <time>2017-01-28T13:21:47.000Z</time>
      </trkpt>
      <trkpt lat="43.42854" lon="6.51484">
        <ele>78.199996948242</ele>
        <time>2017-01-28T13:21:49.000Z</time>
      </trkpt>
      <trkpt lat="43.42847" lon="6.51497">
        <ele>79.199996948242</ele>
        <time>2017-01-28T13:21:55.000Z</time>
      </trkpt>
      <trkpt lat="43.42845" lon="6.51499">
        <ele>79.400001525879</ele>
        <time>2017-01-28T13:21:56.000Z</time>
      </trkpt>
      <trkpt lat="43.42834" lon="6.51511">
        <ele>80.199996948242</ele>
        <time>2017-01-28T13:22:03.000Z</time>
      </trkpt>
      <trkpt lat="43.42832" lon="6.51512">
        <ele>80.400001525879</ele>
        <time>2017-01-28T13:22:04.000Z</time>
      </trkpt>
      <trkpt lat="43.42822" lon="6.51515">
        <ele>81.199996948242</ele>
        <time>2017-01-28T13:22:10.000Z</time>
      </trkpt>
      <trkpt lat="43.42815" lon="6.51517">
        <ele>81.400001525879</ele>
        <time>2017-01-28T13:22:14.000Z</time>
      </trkpt>
      <trkpt lat="43.42811" lon="6.51518">
        <ele>81.599998474121</ele>
        <time>2017-01-28T13:22:16.000Z</time>
      </trkpt>
      <trkpt lat="43.42804" lon="6.51524">
        <ele>82.199996948242</ele>
        <time>2017-01-28T13:22:21.000Z</time>
      </trkpt>
      <trkpt lat="43.42798" lon="6.51531">
        <ele>82.599998474121</ele>
        <time>2017-01-28T13:22:25.000Z</time>
      </trkpt>
      <trkpt lat="43.42794" lon="6.51537">
        <ele>82.800003051758</ele>
        <time>2017-01-28T13:22:28.000Z</time>
      </trkpt>
      <trkpt lat="43.42793" lon="6.51539">
        <ele>82.800003051758</ele>
        <time>2017-01-28T13:22:29.000Z</time>
      </trkpt>
      <trkpt lat="43.42789" lon="6.51549">
        <ele>83.599998474121</ele>
        <time>2017-01-28T13:22:33.000Z</time>
      </trkpt>
      <trkpt lat="43.42788" lon="6.51551">
        <ele>84</ele>
        <time>2017-01-28T13:22:34.000Z</time>
      </trkpt>
      <trkpt lat="43.42785" lon="6.51567">
        <ele>84.599998474121</ele>
        <time>2017-01-28T13:22:40.000Z</time>
      </trkpt>
      <trkpt lat="43.42785" lon="6.5157">
        <ele>84.800003051758</ele>
        <time>2017-01-28T13:22:41.000Z</time>
      </trkpt>
      <trkpt lat="43.42787" lon="6.51583">
        <ele>85.800003051758</ele>
        <time>2017-01-28T13:22:46.000Z</time>
      </trkpt>
      <trkpt lat="43.42788" lon="6.51588">
        <ele>86</ele>
        <time>2017-01-28T13:22:48.000Z</time>
      </trkpt>
      <trkpt lat="43.4279" lon="6.51598">
        <ele>86.800003051758</ele>
        <time>2017-01-28T13:22:52.000Z</time>
      </trkpt>
      <trkpt lat="43.4279" lon="6.51609">
        <ele>87.599998474121</ele>
        <time>2017-01-28T13:22:56.000Z</time>
      </trkpt>
      <trkpt lat="43.42788" lon="6.51615">
        <ele>88</ele>
        <time>2017-01-28T13:22:58.000Z</time>
      </trkpt>
      <trkpt lat="43.42781" lon="6.51628">
        <ele>88.599998474121</ele>
        <time>2017-01-28T13:23:04.000Z</time>
      </trkpt>
      <trkpt lat="43.42776" lon="6.51633">
        <ele>89</ele>
        <time>2017-01-28T13:23:07.000Z</time>
      </trkpt>
      <trkpt lat="43.42769" lon="6.51641">
        <ele>89.800003051758</ele>
        <time>2017-01-28T13:23:12.000Z</time>
      </trkpt>
      <trkpt lat="43.42762" lon="6.51646">
        <ele>90</ele>
        <time>2017-01-28T13:23:16.000Z</time>
      </trkpt>
      <trkpt lat="43.42757" lon="6.5165">
        <ele>90.400001525879</ele>
        <time>2017-01-28T13:23:19.000Z</time>
      </trkpt>
      <trkpt lat="43.42746" lon="6.51657">
        <ele>91.199996948242</ele>
        <time>2017-01-28T13:23:25.000Z</time>
      </trkpt>
      <trkpt lat="43.42735" lon="6.51665">
        <ele>92</ele>
        <time>2017-01-28T13:23:31.000Z</time>
      </trkpt>
      <trkpt lat="43.42733" lon="6.51667">
        <ele>92.199996948242</ele>
        <time>2017-01-28T13:23:32.000Z</time>
      </trkpt>
      <trkpt lat="43.42732" lon="6.51669">
        <ele>92.199996948242</ele>
        <time>2017-01-28T13:23:33.000Z</time>
      </trkpt>
      <trkpt lat="43.42731" lon="6.51677">
        <ele>92.800003051758</ele>
        <time>2017-01-28T13:23:36.000Z</time>
      </trkpt>
      <trkpt lat="43.42732" lon="6.51685">
        <ele>93.400001525879</ele>
        <time>2017-01-28T13:23:39.000Z</time>
      </trkpt>
      <trkpt lat="43.42736" lon="6.51701">
        <ele>94.400001525879</ele>
        <time>2017-01-28T13:23:45.000Z</time>
      </trkpt>
      <trkpt lat="43.42745" lon="6.51718">
        <ele>95.599998474121</ele>
        <time>2017-01-28T13:23:53.000Z</time>
      </trkpt>
      <trkpt lat="43.42746" lon="6.51721">
        <ele>95.599998474121</ele>
        <time>2017-01-28T13:23:54.000Z</time>
      </trkpt>
      <trkpt lat="43.42755" lon="6.51736">
        <ele>96.599998474121</ele>
        <time>2017-01-28T13:24:01.000Z</time>
      </trkpt>
      <trkpt lat="43.42759" lon="6.51743">
        <ele>97.199996948242</ele>
        <time>2017-01-28T13:24:04.000Z</time>
      </trkpt>
      <trkpt lat="43.42763" lon="6.51752">
        <ele>97.800003051758</ele>
        <time>2017-01-28T13:24:08.000Z</time>
      </trkpt>
      <trkpt lat="43.42771" lon="6.51765">
        <ele>98.599998474121</ele>
        <time>2017-01-28T13:24:14.000Z</time>
      </trkpt>
      <trkpt lat="43.42773" lon="6.51769">
        <ele>98.800003051758</ele>
        <time>2017-01-28T13:24:16.000Z</time>
      </trkpt>
      <trkpt lat="43.42785" lon="6.51784">
        <ele>99.599998474121</ele>
        <time>2017-01-28T13:24:24.000Z</time>
      </trkpt>
      <trkpt lat="43.42788" lon="6.51787">
        <ele>100</ele>
        <time>2017-01-28T13:24:26.000Z</time>
      </trkpt>
      <trkpt lat="43.42797" lon="6.51801">
        <ele>101</ele>
        <time>2017-01-28T13:24:33.000Z</time>
      </trkpt>
      <trkpt lat="43.42799" lon="6.51805">
        <ele>101.40000152588</ele>
        <time>2017-01-28T13:24:35.000Z</time>
      </trkpt>
      <trkpt lat="43.42806" lon="6.51823">
        <ele>102.19999694824</ele>
        <time>2017-01-28T13:24:43.000Z</time>
      </trkpt>
      <trkpt lat="43.42806" lon="6.51825">
        <ele>102.40000152588</ele>
        <time>2017-01-28T13:24:44.000Z</time>
      </trkpt>
      <trkpt lat="43.42808" lon="6.51837">
        <ele>103.40000152588</ele>
        <time>2017-01-28T13:24:49.000Z</time>
      </trkpt>
      <trkpt lat="43.42809" lon="6.51847">
        <ele>104.19999694824</ele>
        <time>2017-01-28T13:24:53.000Z</time>
      </trkpt>
      <trkpt lat="43.42809" lon="6.51854">
        <ele>104.40000152588</ele>
        <time>2017-01-28T13:24:56.000Z</time>
      </trkpt>
      <trkpt lat="43.42809" lon="6.51867">
        <ele>105.19999694824</ele>
        <time>2017-01-28T13:25:01.000Z</time>
      </trkpt>
      <trkpt lat="43.4281" lon="6.51871">
        <ele>105.59999847412</ele>
        <time>2017-01-28T13:25:03.000Z</time>
      </trkpt>
      <trkpt lat="43.42812" lon="6.51887">
        <ele>106.59999847412</ele>
        <time>2017-01-28T13:25:10.000Z</time>
      </trkpt>
      <trkpt lat="43.42813" lon="6.51889">
        <ele>106.59999847412</ele>
        <time>2017-01-28T13:25:11.000Z</time>
      </trkpt>
      <trkpt lat="43.42818" lon="6.51903">
        <ele>107.40000152588</ele>
        <time>2017-01-28T13:25:18.000Z</time>
      </trkpt>
      <trkpt lat="43.42819" lon="6.51908">
        <ele>107.59999847412</ele>
        <time>2017-01-28T13:25:20.000Z</time>
      </trkpt>
      <trkpt lat="43.42821" lon="6.51923">
        <ele>108.80000305176</ele>
        <time>2017-01-28T13:25:26.000Z</time>
      </trkpt>
      <trkpt lat="43.42822" lon="6.51925">
        <ele>108.80000305176</ele>
        <time>2017-01-28T13:25:27.000Z</time>
      </trkpt>
      <trkpt lat="43.42822" lon="6.51943">
        <ele>109.80000305176</ele>
        <time>2017-01-28T13:25:34.000Z</time>
      </trkpt>
      <trkpt lat="43.42821" lon="6.51948">
        <ele>110.19999694824</ele>
        <time>2017-01-28T13:25:36.000Z</time>
      </trkpt>
      <trkpt lat="43.4282" lon="6.51955">
        <ele>111</ele>
        <time>2017-01-28T13:25:39.000Z</time>
      </trkpt>
      <trkpt lat="43.42819" lon="6.51966">
        <ele>111.80000305176</ele>
        <time>2017-01-28T13:25:44.000Z</time>
      </trkpt>
      <trkpt lat="43.42818" lon="6.51971">
        <ele>112.19999694824</ele>
        <time>2017-01-28T13:25:46.000Z</time>
      </trkpt>
      <trkpt lat="43.42819" lon="6.5198">
        <ele>113.19999694824</ele>
        <time>2017-01-28T13:25:50.000Z</time>
      </trkpt>
      <trkpt lat="43.42821" lon="6.51985">
        <ele>113.59999847412</ele>
        <time>2017-01-28T13:25:53.000Z</time>
      </trkpt>
      <trkpt lat="43.42824" lon="6.51996">
        <ele>114.40000152588</ele>
        <time>2017-01-28T13:25:58.000Z</time>
      </trkpt>
      <trkpt lat="43.42826" lon="6.52004">
        <ele>115.40000152588</ele>
        <time>2017-01-28T13:26:02.000Z</time>
      </trkpt>
      <trkpt lat="43.4283" lon="6.52023">
        <ele>116.40000152588</ele>
        <time>2017-01-28T13:26:10.000Z</time>
      </trkpt>
      <trkpt lat="43.42831" lon="6.52029">
        <ele>117</ele>
        <time>2017-01-28T13:26:12.000Z</time>
      </trkpt>
      <trkpt lat="43.42833" lon="6.52039">
        <ele>117.40000152588</ele>
        <time>2017-01-28T13:26:16.000Z</time>
      </trkpt>
      <trkpt lat="43.42836" lon="6.52051">
        <ele>117.59999847412</ele>
        <time>2017-01-28T13:26:21.000Z</time>
      </trkpt>
      <trkpt lat="43.4284" lon="6.52065">
        <ele>118</ele>
        <time>2017-01-28T13:26:26.000Z</time>
      </trkpt>
      <trkpt lat="43.42844" lon="6.52075">
        <ele>118.59999847412</ele>
        <time>2017-01-28T13:26:30.000Z</time>
      </trkpt>
      <trkpt lat="43.42848" lon="6.52085">
        <ele>118.59999847412</ele>
        <time>2017-01-28T13:26:34.000Z</time>
      </trkpt>
      <trkpt lat="43.4285" lon="6.52096">
        <ele>119.59999847412</ele>
        <time>2017-01-28T13:26:38.000Z</time>
      </trkpt>
      <trkpt lat="43.42851" lon="6.52104">
        <ele>119.59999847412</ele>
        <time>2017-01-28T13:26:41.000Z</time>
      </trkpt>
      <trkpt lat="43.42852" lon="6.52121">
        <ele>120.19999694824</ele>
        <time>2017-01-28T13:26:47.000Z</time>
      </trkpt>
      <trkpt lat="43.42852" lon="6.5213">
        <ele>120.80000305176</ele>
        <time>2017-01-28T13:26:50.000Z</time>
      </trkpt>
      <trkpt lat="43.42849" lon="6.52137">
        <ele>121.19999694824</ele>
        <time>2017-01-28T13:26:53.000Z</time>
      </trkpt>
      <trkpt lat="43.42837" lon="6.52146">
        <ele>121.40000152588</ele>
        <time>2017-01-28T13:27:00.000Z</time>
      </trkpt>
      <trkpt lat="43.42826" lon="6.5215">
        <ele>121.59999847412</ele>
        <time>2017-01-28T13:27:06.000Z</time>
      </trkpt>
      <trkpt lat="43.42814" lon="6.52156">
        <ele>121</ele>
        <time>2017-01-28T13:27:12.000Z</time>
      </trkpt>
      <trkpt lat="43.42807" lon="6.52159">
        <ele>121.59999847412</ele>
        <time>2017-01-28T13:27:16.000Z</time>
      </trkpt>
      <trkpt lat="43.42803" lon="6.52161">
        <ele>122</ele>
        <time>2017-01-28T13:27:18.000Z</time>
      </trkpt>
      <trkpt lat="43.42796" lon="6.52164">
        <ele>123</ele>
        <time>2017-01-28T13:27:22.000Z</time>
      </trkpt>
      <trkpt lat="43.42791" lon="6.52166">
        <ele>123.59999847412</ele>
        <time>2017-01-28T13:27:25.000Z</time>
      </trkpt>
      <trkpt lat="43.42777" lon="6.52168">
        <ele>124</ele>
        <time>2017-01-28T13:27:32.000Z</time>
      </trkpt>
      <trkpt lat="43.42773" lon="6.52167">
        <ele>124</ele>
        <time>2017-01-28T13:27:34.000Z</time>
      </trkpt>
      <trkpt lat="43.42753" lon="6.52162">
        <ele>124.80000305176</ele>
        <time>2017-01-28T13:27:44.000Z</time>
      </trkpt>
      <trkpt lat="43.42748" lon="6.5216">
        <ele>125</ele>
        <time>2017-01-28T13:27:47.000Z</time>
      </trkpt>
      <trkpt lat="43.42737" lon="6.52154">
        <ele>125.80000305176</ele>
        <time>2017-01-28T13:27:53.000Z</time>
      </trkpt>
      <trkpt lat="43.42734" lon="6.52152">
        <ele>126</ele>
        <time>2017-01-28T13:27:55.000Z</time>
      </trkpt>
      <trkpt lat="43.42725" lon="6.52152">
        <ele>127.19999694824</ele>
        <time>2017-01-28T13:28:00.000Z</time>
      </trkpt>
      <trkpt lat="43.42723" lon="6.52153">
        <ele>127.59999847412</ele>
        <time>2017-01-28T13:28:01.000Z</time>
      </trkpt>
      <trkpt lat="43.42718" lon="6.52155">
        <ele>128.19999694824</ele>
        <time>2017-01-28T13:28:04.000Z</time>
      </trkpt>
      <trkpt lat="43.42709" lon="6.52158">
        <ele>128.80000305176</ele>
        <time>2017-01-28T13:28:09.000Z</time>
      </trkpt>
      <trkpt lat="43.42702" lon="6.52163">
        <ele>129.39999389648</ele>
        <time>2017-01-28T13:28:14.000Z</time>
      </trkpt>
      <trkpt lat="43.42696" lon="6.52169">
        <ele>129.80000305176</ele>
        <time>2017-01-28T13:28:18.000Z</time>
      </trkpt>
      <trkpt lat="43.42688" lon="6.52179">
        <ele>130.39999389648</ele>
        <time>2017-01-28T13:28:24.000Z</time>
      </trkpt>
      <trkpt lat="43.42685" lon="6.52183">
        <ele>130.60000610352</ele>
        <time>2017-01-28T13:28:26.000Z</time>
      </trkpt>
      <trkpt lat="43.42678" lon="6.52193">
        <ele>131.39999389648</ele>
        <time>2017-01-28T13:28:32.000Z</time>
      </trkpt>
      <trkpt lat="43.42674" lon="6.52198">
        <ele>132</ele>
        <time>2017-01-28T13:28:35.000Z</time>
      </trkpt>
      <trkpt lat="43.42668" lon="6.52204">
        <ele>132.60000610352</ele>
        <time>2017-01-28T13:28:39.000Z</time>
      </trkpt>
      <trkpt lat="43.42659" lon="6.52211">
        <ele>133.19999694824</ele>
        <time>2017-01-28T13:28:44.000Z</time>
      </trkpt>
      <trkpt lat="43.42656" lon="6.52212">
        <ele>133.60000610352</ele>
        <time>2017-01-28T13:28:46.000Z</time>
      </trkpt>
      <trkpt lat="43.42646" lon="6.52214">
        <ele>134.39999389648</ele>
        <time>2017-01-28T13:28:51.000Z</time>
      </trkpt>
      <trkpt lat="43.4264" lon="6.52214">
        <ele>134.80000305176</ele>
        <time>2017-01-28T13:28:54.000Z</time>
      </trkpt>
      <trkpt lat="43.42632" lon="6.52212">
        <ele>136.19999694824</ele>
        <time>2017-01-28T13:28:58.000Z</time>
      </trkpt>
      <trkpt lat="43.42629" lon="6.5221">
        <ele>136.80000305176</ele>
        <time>2017-01-28T13:29:00.000Z</time>
      </trkpt>
      <trkpt lat="43.42615" lon="6.52199">
        <ele>137.19999694824</ele>
        <time>2017-01-28T13:29:08.000Z</time>
      </trkpt>
      <trkpt lat="43.42614" lon="6.52197">
        <ele>137.19999694824</ele>
        <time>2017-01-28T13:29:09.000Z</time>
      </trkpt>
      <trkpt lat="43.42603" lon="6.5218">
        <ele>138</ele>
        <time>2017-01-28T13:29:18.000Z</time>
      </trkpt>
      <trkpt lat="43.42598" lon="6.52168">
        <ele>138.19999694824</ele>
        <time>2017-01-28T13:29:23.000Z</time>
      </trkpt>
      <trkpt lat="43.42594" lon="6.52155">
        <ele>139.19999694824</ele>
        <time>2017-01-28T13:29:28.000Z</time>
      </trkpt>
      <trkpt lat="43.42592" lon="6.52137">
        <ele>140.39999389648</ele>
        <time>2017-01-28T13:29:35.000Z</time>
      </trkpt>
      <trkpt lat="43.42591" lon="6.52135">
        <ele>140.80000305176</ele>
        <time>2017-01-28T13:29:36.000Z</time>
      </trkpt>
      <trkpt lat="43.42591" lon="6.52128">
        <ele>141.60000610352</ele>
        <time>2017-01-28T13:29:39.000Z</time>
      </trkpt>
      <trkpt lat="43.42591" lon="6.52117">
        <ele>142.80000305176</ele>
        <time>2017-01-28T13:29:43.000Z</time>
      </trkpt>
      <trkpt lat="43.42592" lon="6.52103">
        <ele>143</ele>
        <time>2017-01-28T13:29:48.000Z</time>
      </trkpt>
      <trkpt lat="43.42592" lon="6.52083">
        <ele>143.80000305176</ele>
        <time>2017-01-28T13:29:56.000Z</time>
      </trkpt>
      <trkpt lat="43.42594" lon="6.52062">
        <ele>144.19999694824</ele>
        <time>2017-01-28T13:30:04.000Z</time>
      </trkpt>
      <trkpt lat="43.42594" lon="6.52048">
        <ele>145</ele>
        <time>2017-01-28T13:30:09.000Z</time>
      </trkpt>
      <trkpt lat="43.42592" lon="6.52037">
        <ele>146</ele>
        <time>2017-01-28T13:30:13.000Z</time>
      </trkpt>
      <trkpt lat="43.42592" lon="6.52035">
        <ele>146.19999694824</ele>
        <time>2017-01-28T13:30:14.000Z</time>
      </trkpt>
      <trkpt lat="43.42588" lon="6.52021">
        <ele>147.19999694824</ele>
        <time>2017-01-28T13:30:20.000Z</time>
      </trkpt>
      <trkpt lat="43.42587" lon="6.52018">
        <ele>147.19999694824</ele>
        <time>2017-01-28T13:30:21.000Z</time>
      </trkpt>
      <trkpt lat="43.42581" lon="6.52005">
        <ele>148.19999694824</ele>
        <time>2017-01-28T13:30:27.000Z</time>
      </trkpt>
      <trkpt lat="43.4258" lon="6.52003">
        <ele>148.19999694824</ele>
        <time>2017-01-28T13:30:28.000Z</time>
      </trkpt>
      <trkpt lat="43.42579" lon="6.52001">
        <ele>148.39999389648</ele>
        <time>2017-01-28T13:30:29.000Z</time>
      </trkpt>
      <trkpt lat="43.4257" lon="6.51991">
        <ele>149.19999694824</ele>
        <time>2017-01-28T13:30:35.000Z</time>
      </trkpt>
      <trkpt lat="43.42568" lon="6.51989">
        <ele>149.39999389648</ele>
        <time>2017-01-28T13:30:36.000Z</time>
      </trkpt>
      <trkpt lat="43.42557" lon="6.51982">
        <ele>150.39999389648</ele>
        <time>2017-01-28T13:30:42.000Z</time>
      </trkpt>
      <trkpt lat="43.42554" lon="6.5198">
        <ele>150.80000305176</ele>
        <time>2017-01-28T13:30:44.000Z</time>
      </trkpt>
      <trkpt lat="43.42548" lon="6.51977">
        <ele>151.39999389648</ele>
        <time>2017-01-28T13:30:47.000Z</time>
      </trkpt>
      <trkpt lat="43.42539" lon="6.51972">
        <ele>152.19999694824</ele>
        <time>2017-01-28T13:30:52.000Z</time>
      </trkpt>
      <trkpt lat="43.42535" lon="6.51971">
        <ele>152.60000610352</ele>
        <time>2017-01-28T13:30:54.000Z</time>
      </trkpt>
      <trkpt lat="43.42524" lon="6.51968">
        <ele>153.19999694824</ele>
        <time>2017-01-28T13:31:00.000Z</time>
      </trkpt>
      <trkpt lat="43.42516" lon="6.51966">
        <ele>153.80000305176</ele>
        <time>2017-01-28T13:31:05.000Z</time>
      </trkpt>
      <trkpt lat="43.42514" lon="6.51966">
        <ele>153.80000305176</ele>
        <time>2017-01-28T13:31:06.000Z</time>
      </trkpt>
      <trkpt lat="43.42503" lon="6.51965">
        <ele>154.80000305176</ele>
        <time>2017-01-28T13:31:12.000Z</time>
      </trkpt>
      <trkpt lat="43.42499" lon="6.51965">
        <ele>155.19999694824</ele>
        <time>2017-01-28T13:31:14.000Z</time>
      </trkpt>
      <trkpt lat="43.4249" lon="6.51965">
        <ele>155.80000305176</ele>
        <time>2017-01-28T13:31:19.000Z</time>
      </trkpt>
      <trkpt lat="43.42484" lon="6.51965">
        <ele>156.60000610352</ele>
        <time>2017-01-28T13:31:22.000Z</time>
      </trkpt>
      <trkpt lat="43.42481" lon="6.51965">
        <ele>157</ele>
        <time>2017-01-28T13:31:24.000Z</time>
      </trkpt>
      <trkpt lat="43.42471" lon="6.51965">
        <ele>157.39999389648</ele>
        <time>2017-01-28T13:31:29.000Z</time>
      </trkpt>
      <trkpt lat="43.42458" lon="6.5196">
        <ele>158</ele>
        <time>2017-01-28T13:31:36.000Z</time>
      </trkpt>
      <trkpt lat="43.42451" lon="6.51954">
        <ele>159.19999694824</ele>
        <time>2017-01-28T13:31:40.000Z</time>
      </trkpt>
      <trkpt lat="43.42447" lon="6.51949">
        <ele>160.19999694824</ele>
        <time>2017-01-28T13:31:43.000Z</time>
      </trkpt>
      <trkpt lat="43.42443" lon="6.51935">
        <ele>161.39999389648</ele>
        <time>2017-01-28T13:31:49.000Z</time>
      </trkpt>
      <trkpt lat="43.42443" lon="6.51932">
        <ele>161.39999389648</ele>
        <time>2017-01-28T13:31:50.000Z</time>
      </trkpt>
      <trkpt lat="43.42447" lon="6.51917">
        <ele>162.39999389648</ele>
        <time>2017-01-28T13:31:56.000Z</time>
      </trkpt>
      <trkpt lat="43.42449" lon="6.51915">
        <ele>162.60000610352</ele>
        <time>2017-01-28T13:31:57.000Z</time>
      </trkpt>
      <trkpt lat="43.42457" lon="6.51906">
        <ele>163.39999389648</ele>
        <time>2017-01-28T13:32:02.000Z</time>
      </trkpt>
      <trkpt lat="43.42464" lon="6.51898">
        <ele>163.60000610352</ele>
        <time>2017-01-28T13:32:06.000Z</time>
      </trkpt>
      <trkpt lat="43.42483" lon="6.51878">
        <ele>163.80000305176</ele>
        <time>2017-01-28T13:32:16.000Z</time>
      </trkpt>
      <trkpt lat="43.42497" lon="6.51859">
        <ele>164.19999694824</ele>
        <time>2017-01-28T13:32:24.000Z</time>
      </trkpt>
      <trkpt lat="43.42501" lon="6.5185">
        <ele>164.39999389648</ele>
        <time>2017-01-28T13:32:27.000Z</time>
      </trkpt>
      <trkpt lat="43.42509" lon="6.51834">
        <ele>164.80000305176</ele>
        <time>2017-01-28T13:32:33.000Z</time>
      </trkpt>
      <trkpt lat="43.42517" lon="6.51814">
        <ele>165.39999389648</ele>
        <time>2017-01-28T13:32:40.000Z</time>
      </trkpt>
      <trkpt lat="43.42519" lon="6.51811">
        <ele>165.39999389648</ele>
        <time>2017-01-28T13:32:41.000Z</time>
      </trkpt>
      <trkpt lat="43.42528" lon="6.51785">
        <ele>165.80000305176</ele>
        <time>2017-01-28T13:32:49.000Z</time>
      </trkpt>
      <trkpt lat="43.42533" lon="6.51758">
        <ele>166.19999694824</ele>
        <time>2017-01-28T13:32:57.000Z</time>
      </trkpt>
      <trkpt lat="43.4253" lon="6.51745">
        <ele>166.39999389648</ele>
        <time>2017-01-28T13:33:02.000Z</time>
      </trkpt>
      <trkpt lat="43.42528" lon="6.51743">
        <ele>166.39999389648</ele>
        <time>2017-01-28T13:33:03.000Z</time>
      </trkpt>
      <trkpt lat="43.4252" lon="6.51729">
        <ele>166.80000305176</ele>
        <time>2017-01-28T13:33:09.000Z</time>
      </trkpt>
      <trkpt lat="43.42511" lon="6.51712">
        <ele>167.19999694824</ele>
        <time>2017-01-28T13:33:16.000Z</time>
      </trkpt>
      <trkpt lat="43.42506" lon="6.51698">
        <ele>167.60000610352</ele>
        <time>2017-01-28T13:33:21.000Z</time>
      </trkpt>
      <trkpt lat="43.42504" lon="6.5169">
        <ele>167.80000305176</ele>
        <time>2017-01-28T13:33:24.000Z</time>
      </trkpt>
      <trkpt lat="43.42497" lon="6.51674">
        <ele>168.60000610352</ele>
        <time>2017-01-28T13:33:30.000Z</time>
      </trkpt>
      <trkpt lat="43.42495" lon="6.51669">
        <ele>169</ele>
        <time>2017-01-28T13:33:32.000Z</time>
      </trkpt>
      <trkpt lat="43.42488" lon="6.51657">
        <ele>169.80000305176</ele>
        <time>2017-01-28T13:33:37.000Z</time>
      </trkpt>
      <trkpt lat="43.42483" lon="6.5165">
        <ele>170.19999694824</ele>
        <time>2017-01-28T13:33:40.000Z</time>
      </trkpt>
      <trkpt lat="43.42472" lon="6.51638">
        <ele>171</ele>
        <time>2017-01-28T13:33:46.000Z</time>
      </trkpt>
      <trkpt lat="43.42465" lon="6.51631">
        <ele>171.60000610352</ele>
        <time>2017-01-28T13:33:50.000Z</time>
      </trkpt>
      <trkpt lat="43.42456" lon="6.51627">
        <ele>172</ele>
        <time>2017-01-28T13:33:54.000Z</time>
      </trkpt>
      <trkpt lat="43.4245" lon="6.51627">
        <ele>172.60000610352</ele>
        <time>2017-01-28T13:33:57.000Z</time>
      </trkpt>
      <trkpt lat="43.42441" lon="6.5163">
        <ele>173</ele>
        <time>2017-01-28T13:34:01.000Z</time>
      </trkpt>
      <trkpt lat="43.42431" lon="6.51637">
        <ele>173.39999389648</ele>
        <time>2017-01-28T13:34:06.000Z</time>
      </trkpt>
      <trkpt lat="43.42419" lon="6.51641">
        <ele>174.19999694824</ele>
        <time>2017-01-28T13:34:13.000Z</time>
      </trkpt>
      <trkpt lat="43.42417" lon="6.51642">
        <ele>174.39999389648</ele>
        <time>2017-01-28T13:34:14.000Z</time>
      </trkpt>
      <trkpt lat="43.42401" lon="6.51639">
        <ele>174.80000305176</ele>
        <time>2017-01-28T13:34:22.000Z</time>
      </trkpt>
      <trkpt lat="43.4239" lon="6.51637">
        <ele>175.19999694824</ele>
        <time>2017-01-28T13:34:28.000Z</time>
      </trkpt>
      <trkpt lat="43.42384" lon="6.51637">
        <ele>175.60000610352</ele>
        <time>2017-01-28T13:34:31.000Z</time>
      </trkpt>
      <trkpt lat="43.42367" lon="6.51634">
        <ele>176.19999694824</ele>
        <time>2017-01-28T13:34:39.000Z</time>
      </trkpt>
      <trkpt lat="43.42365" lon="6.51633">
        <ele>176.19999694824</ele>
        <time>2017-01-28T13:34:40.000Z</time>
      </trkpt>
      <trkpt lat="43.42356" lon="6.5163">
        <ele>177.60000610352</ele>
        <time>2017-01-28T13:34:44.000Z</time>
      </trkpt>
      <trkpt lat="43.4235" lon="6.51626">
        <ele>178.80000305176</ele>
        <time>2017-01-28T13:34:47.000Z</time>
      </trkpt>
      <trkpt lat="43.42337" lon="6.5161">
        <ele>179.60000610352</ele>
        <time>2017-01-28T13:34:55.000Z</time>
      </trkpt>
      <trkpt lat="43.42334" lon="6.51606">
        <ele>179.80000305176</ele>
        <time>2017-01-28T13:34:57.000Z</time>
      </trkpt>
      <trkpt lat="43.42323" lon="6.51591">
        <ele>180.80000305176</ele>
        <time>2017-01-28T13:35:04.000Z</time>
      </trkpt>
      <trkpt lat="43.42307" lon="6.51573">
        <ele>180.60000610352</ele>
        <time>2017-01-28T13:35:12.000Z</time>
      </trkpt>
      <trkpt lat="43.42296" lon="6.51552">
        <ele>180.60000610352</ele>
        <time>2017-01-28T13:35:19.000Z</time>
      </trkpt>
      <trkpt lat="43.42288" lon="6.51538">
        <ele>180.80000305176</ele>
        <time>2017-01-28T13:35:24.000Z</time>
      </trkpt>
      <trkpt lat="43.42284" lon="6.51533">
        <ele>180.80000305176</ele>
        <time>2017-01-28T13:35:26.000Z</time>
      </trkpt>
      <trkpt lat="43.42271" lon="6.51529">
        <ele>180</ele>
        <time>2017-01-28T13:35:31.000Z</time>
      </trkpt>
      <trkpt lat="43.42249" lon="6.51525">
        <ele>181.39999389648</ele>
        <time>2017-01-28T13:35:39.000Z</time>
      </trkpt>
      <trkpt lat="43.42244" lon="6.51523">
        <ele>181.80000305176</ele>
        <time>2017-01-28T13:35:41.000Z</time>
      </trkpt>
      <trkpt lat="43.42227" lon="6.51518">
        <ele>183</ele>
        <time>2017-01-28T13:35:47.000Z</time>
      </trkpt>
      <trkpt lat="43.42214" lon="6.51509">
        <ele>184.19999694824</ele>
        <time>2017-01-28T13:35:52.000Z</time>
      </trkpt>
      <trkpt lat="43.4221" lon="6.51504">
        <ele>184.39999389648</ele>
        <time>2017-01-28T13:35:54.000Z</time>
      </trkpt>
      <trkpt lat="43.42198" lon="6.51474">
        <ele>184.39999389648</ele>
        <time>2017-01-28T13:36:01.000Z</time>
      </trkpt>
      <trkpt lat="43.42186" lon="6.51437">
        <ele>183</ele>
        <time>2017-01-28T13:36:08.000Z</time>
      </trkpt>
      <trkpt lat="43.42184" lon="6.51432">
        <ele>183</ele>
        <time>2017-01-28T13:36:09.000Z</time>
      </trkpt>
      <trkpt lat="43.42173" lon="6.51399">
        <ele>182.39999389648</ele>
        <time>2017-01-28T13:36:16.000Z</time>
      </trkpt>
      <trkpt lat="43.42164" lon="6.51371">
        <ele>182.19999694824</ele>
        <time>2017-01-28T13:36:23.000Z</time>
      </trkpt>
      <trkpt lat="43.42159" lon="6.5136">
        <ele>182</ele>
        <time>2017-01-28T13:36:26.000Z</time>
      </trkpt>
      <trkpt lat="43.42146" lon="6.51339">
        <ele>182.80000305176</ele>
        <time>2017-01-28T13:36:32.000Z</time>
      </trkpt>
      <trkpt lat="43.42144" lon="6.51336">
        <ele>183.19999694824</ele>
        <time>2017-01-28T13:36:33.000Z</time>
      </trkpt>
      <trkpt lat="43.42131" lon="6.51309">
        <ele>183.60000610352</ele>
        <time>2017-01-28T13:36:40.000Z</time>
      </trkpt>
      <trkpt lat="43.42114" lon="6.51289">
        <ele>184</ele>
        <time>2017-01-28T13:36:47.000Z</time>
      </trkpt>
      <trkpt lat="43.4211" lon="6.51286">
        <ele>184.19999694824</ele>
        <time>2017-01-28T13:36:49.000Z</time>
      </trkpt>
      <trkpt lat="43.42102" lon="6.51277">
        <ele>185</ele>
        <time>2017-01-28T13:36:53.000Z</time>
      </trkpt>
      <trkpt lat="43.42101" lon="6.51274">
        <ele>185.19999694824</ele>
        <time>2017-01-28T13:36:54.000Z</time>
      </trkpt>
      <trkpt lat="43.42089" lon="6.5125">
        <ele>186.19999694824</ele>
        <time>2017-01-28T13:37:01.000Z</time>
      </trkpt>
      <trkpt lat="43.42087" lon="6.51241">
        <ele>186.39999389648</ele>
        <time>2017-01-28T13:37:03.000Z</time>
      </trkpt>
      <trkpt lat="43.4208" lon="6.51218">
        <ele>186.39999389648</ele>
        <time>2017-01-28T13:37:09.000Z</time>
      </trkpt>
      <trkpt lat="43.42065" lon="6.51193">
        <ele>187</ele>
        <time>2017-01-28T13:37:17.000Z</time>
      </trkpt>
      <trkpt lat="43.42056" lon="6.51183">
        <ele>187.39999389648</ele>
        <time>2017-01-28T13:37:21.000Z</time>
      </trkpt>
      <trkpt lat="43.42044" lon="6.51169">
        <ele>187.60000610352</ele>
        <time>2017-01-28T13:37:26.000Z</time>
      </trkpt>
      <trkpt lat="43.42031" lon="6.51149">
        <ele>188.39999389648</ele>
        <time>2017-01-28T13:37:33.000Z</time>
      </trkpt>
      <trkpt lat="43.42028" lon="6.51143">
        <ele>189</ele>
        <time>2017-01-28T13:37:35.000Z</time>
      </trkpt>
      <trkpt lat="43.42023" lon="6.51134">
        <ele>189.39999389648</ele>
        <time>2017-01-28T13:37:38.000Z</time>
      </trkpt>
      <trkpt lat="43.42016" lon="6.51119">
        <ele>190.19999694824</ele>
        <time>2017-01-28T13:37:43.000Z</time>
      </trkpt>
      <trkpt lat="43.42015" lon="6.51116">
        <ele>190.39999389648</ele>
        <time>2017-01-28T13:37:44.000Z</time>
      </trkpt>
      <trkpt lat="43.42006" lon="6.51096">
        <ele>191.60000610352</ele>
        <time>2017-01-28T13:37:51.000Z</time>
      </trkpt>
      <trkpt lat="43.42005" lon="6.51093">
        <ele>191.60000610352</ele>
        <time>2017-01-28T13:37:52.000Z</time>
      </trkpt>
      <trkpt lat="43.41995" lon="6.51073">
        <ele>191.60000610352</ele>
        <time>2017-01-28T13:37:59.000Z</time>
      </trkpt>
      <trkpt lat="43.41986" lon="6.51058">
        <ele>192.60000610352</ele>
        <time>2017-01-28T13:38:05.000Z</time>
      </trkpt>
      <trkpt lat="43.41984" lon="6.51052">
        <ele>192.80000305176</ele>
        <time>2017-01-28T13:38:07.000Z</time>
      </trkpt>
      <trkpt lat="43.41974" lon="6.51045">
        <ele>193</ele>
        <time>2017-01-28T13:38:12.000Z</time>
      </trkpt>
      <trkpt lat="43.41973" lon="6.51045">
        <ele>193</ele>
        <time>2017-01-28T13:38:13.000Z</time>
      </trkpt>
      <trkpt lat="43.41959" lon="6.51053">
        <ele>192.39999389648</ele>
        <time>2017-01-28T13:38:21.000Z</time>
      </trkpt>
      <trkpt lat="43.41953" lon="6.51057">
        <ele>192.80000305176</ele>
        <time>2017-01-28T13:38:26.000Z</time>
      </trkpt>
      <trkpt lat="43.41948" lon="6.51057">
        <ele>193.60000610352</ele>
        <time>2017-01-28T13:38:31.000Z</time>
      </trkpt>
      <trkpt lat="43.41948" lon="6.51057">
        <ele>194</ele>
        <time>2017-01-28T13:38:32.000Z</time>
      </trkpt>
      <trkpt lat="43.41944" lon="6.51055">
        <ele>193.80000305176</ele>
        <time>2017-01-28T13:38:37.000Z</time>
      </trkpt>
      <trkpt lat="43.41943" lon="6.51056">
        <ele>194.39999389648</ele>
        <time>2017-01-28T13:38:43.000Z</time>
      </trkpt>
      <trkpt lat="43.41943" lon="6.51056">
        <ele>194.19999694824</ele>
        <time>2017-01-28T13:38:53.000Z</time>
      </trkpt>
      <trkpt lat="43.41944" lon="6.51059">
        <ele>194</ele>
        <time>2017-01-28T13:39:00.000Z</time>
      </trkpt>
      <trkpt lat="43.41949" lon="6.51064">
        <ele>193.19999694824</ele>
        <time>2017-01-28T13:39:05.000Z</time>
      </trkpt>
      <trkpt lat="43.41952" lon="6.51063">
        <ele>193</ele>
        <time>2017-01-28T13:39:11.000Z</time>
      </trkpt>
      <trkpt lat="43.41951" lon="6.51063">
        <ele>192.80000305176</ele>
        <time>2017-01-28T13:39:17.000Z</time>
      </trkpt>
      <trkpt lat="43.41951" lon="6.51062">
        <ele>192.60000610352</ele>
        <time>2017-01-28T13:39:19.000Z</time>
      </trkpt>
      <trkpt lat="43.4195" lon="6.5106">
        <ele>192.39999389648</ele>
        <time>2017-01-28T13:39:23.000Z</time>
      </trkpt>
      <trkpt lat="43.41943" lon="6.51058">
        <ele>192.60000610352</ele>
        <time>2017-01-28T13:39:27.000Z</time>
      </trkpt>
      <trkpt lat="43.41939" lon="6.51058">
        <ele>193.60000610352</ele>
        <time>2017-01-28T13:39:30.000Z</time>
      </trkpt>
      <trkpt lat="43.41935" lon="6.51058">
        <ele>194.19999694824</ele>
        <time>2017-01-28T13:39:32.000Z</time>
      </trkpt>
      <trkpt lat="43.41933" lon="6.51058">
        <ele>194.60000610352</ele>
        <time>2017-01-28T13:39:34.000Z</time>
      </trkpt>
      <trkpt lat="43.41928" lon="6.51058">
        <ele>195.80000305176</ele>
        <time>2017-01-28T13:39:38.000Z</time>
      </trkpt>
      <trkpt lat="43.41923" lon="6.51057">
        <ele>197</ele>
        <time>2017-01-28T13:39:42.000Z</time>
      </trkpt>
      <trkpt lat="43.41917" lon="6.51056">
        <ele>197.39999389648</ele>
        <time>2017-01-28T13:39:46.000Z</time>
      </trkpt>
      <trkpt lat="43.41915" lon="6.51056">
        <ele>198</ele>
        <time>2017-01-28T13:39:48.000Z</time>
      </trkpt>
      <trkpt lat="43.41911" lon="6.51056">
        <ele>199</ele>
        <time>2017-01-28T13:39:52.000Z</time>
      </trkpt>
      <trkpt lat="43.4191" lon="6.51056">
        <ele>199.39999389648</ele>
        <time>2017-01-28T13:39:53.000Z</time>
      </trkpt>
      <trkpt lat="43.41903" lon="6.51056">
        <ele>200.19999694824</ele>
        <time>2017-01-28T13:39:57.000Z</time>
      </trkpt>
      <trkpt lat="43.41899" lon="6.51057">
        <ele>201.39999389648</ele>
        <time>2017-01-28T13:40:00.000Z</time>
      </trkpt>
      <trkpt lat="43.41896" lon="6.51058">
        <ele>202.80000305176</ele>
        <time>2017-01-28T13:40:03.000Z</time>
      </trkpt>
      <trkpt lat="43.4189" lon="6.51058">
        <ele>204</ele>
        <time>2017-01-28T13:40:08.000Z</time>
      </trkpt>
      <trkpt lat="43.41884" lon="6.51059">
        <ele>205</ele>
        <time>2017-01-28T13:40:13.000Z</time>
      </trkpt>
      <trkpt lat="43.41881" lon="6.51059">
        <ele>205.19999694824</ele>
        <time>2017-01-28T13:40:15.000Z</time>
      </trkpt>
      <trkpt lat="43.41873" lon="6.51061">
        <ele>205.60000610352</ele>
        <time>2017-01-28T13:40:21.000Z</time>
      </trkpt>
      <trkpt lat="43.41868" lon="6.5106">
        <ele>206.19999694824</ele>
        <time>2017-01-28T13:40:25.000Z</time>
      </trkpt>
      <trkpt lat="43.41866" lon="6.51059">
        <ele>206.80000305176</ele>
        <time>2017-01-28T13:40:27.000Z</time>
      </trkpt>
      <trkpt lat="43.41864" lon="6.51059">
        <ele>207.60000610352</ele>
        <time>2017-01-28T13:40:30.000Z</time>
      </trkpt>
      <trkpt lat="43.41864" lon="6.51059">
        <ele>207.80000305176</ele>
        <time>2017-01-28T13:40:32.000Z</time>
      </trkpt>
      <trkpt lat="43.4186" lon="6.51059">
        <ele>208.19999694824</ele>
        <time>2017-01-28T13:40:37.000Z</time>
      </trkpt>
      <trkpt lat="43.41858" lon="6.5106">
        <ele>208.60000610352</ele>
        <time>2017-01-28T13:40:43.000Z</time>
      </trkpt>
      <trkpt lat="43.41857" lon="6.5106">
        <ele>208.60000610352</ele>
        <time>2017-01-28T13:40:44.000Z</time>
      </trkpt>
      <trkpt lat="43.41854" lon="6.51061">
        <ele>209.39999389648</ele>
        <time>2017-01-28T13:40:50.000Z</time>
      </trkpt>
      <trkpt lat="43.41851" lon="6.51061">
        <ele>209.60000610352</ele>
        <time>2017-01-28T13:40:53.000Z</time>
      </trkpt>
      <trkpt lat="43.41849" lon="6.51061">
        <ele>210.39999389648</ele>
        <time>2017-01-28T13:40:57.000Z</time>
      </trkpt>
      <trkpt lat="43.41849" lon="6.51061">
        <ele>210.80000305176</ele>
        <time>2017-01-28T13:40:59.000Z</time>
      </trkpt>
      <trkpt lat="43.41849" lon="6.51061">
        <ele>211.39999389648</ele>
        <time>2017-01-28T13:41:03.000Z</time>
      </trkpt>
      <trkpt lat="43.41849" lon="6.51061">
        <ele>210.80000305176</ele>
        <time>2017-01-28T13:41:11.000Z</time>
      </trkpt>
      <trkpt lat="43.4185" lon="6.51061">
        <ele>211.39999389648</ele>
        <time>2017-01-28T13:41:18.000Z</time>
      </trkpt>
      <trkpt lat="43.41849" lon="6.51061">
        <ele>211.39999389648</ele>
        <time>2017-01-28T13:41:25.000Z</time>
      </trkpt>
      <trkpt lat="43.41848" lon="6.51061">
        <ele>211</ele>
        <time>2017-01-28T13:41:32.000Z</time>
      </trkpt>
      <trkpt lat="43.41842" lon="6.51061">
        <ele>211.80000305176</ele>
        <time>2017-01-28T13:41:39.000Z</time>
      </trkpt>
      <trkpt lat="43.4184" lon="6.51061">
        <ele>212.19999694824</ele>
        <time>2017-01-28T13:41:41.000Z</time>
      </trkpt>
      <trkpt lat="43.41837" lon="6.51061">
        <ele>213</ele>
        <time>2017-01-28T13:41:46.000Z</time>
      </trkpt>
      <trkpt lat="43.41835" lon="6.51062">
        <ele>213.60000610352</ele>
        <time>2017-01-28T13:41:49.000Z</time>
      </trkpt>
      <trkpt lat="43.41834" lon="6.51062">
        <ele>214</ele>
        <time>2017-01-28T13:41:51.000Z</time>
      </trkpt>
      <trkpt lat="43.41832" lon="6.51063">
        <ele>215</ele>
        <time>2017-01-28T13:41:56.000Z</time>
      </trkpt>
      <trkpt lat="43.41833" lon="6.51064">
        <ele>214.80000305176</ele>
        <time>2017-01-28T13:42:08.000Z</time>
      </trkpt>
      <trkpt lat="43.41831" lon="6.51063">
        <ele>214.19999694824</ele>
        <time>2017-01-28T13:42:14.000Z</time>
      </trkpt>
      <trkpt lat="43.41831" lon="6.51063">
        <ele>214.19999694824</ele>
        <time>2017-01-28T13:42:15.000Z</time>
      </trkpt>
      <trkpt lat="43.41824" lon="6.51067">
        <ele>216.19999694824</ele>
        <time>2017-01-28T13:42:24.000Z</time>
      </trkpt>
      <trkpt lat="43.4182" lon="6.51068">
        <ele>217.39999389648</ele>
        <time>2017-01-28T13:42:29.000Z</time>
      </trkpt>
      <trkpt lat="43.41817" lon="6.5107">
        <ele>218</ele>
        <time>2017-01-28T13:42:33.000Z</time>
      </trkpt>
      <trkpt lat="43.41814" lon="6.51072">
        <ele>218.39999389648</ele>
        <time>2017-01-28T13:42:37.000Z</time>
      </trkpt>
      <trkpt lat="43.41812" lon="6.51075">
        <ele>218.60000610352</ele>
        <time>2017-01-28T13:42:41.000Z</time>
      </trkpt>
      <trkpt lat="43.41807" lon="6.51076">
        <ele>219</ele>
        <time>2017-01-28T13:42:47.000Z</time>
      </trkpt>
      <trkpt lat="43.41804" lon="6.51073">
        <ele>219.39999389648</ele>
        <time>2017-01-28T13:42:51.000Z</time>
      </trkpt>
      <trkpt lat="43.41804" lon="6.51072">
        <ele>219.60000610352</ele>
        <time>2017-01-28T13:42:52.000Z</time>
      </trkpt>
      <trkpt lat="43.41804" lon="6.51068">
        <ele>220.19999694824</ele>
        <time>2017-01-28T13:42:55.000Z</time>
      </trkpt>
      <trkpt lat="43.41806" lon="6.51066">
        <ele>220.60000610352</ele>
        <time>2017-01-28T13:42:57.000Z</time>
      </trkpt>
      <trkpt lat="43.41808" lon="6.51063">
        <ele>221.60000610352</ele>
        <time>2017-01-28T13:43:02.000Z</time>
      </trkpt>
      <trkpt lat="43.4181" lon="6.51061">
        <ele>221.80000305176</ele>
        <time>2017-01-28T13:43:06.000Z</time>
      </trkpt>
      <trkpt lat="43.4182" lon="6.51054">
        <ele>221.80000305176</ele>
        <time>2017-01-28T13:43:13.000Z</time>
      </trkpt>
      <trkpt lat="43.41827" lon="6.51048">
        <ele>221.80000305176</ele>
        <time>2017-01-28T13:43:18.000Z</time>
      </trkpt>
      <trkpt lat="43.4184" lon="6.51039">
        <ele>221.39999389648</ele>
        <time>2017-01-28T13:43:24.000Z</time>
      </trkpt>
      <trkpt lat="43.41853" lon="6.51033">
        <ele>221.39999389648</ele>
        <time>2017-01-28T13:43:31.000Z</time>
      </trkpt>
      <trkpt lat="43.41866" lon="6.51027">
        <ele>221.80000305176</ele>
        <time>2017-01-28T13:43:39.000Z</time>
      </trkpt>
      <trkpt lat="43.41879" lon="6.51021">
        <ele>222.60000610352</ele>
        <time>2017-01-28T13:43:47.000Z</time>
      </trkpt>
      <trkpt lat="43.4189" lon="6.51011">
        <ele>222.39999389648</ele>
        <time>2017-01-28T13:43:55.000Z</time>
      </trkpt>
      <trkpt lat="43.41899" lon="6.51005">
        <ele>223</ele>
        <time>2017-01-28T13:44:01.000Z</time>
      </trkpt>
      <trkpt lat="43.41905" lon="6.51003">
        <ele>223.80000305176</ele>
        <time>2017-01-28T13:44:04.000Z</time>
      </trkpt>
      <trkpt lat="43.4191" lon="6.51002">
        <ele>224.80000305176</ele>
        <time>2017-01-28T13:44:07.000Z</time>
      </trkpt>
      <trkpt lat="43.41912" lon="6.51002">
        <ele>225</ele>
        <time>2017-01-28T13:44:08.000Z</time>
      </trkpt>
      <trkpt lat="43.41923" lon="6.50995">
        <ele>225.39999389648</ele>
        <time>2017-01-28T13:44:15.000Z</time>
      </trkpt>
      <trkpt lat="43.4193" lon="6.50987">
        <ele>226.19999694824</ele>
        <time>2017-01-28T13:44:20.000Z</time>
      </trkpt>
      <trkpt lat="43.41936" lon="6.50981">
        <ele>227</ele>
        <time>2017-01-28T13:44:24.000Z</time>
      </trkpt>
      <trkpt lat="43.41937" lon="6.5098">
        <ele>227.19999694824</ele>
        <time>2017-01-28T13:44:25.000Z</time>
      </trkpt>
      <trkpt lat="43.41942" lon="6.5097">
        <ele>228.19999694824</ele>
        <time>2017-01-28T13:44:30.000Z</time>
      </trkpt>
      <trkpt lat="43.41944" lon="6.50966">
        <ele>228.60000610352</ele>
        <time>2017-01-28T13:44:32.000Z</time>
      </trkpt>
      <trkpt lat="43.41947" lon="6.50958">
        <ele>229.39999389648</ele>
        <time>2017-01-28T13:44:35.000Z</time>
      </trkpt>
      <trkpt lat="43.41948" lon="6.5095">
        <ele>230.19999694824</ele>
        <time>2017-01-28T13:44:38.000Z</time>
      </trkpt>
      <trkpt lat="43.41949" lon="6.50943">
        <ele>230.60000610352</ele>
        <time>2017-01-28T13:44:41.000Z</time>
      </trkpt>
      <trkpt lat="43.4195" lon="6.50935">
        <ele>231.60000610352</ele>
        <time>2017-01-28T13:44:45.000Z</time>
      </trkpt>
      <trkpt lat="43.4195" lon="6.50928">
        <ele>232.80000305176</ele>
        <time>2017-01-28T13:44:49.000Z</time>
      </trkpt>
      <trkpt lat="43.41949" lon="6.5092">
        <ele>233.39999389648</ele>
        <time>2017-01-28T13:44:54.000Z</time>
      </trkpt>
      <trkpt lat="43.41948" lon="6.50915">
        <ele>233.80000305176</ele>
        <time>2017-01-28T13:44:57.000Z</time>
      </trkpt>
      <trkpt lat="43.41947" lon="6.50911">
        <ele>234.19999694824</ele>
        <time>2017-01-28T13:45:00.000Z</time>
      </trkpt>
      <trkpt lat="43.41947" lon="6.50906">
        <ele>234.80000305176</ele>
        <time>2017-01-28T13:45:03.000Z</time>
      </trkpt>
      <trkpt lat="43.41946" lon="6.50901">
        <ele>235.39999389648</ele>
        <time>2017-01-28T13:45:06.000Z</time>
      </trkpt>
      <trkpt lat="43.41945" lon="6.50893">
        <ele>236</ele>
        <time>2017-01-28T13:45:10.000Z</time>
      </trkpt>
      <trkpt lat="43.41944" lon="6.50887">
        <ele>236.39999389648</ele>
        <time>2017-01-28T13:45:13.000Z</time>
      </trkpt>
      <trkpt lat="43.41943" lon="6.5088">
        <ele>237</ele>
        <time>2017-01-28T13:45:17.000Z</time>
      </trkpt>
      <trkpt lat="43.41942" lon="6.50868">
        <ele>237.60000610352</ele>
        <time>2017-01-28T13:45:23.000Z</time>
      </trkpt>
      <trkpt lat="43.41941" lon="6.50854">
        <ele>238</ele>
        <time>2017-01-28T13:45:31.000Z</time>
      </trkpt>
      <trkpt lat="43.4194" lon="6.50846">
        <ele>239.19999694824</ele>
        <time>2017-01-28T13:45:35.000Z</time>
      </trkpt>
      <trkpt lat="43.4194" lon="6.50841">
        <ele>239.60000610352</ele>
        <time>2017-01-28T13:45:37.000Z</time>
      </trkpt>
      <trkpt lat="43.4194" lon="6.50837">
        <ele>240.39999389648</ele>
        <time>2017-01-28T13:45:39.000Z</time>
      </trkpt>
      <trkpt lat="43.4194" lon="6.50831">
        <ele>241.39999389648</ele>
        <time>2017-01-28T13:45:43.000Z</time>
      </trkpt>
      <trkpt lat="43.4194" lon="6.50828">
        <ele>241.60000610352</ele>
        <time>2017-01-28T13:45:45.000Z</time>
      </trkpt>
      <trkpt lat="43.41939" lon="6.50823">
        <ele>241.80000305176</ele>
        <time>2017-01-28T13:45:48.000Z</time>
      </trkpt>
      <trkpt lat="43.41936" lon="6.50819">
        <ele>241.80000305176</ele>
        <time>2017-01-28T13:45:51.000Z</time>
      </trkpt>
      <trkpt lat="43.41929" lon="6.50812">
        <ele>242.39999389648</ele>
        <time>2017-01-28T13:45:56.000Z</time>
      </trkpt>
      <trkpt lat="43.41928" lon="6.50811">
        <ele>242.60000610352</ele>
        <time>2017-01-28T13:45:57.000Z</time>
      </trkpt>
      <trkpt lat="43.41927" lon="6.5081">
        <ele>242.80000305176</ele>
        <time>2017-01-28T13:45:58.000Z</time>
      </trkpt>
      <trkpt lat="43.41917" lon="6.50802">
        <ele>243.39999389648</ele>
        <time>2017-01-28T13:46:05.000Z</time>
      </trkpt>
      <trkpt lat="43.41906" lon="6.50794">
        <ele>243.60000610352</ele>
        <time>2017-01-28T13:46:13.000Z</time>
      </trkpt>
      <trkpt lat="43.41905" lon="6.50791">
        <ele>243.60000610352</ele>
        <time>2017-01-28T13:46:14.000Z</time>
      </trkpt>
      <trkpt lat="43.41904" lon="6.50789">
        <ele>243.60000610352</ele>
        <time>2017-01-28T13:46:15.000Z</time>
      </trkpt>
      <trkpt lat="43.41903" lon="6.50781">
        <ele>244</ele>
        <time>2017-01-28T13:46:19.000Z</time>
      </trkpt>
      <trkpt lat="43.41902" lon="6.50775">
        <ele>244.80000305176</ele>
        <time>2017-01-28T13:46:22.000Z</time>
      </trkpt>
      <trkpt lat="43.41902" lon="6.50767">
        <ele>245.39999389648</ele>
        <time>2017-01-28T13:46:26.000Z</time>
      </trkpt>
      <trkpt lat="43.41905" lon="6.50753">
        <ele>245.39999389648</ele>
        <time>2017-01-28T13:46:32.000Z</time>
      </trkpt>
      <trkpt lat="43.41904" lon="6.50748">
        <ele>245.80000305176</ele>
        <time>2017-01-28T13:46:35.000Z</time>
      </trkpt>
      <trkpt lat="43.41903" lon="6.50746">
        <ele>246</ele>
        <time>2017-01-28T13:46:36.000Z</time>
      </trkpt>
      <trkpt lat="43.41903" lon="6.50741">
        <ele>246.19999694824</ele>
        <time>2017-01-28T13:46:38.000Z</time>
      </trkpt>
      <trkpt lat="43.41902" lon="6.50737">
        <ele>247.19999694824</ele>
        <time>2017-01-28T13:46:41.000Z</time>
      </trkpt>
      <trkpt lat="43.41902" lon="6.50735">
        <ele>247.60000610352</ele>
        <time>2017-01-28T13:46:42.000Z</time>
      </trkpt>
      <trkpt lat="43.41901" lon="6.50732">
        <ele>248.39999389648</ele>
        <time>2017-01-28T13:46:44.000Z</time>
      </trkpt>
      <trkpt lat="43.41899" lon="6.50726">
        <ele>249.60000610352</ele>
        <time>2017-01-28T13:46:49.000Z</time>
      </trkpt>
      <trkpt lat="43.41899" lon="6.50722">
        <ele>250.60000610352</ele>
        <time>2017-01-28T13:46:52.000Z</time>
      </trkpt>
      <trkpt lat="43.41899" lon="6.5072">
        <ele>250.80000305176</ele>
        <time>2017-01-28T13:46:53.000Z</time>
      </trkpt>
      <trkpt lat="43.41898" lon="6.50716">
        <ele>251.80000305176</ele>
        <time>2017-01-28T13:46:56.000Z</time>
      </trkpt>
      <trkpt lat="43.41898" lon="6.50714">
        <ele>252</ele>
        <time>2017-01-28T13:46:57.000Z</time>
      </trkpt>
      <trkpt lat="43.41897" lon="6.50708">
        <ele>253.19999694824</ele>
        <time>2017-01-28T13:47:01.000Z</time>
      </trkpt>
      <trkpt lat="43.41897" lon="6.50707">
        <ele>253.39999389648</ele>
        <time>2017-01-28T13:47:02.000Z</time>
      </trkpt>
      <trkpt lat="43.41897" lon="6.50702">
        <ele>254.39999389648</ele>
        <time>2017-01-28T13:47:06.000Z</time>
      </trkpt>
      <trkpt lat="43.41896" lon="6.50699">
        <ele>255.19999694824</ele>
        <time>2017-01-28T13:47:09.000Z</time>
      </trkpt>
      <trkpt lat="43.41895" lon="6.50697">
        <ele>255.60000610352</ele>
        <time>2017-01-28T13:47:11.000Z</time>
      </trkpt>
      <trkpt lat="43.41894" lon="6.50691">
        <ele>256.39999389648</ele>
        <time>2017-01-28T13:47:15.000Z</time>
      </trkpt>
      <trkpt lat="43.41894" lon="6.5069">
        <ele>256.60000610352</ele>
        <time>2017-01-28T13:47:16.000Z</time>
      </trkpt>
      <trkpt lat="43.41892" lon="6.50682">
        <ele>257.39999389648</ele>
        <time>2017-01-28T13:47:21.000Z</time>
      </trkpt>
      <trkpt lat="43.41892" lon="6.50679">
        <ele>257.79998779297</ele>
        <time>2017-01-28T13:47:23.000Z</time>
      </trkpt>
      <trkpt lat="43.41889" lon="6.50672">
        <ele>259</ele>
        <time>2017-01-28T13:47:28.000Z</time>
      </trkpt>
      <trkpt lat="43.41888" lon="6.5067">
        <ele>259.20001220703</ele>
        <time>2017-01-28T13:47:29.000Z</time>
      </trkpt>
      <trkpt lat="43.41888" lon="6.50668">
        <ele>259.20001220703</ele>
        <time>2017-01-28T13:47:30.000Z</time>
      </trkpt>
      <trkpt lat="43.41889" lon="6.50663">
        <ele>260</ele>
        <time>2017-01-28T13:47:34.000Z</time>
      </trkpt>
      <trkpt lat="43.41889" lon="6.50662">
        <ele>260.20001220703</ele>
        <time>2017-01-28T13:47:35.000Z</time>
      </trkpt>
      <trkpt lat="43.4189" lon="6.50656">
        <ele>261.20001220703</ele>
        <time>2017-01-28T13:47:40.000Z</time>
      </trkpt>
      <trkpt lat="43.4189" lon="6.50655">
        <ele>261.60000610352</ele>
        <time>2017-01-28T13:47:41.000Z</time>
      </trkpt>
      <trkpt lat="43.4189" lon="6.50652">
        <ele>262.39999389648</ele>
        <time>2017-01-28T13:47:43.000Z</time>
      </trkpt>
      <trkpt lat="43.41891" lon="6.50651">
        <ele>262.60000610352</ele>
        <time>2017-01-28T13:47:44.000Z</time>
      </trkpt>
      <trkpt lat="43.41894" lon="6.50646">
        <ele>263.39999389648</ele>
        <time>2017-01-28T13:47:48.000Z</time>
      </trkpt>
      <trkpt lat="43.41897" lon="6.50644">
        <ele>264.60000610352</ele>
        <time>2017-01-28T13:47:52.000Z</time>
      </trkpt>
      <trkpt lat="43.41898" lon="6.50643">
        <ele>264.79998779297</ele>
        <time>2017-01-28T13:47:53.000Z</time>
      </trkpt>
      <trkpt lat="43.419" lon="6.50642">
        <ele>265</ele>
        <time>2017-01-28T13:47:55.000Z</time>
      </trkpt>
      <trkpt lat="43.41904" lon="6.50641">
        <ele>265.60000610352</ele>
        <time>2017-01-28T13:47:59.000Z</time>
      </trkpt>
      <trkpt lat="43.41906" lon="6.5064">
        <ele>266.20001220703</ele>
        <time>2017-01-28T13:48:01.000Z</time>
      </trkpt>
      <trkpt lat="43.41909" lon="6.50638">
        <ele>267</ele>
        <time>2017-01-28T13:48:04.000Z</time>
      </trkpt>
      <trkpt lat="43.41914" lon="6.50635">
        <ele>267.39999389648</ele>
        <time>2017-01-28T13:48:09.000Z</time>
      </trkpt>
      <trkpt lat="43.41916" lon="6.50633">
        <ele>267.39999389648</ele>
        <time>2017-01-28T13:48:11.000Z</time>
      </trkpt>
      <trkpt lat="43.41919" lon="6.5063">
        <ele>267.79998779297</ele>
        <time>2017-01-28T13:48:15.000Z</time>
      </trkpt>
      <trkpt lat="43.41922" lon="6.50627">
        <ele>268</ele>
        <time>2017-01-28T13:48:18.000Z</time>
      </trkpt>
      <trkpt lat="43.4193" lon="6.5062">
        <ele>267.79998779297</ele>
        <time>2017-01-28T13:48:25.000Z</time>
      </trkpt>
      <trkpt lat="43.41932" lon="6.5061">
        <ele>268.20001220703</ele>
        <time>2017-01-28T13:48:31.000Z</time>
      </trkpt>
      <trkpt lat="43.41924" lon="6.50605">
        <ele>268.39999389648</ele>
        <time>2017-01-28T13:48:36.000Z</time>
      </trkpt>
      <trkpt lat="43.4191" lon="6.50601">
        <ele>268.39999389648</ele>
        <time>2017-01-28T13:48:44.000Z</time>
      </trkpt>
      <trkpt lat="43.41895" lon="6.50595">
        <ele>268.79998779297</ele>
        <time>2017-01-28T13:48:53.000Z</time>
      </trkpt>
      <trkpt lat="43.41894" lon="6.50594">
        <ele>269</ele>
        <time>2017-01-28T13:48:54.000Z</time>
      </trkpt>
      <trkpt lat="43.41888" lon="6.5059">
        <ele>270.20001220703</ele>
        <time>2017-01-28T13:48:58.000Z</time>
      </trkpt>
      <trkpt lat="43.41884" lon="6.50589">
        <ele>270.39999389648</ele>
        <time>2017-01-28T13:49:01.000Z</time>
      </trkpt>
      <trkpt lat="43.41875" lon="6.50585">
        <ele>270.60000610352</ele>
        <time>2017-01-28T13:49:07.000Z</time>
      </trkpt>
      <trkpt lat="43.41868" lon="6.50582">
        <ele>271.39999389648</ele>
        <time>2017-01-28T13:49:11.000Z</time>
      </trkpt>
      <trkpt lat="43.41865" lon="6.5058">
        <ele>271.60000610352</ele>
        <time>2017-01-28T13:49:13.000Z</time>
      </trkpt>
      <trkpt lat="43.41858" lon="6.50576">
        <ele>272.39999389648</ele>
        <time>2017-01-28T13:49:17.000Z</time>
      </trkpt>
      <trkpt lat="43.41849" lon="6.50571">
        <ele>273.39999389648</ele>
        <time>2017-01-28T13:49:22.000Z</time>
      </trkpt>
      <trkpt lat="43.41846" lon="6.5057">
        <ele>273.60000610352</ele>
        <time>2017-01-28T13:49:24.000Z</time>
      </trkpt>
      <trkpt lat="43.41838" lon="6.50566">
        <ele>274.60000610352</ele>
        <time>2017-01-28T13:49:29.000Z</time>
      </trkpt>
      <trkpt lat="43.41835" lon="6.50564">
        <ele>275.20001220703</ele>
        <time>2017-01-28T13:49:31.000Z</time>
      </trkpt>
      <trkpt lat="43.41832" lon="6.50563">
        <ele>275.79998779297</ele>
        <time>2017-01-28T13:49:33.000Z</time>
      </trkpt>
      <trkpt lat="43.41819" lon="6.50558">
        <ele>276</ele>
        <time>2017-01-28T13:49:40.000Z</time>
      </trkpt>
      <trkpt lat="43.41804" lon="6.50555">
        <ele>277</ele>
        <time>2017-01-28T13:49:48.000Z</time>
      </trkpt>
      <trkpt lat="43.41789" lon="6.50556">
        <ele>278</ele>
        <time>2017-01-28T13:49:56.000Z</time>
      </trkpt>
      <trkpt lat="43.41777" lon="6.5056">
        <ele>279</ele>
        <time>2017-01-28T13:50:02.000Z</time>
      </trkpt>
      <trkpt lat="43.4177" lon="6.50562">
        <ele>279.60000610352</ele>
        <time>2017-01-28T13:50:06.000Z</time>
      </trkpt>
      <trkpt lat="43.41758" lon="6.50569">
        <ele>280.20001220703</ele>
        <time>2017-01-28T13:50:13.000Z</time>
      </trkpt>
      <trkpt lat="43.41739" lon="6.50582">
        <ele>280.60000610352</ele>
        <time>2017-01-28T13:50:22.000Z</time>
      </trkpt>
      <trkpt lat="43.41724" lon="6.50594">
        <ele>281</ele>
        <time>2017-01-28T13:50:30.000Z</time>
      </trkpt>
      <trkpt lat="43.41721" lon="6.50597">
        <ele>281.20001220703</ele>
        <time>2017-01-28T13:50:32.000Z</time>
      </trkpt>
      <trkpt lat="43.41709" lon="6.50607">
        <ele>281.60000610352</ele>
        <time>2017-01-28T13:50:39.000Z</time>
      </trkpt>
      <trkpt lat="43.41704" lon="6.50612">
        <ele>282.60000610352</ele>
        <time>2017-01-28T13:50:43.000Z</time>
      </trkpt>
      <trkpt lat="43.41697" lon="6.50617">
        <ele>283.39999389648</ele>
        <time>2017-01-28T13:50:48.000Z</time>
      </trkpt>
      <trkpt lat="43.41696" lon="6.50619">
        <ele>283.60000610352</ele>
        <time>2017-01-28T13:50:49.000Z</time>
      </trkpt>
      <trkpt lat="43.41688" lon="6.50627">
        <ele>284.20001220703</ele>
        <time>2017-01-28T13:50:55.000Z</time>
      </trkpt>
      <trkpt lat="43.41683" lon="6.50633">
        <ele>284.60000610352</ele>
        <time>2017-01-28T13:51:00.000Z</time>
      </trkpt>
      <trkpt lat="43.41679" lon="6.50636">
        <ele>285.39999389648</ele>
        <time>2017-01-28T13:51:03.000Z</time>
      </trkpt>
      <trkpt lat="43.41676" lon="6.50638">
        <ele>285.79998779297</ele>
        <time>2017-01-28T13:51:05.000Z</time>
      </trkpt>
      <trkpt lat="43.41671" lon="6.50643">
        <ele>286.79998779297</ele>
        <time>2017-01-28T13:51:10.000Z</time>
      </trkpt>
      <trkpt lat="43.41669" lon="6.50644">
        <ele>287</ele>
        <time>2017-01-28T13:51:11.000Z</time>
      </trkpt>
      <trkpt lat="43.41664" lon="6.50648">
        <ele>288</ele>
        <time>2017-01-28T13:51:16.000Z</time>
      </trkpt>
      <trkpt lat="43.41661" lon="6.5065">
        <ele>289</ele>
        <time>2017-01-28T13:51:18.000Z</time>
      </trkpt>
      <trkpt lat="43.4166" lon="6.50651">
        <ele>289.20001220703</ele>
        <time>2017-01-28T13:51:19.000Z</time>
      </trkpt>
      <trkpt lat="43.41653" lon="6.50658">
        <ele>290.20001220703</ele>
        <time>2017-01-28T13:51:25.000Z</time>
      </trkpt>
      <trkpt lat="43.41652" lon="6.50659">
        <ele>290.39999389648</ele>
        <time>2017-01-28T13:51:26.000Z</time>
      </trkpt>
      <trkpt lat="43.41645" lon="6.50663">
        <ele>291.39999389648</ele>
        <time>2017-01-28T13:51:32.000Z</time>
      </trkpt>
      <trkpt lat="43.41645" lon="6.50663">
        <ele>292.20001220703</ele>
        <time>2017-01-28T13:51:34.000Z</time>
      </trkpt>
      <trkpt lat="43.41645" lon="6.50664">
        <ele>292.60000610352</ele>
        <time>2017-01-28T13:51:35.000Z</time>
      </trkpt>
      <trkpt lat="43.41642" lon="6.50666">
        <ele>293.39999389648</ele>
        <time>2017-01-28T13:51:40.000Z</time>
      </trkpt>
      <trkpt lat="43.41642" lon="6.50667">
        <ele>293.60000610352</ele>
        <time>2017-01-28T13:51:41.000Z</time>
      </trkpt>
      <trkpt lat="43.41638" lon="6.5067">
        <ele>294.79998779297</ele>
        <time>2017-01-28T13:51:47.000Z</time>
      </trkpt>
      <trkpt lat="43.41636" lon="6.50671">
        <ele>295.20001220703</ele>
        <time>2017-01-28T13:51:49.000Z</time>
      </trkpt>
      <trkpt lat="43.41634" lon="6.50673">
        <ele>296</ele>
        <time>2017-01-28T13:51:52.000Z</time>
      </trkpt>
      <trkpt lat="43.41631" lon="6.50675">
        <ele>297</ele>
        <time>2017-01-28T13:51:57.000Z</time>
      </trkpt>
      <trkpt lat="43.4163" lon="6.50676">
        <ele>297.20001220703</ele>
        <time>2017-01-28T13:51:58.000Z</time>
      </trkpt>
      <trkpt lat="43.41627" lon="6.50679">
        <ele>298.39999389648</ele>
        <time>2017-01-28T13:52:03.000Z</time>
      </trkpt>
      <trkpt lat="43.41625" lon="6.5068">
        <ele>299.39999389648</ele>
        <time>2017-01-28T13:52:06.000Z</time>
      </trkpt>
      <trkpt lat="43.41621" lon="6.50683">
        <ele>300.39999389648</ele>
        <time>2017-01-28T13:52:11.000Z</time>
      </trkpt>
      <trkpt lat="43.41618" lon="6.50687">
        <ele>301.60000610352</ele>
        <time>2017-01-28T13:52:16.000Z</time>
      </trkpt>
      <trkpt lat="43.41615" lon="6.5069">
        <ele>302.60000610352</ele>
        <time>2017-01-28T13:52:21.000Z</time>
      </trkpt>
      <trkpt lat="43.41611" lon="6.50695">
        <ele>302.79998779297</ele>
        <time>2017-01-28T13:52:29.000Z</time>
      </trkpt>
      <trkpt lat="43.41607" lon="6.50698">
        <ele>303.20001220703</ele>
        <time>2017-01-28T13:52:36.000Z</time>
      </trkpt>
      <trkpt lat="43.41603" lon="6.50702">
        <ele>304</ele>
        <time>2017-01-28T13:52:44.000Z</time>
      </trkpt>
      <trkpt lat="43.41601" lon="6.50703">
        <ele>305</ele>
        <time>2017-01-28T13:52:47.000Z</time>
      </trkpt>
      <trkpt lat="43.41596" lon="6.50707">
        <ele>306</ele>
        <time>2017-01-28T13:52:55.000Z</time>
      </trkpt>
      <trkpt lat="43.41594" lon="6.50709">
        <ele>307</ele>
        <time>2017-01-28T13:52:58.000Z</time>
      </trkpt>
      <trkpt lat="43.41591" lon="6.50711">
        <ele>307</ele>
        <time>2017-01-28T13:53:03.000Z</time>
      </trkpt>
      <trkpt lat="43.41584" lon="6.50717">
        <ele>308.20001220703</ele>
        <time>2017-01-28T13:53:12.000Z</time>
      </trkpt>
      <trkpt lat="43.41583" lon="6.50718">
        <ele>308.60000610352</ele>
        <time>2017-01-28T13:53:14.000Z</time>
      </trkpt>
      <trkpt lat="43.41581" lon="6.5072">
        <ele>309.20001220703</ele>
        <time>2017-01-28T13:53:17.000Z</time>
      </trkpt>
      <trkpt lat="43.41578" lon="6.50722">
        <ele>310.60000610352</ele>
        <time>2017-01-28T13:53:20.000Z</time>
      </trkpt>
      <trkpt lat="43.41575" lon="6.50723">
        <ele>311.60000610352</ele>
        <time>2017-01-28T13:53:25.000Z</time>
      </trkpt>
      <trkpt lat="43.41571" lon="6.50726">
        <ele>312.60000610352</ele>
        <time>2017-01-28T13:53:31.000Z</time>
      </trkpt>
      <trkpt lat="43.41571" lon="6.50726">
        <ele>313</ele>
        <time>2017-01-28T13:53:32.000Z</time>
      </trkpt>
      <trkpt lat="43.4157" lon="6.50727">
        <ele>313</ele>
        <time>2017-01-28T13:53:34.000Z</time>
      </trkpt>
      <trkpt lat="43.41567" lon="6.5073">
        <ele>312</ele>
        <time>2017-01-28T13:53:37.000Z</time>
      </trkpt>
      <trkpt lat="43.41557" lon="6.50739">
        <ele>312.79998779297</ele>
        <time>2017-01-28T13:53:45.000Z</time>
      </trkpt>
      <trkpt lat="43.41553" lon="6.50743">
        <ele>313.60000610352</ele>
        <time>2017-01-28T13:53:49.000Z</time>
      </trkpt>
      <trkpt lat="43.41547" lon="6.50748">
        <ele>314.79998779297</ele>
        <time>2017-01-28T13:53:54.000Z</time>
      </trkpt>
      <trkpt lat="43.41539" lon="6.50755">
        <ele>316</ele>
        <time>2017-01-28T13:54:00.000Z</time>
      </trkpt>
      <trkpt lat="43.41536" lon="6.50756">
        <ele>316.20001220703</ele>
        <time>2017-01-28T13:54:02.000Z</time>
      </trkpt>
      <trkpt lat="43.41526" lon="6.50764">
        <ele>317.20001220703</ele>
        <time>2017-01-28T13:54:10.000Z</time>
      </trkpt>
      <trkpt lat="43.4152" lon="6.50768">
        <ele>318.60000610352</ele>
        <time>2017-01-28T13:54:14.000Z</time>
      </trkpt>
      <trkpt lat="43.41515" lon="6.50772">
        <ele>319.20001220703</ele>
        <time>2017-01-28T13:54:18.000Z</time>
      </trkpt>
      <trkpt lat="43.41508" lon="6.5078">
        <ele>319.60000610352</ele>
        <time>2017-01-28T13:54:25.000Z</time>
      </trkpt>
      <trkpt lat="43.41506" lon="6.50781">
        <ele>319.79998779297</ele>
        <time>2017-01-28T13:54:26.000Z</time>
      </trkpt>
      <trkpt lat="43.415" lon="6.50785">
        <ele>320.79998779297</ele>
        <time>2017-01-28T13:54:31.000Z</time>
      </trkpt>
      <trkpt lat="43.41497" lon="6.50787">
        <ele>320.79998779297</ele>
        <time>2017-01-28T13:54:33.000Z</time>
      </trkpt>
      <trkpt lat="43.41486" lon="6.50794">
        <ele>321.60000610352</ele>
        <time>2017-01-28T13:54:41.000Z</time>
      </trkpt>
      <trkpt lat="43.4148" lon="6.50798">
        <ele>322</ele>
        <time>2017-01-28T13:54:45.000Z</time>
      </trkpt>
      <trkpt lat="43.41473" lon="6.50803">
        <ele>323.20001220703</ele>
        <time>2017-01-28T13:54:50.000Z</time>
      </trkpt>
      <trkpt lat="43.4147" lon="6.50804">
        <ele>323.20001220703</ele>
        <time>2017-01-28T13:54:51.000Z</time>
      </trkpt>
      <trkpt lat="43.41461" lon="6.50808">
        <ele>324.20001220703</ele>
        <time>2017-01-28T13:54:57.000Z</time>
      </trkpt>
      <trkpt lat="43.4146" lon="6.50809">
        <ele>324.20001220703</ele>
        <time>2017-01-28T13:54:58.000Z</time>
      </trkpt>
      <trkpt lat="43.4145" lon="6.50814">
        <ele>325.39999389648</ele>
        <time>2017-01-28T13:55:06.000Z</time>
      </trkpt>
      <trkpt lat="43.41449" lon="6.50815">
        <ele>325.60000610352</ele>
        <time>2017-01-28T13:55:07.000Z</time>
      </trkpt>
      <trkpt lat="43.41446" lon="6.50818">
        <ele>326.60000610352</ele>
        <time>2017-01-28T13:55:10.000Z</time>
      </trkpt>
      <trkpt lat="43.41444" lon="6.50821">
        <ele>328</ele>
        <time>2017-01-28T13:55:13.000Z</time>
      </trkpt>
      <trkpt lat="43.41441" lon="6.50823">
        <ele>328.79998779297</ele>
        <time>2017-01-28T13:55:15.000Z</time>
      </trkpt>
      <trkpt lat="43.41438" lon="6.50826">
        <ele>329</ele>
        <time>2017-01-28T13:55:19.000Z</time>
      </trkpt>
      <trkpt lat="43.41434" lon="6.50828">
        <ele>330</ele>
        <time>2017-01-28T13:55:23.000Z</time>
      </trkpt>
      <trkpt lat="43.41432" lon="6.50828">
        <ele>330.20001220703</ele>
        <time>2017-01-28T13:55:24.000Z</time>
      </trkpt>
      <trkpt lat="43.4143" lon="6.5083">
        <ele>331.39999389648</ele>
        <time>2017-01-28T13:55:27.000Z</time>
      </trkpt>
      <trkpt lat="43.41429" lon="6.50832">
        <ele>331.79998779297</ele>
        <time>2017-01-28T13:55:29.000Z</time>
      </trkpt>
      <trkpt lat="43.41428" lon="6.50833">
        <ele>332</ele>
        <time>2017-01-28T13:55:30.000Z</time>
      </trkpt>
      <trkpt lat="43.41426" lon="6.50833">
        <ele>332.60000610352</ele>
        <time>2017-01-28T13:55:32.000Z</time>
      </trkpt>
      <trkpt lat="43.41424" lon="6.50833">
        <ele>333</ele>
        <time>2017-01-28T13:55:34.000Z</time>
      </trkpt>
      <trkpt lat="43.41423" lon="6.50834">
        <ele>333.20001220703</ele>
        <time>2017-01-28T13:55:35.000Z</time>
      </trkpt>
      <trkpt lat="43.41421" lon="6.50835">
        <ele>333.60000610352</ele>
        <time>2017-01-28T13:55:37.000Z</time>
      </trkpt>
      <trkpt lat="43.41418" lon="6.50837">
        <ele>333.60000610352</ele>
        <time>2017-01-28T13:55:41.000Z</time>
      </trkpt>
      <trkpt lat="43.41409" lon="6.50845">
        <ele>334.39999389648</ele>
        <time>2017-01-28T13:55:51.000Z</time>
      </trkpt>
      <trkpt lat="43.41402" lon="6.50852">
        <ele>334.60000610352</ele>
        <time>2017-01-28T13:55:59.000Z</time>
      </trkpt>
      <trkpt lat="43.41401" lon="6.50853">
        <ele>334.60000610352</ele>
        <time>2017-01-28T13:56:00.000Z</time>
      </trkpt>
      <trkpt lat="43.41398" lon="6.50857">
        <ele>336</ele>
        <time>2017-01-28T13:56:05.000Z</time>
      </trkpt>
      <trkpt lat="43.41396" lon="6.50859">
        <ele>336.39999389648</ele>
        <time>2017-01-28T13:56:07.000Z</time>
      </trkpt>
      <trkpt lat="43.41394" lon="6.50862">
        <ele>336.60000610352</ele>
        <time>2017-01-28T13:56:10.000Z</time>
      </trkpt>
      <trkpt lat="43.41392" lon="6.50864">
        <ele>337</ele>
        <time>2017-01-28T13:56:12.000Z</time>
      </trkpt>
      <trkpt lat="43.41392" lon="6.50865">
        <ele>337.20001220703</ele>
        <time>2017-01-28T13:56:13.000Z</time>
      </trkpt>
      <trkpt lat="43.41389" lon="6.50868">
        <ele>338.20001220703</ele>
        <time>2017-01-28T13:56:17.000Z</time>
      </trkpt>
      <trkpt lat="43.41387" lon="6.5087">
        <ele>338.39999389648</ele>
        <time>2017-01-28T13:56:19.000Z</time>
      </trkpt>
      <trkpt lat="43.41382" lon="6.50877">
        <ele>339.39999389648</ele>
        <time>2017-01-28T13:56:25.000Z</time>
      </trkpt>
      <trkpt lat="43.4138" lon="6.5088">
        <ele>339.79998779297</ele>
        <time>2017-01-28T13:56:27.000Z</time>
      </trkpt>
      <trkpt lat="43.41376" lon="6.50887">
        <ele>340.20001220703</ele>
        <time>2017-01-28T13:56:32.000Z</time>
      </trkpt>
      <trkpt lat="43.41376" lon="6.50888">
        <ele>340.39999389648</ele>
        <time>2017-01-28T13:56:33.000Z</time>
      </trkpt>
      <trkpt lat="43.41372" lon="6.50896">
        <ele>341.60000610352</ele>
        <time>2017-01-28T13:56:39.000Z</time>
      </trkpt>
      <trkpt lat="43.41368" lon="6.50905">
        <ele>342.60000610352</ele>
        <time>2017-01-28T13:56:44.000Z</time>
      </trkpt>
      <trkpt lat="43.41366" lon="6.50908">
        <ele>342.79998779297</ele>
        <time>2017-01-28T13:56:46.000Z</time>
      </trkpt>
      <trkpt lat="43.41362" lon="6.5092">
        <ele>343.39999389648</ele>
        <time>2017-01-28T13:56:52.000Z</time>
      </trkpt>
      <trkpt lat="43.41361" lon="6.50922">
        <ele>343.60000610352</ele>
        <time>2017-01-28T13:56:53.000Z</time>
      </trkpt>
      <trkpt lat="43.4136" lon="6.50926">
        <ele>344.79998779297</ele>
        <time>2017-01-28T13:56:56.000Z</time>
      </trkpt>
      <trkpt lat="43.41358" lon="6.50935">
        <ele>345.79998779297</ele>
        <time>2017-01-28T13:57:01.000Z</time>
      </trkpt>
      <trkpt lat="43.41355" lon="6.50946">
        <ele>347</ele>
        <time>2017-01-28T13:57:07.000Z</time>
      </trkpt>
      <trkpt lat="43.41354" lon="6.50949">
        <ele>347.20001220703</ele>
        <time>2017-01-28T13:57:09.000Z</time>
      </trkpt>
      <trkpt lat="43.41348" lon="6.50962">
        <ele>347.60000610352</ele>
        <time>2017-01-28T13:57:16.000Z</time>
      </trkpt>
      <trkpt lat="43.41342" lon="6.50969">
        <ele>348.20001220703</ele>
        <time>2017-01-28T13:57:21.000Z</time>
      </trkpt>
      <trkpt lat="43.4134" lon="6.5097">
        <ele>348.39999389648</ele>
        <time>2017-01-28T13:57:22.000Z</time>
      </trkpt>
      <trkpt lat="43.41333" lon="6.50978">
        <ele>349.20001220703</ele>
        <time>2017-01-28T13:57:27.000Z</time>
      </trkpt>
      <trkpt lat="43.41328" lon="6.50983">
        <ele>349.79998779297</ele>
        <time>2017-01-28T13:57:30.000Z</time>
      </trkpt>
      <trkpt lat="43.41324" lon="6.50987">
        <ele>350.20001220703</ele>
        <time>2017-01-28T13:57:32.000Z</time>
      </trkpt>
      <trkpt lat="43.41316" lon="6.50994">
        <ele>351.20001220703</ele>
        <time>2017-01-28T13:57:37.000Z</time>
      </trkpt>
      <trkpt lat="43.41312" lon="6.50997">
        <ele>351.60000610352</ele>
        <time>2017-01-28T13:57:39.000Z</time>
      </trkpt>
      <trkpt lat="43.41298" lon="6.51006">
        <ele>352.20001220703</ele>
        <time>2017-01-28T13:57:45.000Z</time>
      </trkpt>
      <trkpt lat="43.4129" lon="6.51011">
        <ele>352.79998779297</ele>
        <time>2017-01-28T13:57:48.000Z</time>
      </trkpt>
      <trkpt lat="43.41262" lon="6.51023">
        <ele>353.20001220703</ele>
        <time>2017-01-28T13:57:58.000Z</time>
      </trkpt>
      <trkpt lat="43.41255" lon="6.51026">
        <ele>353.60000610352</ele>
        <time>2017-01-28T13:58:01.000Z</time>
      </trkpt>
      <trkpt lat="43.41245" lon="6.51029">
        <ele>354.79998779297</ele>
        <time>2017-01-28T13:58:05.000Z</time>
      </trkpt>
      <trkpt lat="43.41235" lon="6.5103">
        <ele>356</ele>
        <time>2017-01-28T13:58:09.000Z</time>
      </trkpt>
      <trkpt lat="43.41226" lon="6.5103">
        <ele>357</ele>
        <time>2017-01-28T13:58:14.000Z</time>
      </trkpt>
      <trkpt lat="43.41224" lon="6.5103">
        <ele>357.20001220703</ele>
        <time>2017-01-28T13:58:15.000Z</time>
      </trkpt>
      <trkpt lat="43.41212" lon="6.51027">
        <ele>357.39999389648</ele>
        <time>2017-01-28T13:58:21.000Z</time>
      </trkpt>
      <trkpt lat="43.41197" lon="6.51018">
        <ele>356.79998779297</ele>
        <time>2017-01-28T13:58:28.000Z</time>
      </trkpt>
      <trkpt lat="43.41189" lon="6.51016">
        <ele>356.39999389648</ele>
        <time>2017-01-28T13:58:35.000Z</time>
      </trkpt>
      <trkpt lat="43.41188" lon="6.51014">
        <ele>356.60000610352</ele>
        <time>2017-01-28T13:58:40.000Z</time>
      </trkpt>
      <trkpt lat="43.4119" lon="6.51014">
        <ele>358.20001220703</ele>
        <time>2017-01-28T13:58:45.000Z</time>
      </trkpt>
      <trkpt lat="43.41191" lon="6.51014">
        <ele>358.39999389648</ele>
        <time>2017-01-28T13:58:46.000Z</time>
      </trkpt>
      <trkpt lat="43.41191" lon="6.51014">
        <ele>358.20001220703</ele>
        <time>2017-01-28T13:58:53.000Z</time>
      </trkpt>
      <trkpt lat="43.41192" lon="6.51015">
        <ele>357.60000610352</ele>
        <time>2017-01-28T13:59:13.000Z</time>
      </trkpt>
      <trkpt lat="43.41192" lon="6.51019">
        <ele>357.20001220703</ele>
        <time>2017-01-28T13:59:17.000Z</time>
      </trkpt>
      <trkpt lat="43.41191" lon="6.5102">
        <ele>357</ele>
        <time>2017-01-28T13:59:18.000Z</time>
      </trkpt>
      <trkpt lat="43.41191" lon="6.51021">
        <ele>356.39999389648</ele>
        <time>2017-01-28T13:59:24.000Z</time>
      </trkpt>
      <trkpt lat="43.41191" lon="6.51021">
        <ele>356.20001220703</ele>
        <time>2017-01-28T13:59:25.000Z</time>
      </trkpt>
      <trkpt lat="43.41191" lon="6.51022">
        <ele>357.39999389648</ele>
        <time>2017-01-28T13:59:36.000Z</time>
      </trkpt>
      <trkpt lat="43.41191" lon="6.51019">
        <ele>358.60000610352</ele>
        <time>2017-01-28T13:59:48.000Z</time>
      </trkpt>
      <trkpt lat="43.41191" lon="6.51016">
        <ele>359.60000610352</ele>
        <time>2017-01-28T13:59:52.000Z</time>
      </trkpt>
      <trkpt lat="43.4119" lon="6.51013">
        <ele>358.79998779297</ele>
        <time>2017-01-28T13:59:55.000Z</time>
      </trkpt>
      <trkpt lat="43.4119" lon="6.51012">
        <ele>358.20001220703</ele>
        <time>2017-01-28T13:59:56.000Z</time>
      </trkpt>
      <trkpt lat="43.41188" lon="6.51004">
        <ele>357.39999389648</ele>
        <time>2017-01-28T14:00:02.000Z</time>
      </trkpt>
      <trkpt lat="43.41187" lon="6.51001">
        <ele>358.39999389648</ele>
        <time>2017-01-28T14:00:04.000Z</time>
      </trkpt>
      <trkpt lat="43.41185" lon="6.50999">
        <ele>358.79998779297</ele>
        <time>2017-01-28T14:00:07.000Z</time>
      </trkpt>
      <trkpt lat="43.41184" lon="6.50997">
        <ele>357.79998779297</ele>
        <time>2017-01-28T14:00:13.000Z</time>
      </trkpt>
      <trkpt lat="43.41184" lon="6.50997">
        <ele>356.79998779297</ele>
        <time>2017-01-28T14:00:19.000Z</time>
      </trkpt>
      <trkpt lat="43.41184" lon="6.50997">
        <ele>357.60000610352</ele>
        <time>2017-01-28T14:00:26.000Z</time>
      </trkpt>
      <trkpt lat="43.41184" lon="6.50998">
        <ele>357.20001220703</ele>
        <time>2017-01-28T14:00:35.000Z</time>
      </trkpt>
      <trkpt lat="43.41184" lon="6.50997">
        <ele>355.79998779297</ele>
        <time>2017-01-28T14:00:41.000Z</time>
      </trkpt>
      <trkpt lat="43.41184" lon="6.50997">
        <ele>355.60000610352</ele>
        <time>2017-01-28T14:00:42.000Z</time>
      </trkpt>
      <trkpt lat="43.41185" lon="6.50998">
        <ele>355.60000610352</ele>
        <time>2017-01-28T14:00:48.000Z</time>
      </trkpt>
      <trkpt lat="43.41185" lon="6.50998">
        <ele>354.60000610352</ele>
        <time>2017-01-28T14:00:56.000Z</time>
      </trkpt>
      <trkpt lat="43.41185" lon="6.50998">
        <ele>355.79998779297</ele>
        <time>2017-01-28T14:01:03.000Z</time>
      </trkpt>
      <trkpt lat="43.41185" lon="6.50997">
        <ele>355.79998779297</ele>
        <time>2017-01-28T14:01:09.000Z</time>
      </trkpt>
      <trkpt lat="43.41185" lon="6.50997">
        <ele>355.79998779297</ele>
        <time>2017-01-28T14:01:16.000Z</time>
      </trkpt>
      <trkpt lat="43.41186" lon="6.50997">
        <ele>354.79998779297</ele>
        <time>2017-01-28T14:01:29.000Z</time>
      </trkpt>
      <trkpt lat="43.41185" lon="6.50997">
        <ele>355.39999389648</ele>
        <time>2017-01-28T14:01:41.000Z</time>
      </trkpt>
      <trkpt lat="43.41185" lon="6.50999">
        <ele>355.60000610352</ele>
        <time>2017-01-28T14:01:48.000Z</time>
      </trkpt>
      <trkpt lat="43.41184" lon="6.51">
        <ele>355</ele>
        <time>2017-01-28T14:01:54.000Z</time>
      </trkpt>
      <trkpt lat="43.41186" lon="6.50999">
        <ele>355</ele>
        <time>2017-01-28T14:02:05.000Z</time>
      </trkpt>
      <trkpt lat="43.41186" lon="6.50999">
        <ele>354.39999389648</ele>
        <time>2017-01-28T14:02:06.000Z</time>
      </trkpt>
      <trkpt lat="43.41187" lon="6.50999">
        <ele>353.39999389648</ele>
        <time>2017-01-28T14:02:09.000Z</time>
      </trkpt>
      <trkpt lat="43.41187" lon="6.50999">
        <ele>354.60000610352</ele>
        <time>2017-01-28T14:02:14.000Z</time>
      </trkpt>
      <trkpt lat="43.41187" lon="6.50999">
        <ele>355.39999389648</ele>
        <time>2017-01-28T14:02:17.000Z</time>
      </trkpt>
      <trkpt lat="43.41187" lon="6.50999">
        <ele>355.60000610352</ele>
        <time>2017-01-28T14:02:19.000Z</time>
      </trkpt>
      <trkpt lat="43.41187" lon="6.50998">
        <ele>355.60000610352</ele>
        <time>2017-01-28T14:02:23.000Z</time>
      </trkpt>
      <trkpt lat="43.41187" lon="6.50998">
        <ele>355.60000610352</ele>
        <time>2017-01-28T14:02:31.000Z</time>
      </trkpt>
      <trkpt lat="43.41188" lon="6.50998">
        <ele>355.60000610352</ele>
        <time>2017-01-28T14:02:38.000Z</time>
      </trkpt>
      <trkpt lat="43.41187" lon="6.50998">
        <ele>355.79998779297</ele>
        <time>2017-01-28T14:02:48.000Z</time>
      </trkpt>
      <trkpt lat="43.41188" lon="6.50998">
        <ele>356</ele>
        <time>2017-01-28T14:02:55.000Z</time>
      </trkpt>
      <trkpt lat="43.41188" lon="6.50998">
        <ele>355.60000610352</ele>
        <time>2017-01-28T14:03:04.000Z</time>
      </trkpt>
      <trkpt lat="43.41189" lon="6.50998">
        <ele>355.60000610352</ele>
        <time>2017-01-28T14:03:11.000Z</time>
      </trkpt>
      <trkpt lat="43.41188" lon="6.50998">
        <ele>356.39999389648</ele>
        <time>2017-01-28T14:03:18.000Z</time>
      </trkpt>
      <trkpt lat="43.41188" lon="6.50997">
        <ele>355.79998779297</ele>
        <time>2017-01-28T14:03:24.000Z</time>
      </trkpt>
      <trkpt lat="43.41188" lon="6.50997">
        <ele>356.20001220703</ele>
        <time>2017-01-28T14:03:30.000Z</time>
      </trkpt>
      <trkpt lat="43.41188" lon="6.50998">
        <ele>355</ele>
        <time>2017-01-28T14:03:37.000Z</time>
      </trkpt>
      <trkpt lat="43.41188" lon="6.50999">
        <ele>355.79998779297</ele>
        <time>2017-01-28T14:03:45.000Z</time>
      </trkpt>
      <trkpt lat="43.41188" lon="6.50999">
        <ele>356.60000610352</ele>
        <time>2017-01-28T14:03:50.000Z</time>
      </trkpt>
      <trkpt lat="43.41188" lon="6.50999">
        <ele>356.39999389648</ele>
        <time>2017-01-28T14:03:55.000Z</time>
      </trkpt>
      <trkpt lat="43.41188" lon="6.50998">
        <ele>355.39999389648</ele>
        <time>2017-01-28T14:04:04.000Z</time>
      </trkpt>
      <trkpt lat="43.41188" lon="6.50998">
        <ele>354.39999389648</ele>
        <time>2017-01-28T14:04:09.000Z</time>
      </trkpt>
      <trkpt lat="43.41191" lon="6.50998">
        <ele>354.39999389648</ele>
        <time>2017-01-28T14:04:24.000Z</time>
      </trkpt>
      <trkpt lat="43.41191" lon="6.50998">
        <ele>355</ele>
        <time>2017-01-28T14:04:36.000Z</time>
      </trkpt>
      <trkpt lat="43.41191" lon="6.50999">
        <ele>355.20001220703</ele>
        <time>2017-01-28T14:04:46.000Z</time>
      </trkpt>
      <trkpt lat="43.41191" lon="6.50999">
        <ele>355.20001220703</ele>
        <time>2017-01-28T14:04:51.000Z</time>
      </trkpt>
      <trkpt lat="43.41191" lon="6.50999">
        <ele>354.79998779297</ele>
        <time>2017-01-28T14:04:57.000Z</time>
      </trkpt>
      <trkpt lat="43.4119" lon="6.50998">
        <ele>355.39999389648</ele>
        <time>2017-01-28T14:05:00.000Z</time>
      </trkpt>
      <trkpt lat="43.4119" lon="6.50998">
        <ele>355.79998779297</ele>
        <time>2017-01-28T14:05:02.000Z</time>
      </trkpt>
      <trkpt lat="43.4119" lon="6.50998">
        <ele>356.20001220703</ele>
        <time>2017-01-28T14:05:07.000Z</time>
      </trkpt>
      <trkpt lat="43.41189" lon="6.50998">
        <ele>356</ele>
        <time>2017-01-28T14:05:18.000Z</time>
      </trkpt>
      <trkpt lat="43.41189" lon="6.50999">
        <ele>355</ele>
        <time>2017-01-28T14:05:27.000Z</time>
      </trkpt>
      <trkpt lat="43.41188" lon="6.50998">
        <ele>356.39999389648</ele>
        <time>2017-01-28T14:05:34.000Z</time>
      </trkpt>
      <trkpt lat="43.41188" lon="6.50999">
        <ele>356.60000610352</ele>
        <time>2017-01-28T14:05:35.000Z</time>
      </trkpt>
      <trkpt lat="43.41188" lon="6.50998">
        <ele>356.79998779297</ele>
        <time>2017-01-28T14:05:41.000Z</time>
      </trkpt>
      <trkpt lat="43.41188" lon="6.50998">
        <ele>356.20001220703</ele>
        <time>2017-01-28T14:05:46.000Z</time>
      </trkpt>
      <trkpt lat="43.41188" lon="6.50998">
        <ele>356</ele>
        <time>2017-01-28T14:05:53.000Z</time>
      </trkpt>
      <trkpt lat="43.41188" lon="6.50998">
        <ele>355.39999389648</ele>
        <time>2017-01-28T14:06:02.000Z</time>
      </trkpt>
      <trkpt lat="43.41189" lon="6.51">
        <ele>355</ele>
        <time>2017-01-28T14:06:12.000Z</time>
      </trkpt>
      <trkpt lat="43.41189" lon="6.51">
        <ele>355.60000610352</ele>
        <time>2017-01-28T14:06:20.000Z</time>
      </trkpt>
      <trkpt lat="43.41193" lon="6.51001">
        <ele>356.79998779297</ele>
        <time>2017-01-28T14:06:25.000Z</time>
      </trkpt>
      <trkpt lat="43.41194" lon="6.51001">
        <ele>357.79998779297</ele>
        <time>2017-01-28T14:06:26.000Z</time>
      </trkpt>
      <trkpt lat="43.41194" lon="6.51002">
        <ele>358.39999389648</ele>
        <time>2017-01-28T14:06:27.000Z</time>
      </trkpt>
      <trkpt lat="43.41194" lon="6.51004">
        <ele>358.20001220703</ele>
        <time>2017-01-28T14:06:28.000Z</time>
      </trkpt>
      <trkpt lat="43.41193" lon="6.51005">
        <ele>356</ele>
        <time>2017-01-28T14:06:31.000Z</time>
      </trkpt>
      <trkpt lat="43.41193" lon="6.51005">
        <ele>355.79998779297</ele>
        <time>2017-01-28T14:06:32.000Z</time>
      </trkpt>
      <trkpt lat="43.41193" lon="6.5101">
        <ele>355.39999389648</ele>
        <time>2017-01-28T14:06:39.000Z</time>
      </trkpt>
      <trkpt lat="43.41193" lon="6.51011">
        <ele>354.79998779297</ele>
        <time>2017-01-28T14:06:40.000Z</time>
      </trkpt>
      <trkpt lat="43.41193" lon="6.51016">
        <ele>355</ele>
        <time>2017-01-28T14:06:44.000Z</time>
      </trkpt>
      <trkpt lat="43.41193" lon="6.51017">
        <ele>354.60000610352</ele>
        <time>2017-01-28T14:06:48.000Z</time>
      </trkpt>
      <trkpt lat="43.41194" lon="6.51016">
        <ele>356.20001220703</ele>
        <time>2017-01-28T14:06:51.000Z</time>
      </trkpt>
      <trkpt lat="43.41197" lon="6.51016">
        <ele>357</ele>
        <time>2017-01-28T14:06:53.000Z</time>
      </trkpt>
      <trkpt lat="43.41198" lon="6.51014">
        <ele>357</ele>
        <time>2017-01-28T14:06:54.000Z</time>
      </trkpt>
      <trkpt lat="43.41201" lon="6.51009">
        <ele>356.79998779297</ele>
        <time>2017-01-28T14:06:58.000Z</time>
      </trkpt>
      <trkpt lat="43.41202" lon="6.51005">
        <ele>356.60000610352</ele>
        <time>2017-01-28T14:07:00.000Z</time>
      </trkpt>
      <trkpt lat="43.41204" lon="6.50999">
        <ele>356</ele>
        <time>2017-01-28T14:07:03.000Z</time>
      </trkpt>
      <trkpt lat="43.41205" lon="6.50996">
        <ele>356</ele>
        <time>2017-01-28T14:07:04.000Z</time>
      </trkpt>
      <trkpt lat="43.4121" lon="6.50987">
        <ele>355.79998779297</ele>
        <time>2017-01-28T14:07:08.000Z</time>
      </trkpt>
      <trkpt lat="43.41219" lon="6.50973">
        <ele>355.60000610352</ele>
        <time>2017-01-28T14:07:14.000Z</time>
      </trkpt>
      <trkpt lat="43.41228" lon="6.50959">
        <ele>355.39999389648</ele>
        <time>2017-01-28T14:07:20.000Z</time>
      </trkpt>
      <trkpt lat="43.41235" lon="6.50962">
        <ele>355.60000610352</ele>
        <time>2017-01-28T14:07:24.000Z</time>
      </trkpt>
      <trkpt lat="43.41239" lon="6.50963">
        <ele>355.20001220703</ele>
        <time>2017-01-28T14:07:26.000Z</time>
      </trkpt>
      <trkpt lat="43.41247" lon="6.50966">
        <ele>354.39999389648</ele>
        <time>2017-01-28T14:07:30.000Z</time>
      </trkpt>
      <trkpt lat="43.41249" lon="6.50968">
        <ele>354.20001220703</ele>
        <time>2017-01-28T14:07:31.000Z</time>
      </trkpt>
      <trkpt lat="43.41259" lon="6.50973">
        <ele>353.20001220703</ele>
        <time>2017-01-28T14:07:35.000Z</time>
      </trkpt>
      <trkpt lat="43.41262" lon="6.50976">
        <ele>353</ele>
        <time>2017-01-28T14:07:36.000Z</time>
      </trkpt>
      <trkpt lat="43.41276" lon="6.50984">
        <ele>351.79998779297</ele>
        <time>2017-01-28T14:07:41.000Z</time>
      </trkpt>
      <trkpt lat="43.41281" lon="6.5098">
        <ele>351.39999389648</ele>
        <time>2017-01-28T14:07:43.000Z</time>
      </trkpt>
      <trkpt lat="43.41285" lon="6.50974">
        <ele>351.39999389648</ele>
        <time>2017-01-28T14:07:45.000Z</time>
      </trkpt>
      <trkpt lat="43.41296" lon="6.5097">
        <ele>351</ele>
        <time>2017-01-28T14:07:48.000Z</time>
      </trkpt>
      <trkpt lat="43.41299" lon="6.50967">
        <ele>350.79998779297</ele>
        <time>2017-01-28T14:07:49.000Z</time>
      </trkpt>
      <trkpt lat="43.4131" lon="6.50965">
        <ele>350</ele>
        <time>2017-01-28T14:07:52.000Z</time>
      </trkpt>
      <trkpt lat="43.41312" lon="6.50968">
        <ele>349.79998779297</ele>
        <time>2017-01-28T14:07:53.000Z</time>
      </trkpt>
      <trkpt lat="43.41315" lon="6.5097">
        <ele>349.60000610352</ele>
        <time>2017-01-28T14:07:54.000Z</time>
      </trkpt>
      <trkpt lat="43.41323" lon="6.5097">
        <ele>349.39999389648</ele>
        <time>2017-01-28T14:07:57.000Z</time>
      </trkpt>
      <trkpt lat="43.41328" lon="6.50964">
        <ele>349.60000610352</ele>
        <time>2017-01-28T14:07:59.000Z</time>
      </trkpt>
      <trkpt lat="43.41339" lon="6.50954">
        <ele>349.60000610352</ele>
        <time>2017-01-28T14:08:03.000Z</time>
      </trkpt>
      <trkpt lat="43.41342" lon="6.50948">
        <ele>350</ele>
        <time>2017-01-28T14:08:07.000Z</time>
      </trkpt>
      <trkpt lat="43.41346" lon="6.50936">
        <ele>349.20001220703</ele>
        <time>2017-01-28T14:08:12.000Z</time>
      </trkpt>
      <trkpt lat="43.41346" lon="6.50932">
        <ele>348.60000610352</ele>
        <time>2017-01-28T14:08:13.000Z</time>
      </trkpt>
      <trkpt lat="43.41344" lon="6.50925">
        <ele>347.60000610352</ele>
        <time>2017-01-28T14:08:15.000Z</time>
      </trkpt>
      <trkpt lat="43.41343" lon="6.5092">
        <ele>347.20001220703</ele>
        <time>2017-01-28T14:08:16.000Z</time>
      </trkpt>
      <trkpt lat="43.41346" lon="6.50905">
        <ele>346.20001220703</ele>
        <time>2017-01-28T14:08:19.000Z</time>
      </trkpt>
      <trkpt lat="43.41347" lon="6.509">
        <ele>346</ele>
        <time>2017-01-28T14:08:20.000Z</time>
      </trkpt>
      <trkpt lat="43.41354" lon="6.50883">
        <ele>344.39999389648</ele>
        <time>2017-01-28T14:08:23.000Z</time>
      </trkpt>
      <trkpt lat="43.41356" lon="6.50877">
        <ele>344</ele>
        <time>2017-01-28T14:08:24.000Z</time>
      </trkpt>
      <trkpt lat="43.41357" lon="6.50866">
        <ele>343.20001220703</ele>
        <time>2017-01-28T14:08:26.000Z</time>
      </trkpt>
      <trkpt lat="43.41358" lon="6.50861">
        <ele>342.60000610352</ele>
        <time>2017-01-28T14:08:27.000Z</time>
      </trkpt>
      <trkpt lat="43.41359" lon="6.50854">
        <ele>341.79998779297</ele>
        <time>2017-01-28T14:08:29.000Z</time>
      </trkpt>
      <trkpt lat="43.41359" lon="6.50846">
        <ele>340.79998779297</ele>
        <time>2017-01-28T14:08:31.000Z</time>
      </trkpt>
      <trkpt lat="43.41359" lon="6.50841">
        <ele>340.20001220703</ele>
        <time>2017-01-28T14:08:32.000Z</time>
      </trkpt>
      <trkpt lat="43.41366" lon="6.50828">
        <ele>338.79998779297</ele>
        <time>2017-01-28T14:08:35.000Z</time>
      </trkpt>
      <trkpt lat="43.41373" lon="6.50823">
        <ele>337.60000610352</ele>
        <time>2017-01-28T14:08:37.000Z</time>
      </trkpt>
      <trkpt lat="43.41381" lon="6.5082">
        <ele>337.39999389648</ele>
        <time>2017-01-28T14:08:39.000Z</time>
      </trkpt>
      <trkpt lat="43.41384" lon="6.50819">
        <ele>337</ele>
        <time>2017-01-28T14:08:40.000Z</time>
      </trkpt>
      <trkpt lat="43.41386" lon="6.50815">
        <ele>336.79998779297</ele>
        <time>2017-01-28T14:08:41.000Z</time>
      </trkpt>
      <trkpt lat="43.41389" lon="6.50813">
        <ele>336.60000610352</ele>
        <time>2017-01-28T14:08:42.000Z</time>
      </trkpt>
      <trkpt lat="43.41404" lon="6.50797">
        <ele>335.60000610352</ele>
        <time>2017-01-28T14:08:46.000Z</time>
      </trkpt>
      <trkpt lat="43.41409" lon="6.5079">
        <ele>335.39999389648</ele>
        <time>2017-01-28T14:08:48.000Z</time>
      </trkpt>
      <trkpt lat="43.41414" lon="6.50783">
        <ele>333.60000610352</ele>
        <time>2017-01-28T14:08:50.000Z</time>
      </trkpt>
      <trkpt lat="43.41415" lon="6.50782">
        <ele>332</ele>
        <time>2017-01-28T14:08:51.000Z</time>
      </trkpt>
      <trkpt lat="43.41416" lon="6.50781">
        <ele>331</ele>
        <time>2017-01-28T14:08:52.000Z</time>
      </trkpt>
      <trkpt lat="43.41418" lon="6.5078">
        <ele>330.39999389648</ele>
        <time>2017-01-28T14:08:53.000Z</time>
      </trkpt>
      <trkpt lat="43.41421" lon="6.5078">
        <ele>329.60000610352</ele>
        <time>2017-01-28T14:08:54.000Z</time>
      </trkpt>
      <trkpt lat="43.41424" lon="6.5078">
        <ele>329.39999389648</ele>
        <time>2017-01-28T14:08:55.000Z</time>
      </trkpt>
      <trkpt lat="43.41435" lon="6.50777">
        <ele>328.39999389648</ele>
        <time>2017-01-28T14:08:58.000Z</time>
      </trkpt>
      <trkpt lat="43.41439" lon="6.50776">
        <ele>328</ele>
        <time>2017-01-28T14:08:59.000Z</time>
      </trkpt>
      <trkpt lat="43.41447" lon="6.50776">
        <ele>327.20001220703</ele>
        <time>2017-01-28T14:09:01.000Z</time>
      </trkpt>
      <trkpt lat="43.41455" lon="6.50777">
        <ele>326.79998779297</ele>
        <time>2017-01-28T14:09:03.000Z</time>
      </trkpt>
      <trkpt lat="43.41462" lon="6.50782">
        <ele>326.39999389648</ele>
        <time>2017-01-28T14:09:05.000Z</time>
      </trkpt>
      <trkpt lat="43.41466" lon="6.50784">
        <ele>325.79998779297</ele>
        <time>2017-01-28T14:09:06.000Z</time>
      </trkpt>
      <trkpt lat="43.41472" lon="6.50785">
        <ele>324.20001220703</ele>
        <time>2017-01-28T14:09:08.000Z</time>
      </trkpt>
      <trkpt lat="43.41476" lon="6.50783">
        <ele>323</ele>
        <time>2017-01-28T14:09:09.000Z</time>
      </trkpt>
      <trkpt lat="43.41483" lon="6.50779">
        <ele>321.79998779297</ele>
        <time>2017-01-28T14:09:11.000Z</time>
      </trkpt>
      <trkpt lat="43.41486" lon="6.50777">
        <ele>321.20001220703</ele>
        <time>2017-01-28T14:09:12.000Z</time>
      </trkpt>
      <trkpt lat="43.41493" lon="6.50772">
        <ele>320.39999389648</ele>
        <time>2017-01-28T14:09:14.000Z</time>
      </trkpt>
      <trkpt lat="43.415" lon="6.50766">
        <ele>320.20001220703</ele>
        <time>2017-01-28T14:09:16.000Z</time>
      </trkpt>
      <trkpt lat="43.41507" lon="6.50762">
        <ele>319.39999389648</ele>
        <time>2017-01-28T14:09:18.000Z</time>
      </trkpt>
      <trkpt lat="43.41512" lon="6.50761">
        <ele>319.20001220703</ele>
        <time>2017-01-28T14:09:19.000Z</time>
      </trkpt>
      <trkpt lat="43.41517" lon="6.50759">
        <ele>319</ele>
        <time>2017-01-28T14:09:20.000Z</time>
      </trkpt>
      <trkpt lat="43.41531" lon="6.50748">
        <ele>318.39999389648</ele>
        <time>2017-01-28T14:09:23.000Z</time>
      </trkpt>
      <trkpt lat="43.41536" lon="6.50745">
        <ele>318.20001220703</ele>
        <time>2017-01-28T14:09:24.000Z</time>
      </trkpt>
      <trkpt lat="43.4154" lon="6.50742">
        <ele>317.60000610352</ele>
        <time>2017-01-28T14:09:25.000Z</time>
      </trkpt>
      <trkpt lat="43.41552" lon="6.50736">
        <ele>316.39999389648</ele>
        <time>2017-01-28T14:09:28.000Z</time>
      </trkpt>
      <trkpt lat="43.41555" lon="6.50734">
        <ele>315.79998779297</ele>
        <time>2017-01-28T14:09:29.000Z</time>
      </trkpt>
      <trkpt lat="43.41571" lon="6.50725">
        <ele>315.79998779297</ele>
        <time>2017-01-28T14:09:33.000Z</time>
      </trkpt>
      <trkpt lat="43.41579" lon="6.5072">
        <ele>315.39999389648</ele>
        <time>2017-01-28T14:09:35.000Z</time>
      </trkpt>
      <trkpt lat="43.41578" lon="6.50718">
        <ele>314.79998779297</ele>
        <time>2017-01-28T14:09:36.000Z</time>
      </trkpt>
      <trkpt lat="43.41579" lon="6.50715">
        <ele>313.79998779297</ele>
        <time>2017-01-28T14:09:37.000Z</time>
      </trkpt>
      <trkpt lat="43.41583" lon="6.50704">
        <ele>312.79998779297</ele>
        <time>2017-01-28T14:09:39.000Z</time>
      </trkpt>
      <trkpt lat="43.41584" lon="6.50698">
        <ele>311.79998779297</ele>
        <time>2017-01-28T14:09:40.000Z</time>
      </trkpt>
      <trkpt lat="43.41585" lon="6.50692">
        <ele>311.20001220703</ele>
        <time>2017-01-28T14:09:41.000Z</time>
      </trkpt>
      <trkpt lat="43.41586" lon="6.50688">
        <ele>309.60000610352</ele>
        <time>2017-01-28T14:09:42.000Z</time>
      </trkpt>
      <trkpt lat="43.41589" lon="6.50686">
        <ele>308.60000610352</ele>
        <time>2017-01-28T14:09:43.000Z</time>
      </trkpt>
      <trkpt lat="43.41592" lon="6.50685">
        <ele>307.79998779297</ele>
        <time>2017-01-28T14:09:44.000Z</time>
      </trkpt>
      <trkpt lat="43.41599" lon="6.50685">
        <ele>306</ele>
        <time>2017-01-28T14:09:46.000Z</time>
      </trkpt>
      <trkpt lat="43.41603" lon="6.50684">
        <ele>305.79998779297</ele>
        <time>2017-01-28T14:09:47.000Z</time>
      </trkpt>
      <trkpt lat="43.41613" lon="6.5068">
        <ele>304.79998779297</ele>
        <time>2017-01-28T14:09:50.000Z</time>
      </trkpt>
      <trkpt lat="43.41615" lon="6.50679">
        <ele>304.39999389648</ele>
        <time>2017-01-28T14:09:51.000Z</time>
      </trkpt>
      <trkpt lat="43.4162" lon="6.50676">
        <ele>303.39999389648</ele>
        <time>2017-01-28T14:09:53.000Z</time>
      </trkpt>
      <trkpt lat="43.41622" lon="6.50672">
        <ele>302.79998779297</ele>
        <time>2017-01-28T14:09:54.000Z</time>
      </trkpt>
      <trkpt lat="43.41625" lon="6.50668">
        <ele>302.39999389648</ele>
        <time>2017-01-28T14:09:55.000Z</time>
      </trkpt>
      <trkpt lat="43.41626" lon="6.50662">
        <ele>302</ele>
        <time>2017-01-28T14:09:56.000Z</time>
      </trkpt>
      <trkpt lat="43.41632" lon="6.50656">
        <ele>301.20001220703</ele>
        <time>2017-01-28T14:09:58.000Z</time>
      </trkpt>
      <trkpt lat="43.41636" lon="6.50655">
        <ele>300.79998779297</ele>
        <time>2017-01-28T14:09:59.000Z</time>
      </trkpt>
      <trkpt lat="43.41644" lon="6.50652">
        <ele>298.79998779297</ele>
        <time>2017-01-28T14:10:01.000Z</time>
      </trkpt>
      <trkpt lat="43.41646" lon="6.50647">
        <ele>297.79998779297</ele>
        <time>2017-01-28T14:10:02.000Z</time>
      </trkpt>
      <trkpt lat="43.41649" lon="6.50643">
        <ele>296.60000610352</ele>
        <time>2017-01-28T14:10:03.000Z</time>
      </trkpt>
      <trkpt lat="43.41652" lon="6.50639">
        <ele>295.20001220703</ele>
        <time>2017-01-28T14:10:04.000Z</time>
      </trkpt>
      <trkpt lat="43.41655" lon="6.50637">
        <ele>294.79998779297</ele>
        <time>2017-01-28T14:10:05.000Z</time>
      </trkpt>
      <trkpt lat="43.41657" lon="6.50635">
        <ele>293.60000610352</ele>
        <time>2017-01-28T14:10:06.000Z</time>
      </trkpt>
      <trkpt lat="43.41662" lon="6.5063">
        <ele>292</ele>
        <time>2017-01-28T14:10:08.000Z</time>
      </trkpt>
      <trkpt lat="43.41666" lon="6.50628">
        <ele>291.39999389648</ele>
        <time>2017-01-28T14:10:09.000Z</time>
      </trkpt>
      <trkpt lat="43.41669" lon="6.50626">
        <ele>290.79998779297</ele>
        <time>2017-01-28T14:10:10.000Z</time>
      </trkpt>
      <trkpt lat="43.41677" lon="6.50621">
        <ele>289.39999389648</ele>
        <time>2017-01-28T14:10:12.000Z</time>
      </trkpt>
      <trkpt lat="43.41681" lon="6.50618">
        <ele>288.79998779297</ele>
        <time>2017-01-28T14:10:13.000Z</time>
      </trkpt>
      <trkpt lat="43.41684" lon="6.50613">
        <ele>288.39999389648</ele>
        <time>2017-01-28T14:10:14.000Z</time>
      </trkpt>
      <trkpt lat="43.41688" lon="6.50611">
        <ele>288.20001220703</ele>
        <time>2017-01-28T14:10:15.000Z</time>
      </trkpt>
      <trkpt lat="43.41694" lon="6.5061">
        <ele>287.60000610352</ele>
        <time>2017-01-28T14:10:17.000Z</time>
      </trkpt>
      <trkpt lat="43.41697" lon="6.50609">
        <ele>286.79998779297</ele>
        <time>2017-01-28T14:10:18.000Z</time>
      </trkpt>
      <trkpt lat="43.41702" lon="6.50607">
        <ele>285.20001220703</ele>
        <time>2017-01-28T14:10:20.000Z</time>
      </trkpt>
      <trkpt lat="43.41705" lon="6.50605">
        <ele>284.60000610352</ele>
        <time>2017-01-28T14:10:21.000Z</time>
      </trkpt>
      <trkpt lat="43.41709" lon="6.50605">
        <ele>283.79998779297</ele>
        <time>2017-01-28T14:10:24.000Z</time>
      </trkpt>
      <trkpt lat="43.41709" lon="6.50605">
        <ele>282.60000610352</ele>
        <time>2017-01-28T14:10:27.000Z</time>
      </trkpt>
      <trkpt lat="43.41709" lon="6.50605">
        <ele>282.20001220703</ele>
        <time>2017-01-28T14:10:32.000Z</time>
      </trkpt>
      <trkpt lat="43.41709" lon="6.50605">
        <ele>281.79998779297</ele>
        <time>2017-01-28T14:10:38.000Z</time>
      </trkpt>
      <trkpt lat="43.4171" lon="6.50604">
        <ele>282.39999389648</ele>
        <time>2017-01-28T14:10:45.000Z</time>
      </trkpt>
      <trkpt lat="43.41713" lon="6.50602">
        <ele>282.20001220703</ele>
        <time>2017-01-28T14:10:47.000Z</time>
      </trkpt>
      <trkpt lat="43.41721" lon="6.50598">
        <ele>282.20001220703</ele>
        <time>2017-01-28T14:10:51.000Z</time>
      </trkpt>
      <trkpt lat="43.41721" lon="6.50597">
        <ele>281.79998779297</ele>
        <time>2017-01-28T14:10:55.000Z</time>
      </trkpt>
      <trkpt lat="43.41721" lon="6.50597">
        <ele>281.39999389648</ele>
        <time>2017-01-28T14:10:58.000Z</time>
      </trkpt>
      <trkpt lat="43.41722" lon="6.50597">
        <ele>280.60000610352</ele>
        <time>2017-01-28T14:11:01.000Z</time>
      </trkpt>
      <trkpt lat="43.41726" lon="6.50594">
        <ele>281.79998779297</ele>
        <time>2017-01-28T14:11:05.000Z</time>
      </trkpt>
      <trkpt lat="43.41731" lon="6.50592">
        <ele>281.60000610352</ele>
        <time>2017-01-28T14:11:09.000Z</time>
      </trkpt>
      <trkpt lat="43.41732" lon="6.50592">
        <ele>281.60000610352</ele>
        <time>2017-01-28T14:11:10.000Z</time>
      </trkpt>
      <trkpt lat="43.41739" lon="6.50594">
        <ele>281</ele>
        <time>2017-01-28T14:11:14.000Z</time>
      </trkpt>
      <trkpt lat="43.41749" lon="6.50592">
        <ele>280.20001220703</ele>
        <time>2017-01-28T14:11:17.000Z</time>
      </trkpt>
      <trkpt lat="43.41759" lon="6.5059">
        <ele>280</ele>
        <time>2017-01-28T14:11:19.000Z</time>
      </trkpt>
      <trkpt lat="43.41783" lon="6.50589">
        <ele>280</ele>
        <time>2017-01-28T14:11:23.000Z</time>
      </trkpt>
      <trkpt lat="43.4179" lon="6.50589">
        <ele>279.60000610352</ele>
        <time>2017-01-28T14:11:24.000Z</time>
      </trkpt>
      <trkpt lat="43.41795" lon="6.50589">
        <ele>279.20001220703</ele>
        <time>2017-01-28T14:11:25.000Z</time>
      </trkpt>
      <trkpt lat="43.41801" lon="6.50589">
        <ele>278.39999389648</ele>
        <time>2017-01-28T14:11:26.000Z</time>
      </trkpt>
      <trkpt lat="43.41806" lon="6.50591">
        <ele>277.20001220703</ele>
        <time>2017-01-28T14:11:27.000Z</time>
      </trkpt>
      <trkpt lat="43.41811" lon="6.50591">
        <ele>276.39999389648</ele>
        <time>2017-01-28T14:11:28.000Z</time>
      </trkpt>
      <trkpt lat="43.41815" lon="6.5059">
        <ele>276</ele>
        <time>2017-01-28T14:11:29.000Z</time>
      </trkpt>
      <trkpt lat="43.41825" lon="6.50586">
        <ele>274.79998779297</ele>
        <time>2017-01-28T14:11:31.000Z</time>
      </trkpt>
      <trkpt lat="43.4184" lon="6.50592">
        <ele>274.39999389648</ele>
        <time>2017-01-28T14:11:34.000Z</time>
      </trkpt>
      <trkpt lat="43.41845" lon="6.50593">
        <ele>274.20001220703</ele>
        <time>2017-01-28T14:11:35.000Z</time>
      </trkpt>
      <trkpt lat="43.41857" lon="6.50598">
        <ele>273.20001220703</ele>
        <time>2017-01-28T14:11:37.000Z</time>
      </trkpt>
      <trkpt lat="43.41862" lon="6.506">
        <ele>272.39999389648</ele>
        <time>2017-01-28T14:11:38.000Z</time>
      </trkpt>
      <trkpt lat="43.41868" lon="6.50602">
        <ele>271.60000610352</ele>
        <time>2017-01-28T14:11:39.000Z</time>
      </trkpt>
      <trkpt lat="43.41879" lon="6.50606">
        <ele>270.39999389648</ele>
        <time>2017-01-28T14:11:41.000Z</time>
      </trkpt>
      <trkpt lat="43.4189" lon="6.50608">
        <ele>270</ele>
        <time>2017-01-28T14:11:43.000Z</time>
      </trkpt>
      <trkpt lat="43.41896" lon="6.50609">
        <ele>269.60000610352</ele>
        <time>2017-01-28T14:11:44.000Z</time>
      </trkpt>
      <trkpt lat="43.41901" lon="6.50611">
        <ele>269.20001220703</ele>
        <time>2017-01-28T14:11:45.000Z</time>
      </trkpt>
      <trkpt lat="43.41912" lon="6.50617">
        <ele>268.60000610352</ele>
        <time>2017-01-28T14:11:47.000Z</time>
      </trkpt>
      <trkpt lat="43.41923" lon="6.50621">
        <ele>268.20001220703</ele>
        <time>2017-01-28T14:11:49.000Z</time>
      </trkpt>
      <trkpt lat="43.41929" lon="6.50622">
        <ele>268</ele>
        <time>2017-01-28T14:11:50.000Z</time>
      </trkpt>
      <trkpt lat="43.4194" lon="6.50621">
        <ele>267.60000610352</ele>
        <time>2017-01-28T14:11:52.000Z</time>
      </trkpt>
      <trkpt lat="43.4196" lon="6.5062">
        <ele>267.20001220703</ele>
        <time>2017-01-28T14:11:56.000Z</time>
      </trkpt>
      <trkpt lat="43.41964" lon="6.50621">
        <ele>267</ele>
        <time>2017-01-28T14:11:57.000Z</time>
      </trkpt>
      <trkpt lat="43.41975" lon="6.50627">
        <ele>267</ele>
        <time>2017-01-28T14:12:00.000Z</time>
      </trkpt>
      <trkpt lat="43.41981" lon="6.50624">
        <ele>267.39999389648</ele>
        <time>2017-01-28T14:12:02.000Z</time>
      </trkpt>
      <trkpt lat="43.41987" lon="6.50621">
        <ele>268.39999389648</ele>
        <time>2017-01-28T14:12:04.000Z</time>
      </trkpt>
      <trkpt lat="43.41996" lon="6.50616">
        <ele>269.39999389648</ele>
        <time>2017-01-28T14:12:07.000Z</time>
      </trkpt>
      <trkpt lat="43.42008" lon="6.50611">
        <ele>269</ele>
        <time>2017-01-28T14:12:11.000Z</time>
      </trkpt>
      <trkpt lat="43.4202" lon="6.5061">
        <ele>270.79998779297</ele>
        <time>2017-01-28T14:12:16.000Z</time>
      </trkpt>
      <trkpt lat="43.42022" lon="6.5061">
        <ele>271.60000610352</ele>
        <time>2017-01-28T14:12:17.000Z</time>
      </trkpt>
      <trkpt lat="43.42024" lon="6.5061">
        <ele>272</ele>
        <time>2017-01-28T14:12:18.000Z</time>
      </trkpt>
      <trkpt lat="43.42028" lon="6.50611">
        <ele>273</ele>
        <time>2017-01-28T14:12:20.000Z</time>
      </trkpt>
      <trkpt lat="43.42029" lon="6.50613">
        <ele>273.39999389648</ele>
        <time>2017-01-28T14:12:21.000Z</time>
      </trkpt>
      <trkpt lat="43.42032" lon="6.50615">
        <ele>274.39999389648</ele>
        <time>2017-01-28T14:12:23.000Z</time>
      </trkpt>
      <trkpt lat="43.42034" lon="6.50616">
        <ele>275</ele>
        <time>2017-01-28T14:12:24.000Z</time>
      </trkpt>
      <trkpt lat="43.42035" lon="6.50617">
        <ele>275.20001220703</ele>
        <time>2017-01-28T14:12:25.000Z</time>
      </trkpt>
      <trkpt lat="43.42037" lon="6.50617">
        <ele>275.39999389648</ele>
        <time>2017-01-28T14:12:26.000Z</time>
      </trkpt>
      <trkpt lat="43.42039" lon="6.50617">
        <ele>275.60000610352</ele>
        <time>2017-01-28T14:12:27.000Z</time>
      </trkpt>
      <trkpt lat="43.42044" lon="6.50619">
        <ele>275.39999389648</ele>
        <time>2017-01-28T14:12:29.000Z</time>
      </trkpt>
      <trkpt lat="43.42053" lon="6.50621">
        <ele>275.39999389648</ele>
        <time>2017-01-28T14:12:33.000Z</time>
      </trkpt>
      <trkpt lat="43.42066" lon="6.50619">
        <ele>276.20001220703</ele>
        <time>2017-01-28T14:12:38.000Z</time>
      </trkpt>
      <trkpt lat="43.4208" lon="6.50616">
        <ele>275.39999389648</ele>
        <time>2017-01-28T14:12:43.000Z</time>
      </trkpt>
      <trkpt lat="43.4209" lon="6.50608">
        <ele>275.20001220703</ele>
        <time>2017-01-28T14:12:47.000Z</time>
      </trkpt>
      <trkpt lat="43.42101" lon="6.50597">
        <ele>274.20001220703</ele>
        <time>2017-01-28T14:12:51.000Z</time>
      </trkpt>
      <trkpt lat="43.42114" lon="6.50596">
        <ele>273</ele>
        <time>2017-01-28T14:12:55.000Z</time>
      </trkpt>
      <trkpt lat="43.42122" lon="6.50589">
        <ele>271.79998779297</ele>
        <time>2017-01-28T14:12:58.000Z</time>
      </trkpt>
      <trkpt lat="43.42125" lon="6.50589">
        <ele>271</ele>
        <time>2017-01-28T14:12:59.000Z</time>
      </trkpt>
      <trkpt lat="43.42128" lon="6.50589">
        <ele>270</ele>
        <time>2017-01-28T14:13:00.000Z</time>
      </trkpt>
      <trkpt lat="43.42135" lon="6.50592">
        <ele>268</ele>
        <time>2017-01-28T14:13:02.000Z</time>
      </trkpt>
      <trkpt lat="43.42138" lon="6.50593">
        <ele>267</ele>
        <time>2017-01-28T14:13:03.000Z</time>
      </trkpt>
      <trkpt lat="43.42141" lon="6.50592">
        <ele>266</ele>
        <time>2017-01-28T14:13:04.000Z</time>
      </trkpt>
      <trkpt lat="43.42147" lon="6.50595">
        <ele>264.60000610352</ele>
        <time>2017-01-28T14:13:06.000Z</time>
      </trkpt>
      <trkpt lat="43.42151" lon="6.50596">
        <ele>263.60000610352</ele>
        <time>2017-01-28T14:13:07.000Z</time>
      </trkpt>
      <trkpt lat="43.42155" lon="6.50597">
        <ele>263.20001220703</ele>
        <time>2017-01-28T14:13:08.000Z</time>
      </trkpt>
      <trkpt lat="43.42164" lon="6.50597">
        <ele>261.79998779297</ele>
        <time>2017-01-28T14:13:10.000Z</time>
      </trkpt>
      <trkpt lat="43.42169" lon="6.50597">
        <ele>260.79998779297</ele>
        <time>2017-01-28T14:13:11.000Z</time>
      </trkpt>
      <trkpt lat="43.42174" lon="6.50599">
        <ele>260</ele>
        <time>2017-01-28T14:13:12.000Z</time>
      </trkpt>
      <trkpt lat="43.42178" lon="6.50601">
        <ele>259</ele>
        <time>2017-01-28T14:13:13.000Z</time>
      </trkpt>
      <trkpt lat="43.42183" lon="6.50603">
        <ele>258</ele>
        <time>2017-01-28T14:13:14.000Z</time>
      </trkpt>
      <trkpt lat="43.42188" lon="6.50604">
        <ele>257.20001220703</ele>
        <time>2017-01-28T14:13:15.000Z</time>
      </trkpt>
      <trkpt lat="43.42194" lon="6.50604">
        <ele>256.20001220703</ele>
        <time>2017-01-28T14:13:16.000Z</time>
      </trkpt>
      <trkpt lat="43.42199" lon="6.50603">
        <ele>255</ele>
        <time>2017-01-28T14:13:17.000Z</time>
      </trkpt>
      <trkpt lat="43.42205" lon="6.50601">
        <ele>253.80000305176</ele>
        <time>2017-01-28T14:13:18.000Z</time>
      </trkpt>
      <trkpt lat="43.42213" lon="6.50599">
        <ele>251.80000305176</ele>
        <time>2017-01-28T14:13:20.000Z</time>
      </trkpt>
      <trkpt lat="43.42217" lon="6.50597">
        <ele>250.80000305176</ele>
        <time>2017-01-28T14:13:21.000Z</time>
      </trkpt>
      <trkpt lat="43.42224" lon="6.50597">
        <ele>249.60000610352</ele>
        <time>2017-01-28T14:13:23.000Z</time>
      </trkpt>
      <trkpt lat="43.4224" lon="6.50595">
        <ele>248.19999694824</ele>
        <time>2017-01-28T14:13:27.000Z</time>
      </trkpt>
      <trkpt lat="43.42254" lon="6.50585">
        <ele>247</ele>
        <time>2017-01-28T14:13:30.000Z</time>
      </trkpt>
      <trkpt lat="43.4226" lon="6.50581">
        <ele>246.19999694824</ele>
        <time>2017-01-28T14:13:31.000Z</time>
      </trkpt>
      <trkpt lat="43.42267" lon="6.50577">
        <ele>245.39999389648</ele>
        <time>2017-01-28T14:13:32.000Z</time>
      </trkpt>
      <trkpt lat="43.42273" lon="6.50572">
        <ele>244.39999389648</ele>
        <time>2017-01-28T14:13:33.000Z</time>
      </trkpt>
      <trkpt lat="43.42286" lon="6.50563">
        <ele>243</ele>
        <time>2017-01-28T14:13:35.000Z</time>
      </trkpt>
      <trkpt lat="43.42293" lon="6.50558">
        <ele>241.60000610352</ele>
        <time>2017-01-28T14:13:36.000Z</time>
      </trkpt>
      <trkpt lat="43.423" lon="6.50554">
        <ele>240.80000305176</ele>
        <time>2017-01-28T14:13:37.000Z</time>
      </trkpt>
      <trkpt lat="43.42308" lon="6.50552">
        <ele>239.80000305176</ele>
        <time>2017-01-28T14:13:38.000Z</time>
      </trkpt>
      <trkpt lat="43.42322" lon="6.50546">
        <ele>237.80000305176</ele>
        <time>2017-01-28T14:13:40.000Z</time>
      </trkpt>
      <trkpt lat="43.42329" lon="6.50542">
        <ele>236.39999389648</ele>
        <time>2017-01-28T14:13:41.000Z</time>
      </trkpt>
      <trkpt lat="43.42335" lon="6.50538">
        <ele>235.60000610352</ele>
        <time>2017-01-28T14:13:42.000Z</time>
      </trkpt>
      <trkpt lat="43.42341" lon="6.50535">
        <ele>234.80000305176</ele>
        <time>2017-01-28T14:13:43.000Z</time>
      </trkpt>
      <trkpt lat="43.4235" lon="6.50537">
        <ele>234.39999389648</ele>
        <time>2017-01-28T14:13:45.000Z</time>
      </trkpt>
      <trkpt lat="43.4236" lon="6.50544">
        <ele>233.80000305176</ele>
        <time>2017-01-28T14:13:48.000Z</time>
      </trkpt>
      <trkpt lat="43.42363" lon="6.50545">
        <ele>233.39999389648</ele>
        <time>2017-01-28T14:13:49.000Z</time>
      </trkpt>
      <trkpt lat="43.42367" lon="6.50547">
        <ele>233.19999694824</ele>
        <time>2017-01-28T14:13:50.000Z</time>
      </trkpt>
      <trkpt lat="43.42376" lon="6.5055">
        <ele>232.80000305176</ele>
        <time>2017-01-28T14:13:52.000Z</time>
      </trkpt>
      <trkpt lat="43.4238" lon="6.50551">
        <ele>232.39999389648</ele>
        <time>2017-01-28T14:13:53.000Z</time>
      </trkpt>
      <trkpt lat="43.42387" lon="6.50554">
        <ele>231.39999389648</ele>
        <time>2017-01-28T14:13:55.000Z</time>
      </trkpt>
      <trkpt lat="43.42394" lon="6.50556">
        <ele>230</ele>
        <time>2017-01-28T14:13:57.000Z</time>
      </trkpt>
      <trkpt lat="43.42398" lon="6.50557">
        <ele>229.39999389648</ele>
        <time>2017-01-28T14:13:58.000Z</time>
      </trkpt>
      <trkpt lat="43.42402" lon="6.50558">
        <ele>228.39999389648</ele>
        <time>2017-01-28T14:13:59.000Z</time>
      </trkpt>
      <trkpt lat="43.42405" lon="6.5056">
        <ele>226.80000305176</ele>
        <time>2017-01-28T14:14:00.000Z</time>
      </trkpt>
      <trkpt lat="43.42408" lon="6.50561">
        <ele>226</ele>
        <time>2017-01-28T14:14:01.000Z</time>
      </trkpt>
      <trkpt lat="43.42411" lon="6.5056">
        <ele>224.80000305176</ele>
        <time>2017-01-28T14:14:02.000Z</time>
      </trkpt>
      <trkpt lat="43.42414" lon="6.50558">
        <ele>223.39999389648</ele>
        <time>2017-01-28T14:14:03.000Z</time>
      </trkpt>
      <trkpt lat="43.42419" lon="6.50554">
        <ele>221.80000305176</ele>
        <time>2017-01-28T14:14:05.000Z</time>
      </trkpt>
      <trkpt lat="43.42423" lon="6.50547">
        <ele>220.80000305176</ele>
        <time>2017-01-28T14:14:07.000Z</time>
      </trkpt>
      <trkpt lat="43.42425" lon="6.50543">
        <ele>220.39999389648</ele>
        <time>2017-01-28T14:14:08.000Z</time>
      </trkpt>
      <trkpt lat="43.42433" lon="6.50531">
        <ele>220.19999694824</ele>
        <time>2017-01-28T14:14:11.000Z</time>
      </trkpt>
      <trkpt lat="43.42439" lon="6.5052">
        <ele>218.80000305176</ele>
        <time>2017-01-28T14:14:14.000Z</time>
      </trkpt>
      <trkpt lat="43.42445" lon="6.50512">
        <ele>217.80000305176</ele>
        <time>2017-01-28T14:14:17.000Z</time>
      </trkpt>
      <trkpt lat="43.42452" lon="6.50508">
        <ele>218.60000610352</ele>
        <time>2017-01-28T14:14:19.000Z</time>
      </trkpt>
      <trkpt lat="43.42458" lon="6.50505">
        <ele>218.60000610352</ele>
        <time>2017-01-28T14:14:21.000Z</time>
      </trkpt>
      <trkpt lat="43.42467" lon="6.50501">
        <ele>218.19999694824</ele>
        <time>2017-01-28T14:14:25.000Z</time>
      </trkpt>
      <trkpt lat="43.42475" lon="6.50493">
        <ele>218.60000610352</ele>
        <time>2017-01-28T14:14:29.000Z</time>
      </trkpt>
      <trkpt lat="43.42478" lon="6.50492">
        <ele>218.39999389648</ele>
        <time>2017-01-28T14:14:30.000Z</time>
      </trkpt>
      <trkpt lat="43.42485" lon="6.50489">
        <ele>217.60000610352</ele>
        <time>2017-01-28T14:14:32.000Z</time>
      </trkpt>
      <trkpt lat="43.42491" lon="6.50484">
        <ele>217</ele>
        <time>2017-01-28T14:14:35.000Z</time>
      </trkpt>
      <trkpt lat="43.42497" lon="6.5048">
        <ele>217</ele>
        <time>2017-01-28T14:14:38.000Z</time>
      </trkpt>
      <trkpt lat="43.42508" lon="6.50476">
        <ele>217.80000305176</ele>
        <time>2017-01-28T14:14:41.000Z</time>
      </trkpt>
      <trkpt lat="43.42522" lon="6.50466">
        <ele>216.80000305176</ele>
        <time>2017-01-28T14:14:45.000Z</time>
      </trkpt>
      <trkpt lat="43.42526" lon="6.50459">
        <ele>215.60000610352</ele>
        <time>2017-01-28T14:14:47.000Z</time>
      </trkpt>
      <trkpt lat="43.42529" lon="6.50457">
        <ele>215.19999694824</ele>
        <time>2017-01-28T14:14:48.000Z</time>
      </trkpt>
      <trkpt lat="43.42532" lon="6.50455">
        <ele>214.80000305176</ele>
        <time>2017-01-28T14:14:49.000Z</time>
      </trkpt>
      <trkpt lat="43.42536" lon="6.50453">
        <ele>214.19999694824</ele>
        <time>2017-01-28T14:14:50.000Z</time>
      </trkpt>
      <trkpt lat="43.42542" lon="6.50448">
        <ele>213</ele>
        <time>2017-01-28T14:14:52.000Z</time>
      </trkpt>
      <trkpt lat="43.42546" lon="6.5045">
        <ele>211.60000610352</ele>
        <time>2017-01-28T14:14:54.000Z</time>
      </trkpt>
      <trkpt lat="43.42549" lon="6.50451">
        <ele>210.60000610352</ele>
        <time>2017-01-28T14:14:55.000Z</time>
      </trkpt>
      <trkpt lat="43.42552" lon="6.50452">
        <ele>209.80000305176</ele>
        <time>2017-01-28T14:14:56.000Z</time>
      </trkpt>
      <trkpt lat="43.42557" lon="6.50455">
        <ele>207.39999389648</ele>
        <time>2017-01-28T14:14:58.000Z</time>
      </trkpt>
      <trkpt lat="43.42559" lon="6.50458">
        <ele>206.39999389648</ele>
        <time>2017-01-28T14:14:59.000Z</time>
      </trkpt>
      <trkpt lat="43.42563" lon="6.50458">
        <ele>204.39999389648</ele>
        <time>2017-01-28T14:15:01.000Z</time>
      </trkpt>
      <trkpt lat="43.42566" lon="6.50456">
        <ele>203.39999389648</ele>
        <time>2017-01-28T14:15:02.000Z</time>
      </trkpt>
      <trkpt lat="43.42568" lon="6.50455">
        <ele>202.80000305176</ele>
        <time>2017-01-28T14:15:03.000Z</time>
      </trkpt>
      <trkpt lat="43.42571" lon="6.5045">
        <ele>200.60000610352</ele>
        <time>2017-01-28T14:15:05.000Z</time>
      </trkpt>
      <trkpt lat="43.42576" lon="6.50449">
        <ele>199.39999389648</ele>
        <time>2017-01-28T14:15:07.000Z</time>
      </trkpt>
      <trkpt lat="43.4258" lon="6.50449">
        <ele>198.80000305176</ele>
        <time>2017-01-28T14:15:08.000Z</time>
      </trkpt>
      <trkpt lat="43.42584" lon="6.50449">
        <ele>198</ele>
        <time>2017-01-28T14:15:09.000Z</time>
      </trkpt>
      <trkpt lat="43.42587" lon="6.50448">
        <ele>197.19999694824</ele>
        <time>2017-01-28T14:15:10.000Z</time>
      </trkpt>
      <trkpt lat="43.42589" lon="6.50445">
        <ele>196.39999389648</ele>
        <time>2017-01-28T14:15:11.000Z</time>
      </trkpt>
      <trkpt lat="43.4259" lon="6.5044">
        <ele>194.80000305176</ele>
        <time>2017-01-28T14:15:12.000Z</time>
      </trkpt>
      <trkpt lat="43.42591" lon="6.50438">
        <ele>193.60000610352</ele>
        <time>2017-01-28T14:15:13.000Z</time>
      </trkpt>
      <trkpt lat="43.42594" lon="6.50439">
        <ele>192.60000610352</ele>
        <time>2017-01-28T14:15:14.000Z</time>
      </trkpt>
      <trkpt lat="43.42596" lon="6.50441">
        <ele>192.60000610352</ele>
        <time>2017-01-28T14:15:15.000Z</time>
      </trkpt>
      <trkpt lat="43.42603" lon="6.5044">
        <ele>191.19999694824</ele>
        <time>2017-01-28T14:15:18.000Z</time>
      </trkpt>
      <trkpt lat="43.42608" lon="6.50439">
        <ele>189.80000305176</ele>
        <time>2017-01-28T14:15:20.000Z</time>
      </trkpt>
      <trkpt lat="43.4261" lon="6.50436">
        <ele>188.80000305176</ele>
        <time>2017-01-28T14:15:21.000Z</time>
      </trkpt>
      <trkpt lat="43.42612" lon="6.50434">
        <ele>187.60000610352</ele>
        <time>2017-01-28T14:15:22.000Z</time>
      </trkpt>
      <trkpt lat="43.42616" lon="6.50432">
        <ele>185.80000305176</ele>
        <time>2017-01-28T14:15:24.000Z</time>
      </trkpt>
      <trkpt lat="43.42617" lon="6.5043">
        <ele>184.60000610352</ele>
        <time>2017-01-28T14:15:25.000Z</time>
      </trkpt>
      <trkpt lat="43.42618" lon="6.50429">
        <ele>183.39999389648</ele>
        <time>2017-01-28T14:15:26.000Z</time>
      </trkpt>
      <trkpt lat="43.4262" lon="6.50427">
        <ele>182.19999694824</ele>
        <time>2017-01-28T14:15:27.000Z</time>
      </trkpt>
      <trkpt lat="43.42623" lon="6.50427">
        <ele>181.19999694824</ele>
        <time>2017-01-28T14:15:28.000Z</time>
      </trkpt>
      <trkpt lat="43.42625" lon="6.50427">
        <ele>180</ele>
        <time>2017-01-28T14:15:29.000Z</time>
      </trkpt>
      <trkpt lat="43.42631" lon="6.50431">
        <ele>178.39999389648</ele>
        <time>2017-01-28T14:15:31.000Z</time>
      </trkpt>
      <trkpt lat="43.42633" lon="6.50436">
        <ele>177.39999389648</ele>
        <time>2017-01-28T14:15:32.000Z</time>
      </trkpt>
      <trkpt lat="43.42635" lon="6.50439">
        <ele>176.19999694824</ele>
        <time>2017-01-28T14:15:33.000Z</time>
      </trkpt>
      <trkpt lat="43.42636" lon="6.5044">
        <ele>174.80000305176</ele>
        <time>2017-01-28T14:15:34.000Z</time>
      </trkpt>
      <trkpt lat="43.42638" lon="6.50441">
        <ele>174</ele>
        <time>2017-01-28T14:15:35.000Z</time>
      </trkpt>
      <trkpt lat="43.42639" lon="6.5044">
        <ele>172.60000610352</ele>
        <time>2017-01-28T14:15:36.000Z</time>
      </trkpt>
      <trkpt lat="43.42644" lon="6.50442">
        <ele>170.80000305176</ele>
        <time>2017-01-28T14:15:38.000Z</time>
      </trkpt>
      <trkpt lat="43.42646" lon="6.50445">
        <ele>169.60000610352</ele>
        <time>2017-01-28T14:15:39.000Z</time>
      </trkpt>
      <trkpt lat="43.4265" lon="6.50454">
        <ele>168</ele>
        <time>2017-01-28T14:15:41.000Z</time>
      </trkpt>
      <trkpt lat="43.42654" lon="6.50463">
        <ele>166.19999694824</ele>
        <time>2017-01-28T14:15:43.000Z</time>
      </trkpt>
      <trkpt lat="43.42655" lon="6.50469">
        <ele>165.39999389648</ele>
        <time>2017-01-28T14:15:44.000Z</time>
      </trkpt>
      <trkpt lat="43.42656" lon="6.50474">
        <ele>164.39999389648</ele>
        <time>2017-01-28T14:15:45.000Z</time>
      </trkpt>
      <trkpt lat="43.42656" lon="6.50478">
        <ele>163.39999389648</ele>
        <time>2017-01-28T14:15:46.000Z</time>
      </trkpt>
      <trkpt lat="43.42657" lon="6.50481">
        <ele>162.39999389648</ele>
        <time>2017-01-28T14:15:47.000Z</time>
      </trkpt>
      <trkpt lat="43.42658" lon="6.5049">
        <ele>160.80000305176</ele>
        <time>2017-01-28T14:15:49.000Z</time>
      </trkpt>
      <trkpt lat="43.4266" lon="6.50495">
        <ele>159.60000610352</ele>
        <time>2017-01-28T14:15:51.000Z</time>
      </trkpt>
      <trkpt lat="43.42666" lon="6.505">
        <ele>159.19999694824</ele>
        <time>2017-01-28T14:15:53.000Z</time>
      </trkpt>
      <trkpt lat="43.42673" lon="6.50506">
        <ele>158.60000610352</ele>
        <time>2017-01-28T14:15:56.000Z</time>
      </trkpt>
      <trkpt lat="43.42682" lon="6.50509">
        <ele>157.60000610352</ele>
        <time>2017-01-28T14:15:59.000Z</time>
      </trkpt>
      <trkpt lat="43.42685" lon="6.50511">
        <ele>157.39999389648</ele>
        <time>2017-01-28T14:16:00.000Z</time>
      </trkpt>
      <trkpt lat="43.42689" lon="6.50519">
        <ele>156.39999389648</ele>
        <time>2017-01-28T14:16:02.000Z</time>
      </trkpt>
      <trkpt lat="43.4269" lon="6.50522">
        <ele>155.80000305176</ele>
        <time>2017-01-28T14:16:03.000Z</time>
      </trkpt>
      <trkpt lat="43.42698" lon="6.50533">
        <ele>154.39999389648</ele>
        <time>2017-01-28T14:16:06.000Z</time>
      </trkpt>
      <trkpt lat="43.42707" lon="6.50541">
        <ele>153.19999694824</ele>
        <time>2017-01-28T14:16:09.000Z</time>
      </trkpt>
      <trkpt lat="43.42709" lon="6.50542">
        <ele>152.80000305176</ele>
        <time>2017-01-28T14:16:10.000Z</time>
      </trkpt>
      <trkpt lat="43.42712" lon="6.50543">
        <ele>152.39999389648</ele>
        <time>2017-01-28T14:16:11.000Z</time>
      </trkpt>
      <trkpt lat="43.42718" lon="6.50542">
        <ele>152</ele>
        <time>2017-01-28T14:16:12.000Z</time>
      </trkpt>
      <trkpt lat="43.42728" lon="6.50541">
        <ele>151</ele>
        <time>2017-01-28T14:16:14.000Z</time>
      </trkpt>
      <trkpt lat="43.42733" lon="6.5054">
        <ele>150.39999389648</ele>
        <time>2017-01-28T14:16:15.000Z</time>
      </trkpt>
      <trkpt lat="43.42752" lon="6.50532">
        <ele>149.19999694824</ele>
        <time>2017-01-28T14:16:19.000Z</time>
      </trkpt>
      <trkpt lat="43.42755" lon="6.5053">
        <ele>149</ele>
        <time>2017-01-28T14:16:20.000Z</time>
      </trkpt>
      <trkpt lat="43.42756" lon="6.50529">
        <ele>148.19999694824</ele>
        <time>2017-01-28T14:16:22.000Z</time>
      </trkpt>
      <trkpt lat="43.42757" lon="6.50529">
        <ele>147.80000305176</ele>
        <time>2017-01-28T14:16:23.000Z</time>
      </trkpt>
      <trkpt lat="43.42757" lon="6.50529">
        <ele>147.19999694824</ele>
        <time>2017-01-28T14:16:27.000Z</time>
      </trkpt>
      <trkpt lat="43.42758" lon="6.50529">
        <ele>147.19999694824</ele>
        <time>2017-01-28T14:16:34.000Z</time>
      </trkpt>
      <trkpt lat="43.42759" lon="6.50528">
        <ele>146.80000305176</ele>
        <time>2017-01-28T14:16:57.000Z</time>
      </trkpt>
      <trkpt lat="43.4276" lon="6.50528">
        <ele>147</ele>
        <time>2017-01-28T14:17:10.000Z</time>
      </trkpt>
      <trkpt lat="43.4276" lon="6.50527">
        <ele>147.19999694824</ele>
        <time>2017-01-28T14:17:12.000Z</time>
      </trkpt>
      <trkpt lat="43.4276" lon="6.50522">
        <ele>147.39999389648</ele>
        <time>2017-01-28T14:17:15.000Z</time>
      </trkpt>
      <trkpt lat="43.42764" lon="6.50516">
        <ele>147.39999389648</ele>
        <time>2017-01-28T14:17:18.000Z</time>
      </trkpt>
      <trkpt lat="43.42768" lon="6.50516">
        <ele>147.19999694824</ele>
        <time>2017-01-28T14:17:19.000Z</time>
      </trkpt>
      <trkpt lat="43.42778" lon="6.50517">
        <ele>146.39999389648</ele>
        <time>2017-01-28T14:17:21.000Z</time>
      </trkpt>
      <trkpt lat="43.42783" lon="6.50519">
        <ele>145.39999389648</ele>
        <time>2017-01-28T14:17:22.000Z</time>
      </trkpt>
      <trkpt lat="43.42792" lon="6.50524">
        <ele>144.39999389648</ele>
        <time>2017-01-28T14:17:24.000Z</time>
      </trkpt>
      <trkpt lat="43.428" lon="6.50527">
        <ele>143.39999389648</ele>
        <time>2017-01-28T14:17:26.000Z</time>
      </trkpt>
      <trkpt lat="43.42804" lon="6.50529">
        <ele>143.19999694824</ele>
        <time>2017-01-28T14:17:27.000Z</time>
      </trkpt>
      <trkpt lat="43.42813" lon="6.50533">
        <ele>142.19999694824</ele>
        <time>2017-01-28T14:17:29.000Z</time>
      </trkpt>
      <trkpt lat="43.42818" lon="6.50534">
        <ele>141</ele>
        <time>2017-01-28T14:17:30.000Z</time>
      </trkpt>
      <trkpt lat="43.42823" lon="6.50535">
        <ele>140.19999694824</ele>
        <time>2017-01-28T14:17:31.000Z</time>
      </trkpt>
      <trkpt lat="43.42828" lon="6.50536">
        <ele>138.60000610352</ele>
        <time>2017-01-28T14:17:32.000Z</time>
      </trkpt>
      <trkpt lat="43.42838" lon="6.50537">
        <ele>137.39999389648</ele>
        <time>2017-01-28T14:17:34.000Z</time>
      </trkpt>
      <trkpt lat="43.42851" lon="6.50541">
        <ele>136.19999694824</ele>
        <time>2017-01-28T14:17:37.000Z</time>
      </trkpt>
      <trkpt lat="43.42855" lon="6.50542">
        <ele>135.60000610352</ele>
        <time>2017-01-28T14:17:38.000Z</time>
      </trkpt>
      <trkpt lat="43.42858" lon="6.50544">
        <ele>134.80000305176</ele>
        <time>2017-01-28T14:17:39.000Z</time>
      </trkpt>
      <trkpt lat="43.42866" lon="6.50547">
        <ele>133.60000610352</ele>
        <time>2017-01-28T14:17:41.000Z</time>
      </trkpt>
      <trkpt lat="43.42877" lon="6.5055">
        <ele>132.80000305176</ele>
        <time>2017-01-28T14:17:43.000Z</time>
      </trkpt>
      <trkpt lat="43.42882" lon="6.50551">
        <ele>132.60000610352</ele>
        <time>2017-01-28T14:17:44.000Z</time>
      </trkpt>
      <trkpt lat="43.42886" lon="6.5055">
        <ele>131.80000305176</ele>
        <time>2017-01-28T14:17:45.000Z</time>
      </trkpt>
      <trkpt lat="43.4289" lon="6.50547">
        <ele>131.39999389648</ele>
        <time>2017-01-28T14:17:46.000Z</time>
      </trkpt>
      <trkpt lat="43.42898" lon="6.50542">
        <ele>130</ele>
        <time>2017-01-28T14:17:48.000Z</time>
      </trkpt>
      <trkpt lat="43.42902" lon="6.5054">
        <ele>128.80000305176</ele>
        <time>2017-01-28T14:17:49.000Z</time>
      </trkpt>
      <trkpt lat="43.42904" lon="6.5054">
        <ele>128.39999389648</ele>
        <time>2017-01-28T14:17:50.000Z</time>
      </trkpt>
      <trkpt lat="43.42914" lon="6.50536">
        <ele>127.59999847412</ele>
        <time>2017-01-28T14:17:51.000Z</time>
      </trkpt>
      <trkpt lat="43.4292" lon="6.50534">
        <ele>126.19999694824</ele>
        <time>2017-01-28T14:17:52.000Z</time>
      </trkpt>
      <trkpt lat="43.42927" lon="6.5053">
        <ele>124.59999847412</ele>
        <time>2017-01-28T14:17:54.000Z</time>
      </trkpt>
      <trkpt lat="43.42931" lon="6.50529">
        <ele>124.19999694824</ele>
        <time>2017-01-28T14:17:55.000Z</time>
      </trkpt>
      <trkpt lat="43.42936" lon="6.5053">
        <ele>123.40000152588</ele>
        <time>2017-01-28T14:17:56.000Z</time>
      </trkpt>
      <trkpt lat="43.42942" lon="6.50532">
        <ele>123</ele>
        <time>2017-01-28T14:17:57.000Z</time>
      </trkpt>
      <trkpt lat="43.42947" lon="6.50533">
        <ele>122.40000152588</ele>
        <time>2017-01-28T14:17:58.000Z</time>
      </trkpt>
      <trkpt lat="43.42952" lon="6.50535">
        <ele>121.80000305176</ele>
        <time>2017-01-28T14:17:59.000Z</time>
      </trkpt>
      <trkpt lat="43.42957" lon="6.50538">
        <ele>120.59999847412</ele>
        <time>2017-01-28T14:18:00.000Z</time>
      </trkpt>
      <trkpt lat="43.42967" lon="6.50543">
        <ele>119</ele>
        <time>2017-01-28T14:18:02.000Z</time>
      </trkpt>
      <trkpt lat="43.42977" lon="6.50546">
        <ele>117</ele>
        <time>2017-01-28T14:18:04.000Z</time>
      </trkpt>
      <trkpt lat="43.42981" lon="6.50548">
        <ele>116</ele>
        <time>2017-01-28T14:18:05.000Z</time>
      </trkpt>
      <trkpt lat="43.42986" lon="6.50549">
        <ele>115.19999694824</ele>
        <time>2017-01-28T14:18:06.000Z</time>
      </trkpt>
      <trkpt lat="43.4299" lon="6.5055">
        <ele>114.19999694824</ele>
        <time>2017-01-28T14:18:07.000Z</time>
      </trkpt>
      <trkpt lat="43.42994" lon="6.50553">
        <ele>113.80000305176</ele>
        <time>2017-01-28T14:18:08.000Z</time>
      </trkpt>
      <trkpt lat="43.42998" lon="6.50557">
        <ele>113.19999694824</ele>
        <time>2017-01-28T14:18:09.000Z</time>
      </trkpt>
      <trkpt lat="43.43001" lon="6.5056">
        <ele>112.59999847412</ele>
        <time>2017-01-28T14:18:10.000Z</time>
      </trkpt>
      <trkpt lat="43.43004" lon="6.50564">
        <ele>111.59999847412</ele>
        <time>2017-01-28T14:18:11.000Z</time>
      </trkpt>
      <trkpt lat="43.4301" lon="6.50571">
        <ele>110.19999694824</ele>
        <time>2017-01-28T14:18:13.000Z</time>
      </trkpt>
      <trkpt lat="43.43014" lon="6.50575">
        <ele>109.40000152588</ele>
        <time>2017-01-28T14:18:14.000Z</time>
      </trkpt>
      <trkpt lat="43.43017" lon="6.5058">
        <ele>108.80000305176</ele>
        <time>2017-01-28T14:18:15.000Z</time>
      </trkpt>
      <trkpt lat="43.43023" lon="6.5059">
        <ele>107.40000152588</ele>
        <time>2017-01-28T14:18:17.000Z</time>
      </trkpt>
      <trkpt lat="43.43028" lon="6.50601">
        <ele>105.80000305176</ele>
        <time>2017-01-28T14:18:19.000Z</time>
      </trkpt>
      <trkpt lat="43.4303" lon="6.50614">
        <ele>104.40000152588</ele>
        <time>2017-01-28T14:18:21.000Z</time>
      </trkpt>
      <trkpt lat="43.43032" lon="6.50621">
        <ele>103.19999694824</ele>
        <time>2017-01-28T14:18:22.000Z</time>
      </trkpt>
      <trkpt lat="43.43033" lon="6.50626">
        <ele>102.80000305176</ele>
        <time>2017-01-28T14:18:23.000Z</time>
      </trkpt>
      <trkpt lat="43.43037" lon="6.5064">
        <ele>102.19999694824</ele>
        <time>2017-01-28T14:18:25.000Z</time>
      </trkpt>
      <trkpt lat="43.43039" lon="6.50648">
        <ele>101.40000152588</ele>
        <time>2017-01-28T14:18:26.000Z</time>
      </trkpt>
      <trkpt lat="43.43042" lon="6.50654">
        <ele>100.59999847412</ele>
        <time>2017-01-28T14:18:27.000Z</time>
      </trkpt>
      <trkpt lat="43.43045" lon="6.50659">
        <ele>99.599998474121</ele>
        <time>2017-01-28T14:18:28.000Z</time>
      </trkpt>
      <trkpt lat="43.43048" lon="6.50663">
        <ele>98.199996948242</ele>
        <time>2017-01-28T14:18:29.000Z</time>
      </trkpt>
      <trkpt lat="43.43053" lon="6.50666">
        <ele>96.599998474121</ele>
        <time>2017-01-28T14:18:30.000Z</time>
      </trkpt>
      <trkpt lat="43.43057" lon="6.5067">
        <ele>95.400001525879</ele>
        <time>2017-01-28T14:18:31.000Z</time>
      </trkpt>
      <trkpt lat="43.43061" lon="6.50673">
        <ele>94.400001525879</ele>
        <time>2017-01-28T14:18:32.000Z</time>
      </trkpt>
      <trkpt lat="43.43068" lon="6.50681">
        <ele>93.400001525879</ele>
        <time>2017-01-28T14:18:34.000Z</time>
      </trkpt>
      <trkpt lat="43.4307" lon="6.50685">
        <ele>93.199996948242</ele>
        <time>2017-01-28T14:18:35.000Z</time>
      </trkpt>
      <trkpt lat="43.43079" lon="6.50705">
        <ele>91.599998474121</ele>
        <time>2017-01-28T14:18:38.000Z</time>
      </trkpt>
      <trkpt lat="43.43083" lon="6.5071">
        <ele>90.800003051758</ele>
        <time>2017-01-28T14:18:39.000Z</time>
      </trkpt>
      <trkpt lat="43.43087" lon="6.50715">
        <ele>90</ele>
        <time>2017-01-28T14:18:40.000Z</time>
      </trkpt>
      <trkpt lat="43.43097" lon="6.50724">
        <ele>88</ele>
        <time>2017-01-28T14:18:42.000Z</time>
      </trkpt>
      <trkpt lat="43.43102" lon="6.50729">
        <ele>86.800003051758</ele>
        <time>2017-01-28T14:18:43.000Z</time>
      </trkpt>
      <trkpt lat="43.43106" lon="6.50735">
        <ele>86.199996948242</ele>
        <time>2017-01-28T14:18:44.000Z</time>
      </trkpt>
      <trkpt lat="43.4311" lon="6.5074">
        <ele>85.599998474121</ele>
        <time>2017-01-28T14:18:45.000Z</time>
      </trkpt>
      <trkpt lat="43.43115" lon="6.50754">
        <ele>84.400001525879</ele>
        <time>2017-01-28T14:18:47.000Z</time>
      </trkpt>
      <trkpt lat="43.43118" lon="6.5076">
        <ele>83.599998474121</ele>
        <time>2017-01-28T14:18:48.000Z</time>
      </trkpt>
      <trkpt lat="43.43119" lon="6.50766">
        <ele>82.599998474121</ele>
        <time>2017-01-28T14:18:49.000Z</time>
      </trkpt>
      <trkpt lat="43.4312" lon="6.50771">
        <ele>81.400001525879</ele>
        <time>2017-01-28T14:18:50.000Z</time>
      </trkpt>
      <trkpt lat="43.43122" lon="6.50778">
        <ele>80.400001525879</ele>
        <time>2017-01-28T14:18:51.000Z</time>
      </trkpt>
      <trkpt lat="43.43124" lon="6.50785">
        <ele>79.599998474121</ele>
        <time>2017-01-28T14:18:52.000Z</time>
      </trkpt>
      <trkpt lat="43.43126" lon="6.50791">
        <ele>78.599998474121</ele>
        <time>2017-01-28T14:18:53.000Z</time>
      </trkpt>
      <trkpt lat="43.43129" lon="6.50798">
        <ele>77.599998474121</ele>
        <time>2017-01-28T14:18:54.000Z</time>
      </trkpt>
      <trkpt lat="43.4313" lon="6.50805">
        <ele>76</ele>
        <time>2017-01-28T14:18:55.000Z</time>
      </trkpt>
      <trkpt lat="43.43133" lon="6.50817">
        <ele>74.199996948242</ele>
        <time>2017-01-28T14:18:57.000Z</time>
      </trkpt>
      <trkpt lat="43.43132" lon="6.50827">
        <ele>72.800003051758</ele>
        <time>2017-01-28T14:18:59.000Z</time>
      </trkpt>
      <trkpt lat="43.43132" lon="6.50834">
        <ele>72.199996948242</ele>
        <time>2017-01-28T14:19:00.000Z</time>
      </trkpt>
      <trkpt lat="43.43132" lon="6.50839">
        <ele>71.199996948242</ele>
        <time>2017-01-28T14:19:01.000Z</time>
      </trkpt>
      <trkpt lat="43.43139" lon="6.50846">
        <ele>69.599998474121</ele>
        <time>2017-01-28T14:19:03.000Z</time>
      </trkpt>
      <trkpt lat="43.43144" lon="6.50849">
        <ele>69</ele>
        <time>2017-01-28T14:19:04.000Z</time>
      </trkpt>
      <trkpt lat="43.43148" lon="6.50851">
        <ele>68.400001525879</ele>
        <time>2017-01-28T14:19:05.000Z</time>
      </trkpt>
      <trkpt lat="43.43154" lon="6.5086">
        <ele>67.800003051758</ele>
        <time>2017-01-28T14:19:07.000Z</time>
      </trkpt>
      <trkpt lat="43.43157" lon="6.50864">
        <ele>67.400001525879</ele>
        <time>2017-01-28T14:19:08.000Z</time>
      </trkpt>
      <trkpt lat="43.43158" lon="6.5087">
        <ele>66.800003051758</ele>
        <time>2017-01-28T14:19:09.000Z</time>
      </trkpt>
      <trkpt lat="43.43163" lon="6.5088">
        <ele>65.599998474121</ele>
        <time>2017-01-28T14:19:11.000Z</time>
      </trkpt>
      <trkpt lat="43.43164" lon="6.50886">
        <ele>65</ele>
        <time>2017-01-28T14:19:12.000Z</time>
      </trkpt>
      <trkpt lat="43.43165" lon="6.50892">
        <ele>64.400001525879</ele>
        <time>2017-01-28T14:19:13.000Z</time>
      </trkpt>
      <trkpt lat="43.43165" lon="6.50904">
        <ele>63.200000762939</ele>
        <time>2017-01-28T14:19:15.000Z</time>
      </trkpt>
      <trkpt lat="43.43165" lon="6.50911">
        <ele>62.799999237061</ele>
        <time>2017-01-28T14:19:16.000Z</time>
      </trkpt>
      <trkpt lat="43.43166" lon="6.50924">
        <ele>62</ele>
        <time>2017-01-28T14:19:18.000Z</time>
      </trkpt>
      <trkpt lat="43.43167" lon="6.50936">
        <ele>61</ele>
        <time>2017-01-28T14:19:20.000Z</time>
      </trkpt>
      <trkpt lat="43.43167" lon="6.50944">
        <ele>60.400001525879</ele>
        <time>2017-01-28T14:19:21.000Z</time>
      </trkpt>
      <trkpt lat="43.43167" lon="6.50952">
        <ele>59.200000762939</ele>
        <time>2017-01-28T14:19:22.000Z</time>
      </trkpt>
      <trkpt lat="43.43168" lon="6.50968">
        <ele>57.599998474121</ele>
        <time>2017-01-28T14:19:24.000Z</time>
      </trkpt>
      <trkpt lat="43.43169" lon="6.50975">
        <ele>56.599998474121</ele>
        <time>2017-01-28T14:19:25.000Z</time>
      </trkpt>
      <trkpt lat="43.43169" lon="6.50982">
        <ele>55.799999237061</ele>
        <time>2017-01-28T14:19:26.000Z</time>
      </trkpt>
      <trkpt lat="43.43169" lon="6.50989">
        <ele>55.200000762939</ele>
        <time>2017-01-28T14:19:27.000Z</time>
      </trkpt>
      <trkpt lat="43.4317" lon="6.50996">
        <ele>54.200000762939</ele>
        <time>2017-01-28T14:19:28.000Z</time>
      </trkpt>
      <trkpt lat="43.43171" lon="6.51002">
        <ele>53.599998474121</ele>
        <time>2017-01-28T14:19:29.000Z</time>
      </trkpt>
      <trkpt lat="43.43175" lon="6.51013">
        <ele>52.400001525879</ele>
        <time>2017-01-28T14:19:31.000Z</time>
      </trkpt>
      <trkpt lat="43.43177" lon="6.51023">
        <ele>50.799999237061</ele>
        <time>2017-01-28T14:19:33.000Z</time>
      </trkpt>
      <trkpt lat="43.43177" lon="6.5103">
        <ele>48.799999237061</ele>
        <time>2017-01-28T14:19:35.000Z</time>
      </trkpt>
      <trkpt lat="43.43179" lon="6.51032">
        <ele>48.599998474121</ele>
        <time>2017-01-28T14:19:36.000Z</time>
      </trkpt>
      <trkpt lat="43.43181" lon="6.51033">
        <ele>48.599998474121</ele>
        <time>2017-01-28T14:19:37.000Z</time>
      </trkpt>
      <trkpt lat="43.43188" lon="6.51034">
        <ele>49</ele>
        <time>2017-01-28T14:19:42.000Z</time>
      </trkpt>
      <trkpt lat="43.4319" lon="6.51035">
        <ele>49.400001525879</ele>
        <time>2017-01-28T14:19:51.000Z</time>
      </trkpt>
      <trkpt lat="43.4319" lon="6.51035">
        <ele>49.200000762939</ele>
        <time>2017-01-28T14:19:59.000Z</time>
      </trkpt>
      <trkpt lat="43.4319" lon="6.51036">
        <ele>48.200000762939</ele>
        <time>2017-01-28T14:20:08.000Z</time>
      </trkpt>
      <trkpt lat="43.43188" lon="6.51036">
        <ele>49.200000762939</ele>
        <time>2017-01-28T14:20:20.000Z</time>
      </trkpt>
      <trkpt lat="43.43188" lon="6.51036">
        <ele>49.200000762939</ele>
        <time>2017-01-28T14:20:26.000Z</time>
      </trkpt>
      <trkpt lat="43.43188" lon="6.51037">
        <ele>49.400001525879</ele>
        <time>2017-01-28T14:20:35.000Z</time>
      </trkpt>
      <trkpt lat="43.43188" lon="6.51037">
        <ele>49.200000762939</ele>
        <time>2017-01-28T14:20:43.000Z</time>
      </trkpt>
      <trkpt lat="43.43187" lon="6.51037">
        <ele>49.599998474121</ele>
        <time>2017-01-28T14:20:54.000Z</time>
      </trkpt>
      <trkpt lat="43.43187" lon="6.51038">
        <ele>49.599998474121</ele>
        <time>2017-01-28T14:21:05.000Z</time>
      </trkpt>
      <trkpt lat="43.43187" lon="6.51038">
        <ele>49.799999237061</ele>
        <time>2017-01-28T14:21:18.000Z</time>
      </trkpt>
      <trkpt lat="43.43187" lon="6.51038">
        <ele>49.599998474121</ele>
        <time>2017-01-28T14:21:23.000Z</time>
      </trkpt>
      <trkpt lat="43.43187" lon="6.51039">
        <ele>49.799999237061</ele>
        <time>2017-01-28T14:21:46.000Z</time>
      </trkpt>
      <trkpt lat="43.43188" lon="6.5104">
        <ele>50.799999237061</ele>
        <time>2017-01-28T14:22:08.000Z</time>
      </trkpt>
      <trkpt lat="43.43187" lon="6.5104">
        <ele>51.200000762939</ele>
        <time>2017-01-28T14:22:26.000Z</time>
      </trkpt>
      <trkpt lat="43.43187" lon="6.5104">
        <ele>50.200000762939</ele>
        <time>2017-01-28T14:22:34.000Z</time>
      </trkpt>
      <trkpt lat="43.43187" lon="6.5104">
        <ele>50</ele>
        <time>2017-01-28T14:22:35.000Z</time>
      </trkpt>
      <trkpt lat="43.43187" lon="6.5104">
        <ele>49</ele>
        <time>2017-01-28T14:22:46.000Z</time>
      </trkpt>
      <trkpt lat="43.43187" lon="6.51041">
        <ele>49</ele>
        <time>2017-01-28T14:22:56.000Z</time>
      </trkpt>
      <trkpt lat="43.43186" lon="6.5104">
        <ele>48.599998474121</ele>
        <time>2017-01-28T14:23:02.000Z</time>
      </trkpt>
      <trkpt lat="43.43187" lon="6.5104">
        <ele>48.599998474121</ele>
        <time>2017-01-28T14:23:03.000Z</time>
      </trkpt>
      <trkpt lat="43.43186" lon="6.5104">
        <ele>49</ele>
        <time>2017-01-28T14:23:11.000Z</time>
      </trkpt>
      <trkpt lat="43.43187" lon="6.5104">
        <ele>49</ele>
        <time>2017-01-28T14:23:24.000Z</time>
      </trkpt>
      <trkpt lat="43.43191" lon="6.51041">
        <ele>48.799999237061</ele>
        <time>2017-01-28T14:23:38.000Z</time>
      </trkpt>
      <trkpt lat="43.43193" lon="6.51041">
        <ele>49</ele>
        <time>2017-01-28T14:23:40.000Z</time>
      </trkpt>
      <trkpt lat="43.43202" lon="6.51043">
        <ele>49</ele>
        <time>2017-01-28T14:23:45.000Z</time>
      </trkpt>
      <trkpt lat="43.43213" lon="6.51044">
        <ele>48.400001525879</ele>
        <time>2017-01-28T14:23:52.000Z</time>
      </trkpt>
      <trkpt lat="43.43225" lon="6.51046">
        <ele>48.400001525879</ele>
        <time>2017-01-28T14:23:58.000Z</time>
      </trkpt>
      <trkpt lat="43.43246" lon="6.5105">
        <ele>48</ele>
        <time>2017-01-28T14:24:05.000Z</time>
      </trkpt>
      <trkpt lat="43.43251" lon="6.51051">
        <ele>48</ele>
        <time>2017-01-28T14:24:07.000Z</time>
      </trkpt>
      <trkpt lat="43.43265" lon="6.51048">
        <ele>47.799999237061</ele>
        <time>2017-01-28T14:24:12.000Z</time>
      </trkpt>
      <trkpt lat="43.43283" lon="6.5104">
        <ele>47.799999237061</ele>
        <time>2017-01-28T14:24:19.000Z</time>
      </trkpt>
      <trkpt lat="43.43298" lon="6.51034">
        <ele>48.799999237061</ele>
        <time>2017-01-28T14:24:25.000Z</time>
      </trkpt>
      <trkpt lat="43.433" lon="6.51033">
        <ele>49</ele>
        <time>2017-01-28T14:24:26.000Z</time>
      </trkpt>
      <trkpt lat="43.43317" lon="6.51027">
        <ele>49.400001525879</ele>
        <time>2017-01-28T14:24:32.000Z</time>
      </trkpt>
      <trkpt lat="43.43336" lon="6.51019">
        <ele>49.599998474121</ele>
        <time>2017-01-28T14:24:40.000Z</time>
      </trkpt>
      <trkpt lat="43.43346" lon="6.5102">
        <ele>49.799999237061</ele>
        <time>2017-01-28T14:24:45.000Z</time>
      </trkpt>
      <trkpt lat="43.43358" lon="6.51024">
        <ele>49.200000762939</ele>
        <time>2017-01-28T14:24:50.000Z</time>
      </trkpt>
      <trkpt lat="43.43378" lon="6.5103">
        <ele>49.599998474121</ele>
        <time>2017-01-28T14:24:58.000Z</time>
      </trkpt>
      <trkpt lat="43.43391" lon="6.51033">
        <ele>50.200000762939</ele>
        <time>2017-01-28T14:25:03.000Z</time>
      </trkpt>
      <trkpt lat="43.43396" lon="6.51035">
        <ele>50.400001525879</ele>
        <time>2017-01-28T14:25:05.000Z</time>
      </trkpt>
      <trkpt lat="43.43408" lon="6.51044">
        <ele>51.200000762939</ele>
        <time>2017-01-28T14:25:10.000Z</time>
      </trkpt>
      <trkpt lat="43.43421" lon="6.51051">
        <ele>51.599998474121</ele>
        <time>2017-01-28T14:25:15.000Z</time>
      </trkpt>
      <trkpt lat="43.43442" lon="6.51058">
        <ele>51.799999237061</ele>
        <time>2017-01-28T14:25:23.000Z</time>
      </trkpt>
      <trkpt lat="43.43458" lon="6.51064">
        <ele>52.200000762939</ele>
        <time>2017-01-28T14:25:29.000Z</time>
      </trkpt>
      <trkpt lat="43.43478" lon="6.51075">
        <ele>52</ele>
        <time>2017-01-28T14:25:37.000Z</time>
      </trkpt>
      <trkpt lat="43.43495" lon="6.51076">
        <ele>51.599998474121</ele>
        <time>2017-01-28T14:25:42.000Z</time>
      </trkpt>
      <trkpt lat="43.43503" lon="6.51075">
        <ele>51.200000762939</ele>
        <time>2017-01-28T14:25:44.000Z</time>
      </trkpt>
      <trkpt lat="43.43519" lon="6.51077">
        <ele>50.400001525879</ele>
        <time>2017-01-28T14:25:47.000Z</time>
      </trkpt>
      <trkpt lat="43.4353" lon="6.51079">
        <ele>50</ele>
        <time>2017-01-28T14:25:49.000Z</time>
      </trkpt>
      <trkpt lat="43.43534" lon="6.51081">
        <ele>49.799999237061</ele>
        <time>2017-01-28T14:25:50.000Z</time>
      </trkpt>
      <trkpt lat="43.43543" lon="6.5109">
        <ele>49.200000762939</ele>
        <time>2017-01-28T14:25:52.000Z</time>
      </trkpt>
      <trkpt lat="43.43545" lon="6.51096">
        <ele>48.799999237061</ele>
        <time>2017-01-28T14:25:53.000Z</time>
      </trkpt>
      <trkpt lat="43.43545" lon="6.5111">
        <ele>48.599998474121</ele>
        <time>2017-01-28T14:25:55.000Z</time>
      </trkpt>
      <trkpt lat="43.43542" lon="6.51124">
        <ele>48.400001525879</ele>
        <time>2017-01-28T14:25:57.000Z</time>
      </trkpt>
      <trkpt lat="43.43539" lon="6.51148">
        <ele>48.400001525879</ele>
        <time>2017-01-28T14:26:01.000Z</time>
      </trkpt>
      <trkpt lat="43.43545" lon="6.51167">
        <ele>48</ele>
        <time>2017-01-28T14:26:05.000Z</time>
      </trkpt>
      <trkpt lat="43.43552" lon="6.51177">
        <ele>48.599998474121</ele>
        <time>2017-01-28T14:26:08.000Z</time>
      </trkpt>
      <trkpt lat="43.43559" lon="6.51185">
        <ele>49.400001525879</ele>
        <time>2017-01-28T14:26:11.000Z</time>
      </trkpt>
      <trkpt lat="43.43566" lon="6.51191">
        <ele>50</ele>
        <time>2017-01-28T14:26:14.000Z</time>
      </trkpt>
      <trkpt lat="43.43574" lon="6.51197">
        <ele>50.200000762939</ele>
        <time>2017-01-28T14:26:17.000Z</time>
      </trkpt>
      <trkpt lat="43.43585" lon="6.51207">
        <ele>50.799999237061</ele>
        <time>2017-01-28T14:26:22.000Z</time>
      </trkpt>
      <trkpt lat="43.4359" lon="6.51209">
        <ele>51</ele>
        <time>2017-01-28T14:26:24.000Z</time>
      </trkpt>
      <trkpt lat="43.43599" lon="6.51215">
        <ele>51.799999237061</ele>
        <time>2017-01-28T14:26:28.000Z</time>
      </trkpt>
      <trkpt lat="43.43603" lon="6.51218">
        <ele>52</ele>
        <time>2017-01-28T14:26:30.000Z</time>
      </trkpt>
      <trkpt lat="43.43613" lon="6.51224">
        <ele>53</ele>
        <time>2017-01-28T14:26:35.000Z</time>
      </trkpt>
      <trkpt lat="43.43615" lon="6.51225">
        <ele>53.200000762939</ele>
        <time>2017-01-28T14:26:36.000Z</time>
      </trkpt>
      <trkpt lat="43.4363" lon="6.51232">
        <ele>54</ele>
        <time>2017-01-28T14:26:43.000Z</time>
      </trkpt>
      <trkpt lat="43.43633" lon="6.51233">
        <ele>54.200000762939</ele>
        <time>2017-01-28T14:26:44.000Z</time>
      </trkpt>
      <trkpt lat="43.43644" lon="6.51239">
        <ele>54.799999237061</ele>
        <time>2017-01-28T14:26:49.000Z</time>
      </trkpt>
      <trkpt lat="43.43653" lon="6.51242">
        <ele>55.200000762939</ele>
        <time>2017-01-28T14:26:53.000Z</time>
      </trkpt>
      <trkpt lat="43.43659" lon="6.51246">
        <ele>55.400001525879</ele>
        <time>2017-01-28T14:26:56.000Z</time>
      </trkpt>
      <trkpt lat="43.43674" lon="6.51261">
        <ele>56.200000762939</ele>
        <time>2017-01-28T14:27:03.000Z</time>
      </trkpt>
      <trkpt lat="43.43676" lon="6.51263">
        <ele>56.200000762939</ele>
        <time>2017-01-28T14:27:04.000Z</time>
      </trkpt>
      <trkpt lat="43.4369" lon="6.51278">
        <ele>56.799999237061</ele>
        <time>2017-01-28T14:27:11.000Z</time>
      </trkpt>
      <trkpt lat="43.43702" lon="6.51286">
        <ele>57</ele>
        <time>2017-01-28T14:27:16.000Z</time>
      </trkpt>
      <trkpt lat="43.43719" lon="6.5129">
        <ele>56.599998474121</ele>
        <time>2017-01-28T14:27:21.000Z</time>
      </trkpt>
      <trkpt lat="43.43728" lon="6.5129">
        <ele>56.200000762939</ele>
        <time>2017-01-28T14:27:23.000Z</time>
      </trkpt>
      <trkpt lat="43.43742" lon="6.51289">
        <ele>55.799999237061</ele>
        <time>2017-01-28T14:27:26.000Z</time>
      </trkpt>
      <trkpt lat="43.43746" lon="6.51289">
        <ele>55.799999237061</ele>
        <time>2017-01-28T14:27:27.000Z</time>
      </trkpt>
      <trkpt lat="43.4376" lon="6.51295">
        <ele>55.599998474121</ele>
        <time>2017-01-28T14:27:30.000Z</time>
      </trkpt>
      <trkpt lat="43.43768" lon="6.513">
        <ele>55.400001525879</ele>
        <time>2017-01-28T14:27:32.000Z</time>
      </trkpt>
      <trkpt lat="43.43779" lon="6.51309">
        <ele>55.200000762939</ele>
        <time>2017-01-28T14:27:35.000Z</time>
      </trkpt>
      <trkpt lat="43.43783" lon="6.51311">
        <ele>55.200000762939</ele>
        <time>2017-01-28T14:27:36.000Z</time>
      </trkpt>
      <trkpt lat="43.43794" lon="6.51308">
        <ele>55.200000762939</ele>
        <time>2017-01-28T14:27:39.000Z</time>
      </trkpt>
      <trkpt lat="43.4381" lon="6.51294">
        <ele>55.400001525879</ele>
        <time>2017-01-28T14:27:44.000Z</time>
      </trkpt>
      <trkpt lat="43.43829" lon="6.5129">
        <ele>56</ele>
        <time>2017-01-28T14:27:49.000Z</time>
      </trkpt>
      <trkpt lat="43.43841" lon="6.51289">
        <ele>56.200000762939</ele>
        <time>2017-01-28T14:27:52.000Z</time>
      </trkpt>
      <trkpt lat="43.43851" lon="6.51287">
        <ele>56.400001525879</ele>
        <time>2017-01-28T14:27:55.000Z</time>
      </trkpt>
      <trkpt lat="43.43863" lon="6.51281">
        <ele>56.400001525879</ele>
        <time>2017-01-28T14:27:59.000Z</time>
      </trkpt>
      <trkpt lat="43.43879" lon="6.51272">
        <ele>57</ele>
        <time>2017-01-28T14:28:04.000Z</time>
      </trkpt>
      <trkpt lat="43.43893" lon="6.51265">
        <ele>57.200000762939</ele>
        <time>2017-01-28T14:28:08.000Z</time>
      </trkpt>
      <trkpt lat="43.439" lon="6.51261">
        <ele>57.200000762939</ele>
        <time>2017-01-28T14:28:10.000Z</time>
      </trkpt>
      <trkpt lat="43.43919" lon="6.5125">
        <ele>57.200000762939</ele>
        <time>2017-01-28T14:28:15.000Z</time>
      </trkpt>
      <trkpt lat="43.43936" lon="6.51239">
        <ele>57.400001525879</ele>
        <time>2017-01-28T14:28:19.000Z</time>
      </trkpt>
      <trkpt lat="43.43944" lon="6.51231">
        <ele>57.200000762939</ele>
        <time>2017-01-28T14:28:21.000Z</time>
      </trkpt>
      <trkpt lat="43.43947" lon="6.51226">
        <ele>57.200000762939</ele>
        <time>2017-01-28T14:28:22.000Z</time>
      </trkpt>
      <trkpt lat="43.43954" lon="6.51207">
        <ele>57</ele>
        <time>2017-01-28T14:28:25.000Z</time>
      </trkpt>
      <trkpt lat="43.43958" lon="6.51184">
        <ele>56.599998474121</ele>
        <time>2017-01-28T14:28:28.000Z</time>
      </trkpt>
      <trkpt lat="43.43959" lon="6.51176">
        <ele>56.200000762939</ele>
        <time>2017-01-28T14:28:29.000Z</time>
      </trkpt>
      <trkpt lat="43.4396" lon="6.51168">
        <ele>56</ele>
        <time>2017-01-28T14:28:30.000Z</time>
      </trkpt>
      <trkpt lat="43.43961" lon="6.5116">
        <ele>55.599998474121</ele>
        <time>2017-01-28T14:28:31.000Z</time>
      </trkpt>
      <trkpt lat="43.43966" lon="6.51146">
        <ele>55</ele>
        <time>2017-01-28T14:28:33.000Z</time>
      </trkpt>
      <trkpt lat="43.43969" lon="6.5114">
        <ele>54.799999237061</ele>
        <time>2017-01-28T14:28:34.000Z</time>
      </trkpt>
      <trkpt lat="43.43976" lon="6.51128">
        <ele>54.799999237061</ele>
        <time>2017-01-28T14:28:36.000Z</time>
      </trkpt>
      <trkpt lat="43.43987" lon="6.51113">
        <ele>55</ele>
        <time>2017-01-28T14:28:39.000Z</time>
      </trkpt>
      <trkpt lat="43.44008" lon="6.51084">
        <ele>54.400001525879</ele>
        <time>2017-01-28T14:28:45.000Z</time>
      </trkpt>
      <trkpt lat="43.44022" lon="6.51045">
        <ele>54.400001525879</ele>
        <time>2017-01-28T14:28:51.000Z</time>
      </trkpt>
      <trkpt lat="43.44042" lon="6.50988">
        <ele>54.400001525879</ele>
        <time>2017-01-28T14:29:00.000Z</time>
      </trkpt>
      <trkpt lat="43.44065" lon="6.50947">
        <ele>55.599998474121</ele>
        <time>2017-01-28T14:29:08.000Z</time>
      </trkpt>
      <trkpt lat="43.4408" lon="6.50924">
        <ele>56</ele>
        <time>2017-01-28T14:29:13.000Z</time>
      </trkpt>
      <trkpt lat="43.44088" lon="6.50908">
        <ele>56.200000762939</ele>
        <time>2017-01-28T14:29:16.000Z</time>
      </trkpt>
      <trkpt lat="43.44097" lon="6.50871">
        <ele>55.599998474121</ele>
        <time>2017-01-28T14:29:22.000Z</time>
      </trkpt>
      <trkpt lat="43.441" lon="6.50843">
        <ele>55.400001525879</ele>
        <time>2017-01-28T14:29:26.000Z</time>
      </trkpt>
      <trkpt lat="43.44101" lon="6.5083">
        <ele>55.200000762939</ele>
        <time>2017-01-28T14:29:28.000Z</time>
      </trkpt>
      <trkpt lat="43.44104" lon="6.50768">
        <ele>55.599998474121</ele>
        <time>2017-01-28T14:29:37.000Z</time>
      </trkpt>
      <trkpt lat="43.44108" lon="6.50715">
        <ele>56</ele>
        <time>2017-01-28T14:29:46.000Z</time>
      </trkpt>
      <trkpt lat="43.44107" lon="6.50656">
        <ele>56.599998474121</ele>
        <time>2017-01-28T14:29:56.000Z</time>
      </trkpt>
      <trkpt lat="43.44105" lon="6.50626">
        <ele>56.400001525879</ele>
        <time>2017-01-28T14:30:01.000Z</time>
      </trkpt>
      <trkpt lat="43.441" lon="6.50608">
        <ele>56.200000762939</ele>
        <time>2017-01-28T14:30:04.000Z</time>
      </trkpt>
      <trkpt lat="43.44095" lon="6.50598">
        <ele>56.200000762939</ele>
        <time>2017-01-28T14:30:06.000Z</time>
      </trkpt>
      <trkpt lat="43.44083" lon="6.50564">
        <ele>56.400001525879</ele>
        <time>2017-01-28T14:30:12.000Z</time>
      </trkpt>
      <trkpt lat="43.44083" lon="6.50558">
        <ele>56.400001525879</ele>
        <time>2017-01-28T14:30:13.000Z</time>
      </trkpt>
      <trkpt lat="43.44085" lon="6.5054">
        <ele>56.599998474121</ele>
        <time>2017-01-28T14:30:16.000Z</time>
      </trkpt>
      <trkpt lat="43.44089" lon="6.50529">
        <ele>56.799999237061</ele>
        <time>2017-01-28T14:30:18.000Z</time>
      </trkpt>
      <trkpt lat="43.44095" lon="6.50509">
        <ele>57</ele>
        <time>2017-01-28T14:30:22.000Z</time>
      </trkpt>
      <trkpt lat="43.44094" lon="6.50498">
        <ele>57</ele>
        <time>2017-01-28T14:30:24.000Z</time>
      </trkpt>
      <trkpt lat="43.44091" lon="6.50487">
        <ele>57</ele>
        <time>2017-01-28T14:30:26.000Z</time>
      </trkpt>
      <trkpt lat="43.44081" lon="6.50461">
        <ele>57</ele>
        <time>2017-01-28T14:30:31.000Z</time>
      </trkpt>
      <trkpt lat="43.44069" lon="6.5043">
        <ele>57.599998474121</ele>
        <time>2017-01-28T14:30:37.000Z</time>
      </trkpt>
      <trkpt lat="43.44048" lon="6.50397">
        <ele>57.799999237061</ele>
        <time>2017-01-28T14:30:44.000Z</time>
      </trkpt>
      <trkpt lat="43.44041" lon="6.50383">
        <ele>58</ele>
        <time>2017-01-28T14:30:47.000Z</time>
      </trkpt>
      <trkpt lat="43.44033" lon="6.50361">
        <ele>58.400001525879</ele>
        <time>2017-01-28T14:30:51.000Z</time>
      </trkpt>
      <trkpt lat="43.44016" lon="6.50328">
        <ele>58.799999237061</ele>
        <time>2017-01-28T14:30:58.000Z</time>
      </trkpt>
      <trkpt lat="43.44006" lon="6.50289">
        <ele>59.200000762939</ele>
        <time>2017-01-28T14:31:05.000Z</time>
      </trkpt>
      <trkpt lat="43.43993" lon="6.50239">
        <ele>59.799999237061</ele>
        <time>2017-01-28T14:31:14.000Z</time>
      </trkpt>
      <trkpt lat="43.43988" lon="6.50224">
        <ele>60.200000762939</ele>
        <time>2017-01-28T14:31:17.000Z</time>
      </trkpt>
      <trkpt lat="43.4398" lon="6.50194">
        <ele>60.599998474121</ele>
        <time>2017-01-28T14:31:22.000Z</time>
      </trkpt>
      <trkpt lat="43.43973" lon="6.50152">
        <ele>59.200000762939</ele>
        <time>2017-01-28T14:31:28.000Z</time>
      </trkpt>
      <trkpt lat="43.43972" lon="6.50137">
        <ele>59</ele>
        <time>2017-01-28T14:31:30.000Z</time>
      </trkpt>
      <trkpt lat="43.43969" lon="6.50088">
        <ele>58.799999237061</ele>
        <time>2017-01-28T14:31:36.000Z</time>
      </trkpt>
      <trkpt lat="43.43969" lon="6.5008">
        <ele>58.599998474121</ele>
        <time>2017-01-28T14:31:37.000Z</time>
      </trkpt>
      <trkpt lat="43.43975" lon="6.50051">
        <ele>58.200000762939</ele>
        <time>2017-01-28T14:31:41.000Z</time>
      </trkpt>
      <trkpt lat="43.43982" lon="6.50029">
        <ele>58</ele>
        <time>2017-01-28T14:31:44.000Z</time>
      </trkpt>
      <trkpt lat="43.43987" lon="6.50006">
        <ele>57.599998474121</ele>
        <time>2017-01-28T14:31:47.000Z</time>
      </trkpt>
      <trkpt lat="43.43998" lon="6.49961">
        <ele>57</ele>
        <time>2017-01-28T14:31:53.000Z</time>
      </trkpt>
      <trkpt lat="43.44007" lon="6.4994">
        <ele>56.599998474121</ele>
        <time>2017-01-28T14:31:56.000Z</time>
      </trkpt>
      <trkpt lat="43.44014" lon="6.49928">
        <ele>56.599998474121</ele>
        <time>2017-01-28T14:31:58.000Z</time>
      </trkpt>
      <trkpt lat="43.44028" lon="6.49914">
        <ele>56.200000762939</ele>
        <time>2017-01-28T14:32:01.000Z</time>
      </trkpt>
      <trkpt lat="43.44038" lon="6.49908">
        <ele>55.799999237061</ele>
        <time>2017-01-28T14:32:03.000Z</time>
      </trkpt>
      <trkpt lat="43.44053" lon="6.49903">
        <ele>55.599998474121</ele>
        <time>2017-01-28T14:32:06.000Z</time>
      </trkpt>
      <trkpt lat="43.44058" lon="6.49902">
        <ele>55.599998474121</ele>
        <time>2017-01-28T14:32:07.000Z</time>
      </trkpt>
      <trkpt lat="43.44092" lon="6.49901">
        <ele>55.799999237061</ele>
        <time>2017-01-28T14:32:14.000Z</time>
      </trkpt>
      <trkpt lat="43.44127" lon="6.4991">
        <ele>56.799999237061</ele>
        <time>2017-01-28T14:32:22.000Z</time>
      </trkpt>
      <trkpt lat="43.44158" lon="6.49911">
        <ele>56.799999237061</ele>
        <time>2017-01-28T14:32:29.000Z</time>
      </trkpt>
      <trkpt lat="43.44202" lon="6.49903">
        <ele>57</ele>
        <time>2017-01-28T14:32:39.000Z</time>
      </trkpt>
      <trkpt lat="43.44231" lon="6.49886">
        <ele>58</ele>
        <time>2017-01-28T14:32:46.000Z</time>
      </trkpt>
      <trkpt lat="43.44235" lon="6.49883">
        <ele>58</ele>
        <time>2017-01-28T14:32:47.000Z</time>
      </trkpt>
      <trkpt lat="43.44265" lon="6.49854">
        <ele>59</ele>
        <time>2017-01-28T14:32:55.000Z</time>
      </trkpt>
      <trkpt lat="43.44295" lon="6.49814">
        <ele>58</ele>
        <time>2017-01-28T14:33:03.000Z</time>
      </trkpt>
      <trkpt lat="43.44299" lon="6.4981">
        <ele>57.799999237061</ele>
        <time>2017-01-28T14:33:04.000Z</time>
      </trkpt>
      <trkpt lat="43.44303" lon="6.49807">
        <ele>57.799999237061</ele>
        <time>2017-01-28T14:33:05.000Z</time>
      </trkpt>
      <trkpt lat="43.44318" lon="6.49799">
        <ele>57.400001525879</ele>
        <time>2017-01-28T14:33:08.000Z</time>
      </trkpt>
      <trkpt lat="43.44341" lon="6.4978">
        <ele>57.400001525879</ele>
        <time>2017-01-28T14:33:13.000Z</time>
      </trkpt>
      <trkpt lat="43.44365" lon="6.49748">
        <ele>57.599998474121</ele>
        <time>2017-01-28T14:33:20.000Z</time>
      </trkpt>
      <trkpt lat="43.44393" lon="6.49716">
        <ele>58.400001525879</ele>
        <time>2017-01-28T14:33:28.000Z</time>
      </trkpt>
      <trkpt lat="43.44407" lon="6.49697">
        <ele>58</ele>
        <time>2017-01-28T14:33:32.000Z</time>
      </trkpt>
      <trkpt lat="43.44412" lon="6.49683">
        <ele>57.200000762939</ele>
        <time>2017-01-28T14:33:34.000Z</time>
      </trkpt>
      <trkpt lat="43.44413" lon="6.49677">
        <ele>56.799999237061</ele>
        <time>2017-01-28T14:33:35.000Z</time>
      </trkpt>
      <trkpt lat="43.44416" lon="6.49661">
        <ele>56</ele>
        <time>2017-01-28T14:33:37.000Z</time>
      </trkpt>
      <trkpt lat="43.44417" lon="6.49653">
        <ele>55.599998474121</ele>
        <time>2017-01-28T14:33:38.000Z</time>
      </trkpt>
      <trkpt lat="43.44419" lon="6.49638">
        <ele>55.200000762939</ele>
        <time>2017-01-28T14:33:40.000Z</time>
      </trkpt>
      <trkpt lat="43.44427" lon="6.49591">
        <ele>55</ele>
        <time>2017-01-28T14:33:47.000Z</time>
      </trkpt>
      <trkpt lat="43.44434" lon="6.49563">
        <ele>55.400001525879</ele>
        <time>2017-01-28T14:33:53.000Z</time>
      </trkpt>
      <trkpt lat="43.44438" lon="6.49553">
        <ele>55.799999237061</ele>
        <time>2017-01-28T14:33:55.000Z</time>
      </trkpt>
      <trkpt lat="43.44448" lon="6.49539">
        <ele>55.799999237061</ele>
        <time>2017-01-28T14:33:58.000Z</time>
      </trkpt>
      <trkpt lat="43.44461" lon="6.49528">
        <ele>55.200000762939</ele>
        <time>2017-01-28T14:34:01.000Z</time>
      </trkpt>
      <trkpt lat="43.44475" lon="6.49519">
        <ele>55</ele>
        <time>2017-01-28T14:34:04.000Z</time>
      </trkpt>
      <trkpt lat="43.44507" lon="6.49494">
        <ele>54.799999237061</ele>
        <time>2017-01-28T14:34:12.000Z</time>
      </trkpt>
      <trkpt lat="43.44519" lon="6.49482">
        <ele>54.599998474121</ele>
        <time>2017-01-28T14:34:15.000Z</time>
      </trkpt>
      <trkpt lat="43.44535" lon="6.49464">
        <ele>54</ele>
        <time>2017-01-28T14:34:19.000Z</time>
      </trkpt>
      <trkpt lat="43.44546" lon="6.49448">
        <ele>53.599998474121</ele>
        <time>2017-01-28T14:34:22.000Z</time>
      </trkpt>
      <trkpt lat="43.44556" lon="6.49433">
        <ele>53.400001525879</ele>
        <time>2017-01-28T14:34:25.000Z</time>
      </trkpt>
      <trkpt lat="43.44563" lon="6.49418">
        <ele>53</ele>
        <time>2017-01-28T14:34:28.000Z</time>
      </trkpt>
      <trkpt lat="43.44568" lon="6.49409">
        <ele>53</ele>
        <time>2017-01-28T14:34:30.000Z</time>
      </trkpt>
      <trkpt lat="43.4458" lon="6.4939">
        <ele>52.799999237061</ele>
        <time>2017-01-28T14:34:33.000Z</time>
      </trkpt>
      <trkpt lat="43.44598" lon="6.49357">
        <ele>53</ele>
        <time>2017-01-28T14:34:39.000Z</time>
      </trkpt>
      <trkpt lat="43.44613" lon="6.49326">
        <ele>54.799999237061</ele>
        <time>2017-01-28T14:34:46.000Z</time>
      </trkpt>
      <trkpt lat="43.44623" lon="6.49306">
        <ele>56</ele>
        <time>2017-01-28T14:34:51.000Z</time>
      </trkpt>
      <trkpt lat="43.44629" lon="6.49293">
        <ele>56.200000762939</ele>
        <time>2017-01-28T14:34:54.000Z</time>
      </trkpt>
      <trkpt lat="43.44647" lon="6.49264">
        <ele>56.599998474121</ele>
        <time>2017-01-28T14:35:01.000Z</time>
      </trkpt>
      <trkpt lat="43.4468" lon="6.49216">
        <ele>57</ele>
        <time>2017-01-28T14:35:12.000Z</time>
      </trkpt>
      <trkpt lat="43.44706" lon="6.49178">
        <ele>58</ele>
        <time>2017-01-28T14:35:21.000Z</time>
      </trkpt>
      <trkpt lat="43.44708" lon="6.49174">
        <ele>57.799999237061</ele>
        <time>2017-01-28T14:35:22.000Z</time>
      </trkpt>
      <trkpt lat="43.44724" lon="6.49139">
        <ele>57.599998474121</ele>
        <time>2017-01-28T14:35:29.000Z</time>
      </trkpt>
      <trkpt lat="43.44735" lon="6.49113">
        <ele>58</ele>
        <time>2017-01-28T14:35:34.000Z</time>
      </trkpt>
      <trkpt lat="43.44741" lon="6.49104">
        <ele>58.200000762939</ele>
        <time>2017-01-28T14:35:36.000Z</time>
      </trkpt>
      <trkpt lat="43.44767" lon="6.49076">
        <ele>58.599998474121</ele>
        <time>2017-01-28T14:35:44.000Z</time>
      </trkpt>
      <trkpt lat="43.44796" lon="6.49042">
        <ele>59</ele>
        <time>2017-01-28T14:35:53.000Z</time>
      </trkpt>
      <trkpt lat="43.448" lon="6.49038">
        <ele>59.200000762939</ele>
        <time>2017-01-28T14:35:54.000Z</time>
      </trkpt>
      <trkpt lat="43.44812" lon="6.49025">
        <ele>59.400001525879</ele>
        <time>2017-01-28T14:35:58.000Z</time>
      </trkpt>
      <trkpt lat="43.44818" lon="6.49018">
        <ele>59.599998474121</ele>
        <time>2017-01-28T14:36:00.000Z</time>
      </trkpt>
      <trkpt lat="43.44843" lon="6.48987">
        <ele>59.599998474121</ele>
        <time>2017-01-28T14:36:09.000Z</time>
      </trkpt>
      <trkpt lat="43.44864" lon="6.48949">
        <ele>60</ele>
        <time>2017-01-28T14:36:18.000Z</time>
      </trkpt>
      <trkpt lat="43.44866" lon="6.48944">
        <ele>60</ele>
        <time>2017-01-28T14:36:19.000Z</time>
      </trkpt>
      <trkpt lat="43.44879" lon="6.48903">
        <ele>60.400001525879</ele>
        <time>2017-01-28T14:36:27.000Z</time>
      </trkpt>
      <trkpt lat="43.4489" lon="6.48857">
        <ele>60.599998474121</ele>
        <time>2017-01-28T14:36:36.000Z</time>
      </trkpt>
      <trkpt lat="43.44898" lon="6.48815">
        <ele>61</ele>
        <time>2017-01-28T14:36:45.000Z</time>
      </trkpt>
      <trkpt lat="43.449" lon="6.48808">
        <ele>61</ele>
        <time>2017-01-28T14:36:47.000Z</time>
      </trkpt>
      <trkpt lat="43.44902" lon="6.48802">
        <ele>61.200000762939</ele>
        <time>2017-01-28T14:36:51.000Z</time>
      </trkpt>
      <trkpt lat="43.44902" lon="6.48802">
        <ele>61.200000762939</ele>
        <time>2017-01-28T14:36:57.000Z</time>
      </trkpt>
      <trkpt lat="43.44901" lon="6.48801">
        <ele>61.599998474121</ele>
        <time>2017-01-28T14:37:06.000Z</time>
      </trkpt>
      <trkpt lat="43.449" lon="6.488">
        <ele>61.400001525879</ele>
        <time>2017-01-28T14:37:13.000Z</time>
      </trkpt>
      <trkpt lat="43.449" lon="6.48801">
        <ele>61.400001525879</ele>
        <time>2017-01-28T14:37:21.000Z</time>
      </trkpt>
      <trkpt lat="43.44899" lon="6.48801">
        <ele>61.599998474121</ele>
        <time>2017-01-28T14:37:32.000Z</time>
      </trkpt>
      <trkpt lat="43.449" lon="6.48801">
        <ele>61.599998474121</ele>
        <time>2017-01-28T14:37:38.000Z</time>
      </trkpt>
      <trkpt lat="43.449" lon="6.48801">
        <ele>61.400001525879</ele>
        <time>2017-01-28T14:37:41.000Z</time>
      </trkpt>
    </trkseg>
  </trk>
</gpx>